<?xml version="1.0" encoding="UTF-8" standalone="no" ?>
<gpx xmlns="http://www.topografix.com/GPX/1/1" xmlns:xsi="http://www.w3.org/2001/XMLSchema-instance" xsi:schemaLocation="http://www.topografix.com/GPX/1/1 http://www.topografix.com/GPX/1/1/gpx.xsd" version="1.1" creator="VisuGPX - https://www.visugpx.com">
  <metadata>
    <name>lundi 2016 08</name>
    <desc><![CDATA[cumul des lundi du mois d'aout 2016]]></desc>
  </metadata>
  <trk>
    <name><![CDATA[Rando Roller du lundi 1er août]]></name>
    <desc><![CDATA[Mairies de 1 à 12]]></desc>
    <trkseg>
      <trkpt lat="48.85734" lon="2.34727">
        <ele>40.400001525879</ele>
        <time>2016-08-01T18:18:43.000Z</time>
      </trkpt>
      <trkpt lat="48.85739" lon="2.34721">
        <ele>40.400001525879</ele>
        <time>2016-08-01T18:19:12.000Z</time>
      </trkpt>
      <trkpt lat="48.85749" lon="2.34714">
        <ele>40</ele>
        <time>2016-08-01T18:19:24.000Z</time>
      </trkpt>
      <trkpt lat="48.85792" lon="2.34696">
        <ele>39.799999237061</ele>
        <time>2016-08-01T18:19:43.000Z</time>
      </trkpt>
      <trkpt lat="48.85802" lon="2.34667">
        <ele>41.200000762939</ele>
        <time>2016-08-01T18:19:48.000Z</time>
      </trkpt>
      <trkpt lat="48.85819" lon="2.34601">
        <ele>47.799999237061</ele>
        <time>2016-08-01T18:20:00.000Z</time>
      </trkpt>
      <trkpt lat="48.8582" lon="2.3459">
        <ele>48.200000762939</ele>
        <time>2016-08-01T18:20:03.000Z</time>
      </trkpt>
      <trkpt lat="48.85813" lon="2.34562">
        <ele>46.799999237061</ele>
        <time>2016-08-01T18:20:10.000Z</time>
      </trkpt>
      <trkpt lat="48.85822" lon="2.34529">
        <ele>45.799999237061</ele>
        <time>2016-08-01T18:20:20.000Z</time>
      </trkpt>
      <trkpt lat="48.85836" lon="2.34463">
        <ele>46.200000762939</ele>
        <time>2016-08-01T18:20:33.000Z</time>
      </trkpt>
      <trkpt lat="48.85842" lon="2.34406">
        <ele>46.200000762939</ele>
        <time>2016-08-01T18:20:46.000Z</time>
      </trkpt>
      <trkpt lat="48.85825" lon="2.34363">
        <ele>47.200000762939</ele>
        <time>2016-08-01T18:20:57.000Z</time>
      </trkpt>
      <trkpt lat="48.85847" lon="2.34297">
        <ele>55.599998474121</ele>
        <time>2016-08-01T18:21:13.000Z</time>
      </trkpt>
      <trkpt lat="48.8585" lon="2.34295">
        <ele>56.200000762939</ele>
        <time>2016-08-01T18:21:14.000Z</time>
      </trkpt>
      <trkpt lat="48.85858" lon="2.34284">
        <ele>58.400001525879</ele>
        <time>2016-08-01T18:21:23.000Z</time>
      </trkpt>
      <trkpt lat="48.85857" lon="2.34265">
        <ele>60.200000762939</ele>
        <time>2016-08-01T18:21:28.000Z</time>
      </trkpt>
      <trkpt lat="48.8585" lon="2.34245">
        <ele>60.799999237061</ele>
        <time>2016-08-01T18:21:38.000Z</time>
      </trkpt>
      <trkpt lat="48.85848" lon="2.34239">
        <ele>60.400001525879</ele>
        <time>2016-08-01T18:21:42.000Z</time>
      </trkpt>
      <trkpt lat="48.85847" lon="2.34237">
        <ele>60</ele>
        <time>2016-08-01T18:21:44.000Z</time>
      </trkpt>
      <trkpt lat="48.85853" lon="2.34217">
        <ele>59.599998474121</ele>
        <time>2016-08-01T18:21:51.000Z</time>
      </trkpt>
      <trkpt lat="48.85854" lon="2.34206">
        <ele>59.200000762939</ele>
        <time>2016-08-01T18:21:57.000Z</time>
      </trkpt>
      <trkpt lat="48.85858" lon="2.34199">
        <ele>58.799999237061</ele>
        <time>2016-08-01T18:22:00.000Z</time>
      </trkpt>
      <trkpt lat="48.85868" lon="2.34189">
        <ele>57.400001525879</ele>
        <time>2016-08-01T18:22:04.000Z</time>
      </trkpt>
      <trkpt lat="48.85908" lon="2.34161">
        <ele>52</ele>
        <time>2016-08-01T18:22:21.000Z</time>
      </trkpt>
      <trkpt lat="48.85929" lon="2.34099">
        <ele>48.400001525879</ele>
        <time>2016-08-01T18:22:32.000Z</time>
      </trkpt>
      <trkpt lat="48.85946" lon="2.34075">
        <ele>48.799999237061</ele>
        <time>2016-08-01T18:22:38.000Z</time>
      </trkpt>
      <trkpt lat="48.85992" lon="2.34083">
        <ele>48.400001525879</ele>
        <time>2016-08-01T18:22:49.000Z</time>
      </trkpt>
      <trkpt lat="48.86025" lon="2.34112">
        <ele>48</ele>
        <time>2016-08-01T18:23:33.000Z</time>
      </trkpt>
      <trkpt lat="48.86038" lon="2.34074">
        <ele>47</ele>
        <time>2016-08-01T18:23:44.000Z</time>
      </trkpt>
      <trkpt lat="48.86075" lon="2.34104">
        <ele>47.400001525879</ele>
        <time>2016-08-01T18:24:10.000Z</time>
      </trkpt>
      <trkpt lat="48.86083" lon="2.341">
        <ele>47</ele>
        <time>2016-08-01T18:24:20.000Z</time>
      </trkpt>
      <trkpt lat="48.86107" lon="2.34093">
        <ele>46.400001525879</ele>
        <time>2016-08-01T18:24:32.000Z</time>
      </trkpt>
      <trkpt lat="48.8615" lon="2.3412">
        <ele>48</ele>
        <time>2016-08-01T18:24:46.000Z</time>
      </trkpt>
      <trkpt lat="48.86191" lon="2.34148">
        <ele>49.799999237061</ele>
        <time>2016-08-01T18:24:56.000Z</time>
      </trkpt>
      <trkpt lat="48.86234" lon="2.34173">
        <ele>49.799999237061</ele>
        <time>2016-08-01T18:25:06.000Z</time>
      </trkpt>
      <trkpt lat="48.86249" lon="2.34179">
        <ele>49.799999237061</ele>
        <time>2016-08-01T18:25:09.000Z</time>
      </trkpt>
      <trkpt lat="48.86294" lon="2.34177">
        <ele>49.799999237061</ele>
        <time>2016-08-01T18:25:19.000Z</time>
      </trkpt>
      <trkpt lat="48.86298" lon="2.34171">
        <ele>49.799999237061</ele>
        <time>2016-08-01T18:25:20.000Z</time>
      </trkpt>
      <trkpt lat="48.8631" lon="2.3415">
        <ele>49.799999237061</ele>
        <time>2016-08-01T18:25:23.000Z</time>
      </trkpt>
      <trkpt lat="48.86319" lon="2.3413">
        <ele>50.200000762939</ele>
        <time>2016-08-01T18:25:26.000Z</time>
      </trkpt>
      <trkpt lat="48.86333" lon="2.3407">
        <ele>48.799999237061</ele>
        <time>2016-08-01T18:25:35.000Z</time>
      </trkpt>
      <trkpt lat="48.86342" lon="2.34">
        <ele>49.200000762939</ele>
        <time>2016-08-01T18:25:47.000Z</time>
      </trkpt>
      <trkpt lat="48.86349" lon="2.33994">
        <ele>49</ele>
        <time>2016-08-01T18:25:50.000Z</time>
      </trkpt>
      <trkpt lat="48.86392" lon="2.34026">
        <ele>49.599998474121</ele>
        <time>2016-08-01T18:26:00.000Z</time>
      </trkpt>
      <trkpt lat="48.86435" lon="2.34045">
        <ele>50.400001525879</ele>
        <time>2016-08-01T18:26:11.000Z</time>
      </trkpt>
      <trkpt lat="48.8648" lon="2.34062">
        <ele>50.200000762939</ele>
        <time>2016-08-01T18:26:22.000Z</time>
      </trkpt>
      <trkpt lat="48.86523" lon="2.34091">
        <ele>49.799999237061</ele>
        <time>2016-08-01T18:26:37.000Z</time>
      </trkpt>
      <trkpt lat="48.8656" lon="2.3413">
        <ele>48.799999237061</ele>
        <time>2016-08-01T18:26:49.000Z</time>
      </trkpt>
      <trkpt lat="48.86574" lon="2.34132">
        <ele>48.799999237061</ele>
        <time>2016-08-01T18:26:52.000Z</time>
      </trkpt>
      <trkpt lat="48.86588" lon="2.34119">
        <ele>48.799999237061</ele>
        <time>2016-08-01T18:26:56.000Z</time>
      </trkpt>
      <trkpt lat="48.86589" lon="2.34081">
        <ele>49.200000762939</ele>
        <time>2016-08-01T18:27:02.000Z</time>
      </trkpt>
      <trkpt lat="48.86591" lon="2.34061">
        <ele>49</ele>
        <time>2016-08-01T18:27:05.000Z</time>
      </trkpt>
      <trkpt lat="48.86607" lon="2.34003">
        <ele>50.799999237061</ele>
        <time>2016-08-01T18:27:18.000Z</time>
      </trkpt>
      <trkpt lat="48.8665" lon="2.3403">
        <ele>50.200000762939</ele>
        <time>2016-08-01T18:27:37.000Z</time>
      </trkpt>
      <trkpt lat="48.86693" lon="2.3405">
        <ele>49.799999237061</ele>
        <time>2016-08-01T18:27:51.000Z</time>
      </trkpt>
      <trkpt lat="48.86738" lon="2.3408">
        <ele>49</ele>
        <time>2016-08-01T18:28:04.000Z</time>
      </trkpt>
      <trkpt lat="48.86784" lon="2.34102">
        <ele>49</ele>
        <time>2016-08-01T18:28:16.000Z</time>
      </trkpt>
      <trkpt lat="48.86827" lon="2.34128">
        <ele>48.200000762939</ele>
        <time>2016-08-01T18:28:31.000Z</time>
      </trkpt>
      <trkpt lat="48.8686" lon="2.34136">
        <ele>47.200000762939</ele>
        <time>2016-08-01T18:28:54.000Z</time>
      </trkpt>
      <trkpt lat="48.86853" lon="2.34207">
        <ele>48.599998474121</ele>
        <time>2016-08-01T18:29:08.000Z</time>
      </trkpt>
      <trkpt lat="48.86852" lon="2.34219">
        <ele>48.799999237061</ele>
        <time>2016-08-01T18:29:09.000Z</time>
      </trkpt>
      <trkpt lat="48.8685" lon="2.34225">
        <ele>49</ele>
        <time>2016-08-01T18:29:11.000Z</time>
      </trkpt>
      <trkpt lat="48.86835" lon="2.34283">
        <ele>49.799999237061</ele>
        <time>2016-08-01T18:29:20.000Z</time>
      </trkpt>
      <trkpt lat="48.86819" lon="2.34348">
        <ele>48.599998474121</ele>
        <time>2016-08-01T18:29:31.000Z</time>
      </trkpt>
      <trkpt lat="48.86804" lon="2.34412">
        <ele>47.599998474121</ele>
        <time>2016-08-01T18:29:43.000Z</time>
      </trkpt>
      <trkpt lat="48.86791" lon="2.34483">
        <ele>50.400001525879</ele>
        <time>2016-08-01T18:29:57.000Z</time>
      </trkpt>
      <trkpt lat="48.8678" lon="2.34553">
        <ele>50.400001525879</ele>
        <time>2016-08-01T18:30:08.000Z</time>
      </trkpt>
      <trkpt lat="48.86776" lon="2.34587">
        <ele>50.200000762939</ele>
        <time>2016-08-01T18:30:13.000Z</time>
      </trkpt>
      <trkpt lat="48.86765" lon="2.34658">
        <ele>49.799999237061</ele>
        <time>2016-08-01T18:30:22.000Z</time>
      </trkpt>
      <trkpt lat="48.86758" lon="2.34693">
        <ele>49</ele>
        <time>2016-08-01T18:30:26.000Z</time>
      </trkpt>
      <trkpt lat="48.86737" lon="2.34755">
        <ele>48.799999237061</ele>
        <time>2016-08-01T18:30:33.000Z</time>
      </trkpt>
      <trkpt lat="48.86718" lon="2.34822">
        <ele>47.599998474121</ele>
        <time>2016-08-01T18:30:40.000Z</time>
      </trkpt>
      <trkpt lat="48.8671" lon="2.34896">
        <ele>46</ele>
        <time>2016-08-01T18:30:47.000Z</time>
      </trkpt>
      <trkpt lat="48.86696" lon="2.34971">
        <ele>47</ele>
        <time>2016-08-01T18:30:54.000Z</time>
      </trkpt>
      <trkpt lat="48.86679" lon="2.3504">
        <ele>48</ele>
        <time>2016-08-01T18:31:01.000Z</time>
      </trkpt>
      <trkpt lat="48.86664" lon="2.35109">
        <ele>47.400001525879</ele>
        <time>2016-08-01T18:31:10.000Z</time>
      </trkpt>
      <trkpt lat="48.86653" lon="2.35178">
        <ele>48.400001525879</ele>
        <time>2016-08-01T18:31:20.000Z</time>
      </trkpt>
      <trkpt lat="48.86635" lon="2.35243">
        <ele>49.400001525879</ele>
        <time>2016-08-01T18:31:29.000Z</time>
      </trkpt>
      <trkpt lat="48.86619" lon="2.35314">
        <ele>48.599998474121</ele>
        <time>2016-08-01T18:31:40.000Z</time>
      </trkpt>
      <trkpt lat="48.86605" lon="2.3538">
        <ele>48</ele>
        <time>2016-08-01T18:31:50.000Z</time>
      </trkpt>
      <trkpt lat="48.86601" lon="2.35385">
        <ele>47.799999237061</ele>
        <time>2016-08-01T18:32:06.000Z</time>
      </trkpt>
      <trkpt lat="48.86586" lon="2.35457">
        <ele>47.200000762939</ele>
        <time>2016-08-01T18:32:18.000Z</time>
      </trkpt>
      <trkpt lat="48.86578" lon="2.35498">
        <ele>47</ele>
        <time>2016-08-01T18:32:24.000Z</time>
      </trkpt>
      <trkpt lat="48.86565" lon="2.35564">
        <ele>44</ele>
        <time>2016-08-01T18:32:35.000Z</time>
      </trkpt>
      <trkpt lat="48.86561" lon="2.35576">
        <ele>43.799999237061</ele>
        <time>2016-08-01T18:32:37.000Z</time>
      </trkpt>
      <trkpt lat="48.8655" lon="2.35649">
        <ele>45</ele>
        <time>2016-08-01T18:32:47.000Z</time>
      </trkpt>
      <trkpt lat="48.86548" lon="2.35657">
        <ele>45</ele>
        <time>2016-08-01T18:32:48.000Z</time>
      </trkpt>
      <trkpt lat="48.86533" lon="2.35727">
        <ele>45.200000762939</ele>
        <time>2016-08-01T18:32:55.000Z</time>
      </trkpt>
      <trkpt lat="48.86519" lon="2.35793">
        <ele>45.599998474121</ele>
        <time>2016-08-01T18:33:01.000Z</time>
      </trkpt>
      <trkpt lat="48.86504" lon="2.35865">
        <ele>45.200000762939</ele>
        <time>2016-08-01T18:33:07.000Z</time>
      </trkpt>
      <trkpt lat="48.86486" lon="2.35932">
        <ele>45</ele>
        <time>2016-08-01T18:33:16.000Z</time>
      </trkpt>
      <trkpt lat="48.86481" lon="2.35971">
        <ele>45.200000762939</ele>
        <time>2016-08-01T18:33:31.000Z</time>
      </trkpt>
      <trkpt lat="48.86444" lon="2.36021">
        <ele>43.200000762939</ele>
        <time>2016-08-01T18:33:46.000Z</time>
      </trkpt>
      <trkpt lat="48.86439" lon="2.36027">
        <ele>43</ele>
        <time>2016-08-01T18:33:47.000Z</time>
      </trkpt>
      <trkpt lat="48.86404" lon="2.36076">
        <ele>42.400001525879</ele>
        <time>2016-08-01T18:33:58.000Z</time>
      </trkpt>
      <trkpt lat="48.86393" lon="2.36116">
        <ele>43</ele>
        <time>2016-08-01T18:34:11.000Z</time>
      </trkpt>
      <trkpt lat="48.86425" lon="2.36163">
        <ele>42.200000762939</ele>
        <time>2016-08-01T18:34:28.000Z</time>
      </trkpt>
      <trkpt lat="48.8642" lon="2.36222">
        <ele>42.200000762939</ele>
        <time>2016-08-01T18:34:43.000Z</time>
      </trkpt>
      <trkpt lat="48.86392" lon="2.36276">
        <ele>44.400001525879</ele>
        <time>2016-08-01T18:34:58.000Z</time>
      </trkpt>
      <trkpt lat="48.86388" lon="2.36274">
        <ele>44.400001525879</ele>
        <time>2016-08-01T18:34:59.000Z</time>
      </trkpt>
      <trkpt lat="48.86352" lon="2.36228">
        <ele>44.599998474121</ele>
        <time>2016-08-01T18:35:13.000Z</time>
      </trkpt>
      <trkpt lat="48.86312" lon="2.36228">
        <ele>45.599998474121</ele>
        <time>2016-08-01T18:35:30.000Z</time>
      </trkpt>
      <trkpt lat="48.86291" lon="2.36255">
        <ele>47.400001525879</ele>
        <time>2016-08-01T18:35:42.000Z</time>
      </trkpt>
      <trkpt lat="48.86256" lon="2.36207">
        <ele>46.599998474121</ele>
        <time>2016-08-01T18:35:57.000Z</time>
      </trkpt>
      <trkpt lat="48.86216" lon="2.36164">
        <ele>46</ele>
        <time>2016-08-01T18:36:07.000Z</time>
      </trkpt>
      <trkpt lat="48.86183" lon="2.36117">
        <ele>46.400001525879</ele>
        <time>2016-08-01T18:36:16.000Z</time>
      </trkpt>
      <trkpt lat="48.86143" lon="2.36072">
        <ele>45.799999237061</ele>
        <time>2016-08-01T18:36:26.000Z</time>
      </trkpt>
      <trkpt lat="48.86118" lon="2.3604">
        <ele>45.599998474121</ele>
        <time>2016-08-01T18:36:33.000Z</time>
      </trkpt>
      <trkpt lat="48.86094" lon="2.3601">
        <ele>44.200000762939</ele>
        <time>2016-08-01T18:36:39.000Z</time>
      </trkpt>
      <trkpt lat="48.86087" lon="2.36001">
        <ele>43.599998474121</ele>
        <time>2016-08-01T18:36:41.000Z</time>
      </trkpt>
      <trkpt lat="48.86059" lon="2.35978">
        <ele>42</ele>
        <time>2016-08-01T18:36:51.000Z</time>
      </trkpt>
      <trkpt lat="48.86027" lon="2.3603">
        <ele>40</ele>
        <time>2016-08-01T18:37:08.000Z</time>
      </trkpt>
      <trkpt lat="48.86007" lon="2.36063">
        <ele>41.400001525879</ele>
        <time>2016-08-01T18:37:18.000Z</time>
      </trkpt>
      <trkpt lat="48.85973" lon="2.36014">
        <ele>41.799999237061</ele>
        <time>2016-08-01T18:37:29.000Z</time>
      </trkpt>
      <trkpt lat="48.85939" lon="2.35965">
        <ele>43</ele>
        <time>2016-08-01T18:37:38.000Z</time>
      </trkpt>
      <trkpt lat="48.85905" lon="2.35913">
        <ele>42.599998474121</ele>
        <time>2016-08-01T18:37:47.000Z</time>
      </trkpt>
      <trkpt lat="48.85898" lon="2.35904">
        <ele>42.599998474121</ele>
        <time>2016-08-01T18:37:49.000Z</time>
      </trkpt>
      <trkpt lat="48.85883" lon="2.35896">
        <ele>42.599998474121</ele>
        <time>2016-08-01T18:37:52.000Z</time>
      </trkpt>
      <trkpt lat="48.85877" lon="2.35887">
        <ele>42.599998474121</ele>
        <time>2016-08-01T18:37:54.000Z</time>
      </trkpt>
      <trkpt lat="48.85841" lon="2.35839">
        <ele>43.400001525879</ele>
        <time>2016-08-01T18:38:04.000Z</time>
      </trkpt>
      <trkpt lat="48.85838" lon="2.35836">
        <ele>43.599998474121</ele>
        <time>2016-08-01T18:38:05.000Z</time>
      </trkpt>
      <trkpt lat="48.85801" lon="2.35788">
        <ele>45.599998474121</ele>
        <time>2016-08-01T18:38:16.000Z</time>
      </trkpt>
      <trkpt lat="48.8576" lon="2.35747">
        <ele>47.200000762939</ele>
        <time>2016-08-01T18:38:28.000Z</time>
      </trkpt>
      <trkpt lat="48.85742" lon="2.35733">
        <ele>47</ele>
        <time>2016-08-01T18:38:33.000Z</time>
      </trkpt>
      <trkpt lat="48.85704" lon="2.35695">
        <ele>46.599998474121</ele>
        <time>2016-08-01T18:38:45.000Z</time>
      </trkpt>
      <trkpt lat="48.85673" lon="2.35684">
        <ele>46</ele>
        <time>2016-08-01T18:38:53.000Z</time>
      </trkpt>
      <trkpt lat="48.85688" lon="2.35617">
        <ele>46</ele>
        <time>2016-08-01T18:39:12.000Z</time>
      </trkpt>
      <trkpt lat="48.85692" lon="2.3559">
        <ele>46</ele>
        <time>2016-08-01T18:39:20.000Z</time>
      </trkpt>
      <trkpt lat="48.85687" lon="2.35567">
        <ele>46</ele>
        <time>2016-08-01T18:39:31.000Z</time>
      </trkpt>
      <trkpt lat="48.85643" lon="2.35547">
        <ele>42.799999237061</ele>
        <time>2016-08-01T18:39:47.000Z</time>
      </trkpt>
      <trkpt lat="48.85611" lon="2.35548">
        <ele>41.599998474121</ele>
        <time>2016-08-01T18:40:10.000Z</time>
      </trkpt>
      <trkpt lat="48.85595" lon="2.35605">
        <ele>43</ele>
        <time>2016-08-01T18:40:38.000Z</time>
      </trkpt>
      <trkpt lat="48.85587" lon="2.35618">
        <ele>43</ele>
        <time>2016-08-01T18:40:45.000Z</time>
      </trkpt>
      <trkpt lat="48.85551" lon="2.35577">
        <ele>41.599998474121</ele>
        <time>2016-08-01T18:40:59.000Z</time>
      </trkpt>
      <trkpt lat="48.85535" lon="2.35561">
        <ele>40.799999237061</ele>
        <time>2016-08-01T18:41:03.000Z</time>
      </trkpt>
      <trkpt lat="48.85505" lon="2.35519">
        <ele>38.599998474121</ele>
        <time>2016-08-01T18:41:12.000Z</time>
      </trkpt>
      <trkpt lat="48.85456" lon="2.35514">
        <ele>36.200000762939</ele>
        <time>2016-08-01T18:41:26.000Z</time>
      </trkpt>
      <trkpt lat="48.85446" lon="2.35507">
        <ele>35.599998474121</ele>
        <time>2016-08-01T18:42:27.000Z</time>
      </trkpt>
      <trkpt lat="48.85408" lon="2.35466">
        <ele>36.799999237061</ele>
        <time>2016-08-01T18:42:43.000Z</time>
      </trkpt>
      <trkpt lat="48.85368" lon="2.35427">
        <ele>39.400001525879</ele>
        <time>2016-08-01T18:42:55.000Z</time>
      </trkpt>
      <trkpt lat="48.85329" lon="2.35387">
        <ele>40.599998474121</ele>
        <time>2016-08-01T18:43:08.000Z</time>
      </trkpt>
      <trkpt lat="48.85294" lon="2.35339">
        <ele>40.599998474121</ele>
        <time>2016-08-01T18:43:23.000Z</time>
      </trkpt>
      <trkpt lat="48.85291" lon="2.35329">
        <ele>40.200000762939</ele>
        <time>2016-08-01T18:43:27.000Z</time>
      </trkpt>
      <trkpt lat="48.85274" lon="2.35266">
        <ele>38</ele>
        <time>2016-08-01T18:43:43.000Z</time>
      </trkpt>
      <trkpt lat="48.85268" lon="2.35239">
        <ele>36.799999237061</ele>
        <time>2016-08-01T18:43:50.000Z</time>
      </trkpt>
      <trkpt lat="48.85227" lon="2.35206">
        <ele>32.799999237061</ele>
        <time>2016-08-01T18:44:04.000Z</time>
      </trkpt>
      <trkpt lat="48.85186" lon="2.35177">
        <ele>29.799999237061</ele>
        <time>2016-08-01T18:44:16.000Z</time>
      </trkpt>
      <trkpt lat="48.85144" lon="2.35151">
        <ele>32.599998474121</ele>
        <time>2016-08-01T18:44:30.000Z</time>
      </trkpt>
      <trkpt lat="48.85113" lon="2.35141">
        <ele>35</ele>
        <time>2016-08-01T18:44:56.000Z</time>
      </trkpt>
      <trkpt lat="48.85108" lon="2.35136">
        <ele>35.599998474121</ele>
        <time>2016-08-01T18:45:07.000Z</time>
      </trkpt>
      <trkpt lat="48.85098" lon="2.35127">
        <ele>36.599998474121</ele>
        <time>2016-08-01T18:45:18.000Z</time>
      </trkpt>
      <trkpt lat="48.85093" lon="2.35123">
        <ele>37.200000762939</ele>
        <time>2016-08-01T18:45:26.000Z</time>
      </trkpt>
      <trkpt lat="48.85086" lon="2.35123">
        <ele>37.599998474121</ele>
        <time>2016-08-01T18:45:29.000Z</time>
      </trkpt>
      <trkpt lat="48.85045" lon="2.35088">
        <ele>42.200000762939</ele>
        <time>2016-08-01T18:45:43.000Z</time>
      </trkpt>
      <trkpt lat="48.85002" lon="2.35066">
        <ele>44</ele>
        <time>2016-08-01T18:45:56.000Z</time>
      </trkpt>
      <trkpt lat="48.84971" lon="2.35038">
        <ele>44.400001525879</ele>
        <time>2016-08-01T18:46:10.000Z</time>
      </trkpt>
      <trkpt lat="48.84928" lon="2.35016">
        <ele>45</ele>
        <time>2016-08-01T18:46:23.000Z</time>
      </trkpt>
      <trkpt lat="48.84903" lon="2.3499">
        <ele>47.599998474121</ele>
        <time>2016-08-01T18:47:15.000Z</time>
      </trkpt>
      <trkpt lat="48.84897" lon="2.34988">
        <ele>48</ele>
        <time>2016-08-01T18:47:19.000Z</time>
      </trkpt>
      <trkpt lat="48.84876" lon="2.3501">
        <ele>48.400001525879</ele>
        <time>2016-08-01T18:47:25.000Z</time>
      </trkpt>
      <trkpt lat="48.84834" lon="2.35039">
        <ele>48.799999237061</ele>
        <time>2016-08-01T18:47:34.000Z</time>
      </trkpt>
      <trkpt lat="48.84825" lon="2.35044">
        <ele>48.799999237061</ele>
        <time>2016-08-01T18:47:36.000Z</time>
      </trkpt>
      <trkpt lat="48.84796" lon="2.35078">
        <ele>48.400001525879</ele>
        <time>2016-08-01T18:47:44.000Z</time>
      </trkpt>
      <trkpt lat="48.84782" lon="2.35091">
        <ele>48</ele>
        <time>2016-08-01T18:47:47.000Z</time>
      </trkpt>
      <trkpt lat="48.84765" lon="2.35111">
        <ele>47.200000762939</ele>
        <time>2016-08-01T18:47:51.000Z</time>
      </trkpt>
      <trkpt lat="48.8475" lon="2.35132">
        <ele>46.200000762939</ele>
        <time>2016-08-01T18:47:55.000Z</time>
      </trkpt>
      <trkpt lat="48.84735" lon="2.35144">
        <ele>46</ele>
        <time>2016-08-01T18:47:58.000Z</time>
      </trkpt>
      <trkpt lat="48.84704" lon="2.35163">
        <ele>46.400001525879</ele>
        <time>2016-08-01T18:48:04.000Z</time>
      </trkpt>
      <trkpt lat="48.84678" lon="2.35172">
        <ele>48.200000762939</ele>
        <time>2016-08-01T18:48:09.000Z</time>
      </trkpt>
      <trkpt lat="48.84668" lon="2.35168">
        <ele>49.400001525879</ele>
        <time>2016-08-01T18:48:11.000Z</time>
      </trkpt>
      <trkpt lat="48.84633" lon="2.35124">
        <ele>53</ele>
        <time>2016-08-01T18:48:21.000Z</time>
      </trkpt>
      <trkpt lat="48.84605" lon="2.35069">
        <ele>56.599998474121</ele>
        <time>2016-08-01T18:48:34.000Z</time>
      </trkpt>
      <trkpt lat="48.84601" lon="2.34999">
        <ele>60.200000762939</ele>
        <time>2016-08-01T18:48:48.000Z</time>
      </trkpt>
      <trkpt lat="48.84616" lon="2.34932">
        <ele>60.200000762939</ele>
        <time>2016-08-01T18:49:01.000Z</time>
      </trkpt>
      <trkpt lat="48.84618" lon="2.34889">
        <ele>60.599998474121</ele>
        <time>2016-08-01T18:49:20.000Z</time>
      </trkpt>
      <trkpt lat="48.84623" lon="2.34879">
        <ele>60.400001525879</ele>
        <time>2016-08-01T18:50:17.000Z</time>
      </trkpt>
      <trkpt lat="48.84635" lon="2.34814">
        <ele>61</ele>
        <time>2016-08-01T18:50:32.000Z</time>
      </trkpt>
      <trkpt lat="48.84648" lon="2.34746">
        <ele>63</ele>
        <time>2016-08-01T18:50:50.000Z</time>
      </trkpt>
      <trkpt lat="48.84654" lon="2.3473">
        <ele>63.200000762939</ele>
        <time>2016-08-01T18:50:58.000Z</time>
      </trkpt>
      <trkpt lat="48.84611" lon="2.34709">
        <ele>63.400001525879</ele>
        <time>2016-08-01T18:51:08.000Z</time>
      </trkpt>
      <trkpt lat="48.84574" lon="2.34691">
        <ele>65.199996948242</ele>
        <time>2016-08-01T18:51:18.000Z</time>
      </trkpt>
      <trkpt lat="48.84579" lon="2.34624">
        <ele>66.800003051758</ele>
        <time>2016-08-01T18:51:36.000Z</time>
      </trkpt>
      <trkpt lat="48.84579" lon="2.3462">
        <ele>67</ele>
        <time>2016-08-01T18:51:37.000Z</time>
      </trkpt>
      <trkpt lat="48.84588" lon="2.34551">
        <ele>69.400001525879</ele>
        <time>2016-08-01T18:51:56.000Z</time>
      </trkpt>
      <trkpt lat="48.84598" lon="2.34483">
        <ele>69</ele>
        <time>2016-08-01T18:52:17.000Z</time>
      </trkpt>
      <trkpt lat="48.84597" lon="2.3447">
        <ele>68.800003051758</ele>
        <time>2016-08-01T18:52:23.000Z</time>
      </trkpt>
      <trkpt lat="48.84628" lon="2.34425">
        <ele>67.199996948242</ele>
        <time>2016-08-01T18:52:45.000Z</time>
      </trkpt>
      <trkpt lat="48.84652" lon="2.34411">
        <ele>66.400001525879</ele>
        <time>2016-08-01T18:53:04.000Z</time>
      </trkpt>
      <trkpt lat="48.8467" lon="2.34346">
        <ele>66.599998474121</ele>
        <time>2016-08-01T18:53:24.000Z</time>
      </trkpt>
      <trkpt lat="48.84676" lon="2.34335">
        <ele>66.400001525879</ele>
        <time>2016-08-01T18:53:39.000Z</time>
      </trkpt>
      <trkpt lat="48.84682" lon="2.34311">
        <ele>66.400001525879</ele>
        <time>2016-08-01T18:53:45.000Z</time>
      </trkpt>
      <trkpt lat="48.84687" lon="2.34292">
        <ele>66.599998474121</ele>
        <time>2016-08-01T18:53:48.000Z</time>
      </trkpt>
      <trkpt lat="48.84704" lon="2.34225">
        <ele>66</ele>
        <time>2016-08-01T18:53:57.000Z</time>
      </trkpt>
      <trkpt lat="48.84722" lon="2.34164">
        <ele>63.599998474121</ele>
        <time>2016-08-01T18:54:05.000Z</time>
      </trkpt>
      <trkpt lat="48.84727" lon="2.34142">
        <ele>62</ele>
        <time>2016-08-01T18:54:08.000Z</time>
      </trkpt>
      <trkpt lat="48.84728" lon="2.34072">
        <ele>58.599998474121</ele>
        <time>2016-08-01T18:54:19.000Z</time>
      </trkpt>
      <trkpt lat="48.84687" lon="2.34043">
        <ele>57.200000762939</ele>
        <time>2016-08-01T18:54:35.000Z</time>
      </trkpt>
      <trkpt lat="48.8464" lon="2.34027">
        <ele>61.200000762939</ele>
        <time>2016-08-01T18:54:49.000Z</time>
      </trkpt>
      <trkpt lat="48.84619" lon="2.34017">
        <ele>62</ele>
        <time>2016-08-01T18:54:54.000Z</time>
      </trkpt>
      <trkpt lat="48.84577" lon="2.33991">
        <ele>62.799999237061</ele>
        <time>2016-08-01T18:55:04.000Z</time>
      </trkpt>
      <trkpt lat="48.84568" lon="2.33986">
        <ele>62.799999237061</ele>
        <time>2016-08-01T18:55:05.000Z</time>
      </trkpt>
      <trkpt lat="48.84519" lon="2.33964">
        <ele>63.400001525879</ele>
        <time>2016-08-01T18:55:15.000Z</time>
      </trkpt>
      <trkpt lat="48.84472" lon="2.3394">
        <ele>63</ele>
        <time>2016-08-01T18:55:22.000Z</time>
      </trkpt>
      <trkpt lat="48.84425" lon="2.33918">
        <ele>61.400001525879</ele>
        <time>2016-08-01T18:55:29.000Z</time>
      </trkpt>
      <trkpt lat="48.84393" lon="2.33894">
        <ele>61.200000762939</ele>
        <time>2016-08-01T18:55:37.000Z</time>
      </trkpt>
      <trkpt lat="48.84411" lon="2.3383">
        <ele>62</ele>
        <time>2016-08-01T18:55:52.000Z</time>
      </trkpt>
      <trkpt lat="48.84425" lon="2.33764">
        <ele>60.599998474121</ele>
        <time>2016-08-01T18:56:03.000Z</time>
      </trkpt>
      <trkpt lat="48.84421" lon="2.33751">
        <ele>60.400001525879</ele>
        <time>2016-08-01T18:56:05.000Z</time>
      </trkpt>
      <trkpt lat="48.84424" lon="2.33682">
        <ele>53</ele>
        <time>2016-08-01T18:56:16.000Z</time>
      </trkpt>
      <trkpt lat="48.8443" lon="2.33608">
        <ele>51</ele>
        <time>2016-08-01T18:56:29.000Z</time>
      </trkpt>
      <trkpt lat="48.84434" lon="2.33535">
        <ele>54.200000762939</ele>
        <time>2016-08-01T18:56:39.000Z</time>
      </trkpt>
      <trkpt lat="48.84439" lon="2.33463">
        <ele>55.400001525879</ele>
        <time>2016-08-01T18:56:48.000Z</time>
      </trkpt>
      <trkpt lat="48.84443" lon="2.33391">
        <ele>53</ele>
        <time>2016-08-01T18:56:57.000Z</time>
      </trkpt>
      <trkpt lat="48.84445" lon="2.33337">
        <ele>52.799999237061</ele>
        <time>2016-08-01T18:57:04.000Z</time>
      </trkpt>
      <trkpt lat="48.84448" lon="2.33302">
        <ele>53.599998474121</ele>
        <time>2016-08-01T18:57:12.000Z</time>
      </trkpt>
      <trkpt lat="48.84476" lon="2.33249">
        <ele>53.200000762939</ele>
        <time>2016-08-01T18:57:26.000Z</time>
      </trkpt>
      <trkpt lat="48.84488" lon="2.33231">
        <ele>52.799999237061</ele>
        <time>2016-08-01T18:57:30.000Z</time>
      </trkpt>
      <trkpt lat="48.845" lon="2.33221">
        <ele>52.599998474121</ele>
        <time>2016-08-01T18:57:33.000Z</time>
      </trkpt>
      <trkpt lat="48.84547" lon="2.33217">
        <ele>53.799999237061</ele>
        <time>2016-08-01T18:57:46.000Z</time>
      </trkpt>
      <trkpt lat="48.84595" lon="2.33222">
        <ele>54.400001525879</ele>
        <time>2016-08-01T18:57:55.000Z</time>
      </trkpt>
      <trkpt lat="48.84618" lon="2.33223">
        <ele>54.200000762939</ele>
        <time>2016-08-01T18:57:59.000Z</time>
      </trkpt>
      <trkpt lat="48.84665" lon="2.33218">
        <ele>54.400001525879</ele>
        <time>2016-08-01T18:58:08.000Z</time>
      </trkpt>
      <trkpt lat="48.84711" lon="2.33224">
        <ele>53.799999237061</ele>
        <time>2016-08-01T18:58:19.000Z</time>
      </trkpt>
      <trkpt lat="48.84756" lon="2.3324">
        <ele>51.799999237061</ele>
        <time>2016-08-01T18:58:41.000Z</time>
      </trkpt>
      <trkpt lat="48.84801" lon="2.3325">
        <ele>51.400001525879</ele>
        <time>2016-08-01T18:58:57.000Z</time>
      </trkpt>
      <trkpt lat="48.84847" lon="2.3326">
        <ele>51.799999237061</ele>
        <time>2016-08-01T18:59:12.000Z</time>
      </trkpt>
      <trkpt lat="48.84869" lon="2.33276">
        <ele>51.799999237061</ele>
        <time>2016-08-01T18:59:34.000Z</time>
      </trkpt>
      <trkpt lat="48.84873" lon="2.33278">
        <ele>51.799999237061</ele>
        <time>2016-08-01T18:59:37.000Z</time>
      </trkpt>
      <trkpt lat="48.8492" lon="2.33275">
        <ele>52.799999237061</ele>
        <time>2016-08-01T18:59:50.000Z</time>
      </trkpt>
      <trkpt lat="48.84967" lon="2.33277">
        <ele>52</ele>
        <time>2016-08-01T19:00:00.000Z</time>
      </trkpt>
      <trkpt lat="48.85015" lon="2.33269">
        <ele>50.400001525879</ele>
        <time>2016-08-01T19:00:10.000Z</time>
      </trkpt>
      <trkpt lat="48.85062" lon="2.33286">
        <ele>49.599998474121</ele>
        <time>2016-08-01T19:00:21.000Z</time>
      </trkpt>
      <trkpt lat="48.85108" lon="2.33291">
        <ele>47.400001525879</ele>
        <time>2016-08-01T19:00:39.000Z</time>
      </trkpt>
      <trkpt lat="48.85118" lon="2.3328">
        <ele>47.200000762939</ele>
        <time>2016-08-01T19:01:02.000Z</time>
      </trkpt>
      <trkpt lat="48.85136" lon="2.33214">
        <ele>47.799999237061</ele>
        <time>2016-08-01T19:01:18.000Z</time>
      </trkpt>
      <trkpt lat="48.85152" lon="2.3315">
        <ele>50</ele>
        <time>2016-08-01T19:01:33.000Z</time>
      </trkpt>
      <trkpt lat="48.85159" lon="2.33111">
        <ele>51.599998474121</ele>
        <time>2016-08-01T19:01:54.000Z</time>
      </trkpt>
      <trkpt lat="48.85181" lon="2.33046">
        <ele>51.599998474121</ele>
        <time>2016-08-01T19:02:09.000Z</time>
      </trkpt>
      <trkpt lat="48.85202" lon="2.32987">
        <ele>48.400001525879</ele>
        <time>2016-08-01T19:02:21.000Z</time>
      </trkpt>
      <trkpt lat="48.85242" lon="2.32962">
        <ele>47.200000762939</ele>
        <time>2016-08-01T19:02:34.000Z</time>
      </trkpt>
      <trkpt lat="48.85248" lon="2.32954">
        <ele>47.400001525879</ele>
        <time>2016-08-01T19:02:36.000Z</time>
      </trkpt>
      <trkpt lat="48.85282" lon="2.32915">
        <ele>49</ele>
        <time>2016-08-01T19:02:47.000Z</time>
      </trkpt>
      <trkpt lat="48.85294" lon="2.32896">
        <ele>49</ele>
        <time>2016-08-01T19:02:51.000Z</time>
      </trkpt>
      <trkpt lat="48.85324" lon="2.32846">
        <ele>49</ele>
        <time>2016-08-01T19:03:01.000Z</time>
      </trkpt>
      <trkpt lat="48.85355" lon="2.32793">
        <ele>48.599998474121</ele>
        <time>2016-08-01T19:03:13.000Z</time>
      </trkpt>
      <trkpt lat="48.85374" lon="2.32747">
        <ele>48.400001525879</ele>
        <time>2016-08-01T19:03:22.000Z</time>
      </trkpt>
      <trkpt lat="48.85404" lon="2.32692">
        <ele>49.200000762939</ele>
        <time>2016-08-01T19:03:33.000Z</time>
      </trkpt>
      <trkpt lat="48.85427" lon="2.32634">
        <ele>49.200000762939</ele>
        <time>2016-08-01T19:03:47.000Z</time>
      </trkpt>
      <trkpt lat="48.85449" lon="2.32571">
        <ele>47.799999237061</ele>
        <time>2016-08-01T19:04:05.000Z</time>
      </trkpt>
      <trkpt lat="48.85469" lon="2.32506">
        <ele>46.400001525879</ele>
        <time>2016-08-01T19:04:21.000Z</time>
      </trkpt>
      <trkpt lat="48.855" lon="2.32456">
        <ele>46.599998474121</ele>
        <time>2016-08-01T19:04:36.000Z</time>
      </trkpt>
      <trkpt lat="48.85531" lon="2.32401">
        <ele>47.599998474121</ele>
        <time>2016-08-01T19:04:51.000Z</time>
      </trkpt>
      <trkpt lat="48.8556" lon="2.32347">
        <ele>45.200000762939</ele>
        <time>2016-08-01T19:05:04.000Z</time>
      </trkpt>
      <trkpt lat="48.85565" lon="2.32345">
        <ele>44.799999237061</ele>
        <time>2016-08-01T19:05:05.000Z</time>
      </trkpt>
      <trkpt lat="48.85569" lon="2.32346">
        <ele>44.599998474121</ele>
        <time>2016-08-01T19:05:08.000Z</time>
      </trkpt>
      <trkpt lat="48.85608" lon="2.32384">
        <ele>45.200000762939</ele>
        <time>2016-08-01T19:05:27.000Z</time>
      </trkpt>
      <trkpt lat="48.85647" lon="2.3242">
        <ele>45.599998474121</ele>
        <time>2016-08-01T19:05:51.000Z</time>
      </trkpt>
      <trkpt lat="48.8569" lon="2.32436">
        <ele>44.200000762939</ele>
        <time>2016-08-01T19:06:10.000Z</time>
      </trkpt>
      <trkpt lat="48.85707" lon="2.3243">
        <ele>43.200000762939</ele>
        <time>2016-08-01T19:06:41.000Z</time>
      </trkpt>
      <trkpt lat="48.8574" lon="2.32384">
        <ele>40.200000762939</ele>
        <time>2016-08-01T19:06:56.000Z</time>
      </trkpt>
      <trkpt lat="48.85777" lon="2.3234">
        <ele>40.400001525879</ele>
        <time>2016-08-01T19:07:10.000Z</time>
      </trkpt>
      <trkpt lat="48.85811" lon="2.32292">
        <ele>42.799999237061</ele>
        <time>2016-08-01T19:07:24.000Z</time>
      </trkpt>
      <trkpt lat="48.85837" lon="2.32233">
        <ele>44.200000762939</ele>
        <time>2016-08-01T19:07:39.000Z</time>
      </trkpt>
      <trkpt lat="48.85853" lon="2.32188">
        <ele>42.799999237061</ele>
        <time>2016-08-01T19:07:48.000Z</time>
      </trkpt>
      <trkpt lat="48.85864" lon="2.32149">
        <ele>41.599998474121</ele>
        <time>2016-08-01T19:07:55.000Z</time>
      </trkpt>
      <trkpt lat="48.85881" lon="2.32092">
        <ele>41.599998474121</ele>
        <time>2016-08-01T19:08:05.000Z</time>
      </trkpt>
      <trkpt lat="48.85899" lon="2.32026">
        <ele>42.799999237061</ele>
        <time>2016-08-01T19:08:16.000Z</time>
      </trkpt>
      <trkpt lat="48.85928" lon="2.31965">
        <ele>43</ele>
        <time>2016-08-01T19:08:28.000Z</time>
      </trkpt>
      <trkpt lat="48.85954" lon="2.31904">
        <ele>41.599998474121</ele>
        <time>2016-08-01T19:08:41.000Z</time>
      </trkpt>
      <trkpt lat="48.85972" lon="2.3184">
        <ele>42.599998474121</ele>
        <time>2016-08-01T19:08:55.000Z</time>
      </trkpt>
      <trkpt lat="48.8598" lon="2.31797">
        <ele>42.599998474121</ele>
        <time>2016-08-01T19:09:26.000Z</time>
      </trkpt>
      <trkpt lat="48.85995" lon="2.31732">
        <ele>40.799999237061</ele>
        <time>2016-08-01T19:09:40.000Z</time>
      </trkpt>
      <trkpt lat="48.85999" lon="2.3166">
        <ele>41.200000762939</ele>
        <time>2016-08-01T19:09:53.000Z</time>
      </trkpt>
      <trkpt lat="48.85999" lon="2.31587">
        <ele>42.200000762939</ele>
        <time>2016-08-01T19:10:08.000Z</time>
      </trkpt>
      <trkpt lat="48.86001" lon="2.31516">
        <ele>39.799999237061</ele>
        <time>2016-08-01T19:10:24.000Z</time>
      </trkpt>
      <trkpt lat="48.85993" lon="2.31455">
        <ele>36</ele>
        <time>2016-08-01T19:11:20.000Z</time>
      </trkpt>
      <trkpt lat="48.85994" lon="2.31461">
        <ele>36.599998474121</ele>
        <time>2016-08-01T19:11:26.000Z</time>
      </trkpt>
      <trkpt lat="48.85965" lon="2.31492">
        <ele>37</ele>
        <time>2016-08-01T19:11:57.000Z</time>
      </trkpt>
      <trkpt lat="48.85919" lon="2.31481">
        <ele>36.400001525879</ele>
        <time>2016-08-01T19:12:16.000Z</time>
      </trkpt>
      <trkpt lat="48.85892" lon="2.31473">
        <ele>37.200000762939</ele>
        <time>2016-08-01T19:12:28.000Z</time>
      </trkpt>
      <trkpt lat="48.85886" lon="2.31518">
        <ele>37.799999237061</ele>
        <time>2016-08-01T19:12:40.000Z</time>
      </trkpt>
      <trkpt lat="48.8584" lon="2.31518">
        <ele>37.799999237061</ele>
        <time>2016-08-01T19:12:54.000Z</time>
      </trkpt>
      <trkpt lat="48.85804" lon="2.31523">
        <ele>37</ele>
        <time>2016-08-01T19:13:05.000Z</time>
      </trkpt>
      <trkpt lat="48.8579" lon="2.3159">
        <ele>39.799999237061</ele>
        <time>2016-08-01T19:13:20.000Z</time>
      </trkpt>
      <trkpt lat="48.85779" lon="2.31661">
        <ele>41.799999237061</ele>
        <time>2016-08-01T19:13:33.000Z</time>
      </trkpt>
      <trkpt lat="48.85767" lon="2.31717">
        <ele>44.200000762939</ele>
        <time>2016-08-01T19:13:43.000Z</time>
      </trkpt>
      <trkpt lat="48.85749" lon="2.3178">
        <ele>46.599998474121</ele>
        <time>2016-08-01T19:13:58.000Z</time>
      </trkpt>
      <trkpt lat="48.85731" lon="2.31848">
        <ele>47.200000762939</ele>
        <time>2016-08-01T19:14:12.000Z</time>
      </trkpt>
      <trkpt lat="48.8572" lon="2.3188">
        <ele>46.400001525879</ele>
        <time>2016-08-01T19:14:18.000Z</time>
      </trkpt>
      <trkpt lat="48.85698" lon="2.31941">
        <ele>45.799999237061</ele>
        <time>2016-08-01T19:14:28.000Z</time>
      </trkpt>
      <trkpt lat="48.85683" lon="2.32007">
        <ele>44.400001525879</ele>
        <time>2016-08-01T19:14:44.000Z</time>
      </trkpt>
      <trkpt lat="48.85684" lon="2.32006">
        <ele>44.400001525879</ele>
        <time>2016-08-01T19:14:47.000Z</time>
      </trkpt>
      <trkpt lat="48.85704" lon="2.3194">
        <ele>45.799999237061</ele>
        <time>2016-08-01T19:15:07.000Z</time>
      </trkpt>
      <trkpt lat="48.85723" lon="2.31878">
        <ele>46.200000762939</ele>
        <time>2016-08-01T19:15:19.000Z</time>
      </trkpt>
      <trkpt lat="48.85743" lon="2.31814">
        <ele>47.599998474121</ele>
        <time>2016-08-01T19:15:31.000Z</time>
      </trkpt>
      <trkpt lat="48.85762" lon="2.3175">
        <ele>45.400001525879</ele>
        <time>2016-08-01T19:15:45.000Z</time>
      </trkpt>
      <trkpt lat="48.85781" lon="2.31686">
        <ele>42.400001525879</ele>
        <time>2016-08-01T19:15:59.000Z</time>
      </trkpt>
      <trkpt lat="48.85787" lon="2.31649">
        <ele>41.200000762939</ele>
        <time>2016-08-01T19:16:05.000Z</time>
      </trkpt>
      <trkpt lat="48.85788" lon="2.3163">
        <ele>40.599998474121</ele>
        <time>2016-08-01T19:16:08.000Z</time>
      </trkpt>
      <trkpt lat="48.85792" lon="2.31602">
        <ele>39.799999237061</ele>
        <time>2016-08-01T19:16:12.000Z</time>
      </trkpt>
      <trkpt lat="48.858" lon="2.31555">
        <ele>38.400001525879</ele>
        <time>2016-08-01T19:16:19.000Z</time>
      </trkpt>
      <trkpt lat="48.85802" lon="2.31541">
        <ele>37.799999237061</ele>
        <time>2016-08-01T19:16:21.000Z</time>
      </trkpt>
      <trkpt lat="48.8581" lon="2.31475">
        <ele>36.599998474121</ele>
        <time>2016-08-01T19:16:31.000Z</time>
      </trkpt>
      <trkpt lat="48.85814" lon="2.31463">
        <ele>36.599998474121</ele>
        <time>2016-08-01T19:16:33.000Z</time>
      </trkpt>
      <trkpt lat="48.85831" lon="2.31439">
        <ele>37.200000762939</ele>
        <time>2016-08-01T19:16:38.000Z</time>
      </trkpt>
      <trkpt lat="48.85838" lon="2.3142">
        <ele>37.400001525879</ele>
        <time>2016-08-01T19:16:41.000Z</time>
      </trkpt>
      <trkpt lat="48.85843" lon="2.31361">
        <ele>34</ele>
        <time>2016-08-01T19:16:50.000Z</time>
      </trkpt>
      <trkpt lat="48.85846" lon="2.31348">
        <ele>33.400001525879</ele>
        <time>2016-08-01T19:16:52.000Z</time>
      </trkpt>
      <trkpt lat="48.85869" lon="2.31327">
        <ele>32</ele>
        <time>2016-08-01T19:16:58.000Z</time>
      </trkpt>
      <trkpt lat="48.85888" lon="2.31305">
        <ele>30.39999961853</ele>
        <time>2016-08-01T19:17:03.000Z</time>
      </trkpt>
      <trkpt lat="48.85901" lon="2.31302">
        <ele>29.39999961853</ele>
        <time>2016-08-01T19:17:06.000Z</time>
      </trkpt>
      <trkpt lat="48.8595" lon="2.31308">
        <ele>28</ele>
        <time>2016-08-01T19:17:15.000Z</time>
      </trkpt>
      <trkpt lat="48.85972" lon="2.31309">
        <ele>28.200000762939</ele>
        <time>2016-08-01T19:17:19.000Z</time>
      </trkpt>
      <trkpt lat="48.85997" lon="2.31313">
        <ele>28.39999961853</ele>
        <time>2016-08-01T19:17:23.000Z</time>
      </trkpt>
      <trkpt lat="48.86046" lon="2.31318">
        <ele>31.799999237061</ele>
        <time>2016-08-01T19:17:30.000Z</time>
      </trkpt>
      <trkpt lat="48.86054" lon="2.3132">
        <ele>32.799999237061</ele>
        <time>2016-08-01T19:17:31.000Z</time>
      </trkpt>
      <trkpt lat="48.86106" lon="2.31329">
        <ele>39.799999237061</ele>
        <time>2016-08-01T19:17:38.000Z</time>
      </trkpt>
      <trkpt lat="48.86151" lon="2.31333">
        <ele>35.200000762939</ele>
        <time>2016-08-01T19:17:44.000Z</time>
      </trkpt>
      <trkpt lat="48.862" lon="2.31339">
        <ele>30.799999237061</ele>
        <time>2016-08-01T19:17:51.000Z</time>
      </trkpt>
      <trkpt lat="48.86245" lon="2.31345">
        <ele>31.60000038147</ele>
        <time>2016-08-01T19:17:58.000Z</time>
      </trkpt>
      <trkpt lat="48.86293" lon="2.3135">
        <ele>34.200000762939</ele>
        <time>2016-08-01T19:18:07.000Z</time>
      </trkpt>
      <trkpt lat="48.86309" lon="2.31352">
        <ele>34.200000762939</ele>
        <time>2016-08-01T19:18:11.000Z</time>
      </trkpt>
      <trkpt lat="48.86355" lon="2.31359">
        <ele>34</ele>
        <time>2016-08-01T19:18:25.000Z</time>
      </trkpt>
      <trkpt lat="48.86402" lon="2.31364">
        <ele>31.200000762939</ele>
        <time>2016-08-01T19:18:41.000Z</time>
      </trkpt>
      <trkpt lat="48.86447" lon="2.31375">
        <ele>31.60000038147</ele>
        <time>2016-08-01T19:18:58.000Z</time>
      </trkpt>
      <trkpt lat="48.86448" lon="2.31377">
        <ele>31.60000038147</ele>
        <time>2016-08-01T19:18:59.000Z</time>
      </trkpt>
      <trkpt lat="48.86455" lon="2.31387">
        <ele>31.799999237061</ele>
        <time>2016-08-01T19:19:58.000Z</time>
      </trkpt>
      <trkpt lat="48.86469" lon="2.31391">
        <ele>33</ele>
        <time>2016-08-01T19:20:53.000Z</time>
      </trkpt>
      <trkpt lat="48.86516" lon="2.31387">
        <ele>38</ele>
        <time>2016-08-01T19:21:12.000Z</time>
      </trkpt>
      <trkpt lat="48.86564" lon="2.31393">
        <ele>40</ele>
        <time>2016-08-01T19:21:28.000Z</time>
      </trkpt>
      <trkpt lat="48.86609" lon="2.31387">
        <ele>42.400001525879</ele>
        <time>2016-08-01T19:21:42.000Z</time>
      </trkpt>
      <trkpt lat="48.86621" lon="2.31387">
        <ele>41.599998474121</ele>
        <time>2016-08-01T19:21:45.000Z</time>
      </trkpt>
      <trkpt lat="48.86668" lon="2.31392">
        <ele>37.599998474121</ele>
        <time>2016-08-01T19:21:56.000Z</time>
      </trkpt>
      <trkpt lat="48.86713" lon="2.31404">
        <ele>35.799999237061</ele>
        <time>2016-08-01T19:22:08.000Z</time>
      </trkpt>
      <trkpt lat="48.86751" lon="2.31411">
        <ele>35.799999237061</ele>
        <time>2016-08-01T19:22:51.000Z</time>
      </trkpt>
      <trkpt lat="48.86794" lon="2.31399">
        <ele>37</ele>
        <time>2016-08-01T19:23:13.000Z</time>
      </trkpt>
      <trkpt lat="48.86797" lon="2.31407">
        <ele>36.799999237061</ele>
        <time>2016-08-01T19:23:17.000Z</time>
      </trkpt>
      <trkpt lat="48.86836" lon="2.31442">
        <ele>37.599998474121</ele>
        <time>2016-08-01T19:23:36.000Z</time>
      </trkpt>
      <trkpt lat="48.86844" lon="2.31448">
        <ele>37.799999237061</ele>
        <time>2016-08-01T19:23:41.000Z</time>
      </trkpt>
      <trkpt lat="48.86888" lon="2.31462">
        <ele>38</ele>
        <time>2016-08-01T19:23:58.000Z</time>
      </trkpt>
      <trkpt lat="48.86905" lon="2.31459">
        <ele>38.200000762939</ele>
        <time>2016-08-01T19:24:05.000Z</time>
      </trkpt>
      <trkpt lat="48.8692" lon="2.31471">
        <ele>38.200000762939</ele>
        <time>2016-08-01T19:24:13.000Z</time>
      </trkpt>
      <trkpt lat="48.86964" lon="2.31502">
        <ele>38.799999237061</ele>
        <time>2016-08-01T19:24:28.000Z</time>
      </trkpt>
      <trkpt lat="48.87005" lon="2.31535">
        <ele>40.400001525879</ele>
        <time>2016-08-01T19:24:40.000Z</time>
      </trkpt>
      <trkpt lat="48.87046" lon="2.31569">
        <ele>40.799999237061</ele>
        <time>2016-08-01T19:24:52.000Z</time>
      </trkpt>
      <trkpt lat="48.87087" lon="2.316">
        <ele>40.200000762939</ele>
        <time>2016-08-01T19:25:07.000Z</time>
      </trkpt>
      <trkpt lat="48.87102" lon="2.31607">
        <ele>40</ele>
        <time>2016-08-01T19:25:16.000Z</time>
      </trkpt>
      <trkpt lat="48.87109" lon="2.31614">
        <ele>40.200000762939</ele>
        <time>2016-08-01T19:25:20.000Z</time>
      </trkpt>
      <trkpt lat="48.87112" lon="2.31675">
        <ele>40.400001525879</ele>
        <time>2016-08-01T19:25:35.000Z</time>
      </trkpt>
      <trkpt lat="48.87124" lon="2.31713">
        <ele>41.400001525879</ele>
        <time>2016-08-01T19:25:41.000Z</time>
      </trkpt>
      <trkpt lat="48.87144" lon="2.31778">
        <ele>42.799999237061</ele>
        <time>2016-08-01T19:25:55.000Z</time>
      </trkpt>
      <trkpt lat="48.87166" lon="2.31838">
        <ele>44.599998474121</ele>
        <time>2016-08-01T19:26:10.000Z</time>
      </trkpt>
      <trkpt lat="48.87212" lon="2.31813">
        <ele>45.200000762939</ele>
        <time>2016-08-01T19:26:22.000Z</time>
      </trkpt>
      <trkpt lat="48.87257" lon="2.3181">
        <ele>45.799999237061</ele>
        <time>2016-08-01T19:26:33.000Z</time>
      </trkpt>
      <trkpt lat="48.87305" lon="2.31806">
        <ele>44.599998474121</ele>
        <time>2016-08-01T19:26:46.000Z</time>
      </trkpt>
      <trkpt lat="48.8735" lon="2.31795">
        <ele>43.200000762939</ele>
        <time>2016-08-01T19:27:02.000Z</time>
      </trkpt>
      <trkpt lat="48.87396" lon="2.31777">
        <ele>44</ele>
        <time>2016-08-01T19:27:13.000Z</time>
      </trkpt>
      <trkpt lat="48.8742" lon="2.31764">
        <ele>45</ele>
        <time>2016-08-01T19:27:28.000Z</time>
      </trkpt>
      <trkpt lat="48.87438" lon="2.31828">
        <ele>46</ele>
        <time>2016-08-01T19:27:44.000Z</time>
      </trkpt>
      <trkpt lat="48.87452" lon="2.31895">
        <ele>45.599998474121</ele>
        <time>2016-08-01T19:27:59.000Z</time>
      </trkpt>
      <trkpt lat="48.87455" lon="2.31903">
        <ele>45.599998474121</ele>
        <time>2016-08-01T19:28:02.000Z</time>
      </trkpt>
      <trkpt lat="48.87499" lon="2.31932">
        <ele>45</ele>
        <time>2016-08-01T19:28:28.000Z</time>
      </trkpt>
      <trkpt lat="48.8752" lon="2.3192">
        <ele>44.200000762939</ele>
        <time>2016-08-01T19:28:38.000Z</time>
      </trkpt>
      <trkpt lat="48.87565" lon="2.31897">
        <ele>44</ele>
        <time>2016-08-01T19:28:50.000Z</time>
      </trkpt>
      <trkpt lat="48.87603" lon="2.31852">
        <ele>46.599998474121</ele>
        <time>2016-08-01T19:29:03.000Z</time>
      </trkpt>
      <trkpt lat="48.87605" lon="2.31849">
        <ele>46.799999237061</ele>
        <time>2016-08-01T19:29:04.000Z</time>
      </trkpt>
      <trkpt lat="48.87639" lon="2.31797">
        <ele>49.599998474121</ele>
        <time>2016-08-01T19:29:18.000Z</time>
      </trkpt>
      <trkpt lat="48.87673" lon="2.31751">
        <ele>51.599998474121</ele>
        <time>2016-08-01T19:29:35.000Z</time>
      </trkpt>
      <trkpt lat="48.87706" lon="2.31703">
        <ele>51.599998474121</ele>
        <time>2016-08-01T19:29:49.000Z</time>
      </trkpt>
      <trkpt lat="48.87744" lon="2.31656">
        <ele>51.799999237061</ele>
        <time>2016-08-01T19:30:02.000Z</time>
      </trkpt>
      <trkpt lat="48.87756" lon="2.3165">
        <ele>52.200000762939</ele>
        <time>2016-08-01T19:30:07.000Z</time>
      </trkpt>
      <trkpt lat="48.8777" lon="2.31721">
        <ele>52.599998474121</ele>
        <time>2016-08-01T19:30:23.000Z</time>
      </trkpt>
      <trkpt lat="48.87798" lon="2.31774">
        <ele>54.799999237061</ele>
        <time>2016-08-01T19:31:37.000Z</time>
      </trkpt>
      <trkpt lat="48.87808" lon="2.31845">
        <ele>57.200000762939</ele>
        <time>2016-08-01T19:31:56.000Z</time>
      </trkpt>
      <trkpt lat="48.8782" lon="2.31915">
        <ele>57.599998474121</ele>
        <time>2016-08-01T19:32:08.000Z</time>
      </trkpt>
      <trkpt lat="48.87829" lon="2.31974">
        <ele>57.200000762939</ele>
        <time>2016-08-01T19:32:20.000Z</time>
      </trkpt>
      <trkpt lat="48.87816" lon="2.31978">
        <ele>56.799999237061</ele>
        <time>2016-08-01T19:34:20.000Z</time>
      </trkpt>
      <trkpt lat="48.87816" lon="2.31985">
        <ele>56.599998474121</ele>
        <time>2016-08-01T19:34:24.000Z</time>
      </trkpt>
      <trkpt lat="48.87813" lon="2.31993">
        <ele>56.400001525879</ele>
        <time>2016-08-01T19:34:27.000Z</time>
      </trkpt>
      <trkpt lat="48.87784" lon="2.32046">
        <ele>57.599998474121</ele>
        <time>2016-08-01T19:34:42.000Z</time>
      </trkpt>
      <trkpt lat="48.87751" lon="2.32102">
        <ele>57.200000762939</ele>
        <time>2016-08-01T19:34:54.000Z</time>
      </trkpt>
      <trkpt lat="48.87721" lon="2.32154">
        <ele>56</ele>
        <time>2016-08-01T19:35:05.000Z</time>
      </trkpt>
      <trkpt lat="48.87679" lon="2.32189">
        <ele>51.200000762939</ele>
        <time>2016-08-01T19:35:15.000Z</time>
      </trkpt>
      <trkpt lat="48.87639" lon="2.32231">
        <ele>48.599998474121</ele>
        <time>2016-08-01T19:35:26.000Z</time>
      </trkpt>
      <trkpt lat="48.87599" lon="2.32268">
        <ele>46.599998474121</ele>
        <time>2016-08-01T19:35:37.000Z</time>
      </trkpt>
      <trkpt lat="48.87567" lon="2.32317">
        <ele>44.200000762939</ele>
        <time>2016-08-01T19:35:50.000Z</time>
      </trkpt>
      <trkpt lat="48.87557" lon="2.32374">
        <ele>41.599998474121</ele>
        <time>2016-08-01T19:36:49.000Z</time>
      </trkpt>
      <trkpt lat="48.8755" lon="2.32386">
        <ele>41.799999237061</ele>
        <time>2016-08-01T19:37:20.000Z</time>
      </trkpt>
      <trkpt lat="48.87532" lon="2.32391">
        <ele>43</ele>
        <time>2016-08-01T19:37:28.000Z</time>
      </trkpt>
      <trkpt lat="48.87529" lon="2.32399">
        <ele>43</ele>
        <time>2016-08-01T19:37:30.000Z</time>
      </trkpt>
      <trkpt lat="48.87534" lon="2.32471">
        <ele>42.400001525879</ele>
        <time>2016-08-01T19:37:44.000Z</time>
      </trkpt>
      <trkpt lat="48.87544" lon="2.32542">
        <ele>42.799999237061</ele>
        <time>2016-08-01T19:37:56.000Z</time>
      </trkpt>
      <trkpt lat="48.87557" lon="2.32611">
        <ele>42.799999237061</ele>
        <time>2016-08-01T19:38:09.000Z</time>
      </trkpt>
      <trkpt lat="48.87563" lon="2.32684">
        <ele>43.599998474121</ele>
        <time>2016-08-01T19:38:23.000Z</time>
      </trkpt>
      <trkpt lat="48.87564" lon="2.32698">
        <ele>44.200000762939</ele>
        <time>2016-08-01T19:38:25.000Z</time>
      </trkpt>
      <trkpt lat="48.87575" lon="2.32773">
        <ele>44.200000762939</ele>
        <time>2016-08-01T19:38:35.000Z</time>
      </trkpt>
      <trkpt lat="48.87586" lon="2.32835">
        <ele>44.400001525879</ele>
        <time>2016-08-01T19:38:42.000Z</time>
      </trkpt>
      <trkpt lat="48.87591" lon="2.32866">
        <ele>44.799999237061</ele>
        <time>2016-08-01T19:38:45.000Z</time>
      </trkpt>
      <trkpt lat="48.87598" lon="2.32935">
        <ele>46</ele>
        <time>2016-08-01T19:38:51.000Z</time>
      </trkpt>
      <trkpt lat="48.87602" lon="2.3297">
        <ele>46.599998474121</ele>
        <time>2016-08-01T19:38:54.000Z</time>
      </trkpt>
      <trkpt lat="48.87612" lon="2.33036">
        <ele>46.599998474121</ele>
        <time>2016-08-01T19:39:00.000Z</time>
      </trkpt>
      <trkpt lat="48.87623" lon="2.33105">
        <ele>45.400001525879</ele>
        <time>2016-08-01T19:39:08.000Z</time>
      </trkpt>
      <trkpt lat="48.87627" lon="2.33107">
        <ele>45.400001525879</ele>
        <time>2016-08-01T19:39:19.000Z</time>
      </trkpt>
      <trkpt lat="48.87639" lon="2.33173">
        <ele>45.599998474121</ele>
        <time>2016-08-01T19:39:36.000Z</time>
      </trkpt>
      <trkpt lat="48.87634" lon="2.33185">
        <ele>46.200000762939</ele>
        <time>2016-08-01T19:39:39.000Z</time>
      </trkpt>
      <trkpt lat="48.87588" lon="2.33203">
        <ele>46.599998474121</ele>
        <time>2016-08-01T19:39:49.000Z</time>
      </trkpt>
      <trkpt lat="48.87552" lon="2.33217">
        <ele>46.400001525879</ele>
        <time>2016-08-01T19:39:55.000Z</time>
      </trkpt>
      <trkpt lat="48.87507" lon="2.33237">
        <ele>47</ele>
        <time>2016-08-01T19:40:02.000Z</time>
      </trkpt>
      <trkpt lat="48.87459" lon="2.33257">
        <ele>49.400001525879</ele>
        <time>2016-08-01T19:40:09.000Z</time>
      </trkpt>
      <trkpt lat="48.87423" lon="2.33272">
        <ele>48.799999237061</ele>
        <time>2016-08-01T19:40:15.000Z</time>
      </trkpt>
      <trkpt lat="48.87389" lon="2.33288">
        <ele>47.799999237061</ele>
        <time>2016-08-01T19:40:22.000Z</time>
      </trkpt>
      <trkpt lat="48.87344" lon="2.33307">
        <ele>45</ele>
        <time>2016-08-01T19:40:36.000Z</time>
      </trkpt>
      <trkpt lat="48.87314" lon="2.33327">
        <ele>45.599998474121</ele>
        <time>2016-08-01T19:41:00.000Z</time>
      </trkpt>
      <trkpt lat="48.87285" lon="2.33342">
        <ele>47.599998474121</ele>
        <time>2016-08-01T19:41:09.000Z</time>
      </trkpt>
      <trkpt lat="48.87272" lon="2.33348">
        <ele>48.400001525879</ele>
        <time>2016-08-01T19:41:12.000Z</time>
      </trkpt>
      <trkpt lat="48.87224" lon="2.33363">
        <ele>51.200000762939</ele>
        <time>2016-08-01T19:41:22.000Z</time>
      </trkpt>
      <trkpt lat="48.87193" lon="2.33377">
        <ele>49.799999237061</ele>
        <time>2016-08-01T19:41:28.000Z</time>
      </trkpt>
      <trkpt lat="48.87146" lon="2.334">
        <ele>48.200000762939</ele>
        <time>2016-08-01T19:41:38.000Z</time>
      </trkpt>
      <trkpt lat="48.87105" lon="2.33434">
        <ele>48.200000762939</ele>
        <time>2016-08-01T19:41:52.000Z</time>
      </trkpt>
      <trkpt lat="48.87117" lon="2.335">
        <ele>49.200000762939</ele>
        <time>2016-08-01T19:42:04.000Z</time>
      </trkpt>
      <trkpt lat="48.87127" lon="2.33536">
        <ele>50.400001525879</ele>
        <time>2016-08-01T19:42:10.000Z</time>
      </trkpt>
      <trkpt lat="48.87131" lon="2.33551">
        <ele>51</ele>
        <time>2016-08-01T19:42:12.000Z</time>
      </trkpt>
      <trkpt lat="48.87135" lon="2.33578">
        <ele>52</ele>
        <time>2016-08-01T19:42:15.000Z</time>
      </trkpt>
      <trkpt lat="48.87139" lon="2.33597">
        <ele>51.799999237061</ele>
        <time>2016-08-01T19:42:17.000Z</time>
      </trkpt>
      <trkpt lat="48.87155" lon="2.33664">
        <ele>52.200000762939</ele>
        <time>2016-08-01T19:42:24.000Z</time>
      </trkpt>
      <trkpt lat="48.87174" lon="2.33729">
        <ele>50</ele>
        <time>2016-08-01T19:42:40.000Z</time>
      </trkpt>
      <trkpt lat="48.87179" lon="2.33798">
        <ele>50</ele>
        <time>2016-08-01T19:42:54.000Z</time>
      </trkpt>
      <trkpt lat="48.87193" lon="2.33869">
        <ele>50</ele>
        <time>2016-08-01T19:43:07.000Z</time>
      </trkpt>
      <trkpt lat="48.87202" lon="2.3394">
        <ele>49.200000762939</ele>
        <time>2016-08-01T19:43:20.000Z</time>
      </trkpt>
      <trkpt lat="48.8721" lon="2.3398">
        <ele>48.200000762939</ele>
        <time>2016-08-01T19:43:32.000Z</time>
      </trkpt>
      <trkpt lat="48.87243" lon="2.34024">
        <ele>47.599998474121</ele>
        <time>2016-08-01T19:43:51.000Z</time>
      </trkpt>
      <trkpt lat="48.87271" lon="2.34027">
        <ele>47.400001525879</ele>
        <time>2016-08-01T19:44:14.000Z</time>
      </trkpt>
      <trkpt lat="48.87265" lon="2.34017">
        <ele>47.400001525879</ele>
        <time>2016-08-01T19:44:47.000Z</time>
      </trkpt>
      <trkpt lat="48.87265" lon="2.34024">
        <ele>47.400001525879</ele>
        <time>2016-08-01T19:45:21.000Z</time>
      </trkpt>
      <trkpt lat="48.87259" lon="2.34023">
        <ele>47.400001525879</ele>
        <time>2016-08-01T19:46:16.000Z</time>
      </trkpt>
      <trkpt lat="48.87256" lon="2.34021">
        <ele>47.400001525879</ele>
        <time>2016-08-01T19:46:20.000Z</time>
      </trkpt>
      <trkpt lat="48.87211" lon="2.34014">
        <ele>48</ele>
        <time>2016-08-01T19:46:45.000Z</time>
      </trkpt>
      <trkpt lat="48.87199" lon="2.34017">
        <ele>48.400001525879</ele>
        <time>2016-08-01T19:47:01.000Z</time>
      </trkpt>
      <trkpt lat="48.87188" lon="2.34079">
        <ele>51</ele>
        <time>2016-08-01T19:47:18.000Z</time>
      </trkpt>
      <trkpt lat="48.87186" lon="2.34149">
        <ele>49.200000762939</ele>
        <time>2016-08-01T19:47:31.000Z</time>
      </trkpt>
      <trkpt lat="48.87181" lon="2.34205">
        <ele>49</ele>
        <time>2016-08-01T19:47:41.000Z</time>
      </trkpt>
      <trkpt lat="48.87169" lon="2.34273">
        <ele>48.200000762939</ele>
        <time>2016-08-01T19:47:55.000Z</time>
      </trkpt>
      <trkpt lat="48.87164" lon="2.343">
        <ele>47.400001525879</ele>
        <time>2016-08-01T19:48:23.000Z</time>
      </trkpt>
      <trkpt lat="48.8721" lon="2.34307">
        <ele>47.400001525879</ele>
        <time>2016-08-01T19:48:37.000Z</time>
      </trkpt>
      <trkpt lat="48.87255" lon="2.34307">
        <ele>46.799999237061</ele>
        <time>2016-08-01T19:48:49.000Z</time>
      </trkpt>
      <trkpt lat="48.87266" lon="2.34314">
        <ele>46.400001525879</ele>
        <time>2016-08-01T19:48:55.000Z</time>
      </trkpt>
      <trkpt lat="48.87256" lon="2.34384">
        <ele>46.799999237061</ele>
        <time>2016-08-01T19:49:09.000Z</time>
      </trkpt>
      <trkpt lat="48.8725" lon="2.34455">
        <ele>48</ele>
        <time>2016-08-01T19:49:22.000Z</time>
      </trkpt>
      <trkpt lat="48.87244" lon="2.34525">
        <ele>48.400001525879</ele>
        <time>2016-08-01T19:49:36.000Z</time>
      </trkpt>
      <trkpt lat="48.87236" lon="2.34593">
        <ele>49.599998474121</ele>
        <time>2016-08-01T19:49:47.000Z</time>
      </trkpt>
      <trkpt lat="48.87235" lon="2.34607">
        <ele>50</ele>
        <time>2016-08-01T19:49:49.000Z</time>
      </trkpt>
      <trkpt lat="48.87233" lon="2.34643">
        <ele>50.400001525879</ele>
        <time>2016-08-01T19:49:54.000Z</time>
      </trkpt>
      <trkpt lat="48.87224" lon="2.34715">
        <ele>50</ele>
        <time>2016-08-01T19:50:06.000Z</time>
      </trkpt>
      <trkpt lat="48.87209" lon="2.34781">
        <ele>49.400001525879</ele>
        <time>2016-08-01T19:50:17.000Z</time>
      </trkpt>
      <trkpt lat="48.87191" lon="2.34849">
        <ele>51.799999237061</ele>
        <time>2016-08-01T19:50:30.000Z</time>
      </trkpt>
      <trkpt lat="48.87178" lon="2.34915">
        <ele>50.599998474121</ele>
        <time>2016-08-01T19:50:41.000Z</time>
      </trkpt>
      <trkpt lat="48.8717" lon="2.34964">
        <ele>50.400001525879</ele>
        <time>2016-08-01T19:50:48.000Z</time>
      </trkpt>
      <trkpt lat="48.87156" lon="2.35033">
        <ele>49.400001525879</ele>
        <time>2016-08-01T19:51:00.000Z</time>
      </trkpt>
      <trkpt lat="48.87141" lon="2.35098">
        <ele>50.400001525879</ele>
        <time>2016-08-01T19:51:11.000Z</time>
      </trkpt>
      <trkpt lat="48.87128" lon="2.35167">
        <ele>50.799999237061</ele>
        <time>2016-08-01T19:51:21.000Z</time>
      </trkpt>
      <trkpt lat="48.87119" lon="2.35235">
        <ele>50.599998474121</ele>
        <time>2016-08-01T19:51:30.000Z</time>
      </trkpt>
      <trkpt lat="48.87104" lon="2.35303">
        <ele>49.599998474121</ele>
        <time>2016-08-01T19:51:41.000Z</time>
      </trkpt>
      <trkpt lat="48.87095" lon="2.35371">
        <ele>47.799999237061</ele>
        <time>2016-08-01T19:51:55.000Z</time>
      </trkpt>
      <trkpt lat="48.87083" lon="2.35437">
        <ele>48</ele>
        <time>2016-08-01T19:52:09.000Z</time>
      </trkpt>
      <trkpt lat="48.87073" lon="2.35467">
        <ele>47.799999237061</ele>
        <time>2016-08-01T19:52:18.000Z</time>
      </trkpt>
      <trkpt lat="48.87068" lon="2.3547">
        <ele>48</ele>
        <time>2016-08-01T19:52:21.000Z</time>
      </trkpt>
      <trkpt lat="48.87061" lon="2.35484">
        <ele>48.400001525879</ele>
        <time>2016-08-01T19:53:05.000Z</time>
      </trkpt>
      <trkpt lat="48.87065" lon="2.35494">
        <ele>48.400001525879</ele>
        <time>2016-08-01T19:53:08.000Z</time>
      </trkpt>
      <trkpt lat="48.87107" lon="2.35525">
        <ele>47.400001525879</ele>
        <time>2016-08-01T19:53:22.000Z</time>
      </trkpt>
      <trkpt lat="48.8715" lon="2.35547">
        <ele>46.599998474121</ele>
        <time>2016-08-01T19:53:36.000Z</time>
      </trkpt>
      <trkpt lat="48.87197" lon="2.35568">
        <ele>45.799999237061</ele>
        <time>2016-08-01T19:53:49.000Z</time>
      </trkpt>
      <trkpt lat="48.87215" lon="2.35594">
        <ele>46.200000762939</ele>
        <time>2016-08-01T19:53:56.000Z</time>
      </trkpt>
      <trkpt lat="48.87193" lon="2.35656">
        <ele>47.799999237061</ele>
        <time>2016-08-01T19:54:07.000Z</time>
      </trkpt>
      <trkpt lat="48.87178" lon="2.35711">
        <ele>49</ele>
        <time>2016-08-01T19:55:05.000Z</time>
      </trkpt>
      <trkpt lat="48.87176" lon="2.35715">
        <ele>49</ele>
        <time>2016-08-01T19:55:08.000Z</time>
      </trkpt>
      <trkpt lat="48.87149" lon="2.35771">
        <ele>46.200000762939</ele>
        <time>2016-08-01T19:55:23.000Z</time>
      </trkpt>
      <trkpt lat="48.87133" lon="2.35803">
        <ele>45.400001525879</ele>
        <time>2016-08-01T19:56:55.000Z</time>
      </trkpt>
      <trkpt lat="48.87104" lon="2.35856">
        <ele>47.799999237061</ele>
        <time>2016-08-01T19:57:15.000Z</time>
      </trkpt>
      <trkpt lat="48.87073" lon="2.35908">
        <ele>48.400001525879</ele>
        <time>2016-08-01T19:57:31.000Z</time>
      </trkpt>
      <trkpt lat="48.8704" lon="2.3596">
        <ele>47.200000762939</ele>
        <time>2016-08-01T19:57:45.000Z</time>
      </trkpt>
      <trkpt lat="48.8701" lon="2.36012">
        <ele>47.400001525879</ele>
        <time>2016-08-01T19:57:57.000Z</time>
      </trkpt>
      <trkpt lat="48.86981" lon="2.3607">
        <ele>48.799999237061</ele>
        <time>2016-08-01T19:58:09.000Z</time>
      </trkpt>
      <trkpt lat="48.86951" lon="2.36123">
        <ele>49</ele>
        <time>2016-08-01T19:58:20.000Z</time>
      </trkpt>
      <trkpt lat="48.86924" lon="2.36179">
        <ele>47.599998474121</ele>
        <time>2016-08-01T19:58:32.000Z</time>
      </trkpt>
      <trkpt lat="48.869" lon="2.3624">
        <ele>46.599998474121</ele>
        <time>2016-08-01T19:58:47.000Z</time>
      </trkpt>
      <trkpt lat="48.86863" lon="2.36281">
        <ele>44.200000762939</ele>
        <time>2016-08-01T19:59:06.000Z</time>
      </trkpt>
      <trkpt lat="48.86855" lon="2.36293">
        <ele>43.200000762939</ele>
        <time>2016-08-01T19:59:19.000Z</time>
      </trkpt>
      <trkpt lat="48.8684" lon="2.36331">
        <ele>41</ele>
        <time>2016-08-01T19:59:30.000Z</time>
      </trkpt>
      <trkpt lat="48.86808" lon="2.36382">
        <ele>41</ele>
        <time>2016-08-01T19:59:44.000Z</time>
      </trkpt>
      <trkpt lat="48.86778" lon="2.36434">
        <ele>39.799999237061</ele>
        <time>2016-08-01T19:59:56.000Z</time>
      </trkpt>
      <trkpt lat="48.86746" lon="2.36488">
        <ele>41</ele>
        <time>2016-08-01T20:00:10.000Z</time>
      </trkpt>
      <trkpt lat="48.86714" lon="2.36536">
        <ele>42.400001525879</ele>
        <time>2016-08-01T20:00:26.000Z</time>
      </trkpt>
      <trkpt lat="48.86696" lon="2.36527">
        <ele>41.599998474121</ele>
        <time>2016-08-01T20:00:43.000Z</time>
      </trkpt>
      <trkpt lat="48.86656" lon="2.36544">
        <ele>45.400001525879</ele>
        <time>2016-08-01T20:01:08.000Z</time>
      </trkpt>
      <trkpt lat="48.86647" lon="2.36558">
        <ele>45.799999237061</ele>
        <time>2016-08-01T20:01:11.000Z</time>
      </trkpt>
      <trkpt lat="48.86631" lon="2.3659">
        <ele>46.200000762939</ele>
        <time>2016-08-01T20:01:17.000Z</time>
      </trkpt>
      <trkpt lat="48.86625" lon="2.36599">
        <ele>46.599998474121</ele>
        <time>2016-08-01T20:01:19.000Z</time>
      </trkpt>
      <trkpt lat="48.86607" lon="2.36625">
        <ele>46.400001525879</ele>
        <time>2016-08-01T20:01:25.000Z</time>
      </trkpt>
      <trkpt lat="48.86577" lon="2.36683">
        <ele>45.799999237061</ele>
        <time>2016-08-01T20:01:34.000Z</time>
      </trkpt>
      <trkpt lat="48.86565" lon="2.36706">
        <ele>46</ele>
        <time>2016-08-01T20:01:37.000Z</time>
      </trkpt>
      <trkpt lat="48.86537" lon="2.36768">
        <ele>46.400001525879</ele>
        <time>2016-08-01T20:01:45.000Z</time>
      </trkpt>
      <trkpt lat="48.86502" lon="2.3683">
        <ele>47.599998474121</ele>
        <time>2016-08-01T20:01:52.000Z</time>
      </trkpt>
      <trkpt lat="48.86499" lon="2.3684">
        <ele>47.400001525879</ele>
        <time>2016-08-01T20:01:53.000Z</time>
      </trkpt>
      <trkpt lat="48.86465" lon="2.36889">
        <ele>46.400001525879</ele>
        <time>2016-08-01T20:02:00.000Z</time>
      </trkpt>
      <trkpt lat="48.86449" lon="2.36905">
        <ele>46.200000762939</ele>
        <time>2016-08-01T20:02:18.000Z</time>
      </trkpt>
      <trkpt lat="48.86431" lon="2.36936">
        <ele>45.400001525879</ele>
        <time>2016-08-01T20:02:26.000Z</time>
      </trkpt>
      <trkpt lat="48.86412" lon="2.36966">
        <ele>44.400001525879</ele>
        <time>2016-08-01T20:02:32.000Z</time>
      </trkpt>
      <trkpt lat="48.86398" lon="2.36986">
        <ele>44.799999237061</ele>
        <time>2016-08-01T20:02:36.000Z</time>
      </trkpt>
      <trkpt lat="48.86383" lon="2.37012">
        <ele>44.799999237061</ele>
        <time>2016-08-01T20:02:41.000Z</time>
      </trkpt>
      <trkpt lat="48.86354" lon="2.37063">
        <ele>44.400001525879</ele>
        <time>2016-08-01T20:02:50.000Z</time>
      </trkpt>
      <trkpt lat="48.86351" lon="2.3707">
        <ele>44</ele>
        <time>2016-08-01T20:02:51.000Z</time>
      </trkpt>
      <trkpt lat="48.86318" lon="2.37126">
        <ele>43.599998474121</ele>
        <time>2016-08-01T20:02:59.000Z</time>
      </trkpt>
      <trkpt lat="48.86283" lon="2.37178">
        <ele>44.200000762939</ele>
        <time>2016-08-01T20:03:07.000Z</time>
      </trkpt>
      <trkpt lat="48.86267" lon="2.37203">
        <ele>44.400001525879</ele>
        <time>2016-08-01T20:03:11.000Z</time>
      </trkpt>
      <trkpt lat="48.86235" lon="2.37252">
        <ele>45</ele>
        <time>2016-08-01T20:03:23.000Z</time>
      </trkpt>
      <trkpt lat="48.86226" lon="2.37264">
        <ele>45.200000762939</ele>
        <time>2016-08-01T20:03:31.000Z</time>
      </trkpt>
      <trkpt lat="48.862" lon="2.37313">
        <ele>46.400001525879</ele>
        <time>2016-08-01T20:03:43.000Z</time>
      </trkpt>
      <trkpt lat="48.86192" lon="2.37323">
        <ele>46.799999237061</ele>
        <time>2016-08-01T20:03:45.000Z</time>
      </trkpt>
      <trkpt lat="48.86161" lon="2.37376">
        <ele>45.200000762939</ele>
        <time>2016-08-01T20:03:54.000Z</time>
      </trkpt>
      <trkpt lat="48.86148" lon="2.37402">
        <ele>44.599998474121</ele>
        <time>2016-08-01T20:03:58.000Z</time>
      </trkpt>
      <trkpt lat="48.86136" lon="2.37441">
        <ele>44.400001525879</ele>
        <time>2016-08-01T20:04:04.000Z</time>
      </trkpt>
      <trkpt lat="48.8613" lon="2.3746">
        <ele>43.799999237061</ele>
        <time>2016-08-01T20:04:07.000Z</time>
      </trkpt>
      <trkpt lat="48.86103" lon="2.37525">
        <ele>42.400001525879</ele>
        <time>2016-08-01T20:04:16.000Z</time>
      </trkpt>
      <trkpt lat="48.86088" lon="2.37544">
        <ele>43</ele>
        <time>2016-08-01T20:04:18.000Z</time>
      </trkpt>
      <trkpt lat="48.8606" lon="2.37599">
        <ele>46</ele>
        <time>2016-08-01T20:04:25.000Z</time>
      </trkpt>
      <trkpt lat="48.86042" lon="2.37632">
        <ele>47.400001525879</ele>
        <time>2016-08-01T20:04:29.000Z</time>
      </trkpt>
      <trkpt lat="48.86013" lon="2.37691">
        <ele>48.200000762939</ele>
        <time>2016-08-01T20:04:37.000Z</time>
      </trkpt>
      <trkpt lat="48.85983" lon="2.37751">
        <ele>48.599998474121</ele>
        <time>2016-08-01T20:04:45.000Z</time>
      </trkpt>
      <trkpt lat="48.85949" lon="2.37804">
        <ele>47.400001525879</ele>
        <time>2016-08-01T20:04:53.000Z</time>
      </trkpt>
      <trkpt lat="48.85938" lon="2.3782">
        <ele>47</ele>
        <time>2016-08-01T20:04:56.000Z</time>
      </trkpt>
      <trkpt lat="48.85906" lon="2.37848">
        <ele>46.799999237061</ele>
        <time>2016-08-01T20:05:00.000Z</time>
      </trkpt>
      <trkpt lat="48.85898" lon="2.37857">
        <ele>46.799999237061</ele>
        <time>2016-08-01T20:05:02.000Z</time>
      </trkpt>
      <trkpt lat="48.85863" lon="2.37909">
        <ele>46.200000762939</ele>
        <time>2016-08-01T20:05:13.000Z</time>
      </trkpt>
      <trkpt lat="48.85835" lon="2.3795">
        <ele>44.400001525879</ele>
        <time>2016-08-01T20:05:24.000Z</time>
      </trkpt>
      <trkpt lat="48.85836" lon="2.37976">
        <ele>43.799999237061</ele>
        <time>2016-08-01T20:05:38.000Z</time>
      </trkpt>
      <trkpt lat="48.85816" lon="2.37989">
        <ele>43.799999237061</ele>
        <time>2016-08-01T20:09:31.000Z</time>
      </trkpt>
      <trkpt lat="48.85803" lon="2.37995">
        <ele>44</ele>
        <time>2016-08-01T20:09:51.000Z</time>
      </trkpt>
      <trkpt lat="48.85797" lon="2.37996">
        <ele>44</ele>
        <time>2016-08-01T20:09:55.000Z</time>
      </trkpt>
      <trkpt lat="48.85791" lon="2.37996">
        <ele>44</ele>
        <time>2016-08-01T20:09:59.000Z</time>
      </trkpt>
      <trkpt lat="48.85788" lon="2.37994">
        <ele>44</ele>
        <time>2016-08-01T20:10:01.000Z</time>
      </trkpt>
      <trkpt lat="48.85745" lon="2.37968">
        <ele>44.200000762939</ele>
        <time>2016-08-01T20:10:16.000Z</time>
      </trkpt>
      <trkpt lat="48.857" lon="2.37943">
        <ele>44.799999237061</ele>
        <time>2016-08-01T20:10:28.000Z</time>
      </trkpt>
      <trkpt lat="48.85656" lon="2.3792">
        <ele>44.200000762939</ele>
        <time>2016-08-01T20:10:38.000Z</time>
      </trkpt>
      <trkpt lat="48.85613" lon="2.37898">
        <ele>43</ele>
        <time>2016-08-01T20:10:47.000Z</time>
      </trkpt>
      <trkpt lat="48.85584" lon="2.37886">
        <ele>43.200000762939</ele>
        <time>2016-08-01T20:10:53.000Z</time>
      </trkpt>
      <trkpt lat="48.85559" lon="2.37873">
        <ele>43.599998474121</ele>
        <time>2016-08-01T20:10:57.000Z</time>
      </trkpt>
      <trkpt lat="48.8551" lon="2.37847">
        <ele>43.799999237061</ele>
        <time>2016-08-01T20:11:06.000Z</time>
      </trkpt>
      <trkpt lat="48.8546" lon="2.37822">
        <ele>43.799999237061</ele>
        <time>2016-08-01T20:11:13.000Z</time>
      </trkpt>
      <trkpt lat="48.85409" lon="2.37801">
        <ele>42.599998474121</ele>
        <time>2016-08-01T20:11:20.000Z</time>
      </trkpt>
      <trkpt lat="48.85365" lon="2.37781">
        <ele>40.200000762939</ele>
        <time>2016-08-01T20:11:26.000Z</time>
      </trkpt>
      <trkpt lat="48.85335" lon="2.37755">
        <ele>40.799999237061</ele>
        <time>2016-08-01T20:11:32.000Z</time>
      </trkpt>
      <trkpt lat="48.85313" lon="2.37746">
        <ele>42</ele>
        <time>2016-08-01T20:11:37.000Z</time>
      </trkpt>
      <trkpt lat="48.85269" lon="2.37717">
        <ele>44</ele>
        <time>2016-08-01T20:11:45.000Z</time>
      </trkpt>
      <trkpt lat="48.85226" lon="2.37691">
        <ele>44.599998474121</ele>
        <time>2016-08-01T20:11:52.000Z</time>
      </trkpt>
      <trkpt lat="48.85179" lon="2.37669">
        <ele>45.200000762939</ele>
        <time>2016-08-01T20:11:59.000Z</time>
      </trkpt>
      <trkpt lat="48.85133" lon="2.37647">
        <ele>46</ele>
        <time>2016-08-01T20:12:07.000Z</time>
      </trkpt>
      <trkpt lat="48.8509" lon="2.3761">
        <ele>45.400001525879</ele>
        <time>2016-08-01T20:12:16.000Z</time>
      </trkpt>
      <trkpt lat="48.85049" lon="2.3758">
        <ele>44.400001525879</ele>
        <time>2016-08-01T20:12:30.000Z</time>
      </trkpt>
      <trkpt lat="48.85012" lon="2.3754">
        <ele>43.200000762939</ele>
        <time>2016-08-01T20:12:42.000Z</time>
      </trkpt>
      <trkpt lat="48.8498" lon="2.37499">
        <ele>42</ele>
        <time>2016-08-01T20:12:50.000Z</time>
      </trkpt>
      <trkpt lat="48.84964" lon="2.37464">
        <ele>42.799999237061</ele>
        <time>2016-08-01T20:12:55.000Z</time>
      </trkpt>
      <trkpt lat="48.84952" lon="2.37445">
        <ele>43.200000762939</ele>
        <time>2016-08-01T20:12:58.000Z</time>
      </trkpt>
      <trkpt lat="48.84919" lon="2.37392">
        <ele>43</ele>
        <time>2016-08-01T20:13:06.000Z</time>
      </trkpt>
      <trkpt lat="48.84886" lon="2.37341">
        <ele>40.799999237061</ele>
        <time>2016-08-01T20:13:13.000Z</time>
      </trkpt>
      <trkpt lat="48.84867" lon="2.37278">
        <ele>39.400001525879</ele>
        <time>2016-08-01T20:13:28.000Z</time>
      </trkpt>
      <trkpt lat="48.84869" lon="2.3728">
        <ele>39.599998474121</ele>
        <time>2016-08-01T20:13:46.000Z</time>
      </trkpt>
      <trkpt lat="48.84866" lon="2.37288">
        <ele>39.599998474121</ele>
        <time>2016-08-01T20:13:51.000Z</time>
      </trkpt>
      <trkpt lat="48.84848" lon="2.37333">
        <ele>40.200000762939</ele>
        <time>2016-08-01T20:14:04.000Z</time>
      </trkpt>
      <trkpt lat="48.84845" lon="2.37338">
        <ele>40.200000762939</ele>
        <time>2016-08-01T20:14:05.000Z</time>
      </trkpt>
      <trkpt lat="48.84814" lon="2.37388">
        <ele>40.799999237061</ele>
        <time>2016-08-01T20:14:15.000Z</time>
      </trkpt>
      <trkpt lat="48.84784" lon="2.3744">
        <ele>40.200000762939</ele>
        <time>2016-08-01T20:14:26.000Z</time>
      </trkpt>
      <trkpt lat="48.84777" lon="2.37451">
        <ele>40</ele>
        <time>2016-08-01T20:14:28.000Z</time>
      </trkpt>
      <trkpt lat="48.84746" lon="2.37509">
        <ele>40.200000762939</ele>
        <time>2016-08-01T20:14:37.000Z</time>
      </trkpt>
      <trkpt lat="48.8472" lon="2.37567">
        <ele>40.599998474121</ele>
        <time>2016-08-01T20:14:46.000Z</time>
      </trkpt>
      <trkpt lat="48.84693" lon="2.37625">
        <ele>41.599998474121</ele>
        <time>2016-08-01T20:14:55.000Z</time>
      </trkpt>
      <trkpt lat="48.84662" lon="2.37685">
        <ele>42</ele>
        <time>2016-08-01T20:15:05.000Z</time>
      </trkpt>
      <trkpt lat="48.84654" lon="2.37704">
        <ele>42</ele>
        <time>2016-08-01T20:15:08.000Z</time>
      </trkpt>
      <trkpt lat="48.8465" lon="2.37717">
        <ele>42</ele>
        <time>2016-08-01T20:15:10.000Z</time>
      </trkpt>
      <trkpt lat="48.84641" lon="2.37736">
        <ele>41.799999237061</ele>
        <time>2016-08-01T20:15:13.000Z</time>
      </trkpt>
      <trkpt lat="48.84633" lon="2.37755">
        <ele>41.599998474121</ele>
        <time>2016-08-01T20:15:16.000Z</time>
      </trkpt>
      <trkpt lat="48.84628" lon="2.37765">
        <ele>41.599998474121</ele>
        <time>2016-08-01T20:15:18.000Z</time>
      </trkpt>
      <trkpt lat="48.84594" lon="2.37806">
        <ele>39.400001525879</ele>
        <time>2016-08-01T20:15:27.000Z</time>
      </trkpt>
      <trkpt lat="48.84568" lon="2.37867">
        <ele>37.200000762939</ele>
        <time>2016-08-01T20:15:36.000Z</time>
      </trkpt>
      <trkpt lat="48.84559" lon="2.37888">
        <ele>37.200000762939</ele>
        <time>2016-08-01T20:15:39.000Z</time>
      </trkpt>
      <trkpt lat="48.84532" lon="2.37946">
        <ele>38.200000762939</ele>
        <time>2016-08-01T20:15:47.000Z</time>
      </trkpt>
      <trkpt lat="48.84504" lon="2.38008">
        <ele>38.799999237061</ele>
        <time>2016-08-01T20:15:55.000Z</time>
      </trkpt>
      <trkpt lat="48.84493" lon="2.38033">
        <ele>39.200000762939</ele>
        <time>2016-08-01T20:15:58.000Z</time>
      </trkpt>
      <trkpt lat="48.84462" lon="2.38094">
        <ele>38.599998474121</ele>
        <time>2016-08-01T20:16:06.000Z</time>
      </trkpt>
      <trkpt lat="48.84433" lon="2.38151">
        <ele>38.400001525879</ele>
        <time>2016-08-01T20:16:15.000Z</time>
      </trkpt>
      <trkpt lat="48.84406" lon="2.38209">
        <ele>41.400001525879</ele>
        <time>2016-08-01T20:16:25.000Z</time>
      </trkpt>
      <trkpt lat="48.84379" lon="2.38264">
        <ele>43.200000762939</ele>
        <time>2016-08-01T20:16:33.000Z</time>
      </trkpt>
      <trkpt lat="48.84372" lon="2.3828">
        <ele>42.799999237061</ele>
        <time>2016-08-01T20:16:35.000Z</time>
      </trkpt>
      <trkpt lat="48.84351" lon="2.38347">
        <ele>39.599998474121</ele>
        <time>2016-08-01T20:16:43.000Z</time>
      </trkpt>
      <trkpt lat="48.84331" lon="2.38417">
        <ele>38.599998474121</ele>
        <time>2016-08-01T20:16:52.000Z</time>
      </trkpt>
      <trkpt lat="48.84323" lon="2.38437">
        <ele>39</ele>
        <time>2016-08-01T20:16:55.000Z</time>
      </trkpt>
      <trkpt lat="48.84314" lon="2.38464">
        <ele>39.599998474121</ele>
        <time>2016-08-01T20:16:59.000Z</time>
      </trkpt>
      <trkpt lat="48.84297" lon="2.38481">
        <ele>39.799999237061</ele>
        <time>2016-08-01T20:17:01.000Z</time>
      </trkpt>
      <trkpt lat="48.84262" lon="2.3853">
        <ele>40.400001525879</ele>
        <time>2016-08-01T20:17:08.000Z</time>
      </trkpt>
      <trkpt lat="48.84245" lon="2.38593">
        <ele>42.799999237061</ele>
        <time>2016-08-01T20:17:16.000Z</time>
      </trkpt>
      <trkpt lat="48.84241" lon="2.38609">
        <ele>43.799999237061</ele>
        <time>2016-08-01T20:17:18.000Z</time>
      </trkpt>
      <trkpt lat="48.84229" lon="2.38676">
        <ele>45.400001525879</ele>
        <time>2016-08-01T20:17:27.000Z</time>
      </trkpt>
      <trkpt lat="48.84228" lon="2.38691">
        <ele>45.400001525879</ele>
        <time>2016-08-01T20:17:29.000Z</time>
      </trkpt>
      <trkpt lat="48.84205" lon="2.38732">
        <ele>44</ele>
        <time>2016-08-01T20:17:35.000Z</time>
      </trkpt>
      <trkpt lat="48.84161" lon="2.38777">
        <ele>43.599998474121</ele>
        <time>2016-08-01T20:17:41.000Z</time>
      </trkpt>
      <trkpt lat="48.84135" lon="2.38834">
        <ele>45.400001525879</ele>
        <time>2016-08-01T20:17:51.000Z</time>
      </trkpt>
      <trkpt lat="48.84132" lon="2.38835">
        <ele>45.599998474121</ele>
        <time>2016-08-01T20:17:55.000Z</time>
      </trkpt>
      <trkpt lat="48.84133" lon="2.38818">
        <ele>45.200000762939</ele>
        <time>2016-08-01T20:18:01.000Z</time>
      </trkpt>
      <trkpt lat="48.84115" lon="2.3878">
        <ele>45.799999237061</ele>
        <time>2016-08-01T20:18:17.000Z</time>
      </trkpt>
      <trkpt lat="48.84109" lon="2.38789">
        <ele>46.200000762939</ele>
        <time>2016-08-01T20:22:20.000Z</time>
      </trkpt>
      <trkpt lat="48.84113" lon="2.38792">
        <ele>46.200000762939</ele>
        <time>2016-08-01T20:22:24.000Z</time>
      </trkpt>
      <trkpt lat="48.84122" lon="2.38792">
        <ele>45.599998474121</ele>
        <time>2016-08-01T20:22:31.000Z</time>
      </trkpt>
      <trkpt lat="48.84156" lon="2.3875">
        <ele>44.200000762939</ele>
        <time>2016-08-01T20:22:51.000Z</time>
      </trkpt>
      <trkpt lat="48.8417" lon="2.38721">
        <ele>44</ele>
        <time>2016-08-01T20:22:56.000Z</time>
      </trkpt>
      <trkpt lat="48.84196" lon="2.38662">
        <ele>45</ele>
        <time>2016-08-01T20:23:05.000Z</time>
      </trkpt>
      <trkpt lat="48.84221" lon="2.38601">
        <ele>44</ele>
        <time>2016-08-01T20:23:13.000Z</time>
      </trkpt>
      <trkpt lat="48.84246" lon="2.38543">
        <ele>40.599998474121</ele>
        <time>2016-08-01T20:23:21.000Z</time>
      </trkpt>
      <trkpt lat="48.84266" lon="2.38501">
        <ele>40</ele>
        <time>2016-08-01T20:23:27.000Z</time>
      </trkpt>
      <trkpt lat="48.84289" lon="2.38441">
        <ele>39.799999237061</ele>
        <time>2016-08-01T20:23:34.000Z</time>
      </trkpt>
      <trkpt lat="48.84313" lon="2.38378">
        <ele>38.200000762939</ele>
        <time>2016-08-01T20:23:41.000Z</time>
      </trkpt>
      <trkpt lat="48.84343" lon="2.3832">
        <ele>40.400001525879</ele>
        <time>2016-08-01T20:23:48.000Z</time>
      </trkpt>
      <trkpt lat="48.84368" lon="2.3826">
        <ele>43.599998474121</ele>
        <time>2016-08-01T20:23:54.000Z</time>
      </trkpt>
      <trkpt lat="48.84388" lon="2.38215">
        <ele>42.400001525879</ele>
        <time>2016-08-01T20:23:59.000Z</time>
      </trkpt>
      <trkpt lat="48.84419" lon="2.38159">
        <ele>39.400001525879</ele>
        <time>2016-08-01T20:24:08.000Z</time>
      </trkpt>
      <trkpt lat="48.84425" lon="2.38148">
        <ele>39</ele>
        <time>2016-08-01T20:24:10.000Z</time>
      </trkpt>
      <trkpt lat="48.84436" lon="2.38123">
        <ele>37.799999237061</ele>
        <time>2016-08-01T20:24:14.000Z</time>
      </trkpt>
      <trkpt lat="48.84463" lon="2.38067">
        <ele>38.200000762939</ele>
        <time>2016-08-01T20:24:22.000Z</time>
      </trkpt>
      <trkpt lat="48.84492" lon="2.38008">
        <ele>38.599998474121</ele>
        <time>2016-08-01T20:24:30.000Z</time>
      </trkpt>
      <trkpt lat="48.84512" lon="2.37969">
        <ele>38.599998474121</ele>
        <time>2016-08-01T20:24:35.000Z</time>
      </trkpt>
      <trkpt lat="48.84537" lon="2.3792">
        <ele>37.799999237061</ele>
        <time>2016-08-01T20:24:41.000Z</time>
      </trkpt>
      <trkpt lat="48.84558" lon="2.37867">
        <ele>37.200000762939</ele>
        <time>2016-08-01T20:24:47.000Z</time>
      </trkpt>
      <trkpt lat="48.84588" lon="2.37809">
        <ele>39.200000762939</ele>
        <time>2016-08-01T20:24:54.000Z</time>
      </trkpt>
      <trkpt lat="48.84621" lon="2.37754">
        <ele>41.400001525879</ele>
        <time>2016-08-01T20:25:02.000Z</time>
      </trkpt>
      <trkpt lat="48.84649" lon="2.37699">
        <ele>42</ele>
        <time>2016-08-01T20:25:09.000Z</time>
      </trkpt>
      <trkpt lat="48.84678" lon="2.37643">
        <ele>41.799999237061</ele>
        <time>2016-08-01T20:25:16.000Z</time>
      </trkpt>
      <trkpt lat="48.84703" lon="2.37584">
        <ele>40.799999237061</ele>
        <time>2016-08-01T20:25:23.000Z</time>
      </trkpt>
      <trkpt lat="48.84729" lon="2.37523">
        <ele>41</ele>
        <time>2016-08-01T20:25:30.000Z</time>
      </trkpt>
      <trkpt lat="48.84758" lon="2.3746">
        <ele>40</ele>
        <time>2016-08-01T20:25:38.000Z</time>
      </trkpt>
      <trkpt lat="48.84787" lon="2.37405">
        <ele>41</ele>
        <time>2016-08-01T20:25:47.000Z</time>
      </trkpt>
      <trkpt lat="48.84817" lon="2.37349">
        <ele>41</ele>
        <time>2016-08-01T20:25:57.000Z</time>
      </trkpt>
      <trkpt lat="48.84845" lon="2.37297">
        <ele>39.799999237061</ele>
        <time>2016-08-01T20:26:06.000Z</time>
      </trkpt>
      <trkpt lat="48.84868" lon="2.37236">
        <ele>39.200000762939</ele>
        <time>2016-08-01T20:26:17.000Z</time>
      </trkpt>
      <trkpt lat="48.84881" lon="2.37202">
        <ele>40.400001525879</ele>
        <time>2016-08-01T20:26:22.000Z</time>
      </trkpt>
      <trkpt lat="48.8491" lon="2.37146">
        <ele>39.400001525879</ele>
        <time>2016-08-01T20:26:30.000Z</time>
      </trkpt>
      <trkpt lat="48.84929" lon="2.3712">
        <ele>40.200000762939</ele>
        <time>2016-08-01T20:26:34.000Z</time>
      </trkpt>
      <trkpt lat="48.84969" lon="2.37074">
        <ele>41.799999237061</ele>
        <time>2016-08-01T20:26:42.000Z</time>
      </trkpt>
      <trkpt lat="48.84984" lon="2.37061">
        <ele>42.200000762939</ele>
        <time>2016-08-01T20:26:45.000Z</time>
      </trkpt>
      <trkpt lat="48.85026" lon="2.37035">
        <ele>44</ele>
        <time>2016-08-01T20:26:53.000Z</time>
      </trkpt>
      <trkpt lat="48.85045" lon="2.37028">
        <ele>45.200000762939</ele>
        <time>2016-08-01T20:26:56.000Z</time>
      </trkpt>
      <trkpt lat="48.85093" lon="2.37009">
        <ele>48</ele>
        <time>2016-08-01T20:27:05.000Z</time>
      </trkpt>
      <trkpt lat="48.85138" lon="2.36991">
        <ele>48.400001525879</ele>
        <time>2016-08-01T20:27:15.000Z</time>
      </trkpt>
      <trkpt lat="48.85184" lon="2.36972">
        <ele>45.799999237061</ele>
        <time>2016-08-01T20:27:28.000Z</time>
      </trkpt>
      <trkpt lat="48.85229" lon="2.36949">
        <ele>44.400001525879</ele>
        <time>2016-08-01T20:27:43.000Z</time>
      </trkpt>
      <trkpt lat="48.85263" lon="2.36946">
        <ele>45.799999237061</ele>
        <time>2016-08-01T20:27:55.000Z</time>
      </trkpt>
      <trkpt lat="48.853" lon="2.36988">
        <ele>46.599998474121</ele>
        <time>2016-08-01T20:28:12.000Z</time>
      </trkpt>
      <trkpt lat="48.8534" lon="2.36967">
        <ele>42.599998474121</ele>
        <time>2016-08-01T20:28:28.000Z</time>
      </trkpt>
      <trkpt lat="48.85345" lon="2.36899">
        <ele>42.799999237061</ele>
        <time>2016-08-01T20:28:43.000Z</time>
      </trkpt>
      <trkpt lat="48.85332" lon="2.36852">
        <ele>44.200000762939</ele>
        <time>2016-08-01T20:28:56.000Z</time>
      </trkpt>
      <trkpt lat="48.8533" lon="2.3684">
        <ele>44.599998474121</ele>
        <time>2016-08-01T20:28:58.000Z</time>
      </trkpt>
      <trkpt lat="48.85335" lon="2.36783">
        <ele>46.400001525879</ele>
        <time>2016-08-01T20:29:06.000Z</time>
      </trkpt>
      <trkpt lat="48.85338" lon="2.36762">
        <ele>46.200000762939</ele>
        <time>2016-08-01T20:29:09.000Z</time>
      </trkpt>
      <trkpt lat="48.85343" lon="2.36732">
        <ele>46.599998474121</ele>
        <time>2016-08-01T20:29:13.000Z</time>
      </trkpt>
      <trkpt lat="48.85346" lon="2.36709">
        <ele>45</ele>
        <time>2016-08-01T20:29:16.000Z</time>
      </trkpt>
      <trkpt lat="48.85352" lon="2.36649">
        <ele>42.400001525879</ele>
        <time>2016-08-01T20:29:23.000Z</time>
      </trkpt>
      <trkpt lat="48.85369" lon="2.36581">
        <ele>43.599998474121</ele>
        <time>2016-08-01T20:29:30.000Z</time>
      </trkpt>
      <trkpt lat="48.85388" lon="2.36509">
        <ele>43.799999237061</ele>
        <time>2016-08-01T20:29:37.000Z</time>
      </trkpt>
      <trkpt lat="48.85407" lon="2.36436">
        <ele>45.799999237061</ele>
        <time>2016-08-01T20:29:44.000Z</time>
      </trkpt>
      <trkpt lat="48.8543" lon="2.36369">
        <ele>45.200000762939</ele>
        <time>2016-08-01T20:29:51.000Z</time>
      </trkpt>
      <trkpt lat="48.85442" lon="2.36334">
        <ele>45</ele>
        <time>2016-08-01T20:29:55.000Z</time>
      </trkpt>
      <trkpt lat="48.85462" lon="2.36269">
        <ele>42.200000762939</ele>
        <time>2016-08-01T20:30:03.000Z</time>
      </trkpt>
      <trkpt lat="48.8549" lon="2.36208">
        <ele>42.400001525879</ele>
        <time>2016-08-01T20:30:12.000Z</time>
      </trkpt>
      <trkpt lat="48.85498" lon="2.36189">
        <ele>43.200000762939</ele>
        <time>2016-08-01T20:30:15.000Z</time>
      </trkpt>
      <trkpt lat="48.85517" lon="2.36122">
        <ele>44.200000762939</ele>
        <time>2016-08-01T20:30:25.000Z</time>
      </trkpt>
      <trkpt lat="48.85533" lon="2.36051">
        <ele>44.400001525879</ele>
        <time>2016-08-01T20:30:35.000Z</time>
      </trkpt>
      <trkpt lat="48.85536" lon="2.36036">
        <ele>44.599998474121</ele>
        <time>2016-08-01T20:30:37.000Z</time>
      </trkpt>
      <trkpt lat="48.85549" lon="2.35984">
        <ele>45.200000762939</ele>
        <time>2016-08-01T20:30:45.000Z</time>
      </trkpt>
      <trkpt lat="48.85553" lon="2.35963">
        <ele>45</ele>
        <time>2016-08-01T20:30:48.000Z</time>
      </trkpt>
      <trkpt lat="48.85568" lon="2.35899">
        <ele>44.599998474121</ele>
        <time>2016-08-01T20:30:57.000Z</time>
      </trkpt>
      <trkpt lat="48.85585" lon="2.35828">
        <ele>44.599998474121</ele>
        <time>2016-08-01T20:31:06.000Z</time>
      </trkpt>
      <trkpt lat="48.85587" lon="2.35821">
        <ele>44.599998474121</ele>
        <time>2016-08-01T20:31:07.000Z</time>
      </trkpt>
      <trkpt lat="48.85603" lon="2.35752">
        <ele>44.799999237061</ele>
        <time>2016-08-01T20:31:17.000Z</time>
      </trkpt>
      <trkpt lat="48.85611" lon="2.35719">
        <ele>44.799999237061</ele>
        <time>2016-08-01T20:31:22.000Z</time>
      </trkpt>
      <trkpt lat="48.85619" lon="2.35685">
        <ele>44.799999237061</ele>
        <time>2016-08-01T20:31:27.000Z</time>
      </trkpt>
      <trkpt lat="48.85634" lon="2.35615">
        <ele>44</ele>
        <time>2016-08-01T20:31:36.000Z</time>
      </trkpt>
      <trkpt lat="48.85652" lon="2.35546">
        <ele>43</ele>
        <time>2016-08-01T20:31:44.000Z</time>
      </trkpt>
      <trkpt lat="48.85669" lon="2.35476">
        <ele>45.799999237061</ele>
        <time>2016-08-01T20:31:52.000Z</time>
      </trkpt>
      <trkpt lat="48.85689" lon="2.35412">
        <ele>45</ele>
        <time>2016-08-01T20:32:00.000Z</time>
      </trkpt>
      <trkpt lat="48.85706" lon="2.35348">
        <ele>48.599998474121</ele>
        <time>2016-08-01T20:32:12.000Z</time>
      </trkpt>
      <trkpt lat="48.85722" lon="2.35281">
        <ele>49</ele>
        <time>2016-08-01T20:32:21.000Z</time>
      </trkpt>
      <trkpt lat="48.85736" lon="2.35209">
        <ele>42.799999237061</ele>
        <time>2016-08-01T20:32:31.000Z</time>
      </trkpt>
      <trkpt lat="48.85744" lon="2.35169">
        <ele>40.599998474121</ele>
        <time>2016-08-01T20:32:37.000Z</time>
      </trkpt>
      <trkpt lat="48.85763" lon="2.35104">
        <ele>43</ele>
        <time>2016-08-01T20:32:47.000Z</time>
      </trkpt>
      <trkpt lat="48.85772" lon="2.35075">
        <ele>45.200000762939</ele>
        <time>2016-08-01T20:32:51.000Z</time>
      </trkpt>
      <trkpt lat="48.85791" lon="2.35014">
        <ele>48.200000762939</ele>
        <time>2016-08-01T20:33:00.000Z</time>
      </trkpt>
      <trkpt lat="48.85795" lon="2.35001">
        <ele>47.799999237061</ele>
        <time>2016-08-01T20:33:02.000Z</time>
      </trkpt>
      <trkpt lat="48.85808" lon="2.34959">
        <ele>44.400001525879</ele>
        <time>2016-08-01T20:33:08.000Z</time>
      </trkpt>
      <trkpt lat="48.85823" lon="2.34916">
        <ele>45.200000762939</ele>
        <time>2016-08-01T20:33:14.000Z</time>
      </trkpt>
      <trkpt lat="48.85841" lon="2.34852">
        <ele>46.200000762939</ele>
        <time>2016-08-01T20:33:22.000Z</time>
      </trkpt>
      <trkpt lat="48.85862" lon="2.3479">
        <ele>47.599998474121</ele>
        <time>2016-08-01T20:33:30.000Z</time>
      </trkpt>
      <trkpt lat="48.85879" lon="2.34743">
        <ele>46.200000762939</ele>
        <time>2016-08-01T20:33:37.000Z</time>
      </trkpt>
      <trkpt lat="48.85922" lon="2.34717">
        <ele>45.599998474121</ele>
        <time>2016-08-01T20:33:50.000Z</time>
      </trkpt>
      <trkpt lat="48.85939" lon="2.34706">
        <ele>45.599998474121</ele>
        <time>2016-08-01T20:33:56.000Z</time>
      </trkpt>
      <trkpt lat="48.85952" lon="2.34718">
        <ele>45.200000762939</ele>
        <time>2016-08-01T20:34:05.000Z</time>
      </trkpt>
    </trkseg>
  </trk>
  <trk>
    <name><![CDATA[lundi 2016 08 08]]></name>
    <trkseg>
      <trkpt lat="48.8574" lon="2.347">
        <ele>39.799999237061</ele>
        <time>2016-08-08T18:20:29.000Z</time>
      </trkpt>
      <trkpt lat="48.85738" lon="2.34696">
        <ele>39.799999237061</ele>
        <time>2016-08-08T18:20:30.000Z</time>
      </trkpt>
      <trkpt lat="48.85737" lon="2.34688">
        <ele>39.599998474121</ele>
        <time>2016-08-08T18:20:34.000Z</time>
      </trkpt>
      <trkpt lat="48.85722" lon="2.34698">
        <ele>40.599998474121</ele>
        <time>2016-08-08T18:20:41.000Z</time>
      </trkpt>
      <trkpt lat="48.85721" lon="2.34712">
        <ele>40.599998474121</ele>
        <time>2016-08-08T18:21:08.000Z</time>
      </trkpt>
      <trkpt lat="48.85713" lon="2.34741">
        <ele>40.799999237061</ele>
        <time>2016-08-08T18:21:17.000Z</time>
      </trkpt>
      <trkpt lat="48.85709" lon="2.34772">
        <ele>40.799999237061</ele>
        <time>2016-08-08T18:21:24.000Z</time>
      </trkpt>
      <trkpt lat="48.85703" lon="2.34802">
        <ele>44</ele>
        <time>2016-08-08T18:21:29.000Z</time>
      </trkpt>
      <trkpt lat="48.85692" lon="2.3483">
        <ele>47.599998474121</ele>
        <time>2016-08-08T18:21:34.000Z</time>
      </trkpt>
      <trkpt lat="48.85686" lon="2.34861">
        <ele>46.799999237061</ele>
        <time>2016-08-08T18:21:39.000Z</time>
      </trkpt>
      <trkpt lat="48.85676" lon="2.34887">
        <ele>44.599998474121</ele>
        <time>2016-08-08T18:21:44.000Z</time>
      </trkpt>
      <trkpt lat="48.8567" lon="2.34915">
        <ele>45.599998474121</ele>
        <time>2016-08-08T18:21:49.000Z</time>
      </trkpt>
      <trkpt lat="48.85661" lon="2.34942">
        <ele>44</ele>
        <time>2016-08-08T18:21:54.000Z</time>
      </trkpt>
      <trkpt lat="48.85647" lon="2.34969">
        <ele>41.400001525879</ele>
        <time>2016-08-08T18:21:59.000Z</time>
      </trkpt>
      <trkpt lat="48.85634" lon="2.34994">
        <ele>37.400001525879</ele>
        <time>2016-08-08T18:22:04.000Z</time>
      </trkpt>
      <trkpt lat="48.85622" lon="2.35018">
        <ele>35</ele>
        <time>2016-08-08T18:22:09.000Z</time>
      </trkpt>
      <trkpt lat="48.85612" lon="2.35045">
        <ele>32.599998474121</ele>
        <time>2016-08-08T18:22:16.000Z</time>
      </trkpt>
      <trkpt lat="48.85604" lon="2.35071">
        <ele>30.799999237061</ele>
        <time>2016-08-08T18:22:20.000Z</time>
      </trkpt>
      <trkpt lat="48.85596" lon="2.35103">
        <ele>31</ele>
        <time>2016-08-08T18:22:23.000Z</time>
      </trkpt>
      <trkpt lat="48.85585" lon="2.35131">
        <ele>32.200000762939</ele>
        <time>2016-08-08T18:22:27.000Z</time>
      </trkpt>
      <trkpt lat="48.85572" lon="2.35158">
        <ele>31.39999961853</ele>
        <time>2016-08-08T18:22:31.000Z</time>
      </trkpt>
      <trkpt lat="48.85565" lon="2.35181">
        <ele>32.799999237061</ele>
        <time>2016-08-08T18:22:34.000Z</time>
      </trkpt>
      <trkpt lat="48.85557" lon="2.35206">
        <ele>34.400001525879</ele>
        <time>2016-08-08T18:22:37.000Z</time>
      </trkpt>
      <trkpt lat="48.85546" lon="2.35235">
        <ele>32</ele>
        <time>2016-08-08T18:22:41.000Z</time>
      </trkpt>
      <trkpt lat="48.85536" lon="2.35262">
        <ele>30.799999237061</ele>
        <time>2016-08-08T18:22:45.000Z</time>
      </trkpt>
      <trkpt lat="48.85523" lon="2.3529">
        <ele>32.599998474121</ele>
        <time>2016-08-08T18:22:49.000Z</time>
      </trkpt>
      <trkpt lat="48.8551" lon="2.35316">
        <ele>34.799999237061</ele>
        <time>2016-08-08T18:22:53.000Z</time>
      </trkpt>
      <trkpt lat="48.855" lon="2.35343">
        <ele>34.400001525879</ele>
        <time>2016-08-08T18:22:57.000Z</time>
      </trkpt>
      <trkpt lat="48.85493" lon="2.35369">
        <ele>35</ele>
        <time>2016-08-08T18:23:01.000Z</time>
      </trkpt>
      <trkpt lat="48.85488" lon="2.35389">
        <ele>35.599998474121</ele>
        <time>2016-08-08T18:23:04.000Z</time>
      </trkpt>
      <trkpt lat="48.85482" lon="2.35417">
        <ele>36.400001525879</ele>
        <time>2016-08-08T18:23:08.000Z</time>
      </trkpt>
      <trkpt lat="48.85478" lon="2.35431">
        <ele>35.400001525879</ele>
        <time>2016-08-08T18:23:10.000Z</time>
      </trkpt>
      <trkpt lat="48.85464" lon="2.35457">
        <ele>34.200000762939</ele>
        <time>2016-08-08T18:23:15.000Z</time>
      </trkpt>
      <trkpt lat="48.85454" lon="2.35475">
        <ele>34.599998474121</ele>
        <time>2016-08-08T18:23:19.000Z</time>
      </trkpt>
      <trkpt lat="48.85448" lon="2.35488">
        <ele>35</ele>
        <time>2016-08-08T18:23:22.000Z</time>
      </trkpt>
      <trkpt lat="48.85437" lon="2.35513">
        <ele>35.799999237061</ele>
        <time>2016-08-08T18:23:27.000Z</time>
      </trkpt>
      <trkpt lat="48.85429" lon="2.35538">
        <ele>37.400001525879</ele>
        <time>2016-08-08T18:23:31.000Z</time>
      </trkpt>
      <trkpt lat="48.85419" lon="2.35564">
        <ele>39</ele>
        <time>2016-08-08T18:23:36.000Z</time>
      </trkpt>
      <trkpt lat="48.8541" lon="2.35594">
        <ele>38</ele>
        <time>2016-08-08T18:23:41.000Z</time>
      </trkpt>
      <trkpt lat="48.85402" lon="2.35619">
        <ele>38.400001525879</ele>
        <time>2016-08-08T18:23:45.000Z</time>
      </trkpt>
      <trkpt lat="48.85389" lon="2.35648">
        <ele>39</ele>
        <time>2016-08-08T18:23:50.000Z</time>
      </trkpt>
      <trkpt lat="48.85382" lon="2.35676">
        <ele>39.400001525879</ele>
        <time>2016-08-08T18:23:54.000Z</time>
      </trkpt>
      <trkpt lat="48.8538" lon="2.35689">
        <ele>39.200000762939</ele>
        <time>2016-08-08T18:23:56.000Z</time>
      </trkpt>
      <trkpt lat="48.85375" lon="2.35707">
        <ele>39</ele>
        <time>2016-08-08T18:23:59.000Z</time>
      </trkpt>
      <trkpt lat="48.85365" lon="2.35734">
        <ele>38.400001525879</ele>
        <time>2016-08-08T18:24:04.000Z</time>
      </trkpt>
      <trkpt lat="48.85349" lon="2.3576">
        <ele>37.799999237061</ele>
        <time>2016-08-08T18:24:08.000Z</time>
      </trkpt>
      <trkpt lat="48.85345" lon="2.35769">
        <ele>37.799999237061</ele>
        <time>2016-08-08T18:24:10.000Z</time>
      </trkpt>
      <trkpt lat="48.85332" lon="2.3579">
        <ele>37.400001525879</ele>
        <time>2016-08-08T18:24:15.000Z</time>
      </trkpt>
      <trkpt lat="48.85323" lon="2.35819">
        <ele>36.799999237061</ele>
        <time>2016-08-08T18:24:20.000Z</time>
      </trkpt>
      <trkpt lat="48.85313" lon="2.35848">
        <ele>36.400001525879</ele>
        <time>2016-08-08T18:24:24.000Z</time>
      </trkpt>
      <trkpt lat="48.85306" lon="2.35871">
        <ele>36.400001525879</ele>
        <time>2016-08-08T18:24:27.000Z</time>
      </trkpt>
      <trkpt lat="48.85295" lon="2.359">
        <ele>36.799999237061</ele>
        <time>2016-08-08T18:24:31.000Z</time>
      </trkpt>
      <trkpt lat="48.85286" lon="2.35924">
        <ele>37.200000762939</ele>
        <time>2016-08-08T18:24:34.000Z</time>
      </trkpt>
      <trkpt lat="48.85273" lon="2.35954">
        <ele>38</ele>
        <time>2016-08-08T18:24:38.000Z</time>
      </trkpt>
      <trkpt lat="48.85269" lon="2.3597">
        <ele>38.599998474121</ele>
        <time>2016-08-08T18:24:40.000Z</time>
      </trkpt>
      <trkpt lat="48.85259" lon="2.36001">
        <ele>38.599998474121</ele>
        <time>2016-08-08T18:24:44.000Z</time>
      </trkpt>
      <trkpt lat="48.85255" lon="2.36007">
        <ele>38.599998474121</ele>
        <time>2016-08-08T18:24:45.000Z</time>
      </trkpt>
      <trkpt lat="48.85247" lon="2.36036">
        <ele>39</ele>
        <time>2016-08-08T18:24:49.000Z</time>
      </trkpt>
      <trkpt lat="48.85243" lon="2.3605">
        <ele>39.200000762939</ele>
        <time>2016-08-08T18:24:51.000Z</time>
      </trkpt>
      <trkpt lat="48.85234" lon="2.36078">
        <ele>40.400001525879</ele>
        <time>2016-08-08T18:24:55.000Z</time>
      </trkpt>
      <trkpt lat="48.85228" lon="2.36089">
        <ele>40.799999237061</ele>
        <time>2016-08-08T18:24:57.000Z</time>
      </trkpt>
      <trkpt lat="48.85213" lon="2.36112">
        <ele>41.400001525879</ele>
        <time>2016-08-08T18:25:01.000Z</time>
      </trkpt>
      <trkpt lat="48.85197" lon="2.36129">
        <ele>41.799999237061</ele>
        <time>2016-08-08T18:25:05.000Z</time>
      </trkpt>
      <trkpt lat="48.85177" lon="2.36138">
        <ele>41.599998474121</ele>
        <time>2016-08-08T18:25:09.000Z</time>
      </trkpt>
      <trkpt lat="48.85172" lon="2.36139">
        <ele>41.400001525879</ele>
        <time>2016-08-08T18:25:10.000Z</time>
      </trkpt>
      <trkpt lat="48.85155" lon="2.3614">
        <ele>40.200000762939</ele>
        <time>2016-08-08T18:25:13.000Z</time>
      </trkpt>
      <trkpt lat="48.85136" lon="2.36143">
        <ele>38.400001525879</ele>
        <time>2016-08-08T18:25:17.000Z</time>
      </trkpt>
      <trkpt lat="48.85123" lon="2.36142">
        <ele>37.200000762939</ele>
        <time>2016-08-08T18:25:20.000Z</time>
      </trkpt>
      <trkpt lat="48.85104" lon="2.36141">
        <ele>35.599998474121</ele>
        <time>2016-08-08T18:25:23.000Z</time>
      </trkpt>
      <trkpt lat="48.85101" lon="2.3614">
        <ele>35.599998474121</ele>
        <time>2016-08-08T18:25:24.000Z</time>
      </trkpt>
      <trkpt lat="48.85091" lon="2.36135">
        <ele>35.599998474121</ele>
        <time>2016-08-08T18:25:27.000Z</time>
      </trkpt>
      <trkpt lat="48.85079" lon="2.36138">
        <ele>35.599998474121</ele>
        <time>2016-08-08T18:25:31.000Z</time>
      </trkpt>
      <trkpt lat="48.85075" lon="2.36139">
        <ele>35.799999237061</ele>
        <time>2016-08-08T18:25:32.000Z</time>
      </trkpt>
      <trkpt lat="48.85053" lon="2.36142">
        <ele>36.599998474121</ele>
        <time>2016-08-08T18:25:37.000Z</time>
      </trkpt>
      <trkpt lat="48.85043" lon="2.36143">
        <ele>37</ele>
        <time>2016-08-08T18:25:39.000Z</time>
      </trkpt>
      <trkpt lat="48.85023" lon="2.36147">
        <ele>37.799999237061</ele>
        <time>2016-08-08T18:25:43.000Z</time>
      </trkpt>
      <trkpt lat="48.8501" lon="2.36147">
        <ele>37.400001525879</ele>
        <time>2016-08-08T18:25:46.000Z</time>
      </trkpt>
      <trkpt lat="48.84989" lon="2.36153">
        <ele>38.599998474121</ele>
        <time>2016-08-08T18:25:50.000Z</time>
      </trkpt>
      <trkpt lat="48.84985" lon="2.36155">
        <ele>39</ele>
        <time>2016-08-08T18:25:51.000Z</time>
      </trkpt>
      <trkpt lat="48.84982" lon="2.36158">
        <ele>39.400001525879</ele>
        <time>2016-08-08T18:25:52.000Z</time>
      </trkpt>
      <trkpt lat="48.84992" lon="2.36184">
        <ele>39</ele>
        <time>2016-08-08T18:25:57.000Z</time>
      </trkpt>
      <trkpt lat="48.85006" lon="2.36211">
        <ele>37.599998474121</ele>
        <time>2016-08-08T18:26:02.000Z</time>
      </trkpt>
      <trkpt lat="48.85018" lon="2.36236">
        <ele>36.599998474121</ele>
        <time>2016-08-08T18:26:06.000Z</time>
      </trkpt>
      <trkpt lat="48.85027" lon="2.36252">
        <ele>36.200000762939</ele>
        <time>2016-08-08T18:26:09.000Z</time>
      </trkpt>
      <trkpt lat="48.85036" lon="2.36266">
        <ele>36.400001525879</ele>
        <time>2016-08-08T18:26:12.000Z</time>
      </trkpt>
      <trkpt lat="48.85039" lon="2.36274">
        <ele>36.400001525879</ele>
        <time>2016-08-08T18:26:14.000Z</time>
      </trkpt>
      <trkpt lat="48.85044" lon="2.36282">
        <ele>36.599998474121</ele>
        <time>2016-08-08T18:26:17.000Z</time>
      </trkpt>
      <trkpt lat="48.85036" lon="2.36306">
        <ele>36</ele>
        <time>2016-08-08T18:26:23.000Z</time>
      </trkpt>
      <trkpt lat="48.8502" lon="2.3633">
        <ele>35.200000762939</ele>
        <time>2016-08-08T18:26:29.000Z</time>
      </trkpt>
      <trkpt lat="48.85003" lon="2.36345">
        <ele>36.799999237061</ele>
        <time>2016-08-08T18:26:33.000Z</time>
      </trkpt>
      <trkpt lat="48.84984" lon="2.36355">
        <ele>38.400001525879</ele>
        <time>2016-08-08T18:26:37.000Z</time>
      </trkpt>
      <trkpt lat="48.84968" lon="2.36377">
        <ele>39.599998474121</ele>
        <time>2016-08-08T18:26:42.000Z</time>
      </trkpt>
      <trkpt lat="48.84967" lon="2.36408">
        <ele>39.599998474121</ele>
        <time>2016-08-08T18:26:47.000Z</time>
      </trkpt>
      <trkpt lat="48.8497" lon="2.36421">
        <ele>39.799999237061</ele>
        <time>2016-08-08T18:26:49.000Z</time>
      </trkpt>
      <trkpt lat="48.84975" lon="2.36449">
        <ele>40.799999237061</ele>
        <time>2016-08-08T18:26:54.000Z</time>
      </trkpt>
      <trkpt lat="48.84973" lon="2.36477">
        <ele>41.799999237061</ele>
        <time>2016-08-08T18:26:58.000Z</time>
      </trkpt>
      <trkpt lat="48.8497" lon="2.36492">
        <ele>42.400001525879</ele>
        <time>2016-08-08T18:27:00.000Z</time>
      </trkpt>
      <trkpt lat="48.84967" lon="2.36521">
        <ele>43</ele>
        <time>2016-08-08T18:27:04.000Z</time>
      </trkpt>
      <trkpt lat="48.84965" lon="2.36549">
        <ele>44.200000762939</ele>
        <time>2016-08-08T18:27:08.000Z</time>
      </trkpt>
      <trkpt lat="48.84958" lon="2.36582">
        <ele>46.200000762939</ele>
        <time>2016-08-08T18:27:13.000Z</time>
      </trkpt>
      <trkpt lat="48.84953" lon="2.36614">
        <ele>44.799999237061</ele>
        <time>2016-08-08T18:27:17.000Z</time>
      </trkpt>
      <trkpt lat="48.84949" lon="2.36644">
        <ele>41.200000762939</ele>
        <time>2016-08-08T18:27:21.000Z</time>
      </trkpt>
      <trkpt lat="48.84944" lon="2.36655">
        <ele>39.400001525879</ele>
        <time>2016-08-08T18:27:23.000Z</time>
      </trkpt>
      <trkpt lat="48.84934" lon="2.36659">
        <ele>38.400001525879</ele>
        <time>2016-08-08T18:27:49.000Z</time>
      </trkpt>
      <trkpt lat="48.84932" lon="2.36664">
        <ele>38</ele>
        <time>2016-08-08T18:27:51.000Z</time>
      </trkpt>
      <trkpt lat="48.84929" lon="2.36683">
        <ele>37.200000762939</ele>
        <time>2016-08-08T18:27:56.000Z</time>
      </trkpt>
      <trkpt lat="48.84925" lon="2.36712">
        <ele>36.200000762939</ele>
        <time>2016-08-08T18:28:03.000Z</time>
      </trkpt>
      <trkpt lat="48.84919" lon="2.36741">
        <ele>35.799999237061</ele>
        <time>2016-08-08T18:28:10.000Z</time>
      </trkpt>
      <trkpt lat="48.84914" lon="2.36767">
        <ele>38.200000762939</ele>
        <time>2016-08-08T18:28:18.000Z</time>
      </trkpt>
      <trkpt lat="48.84913" lon="2.36776">
        <ele>39</ele>
        <time>2016-08-08T18:28:21.000Z</time>
      </trkpt>
      <trkpt lat="48.84908" lon="2.36788">
        <ele>40.400001525879</ele>
        <time>2016-08-08T18:28:28.000Z</time>
      </trkpt>
      <trkpt lat="48.84893" lon="2.36803">
        <ele>40.599998474121</ele>
        <time>2016-08-08T18:28:52.000Z</time>
      </trkpt>
      <trkpt lat="48.84875" lon="2.36796">
        <ele>39.599998474121</ele>
        <time>2016-08-08T18:28:57.000Z</time>
      </trkpt>
      <trkpt lat="48.84856" lon="2.36787">
        <ele>38.599998474121</ele>
        <time>2016-08-08T18:29:02.000Z</time>
      </trkpt>
      <trkpt lat="48.84837" lon="2.36778">
        <ele>37.599998474121</ele>
        <time>2016-08-08T18:29:06.000Z</time>
      </trkpt>
      <trkpt lat="48.84816" lon="2.36782">
        <ele>36.200000762939</ele>
        <time>2016-08-08T18:29:11.000Z</time>
      </trkpt>
      <trkpt lat="48.84802" lon="2.36802">
        <ele>37.200000762939</ele>
        <time>2016-08-08T18:29:15.000Z</time>
      </trkpt>
      <trkpt lat="48.84786" lon="2.36826">
        <ele>39.200000762939</ele>
        <time>2016-08-08T18:29:19.000Z</time>
      </trkpt>
      <trkpt lat="48.84771" lon="2.36842">
        <ele>40.200000762939</ele>
        <time>2016-08-08T18:29:22.000Z</time>
      </trkpt>
      <trkpt lat="48.84755" lon="2.36856">
        <ele>40.799999237061</ele>
        <time>2016-08-08T18:29:25.000Z</time>
      </trkpt>
      <trkpt lat="48.84735" lon="2.36875">
        <ele>41.599998474121</ele>
        <time>2016-08-08T18:29:29.000Z</time>
      </trkpt>
      <trkpt lat="48.84717" lon="2.36898">
        <ele>42.200000762939</ele>
        <time>2016-08-08T18:29:33.000Z</time>
      </trkpt>
      <trkpt lat="48.84713" lon="2.36904">
        <ele>42.400001525879</ele>
        <time>2016-08-08T18:29:34.000Z</time>
      </trkpt>
      <trkpt lat="48.84697" lon="2.36927">
        <ele>43</ele>
        <time>2016-08-08T18:29:38.000Z</time>
      </trkpt>
      <trkpt lat="48.8469" lon="2.36939">
        <ele>43</ele>
        <time>2016-08-08T18:29:40.000Z</time>
      </trkpt>
      <trkpt lat="48.84677" lon="2.36958">
        <ele>43</ele>
        <time>2016-08-08T18:29:44.000Z</time>
      </trkpt>
      <trkpt lat="48.84664" lon="2.36978">
        <ele>43</ele>
        <time>2016-08-08T18:29:48.000Z</time>
      </trkpt>
      <trkpt lat="48.84654" lon="2.36992">
        <ele>42.599998474121</ele>
        <time>2016-08-08T18:29:51.000Z</time>
      </trkpt>
      <trkpt lat="48.84638" lon="2.37012">
        <ele>42.200000762939</ele>
        <time>2016-08-08T18:29:55.000Z</time>
      </trkpt>
      <trkpt lat="48.84633" lon="2.37017">
        <ele>42.200000762939</ele>
        <time>2016-08-08T18:29:56.000Z</time>
      </trkpt>
      <trkpt lat="48.84617" lon="2.37034">
        <ele>42.400001525879</ele>
        <time>2016-08-08T18:30:00.000Z</time>
      </trkpt>
      <trkpt lat="48.84601" lon="2.37051">
        <ele>42.400001525879</ele>
        <time>2016-08-08T18:30:04.000Z</time>
      </trkpt>
      <trkpt lat="48.8459" lon="2.37067">
        <ele>42</ele>
        <time>2016-08-08T18:30:08.000Z</time>
      </trkpt>
      <trkpt lat="48.84582" lon="2.37084">
        <ele>41.799999237061</ele>
        <time>2016-08-08T18:30:12.000Z</time>
      </trkpt>
      <trkpt lat="48.84566" lon="2.37095">
        <ele>40.799999237061</ele>
        <time>2016-08-08T18:30:17.000Z</time>
      </trkpt>
      <trkpt lat="48.84557" lon="2.37102">
        <ele>40.200000762939</ele>
        <time>2016-08-08T18:30:20.000Z</time>
      </trkpt>
      <trkpt lat="48.8455" lon="2.37106">
        <ele>39.799999237061</ele>
        <time>2016-08-08T18:30:23.000Z</time>
      </trkpt>
      <trkpt lat="48.84546" lon="2.37127">
        <ele>40.400001525879</ele>
        <time>2016-08-08T18:30:33.000Z</time>
      </trkpt>
      <trkpt lat="48.8455" lon="2.37146">
        <ele>41</ele>
        <time>2016-08-08T18:30:36.000Z</time>
      </trkpt>
      <trkpt lat="48.84554" lon="2.37174">
        <ele>41.799999237061</ele>
        <time>2016-08-08T18:30:40.000Z</time>
      </trkpt>
      <trkpt lat="48.84561" lon="2.37201">
        <ele>42.400001525879</ele>
        <time>2016-08-08T18:30:44.000Z</time>
      </trkpt>
      <trkpt lat="48.84565" lon="2.37232">
        <ele>42.599998474121</ele>
        <time>2016-08-08T18:30:49.000Z</time>
      </trkpt>
      <trkpt lat="48.84569" lon="2.37263">
        <ele>42.400001525879</ele>
        <time>2016-08-08T18:30:55.000Z</time>
      </trkpt>
      <trkpt lat="48.84576" lon="2.3729">
        <ele>42.200000762939</ele>
        <time>2016-08-08T18:31:00.000Z</time>
      </trkpt>
      <trkpt lat="48.84581" lon="2.37319">
        <ele>42.400001525879</ele>
        <time>2016-08-08T18:31:05.000Z</time>
      </trkpt>
      <trkpt lat="48.84586" lon="2.37352">
        <ele>41.599998474121</ele>
        <time>2016-08-08T18:31:10.000Z</time>
      </trkpt>
      <trkpt lat="48.84588" lon="2.37382">
        <ele>40</ele>
        <time>2016-08-08T18:31:15.000Z</time>
      </trkpt>
      <trkpt lat="48.84589" lon="2.37404">
        <ele>39.400001525879</ele>
        <time>2016-08-08T18:31:23.000Z</time>
      </trkpt>
      <trkpt lat="48.84589" lon="2.37419">
        <ele>39.799999237061</ele>
        <time>2016-08-08T18:31:42.000Z</time>
      </trkpt>
      <trkpt lat="48.84593" lon="2.37447">
        <ele>40</ele>
        <time>2016-08-08T18:31:49.000Z</time>
      </trkpt>
      <trkpt lat="48.84597" lon="2.37476">
        <ele>40.200000762939</ele>
        <time>2016-08-08T18:31:55.000Z</time>
      </trkpt>
      <trkpt lat="48.84601" lon="2.37509">
        <ele>40.599998474121</ele>
        <time>2016-08-08T18:32:01.000Z</time>
      </trkpt>
      <trkpt lat="48.84606" lon="2.3754">
        <ele>41</ele>
        <time>2016-08-08T18:32:06.000Z</time>
      </trkpt>
      <trkpt lat="48.84611" lon="2.37574">
        <ele>41.799999237061</ele>
        <time>2016-08-08T18:32:11.000Z</time>
      </trkpt>
      <trkpt lat="48.8462" lon="2.37603">
        <ele>42</ele>
        <time>2016-08-08T18:32:15.000Z</time>
      </trkpt>
      <trkpt lat="48.84623" lon="2.3763">
        <ele>41.599998474121</ele>
        <time>2016-08-08T18:32:19.000Z</time>
      </trkpt>
      <trkpt lat="48.84627" lon="2.3766">
        <ele>41.400001525879</ele>
        <time>2016-08-08T18:32:23.000Z</time>
      </trkpt>
      <trkpt lat="48.84631" lon="2.37688">
        <ele>41.599998474121</ele>
        <time>2016-08-08T18:32:27.000Z</time>
      </trkpt>
      <trkpt lat="48.84634" lon="2.37706">
        <ele>41.599998474121</ele>
        <time>2016-08-08T18:32:30.000Z</time>
      </trkpt>
      <trkpt lat="48.84637" lon="2.37731">
        <ele>41.799999237061</ele>
        <time>2016-08-08T18:32:35.000Z</time>
      </trkpt>
      <trkpt lat="48.84638" lon="2.37752">
        <ele>41.799999237061</ele>
        <time>2016-08-08T18:32:40.000Z</time>
      </trkpt>
      <trkpt lat="48.8463" lon="2.37773">
        <ele>41.599998474121</ele>
        <time>2016-08-08T18:32:45.000Z</time>
      </trkpt>
      <trkpt lat="48.84615" lon="2.37794">
        <ele>40.400001525879</ele>
        <time>2016-08-08T18:32:50.000Z</time>
      </trkpt>
      <trkpt lat="48.84601" lon="2.37818">
        <ele>39.200000762939</ele>
        <time>2016-08-08T18:32:54.000Z</time>
      </trkpt>
      <trkpt lat="48.84588" lon="2.3784">
        <ele>38.400001525879</ele>
        <time>2016-08-08T18:32:58.000Z</time>
      </trkpt>
      <trkpt lat="48.84573" lon="2.37863">
        <ele>37.400001525879</ele>
        <time>2016-08-08T18:33:02.000Z</time>
      </trkpt>
      <trkpt lat="48.84557" lon="2.37889">
        <ele>37.200000762939</ele>
        <time>2016-08-08T18:33:06.000Z</time>
      </trkpt>
      <trkpt lat="48.84545" lon="2.3791">
        <ele>37.400001525879</ele>
        <time>2016-08-08T18:33:09.000Z</time>
      </trkpt>
      <trkpt lat="48.84534" lon="2.37935">
        <ele>38.200000762939</ele>
        <time>2016-08-08T18:33:12.000Z</time>
      </trkpt>
      <trkpt lat="48.84526" lon="2.37962">
        <ele>38.599998474121</ele>
        <time>2016-08-08T18:33:15.000Z</time>
      </trkpt>
      <trkpt lat="48.84518" lon="2.3799">
        <ele>38.799999237061</ele>
        <time>2016-08-08T18:33:18.000Z</time>
      </trkpt>
      <trkpt lat="48.84509" lon="2.38016">
        <ele>39.200000762939</ele>
        <time>2016-08-08T18:33:21.000Z</time>
      </trkpt>
      <trkpt lat="48.84495" lon="2.38036">
        <ele>39.200000762939</ele>
        <time>2016-08-08T18:33:24.000Z</time>
      </trkpt>
      <trkpt lat="48.84478" lon="2.38061">
        <ele>38.799999237061</ele>
        <time>2016-08-08T18:33:28.000Z</time>
      </trkpt>
      <trkpt lat="48.84464" lon="2.38083">
        <ele>38.200000762939</ele>
        <time>2016-08-08T18:33:31.000Z</time>
      </trkpt>
      <trkpt lat="48.84453" lon="2.38107">
        <ele>38.400001525879</ele>
        <time>2016-08-08T18:33:35.000Z</time>
      </trkpt>
      <trkpt lat="48.8444" lon="2.38129">
        <ele>37.599998474121</ele>
        <time>2016-08-08T18:33:40.000Z</time>
      </trkpt>
      <trkpt lat="48.84436" lon="2.38136">
        <ele>38</ele>
        <time>2016-08-08T18:33:42.000Z</time>
      </trkpt>
      <trkpt lat="48.84431" lon="2.38144">
        <ele>38.400001525879</ele>
        <time>2016-08-08T18:33:44.000Z</time>
      </trkpt>
      <trkpt lat="48.84423" lon="2.38164">
        <ele>39.200000762939</ele>
        <time>2016-08-08T18:33:49.000Z</time>
      </trkpt>
      <trkpt lat="48.84411" lon="2.38188">
        <ele>40.599998474121</ele>
        <time>2016-08-08T18:33:55.000Z</time>
      </trkpt>
      <trkpt lat="48.84397" lon="2.38213">
        <ele>42</ele>
        <time>2016-08-08T18:33:59.000Z</time>
      </trkpt>
      <trkpt lat="48.84382" lon="2.3824">
        <ele>42.799999237061</ele>
        <time>2016-08-08T18:34:03.000Z</time>
      </trkpt>
      <trkpt lat="48.84367" lon="2.38266">
        <ele>43.400001525879</ele>
        <time>2016-08-08T18:34:07.000Z</time>
      </trkpt>
      <trkpt lat="48.84355" lon="2.38289">
        <ele>42</ele>
        <time>2016-08-08T18:34:10.000Z</time>
      </trkpt>
      <trkpt lat="48.84341" lon="2.38316">
        <ele>40.599998474121</ele>
        <time>2016-08-08T18:34:13.000Z</time>
      </trkpt>
      <trkpt lat="48.84329" lon="2.3835">
        <ele>39</ele>
        <time>2016-08-08T18:34:16.000Z</time>
      </trkpt>
      <trkpt lat="48.84319" lon="2.38372">
        <ele>38.200000762939</ele>
        <time>2016-08-08T18:34:18.000Z</time>
      </trkpt>
      <trkpt lat="48.84305" lon="2.38405">
        <ele>39</ele>
        <time>2016-08-08T18:34:21.000Z</time>
      </trkpt>
      <trkpt lat="48.8429" lon="2.38438">
        <ele>39.799999237061</ele>
        <time>2016-08-08T18:34:24.000Z</time>
      </trkpt>
      <trkpt lat="48.84274" lon="2.3847">
        <ele>40</ele>
        <time>2016-08-08T18:34:27.000Z</time>
      </trkpt>
      <trkpt lat="48.84258" lon="2.38502">
        <ele>40</ele>
        <time>2016-08-08T18:34:30.000Z</time>
      </trkpt>
      <trkpt lat="48.84251" lon="2.38509">
        <ele>40.200000762939</ele>
        <time>2016-08-08T18:34:31.000Z</time>
      </trkpt>
      <trkpt lat="48.84235" lon="2.38541">
        <ele>40.599998474121</ele>
        <time>2016-08-08T18:34:34.000Z</time>
      </trkpt>
      <trkpt lat="48.84222" lon="2.38575">
        <ele>42.599998474121</ele>
        <time>2016-08-08T18:34:37.000Z</time>
      </trkpt>
      <trkpt lat="48.84206" lon="2.38608">
        <ele>44.599998474121</ele>
        <time>2016-08-08T18:34:40.000Z</time>
      </trkpt>
      <trkpt lat="48.84192" lon="2.38641">
        <ele>44.799999237061</ele>
        <time>2016-08-08T18:34:43.000Z</time>
      </trkpt>
      <trkpt lat="48.84178" lon="2.38671">
        <ele>45</ele>
        <time>2016-08-08T18:34:46.000Z</time>
      </trkpt>
      <trkpt lat="48.84166" lon="2.38697">
        <ele>44.799999237061</ele>
        <time>2016-08-08T18:34:49.000Z</time>
      </trkpt>
      <trkpt lat="48.84158" lon="2.38718">
        <ele>44.400001525879</ele>
        <time>2016-08-08T18:34:52.000Z</time>
      </trkpt>
      <trkpt lat="48.84154" lon="2.38723">
        <ele>44.599998474121</ele>
        <time>2016-08-08T18:34:54.000Z</time>
      </trkpt>
      <trkpt lat="48.84152" lon="2.38727">
        <ele>44.599998474121</ele>
        <time>2016-08-08T18:34:57.000Z</time>
      </trkpt>
      <trkpt lat="48.84146" lon="2.38727">
        <ele>44.799999237061</ele>
        <time>2016-08-08T18:35:04.000Z</time>
      </trkpt>
      <trkpt lat="48.84135" lon="2.3875">
        <ele>45</ele>
        <time>2016-08-08T18:35:11.000Z</time>
      </trkpt>
      <trkpt lat="48.84129" lon="2.38775">
        <ele>45</ele>
        <time>2016-08-08T18:35:18.000Z</time>
      </trkpt>
      <trkpt lat="48.84122" lon="2.38784">
        <ele>45.400001525879</ele>
        <time>2016-08-08T18:35:23.000Z</time>
      </trkpt>
      <trkpt lat="48.84106" lon="2.38781">
        <ele>46.400001525879</ele>
        <time>2016-08-08T18:35:49.000Z</time>
      </trkpt>
      <trkpt lat="48.84102" lon="2.38779">
        <ele>46.200000762939</ele>
        <time>2016-08-08T18:36:05.000Z</time>
      </trkpt>
      <trkpt lat="48.84097" lon="2.38773">
        <ele>45.799999237061</ele>
        <time>2016-08-08T18:36:11.000Z</time>
      </trkpt>
      <trkpt lat="48.84083" lon="2.38753">
        <ele>45</ele>
        <time>2016-08-08T18:36:28.000Z</time>
      </trkpt>
      <trkpt lat="48.84079" lon="2.38751">
        <ele>44.799999237061</ele>
        <time>2016-08-08T18:36:31.000Z</time>
      </trkpt>
      <trkpt lat="48.84077" lon="2.38756">
        <ele>44.799999237061</ele>
        <time>2016-08-08T18:36:36.000Z</time>
      </trkpt>
      <trkpt lat="48.84071" lon="2.38761">
        <ele>44.400001525879</ele>
        <time>2016-08-08T18:36:40.000Z</time>
      </trkpt>
      <trkpt lat="48.84057" lon="2.38771">
        <ele>44</ele>
        <time>2016-08-08T18:36:44.000Z</time>
      </trkpt>
      <trkpt lat="48.84037" lon="2.38778">
        <ele>43.400001525879</ele>
        <time>2016-08-08T18:36:49.000Z</time>
      </trkpt>
      <trkpt lat="48.84033" lon="2.38785">
        <ele>43.599998474121</ele>
        <time>2016-08-08T18:36:50.000Z</time>
      </trkpt>
      <trkpt lat="48.84018" lon="2.38812">
        <ele>44.400001525879</ele>
        <time>2016-08-08T18:36:54.000Z</time>
      </trkpt>
      <trkpt lat="48.84002" lon="2.38833">
        <ele>45.400001525879</ele>
        <time>2016-08-08T18:36:57.000Z</time>
      </trkpt>
      <trkpt lat="48.83982" lon="2.38853">
        <ele>46.799999237061</ele>
        <time>2016-08-08T18:37:00.000Z</time>
      </trkpt>
      <trkpt lat="48.83962" lon="2.3887">
        <ele>48</ele>
        <time>2016-08-08T18:37:03.000Z</time>
      </trkpt>
      <trkpt lat="48.83941" lon="2.38877">
        <ele>48.599998474121</ele>
        <time>2016-08-08T18:37:06.000Z</time>
      </trkpt>
      <trkpt lat="48.83922" lon="2.38888">
        <ele>48.599998474121</ele>
        <time>2016-08-08T18:37:09.000Z</time>
      </trkpt>
      <trkpt lat="48.83919" lon="2.38892">
        <ele>48.599998474121</ele>
        <time>2016-08-08T18:37:10.000Z</time>
      </trkpt>
      <trkpt lat="48.83904" lon="2.38899">
        <ele>48</ele>
        <time>2016-08-08T18:37:15.000Z</time>
      </trkpt>
      <trkpt lat="48.83905" lon="2.38903">
        <ele>48.200000762939</ele>
        <time>2016-08-08T18:37:16.000Z</time>
      </trkpt>
      <trkpt lat="48.83905" lon="2.38904">
        <ele>48.200000762939</ele>
        <time>2016-08-08T18:37:18.000Z</time>
      </trkpt>
      <trkpt lat="48.83895" lon="2.38922">
        <ele>47.599998474121</ele>
        <time>2016-08-08T18:37:35.000Z</time>
      </trkpt>
      <trkpt lat="48.8388" lon="2.38943">
        <ele>46.200000762939</ele>
        <time>2016-08-08T18:37:41.000Z</time>
      </trkpt>
      <trkpt lat="48.83864" lon="2.38965">
        <ele>45.799999237061</ele>
        <time>2016-08-08T18:37:46.000Z</time>
      </trkpt>
      <trkpt lat="48.83846" lon="2.38985">
        <ele>45.200000762939</ele>
        <time>2016-08-08T18:37:50.000Z</time>
      </trkpt>
      <trkpt lat="48.8384" lon="2.38988">
        <ele>44.799999237061</ele>
        <time>2016-08-08T18:37:51.000Z</time>
      </trkpt>
      <trkpt lat="48.83819" lon="2.38999">
        <ele>43.400001525879</ele>
        <time>2016-08-08T18:37:54.000Z</time>
      </trkpt>
      <trkpt lat="48.83799" lon="2.39016">
        <ele>41.400001525879</ele>
        <time>2016-08-08T18:37:57.000Z</time>
      </trkpt>
      <trkpt lat="48.83793" lon="2.39026">
        <ele>41.200000762939</ele>
        <time>2016-08-08T18:37:58.000Z</time>
      </trkpt>
      <trkpt lat="48.83777" lon="2.39055">
        <ele>41.400001525879</ele>
        <time>2016-08-08T18:38:00.000Z</time>
      </trkpt>
      <trkpt lat="48.8376" lon="2.39079">
        <ele>42</ele>
        <time>2016-08-08T18:38:03.000Z</time>
      </trkpt>
      <trkpt lat="48.83746" lon="2.39099">
        <ele>42.400001525879</ele>
        <time>2016-08-08T18:38:06.000Z</time>
      </trkpt>
      <trkpt lat="48.83736" lon="2.39111">
        <ele>42.799999237061</ele>
        <time>2016-08-08T18:38:10.000Z</time>
      </trkpt>
      <trkpt lat="48.83727" lon="2.39086">
        <ele>42.200000762939</ele>
        <time>2016-08-08T18:38:15.000Z</time>
      </trkpt>
      <trkpt lat="48.83721" lon="2.39058">
        <ele>41.400001525879</ele>
        <time>2016-08-08T18:38:20.000Z</time>
      </trkpt>
      <trkpt lat="48.83716" lon="2.39043">
        <ele>41</ele>
        <time>2016-08-08T18:38:23.000Z</time>
      </trkpt>
      <trkpt lat="48.83714" lon="2.39021">
        <ele>40.599998474121</ele>
        <time>2016-08-08T18:38:28.000Z</time>
      </trkpt>
      <trkpt lat="48.83712" lon="2.39012">
        <ele>40.400001525879</ele>
        <time>2016-08-08T18:38:31.000Z</time>
      </trkpt>
      <trkpt lat="48.83719" lon="2.38999">
        <ele>40</ele>
        <time>2016-08-08T18:38:47.000Z</time>
      </trkpt>
      <trkpt lat="48.83718" lon="2.38994">
        <ele>39.799999237061</ele>
        <time>2016-08-08T18:38:52.000Z</time>
      </trkpt>
      <trkpt lat="48.83714" lon="2.38982">
        <ele>39.200000762939</ele>
        <time>2016-08-08T18:38:56.000Z</time>
      </trkpt>
      <trkpt lat="48.83689" lon="2.38899">
        <ele>36</ele>
        <time>2016-08-08T18:39:11.000Z</time>
      </trkpt>
      <trkpt lat="48.83695" lon="2.3887">
        <ele>36.200000762939</ele>
        <time>2016-08-08T18:39:17.000Z</time>
      </trkpt>
      <trkpt lat="48.83688" lon="2.38832">
        <ele>36</ele>
        <time>2016-08-08T18:39:22.000Z</time>
      </trkpt>
      <trkpt lat="48.83684" lon="2.38821">
        <ele>36</ele>
        <time>2016-08-08T18:39:23.000Z</time>
      </trkpt>
      <trkpt lat="48.83687" lon="2.38814">
        <ele>35.799999237061</ele>
        <time>2016-08-08T18:39:24.000Z</time>
      </trkpt>
      <trkpt lat="48.8369" lon="2.38798">
        <ele>35.599998474121</ele>
        <time>2016-08-08T18:39:27.000Z</time>
      </trkpt>
      <trkpt lat="48.8369" lon="2.38769">
        <ele>35.200000762939</ele>
        <time>2016-08-08T18:39:34.000Z</time>
      </trkpt>
      <trkpt lat="48.83689" lon="2.38765">
        <ele>35.200000762939</ele>
        <time>2016-08-08T18:39:35.000Z</time>
      </trkpt>
      <trkpt lat="48.83678" lon="2.38744">
        <ele>35.200000762939</ele>
        <time>2016-08-08T18:39:40.000Z</time>
      </trkpt>
      <trkpt lat="48.83656" lon="2.38717">
        <ele>35.799999237061</ele>
        <time>2016-08-08T18:39:43.000Z</time>
      </trkpt>
      <trkpt lat="48.8364" lon="2.38693">
        <ele>36.200000762939</ele>
        <time>2016-08-08T18:39:46.000Z</time>
      </trkpt>
      <trkpt lat="48.83626" lon="2.38679">
        <ele>36.599998474121</ele>
        <time>2016-08-08T18:39:49.000Z</time>
      </trkpt>
      <trkpt lat="48.83614" lon="2.3867">
        <ele>36.799999237061</ele>
        <time>2016-08-08T18:39:52.000Z</time>
      </trkpt>
      <trkpt lat="48.83608" lon="2.38662">
        <ele>37</ele>
        <time>2016-08-08T18:39:54.000Z</time>
      </trkpt>
      <trkpt lat="48.83593" lon="2.38641">
        <ele>37.799999237061</ele>
        <time>2016-08-08T18:39:58.000Z</time>
      </trkpt>
      <trkpt lat="48.83578" lon="2.38619">
        <ele>38.799999237061</ele>
        <time>2016-08-08T18:40:02.000Z</time>
      </trkpt>
      <trkpt lat="48.83564" lon="2.38595">
        <ele>39.599998474121</ele>
        <time>2016-08-08T18:40:06.000Z</time>
      </trkpt>
      <trkpt lat="48.83547" lon="2.38569">
        <ele>40.599998474121</ele>
        <time>2016-08-08T18:40:10.000Z</time>
      </trkpt>
      <trkpt lat="48.83533" lon="2.38542">
        <ele>41.200000762939</ele>
        <time>2016-08-08T18:40:14.000Z</time>
      </trkpt>
      <trkpt lat="48.8352" lon="2.38521">
        <ele>41.599998474121</ele>
        <time>2016-08-08T18:40:17.000Z</time>
      </trkpt>
      <trkpt lat="48.83506" lon="2.38496">
        <ele>41.200000762939</ele>
        <time>2016-08-08T18:40:20.000Z</time>
      </trkpt>
      <trkpt lat="48.83492" lon="2.38468">
        <ele>39.200000762939</ele>
        <time>2016-08-08T18:40:23.000Z</time>
      </trkpt>
      <trkpt lat="48.83479" lon="2.38446">
        <ele>37.599998474121</ele>
        <time>2016-08-08T18:40:26.000Z</time>
      </trkpt>
      <trkpt lat="48.83464" lon="2.38421">
        <ele>36</ele>
        <time>2016-08-08T18:40:29.000Z</time>
      </trkpt>
      <trkpt lat="48.83449" lon="2.38393">
        <ele>35.799999237061</ele>
        <time>2016-08-08T18:40:32.000Z</time>
      </trkpt>
      <trkpt lat="48.83434" lon="2.38364">
        <ele>36</ele>
        <time>2016-08-08T18:40:35.000Z</time>
      </trkpt>
      <trkpt lat="48.8342" lon="2.38335">
        <ele>36.599998474121</ele>
        <time>2016-08-08T18:40:38.000Z</time>
      </trkpt>
      <trkpt lat="48.83408" lon="2.38307">
        <ele>35.400001525879</ele>
        <time>2016-08-08T18:40:41.000Z</time>
      </trkpt>
      <trkpt lat="48.83395" lon="2.38282">
        <ele>34.400001525879</ele>
        <time>2016-08-08T18:40:44.000Z</time>
      </trkpt>
      <trkpt lat="48.83388" lon="2.38267">
        <ele>33.599998474121</ele>
        <time>2016-08-08T18:40:46.000Z</time>
      </trkpt>
      <trkpt lat="48.83381" lon="2.38251">
        <ele>33.200000762939</ele>
        <time>2016-08-08T18:40:49.000Z</time>
      </trkpt>
      <trkpt lat="48.8338" lon="2.38239">
        <ele>32.799999237061</ele>
        <time>2016-08-08T18:40:52.000Z</time>
      </trkpt>
      <trkpt lat="48.8338" lon="2.3824">
        <ele>32.799999237061</ele>
        <time>2016-08-08T18:40:58.000Z</time>
      </trkpt>
      <trkpt lat="48.83379" lon="2.38239">
        <ele>32.599998474121</ele>
        <time>2016-08-08T18:40:59.000Z</time>
      </trkpt>
      <trkpt lat="48.83367" lon="2.38216">
        <ele>30.799999237061</ele>
        <time>2016-08-08T18:41:12.000Z</time>
      </trkpt>
      <trkpt lat="48.83353" lon="2.38197">
        <ele>29.39999961853</ele>
        <time>2016-08-08T18:41:19.000Z</time>
      </trkpt>
      <trkpt lat="48.8334" lon="2.38176">
        <ele>30.39999961853</ele>
        <time>2016-08-08T18:41:24.000Z</time>
      </trkpt>
      <trkpt lat="48.83327" lon="2.38152">
        <ele>30.39999961853</ele>
        <time>2016-08-08T18:41:29.000Z</time>
      </trkpt>
      <trkpt lat="48.83314" lon="2.38129">
        <ele>30</ele>
        <time>2016-08-08T18:41:34.000Z</time>
      </trkpt>
      <trkpt lat="48.83302" lon="2.38107">
        <ele>30</ele>
        <time>2016-08-08T18:41:39.000Z</time>
      </trkpt>
      <trkpt lat="48.83289" lon="2.38082">
        <ele>30.39999961853</ele>
        <time>2016-08-08T18:41:44.000Z</time>
      </trkpt>
      <trkpt lat="48.83274" lon="2.38056">
        <ele>34.200000762939</ele>
        <time>2016-08-08T18:41:49.000Z</time>
      </trkpt>
      <trkpt lat="48.83262" lon="2.38032">
        <ele>37.599998474121</ele>
        <time>2016-08-08T18:41:53.000Z</time>
      </trkpt>
      <trkpt lat="48.83249" lon="2.38008">
        <ele>41</ele>
        <time>2016-08-08T18:41:57.000Z</time>
      </trkpt>
      <trkpt lat="48.83237" lon="2.37986">
        <ele>43</ele>
        <time>2016-08-08T18:42:01.000Z</time>
      </trkpt>
      <trkpt lat="48.83231" lon="2.37971">
        <ele>43.799999237061</ele>
        <time>2016-08-08T18:42:48.000Z</time>
      </trkpt>
      <trkpt lat="48.83216" lon="2.37954">
        <ele>44.799999237061</ele>
        <time>2016-08-08T18:42:54.000Z</time>
      </trkpt>
      <trkpt lat="48.83204" lon="2.37933">
        <ele>46</ele>
        <time>2016-08-08T18:42:59.000Z</time>
      </trkpt>
      <trkpt lat="48.83191" lon="2.37911">
        <ele>46.799999237061</ele>
        <time>2016-08-08T18:43:04.000Z</time>
      </trkpt>
      <trkpt lat="48.83175" lon="2.37887">
        <ele>45.400001525879</ele>
        <time>2016-08-08T18:43:10.000Z</time>
      </trkpt>
      <trkpt lat="48.83162" lon="2.37858">
        <ele>43.599998474121</ele>
        <time>2016-08-08T18:43:14.000Z</time>
      </trkpt>
      <trkpt lat="48.83146" lon="2.37835">
        <ele>42</ele>
        <time>2016-08-08T18:43:18.000Z</time>
      </trkpt>
      <trkpt lat="48.83132" lon="2.37813">
        <ele>40.799999237061</ele>
        <time>2016-08-08T18:43:22.000Z</time>
      </trkpt>
      <trkpt lat="48.83125" lon="2.37801">
        <ele>40.200000762939</ele>
        <time>2016-08-08T18:43:25.000Z</time>
      </trkpt>
      <trkpt lat="48.83111" lon="2.37782">
        <ele>39</ele>
        <time>2016-08-08T18:43:30.000Z</time>
      </trkpt>
      <trkpt lat="48.83108" lon="2.37776">
        <ele>38.799999237061</ele>
        <time>2016-08-08T18:43:31.000Z</time>
      </trkpt>
      <trkpt lat="48.83096" lon="2.37753">
        <ele>38</ele>
        <time>2016-08-08T18:43:36.000Z</time>
      </trkpt>
      <trkpt lat="48.83083" lon="2.37736">
        <ele>38</ele>
        <time>2016-08-08T18:43:41.000Z</time>
      </trkpt>
      <trkpt lat="48.83069" lon="2.37716">
        <ele>38.400001525879</ele>
        <time>2016-08-08T18:43:50.000Z</time>
      </trkpt>
      <trkpt lat="48.83061" lon="2.37692">
        <ele>38.799999237061</ele>
        <time>2016-08-08T18:44:02.000Z</time>
      </trkpt>
      <trkpt lat="48.83052" lon="2.37667">
        <ele>39.400001525879</ele>
        <time>2016-08-08T18:44:13.000Z</time>
      </trkpt>
      <trkpt lat="48.83041" lon="2.37644">
        <ele>39</ele>
        <time>2016-08-08T18:44:20.000Z</time>
      </trkpt>
      <trkpt lat="48.83027" lon="2.37619">
        <ele>38.599998474121</ele>
        <time>2016-08-08T18:44:25.000Z</time>
      </trkpt>
      <trkpt lat="48.83016" lon="2.37594">
        <ele>38.400001525879</ele>
        <time>2016-08-08T18:44:29.000Z</time>
      </trkpt>
      <trkpt lat="48.83012" lon="2.37587">
        <ele>38.599998474121</ele>
        <time>2016-08-08T18:44:30.000Z</time>
      </trkpt>
      <trkpt lat="48.82995" lon="2.37562">
        <ele>40.400001525879</ele>
        <time>2016-08-08T18:44:34.000Z</time>
      </trkpt>
      <trkpt lat="48.82979" lon="2.37541">
        <ele>42.599998474121</ele>
        <time>2016-08-08T18:44:37.000Z</time>
      </trkpt>
      <trkpt lat="48.82962" lon="2.3752">
        <ele>44.599998474121</ele>
        <time>2016-08-08T18:44:40.000Z</time>
      </trkpt>
      <trkpt lat="48.82947" lon="2.37497">
        <ele>46.599998474121</ele>
        <time>2016-08-08T18:44:43.000Z</time>
      </trkpt>
      <trkpt lat="48.82933" lon="2.37474">
        <ele>49</ele>
        <time>2016-08-08T18:44:46.000Z</time>
      </trkpt>
      <trkpt lat="48.82923" lon="2.37454">
        <ele>50.599998474121</ele>
        <time>2016-08-08T18:44:48.000Z</time>
      </trkpt>
      <trkpt lat="48.82912" lon="2.37429">
        <ele>52.599998474121</ele>
        <time>2016-08-08T18:44:51.000Z</time>
      </trkpt>
      <trkpt lat="48.829" lon="2.37403">
        <ele>54</ele>
        <time>2016-08-08T18:44:54.000Z</time>
      </trkpt>
      <trkpt lat="48.82896" lon="2.37398">
        <ele>54</ele>
        <time>2016-08-08T18:44:55.000Z</time>
      </trkpt>
      <trkpt lat="48.82883" lon="2.37373">
        <ele>54.400001525879</ele>
        <time>2016-08-08T18:44:58.000Z</time>
      </trkpt>
      <trkpt lat="48.8287" lon="2.37352">
        <ele>54.799999237061</ele>
        <time>2016-08-08T18:45:01.000Z</time>
      </trkpt>
      <trkpt lat="48.82857" lon="2.37327">
        <ele>55</ele>
        <time>2016-08-08T18:45:04.000Z</time>
      </trkpt>
      <trkpt lat="48.82844" lon="2.37299">
        <ele>55</ele>
        <time>2016-08-08T18:45:08.000Z</time>
      </trkpt>
      <trkpt lat="48.8283" lon="2.37274">
        <ele>55.200000762939</ele>
        <time>2016-08-08T18:45:12.000Z</time>
      </trkpt>
      <trkpt lat="48.82817" lon="2.37246">
        <ele>55.400001525879</ele>
        <time>2016-08-08T18:45:16.000Z</time>
      </trkpt>
      <trkpt lat="48.82805" lon="2.37222">
        <ele>55.799999237061</ele>
        <time>2016-08-08T18:45:20.000Z</time>
      </trkpt>
      <trkpt lat="48.828" lon="2.37212">
        <ele>56</ele>
        <time>2016-08-08T18:45:22.000Z</time>
      </trkpt>
      <trkpt lat="48.82785" lon="2.37187">
        <ele>56.599998474121</ele>
        <time>2016-08-08T18:45:27.000Z</time>
      </trkpt>
      <trkpt lat="48.82772" lon="2.37165">
        <ele>57</ele>
        <time>2016-08-08T18:45:32.000Z</time>
      </trkpt>
      <trkpt lat="48.82772" lon="2.37161">
        <ele>57</ele>
        <time>2016-08-08T18:45:33.000Z</time>
      </trkpt>
      <trkpt lat="48.82777" lon="2.37131">
        <ele>56.799999237061</ele>
        <time>2016-08-08T18:45:52.000Z</time>
      </trkpt>
      <trkpt lat="48.82777" lon="2.37129">
        <ele>56.799999237061</ele>
        <time>2016-08-08T18:46:29.000Z</time>
      </trkpt>
      <trkpt lat="48.82774" lon="2.37123">
        <ele>57</ele>
        <time>2016-08-08T18:47:47.000Z</time>
      </trkpt>
      <trkpt lat="48.82779" lon="2.37119">
        <ele>56.599998474121</ele>
        <time>2016-08-08T18:48:32.000Z</time>
      </trkpt>
      <trkpt lat="48.82778" lon="2.37117">
        <ele>56.599998474121</ele>
        <time>2016-08-08T18:48:33.000Z</time>
      </trkpt>
      <trkpt lat="48.82776" lon="2.37087">
        <ele>56.799999237061</ele>
        <time>2016-08-08T18:48:42.000Z</time>
      </trkpt>
      <trkpt lat="48.8278" lon="2.37058">
        <ele>57.200000762939</ele>
        <time>2016-08-08T18:48:48.000Z</time>
      </trkpt>
      <trkpt lat="48.82786" lon="2.37025">
        <ele>57.599998474121</ele>
        <time>2016-08-08T18:48:53.000Z</time>
      </trkpt>
      <trkpt lat="48.82793" lon="2.36995">
        <ele>57.200000762939</ele>
        <time>2016-08-08T18:48:57.000Z</time>
      </trkpt>
      <trkpt lat="48.82798" lon="2.36965">
        <ele>57</ele>
        <time>2016-08-08T18:49:01.000Z</time>
      </trkpt>
      <trkpt lat="48.82796" lon="2.36933">
        <ele>57</ele>
        <time>2016-08-08T18:49:06.000Z</time>
      </trkpt>
      <trkpt lat="48.82802" lon="2.36924">
        <ele>56.599998474121</ele>
        <time>2016-08-08T18:49:08.000Z</time>
      </trkpt>
      <trkpt lat="48.82809" lon="2.36898">
        <ele>55.599998474121</ele>
        <time>2016-08-08T18:49:12.000Z</time>
      </trkpt>
      <trkpt lat="48.82812" lon="2.3687">
        <ele>54.599998474121</ele>
        <time>2016-08-08T18:49:16.000Z</time>
      </trkpt>
      <trkpt lat="48.82816" lon="2.36843">
        <ele>55.200000762939</ele>
        <time>2016-08-08T18:49:20.000Z</time>
      </trkpt>
      <trkpt lat="48.82825" lon="2.36812">
        <ele>54.599998474121</ele>
        <time>2016-08-08T18:49:25.000Z</time>
      </trkpt>
      <trkpt lat="48.82827" lon="2.36806">
        <ele>54.200000762939</ele>
        <time>2016-08-08T18:49:26.000Z</time>
      </trkpt>
      <trkpt lat="48.82829" lon="2.36792">
        <ele>53.400001525879</ele>
        <time>2016-08-08T18:49:28.000Z</time>
      </trkpt>
      <trkpt lat="48.82835" lon="2.36766">
        <ele>52.400001525879</ele>
        <time>2016-08-08T18:49:32.000Z</time>
      </trkpt>
      <trkpt lat="48.82833" lon="2.36753">
        <ele>51.599998474121</ele>
        <time>2016-08-08T18:49:34.000Z</time>
      </trkpt>
      <trkpt lat="48.82835" lon="2.36729">
        <ele>52</ele>
        <time>2016-08-08T18:49:38.000Z</time>
      </trkpt>
      <trkpt lat="48.82838" lon="2.36721">
        <ele>52.400001525879</ele>
        <time>2016-08-08T18:49:40.000Z</time>
      </trkpt>
      <trkpt lat="48.82843" lon="2.36704">
        <ele>53.200000762939</ele>
        <time>2016-08-08T18:50:07.000Z</time>
      </trkpt>
      <trkpt lat="48.82855" lon="2.36683">
        <ele>54.400001525879</ele>
        <time>2016-08-08T18:50:12.000Z</time>
      </trkpt>
      <trkpt lat="48.82866" lon="2.36653">
        <ele>54.200000762939</ele>
        <time>2016-08-08T18:50:17.000Z</time>
      </trkpt>
      <trkpt lat="48.82868" lon="2.36618">
        <ele>52.799999237061</ele>
        <time>2016-08-08T18:50:21.000Z</time>
      </trkpt>
      <trkpt lat="48.82879" lon="2.36594">
        <ele>52.200000762939</ele>
        <time>2016-08-08T18:50:24.000Z</time>
      </trkpt>
      <trkpt lat="48.8289" lon="2.36567">
        <ele>52</ele>
        <time>2016-08-08T18:50:28.000Z</time>
      </trkpt>
      <trkpt lat="48.82891" lon="2.36562">
        <ele>52</ele>
        <time>2016-08-08T18:50:29.000Z</time>
      </trkpt>
      <trkpt lat="48.82898" lon="2.36546">
        <ele>51.599998474121</ele>
        <time>2016-08-08T18:50:34.000Z</time>
      </trkpt>
      <trkpt lat="48.82916" lon="2.36534">
        <ele>52.400001525879</ele>
        <time>2016-08-08T18:50:38.000Z</time>
      </trkpt>
      <trkpt lat="48.82918" lon="2.36529">
        <ele>52.599998474121</ele>
        <time>2016-08-08T18:50:39.000Z</time>
      </trkpt>
      <trkpt lat="48.8292" lon="2.36523">
        <ele>52.799999237061</ele>
        <time>2016-08-08T18:50:40.000Z</time>
      </trkpt>
      <trkpt lat="48.82926" lon="2.36508">
        <ele>53.200000762939</ele>
        <time>2016-08-08T18:50:43.000Z</time>
      </trkpt>
      <trkpt lat="48.82934" lon="2.36481">
        <ele>54.200000762939</ele>
        <time>2016-08-08T18:50:47.000Z</time>
      </trkpt>
      <trkpt lat="48.82936" lon="2.36464">
        <ele>54.799999237061</ele>
        <time>2016-08-08T18:50:49.000Z</time>
      </trkpt>
      <trkpt lat="48.82943" lon="2.36444">
        <ele>55.200000762939</ele>
        <time>2016-08-08T18:50:52.000Z</time>
      </trkpt>
      <trkpt lat="48.82953" lon="2.36422">
        <ele>55.400001525879</ele>
        <time>2016-08-08T18:50:56.000Z</time>
      </trkpt>
      <trkpt lat="48.82962" lon="2.36394">
        <ele>54.599998474121</ele>
        <time>2016-08-08T18:51:00.000Z</time>
      </trkpt>
      <trkpt lat="48.8297" lon="2.36367">
        <ele>54</ele>
        <time>2016-08-08T18:51:04.000Z</time>
      </trkpt>
      <trkpt lat="48.82973" lon="2.36362">
        <ele>53.799999237061</ele>
        <time>2016-08-08T18:51:05.000Z</time>
      </trkpt>
      <trkpt lat="48.82987" lon="2.36338">
        <ele>54.799999237061</ele>
        <time>2016-08-08T18:51:09.000Z</time>
      </trkpt>
      <trkpt lat="48.82992" lon="2.36324">
        <ele>55</ele>
        <time>2016-08-08T18:51:11.000Z</time>
      </trkpt>
      <trkpt lat="48.83005" lon="2.36295">
        <ele>54.200000762939</ele>
        <time>2016-08-08T18:51:15.000Z</time>
      </trkpt>
      <trkpt lat="48.83017" lon="2.36269">
        <ele>52.799999237061</ele>
        <time>2016-08-08T18:51:19.000Z</time>
      </trkpt>
      <trkpt lat="48.83021" lon="2.36256">
        <ele>52.400001525879</ele>
        <time>2016-08-08T18:51:21.000Z</time>
      </trkpt>
      <trkpt lat="48.83032" lon="2.36231">
        <ele>51.799999237061</ele>
        <time>2016-08-08T18:51:25.000Z</time>
      </trkpt>
      <trkpt lat="48.83033" lon="2.36225">
        <ele>51.799999237061</ele>
        <time>2016-08-08T18:51:26.000Z</time>
      </trkpt>
      <trkpt lat="48.83036" lon="2.36207">
        <ele>51.799999237061</ele>
        <time>2016-08-08T18:51:29.000Z</time>
      </trkpt>
      <trkpt lat="48.83048" lon="2.36184">
        <ele>51.599998474121</ele>
        <time>2016-08-08T18:51:34.000Z</time>
      </trkpt>
      <trkpt lat="48.8306" lon="2.36159">
        <ele>50.799999237061</ele>
        <time>2016-08-08T18:51:38.000Z</time>
      </trkpt>
      <trkpt lat="48.83072" lon="2.36142">
        <ele>51</ele>
        <time>2016-08-08T18:51:41.000Z</time>
      </trkpt>
      <trkpt lat="48.83089" lon="2.3612">
        <ele>50.799999237061</ele>
        <time>2016-08-08T18:51:45.000Z</time>
      </trkpt>
      <trkpt lat="48.83105" lon="2.36099">
        <ele>50.599998474121</ele>
        <time>2016-08-08T18:51:49.000Z</time>
      </trkpt>
      <trkpt lat="48.83124" lon="2.36083">
        <ele>51.200000762939</ele>
        <time>2016-08-08T18:51:53.000Z</time>
      </trkpt>
      <trkpt lat="48.83139" lon="2.36064">
        <ele>53.200000762939</ele>
        <time>2016-08-08T18:51:57.000Z</time>
      </trkpt>
      <trkpt lat="48.83156" lon="2.36046">
        <ele>55.200000762939</ele>
        <time>2016-08-08T18:52:02.000Z</time>
      </trkpt>
      <trkpt lat="48.83169" lon="2.36025">
        <ele>54.799999237061</ele>
        <time>2016-08-08T18:52:06.000Z</time>
      </trkpt>
      <trkpt lat="48.83185" lon="2.36003">
        <ele>54.200000762939</ele>
        <time>2016-08-08T18:52:11.000Z</time>
      </trkpt>
      <trkpt lat="48.8319" lon="2.35994">
        <ele>54.200000762939</ele>
        <time>2016-08-08T18:52:14.000Z</time>
      </trkpt>
      <trkpt lat="48.83182" lon="2.35973">
        <ele>55.799999237061</ele>
        <time>2016-08-08T18:52:21.000Z</time>
      </trkpt>
      <trkpt lat="48.83179" lon="2.35965">
        <ele>56.400001525879</ele>
        <time>2016-08-08T18:52:23.000Z</time>
      </trkpt>
      <trkpt lat="48.83172" lon="2.3594">
        <ele>58.400001525879</ele>
        <time>2016-08-08T18:52:32.000Z</time>
      </trkpt>
      <trkpt lat="48.83163" lon="2.35911">
        <ele>60.400001525879</ele>
        <time>2016-08-08T18:52:40.000Z</time>
      </trkpt>
      <trkpt lat="48.83155" lon="2.35887">
        <ele>60.599998474121</ele>
        <time>2016-08-08T18:52:45.000Z</time>
      </trkpt>
      <trkpt lat="48.83145" lon="2.35859">
        <ele>61.599998474121</ele>
        <time>2016-08-08T18:52:50.000Z</time>
      </trkpt>
      <trkpt lat="48.83135" lon="2.35834">
        <ele>63.200000762939</ele>
        <time>2016-08-08T18:52:55.000Z</time>
      </trkpt>
      <trkpt lat="48.83127" lon="2.35809">
        <ele>64.199996948242</ele>
        <time>2016-08-08T18:52:59.000Z</time>
      </trkpt>
      <trkpt lat="48.83119" lon="2.35784">
        <ele>65.400001525879</ele>
        <time>2016-08-08T18:53:03.000Z</time>
      </trkpt>
      <trkpt lat="48.8311" lon="2.35757">
        <ele>66.599998474121</ele>
        <time>2016-08-08T18:53:07.000Z</time>
      </trkpt>
      <trkpt lat="48.83108" lon="2.35752">
        <ele>66.800003051758</ele>
        <time>2016-08-08T18:53:08.000Z</time>
      </trkpt>
      <trkpt lat="48.831" lon="2.3573">
        <ele>66.800003051758</ele>
        <time>2016-08-08T18:53:13.000Z</time>
      </trkpt>
      <trkpt lat="48.83091" lon="2.35702">
        <ele>66.400001525879</ele>
        <time>2016-08-08T18:53:19.000Z</time>
      </trkpt>
      <trkpt lat="48.83086" lon="2.35673">
        <ele>65.800003051758</ele>
        <time>2016-08-08T18:53:25.000Z</time>
      </trkpt>
      <trkpt lat="48.83087" lon="2.35667">
        <ele>65.400001525879</ele>
        <time>2016-08-08T18:53:27.000Z</time>
      </trkpt>
      <trkpt lat="48.83105" lon="2.35658">
        <ele>64</ele>
        <time>2016-08-08T18:53:35.000Z</time>
      </trkpt>
      <trkpt lat="48.83117" lon="2.35654">
        <ele>63.799999237061</ele>
        <time>2016-08-08T18:53:39.000Z</time>
      </trkpt>
      <trkpt lat="48.83121" lon="2.35658">
        <ele>63.799999237061</ele>
        <time>2016-08-08T18:53:43.000Z</time>
      </trkpt>
      <trkpt lat="48.83124" lon="2.35661">
        <ele>63.799999237061</ele>
        <time>2016-08-08T18:53:45.000Z</time>
      </trkpt>
      <trkpt lat="48.83132" lon="2.35652">
        <ele>63.599998474121</ele>
        <time>2016-08-08T18:54:17.000Z</time>
      </trkpt>
      <trkpt lat="48.8315" lon="2.3565">
        <ele>63.200000762939</ele>
        <time>2016-08-08T18:54:33.000Z</time>
      </trkpt>
      <trkpt lat="48.8317" lon="2.35643">
        <ele>62.799999237061</ele>
        <time>2016-08-08T18:54:40.000Z</time>
      </trkpt>
      <trkpt lat="48.83185" lon="2.35627">
        <ele>61.799999237061</ele>
        <time>2016-08-08T18:54:46.000Z</time>
      </trkpt>
      <trkpt lat="48.83196" lon="2.35617">
        <ele>61.200000762939</ele>
        <time>2016-08-08T18:54:52.000Z</time>
      </trkpt>
      <trkpt lat="48.83209" lon="2.35618">
        <ele>61.400001525879</ele>
        <time>2016-08-08T18:54:59.000Z</time>
      </trkpt>
      <trkpt lat="48.83212" lon="2.35606">
        <ele>61</ele>
        <time>2016-08-08T18:55:05.000Z</time>
      </trkpt>
      <trkpt lat="48.83217" lon="2.35582">
        <ele>61</ele>
        <time>2016-08-08T18:55:13.000Z</time>
      </trkpt>
      <trkpt lat="48.83224" lon="2.35567">
        <ele>61.400001525879</ele>
        <time>2016-08-08T18:56:01.000Z</time>
      </trkpt>
      <trkpt lat="48.83222" lon="2.3554">
        <ele>61.599998474121</ele>
        <time>2016-08-08T18:56:07.000Z</time>
      </trkpt>
      <trkpt lat="48.8322" lon="2.35512">
        <ele>61.799999237061</ele>
        <time>2016-08-08T18:56:14.000Z</time>
      </trkpt>
      <trkpt lat="48.8321" lon="2.35486">
        <ele>62</ele>
        <time>2016-08-08T18:56:19.000Z</time>
      </trkpt>
      <trkpt lat="48.83195" lon="2.35463">
        <ele>62.400001525879</ele>
        <time>2016-08-08T18:56:24.000Z</time>
      </trkpt>
      <trkpt lat="48.83181" lon="2.35442">
        <ele>63.200000762939</ele>
        <time>2016-08-08T18:56:29.000Z</time>
      </trkpt>
      <trkpt lat="48.83162" lon="2.35429">
        <ele>63.799999237061</ele>
        <time>2016-08-08T18:56:35.000Z</time>
      </trkpt>
      <trkpt lat="48.83142" lon="2.35428">
        <ele>64</ele>
        <time>2016-08-08T18:56:41.000Z</time>
      </trkpt>
      <trkpt lat="48.83136" lon="2.35429">
        <ele>64.199996948242</ele>
        <time>2016-08-08T18:56:44.000Z</time>
      </trkpt>
      <trkpt lat="48.8312" lon="2.35421">
        <ele>64.599998474121</ele>
        <time>2016-08-08T18:57:12.000Z</time>
      </trkpt>
      <trkpt lat="48.8311" lon="2.35398">
        <ele>64.599998474121</ele>
        <time>2016-08-08T18:57:17.000Z</time>
      </trkpt>
      <trkpt lat="48.831" lon="2.35371">
        <ele>64.199996948242</ele>
        <time>2016-08-08T18:57:22.000Z</time>
      </trkpt>
      <trkpt lat="48.83093" lon="2.35344">
        <ele>63.799999237061</ele>
        <time>2016-08-08T18:57:26.000Z</time>
      </trkpt>
      <trkpt lat="48.83083" lon="2.35317">
        <ele>63.599998474121</ele>
        <time>2016-08-08T18:57:31.000Z</time>
      </trkpt>
      <trkpt lat="48.83074" lon="2.35292">
        <ele>63.200000762939</ele>
        <time>2016-08-08T18:57:36.000Z</time>
      </trkpt>
      <trkpt lat="48.83064" lon="2.35267">
        <ele>62.599998474121</ele>
        <time>2016-08-08T18:57:40.000Z</time>
      </trkpt>
      <trkpt lat="48.83053" lon="2.35239">
        <ele>62.200000762939</ele>
        <time>2016-08-08T18:57:44.000Z</time>
      </trkpt>
      <trkpt lat="48.83045" lon="2.35213">
        <ele>61.200000762939</ele>
        <time>2016-08-08T18:57:47.000Z</time>
      </trkpt>
      <trkpt lat="48.83035" lon="2.35182">
        <ele>60.200000762939</ele>
        <time>2016-08-08T18:57:50.000Z</time>
      </trkpt>
      <trkpt lat="48.83024" lon="2.3515">
        <ele>60</ele>
        <time>2016-08-08T18:57:53.000Z</time>
      </trkpt>
      <trkpt lat="48.83012" lon="2.35117">
        <ele>60.599998474121</ele>
        <time>2016-08-08T18:57:56.000Z</time>
      </trkpt>
      <trkpt lat="48.83001" lon="2.3508">
        <ele>61.200000762939</ele>
        <time>2016-08-08T18:57:59.000Z</time>
      </trkpt>
      <trkpt lat="48.82991" lon="2.35045">
        <ele>60.599998474121</ele>
        <time>2016-08-08T18:58:02.000Z</time>
      </trkpt>
      <trkpt lat="48.82982" lon="2.35011">
        <ele>60</ele>
        <time>2016-08-08T18:58:05.000Z</time>
      </trkpt>
      <trkpt lat="48.82973" lon="2.34975">
        <ele>58.400001525879</ele>
        <time>2016-08-08T18:58:08.000Z</time>
      </trkpt>
      <trkpt lat="48.82969" lon="2.34936">
        <ele>55.799999237061</ele>
        <time>2016-08-08T18:58:11.000Z</time>
      </trkpt>
      <trkpt lat="48.82969" lon="2.3491">
        <ele>54.200000762939</ele>
        <time>2016-08-08T18:58:13.000Z</time>
      </trkpt>
      <trkpt lat="48.82977" lon="2.34872">
        <ele>53.200000762939</ele>
        <time>2016-08-08T18:58:16.000Z</time>
      </trkpt>
      <trkpt lat="48.82987" lon="2.34847">
        <ele>52</ele>
        <time>2016-08-08T18:58:18.000Z</time>
      </trkpt>
      <trkpt lat="48.82996" lon="2.34821">
        <ele>50.799999237061</ele>
        <time>2016-08-08T18:58:20.000Z</time>
      </trkpt>
      <trkpt lat="48.83003" lon="2.34793">
        <ele>50.400001525879</ele>
        <time>2016-08-08T18:58:22.000Z</time>
      </trkpt>
      <trkpt lat="48.8301" lon="2.34766">
        <ele>49.799999237061</ele>
        <time>2016-08-08T18:58:24.000Z</time>
      </trkpt>
      <trkpt lat="48.83016" lon="2.34739">
        <ele>49.400001525879</ele>
        <time>2016-08-08T18:58:26.000Z</time>
      </trkpt>
      <trkpt lat="48.83026" lon="2.34703">
        <ele>50</ele>
        <time>2016-08-08T18:58:29.000Z</time>
      </trkpt>
      <trkpt lat="48.83035" lon="2.34669">
        <ele>50.400001525879</ele>
        <time>2016-08-08T18:58:32.000Z</time>
      </trkpt>
      <trkpt lat="48.83044" lon="2.34635">
        <ele>49.200000762939</ele>
        <time>2016-08-08T18:58:35.000Z</time>
      </trkpt>
      <trkpt lat="48.83054" lon="2.34605">
        <ele>47.799999237061</ele>
        <time>2016-08-08T18:58:38.000Z</time>
      </trkpt>
      <trkpt lat="48.83064" lon="2.34577">
        <ele>46.400001525879</ele>
        <time>2016-08-08T18:58:42.000Z</time>
      </trkpt>
      <trkpt lat="48.83073" lon="2.3455">
        <ele>44.599998474121</ele>
        <time>2016-08-08T18:58:46.000Z</time>
      </trkpt>
      <trkpt lat="48.83084" lon="2.34519">
        <ele>45.599998474121</ele>
        <time>2016-08-08T18:58:50.000Z</time>
      </trkpt>
      <trkpt lat="48.83094" lon="2.34494">
        <ele>46.599998474121</ele>
        <time>2016-08-08T18:58:53.000Z</time>
      </trkpt>
      <trkpt lat="48.83103" lon="2.34467">
        <ele>47.599998474121</ele>
        <time>2016-08-08T18:58:56.000Z</time>
      </trkpt>
      <trkpt lat="48.83112" lon="2.34437">
        <ele>48.599998474121</ele>
        <time>2016-08-08T18:58:59.000Z</time>
      </trkpt>
      <trkpt lat="48.8312" lon="2.34409">
        <ele>49</ele>
        <time>2016-08-08T18:59:02.000Z</time>
      </trkpt>
      <trkpt lat="48.83125" lon="2.3439">
        <ele>48.799999237061</ele>
        <time>2016-08-08T18:59:04.000Z</time>
      </trkpt>
      <trkpt lat="48.83133" lon="2.34362">
        <ele>48.400001525879</ele>
        <time>2016-08-08T18:59:07.000Z</time>
      </trkpt>
      <trkpt lat="48.83141" lon="2.34333">
        <ele>48.400001525879</ele>
        <time>2016-08-08T18:59:10.000Z</time>
      </trkpt>
      <trkpt lat="48.8315" lon="2.34305">
        <ele>48.799999237061</ele>
        <time>2016-08-08T18:59:13.000Z</time>
      </trkpt>
      <trkpt lat="48.83155" lon="2.34285">
        <ele>49.200000762939</ele>
        <time>2016-08-08T18:59:15.000Z</time>
      </trkpt>
      <trkpt lat="48.83164" lon="2.34257">
        <ele>49.599998474121</ele>
        <time>2016-08-08T18:59:18.000Z</time>
      </trkpt>
      <trkpt lat="48.83174" lon="2.34229">
        <ele>50.400001525879</ele>
        <time>2016-08-08T18:59:21.000Z</time>
      </trkpt>
      <trkpt lat="48.8318" lon="2.342">
        <ele>50.200000762939</ele>
        <time>2016-08-08T18:59:24.000Z</time>
      </trkpt>
      <trkpt lat="48.83187" lon="2.3417">
        <ele>50</ele>
        <time>2016-08-08T18:59:27.000Z</time>
      </trkpt>
      <trkpt lat="48.83189" lon="2.34161">
        <ele>50.200000762939</ele>
        <time>2016-08-08T18:59:28.000Z</time>
      </trkpt>
      <trkpt lat="48.83197" lon="2.3413">
        <ele>51</ele>
        <time>2016-08-08T18:59:31.000Z</time>
      </trkpt>
      <trkpt lat="48.83205" lon="2.34103">
        <ele>51.799999237061</ele>
        <time>2016-08-08T18:59:34.000Z</time>
      </trkpt>
      <trkpt lat="48.83212" lon="2.34075">
        <ele>52.799999237061</ele>
        <time>2016-08-08T18:59:37.000Z</time>
      </trkpt>
      <trkpt lat="48.8322" lon="2.34047">
        <ele>54.599998474121</ele>
        <time>2016-08-08T18:59:40.000Z</time>
      </trkpt>
      <trkpt lat="48.83227" lon="2.3402">
        <ele>56</ele>
        <time>2016-08-08T18:59:43.000Z</time>
      </trkpt>
      <trkpt lat="48.83234" lon="2.33992">
        <ele>57</ele>
        <time>2016-08-08T18:59:46.000Z</time>
      </trkpt>
      <trkpt lat="48.83236" lon="2.33983">
        <ele>57.200000762939</ele>
        <time>2016-08-08T18:59:47.000Z</time>
      </trkpt>
      <trkpt lat="48.83243" lon="2.33957">
        <ele>57.400001525879</ele>
        <time>2016-08-08T18:59:50.000Z</time>
      </trkpt>
      <trkpt lat="48.83251" lon="2.33931">
        <ele>56.799999237061</ele>
        <time>2016-08-08T18:59:53.000Z</time>
      </trkpt>
      <trkpt lat="48.83262" lon="2.33899">
        <ele>55.599998474121</ele>
        <time>2016-08-08T18:59:57.000Z</time>
      </trkpt>
      <trkpt lat="48.83264" lon="2.3389">
        <ele>55.799999237061</ele>
        <time>2016-08-08T18:59:58.000Z</time>
      </trkpt>
      <trkpt lat="48.8327" lon="2.33863">
        <ele>56.200000762939</ele>
        <time>2016-08-08T19:00:01.000Z</time>
      </trkpt>
      <trkpt lat="48.83275" lon="2.33847">
        <ele>56.599998474121</ele>
        <time>2016-08-08T19:00:03.000Z</time>
      </trkpt>
      <trkpt lat="48.83285" lon="2.33824">
        <ele>57.400001525879</ele>
        <time>2016-08-08T19:00:06.000Z</time>
      </trkpt>
      <trkpt lat="48.83289" lon="2.33809">
        <ele>57.799999237061</ele>
        <time>2016-08-08T19:00:08.000Z</time>
      </trkpt>
      <trkpt lat="48.833" lon="2.3378">
        <ele>58.599998474121</ele>
        <time>2016-08-08T19:00:12.000Z</time>
      </trkpt>
      <trkpt lat="48.83301" lon="2.33772">
        <ele>58.799999237061</ele>
        <time>2016-08-08T19:00:13.000Z</time>
      </trkpt>
      <trkpt lat="48.83304" lon="2.33748">
        <ele>59.799999237061</ele>
        <time>2016-08-08T19:00:16.000Z</time>
      </trkpt>
      <trkpt lat="48.83307" lon="2.33718">
        <ele>61.200000762939</ele>
        <time>2016-08-08T19:00:20.000Z</time>
      </trkpt>
      <trkpt lat="48.83307" lon="2.33709">
        <ele>61.599998474121</ele>
        <time>2016-08-08T19:00:21.000Z</time>
      </trkpt>
      <trkpt lat="48.83312" lon="2.33689">
        <ele>62.400001525879</ele>
        <time>2016-08-08T19:00:24.000Z</time>
      </trkpt>
      <trkpt lat="48.83317" lon="2.33665">
        <ele>63</ele>
        <time>2016-08-08T19:00:28.000Z</time>
      </trkpt>
      <trkpt lat="48.83322" lon="2.33634">
        <ele>64</ele>
        <time>2016-08-08T19:00:34.000Z</time>
      </trkpt>
      <trkpt lat="48.8333" lon="2.33609">
        <ele>63.599998474121</ele>
        <time>2016-08-08T19:00:41.000Z</time>
      </trkpt>
      <trkpt lat="48.83334" lon="2.33603">
        <ele>63.200000762939</ele>
        <time>2016-08-08T19:00:46.000Z</time>
      </trkpt>
      <trkpt lat="48.83339" lon="2.33605">
        <ele>63</ele>
        <time>2016-08-08T19:02:11.000Z</time>
      </trkpt>
      <trkpt lat="48.83344" lon="2.33581">
        <ele>62.599998474121</ele>
        <time>2016-08-08T19:02:25.000Z</time>
      </trkpt>
      <trkpt lat="48.8335" lon="2.33554">
        <ele>62.200000762939</ele>
        <time>2016-08-08T19:02:30.000Z</time>
      </trkpt>
      <trkpt lat="48.83357" lon="2.33526">
        <ele>62</ele>
        <time>2016-08-08T19:02:35.000Z</time>
      </trkpt>
      <trkpt lat="48.83366" lon="2.33497">
        <ele>62.400001525879</ele>
        <time>2016-08-08T19:02:40.000Z</time>
      </trkpt>
      <trkpt lat="48.83375" lon="2.3347">
        <ele>63</ele>
        <time>2016-08-08T19:02:45.000Z</time>
      </trkpt>
      <trkpt lat="48.83382" lon="2.33439">
        <ele>63.599998474121</ele>
        <time>2016-08-08T19:02:51.000Z</time>
      </trkpt>
      <trkpt lat="48.83388" lon="2.3341">
        <ele>64.400001525879</ele>
        <time>2016-08-08T19:02:57.000Z</time>
      </trkpt>
      <trkpt lat="48.83397" lon="2.33385">
        <ele>64.599998474121</ele>
        <time>2016-08-08T19:03:02.000Z</time>
      </trkpt>
      <trkpt lat="48.83406" lon="2.33361">
        <ele>65.199996948242</ele>
        <time>2016-08-08T19:03:08.000Z</time>
      </trkpt>
      <trkpt lat="48.83412" lon="2.33342">
        <ele>66</ele>
        <time>2016-08-08T19:03:17.000Z</time>
      </trkpt>
      <trkpt lat="48.83423" lon="2.3332">
        <ele>67.199996948242</ele>
        <time>2016-08-08T19:03:26.000Z</time>
      </trkpt>
      <trkpt lat="48.8343" lon="2.33309">
        <ele>67.400001525879</ele>
        <time>2016-08-08T19:03:31.000Z</time>
      </trkpt>
      <trkpt lat="48.83432" lon="2.33308">
        <ele>67.400001525879</ele>
        <time>2016-08-08T19:03:32.000Z</time>
      </trkpt>
      <trkpt lat="48.83424" lon="2.33282">
        <ele>66.800003051758</ele>
        <time>2016-08-08T19:03:39.000Z</time>
      </trkpt>
      <trkpt lat="48.83419" lon="2.33267">
        <ele>66.599998474121</ele>
        <time>2016-08-08T19:03:45.000Z</time>
      </trkpt>
      <trkpt lat="48.83404" lon="2.33246">
        <ele>65.800003051758</ele>
        <time>2016-08-08T19:03:56.000Z</time>
      </trkpt>
      <trkpt lat="48.83389" lon="2.33232">
        <ele>66.400001525879</ele>
        <time>2016-08-08T19:04:03.000Z</time>
      </trkpt>
      <trkpt lat="48.83377" lon="2.33221">
        <ele>66.599998474121</ele>
        <time>2016-08-08T19:04:08.000Z</time>
      </trkpt>
      <trkpt lat="48.83361" lon="2.33217">
        <ele>66.400001525879</ele>
        <time>2016-08-08T19:04:16.000Z</time>
      </trkpt>
      <trkpt lat="48.83361" lon="2.33219">
        <ele>66.199996948242</ele>
        <time>2016-08-08T19:04:17.000Z</time>
      </trkpt>
      <trkpt lat="48.83358" lon="2.33209">
        <ele>66.800003051758</ele>
        <time>2016-08-08T19:05:20.000Z</time>
      </trkpt>
      <trkpt lat="48.83359" lon="2.33209">
        <ele>66.800003051758</ele>
        <time>2016-08-08T19:05:21.000Z</time>
      </trkpt>
      <trkpt lat="48.8335" lon="2.33185">
        <ele>68.400001525879</ele>
        <time>2016-08-08T19:05:39.000Z</time>
      </trkpt>
      <trkpt lat="48.83346" lon="2.33167">
        <ele>69.599998474121</ele>
        <time>2016-08-08T19:05:46.000Z</time>
      </trkpt>
      <trkpt lat="48.83331" lon="2.33146">
        <ele>70.199996948242</ele>
        <time>2016-08-08T19:05:53.000Z</time>
      </trkpt>
      <trkpt lat="48.83327" lon="2.33144">
        <ele>70.199996948242</ele>
        <time>2016-08-08T19:05:54.000Z</time>
      </trkpt>
      <trkpt lat="48.8331" lon="2.33131">
        <ele>70.199996948242</ele>
        <time>2016-08-08T19:06:00.000Z</time>
      </trkpt>
      <trkpt lat="48.83292" lon="2.33114">
        <ele>70.400001525879</ele>
        <time>2016-08-08T19:06:07.000Z</time>
      </trkpt>
      <trkpt lat="48.83273" lon="2.33101">
        <ele>70.599998474121</ele>
        <time>2016-08-08T19:06:13.000Z</time>
      </trkpt>
      <trkpt lat="48.83257" lon="2.33088">
        <ele>70</ele>
        <time>2016-08-08T19:06:18.000Z</time>
      </trkpt>
      <trkpt lat="48.83238" lon="2.33074">
        <ele>69.800003051758</ele>
        <time>2016-08-08T19:06:24.000Z</time>
      </trkpt>
      <trkpt lat="48.83235" lon="2.33048">
        <ele>71.199996948242</ele>
        <time>2016-08-08T19:06:30.000Z</time>
      </trkpt>
      <trkpt lat="48.83245" lon="2.33023">
        <ele>72.800003051758</ele>
        <time>2016-08-08T19:06:36.000Z</time>
      </trkpt>
      <trkpt lat="48.83249" lon="2.32996">
        <ele>74.199996948242</ele>
        <time>2016-08-08T19:06:42.000Z</time>
      </trkpt>
      <trkpt lat="48.8326" lon="2.32971">
        <ele>74.599998474121</ele>
        <time>2016-08-08T19:06:48.000Z</time>
      </trkpt>
      <trkpt lat="48.83273" lon="2.32946">
        <ele>74.400001525879</ele>
        <time>2016-08-08T19:06:54.000Z</time>
      </trkpt>
      <trkpt lat="48.83283" lon="2.32918">
        <ele>73.400001525879</ele>
        <time>2016-08-08T19:07:00.000Z</time>
      </trkpt>
      <trkpt lat="48.83291" lon="2.32888">
        <ele>71.800003051758</ele>
        <time>2016-08-08T19:07:06.000Z</time>
      </trkpt>
      <trkpt lat="48.83296" lon="2.32859">
        <ele>70.199996948242</ele>
        <time>2016-08-08T19:07:12.000Z</time>
      </trkpt>
      <trkpt lat="48.83296" lon="2.32829">
        <ele>69.800003051758</ele>
        <time>2016-08-08T19:07:18.000Z</time>
      </trkpt>
      <trkpt lat="48.83296" lon="2.32824">
        <ele>69.800003051758</ele>
        <time>2016-08-08T19:07:19.000Z</time>
      </trkpt>
      <trkpt lat="48.83303" lon="2.32794">
        <ele>69.599998474121</ele>
        <time>2016-08-08T19:07:25.000Z</time>
      </trkpt>
      <trkpt lat="48.83305" lon="2.32777">
        <ele>69.800003051758</ele>
        <time>2016-08-08T19:07:29.000Z</time>
      </trkpt>
      <trkpt lat="48.833" lon="2.32767">
        <ele>70</ele>
        <time>2016-08-08T19:07:33.000Z</time>
      </trkpt>
      <trkpt lat="48.83288" lon="2.32749">
        <ele>70.400001525879</ele>
        <time>2016-08-08T19:07:39.000Z</time>
      </trkpt>
      <trkpt lat="48.83288" lon="2.3272">
        <ele>69.400001525879</ele>
        <time>2016-08-08T19:07:46.000Z</time>
      </trkpt>
      <trkpt lat="48.83282" lon="2.32689">
        <ele>68.199996948242</ele>
        <time>2016-08-08T19:07:54.000Z</time>
      </trkpt>
      <trkpt lat="48.83282" lon="2.32688">
        <ele>68</ele>
        <time>2016-08-08T19:07:56.000Z</time>
      </trkpt>
      <trkpt lat="48.83289" lon="2.32688">
        <ele>68.199996948242</ele>
        <time>2016-08-08T19:08:46.000Z</time>
      </trkpt>
      <trkpt lat="48.83297" lon="2.32678">
        <ele>68.199996948242</ele>
        <time>2016-08-08T19:09:31.000Z</time>
      </trkpt>
      <trkpt lat="48.83297" lon="2.32673">
        <ele>68.199996948242</ele>
        <time>2016-08-08T19:09:33.000Z</time>
      </trkpt>
      <trkpt lat="48.83301" lon="2.32645">
        <ele>67.400001525879</ele>
        <time>2016-08-08T19:09:42.000Z</time>
      </trkpt>
      <trkpt lat="48.83294" lon="2.3262">
        <ele>66.199996948242</ele>
        <time>2016-08-08T19:09:51.000Z</time>
      </trkpt>
      <trkpt lat="48.83279" lon="2.32604">
        <ele>65</ele>
        <time>2016-08-08T19:09:58.000Z</time>
      </trkpt>
      <trkpt lat="48.83261" lon="2.32592">
        <ele>65.199996948242</ele>
        <time>2016-08-08T19:10:05.000Z</time>
      </trkpt>
      <trkpt lat="48.83256" lon="2.32567">
        <ele>65.199996948242</ele>
        <time>2016-08-08T19:10:12.000Z</time>
      </trkpt>
      <trkpt lat="48.83262" lon="2.3254">
        <ele>67</ele>
        <time>2016-08-08T19:10:18.000Z</time>
      </trkpt>
      <trkpt lat="48.8327" lon="2.32512">
        <ele>69</ele>
        <time>2016-08-08T19:10:25.000Z</time>
      </trkpt>
      <trkpt lat="48.8328" lon="2.32486">
        <ele>70.400001525879</ele>
        <time>2016-08-08T19:10:32.000Z</time>
      </trkpt>
      <trkpt lat="48.83285" lon="2.32458">
        <ele>71</ele>
        <time>2016-08-08T19:10:37.000Z</time>
      </trkpt>
      <trkpt lat="48.83296" lon="2.32431">
        <ele>71.800003051758</ele>
        <time>2016-08-08T19:10:42.000Z</time>
      </trkpt>
      <trkpt lat="48.83308" lon="2.32406">
        <ele>71.599998474121</ele>
        <time>2016-08-08T19:10:46.000Z</time>
      </trkpt>
      <trkpt lat="48.83318" lon="2.32379">
        <ele>71.400001525879</ele>
        <time>2016-08-08T19:10:50.000Z</time>
      </trkpt>
      <trkpt lat="48.8333" lon="2.32352">
        <ele>71.800003051758</ele>
        <time>2016-08-08T19:10:54.000Z</time>
      </trkpt>
      <trkpt lat="48.83337" lon="2.32319">
        <ele>72.199996948242</ele>
        <time>2016-08-08T19:10:58.000Z</time>
      </trkpt>
      <trkpt lat="48.83347" lon="2.32286">
        <ele>71.599998474121</ele>
        <time>2016-08-08T19:11:02.000Z</time>
      </trkpt>
      <trkpt lat="48.83357" lon="2.32258">
        <ele>71.199996948242</ele>
        <time>2016-08-08T19:11:06.000Z</time>
      </trkpt>
      <trkpt lat="48.83365" lon="2.32233">
        <ele>71</ele>
        <time>2016-08-08T19:11:09.000Z</time>
      </trkpt>
      <trkpt lat="48.83374" lon="2.32202">
        <ele>71</ele>
        <time>2016-08-08T19:11:13.000Z</time>
      </trkpt>
      <trkpt lat="48.83383" lon="2.32177">
        <ele>71</ele>
        <time>2016-08-08T19:11:17.000Z</time>
      </trkpt>
      <trkpt lat="48.83386" lon="2.32165">
        <ele>71</ele>
        <time>2016-08-08T19:11:21.000Z</time>
      </trkpt>
      <trkpt lat="48.83395" lon="2.32166">
        <ele>71</ele>
        <time>2016-08-08T19:11:48.000Z</time>
      </trkpt>
      <trkpt lat="48.83413" lon="2.3217">
        <ele>71</ele>
        <time>2016-08-08T19:11:57.000Z</time>
      </trkpt>
      <trkpt lat="48.83415" lon="2.32168">
        <ele>71</ele>
        <time>2016-08-08T19:11:58.000Z</time>
      </trkpt>
      <trkpt lat="48.83426" lon="2.32142">
        <ele>70.800003051758</ele>
        <time>2016-08-08T19:12:10.000Z</time>
      </trkpt>
      <trkpt lat="48.83436" lon="2.32118">
        <ele>69.599998474121</ele>
        <time>2016-08-08T19:12:16.000Z</time>
      </trkpt>
      <trkpt lat="48.83435" lon="2.32112">
        <ele>69.400001525879</ele>
        <time>2016-08-08T19:12:18.000Z</time>
      </trkpt>
      <trkpt lat="48.83427" lon="2.32101">
        <ele>69.400001525879</ele>
        <time>2016-08-08T19:12:22.000Z</time>
      </trkpt>
      <trkpt lat="48.83411" lon="2.32088">
        <ele>69.599998474121</ele>
        <time>2016-08-08T19:12:27.000Z</time>
      </trkpt>
      <trkpt lat="48.83394" lon="2.3207">
        <ele>69.599998474121</ele>
        <time>2016-08-08T19:12:32.000Z</time>
      </trkpt>
      <trkpt lat="48.83376" lon="2.32052">
        <ele>69.599998474121</ele>
        <time>2016-08-08T19:12:37.000Z</time>
      </trkpt>
      <trkpt lat="48.83368" lon="2.32028">
        <ele>69</ele>
        <time>2016-08-08T19:12:41.000Z</time>
      </trkpt>
      <trkpt lat="48.8336" lon="2.31997">
        <ele>68</ele>
        <time>2016-08-08T19:12:46.000Z</time>
      </trkpt>
      <trkpt lat="48.83352" lon="2.31974">
        <ele>68.199996948242</ele>
        <time>2016-08-08T19:12:53.000Z</time>
      </trkpt>
      <trkpt lat="48.83337" lon="2.31954">
        <ele>68.599998474121</ele>
        <time>2016-08-08T19:13:03.000Z</time>
      </trkpt>
      <trkpt lat="48.83331" lon="2.31935">
        <ele>68.800003051758</ele>
        <time>2016-08-08T19:13:08.000Z</time>
      </trkpt>
      <trkpt lat="48.83339" lon="2.31907">
        <ele>68.800003051758</ele>
        <time>2016-08-08T19:13:14.000Z</time>
      </trkpt>
      <trkpt lat="48.83347" lon="2.31881">
        <ele>69.400001525879</ele>
        <time>2016-08-08T19:13:18.000Z</time>
      </trkpt>
      <trkpt lat="48.8336" lon="2.31862">
        <ele>69.800003051758</ele>
        <time>2016-08-08T19:13:22.000Z</time>
      </trkpt>
      <trkpt lat="48.83377" lon="2.31847">
        <ele>70.199996948242</ele>
        <time>2016-08-08T19:13:26.000Z</time>
      </trkpt>
      <trkpt lat="48.83391" lon="2.3183">
        <ele>70.199996948242</ele>
        <time>2016-08-08T19:13:30.000Z</time>
      </trkpt>
      <trkpt lat="48.83398" lon="2.3181">
        <ele>69.800003051758</ele>
        <time>2016-08-08T19:13:36.000Z</time>
      </trkpt>
      <trkpt lat="48.83412" lon="2.31795">
        <ele>69.199996948242</ele>
        <time>2016-08-08T19:14:03.000Z</time>
      </trkpt>
      <trkpt lat="48.83428" lon="2.31777">
        <ele>68.599998474121</ele>
        <time>2016-08-08T19:14:09.000Z</time>
      </trkpt>
      <trkpt lat="48.83443" lon="2.31758">
        <ele>68.199996948242</ele>
        <time>2016-08-08T19:14:14.000Z</time>
      </trkpt>
      <trkpt lat="48.83454" lon="2.31734">
        <ele>68.400001525879</ele>
        <time>2016-08-08T19:14:18.000Z</time>
      </trkpt>
      <trkpt lat="48.83467" lon="2.31712">
        <ele>68.800003051758</ele>
        <time>2016-08-08T19:14:24.000Z</time>
      </trkpt>
      <trkpt lat="48.83474" lon="2.31693">
        <ele>68.800003051758</ele>
        <time>2016-08-08T19:14:30.000Z</time>
      </trkpt>
      <trkpt lat="48.83487" lon="2.31673">
        <ele>68</ele>
        <time>2016-08-08T19:14:37.000Z</time>
      </trkpt>
      <trkpt lat="48.835" lon="2.31653">
        <ele>67.400001525879</ele>
        <time>2016-08-08T19:14:41.000Z</time>
      </trkpt>
      <trkpt lat="48.83514" lon="2.31627">
        <ele>67.400001525879</ele>
        <time>2016-08-08T19:14:46.000Z</time>
      </trkpt>
      <trkpt lat="48.83528" lon="2.31601">
        <ele>67.599998474121</ele>
        <time>2016-08-08T19:14:51.000Z</time>
      </trkpt>
      <trkpt lat="48.83544" lon="2.31579">
        <ele>66.400001525879</ele>
        <time>2016-08-08T19:14:56.000Z</time>
      </trkpt>
      <trkpt lat="48.83555" lon="2.31556">
        <ele>65</ele>
        <time>2016-08-08T19:15:02.000Z</time>
      </trkpt>
      <trkpt lat="48.83557" lon="2.31552">
        <ele>64.800003051758</ele>
        <time>2016-08-08T19:15:05.000Z</time>
      </trkpt>
      <trkpt lat="48.83546" lon="2.31523">
        <ele>65</ele>
        <time>2016-08-08T19:15:32.000Z</time>
      </trkpt>
      <trkpt lat="48.83532" lon="2.31499">
        <ele>65.800003051758</ele>
        <time>2016-08-08T19:15:38.000Z</time>
      </trkpt>
      <trkpt lat="48.83515" lon="2.3148">
        <ele>66.400001525879</ele>
        <time>2016-08-08T19:15:42.000Z</time>
      </trkpt>
      <trkpt lat="48.83501" lon="2.31459">
        <ele>67</ele>
        <time>2016-08-08T19:15:46.000Z</time>
      </trkpt>
      <trkpt lat="48.83488" lon="2.31437">
        <ele>67.599998474121</ele>
        <time>2016-08-08T19:15:51.000Z</time>
      </trkpt>
      <trkpt lat="48.83479" lon="2.31412">
        <ele>68</ele>
        <time>2016-08-08T19:15:56.000Z</time>
      </trkpt>
      <trkpt lat="48.83454" lon="2.31394">
        <ele>69</ele>
        <time>2016-08-08T19:16:00.000Z</time>
      </trkpt>
      <trkpt lat="48.83446" lon="2.3137">
        <ele>69.199996948242</ele>
        <time>2016-08-08T19:16:06.000Z</time>
      </trkpt>
      <trkpt lat="48.83448" lon="2.31361">
        <ele>69</ele>
        <time>2016-08-08T19:16:08.000Z</time>
      </trkpt>
      <trkpt lat="48.83457" lon="2.31344">
        <ele>68.199996948242</ele>
        <time>2016-08-08T19:16:12.000Z</time>
      </trkpt>
      <trkpt lat="48.83471" lon="2.31323">
        <ele>66.800003051758</ele>
        <time>2016-08-08T19:16:17.000Z</time>
      </trkpt>
      <trkpt lat="48.83483" lon="2.31302">
        <ele>65</ele>
        <time>2016-08-08T19:16:22.000Z</time>
      </trkpt>
      <trkpt lat="48.83493" lon="2.31284">
        <ele>63.799999237061</ele>
        <time>2016-08-08T19:16:30.000Z</time>
      </trkpt>
      <trkpt lat="48.83523" lon="2.31252">
        <ele>61.200000762939</ele>
        <time>2016-08-08T19:16:37.000Z</time>
      </trkpt>
      <trkpt lat="48.83534" lon="2.3122">
        <ele>60.799999237061</ele>
        <time>2016-08-08T19:16:41.000Z</time>
      </trkpt>
      <trkpt lat="48.83541" lon="2.31192">
        <ele>60.599998474121</ele>
        <time>2016-08-08T19:16:45.000Z</time>
      </trkpt>
      <trkpt lat="48.83551" lon="2.31165">
        <ele>60.599998474121</ele>
        <time>2016-08-08T19:16:50.000Z</time>
      </trkpt>
      <trkpt lat="48.83564" lon="2.31141">
        <ele>61.400001525879</ele>
        <time>2016-08-08T19:16:56.000Z</time>
      </trkpt>
      <trkpt lat="48.83568" lon="2.31132">
        <ele>61.599998474121</ele>
        <time>2016-08-08T19:16:58.000Z</time>
      </trkpt>
      <trkpt lat="48.83576" lon="2.31112">
        <ele>62.200000762939</ele>
        <time>2016-08-08T19:17:02.000Z</time>
      </trkpt>
      <trkpt lat="48.83587" lon="2.31083">
        <ele>63.200000762939</ele>
        <time>2016-08-08T19:17:07.000Z</time>
      </trkpt>
      <trkpt lat="48.8359" lon="2.31077">
        <ele>63.200000762939</ele>
        <time>2016-08-08T19:17:08.000Z</time>
      </trkpt>
      <trkpt lat="48.83604" lon="2.31054">
        <ele>63.599998474121</ele>
        <time>2016-08-08T19:17:12.000Z</time>
      </trkpt>
      <trkpt lat="48.83612" lon="2.31044">
        <ele>63.599998474121</ele>
        <time>2016-08-08T19:17:14.000Z</time>
      </trkpt>
      <trkpt lat="48.83626" lon="2.31026">
        <ele>63.200000762939</ele>
        <time>2016-08-08T19:17:18.000Z</time>
      </trkpt>
      <trkpt lat="48.8364" lon="2.30999">
        <ele>63.599998474121</ele>
        <time>2016-08-08T19:17:23.000Z</time>
      </trkpt>
      <trkpt lat="48.83653" lon="2.30977">
        <ele>63.200000762939</ele>
        <time>2016-08-08T19:17:27.000Z</time>
      </trkpt>
      <trkpt lat="48.83666" lon="2.30953">
        <ele>63</ele>
        <time>2016-08-08T19:17:31.000Z</time>
      </trkpt>
      <trkpt lat="48.83682" lon="2.30932">
        <ele>63</ele>
        <time>2016-08-08T19:17:35.000Z</time>
      </trkpt>
      <trkpt lat="48.83698" lon="2.30907">
        <ele>62.400001525879</ele>
        <time>2016-08-08T19:17:39.000Z</time>
      </trkpt>
      <trkpt lat="48.83711" lon="2.30892">
        <ele>61.400001525879</ele>
        <time>2016-08-08T19:17:42.000Z</time>
      </trkpt>
      <trkpt lat="48.83727" lon="2.30866">
        <ele>60.200000762939</ele>
        <time>2016-08-08T19:17:46.000Z</time>
      </trkpt>
      <trkpt lat="48.8374" lon="2.30835">
        <ele>60.799999237061</ele>
        <time>2016-08-08T19:17:50.000Z</time>
      </trkpt>
      <trkpt lat="48.83748" lon="2.30812">
        <ele>60.200000762939</ele>
        <time>2016-08-08T19:17:53.000Z</time>
      </trkpt>
      <trkpt lat="48.83758" lon="2.30785">
        <ele>59.599998474121</ele>
        <time>2016-08-08T19:17:57.000Z</time>
      </trkpt>
      <trkpt lat="48.8376" lon="2.3078">
        <ele>59.400001525879</ele>
        <time>2016-08-08T19:17:58.000Z</time>
      </trkpt>
      <trkpt lat="48.83777" lon="2.30759">
        <ele>59.200000762939</ele>
        <time>2016-08-08T19:18:03.000Z</time>
      </trkpt>
      <trkpt lat="48.83793" lon="2.3074">
        <ele>59.200000762939</ele>
        <time>2016-08-08T19:18:07.000Z</time>
      </trkpt>
      <trkpt lat="48.83813" lon="2.30723">
        <ele>59.200000762939</ele>
        <time>2016-08-08T19:18:11.000Z</time>
      </trkpt>
      <trkpt lat="48.83832" lon="2.30708">
        <ele>58.400001525879</ele>
        <time>2016-08-08T19:18:15.000Z</time>
      </trkpt>
      <trkpt lat="48.83851" lon="2.30694">
        <ele>56.599998474121</ele>
        <time>2016-08-08T19:18:20.000Z</time>
      </trkpt>
      <trkpt lat="48.83862" lon="2.30669">
        <ele>54.200000762939</ele>
        <time>2016-08-08T19:18:25.000Z</time>
      </trkpt>
      <trkpt lat="48.83873" lon="2.30658">
        <ele>53.400001525879</ele>
        <time>2016-08-08T19:18:28.000Z</time>
      </trkpt>
      <trkpt lat="48.83889" lon="2.30644">
        <ele>52.599998474121</ele>
        <time>2016-08-08T19:18:32.000Z</time>
      </trkpt>
      <trkpt lat="48.83901" lon="2.30635">
        <ele>52</ele>
        <time>2016-08-08T19:18:35.000Z</time>
      </trkpt>
      <trkpt lat="48.8391" lon="2.30625">
        <ele>52.200000762939</ele>
        <time>2016-08-08T19:18:38.000Z</time>
      </trkpt>
      <trkpt lat="48.83915" lon="2.30619">
        <ele>52.599998474121</ele>
        <time>2016-08-08T19:18:40.000Z</time>
      </trkpt>
      <trkpt lat="48.83925" lon="2.30609">
        <ele>53.200000762939</ele>
        <time>2016-08-08T19:18:44.000Z</time>
      </trkpt>
      <trkpt lat="48.83944" lon="2.30604">
        <ele>54</ele>
        <time>2016-08-08T19:18:51.000Z</time>
      </trkpt>
      <trkpt lat="48.83948" lon="2.30605">
        <ele>54.200000762939</ele>
        <time>2016-08-08T19:18:52.000Z</time>
      </trkpt>
      <trkpt lat="48.83957" lon="2.30591">
        <ele>55</ele>
        <time>2016-08-08T19:18:56.000Z</time>
      </trkpt>
      <trkpt lat="48.83972" lon="2.30571">
        <ele>55.599998474121</ele>
        <time>2016-08-08T19:19:04.000Z</time>
      </trkpt>
      <trkpt lat="48.83986" lon="2.30553">
        <ele>56.200000762939</ele>
        <time>2016-08-08T19:19:10.000Z</time>
      </trkpt>
      <trkpt lat="48.83997" lon="2.3054">
        <ele>55.799999237061</ele>
        <time>2016-08-08T19:19:15.000Z</time>
      </trkpt>
      <trkpt lat="48.84014" lon="2.30528">
        <ele>54.599998474121</ele>
        <time>2016-08-08T19:19:20.000Z</time>
      </trkpt>
      <trkpt lat="48.84034" lon="2.30518">
        <ele>53</ele>
        <time>2016-08-08T19:19:26.000Z</time>
      </trkpt>
      <trkpt lat="48.84048" lon="2.30499">
        <ele>51.599998474121</ele>
        <time>2016-08-08T19:19:31.000Z</time>
      </trkpt>
      <trkpt lat="48.84044" lon="2.30471">
        <ele>51.799999237061</ele>
        <time>2016-08-08T19:19:36.000Z</time>
      </trkpt>
      <trkpt lat="48.84038" lon="2.30445">
        <ele>52</ele>
        <time>2016-08-08T19:19:46.000Z</time>
      </trkpt>
      <trkpt lat="48.8405" lon="2.3043">
        <ele>51.400001525879</ele>
        <time>2016-08-08T19:20:24.000Z</time>
      </trkpt>
      <trkpt lat="48.84069" lon="2.30417">
        <ele>50.200000762939</ele>
        <time>2016-08-08T19:20:29.000Z</time>
      </trkpt>
      <trkpt lat="48.84089" lon="2.30405">
        <ele>49</ele>
        <time>2016-08-08T19:20:33.000Z</time>
      </trkpt>
      <trkpt lat="48.84108" lon="2.30391">
        <ele>48.200000762939</ele>
        <time>2016-08-08T19:20:37.000Z</time>
      </trkpt>
      <trkpt lat="48.84126" lon="2.30376">
        <ele>47.400001525879</ele>
        <time>2016-08-08T19:20:41.000Z</time>
      </trkpt>
      <trkpt lat="48.84146" lon="2.30361">
        <ele>46.599998474121</ele>
        <time>2016-08-08T19:20:45.000Z</time>
      </trkpt>
      <trkpt lat="48.84163" lon="2.30347">
        <ele>46</ele>
        <time>2016-08-08T19:20:49.000Z</time>
      </trkpt>
      <trkpt lat="48.84179" lon="2.30333">
        <ele>45.400001525879</ele>
        <time>2016-08-08T19:20:54.000Z</time>
      </trkpt>
      <trkpt lat="48.84173" lon="2.30304">
        <ele>46.400001525879</ele>
        <time>2016-08-08T19:21:00.000Z</time>
      </trkpt>
      <trkpt lat="48.84163" lon="2.30275">
        <ele>47.599998474121</ele>
        <time>2016-08-08T19:21:05.000Z</time>
      </trkpt>
      <trkpt lat="48.84153" lon="2.30248">
        <ele>48.799999237061</ele>
        <time>2016-08-08T19:21:09.000Z</time>
      </trkpt>
      <trkpt lat="48.84146" lon="2.30215">
        <ele>49</ele>
        <time>2016-08-08T19:21:13.000Z</time>
      </trkpt>
      <trkpt lat="48.84138" lon="2.30187">
        <ele>49.400001525879</ele>
        <time>2016-08-08T19:21:16.000Z</time>
      </trkpt>
      <trkpt lat="48.8413" lon="2.30161">
        <ele>50</ele>
        <time>2016-08-08T19:21:19.000Z</time>
      </trkpt>
      <trkpt lat="48.84123" lon="2.30131">
        <ele>49.599998474121</ele>
        <time>2016-08-08T19:21:23.000Z</time>
      </trkpt>
      <trkpt lat="48.84113" lon="2.30106">
        <ele>49.400001525879</ele>
        <time>2016-08-08T19:21:27.000Z</time>
      </trkpt>
      <trkpt lat="48.84102" lon="2.30082">
        <ele>49.200000762939</ele>
        <time>2016-08-08T19:21:32.000Z</time>
      </trkpt>
      <trkpt lat="48.84093" lon="2.30057">
        <ele>49.400001525879</ele>
        <time>2016-08-08T19:21:37.000Z</time>
      </trkpt>
      <trkpt lat="48.8409" lon="2.30049">
        <ele>49.400001525879</ele>
        <time>2016-08-08T19:21:39.000Z</time>
      </trkpt>
      <trkpt lat="48.8409" lon="2.30033">
        <ele>49</ele>
        <time>2016-08-08T19:21:43.000Z</time>
      </trkpt>
      <trkpt lat="48.84094" lon="2.30025">
        <ele>48.400001525879</ele>
        <time>2016-08-08T19:21:47.000Z</time>
      </trkpt>
      <trkpt lat="48.84112" lon="2.30011">
        <ele>47.200000762939</ele>
        <time>2016-08-08T19:21:54.000Z</time>
      </trkpt>
      <trkpt lat="48.84124" lon="2.29989">
        <ele>46.400001525879</ele>
        <time>2016-08-08T19:22:02.000Z</time>
      </trkpt>
      <trkpt lat="48.84121" lon="2.29982">
        <ele>46.400001525879</ele>
        <time>2016-08-08T19:22:09.000Z</time>
      </trkpt>
      <trkpt lat="48.84119" lon="2.29979">
        <ele>46.200000762939</ele>
        <time>2016-08-08T19:23:25.000Z</time>
      </trkpt>
      <trkpt lat="48.84132" lon="2.29968">
        <ele>45.599998474121</ele>
        <time>2016-08-08T19:23:47.000Z</time>
      </trkpt>
      <trkpt lat="48.84136" lon="2.29966">
        <ele>45.599998474121</ele>
        <time>2016-08-08T19:23:49.000Z</time>
      </trkpt>
      <trkpt lat="48.84153" lon="2.29953">
        <ele>44.799999237061</ele>
        <time>2016-08-08T19:23:55.000Z</time>
      </trkpt>
      <trkpt lat="48.84165" lon="2.29931">
        <ele>44</ele>
        <time>2016-08-08T19:24:04.000Z</time>
      </trkpt>
      <trkpt lat="48.84166" lon="2.29927">
        <ele>43.799999237061</ele>
        <time>2016-08-08T19:24:07.000Z</time>
      </trkpt>
      <trkpt lat="48.84169" lon="2.29924">
        <ele>43.799999237061</ele>
        <time>2016-08-08T19:24:10.000Z</time>
      </trkpt>
      <trkpt lat="48.84184" lon="2.29913">
        <ele>43.200000762939</ele>
        <time>2016-08-08T19:24:17.000Z</time>
      </trkpt>
      <trkpt lat="48.84205" lon="2.29908">
        <ele>43.599998474121</ele>
        <time>2016-08-08T19:24:24.000Z</time>
      </trkpt>
      <trkpt lat="48.84225" lon="2.29909">
        <ele>44.400001525879</ele>
        <time>2016-08-08T19:24:30.000Z</time>
      </trkpt>
      <trkpt lat="48.84243" lon="2.29906">
        <ele>45</ele>
        <time>2016-08-08T19:24:35.000Z</time>
      </trkpt>
      <trkpt lat="48.84265" lon="2.29902">
        <ele>45.400001525879</ele>
        <time>2016-08-08T19:24:40.000Z</time>
      </trkpt>
      <trkpt lat="48.84285" lon="2.29894">
        <ele>44</ele>
        <time>2016-08-08T19:24:44.000Z</time>
      </trkpt>
      <trkpt lat="48.84303" lon="2.29887">
        <ele>43</ele>
        <time>2016-08-08T19:24:48.000Z</time>
      </trkpt>
      <trkpt lat="48.84322" lon="2.29878">
        <ele>41.799999237061</ele>
        <time>2016-08-08T19:24:52.000Z</time>
      </trkpt>
      <trkpt lat="48.84345" lon="2.2987">
        <ele>41.799999237061</ele>
        <time>2016-08-08T19:24:57.000Z</time>
      </trkpt>
      <trkpt lat="48.84352" lon="2.29864">
        <ele>41.599998474121</ele>
        <time>2016-08-08T19:24:59.000Z</time>
      </trkpt>
      <trkpt lat="48.84358" lon="2.29859">
        <ele>41.400001525879</ele>
        <time>2016-08-08T19:25:01.000Z</time>
      </trkpt>
      <trkpt lat="48.84361" lon="2.29844">
        <ele>40.799999237061</ele>
        <time>2016-08-08T19:25:06.000Z</time>
      </trkpt>
      <trkpt lat="48.8436" lon="2.2984">
        <ele>40.599998474121</ele>
        <time>2016-08-08T19:25:07.000Z</time>
      </trkpt>
      <trkpt lat="48.8436" lon="2.2981">
        <ele>39.799999237061</ele>
        <time>2016-08-08T19:25:13.000Z</time>
      </trkpt>
      <trkpt lat="48.84365" lon="2.29802">
        <ele>39.799999237061</ele>
        <time>2016-08-08T19:25:15.000Z</time>
      </trkpt>
      <trkpt lat="48.84385" lon="2.29796">
        <ele>40.400001525879</ele>
        <time>2016-08-08T19:25:21.000Z</time>
      </trkpt>
      <trkpt lat="48.84389" lon="2.29796">
        <ele>40.400001525879</ele>
        <time>2016-08-08T19:25:22.000Z</time>
      </trkpt>
      <trkpt lat="48.84411" lon="2.2979">
        <ele>40.599998474121</ele>
        <time>2016-08-08T19:25:26.000Z</time>
      </trkpt>
      <trkpt lat="48.84432" lon="2.29794">
        <ele>40.799999237061</ele>
        <time>2016-08-08T19:25:30.000Z</time>
      </trkpt>
      <trkpt lat="48.84453" lon="2.29798">
        <ele>41</ele>
        <time>2016-08-08T19:25:34.000Z</time>
      </trkpt>
      <trkpt lat="48.84467" lon="2.29793">
        <ele>41</ele>
        <time>2016-08-08T19:25:37.000Z</time>
      </trkpt>
      <trkpt lat="48.84485" lon="2.29786">
        <ele>41.200000762939</ele>
        <time>2016-08-08T19:25:40.000Z</time>
      </trkpt>
      <trkpt lat="48.84505" lon="2.2978">
        <ele>42.200000762939</ele>
        <time>2016-08-08T19:25:45.000Z</time>
      </trkpt>
      <trkpt lat="48.84513" lon="2.29775">
        <ele>42.599998474121</ele>
        <time>2016-08-08T19:25:47.000Z</time>
      </trkpt>
      <trkpt lat="48.84526" lon="2.29756">
        <ele>43</ele>
        <time>2016-08-08T19:25:58.000Z</time>
      </trkpt>
      <trkpt lat="48.84527" lon="2.29753">
        <ele>43</ele>
        <time>2016-08-08T19:25:59.000Z</time>
      </trkpt>
      <trkpt lat="48.8454" lon="2.29732">
        <ele>42.200000762939</ele>
        <time>2016-08-08T19:26:05.000Z</time>
      </trkpt>
      <trkpt lat="48.84553" lon="2.29707">
        <ele>41.200000762939</ele>
        <time>2016-08-08T19:26:10.000Z</time>
      </trkpt>
      <trkpt lat="48.84564" lon="2.29684">
        <ele>40.799999237061</ele>
        <time>2016-08-08T19:26:14.000Z</time>
      </trkpt>
      <trkpt lat="48.84574" lon="2.29661">
        <ele>40.599998474121</ele>
        <time>2016-08-08T19:26:18.000Z</time>
      </trkpt>
      <trkpt lat="48.8458" lon="2.29635">
        <ele>40.400001525879</ele>
        <time>2016-08-08T19:26:22.000Z</time>
      </trkpt>
      <trkpt lat="48.84589" lon="2.29606">
        <ele>40.200000762939</ele>
        <time>2016-08-08T19:26:27.000Z</time>
      </trkpt>
      <trkpt lat="48.84602" lon="2.29578">
        <ele>40</ele>
        <time>2016-08-08T19:26:32.000Z</time>
      </trkpt>
      <trkpt lat="48.8461" lon="2.29554">
        <ele>39.599998474121</ele>
        <time>2016-08-08T19:26:36.000Z</time>
      </trkpt>
      <trkpt lat="48.84613" lon="2.29549">
        <ele>39.599998474121</ele>
        <time>2016-08-08T19:26:37.000Z</time>
      </trkpt>
      <trkpt lat="48.84621" lon="2.29521">
        <ele>39.200000762939</ele>
        <time>2016-08-08T19:26:42.000Z</time>
      </trkpt>
      <trkpt lat="48.84632" lon="2.29495">
        <ele>39.200000762939</ele>
        <time>2016-08-08T19:26:48.000Z</time>
      </trkpt>
      <trkpt lat="48.84642" lon="2.29468">
        <ele>39</ele>
        <time>2016-08-08T19:26:53.000Z</time>
      </trkpt>
      <trkpt lat="48.84645" lon="2.29463">
        <ele>39</ele>
        <time>2016-08-08T19:26:54.000Z</time>
      </trkpt>
      <trkpt lat="48.84655" lon="2.29439">
        <ele>39.799999237061</ele>
        <time>2016-08-08T19:26:58.000Z</time>
      </trkpt>
      <trkpt lat="48.84668" lon="2.29414">
        <ele>41</ele>
        <time>2016-08-08T19:27:03.000Z</time>
      </trkpt>
      <trkpt lat="48.84675" lon="2.29398">
        <ele>41.799999237061</ele>
        <time>2016-08-08T19:27:06.000Z</time>
      </trkpt>
      <trkpt lat="48.84685" lon="2.29371">
        <ele>42</ele>
        <time>2016-08-08T19:27:11.000Z</time>
      </trkpt>
      <trkpt lat="48.84688" lon="2.29367">
        <ele>42</ele>
        <time>2016-08-08T19:27:12.000Z</time>
      </trkpt>
      <trkpt lat="48.84693" lon="2.29361">
        <ele>42.200000762939</ele>
        <time>2016-08-08T19:27:14.000Z</time>
      </trkpt>
      <trkpt lat="48.84699" lon="2.29335">
        <ele>42.400001525879</ele>
        <time>2016-08-08T19:27:19.000Z</time>
      </trkpt>
      <trkpt lat="48.84699" lon="2.2933">
        <ele>42.200000762939</ele>
        <time>2016-08-08T19:27:20.000Z</time>
      </trkpt>
      <trkpt lat="48.847" lon="2.29313">
        <ele>42.200000762939</ele>
        <time>2016-08-08T19:27:23.000Z</time>
      </trkpt>
      <trkpt lat="48.84708" lon="2.29285">
        <ele>42.200000762939</ele>
        <time>2016-08-08T19:27:29.000Z</time>
      </trkpt>
      <trkpt lat="48.84721" lon="2.29261">
        <ele>41.799999237061</ele>
        <time>2016-08-08T19:27:35.000Z</time>
      </trkpt>
      <trkpt lat="48.84731" lon="2.29234">
        <ele>41.200000762939</ele>
        <time>2016-08-08T19:27:40.000Z</time>
      </trkpt>
      <trkpt lat="48.84739" lon="2.29209">
        <ele>41.200000762939</ele>
        <time>2016-08-08T19:27:44.000Z</time>
      </trkpt>
      <trkpt lat="48.84749" lon="2.29183">
        <ele>39.799999237061</ele>
        <time>2016-08-08T19:27:48.000Z</time>
      </trkpt>
      <trkpt lat="48.84762" lon="2.29157">
        <ele>38.599998474121</ele>
        <time>2016-08-08T19:27:52.000Z</time>
      </trkpt>
      <trkpt lat="48.84775" lon="2.2913">
        <ele>38.400001525879</ele>
        <time>2016-08-08T19:27:56.000Z</time>
      </trkpt>
      <trkpt lat="48.84785" lon="2.291">
        <ele>38.599998474121</ele>
        <time>2016-08-08T19:28:00.000Z</time>
      </trkpt>
      <trkpt lat="48.84796" lon="2.29073">
        <ele>39.200000762939</ele>
        <time>2016-08-08T19:28:04.000Z</time>
      </trkpt>
      <trkpt lat="48.84807" lon="2.29047">
        <ele>40.200000762939</ele>
        <time>2016-08-08T19:28:08.000Z</time>
      </trkpt>
      <trkpt lat="48.84812" lon="2.29033">
        <ele>40.599998474121</ele>
        <time>2016-08-08T19:28:10.000Z</time>
      </trkpt>
      <trkpt lat="48.84818" lon="2.29013">
        <ele>41.400001525879</ele>
        <time>2016-08-08T19:28:13.000Z</time>
      </trkpt>
      <trkpt lat="48.84827" lon="2.28988">
        <ele>42.200000762939</ele>
        <time>2016-08-08T19:28:17.000Z</time>
      </trkpt>
      <trkpt lat="48.84829" lon="2.28982">
        <ele>42.400001525879</ele>
        <time>2016-08-08T19:28:18.000Z</time>
      </trkpt>
      <trkpt lat="48.84844" lon="2.28961">
        <ele>42.200000762939</ele>
        <time>2016-08-08T19:28:22.000Z</time>
      </trkpt>
      <trkpt lat="48.84856" lon="2.2894">
        <ele>42</ele>
        <time>2016-08-08T19:28:25.000Z</time>
      </trkpt>
      <trkpt lat="48.84865" lon="2.28913">
        <ele>41.400001525879</ele>
        <time>2016-08-08T19:28:28.000Z</time>
      </trkpt>
      <trkpt lat="48.84874" lon="2.28881">
        <ele>39.400001525879</ele>
        <time>2016-08-08T19:28:31.000Z</time>
      </trkpt>
      <trkpt lat="48.84886" lon="2.28853">
        <ele>37.799999237061</ele>
        <time>2016-08-08T19:28:34.000Z</time>
      </trkpt>
      <trkpt lat="48.84892" lon="2.28845">
        <ele>37.799999237061</ele>
        <time>2016-08-08T19:28:35.000Z</time>
      </trkpt>
      <trkpt lat="48.84904" lon="2.28817">
        <ele>37.599998474121</ele>
        <time>2016-08-08T19:28:38.000Z</time>
      </trkpt>
      <trkpt lat="48.84915" lon="2.2879">
        <ele>37.599998474121</ele>
        <time>2016-08-08T19:28:41.000Z</time>
      </trkpt>
      <trkpt lat="48.84922" lon="2.28771">
        <ele>38</ele>
        <time>2016-08-08T19:28:45.000Z</time>
      </trkpt>
      <trkpt lat="48.84933" lon="2.28742">
        <ele>39</ele>
        <time>2016-08-08T19:28:50.000Z</time>
      </trkpt>
      <trkpt lat="48.84944" lon="2.28715">
        <ele>38.799999237061</ele>
        <time>2016-08-08T19:28:54.000Z</time>
      </trkpt>
      <trkpt lat="48.84952" lon="2.28691">
        <ele>38.400001525879</ele>
        <time>2016-08-08T19:28:58.000Z</time>
      </trkpt>
      <trkpt lat="48.84971" lon="2.28671">
        <ele>38.400001525879</ele>
        <time>2016-08-08T19:29:03.000Z</time>
      </trkpt>
      <trkpt lat="48.84979" lon="2.2865">
        <ele>38.599998474121</ele>
        <time>2016-08-08T19:29:07.000Z</time>
      </trkpt>
      <trkpt lat="48.84982" lon="2.28641">
        <ele>38.400001525879</ele>
        <time>2016-08-08T19:29:11.000Z</time>
      </trkpt>
      <trkpt lat="48.84974" lon="2.2862">
        <ele>38.599998474121</ele>
        <time>2016-08-08T19:29:18.000Z</time>
      </trkpt>
      <trkpt lat="48.84973" lon="2.28617">
        <ele>38.599998474121</ele>
        <time>2016-08-08T19:29:20.000Z</time>
      </trkpt>
      <trkpt lat="48.84971" lon="2.28609">
        <ele>38.799999237061</ele>
        <time>2016-08-08T19:29:33.000Z</time>
      </trkpt>
      <trkpt lat="48.84986" lon="2.28589">
        <ele>40.200000762939</ele>
        <time>2016-08-08T19:29:44.000Z</time>
      </trkpt>
      <trkpt lat="48.85001" lon="2.28566">
        <ele>41.400001525879</ele>
        <time>2016-08-08T19:29:50.000Z</time>
      </trkpt>
      <trkpt lat="48.85013" lon="2.28526">
        <ele>43.400001525879</ele>
        <time>2016-08-08T19:29:55.000Z</time>
      </trkpt>
      <trkpt lat="48.85017" lon="2.28492">
        <ele>44.799999237061</ele>
        <time>2016-08-08T19:29:59.000Z</time>
      </trkpt>
      <trkpt lat="48.85021" lon="2.28462">
        <ele>44.599998474121</ele>
        <time>2016-08-08T19:30:03.000Z</time>
      </trkpt>
      <trkpt lat="48.85028" lon="2.28432">
        <ele>43.599998474121</ele>
        <time>2016-08-08T19:30:08.000Z</time>
      </trkpt>
      <trkpt lat="48.85046" lon="2.28408">
        <ele>41</ele>
        <time>2016-08-08T19:30:11.000Z</time>
      </trkpt>
      <trkpt lat="48.85074" lon="2.28407">
        <ele>37.599998474121</ele>
        <time>2016-08-08T19:30:16.000Z</time>
      </trkpt>
      <trkpt lat="48.85074" lon="2.28405">
        <ele>37.400001525879</ele>
        <time>2016-08-08T19:30:17.000Z</time>
      </trkpt>
      <trkpt lat="48.85075" lon="2.28401">
        <ele>37.200000762939</ele>
        <time>2016-08-08T19:30:19.000Z</time>
      </trkpt>
      <trkpt lat="48.85077" lon="2.28403">
        <ele>37</ele>
        <time>2016-08-08T19:30:38.000Z</time>
      </trkpt>
      <trkpt lat="48.85086" lon="2.2843">
        <ele>36.400001525879</ele>
        <time>2016-08-08T19:30:48.000Z</time>
      </trkpt>
      <trkpt lat="48.85102" lon="2.28448">
        <ele>34.599998474121</ele>
        <time>2016-08-08T19:30:53.000Z</time>
      </trkpt>
      <trkpt lat="48.85119" lon="2.28468">
        <ele>33.799999237061</ele>
        <time>2016-08-08T19:30:57.000Z</time>
      </trkpt>
      <trkpt lat="48.85134" lon="2.28486">
        <ele>33.599998474121</ele>
        <time>2016-08-08T19:31:02.000Z</time>
      </trkpt>
      <trkpt lat="48.85151" lon="2.28508">
        <ele>35.200000762939</ele>
        <time>2016-08-08T19:31:07.000Z</time>
      </trkpt>
      <trkpt lat="48.85166" lon="2.28526">
        <ele>38</ele>
        <time>2016-08-08T19:31:12.000Z</time>
      </trkpt>
      <trkpt lat="48.85182" lon="2.28544">
        <ele>40.599998474121</ele>
        <time>2016-08-08T19:31:17.000Z</time>
      </trkpt>
      <trkpt lat="48.85199" lon="2.28565">
        <ele>42.599998474121</ele>
        <time>2016-08-08T19:31:22.000Z</time>
      </trkpt>
      <trkpt lat="48.85213" lon="2.28585">
        <ele>43.400001525879</ele>
        <time>2016-08-08T19:31:26.000Z</time>
      </trkpt>
      <trkpt lat="48.85226" lon="2.28605">
        <ele>42.400001525879</ele>
        <time>2016-08-08T19:31:31.000Z</time>
      </trkpt>
      <trkpt lat="48.85232" lon="2.28614">
        <ele>42.200000762939</ele>
        <time>2016-08-08T19:31:34.000Z</time>
      </trkpt>
      <trkpt lat="48.85243" lon="2.28614">
        <ele>40.799999237061</ele>
        <time>2016-08-08T19:31:39.000Z</time>
      </trkpt>
      <trkpt lat="48.85262" lon="2.28624">
        <ele>38.799999237061</ele>
        <time>2016-08-08T19:31:45.000Z</time>
      </trkpt>
      <trkpt lat="48.85279" lon="2.28649">
        <ele>38.200000762939</ele>
        <time>2016-08-08T19:31:49.000Z</time>
      </trkpt>
      <trkpt lat="48.85294" lon="2.2867">
        <ele>38.400001525879</ele>
        <time>2016-08-08T19:31:52.000Z</time>
      </trkpt>
      <trkpt lat="48.85312" lon="2.28695">
        <ele>39</ele>
        <time>2016-08-08T19:31:55.000Z</time>
      </trkpt>
      <trkpt lat="48.85329" lon="2.28722">
        <ele>39.599998474121</ele>
        <time>2016-08-08T19:31:58.000Z</time>
      </trkpt>
      <trkpt lat="48.85347" lon="2.2875">
        <ele>39.799999237061</ele>
        <time>2016-08-08T19:32:01.000Z</time>
      </trkpt>
      <trkpt lat="48.85361" lon="2.28768">
        <ele>40.200000762939</ele>
        <time>2016-08-08T19:32:03.000Z</time>
      </trkpt>
      <trkpt lat="48.85381" lon="2.28795">
        <ele>40.599998474121</ele>
        <time>2016-08-08T19:32:06.000Z</time>
      </trkpt>
      <trkpt lat="48.85399" lon="2.28822">
        <ele>41</ele>
        <time>2016-08-08T19:32:09.000Z</time>
      </trkpt>
      <trkpt lat="48.85414" lon="2.28845">
        <ele>41.599998474121</ele>
        <time>2016-08-08T19:32:12.000Z</time>
      </trkpt>
      <trkpt lat="48.85428" lon="2.28863">
        <ele>42.200000762939</ele>
        <time>2016-08-08T19:32:15.000Z</time>
      </trkpt>
      <trkpt lat="48.8544" lon="2.28879">
        <ele>42.599998474121</ele>
        <time>2016-08-08T19:32:19.000Z</time>
      </trkpt>
      <trkpt lat="48.85454" lon="2.28898">
        <ele>42.599998474121</ele>
        <time>2016-08-08T19:32:27.000Z</time>
      </trkpt>
      <trkpt lat="48.85454" lon="2.28898">
        <ele>42.599998474121</ele>
        <time>2016-08-08T19:32:28.000Z</time>
      </trkpt>
      <trkpt lat="48.85468" lon="2.28883">
        <ele>41.200000762939</ele>
        <time>2016-08-08T19:32:44.000Z</time>
      </trkpt>
      <trkpt lat="48.85482" lon="2.28865">
        <ele>39.799999237061</ele>
        <time>2016-08-08T19:32:49.000Z</time>
      </trkpt>
      <trkpt lat="48.85496" lon="2.2885">
        <ele>38.400001525879</ele>
        <time>2016-08-08T19:32:53.000Z</time>
      </trkpt>
      <trkpt lat="48.85514" lon="2.28836">
        <ele>36.799999237061</ele>
        <time>2016-08-08T19:32:57.000Z</time>
      </trkpt>
      <trkpt lat="48.85532" lon="2.28819">
        <ele>35.200000762939</ele>
        <time>2016-08-08T19:33:01.000Z</time>
      </trkpt>
      <trkpt lat="48.85549" lon="2.28801">
        <ele>34</ele>
        <time>2016-08-08T19:33:05.000Z</time>
      </trkpt>
      <trkpt lat="48.85569" lon="2.28783">
        <ele>33</ele>
        <time>2016-08-08T19:33:09.000Z</time>
      </trkpt>
      <trkpt lat="48.85588" lon="2.28764">
        <ele>33</ele>
        <time>2016-08-08T19:33:13.000Z</time>
      </trkpt>
      <trkpt lat="48.85608" lon="2.28744">
        <ele>33</ele>
        <time>2016-08-08T19:33:17.000Z</time>
      </trkpt>
      <trkpt lat="48.85622" lon="2.28726">
        <ele>32.400001525879</ele>
        <time>2016-08-08T19:33:20.000Z</time>
      </trkpt>
      <trkpt lat="48.85638" lon="2.28707">
        <ele>31.799999237061</ele>
        <time>2016-08-08T19:33:24.000Z</time>
      </trkpt>
      <trkpt lat="48.85653" lon="2.28691">
        <ele>34</ele>
        <time>2016-08-08T19:33:28.000Z</time>
      </trkpt>
      <trkpt lat="48.85662" lon="2.28679">
        <ele>36.599998474121</ele>
        <time>2016-08-08T19:33:32.000Z</time>
      </trkpt>
      <trkpt lat="48.8567" lon="2.28671">
        <ele>38.599998474121</ele>
        <time>2016-08-08T19:33:36.000Z</time>
      </trkpt>
      <trkpt lat="48.85671" lon="2.28668">
        <ele>39.200000762939</ele>
        <time>2016-08-08T19:33:38.000Z</time>
      </trkpt>
      <trkpt lat="48.85675" lon="2.28661">
        <ele>40.400001525879</ele>
        <time>2016-08-08T19:33:46.000Z</time>
      </trkpt>
      <trkpt lat="48.8568" lon="2.28656">
        <ele>41.599998474121</ele>
        <time>2016-08-08T19:33:53.000Z</time>
      </trkpt>
      <trkpt lat="48.85695" lon="2.28638">
        <ele>44.799999237061</ele>
        <time>2016-08-08T19:34:17.000Z</time>
      </trkpt>
      <trkpt lat="48.8571" lon="2.28616">
        <ele>48.599998474121</ele>
        <time>2016-08-08T19:34:24.000Z</time>
      </trkpt>
      <trkpt lat="48.85722" lon="2.28594">
        <ele>50.200000762939</ele>
        <time>2016-08-08T19:34:33.000Z</time>
      </trkpt>
      <trkpt lat="48.85726" lon="2.28595">
        <ele>50.599998474121</ele>
        <time>2016-08-08T19:34:38.000Z</time>
      </trkpt>
      <trkpt lat="48.8573" lon="2.28598">
        <ele>50.799999237061</ele>
        <time>2016-08-08T19:34:42.000Z</time>
      </trkpt>
      <trkpt lat="48.85734" lon="2.28603">
        <ele>51.200000762939</ele>
        <time>2016-08-08T19:34:49.000Z</time>
      </trkpt>
      <trkpt lat="48.85739" lon="2.28598">
        <ele>51.400001525879</ele>
        <time>2016-08-08T19:35:03.000Z</time>
      </trkpt>
      <trkpt lat="48.85746" lon="2.28595">
        <ele>51.799999237061</ele>
        <time>2016-08-08T19:35:10.000Z</time>
      </trkpt>
      <trkpt lat="48.8575" lon="2.28594">
        <ele>52</ele>
        <time>2016-08-08T19:35:14.000Z</time>
      </trkpt>
      <trkpt lat="48.85764" lon="2.2858">
        <ele>52.400001525879</ele>
        <time>2016-08-08T19:35:29.000Z</time>
      </trkpt>
      <trkpt lat="48.85775" lon="2.28567">
        <ele>53.599998474121</ele>
        <time>2016-08-08T19:35:43.000Z</time>
      </trkpt>
      <trkpt lat="48.85774" lon="2.28562">
        <ele>53.400001525879</ele>
        <time>2016-08-08T19:35:47.000Z</time>
      </trkpt>
      <trkpt lat="48.85784" lon="2.28552">
        <ele>55</ele>
        <time>2016-08-08T19:36:54.000Z</time>
      </trkpt>
      <trkpt lat="48.85782" lon="2.28551">
        <ele>54.599998474121</ele>
        <time>2016-08-08T19:36:58.000Z</time>
      </trkpt>
      <trkpt lat="48.85772" lon="2.28547">
        <ele>53.400001525879</ele>
        <time>2016-08-08T19:38:02.000Z</time>
      </trkpt>
      <trkpt lat="48.85787" lon="2.28531">
        <ele>55.599998474121</ele>
        <time>2016-08-08T19:38:11.000Z</time>
      </trkpt>
      <trkpt lat="48.85789" lon="2.28528">
        <ele>56</ele>
        <time>2016-08-08T19:38:12.000Z</time>
      </trkpt>
      <trkpt lat="48.85808" lon="2.28514">
        <ele>58.400001525879</ele>
        <time>2016-08-08T19:38:19.000Z</time>
      </trkpt>
      <trkpt lat="48.85825" lon="2.28501">
        <ele>60.200000762939</ele>
        <time>2016-08-08T19:38:25.000Z</time>
      </trkpt>
      <trkpt lat="48.85842" lon="2.28488">
        <ele>63.200000762939</ele>
        <time>2016-08-08T19:38:34.000Z</time>
      </trkpt>
      <trkpt lat="48.85845" lon="2.28484">
        <ele>64</ele>
        <time>2016-08-08T19:38:37.000Z</time>
      </trkpt>
      <trkpt lat="48.85845" lon="2.28468">
        <ele>64.400001525879</ele>
        <time>2016-08-08T19:39:37.000Z</time>
      </trkpt>
      <trkpt lat="48.85851" lon="2.28463">
        <ele>65</ele>
        <time>2016-08-08T19:39:58.000Z</time>
      </trkpt>
      <trkpt lat="48.85861" lon="2.28454">
        <ele>66</ele>
        <time>2016-08-08T19:40:05.000Z</time>
      </trkpt>
      <trkpt lat="48.85868" lon="2.28428">
        <ele>67.599998474121</ele>
        <time>2016-08-08T19:40:11.000Z</time>
      </trkpt>
      <trkpt lat="48.85874" lon="2.28419">
        <ele>67.599998474121</ele>
        <time>2016-08-08T19:40:13.000Z</time>
      </trkpt>
      <trkpt lat="48.85888" lon="2.28396">
        <ele>69</ele>
        <time>2016-08-08T19:40:17.000Z</time>
      </trkpt>
      <trkpt lat="48.85899" lon="2.28377">
        <ele>70.400001525879</ele>
        <time>2016-08-08T19:40:20.000Z</time>
      </trkpt>
      <trkpt lat="48.85909" lon="2.28354">
        <ele>70</ele>
        <time>2016-08-08T19:40:23.000Z</time>
      </trkpt>
      <trkpt lat="48.85917" lon="2.28341">
        <ele>69.599998474121</ele>
        <time>2016-08-08T19:40:25.000Z</time>
      </trkpt>
      <trkpt lat="48.85927" lon="2.28322">
        <ele>69.199996948242</ele>
        <time>2016-08-08T19:40:28.000Z</time>
      </trkpt>
      <trkpt lat="48.85939" lon="2.28295">
        <ele>70.199996948242</ele>
        <time>2016-08-08T19:40:32.000Z</time>
      </trkpt>
      <trkpt lat="48.85953" lon="2.28267">
        <ele>71.400001525879</ele>
        <time>2016-08-08T19:40:36.000Z</time>
      </trkpt>
      <trkpt lat="48.85959" lon="2.28254">
        <ele>71.800003051758</ele>
        <time>2016-08-08T19:40:38.000Z</time>
      </trkpt>
      <trkpt lat="48.85973" lon="2.28229">
        <ele>71.800003051758</ele>
        <time>2016-08-08T19:40:42.000Z</time>
      </trkpt>
      <trkpt lat="48.85981" lon="2.28214">
        <ele>71.599998474121</ele>
        <time>2016-08-08T19:40:45.000Z</time>
      </trkpt>
      <trkpt lat="48.85997" lon="2.28192">
        <ele>72.400001525879</ele>
        <time>2016-08-08T19:40:50.000Z</time>
      </trkpt>
      <trkpt lat="48.86004" lon="2.28179">
        <ele>73</ele>
        <time>2016-08-08T19:40:53.000Z</time>
      </trkpt>
      <trkpt lat="48.86012" lon="2.28167">
        <ele>73.599998474121</ele>
        <time>2016-08-08T19:40:56.000Z</time>
      </trkpt>
      <trkpt lat="48.86022" lon="2.28153">
        <ele>74</ele>
        <time>2016-08-08T19:41:00.000Z</time>
      </trkpt>
      <trkpt lat="48.86027" lon="2.28143">
        <ele>74</ele>
        <time>2016-08-08T19:41:04.000Z</time>
      </trkpt>
      <trkpt lat="48.86025" lon="2.28126">
        <ele>74</ele>
        <time>2016-08-08T19:41:08.000Z</time>
      </trkpt>
      <trkpt lat="48.86025" lon="2.28123">
        <ele>74</ele>
        <time>2016-08-08T19:41:09.000Z</time>
      </trkpt>
      <trkpt lat="48.86036" lon="2.28102">
        <ele>73.800003051758</ele>
        <time>2016-08-08T19:41:42.000Z</time>
      </trkpt>
      <trkpt lat="48.8604" lon="2.28074">
        <ele>74.199996948242</ele>
        <time>2016-08-08T19:41:48.000Z</time>
      </trkpt>
      <trkpt lat="48.86055" lon="2.28053">
        <ele>74</ele>
        <time>2016-08-08T19:41:53.000Z</time>
      </trkpt>
      <trkpt lat="48.86067" lon="2.28027">
        <ele>73.800003051758</ele>
        <time>2016-08-08T19:41:58.000Z</time>
      </trkpt>
      <trkpt lat="48.8608" lon="2.28003">
        <ele>73.199996948242</ele>
        <time>2016-08-08T19:42:04.000Z</time>
      </trkpt>
      <trkpt lat="48.86095" lon="2.27986">
        <ele>72.599998474121</ele>
        <time>2016-08-08T19:42:11.000Z</time>
      </trkpt>
      <trkpt lat="48.86109" lon="2.27968">
        <ele>72.599998474121</ele>
        <time>2016-08-08T19:42:16.000Z</time>
      </trkpt>
      <trkpt lat="48.86124" lon="2.27952">
        <ele>72</ele>
        <time>2016-08-08T19:42:21.000Z</time>
      </trkpt>
      <trkpt lat="48.86137" lon="2.27932">
        <ele>71.400001525879</ele>
        <time>2016-08-08T19:42:26.000Z</time>
      </trkpt>
      <trkpt lat="48.86151" lon="2.27908">
        <ele>71</ele>
        <time>2016-08-08T19:42:31.000Z</time>
      </trkpt>
      <trkpt lat="48.86163" lon="2.2788">
        <ele>70.400001525879</ele>
        <time>2016-08-08T19:42:36.000Z</time>
      </trkpt>
      <trkpt lat="48.86176" lon="2.27859">
        <ele>69.400001525879</ele>
        <time>2016-08-08T19:42:40.000Z</time>
      </trkpt>
      <trkpt lat="48.86189" lon="2.27835">
        <ele>68.199996948242</ele>
        <time>2016-08-08T19:42:44.000Z</time>
      </trkpt>
      <trkpt lat="48.86206" lon="2.27815">
        <ele>66.599998474121</ele>
        <time>2016-08-08T19:42:48.000Z</time>
      </trkpt>
      <trkpt lat="48.86218" lon="2.27797">
        <ele>65.400001525879</ele>
        <time>2016-08-08T19:42:51.000Z</time>
      </trkpt>
      <trkpt lat="48.86232" lon="2.27768">
        <ele>64.599998474121</ele>
        <time>2016-08-08T19:42:55.000Z</time>
      </trkpt>
      <trkpt lat="48.86242" lon="2.27745">
        <ele>64.599998474121</ele>
        <time>2016-08-08T19:42:58.000Z</time>
      </trkpt>
      <trkpt lat="48.86253" lon="2.2772">
        <ele>64.599998474121</ele>
        <time>2016-08-08T19:43:01.000Z</time>
      </trkpt>
      <trkpt lat="48.86261" lon="2.27693">
        <ele>64.400001525879</ele>
        <time>2016-08-08T19:43:04.000Z</time>
      </trkpt>
      <trkpt lat="48.86273" lon="2.27663">
        <ele>64</ele>
        <time>2016-08-08T19:43:08.000Z</time>
      </trkpt>
      <trkpt lat="48.86275" lon="2.27655">
        <ele>64</ele>
        <time>2016-08-08T19:43:09.000Z</time>
      </trkpt>
      <trkpt lat="48.86284" lon="2.2764">
        <ele>64.400001525879</ele>
        <time>2016-08-08T19:43:13.000Z</time>
      </trkpt>
      <trkpt lat="48.86286" lon="2.27638">
        <ele>64.400001525879</ele>
        <time>2016-08-08T19:43:14.000Z</time>
      </trkpt>
      <trkpt lat="48.863" lon="2.27639">
        <ele>65</ele>
        <time>2016-08-08T19:43:20.000Z</time>
      </trkpt>
      <trkpt lat="48.86306" lon="2.27641">
        <ele>65.199996948242</ele>
        <time>2016-08-08T19:43:22.000Z</time>
      </trkpt>
      <trkpt lat="48.86324" lon="2.27648">
        <ele>65.800003051758</ele>
        <time>2016-08-08T19:43:27.000Z</time>
      </trkpt>
      <trkpt lat="48.86343" lon="2.27659">
        <ele>66.599998474121</ele>
        <time>2016-08-08T19:43:32.000Z</time>
      </trkpt>
      <trkpt lat="48.86361" lon="2.2767">
        <ele>66.800003051758</ele>
        <time>2016-08-08T19:43:36.000Z</time>
      </trkpt>
      <trkpt lat="48.86382" lon="2.27683">
        <ele>66.199996948242</ele>
        <time>2016-08-08T19:43:41.000Z</time>
      </trkpt>
      <trkpt lat="48.86385" lon="2.27695">
        <ele>66</ele>
        <time>2016-08-08T19:43:43.000Z</time>
      </trkpt>
      <trkpt lat="48.86396" lon="2.27714">
        <ele>65.599998474121</ele>
        <time>2016-08-08T19:43:47.000Z</time>
      </trkpt>
      <trkpt lat="48.864" lon="2.27699">
        <ele>65.599998474121</ele>
        <time>2016-08-08T19:43:58.000Z</time>
      </trkpt>
      <trkpt lat="48.864" lon="2.27685">
        <ele>65.599998474121</ele>
        <time>2016-08-08T19:44:04.000Z</time>
      </trkpt>
      <trkpt lat="48.86396" lon="2.27667">
        <ele>66</ele>
        <time>2016-08-08T19:44:17.000Z</time>
      </trkpt>
      <trkpt lat="48.86401" lon="2.27648">
        <ele>66</ele>
        <time>2016-08-08T19:44:54.000Z</time>
      </trkpt>
      <trkpt lat="48.86401" lon="2.27675">
        <ele>65.800003051758</ele>
        <time>2016-08-08T19:45:05.000Z</time>
      </trkpt>
      <trkpt lat="48.864" lon="2.27705">
        <ele>65.400001525879</ele>
        <time>2016-08-08T19:45:11.000Z</time>
      </trkpt>
      <trkpt lat="48.86405" lon="2.27731">
        <ele>65.199996948242</ele>
        <time>2016-08-08T19:45:17.000Z</time>
      </trkpt>
      <trkpt lat="48.86415" lon="2.27757">
        <ele>65.199996948242</ele>
        <time>2016-08-08T19:45:24.000Z</time>
      </trkpt>
      <trkpt lat="48.86429" lon="2.27775">
        <ele>65</ele>
        <time>2016-08-08T19:45:29.000Z</time>
      </trkpt>
      <trkpt lat="48.86448" lon="2.27791">
        <ele>65.400001525879</ele>
        <time>2016-08-08T19:45:34.000Z</time>
      </trkpt>
      <trkpt lat="48.86465" lon="2.27813">
        <ele>66.599998474121</ele>
        <time>2016-08-08T19:45:39.000Z</time>
      </trkpt>
      <trkpt lat="48.86484" lon="2.27834">
        <ele>67.400001525879</ele>
        <time>2016-08-08T19:45:43.000Z</time>
      </trkpt>
      <trkpt lat="48.86498" lon="2.27852">
        <ele>67.199996948242</ele>
        <time>2016-08-08T19:45:46.000Z</time>
      </trkpt>
      <trkpt lat="48.86513" lon="2.27872">
        <ele>67.199996948242</ele>
        <time>2016-08-08T19:45:49.000Z</time>
      </trkpt>
      <trkpt lat="48.8653" lon="2.27891">
        <ele>67.199996948242</ele>
        <time>2016-08-08T19:45:52.000Z</time>
      </trkpt>
      <trkpt lat="48.86546" lon="2.27909">
        <ele>67.199996948242</ele>
        <time>2016-08-08T19:45:55.000Z</time>
      </trkpt>
      <trkpt lat="48.86561" lon="2.27924">
        <ele>67.199996948242</ele>
        <time>2016-08-08T19:45:58.000Z</time>
      </trkpt>
      <trkpt lat="48.8658" lon="2.27945">
        <ele>67.199996948242</ele>
        <time>2016-08-08T19:46:02.000Z</time>
      </trkpt>
      <trkpt lat="48.86599" lon="2.27962">
        <ele>67.400001525879</ele>
        <time>2016-08-08T19:46:06.000Z</time>
      </trkpt>
      <trkpt lat="48.86616" lon="2.27974">
        <ele>67.199996948242</ele>
        <time>2016-08-08T19:46:10.000Z</time>
      </trkpt>
      <trkpt lat="48.86636" lon="2.27987">
        <ele>67.199996948242</ele>
        <time>2016-08-08T19:46:15.000Z</time>
      </trkpt>
      <trkpt lat="48.86644" lon="2.27992">
        <ele>67.199996948242</ele>
        <time>2016-08-08T19:46:17.000Z</time>
      </trkpt>
      <trkpt lat="48.86653" lon="2.28002">
        <ele>67.199996948242</ele>
        <time>2016-08-08T19:46:21.000Z</time>
      </trkpt>
      <trkpt lat="48.86654" lon="2.28003">
        <ele>67.400001525879</ele>
        <time>2016-08-08T19:46:23.000Z</time>
      </trkpt>
      <trkpt lat="48.86672" lon="2.28017">
        <ele>68</ele>
        <time>2016-08-08T19:46:37.000Z</time>
      </trkpt>
      <trkpt lat="48.86689" lon="2.28027">
        <ele>68.800003051758</ele>
        <time>2016-08-08T19:46:43.000Z</time>
      </trkpt>
      <trkpt lat="48.86706" lon="2.28044">
        <ele>69.199996948242</ele>
        <time>2016-08-08T19:46:49.000Z</time>
      </trkpt>
      <trkpt lat="48.86727" lon="2.28057">
        <ele>69.400001525879</ele>
        <time>2016-08-08T19:46:54.000Z</time>
      </trkpt>
      <trkpt lat="48.86743" lon="2.28072">
        <ele>69.800003051758</ele>
        <time>2016-08-08T19:46:59.000Z</time>
      </trkpt>
      <trkpt lat="48.86763" lon="2.28079">
        <ele>70</ele>
        <time>2016-08-08T19:47:04.000Z</time>
      </trkpt>
      <trkpt lat="48.86778" lon="2.281">
        <ele>69</ele>
        <time>2016-08-08T19:47:08.000Z</time>
      </trkpt>
      <trkpt lat="48.86793" lon="2.28116">
        <ele>68.199996948242</ele>
        <time>2016-08-08T19:47:14.000Z</time>
      </trkpt>
      <trkpt lat="48.86798" lon="2.28127">
        <ele>67.800003051758</ele>
        <time>2016-08-08T19:47:20.000Z</time>
      </trkpt>
      <trkpt lat="48.86818" lon="2.28141">
        <ele>67</ele>
        <time>2016-08-08T19:47:28.000Z</time>
      </trkpt>
      <trkpt lat="48.86838" lon="2.28149">
        <ele>66.599998474121</ele>
        <time>2016-08-08T19:47:33.000Z</time>
      </trkpt>
      <trkpt lat="48.86858" lon="2.28159">
        <ele>66</ele>
        <time>2016-08-08T19:47:37.000Z</time>
      </trkpt>
      <trkpt lat="48.86876" lon="2.28172">
        <ele>65.599998474121</ele>
        <time>2016-08-08T19:47:41.000Z</time>
      </trkpt>
      <trkpt lat="48.86895" lon="2.28184">
        <ele>65.400001525879</ele>
        <time>2016-08-08T19:47:45.000Z</time>
      </trkpt>
      <trkpt lat="48.86912" lon="2.282">
        <ele>65.400001525879</ele>
        <time>2016-08-08T19:47:49.000Z</time>
      </trkpt>
      <trkpt lat="48.86931" lon="2.28213">
        <ele>65.199996948242</ele>
        <time>2016-08-08T19:47:53.000Z</time>
      </trkpt>
      <trkpt lat="48.86951" lon="2.28223">
        <ele>65.199996948242</ele>
        <time>2016-08-08T19:47:57.000Z</time>
      </trkpt>
      <trkpt lat="48.86969" lon="2.28233">
        <ele>65.599998474121</ele>
        <time>2016-08-08T19:48:01.000Z</time>
      </trkpt>
      <trkpt lat="48.86987" lon="2.28245">
        <ele>66</ele>
        <time>2016-08-08T19:48:05.000Z</time>
      </trkpt>
      <trkpt lat="48.87005" lon="2.28253">
        <ele>66</ele>
        <time>2016-08-08T19:48:09.000Z</time>
      </trkpt>
      <trkpt lat="48.87022" lon="2.28256">
        <ele>66.199996948242</ele>
        <time>2016-08-08T19:48:13.000Z</time>
      </trkpt>
      <trkpt lat="48.87029" lon="2.28257">
        <ele>66.199996948242</ele>
        <time>2016-08-08T19:48:15.000Z</time>
      </trkpt>
      <trkpt lat="48.87039" lon="2.28267">
        <ele>66.400001525879</ele>
        <time>2016-08-08T19:48:20.000Z</time>
      </trkpt>
      <trkpt lat="48.87058" lon="2.2828">
        <ele>66.800003051758</ele>
        <time>2016-08-08T19:48:26.000Z</time>
      </trkpt>
      <trkpt lat="48.87077" lon="2.28291">
        <ele>67</ele>
        <time>2016-08-08T19:48:30.000Z</time>
      </trkpt>
      <trkpt lat="48.87094" lon="2.28303">
        <ele>67.199996948242</ele>
        <time>2016-08-08T19:48:34.000Z</time>
      </trkpt>
      <trkpt lat="48.87113" lon="2.2832">
        <ele>67.400001525879</ele>
        <time>2016-08-08T19:48:38.000Z</time>
      </trkpt>
      <trkpt lat="48.87129" lon="2.2834">
        <ele>67.199996948242</ele>
        <time>2016-08-08T19:48:42.000Z</time>
      </trkpt>
      <trkpt lat="48.87148" lon="2.2836">
        <ele>66.800003051758</ele>
        <time>2016-08-08T19:48:46.000Z</time>
      </trkpt>
      <trkpt lat="48.87167" lon="2.28376">
        <ele>66.199996948242</ele>
        <time>2016-08-08T19:48:50.000Z</time>
      </trkpt>
      <trkpt lat="48.87186" lon="2.28388">
        <ele>65.599998474121</ele>
        <time>2016-08-08T19:48:54.000Z</time>
      </trkpt>
      <trkpt lat="48.87206" lon="2.28399">
        <ele>62.200000762939</ele>
        <time>2016-08-08T19:48:58.000Z</time>
      </trkpt>
      <trkpt lat="48.87218" lon="2.28426">
        <ele>60.400001525879</ele>
        <time>2016-08-08T19:49:04.000Z</time>
      </trkpt>
      <trkpt lat="48.87219" lon="2.2843">
        <ele>60.400001525879</ele>
        <time>2016-08-08T19:49:05.000Z</time>
      </trkpt>
      <trkpt lat="48.87221" lon="2.28439">
        <ele>60.400001525879</ele>
        <time>2016-08-08T19:49:07.000Z</time>
      </trkpt>
      <trkpt lat="48.87225" lon="2.28453">
        <ele>60</ele>
        <time>2016-08-08T19:49:11.000Z</time>
      </trkpt>
      <trkpt lat="48.87226" lon="2.2848">
        <ele>59.200000762939</ele>
        <time>2016-08-08T19:49:47.000Z</time>
      </trkpt>
      <trkpt lat="48.87228" lon="2.2849">
        <ele>58.599998474121</ele>
        <time>2016-08-08T19:49:52.000Z</time>
      </trkpt>
      <trkpt lat="48.87229" lon="2.28519">
        <ele>60</ele>
        <time>2016-08-08T19:50:05.000Z</time>
      </trkpt>
      <trkpt lat="48.87229" lon="2.28538">
        <ele>61.200000762939</ele>
        <time>2016-08-08T19:50:11.000Z</time>
      </trkpt>
      <trkpt lat="48.87229" lon="2.28546">
        <ele>61</ele>
        <time>2016-08-08T19:50:16.000Z</time>
      </trkpt>
      <trkpt lat="48.87226" lon="2.28559">
        <ele>61</ele>
        <time>2016-08-08T19:51:06.000Z</time>
      </trkpt>
      <trkpt lat="48.8723" lon="2.28591">
        <ele>60.799999237061</ele>
        <time>2016-08-08T19:51:13.000Z</time>
      </trkpt>
      <trkpt lat="48.87232" lon="2.28616">
        <ele>61.400001525879</ele>
        <time>2016-08-08T19:51:17.000Z</time>
      </trkpt>
      <trkpt lat="48.87236" lon="2.28648">
        <ele>61.599998474121</ele>
        <time>2016-08-08T19:51:21.000Z</time>
      </trkpt>
      <trkpt lat="48.87241" lon="2.28682">
        <ele>62</ele>
        <time>2016-08-08T19:51:25.000Z</time>
      </trkpt>
      <trkpt lat="48.87243" lon="2.287">
        <ele>62.400001525879</ele>
        <time>2016-08-08T19:51:27.000Z</time>
      </trkpt>
      <trkpt lat="48.87245" lon="2.28728">
        <ele>63.400001525879</ele>
        <time>2016-08-08T19:51:30.000Z</time>
      </trkpt>
      <trkpt lat="48.87248" lon="2.28757">
        <ele>65</ele>
        <time>2016-08-08T19:51:33.000Z</time>
      </trkpt>
      <trkpt lat="48.87249" lon="2.28767">
        <ele>65.199996948242</ele>
        <time>2016-08-08T19:51:34.000Z</time>
      </trkpt>
      <trkpt lat="48.87252" lon="2.28796">
        <ele>66.400001525879</ele>
        <time>2016-08-08T19:51:37.000Z</time>
      </trkpt>
      <trkpt lat="48.87254" lon="2.28806">
        <ele>66.599998474121</ele>
        <time>2016-08-08T19:51:38.000Z</time>
      </trkpt>
      <trkpt lat="48.87259" lon="2.28836">
        <ele>67</ele>
        <time>2016-08-08T19:51:41.000Z</time>
      </trkpt>
      <trkpt lat="48.87262" lon="2.28865">
        <ele>67.199996948242</ele>
        <time>2016-08-08T19:51:44.000Z</time>
      </trkpt>
      <trkpt lat="48.87263" lon="2.28894">
        <ele>67.400001525879</ele>
        <time>2016-08-08T19:51:47.000Z</time>
      </trkpt>
      <trkpt lat="48.87265" lon="2.28904">
        <ele>67.400001525879</ele>
        <time>2016-08-08T19:51:48.000Z</time>
      </trkpt>
      <trkpt lat="48.87271" lon="2.28933">
        <ele>66.599998474121</ele>
        <time>2016-08-08T19:51:51.000Z</time>
      </trkpt>
      <trkpt lat="48.87272" lon="2.28943">
        <ele>66.400001525879</ele>
        <time>2016-08-08T19:51:52.000Z</time>
      </trkpt>
      <trkpt lat="48.87275" lon="2.2897">
        <ele>65.599998474121</ele>
        <time>2016-08-08T19:51:55.000Z</time>
      </trkpt>
      <trkpt lat="48.87279" lon="2.29005">
        <ele>65.400001525879</ele>
        <time>2016-08-08T19:51:59.000Z</time>
      </trkpt>
      <trkpt lat="48.87284" lon="2.29039">
        <ele>67.400001525879</ele>
        <time>2016-08-08T19:52:03.000Z</time>
      </trkpt>
      <trkpt lat="48.87287" lon="2.29057">
        <ele>68.400001525879</ele>
        <time>2016-08-08T19:52:05.000Z</time>
      </trkpt>
      <trkpt lat="48.87288" lon="2.29091">
        <ele>69.599998474121</ele>
        <time>2016-08-08T19:52:09.000Z</time>
      </trkpt>
      <trkpt lat="48.87292" lon="2.29119">
        <ele>70.800003051758</ele>
        <time>2016-08-08T19:52:13.000Z</time>
      </trkpt>
      <trkpt lat="48.87293" lon="2.29131">
        <ele>71.400001525879</ele>
        <time>2016-08-08T19:52:15.000Z</time>
      </trkpt>
      <trkpt lat="48.873" lon="2.29158">
        <ele>72.400001525879</ele>
        <time>2016-08-08T19:52:22.000Z</time>
      </trkpt>
      <trkpt lat="48.87315" lon="2.29176">
        <ele>71.199996948242</ele>
        <time>2016-08-08T19:52:26.000Z</time>
      </trkpt>
      <trkpt lat="48.8733" lon="2.29197">
        <ele>69.800003051758</ele>
        <time>2016-08-08T19:52:30.000Z</time>
      </trkpt>
      <trkpt lat="48.87342" lon="2.29219">
        <ele>68.599998474121</ele>
        <time>2016-08-08T19:52:35.000Z</time>
      </trkpt>
      <trkpt lat="48.87348" lon="2.29245">
        <ele>67.800003051758</ele>
        <time>2016-08-08T19:52:41.000Z</time>
      </trkpt>
      <trkpt lat="48.87348" lon="2.29262">
        <ele>67.400001525879</ele>
        <time>2016-08-08T19:52:47.000Z</time>
      </trkpt>
      <trkpt lat="48.87344" lon="2.2926">
        <ele>67.599998474121</ele>
        <time>2016-08-08T19:54:01.000Z</time>
      </trkpt>
      <trkpt lat="48.87347" lon="2.2926">
        <ele>67.400001525879</ele>
        <time>2016-08-08T19:54:06.000Z</time>
      </trkpt>
      <trkpt lat="48.87348" lon="2.29276">
        <ele>67</ele>
        <time>2016-08-08T19:54:22.000Z</time>
      </trkpt>
      <trkpt lat="48.8737" lon="2.29275">
        <ele>65.599998474121</ele>
        <time>2016-08-08T19:54:29.000Z</time>
      </trkpt>
      <trkpt lat="48.87391" lon="2.29273">
        <ele>64.800003051758</ele>
        <time>2016-08-08T19:54:36.000Z</time>
      </trkpt>
      <trkpt lat="48.87409" lon="2.29279">
        <ele>63.599998474121</ele>
        <time>2016-08-08T19:54:41.000Z</time>
      </trkpt>
      <trkpt lat="48.87427" lon="2.2929">
        <ele>62.599998474121</ele>
        <time>2016-08-08T19:54:47.000Z</time>
      </trkpt>
      <trkpt lat="48.87441" lon="2.29307">
        <ele>61.599998474121</ele>
        <time>2016-08-08T19:54:54.000Z</time>
      </trkpt>
      <trkpt lat="48.87459" lon="2.29316">
        <ele>63.200000762939</ele>
        <time>2016-08-08T19:55:00.000Z</time>
      </trkpt>
      <trkpt lat="48.87461" lon="2.29319">
        <ele>63.400001525879</ele>
        <time>2016-08-08T19:55:02.000Z</time>
      </trkpt>
      <trkpt lat="48.87465" lon="2.29326">
        <ele>63.599998474121</ele>
        <time>2016-08-08T19:55:46.000Z</time>
      </trkpt>
      <trkpt lat="48.87479" lon="2.29346">
        <ele>64</ele>
        <time>2016-08-08T19:55:52.000Z</time>
      </trkpt>
      <trkpt lat="48.87494" lon="2.29366">
        <ele>64.400001525879</ele>
        <time>2016-08-08T19:56:00.000Z</time>
      </trkpt>
      <trkpt lat="48.875" lon="2.29393">
        <ele>63.799999237061</ele>
        <time>2016-08-08T19:56:08.000Z</time>
      </trkpt>
      <trkpt lat="48.87509" lon="2.29419">
        <ele>63.599998474121</ele>
        <time>2016-08-08T19:56:17.000Z</time>
      </trkpt>
      <trkpt lat="48.87515" lon="2.29444">
        <ele>63.200000762939</ele>
        <time>2016-08-08T19:56:25.000Z</time>
      </trkpt>
      <trkpt lat="48.87522" lon="2.29471">
        <ele>62.799999237061</ele>
        <time>2016-08-08T19:56:34.000Z</time>
      </trkpt>
      <trkpt lat="48.87521" lon="2.29499">
        <ele>62</ele>
        <time>2016-08-08T19:56:41.000Z</time>
      </trkpt>
      <trkpt lat="48.87515" lon="2.29527">
        <ele>62.400001525879</ele>
        <time>2016-08-08T19:56:46.000Z</time>
      </trkpt>
      <trkpt lat="48.87508" lon="2.29555">
        <ele>62.799999237061</ele>
        <time>2016-08-08T19:56:51.000Z</time>
      </trkpt>
      <trkpt lat="48.87507" lon="2.29579">
        <ele>61.799999237061</ele>
        <time>2016-08-08T19:56:57.000Z</time>
      </trkpt>
      <trkpt lat="48.87509" lon="2.29583">
        <ele>62</ele>
        <time>2016-08-08T19:57:05.000Z</time>
      </trkpt>
      <trkpt lat="48.8751" lon="2.29592">
        <ele>62.400001525879</ele>
        <time>2016-08-08T19:57:17.000Z</time>
      </trkpt>
      <trkpt lat="48.8751" lon="2.29598">
        <ele>62.599998474121</ele>
        <time>2016-08-08T19:57:22.000Z</time>
      </trkpt>
      <trkpt lat="48.8751" lon="2.296">
        <ele>62.599998474121</ele>
        <time>2016-08-08T19:57:23.000Z</time>
      </trkpt>
      <trkpt lat="48.8751" lon="2.29614">
        <ele>63.200000762939</ele>
        <time>2016-08-08T19:57:35.000Z</time>
      </trkpt>
      <trkpt lat="48.87528" lon="2.29628">
        <ele>64.800003051758</ele>
        <time>2016-08-08T19:57:44.000Z</time>
      </trkpt>
      <trkpt lat="48.87548" lon="2.29638">
        <ele>65.599998474121</ele>
        <time>2016-08-08T19:57:50.000Z</time>
      </trkpt>
      <trkpt lat="48.87567" lon="2.29649">
        <ele>66.599998474121</ele>
        <time>2016-08-08T19:57:55.000Z</time>
      </trkpt>
      <trkpt lat="48.87574" lon="2.29654">
        <ele>66.800003051758</ele>
        <time>2016-08-08T19:57:57.000Z</time>
      </trkpt>
      <trkpt lat="48.87591" lon="2.29664">
        <ele>67.599998474121</ele>
        <time>2016-08-08T19:58:02.000Z</time>
      </trkpt>
      <trkpt lat="48.87611" lon="2.29675">
        <ele>67.199996948242</ele>
        <time>2016-08-08T19:58:08.000Z</time>
      </trkpt>
      <trkpt lat="48.87631" lon="2.29687">
        <ele>65.599998474121</ele>
        <time>2016-08-08T19:58:13.000Z</time>
      </trkpt>
      <trkpt lat="48.87652" lon="2.29699">
        <ele>63.599998474121</ele>
        <time>2016-08-08T19:58:18.000Z</time>
      </trkpt>
      <trkpt lat="48.87672" lon="2.29714">
        <ele>61.599998474121</ele>
        <time>2016-08-08T19:58:23.000Z</time>
      </trkpt>
      <trkpt lat="48.87691" lon="2.29725">
        <ele>59.799999237061</ele>
        <time>2016-08-08T19:58:27.000Z</time>
      </trkpt>
      <trkpt lat="48.87711" lon="2.29739">
        <ele>58</ele>
        <time>2016-08-08T19:58:32.000Z</time>
      </trkpt>
      <trkpt lat="48.87722" lon="2.29747">
        <ele>56.799999237061</ele>
        <time>2016-08-08T19:58:35.000Z</time>
      </trkpt>
      <trkpt lat="48.8774" lon="2.2976">
        <ele>54.799999237061</ele>
        <time>2016-08-08T19:58:39.000Z</time>
      </trkpt>
      <trkpt lat="48.87757" lon="2.29773">
        <ele>52.799999237061</ele>
        <time>2016-08-08T19:58:43.000Z</time>
      </trkpt>
      <trkpt lat="48.87773" lon="2.29787">
        <ele>51</ele>
        <time>2016-08-08T19:58:47.000Z</time>
      </trkpt>
      <trkpt lat="48.8778" lon="2.29809">
        <ele>50.599998474121</ele>
        <time>2016-08-08T19:58:52.000Z</time>
      </trkpt>
      <trkpt lat="48.87782" lon="2.2982">
        <ele>50.200000762939</ele>
        <time>2016-08-08T19:58:56.000Z</time>
      </trkpt>
      <trkpt lat="48.8779" lon="2.29834">
        <ele>50.200000762939</ele>
        <time>2016-08-08T19:59:05.000Z</time>
      </trkpt>
      <trkpt lat="48.87806" lon="2.29847">
        <ele>50.599998474121</ele>
        <time>2016-08-08T19:59:14.000Z</time>
      </trkpt>
      <trkpt lat="48.87823" lon="2.29853">
        <ele>50.799999237061</ele>
        <time>2016-08-08T19:59:22.000Z</time>
      </trkpt>
      <trkpt lat="48.87843" lon="2.29847">
        <ele>50.599998474121</ele>
        <time>2016-08-08T19:59:30.000Z</time>
      </trkpt>
      <trkpt lat="48.87862" lon="2.29852">
        <ele>50.599998474121</ele>
        <time>2016-08-08T19:59:36.000Z</time>
      </trkpt>
      <trkpt lat="48.87882" lon="2.29863">
        <ele>50.599998474121</ele>
        <time>2016-08-08T19:59:42.000Z</time>
      </trkpt>
      <trkpt lat="48.87904" lon="2.29874">
        <ele>50.599998474121</ele>
        <time>2016-08-08T19:59:47.000Z</time>
      </trkpt>
      <trkpt lat="48.87923" lon="2.29881">
        <ele>50.599998474121</ele>
        <time>2016-08-08T19:59:51.000Z</time>
      </trkpt>
      <trkpt lat="48.87944" lon="2.2989">
        <ele>50.799999237061</ele>
        <time>2016-08-08T19:59:55.000Z</time>
      </trkpt>
      <trkpt lat="48.87963" lon="2.299">
        <ele>50.799999237061</ele>
        <time>2016-08-08T19:59:59.000Z</time>
      </trkpt>
      <trkpt lat="48.8798" lon="2.29914">
        <ele>51</ele>
        <time>2016-08-08T20:00:04.000Z</time>
      </trkpt>
      <trkpt lat="48.87999" lon="2.29922">
        <ele>51.400001525879</ele>
        <time>2016-08-08T20:00:08.000Z</time>
      </trkpt>
      <trkpt lat="48.8802" lon="2.29934">
        <ele>51.799999237061</ele>
        <time>2016-08-08T20:00:12.000Z</time>
      </trkpt>
      <trkpt lat="48.88035" lon="2.29963">
        <ele>52.799999237061</ele>
        <time>2016-08-08T20:00:17.000Z</time>
      </trkpt>
      <trkpt lat="48.88054" lon="2.29982">
        <ele>53.400001525879</ele>
        <time>2016-08-08T20:00:21.000Z</time>
      </trkpt>
      <trkpt lat="48.88072" lon="2.29996">
        <ele>54</ele>
        <time>2016-08-08T20:00:25.000Z</time>
      </trkpt>
      <trkpt lat="48.88092" lon="2.30005">
        <ele>54.200000762939</ele>
        <time>2016-08-08T20:00:29.000Z</time>
      </trkpt>
      <trkpt lat="48.88096" lon="2.30009">
        <ele>54.200000762939</ele>
        <time>2016-08-08T20:00:30.000Z</time>
      </trkpt>
      <trkpt lat="48.88106" lon="2.30017">
        <ele>54.200000762939</ele>
        <time>2016-08-08T20:00:32.000Z</time>
      </trkpt>
      <trkpt lat="48.8812" lon="2.3004">
        <ele>54.200000762939</ele>
        <time>2016-08-08T20:00:37.000Z</time>
      </trkpt>
      <trkpt lat="48.88135" lon="2.30063">
        <ele>54.200000762939</ele>
        <time>2016-08-08T20:00:42.000Z</time>
      </trkpt>
      <trkpt lat="48.88137" lon="2.30069">
        <ele>54.200000762939</ele>
        <time>2016-08-08T20:00:43.000Z</time>
      </trkpt>
      <trkpt lat="48.88137" lon="2.30077">
        <ele>54.200000762939</ele>
        <time>2016-08-08T20:00:45.000Z</time>
      </trkpt>
      <trkpt lat="48.8814" lon="2.30108">
        <ele>55.200000762939</ele>
        <time>2016-08-08T20:00:50.000Z</time>
      </trkpt>
      <trkpt lat="48.88141" lon="2.30116">
        <ele>55.400001525879</ele>
        <time>2016-08-08T20:00:51.000Z</time>
      </trkpt>
      <trkpt lat="48.88148" lon="2.30148">
        <ele>55.400001525879</ele>
        <time>2016-08-08T20:00:56.000Z</time>
      </trkpt>
      <trkpt lat="48.88149" lon="2.30162">
        <ele>55.599998474121</ele>
        <time>2016-08-08T20:00:58.000Z</time>
      </trkpt>
      <trkpt lat="48.8815" lon="2.30185">
        <ele>55.599998474121</ele>
        <time>2016-08-08T20:01:01.000Z</time>
      </trkpt>
      <trkpt lat="48.88154" lon="2.30198">
        <ele>55.599998474121</ele>
        <time>2016-08-08T20:01:03.000Z</time>
      </trkpt>
      <trkpt lat="48.88162" lon="2.30223">
        <ele>55.599998474121</ele>
        <time>2016-08-08T20:01:07.000Z</time>
      </trkpt>
      <trkpt lat="48.8817" lon="2.30249">
        <ele>55.400001525879</ele>
        <time>2016-08-08T20:01:11.000Z</time>
      </trkpt>
      <trkpt lat="48.88177" lon="2.30269">
        <ele>55.599998474121</ele>
        <time>2016-08-08T20:01:14.000Z</time>
      </trkpt>
      <trkpt lat="48.88182" lon="2.30297">
        <ele>55.799999237061</ele>
        <time>2016-08-08T20:01:18.000Z</time>
      </trkpt>
      <trkpt lat="48.88187" lon="2.30327">
        <ele>55.799999237061</ele>
        <time>2016-08-08T20:01:22.000Z</time>
      </trkpt>
      <trkpt lat="48.88189" lon="2.30334">
        <ele>56</ele>
        <time>2016-08-08T20:01:23.000Z</time>
      </trkpt>
      <trkpt lat="48.88197" lon="2.30361">
        <ele>56</ele>
        <time>2016-08-08T20:01:27.000Z</time>
      </trkpt>
      <trkpt lat="48.88202" lon="2.30388">
        <ele>56</ele>
        <time>2016-08-08T20:01:31.000Z</time>
      </trkpt>
      <trkpt lat="48.88203" lon="2.30403">
        <ele>56</ele>
        <time>2016-08-08T20:01:33.000Z</time>
      </trkpt>
      <trkpt lat="48.88203" lon="2.30431">
        <ele>57</ele>
        <time>2016-08-08T20:01:37.000Z</time>
      </trkpt>
      <trkpt lat="48.88203" lon="2.30441">
        <ele>57</ele>
        <time>2016-08-08T20:01:39.000Z</time>
      </trkpt>
      <trkpt lat="48.88211" lon="2.30459">
        <ele>57</ele>
        <time>2016-08-08T20:01:44.000Z</time>
      </trkpt>
      <trkpt lat="48.88216" lon="2.30479">
        <ele>57</ele>
        <time>2016-08-08T20:01:47.000Z</time>
      </trkpt>
      <trkpt lat="48.88228" lon="2.30506">
        <ele>56.799999237061</ele>
        <time>2016-08-08T20:01:51.000Z</time>
      </trkpt>
      <trkpt lat="48.88238" lon="2.30536">
        <ele>56.599998474121</ele>
        <time>2016-08-08T20:01:55.000Z</time>
      </trkpt>
      <trkpt lat="48.88242" lon="2.30543">
        <ele>56.400001525879</ele>
        <time>2016-08-08T20:01:56.000Z</time>
      </trkpt>
      <trkpt lat="48.88254" lon="2.30567">
        <ele>56</ele>
        <time>2016-08-08T20:01:59.000Z</time>
      </trkpt>
      <trkpt lat="48.88264" lon="2.30596">
        <ele>55.200000762939</ele>
        <time>2016-08-08T20:02:02.000Z</time>
      </trkpt>
      <trkpt lat="48.88277" lon="2.30623">
        <ele>54</ele>
        <time>2016-08-08T20:02:05.000Z</time>
      </trkpt>
      <trkpt lat="48.88289" lon="2.30652">
        <ele>53</ele>
        <time>2016-08-08T20:02:08.000Z</time>
      </trkpt>
      <trkpt lat="48.88299" lon="2.30659">
        <ele>52.799999237061</ele>
        <time>2016-08-08T20:02:09.000Z</time>
      </trkpt>
      <trkpt lat="48.88314" lon="2.3068">
        <ele>52.799999237061</ele>
        <time>2016-08-08T20:02:12.000Z</time>
      </trkpt>
      <trkpt lat="48.88324" lon="2.30697">
        <ele>52.799999237061</ele>
        <time>2016-08-08T20:02:15.000Z</time>
      </trkpt>
      <trkpt lat="48.88334" lon="2.30722">
        <ele>52.799999237061</ele>
        <time>2016-08-08T20:02:21.000Z</time>
      </trkpt>
      <trkpt lat="48.8834" lon="2.30736">
        <ele>53</ele>
        <time>2016-08-08T20:02:25.000Z</time>
      </trkpt>
      <trkpt lat="48.88355" lon="2.30759">
        <ele>53.599998474121</ele>
        <time>2016-08-08T20:02:31.000Z</time>
      </trkpt>
      <trkpt lat="48.88372" lon="2.30783">
        <ele>54.400001525879</ele>
        <time>2016-08-08T20:02:36.000Z</time>
      </trkpt>
      <trkpt lat="48.88384" lon="2.30804">
        <ele>55</ele>
        <time>2016-08-08T20:02:40.000Z</time>
      </trkpt>
      <trkpt lat="48.88394" lon="2.30826">
        <ele>56</ele>
        <time>2016-08-08T20:02:44.000Z</time>
      </trkpt>
      <trkpt lat="48.88395" lon="2.30834">
        <ele>56.200000762939</ele>
        <time>2016-08-08T20:02:45.000Z</time>
      </trkpt>
      <trkpt lat="48.88398" lon="2.30853">
        <ele>56.200000762939</ele>
        <time>2016-08-08T20:02:48.000Z</time>
      </trkpt>
      <trkpt lat="48.88402" lon="2.30864">
        <ele>56.400001525879</ele>
        <time>2016-08-08T20:02:52.000Z</time>
      </trkpt>
      <trkpt lat="48.88403" lon="2.30867">
        <ele>56.400001525879</ele>
        <time>2016-08-08T20:02:53.000Z</time>
      </trkpt>
      <trkpt lat="48.88416" lon="2.30891">
        <ele>56.200000762939</ele>
        <time>2016-08-08T20:03:00.000Z</time>
      </trkpt>
      <trkpt lat="48.88419" lon="2.30895">
        <ele>56.200000762939</ele>
        <time>2016-08-08T20:03:01.000Z</time>
      </trkpt>
      <trkpt lat="48.88434" lon="2.30918">
        <ele>56</ele>
        <time>2016-08-08T20:03:07.000Z</time>
      </trkpt>
      <trkpt lat="48.88449" lon="2.30939">
        <ele>55.599998474121</ele>
        <time>2016-08-08T20:03:12.000Z</time>
      </trkpt>
      <trkpt lat="48.88458" lon="2.30965">
        <ele>55.200000762939</ele>
        <time>2016-08-08T20:03:17.000Z</time>
      </trkpt>
      <trkpt lat="48.88468" lon="2.30993">
        <ele>54.799999237061</ele>
        <time>2016-08-08T20:03:22.000Z</time>
      </trkpt>
      <trkpt lat="48.8848" lon="2.31014">
        <ele>54.799999237061</ele>
        <time>2016-08-08T20:03:26.000Z</time>
      </trkpt>
      <trkpt lat="48.88493" lon="2.31035">
        <ele>54.799999237061</ele>
        <time>2016-08-08T20:03:30.000Z</time>
      </trkpt>
      <trkpt lat="48.88505" lon="2.31056">
        <ele>54.799999237061</ele>
        <time>2016-08-08T20:03:34.000Z</time>
      </trkpt>
      <trkpt lat="48.88509" lon="2.31071">
        <ele>54.799999237061</ele>
        <time>2016-08-08T20:03:37.000Z</time>
      </trkpt>
      <trkpt lat="48.8852" lon="2.31086">
        <ele>55.200000762939</ele>
        <time>2016-08-08T20:03:41.000Z</time>
      </trkpt>
      <trkpt lat="48.88535" lon="2.31104">
        <ele>55.400001525879</ele>
        <time>2016-08-08T20:03:45.000Z</time>
      </trkpt>
      <trkpt lat="48.8855" lon="2.31124">
        <ele>55.400001525879</ele>
        <time>2016-08-08T20:03:49.000Z</time>
      </trkpt>
      <trkpt lat="48.88566" lon="2.3114">
        <ele>55.400001525879</ele>
        <time>2016-08-08T20:03:53.000Z</time>
      </trkpt>
      <trkpt lat="48.88585" lon="2.31158">
        <ele>55.400001525879</ele>
        <time>2016-08-08T20:03:57.000Z</time>
      </trkpt>
      <trkpt lat="48.88587" lon="2.31167">
        <ele>55.599998474121</ele>
        <time>2016-08-08T20:03:58.000Z</time>
      </trkpt>
      <trkpt lat="48.88602" lon="2.31195">
        <ele>55.400001525879</ele>
        <time>2016-08-08T20:04:02.000Z</time>
      </trkpt>
      <trkpt lat="48.88616" lon="2.31223">
        <ele>55.200000762939</ele>
        <time>2016-08-08T20:04:06.000Z</time>
      </trkpt>
      <trkpt lat="48.88633" lon="2.31247">
        <ele>54.400001525879</ele>
        <time>2016-08-08T20:04:10.000Z</time>
      </trkpt>
      <trkpt lat="48.88644" lon="2.3127">
        <ele>54.200000762939</ele>
        <time>2016-08-08T20:04:13.000Z</time>
      </trkpt>
      <trkpt lat="48.88657" lon="2.31289">
        <ele>54</ele>
        <time>2016-08-08T20:04:16.000Z</time>
      </trkpt>
      <trkpt lat="48.88665" lon="2.31304">
        <ele>53.799999237061</ele>
        <time>2016-08-08T20:04:19.000Z</time>
      </trkpt>
      <trkpt lat="48.88673" lon="2.31313">
        <ele>53.599998474121</ele>
        <time>2016-08-08T20:04:22.000Z</time>
      </trkpt>
      <trkpt lat="48.88686" lon="2.31324">
        <ele>53</ele>
        <time>2016-08-08T20:04:27.000Z</time>
      </trkpt>
      <trkpt lat="48.887" lon="2.3134">
        <ele>52.200000762939</ele>
        <time>2016-08-08T20:04:33.000Z</time>
      </trkpt>
      <trkpt lat="48.8871" lon="2.31352">
        <ele>51.599998474121</ele>
        <time>2016-08-08T20:04:38.000Z</time>
      </trkpt>
      <trkpt lat="48.88715" lon="2.31356">
        <ele>51.200000762939</ele>
        <time>2016-08-08T20:04:40.000Z</time>
      </trkpt>
      <trkpt lat="48.88718" lon="2.3136">
        <ele>51</ele>
        <time>2016-08-08T20:04:42.000Z</time>
      </trkpt>
      <trkpt lat="48.88721" lon="2.31365">
        <ele>50.799999237061</ele>
        <time>2016-08-08T20:04:44.000Z</time>
      </trkpt>
      <trkpt lat="48.88729" lon="2.31387">
        <ele>50.599998474121</ele>
        <time>2016-08-08T20:04:50.000Z</time>
      </trkpt>
      <trkpt lat="48.88733" lon="2.31404">
        <ele>50.599998474121</ele>
        <time>2016-08-08T20:04:56.000Z</time>
      </trkpt>
      <trkpt lat="48.8873" lon="2.31409">
        <ele>51</ele>
        <time>2016-08-08T20:05:05.000Z</time>
      </trkpt>
      <trkpt lat="48.88729" lon="2.31419">
        <ele>51.200000762939</ele>
        <time>2016-08-08T20:06:09.000Z</time>
      </trkpt>
      <trkpt lat="48.88735" lon="2.31432">
        <ele>50.400001525879</ele>
        <time>2016-08-08T20:06:17.000Z</time>
      </trkpt>
      <trkpt lat="48.88751" lon="2.31446">
        <ele>48.799999237061</ele>
        <time>2016-08-08T20:06:23.000Z</time>
      </trkpt>
      <trkpt lat="48.88765" lon="2.31466">
        <ele>47.200000762939</ele>
        <time>2016-08-08T20:06:29.000Z</time>
      </trkpt>
      <trkpt lat="48.88778" lon="2.31486">
        <ele>45.799999237061</ele>
        <time>2016-08-08T20:06:34.000Z</time>
      </trkpt>
      <trkpt lat="48.88791" lon="2.31505">
        <ele>45.599998474121</ele>
        <time>2016-08-08T20:06:39.000Z</time>
      </trkpt>
      <trkpt lat="48.88808" lon="2.31523">
        <ele>46</ele>
        <time>2016-08-08T20:06:44.000Z</time>
      </trkpt>
      <trkpt lat="48.88824" lon="2.31538">
        <ele>46</ele>
        <time>2016-08-08T20:06:48.000Z</time>
      </trkpt>
      <trkpt lat="48.8884" lon="2.31555">
        <ele>46.200000762939</ele>
        <time>2016-08-08T20:06:52.000Z</time>
      </trkpt>
      <trkpt lat="48.88854" lon="2.31572">
        <ele>46.599998474121</ele>
        <time>2016-08-08T20:06:57.000Z</time>
      </trkpt>
      <trkpt lat="48.88852" lon="2.31576">
        <ele>47</ele>
        <time>2016-08-08T20:06:58.000Z</time>
      </trkpt>
      <trkpt lat="48.88838" lon="2.31599">
        <ele>47.599998474121</ele>
        <time>2016-08-08T20:07:03.000Z</time>
      </trkpt>
      <trkpt lat="48.88825" lon="2.31626">
        <ele>49</ele>
        <time>2016-08-08T20:07:07.000Z</time>
      </trkpt>
      <trkpt lat="48.88809" lon="2.31652">
        <ele>50.599998474121</ele>
        <time>2016-08-08T20:07:11.000Z</time>
      </trkpt>
      <trkpt lat="48.88797" lon="2.31673">
        <ele>51.599998474121</ele>
        <time>2016-08-08T20:07:15.000Z</time>
      </trkpt>
      <trkpt lat="48.88784" lon="2.31696">
        <ele>52.400001525879</ele>
        <time>2016-08-08T20:07:28.000Z</time>
      </trkpt>
      <trkpt lat="48.88772" lon="2.31718">
        <ele>53.599998474121</ele>
        <time>2016-08-08T20:07:36.000Z</time>
      </trkpt>
      <trkpt lat="48.88757" lon="2.31737">
        <ele>54.599998474121</ele>
        <time>2016-08-08T20:07:42.000Z</time>
      </trkpt>
      <trkpt lat="48.88742" lon="2.31757">
        <ele>55.200000762939</ele>
        <time>2016-08-08T20:07:48.000Z</time>
      </trkpt>
      <trkpt lat="48.88741" lon="2.31763">
        <ele>55.200000762939</ele>
        <time>2016-08-08T20:07:53.000Z</time>
      </trkpt>
      <trkpt lat="48.88728" lon="2.31757">
        <ele>55.200000762939</ele>
        <time>2016-08-08T20:08:07.000Z</time>
      </trkpt>
      <trkpt lat="48.88711" lon="2.31738">
        <ele>54.599998474121</ele>
        <time>2016-08-08T20:08:13.000Z</time>
      </trkpt>
      <trkpt lat="48.88695" lon="2.31718">
        <ele>53.599998474121</ele>
        <time>2016-08-08T20:08:19.000Z</time>
      </trkpt>
      <trkpt lat="48.88678" lon="2.31701">
        <ele>53.400001525879</ele>
        <time>2016-08-08T20:08:25.000Z</time>
      </trkpt>
      <trkpt lat="48.8866" lon="2.31714">
        <ele>54.799999237061</ele>
        <time>2016-08-08T20:08:29.000Z</time>
      </trkpt>
      <trkpt lat="48.88653" lon="2.31722">
        <ele>55</ele>
        <time>2016-08-08T20:08:31.000Z</time>
      </trkpt>
      <trkpt lat="48.88639" lon="2.3174">
        <ele>55</ele>
        <time>2016-08-08T20:08:35.000Z</time>
      </trkpt>
      <trkpt lat="48.88623" lon="2.31757">
        <ele>55.200000762939</ele>
        <time>2016-08-08T20:08:40.000Z</time>
      </trkpt>
      <trkpt lat="48.88619" lon="2.31773">
        <ele>55.799999237061</ele>
        <time>2016-08-08T20:08:44.000Z</time>
      </trkpt>
      <trkpt lat="48.88604" lon="2.31792">
        <ele>57.200000762939</ele>
        <time>2016-08-08T20:08:50.000Z</time>
      </trkpt>
      <trkpt lat="48.88588" lon="2.31809">
        <ele>58</ele>
        <time>2016-08-08T20:08:54.000Z</time>
      </trkpt>
      <trkpt lat="48.88568" lon="2.31823">
        <ele>56.400001525879</ele>
        <time>2016-08-08T20:08:59.000Z</time>
      </trkpt>
      <trkpt lat="48.88552" lon="2.31836">
        <ele>55.200000762939</ele>
        <time>2016-08-08T20:09:03.000Z</time>
      </trkpt>
      <trkpt lat="48.88535" lon="2.31855">
        <ele>55</ele>
        <time>2016-08-08T20:09:08.000Z</time>
      </trkpt>
      <trkpt lat="48.88518" lon="2.31873">
        <ele>55.799999237061</ele>
        <time>2016-08-08T20:09:13.000Z</time>
      </trkpt>
      <trkpt lat="48.88501" lon="2.31886">
        <ele>57.200000762939</ele>
        <time>2016-08-08T20:09:17.000Z</time>
      </trkpt>
      <trkpt lat="48.88483" lon="2.31901">
        <ele>57.400001525879</ele>
        <time>2016-08-08T20:09:22.000Z</time>
      </trkpt>
      <trkpt lat="48.88466" lon="2.31913">
        <ele>57.400001525879</ele>
        <time>2016-08-08T20:09:27.000Z</time>
      </trkpt>
      <trkpt lat="48.88464" lon="2.31917">
        <ele>57.400001525879</ele>
        <time>2016-08-08T20:09:28.000Z</time>
      </trkpt>
      <trkpt lat="48.88454" lon="2.31931">
        <ele>57.400001525879</ele>
        <time>2016-08-08T20:09:32.000Z</time>
      </trkpt>
      <trkpt lat="48.88458" lon="2.31958">
        <ele>57.400001525879</ele>
        <time>2016-08-08T20:09:37.000Z</time>
      </trkpt>
      <trkpt lat="48.8846" lon="2.31963">
        <ele>57.400001525879</ele>
        <time>2016-08-08T20:09:38.000Z</time>
      </trkpt>
      <trkpt lat="48.88467" lon="2.31993">
        <ele>57.599998474121</ele>
        <time>2016-08-08T20:09:43.000Z</time>
      </trkpt>
      <trkpt lat="48.88477" lon="2.32019">
        <ele>58.200000762939</ele>
        <time>2016-08-08T20:09:48.000Z</time>
      </trkpt>
      <trkpt lat="48.88489" lon="2.32042">
        <ele>58.799999237061</ele>
        <time>2016-08-08T20:09:53.000Z</time>
      </trkpt>
      <trkpt lat="48.88504" lon="2.32061">
        <ele>59.200000762939</ele>
        <time>2016-08-08T20:09:59.000Z</time>
      </trkpt>
      <trkpt lat="48.88505" lon="2.32068">
        <ele>59.599998474121</ele>
        <time>2016-08-08T20:10:02.000Z</time>
      </trkpt>
      <trkpt lat="48.88491" lon="2.32091">
        <ele>60.400001525879</ele>
        <time>2016-08-08T20:10:08.000Z</time>
      </trkpt>
      <trkpt lat="48.88476" lon="2.32106">
        <ele>60.599998474121</ele>
        <time>2016-08-08T20:10:13.000Z</time>
      </trkpt>
      <trkpt lat="48.88461" lon="2.32123">
        <ele>61.599998474121</ele>
        <time>2016-08-08T20:10:17.000Z</time>
      </trkpt>
      <trkpt lat="48.88447" lon="2.3214">
        <ele>62.799999237061</ele>
        <time>2016-08-08T20:10:24.000Z</time>
      </trkpt>
      <trkpt lat="48.88438" lon="2.32165">
        <ele>64</ele>
        <time>2016-08-08T20:10:34.000Z</time>
      </trkpt>
      <trkpt lat="48.88426" lon="2.32189">
        <ele>63</ele>
        <time>2016-08-08T20:10:44.000Z</time>
      </trkpt>
      <trkpt lat="48.88425" lon="2.32193">
        <ele>62.799999237061</ele>
        <time>2016-08-08T20:10:46.000Z</time>
      </trkpt>
      <trkpt lat="48.88423" lon="2.32199">
        <ele>62.599998474121</ele>
        <time>2016-08-08T20:10:50.000Z</time>
      </trkpt>
      <trkpt lat="48.88423" lon="2.322">
        <ele>62.599998474121</ele>
        <time>2016-08-08T20:10:51.000Z</time>
      </trkpt>
      <trkpt lat="48.8843" lon="2.32206">
        <ele>62.599998474121</ele>
        <time>2016-08-08T20:12:14.000Z</time>
      </trkpt>
      <trkpt lat="48.8844" lon="2.32182">
        <ele>63.599998474121</ele>
        <time>2016-08-08T20:12:45.000Z</time>
      </trkpt>
      <trkpt lat="48.88458" lon="2.32164">
        <ele>63.200000762939</ele>
        <time>2016-08-08T20:12:51.000Z</time>
      </trkpt>
      <trkpt lat="48.88473" lon="2.32143">
        <ele>61.799999237061</ele>
        <time>2016-08-08T20:12:56.000Z</time>
      </trkpt>
      <trkpt lat="48.88485" lon="2.32122">
        <ele>60.400001525879</ele>
        <time>2016-08-08T20:13:01.000Z</time>
      </trkpt>
      <trkpt lat="48.88498" lon="2.32097">
        <ele>60.200000762939</ele>
        <time>2016-08-08T20:13:06.000Z</time>
      </trkpt>
      <trkpt lat="48.88519" lon="2.32093">
        <ele>60</ele>
        <time>2016-08-08T20:13:12.000Z</time>
      </trkpt>
      <trkpt lat="48.88535" lon="2.32105">
        <ele>60.200000762939</ele>
        <time>2016-08-08T20:13:16.000Z</time>
      </trkpt>
      <trkpt lat="48.88554" lon="2.32118">
        <ele>60.400001525879</ele>
        <time>2016-08-08T20:13:21.000Z</time>
      </trkpt>
      <trkpt lat="48.88574" lon="2.32133">
        <ele>60.599998474121</ele>
        <time>2016-08-08T20:13:26.000Z</time>
      </trkpt>
      <trkpt lat="48.88589" lon="2.32162">
        <ele>60.799999237061</ele>
        <time>2016-08-08T20:13:33.000Z</time>
      </trkpt>
      <trkpt lat="48.88608" lon="2.32173">
        <ele>61.200000762939</ele>
        <time>2016-08-08T20:13:38.000Z</time>
      </trkpt>
      <trkpt lat="48.88624" lon="2.32188">
        <ele>61.400001525879</ele>
        <time>2016-08-08T20:13:43.000Z</time>
      </trkpt>
      <trkpt lat="48.88641" lon="2.32206">
        <ele>61.599998474121</ele>
        <time>2016-08-08T20:13:48.000Z</time>
      </trkpt>
      <trkpt lat="48.88656" lon="2.32227">
        <ele>62</ele>
        <time>2016-08-08T20:13:54.000Z</time>
      </trkpt>
      <trkpt lat="48.88675" lon="2.32244">
        <ele>62</ele>
        <time>2016-08-08T20:13:59.000Z</time>
      </trkpt>
      <trkpt lat="48.88695" lon="2.3226">
        <ele>62.400001525879</ele>
        <time>2016-08-08T20:14:04.000Z</time>
      </trkpt>
      <trkpt lat="48.88711" lon="2.32282">
        <ele>63.599998474121</ele>
        <time>2016-08-08T20:14:10.000Z</time>
      </trkpt>
      <trkpt lat="48.88712" lon="2.32287">
        <ele>63.799999237061</ele>
        <time>2016-08-08T20:14:11.000Z</time>
      </trkpt>
      <trkpt lat="48.88718" lon="2.32295">
        <ele>64.199996948242</ele>
        <time>2016-08-08T20:14:13.000Z</time>
      </trkpt>
      <trkpt lat="48.88734" lon="2.32311">
        <ele>65.199996948242</ele>
        <time>2016-08-08T20:14:18.000Z</time>
      </trkpt>
      <trkpt lat="48.88746" lon="2.32336">
        <ele>66</ele>
        <time>2016-08-08T20:14:23.000Z</time>
      </trkpt>
      <trkpt lat="48.88758" lon="2.32361">
        <ele>66.800003051758</ele>
        <time>2016-08-08T20:14:29.000Z</time>
      </trkpt>
      <trkpt lat="48.88774" lon="2.32379">
        <ele>67.599998474121</ele>
        <time>2016-08-08T20:14:35.000Z</time>
      </trkpt>
      <trkpt lat="48.88789" lon="2.32395">
        <ele>67.199996948242</ele>
        <time>2016-08-08T20:14:41.000Z</time>
      </trkpt>
      <trkpt lat="48.88801" lon="2.32415">
        <ele>67</ele>
        <time>2016-08-08T20:14:48.000Z</time>
      </trkpt>
      <trkpt lat="48.88798" lon="2.32442">
        <ele>67.800003051758</ele>
        <time>2016-08-08T20:14:56.000Z</time>
      </trkpt>
      <trkpt lat="48.88797" lon="2.32449">
        <ele>67.800003051758</ele>
        <time>2016-08-08T20:15:01.000Z</time>
      </trkpt>
      <trkpt lat="48.88815" lon="2.32433">
        <ele>67</ele>
        <time>2016-08-08T20:15:08.000Z</time>
      </trkpt>
      <trkpt lat="48.88832" lon="2.32425">
        <ele>66.199996948242</ele>
        <time>2016-08-08T20:15:14.000Z</time>
      </trkpt>
      <trkpt lat="48.88836" lon="2.32428">
        <ele>66.199996948242</ele>
        <time>2016-08-08T20:15:16.000Z</time>
      </trkpt>
      <trkpt lat="48.88855" lon="2.32442">
        <ele>65.800003051758</ele>
        <time>2016-08-08T20:15:21.000Z</time>
      </trkpt>
      <trkpt lat="48.88861" lon="2.32446">
        <ele>65.599998474121</ele>
        <time>2016-08-08T20:15:23.000Z</time>
      </trkpt>
      <trkpt lat="48.88879" lon="2.32447">
        <ele>64.800003051758</ele>
        <time>2016-08-08T20:15:30.000Z</time>
      </trkpt>
      <trkpt lat="48.88892" lon="2.32421">
        <ele>64.400001525879</ele>
        <time>2016-08-08T20:15:35.000Z</time>
      </trkpt>
      <trkpt lat="48.889" lon="2.32395">
        <ele>63.799999237061</ele>
        <time>2016-08-08T20:15:40.000Z</time>
      </trkpt>
      <trkpt lat="48.88903" lon="2.3239">
        <ele>63.599998474121</ele>
        <time>2016-08-08T20:15:42.000Z</time>
      </trkpt>
      <trkpt lat="48.88912" lon="2.3239">
        <ele>63.400001525879</ele>
        <time>2016-08-08T20:15:46.000Z</time>
      </trkpt>
      <trkpt lat="48.88929" lon="2.32398">
        <ele>63.599998474121</ele>
        <time>2016-08-08T20:15:51.000Z</time>
      </trkpt>
      <trkpt lat="48.88946" lon="2.32411">
        <ele>63.799999237061</ele>
        <time>2016-08-08T20:15:56.000Z</time>
      </trkpt>
      <trkpt lat="48.88963" lon="2.32423">
        <ele>63</ele>
        <time>2016-08-08T20:16:01.000Z</time>
      </trkpt>
      <trkpt lat="48.88981" lon="2.32434">
        <ele>62.200000762939</ele>
        <time>2016-08-08T20:16:06.000Z</time>
      </trkpt>
      <trkpt lat="48.89" lon="2.32448">
        <ele>61.400001525879</ele>
        <time>2016-08-08T20:16:12.000Z</time>
      </trkpt>
      <trkpt lat="48.89016" lon="2.32461">
        <ele>60.599998474121</ele>
        <time>2016-08-08T20:16:17.000Z</time>
      </trkpt>
      <trkpt lat="48.89024" lon="2.3249">
        <ele>60</ele>
        <time>2016-08-08T20:16:23.000Z</time>
      </trkpt>
      <trkpt lat="48.89024" lon="2.32497">
        <ele>60</ele>
        <time>2016-08-08T20:16:25.000Z</time>
      </trkpt>
      <trkpt lat="48.89013" lon="2.32524">
        <ele>60</ele>
        <time>2016-08-08T20:16:31.000Z</time>
      </trkpt>
      <trkpt lat="48.89011" lon="2.3253">
        <ele>60</ele>
        <time>2016-08-08T20:16:32.000Z</time>
      </trkpt>
      <trkpt lat="48.89" lon="2.32557">
        <ele>60.200000762939</ele>
        <time>2016-08-08T20:16:37.000Z</time>
      </trkpt>
      <trkpt lat="48.88992" lon="2.32582">
        <ele>59.799999237061</ele>
        <time>2016-08-08T20:16:41.000Z</time>
      </trkpt>
      <trkpt lat="48.88982" lon="2.32609">
        <ele>61</ele>
        <time>2016-08-08T20:16:47.000Z</time>
      </trkpt>
      <trkpt lat="48.8898" lon="2.32636">
        <ele>61.799999237061</ele>
        <time>2016-08-08T20:16:57.000Z</time>
      </trkpt>
      <trkpt lat="48.8899" lon="2.32646">
        <ele>62</ele>
        <time>2016-08-08T20:17:02.000Z</time>
      </trkpt>
      <trkpt lat="48.8901" lon="2.32653">
        <ele>62</ele>
        <time>2016-08-08T20:17:08.000Z</time>
      </trkpt>
      <trkpt lat="48.89029" lon="2.32659">
        <ele>61.599998474121</ele>
        <time>2016-08-08T20:17:13.000Z</time>
      </trkpt>
      <trkpt lat="48.89049" lon="2.32668">
        <ele>60.799999237061</ele>
        <time>2016-08-08T20:17:19.000Z</time>
      </trkpt>
      <trkpt lat="48.89067" lon="2.32676">
        <ele>60.200000762939</ele>
        <time>2016-08-08T20:17:24.000Z</time>
      </trkpt>
      <trkpt lat="48.89087" lon="2.32679">
        <ele>59.400001525879</ele>
        <time>2016-08-08T20:17:30.000Z</time>
      </trkpt>
      <trkpt lat="48.89107" lon="2.32683">
        <ele>58.400001525879</ele>
        <time>2016-08-08T20:17:35.000Z</time>
      </trkpt>
      <trkpt lat="48.89126" lon="2.32683">
        <ele>57.599998474121</ele>
        <time>2016-08-08T20:17:40.000Z</time>
      </trkpt>
      <trkpt lat="48.89147" lon="2.32684">
        <ele>56.799999237061</ele>
        <time>2016-08-08T20:17:46.000Z</time>
      </trkpt>
      <trkpt lat="48.89164" lon="2.32701">
        <ele>56.400001525879</ele>
        <time>2016-08-08T20:17:54.000Z</time>
      </trkpt>
      <trkpt lat="48.89183" lon="2.32706">
        <ele>55.799999237061</ele>
        <time>2016-08-08T20:17:59.000Z</time>
      </trkpt>
      <trkpt lat="48.89202" lon="2.32709">
        <ele>55.400001525879</ele>
        <time>2016-08-08T20:18:04.000Z</time>
      </trkpt>
      <trkpt lat="48.89221" lon="2.32713">
        <ele>55.200000762939</ele>
        <time>2016-08-08T20:18:08.000Z</time>
      </trkpt>
      <trkpt lat="48.89242" lon="2.32714">
        <ele>55</ele>
        <time>2016-08-08T20:18:13.000Z</time>
      </trkpt>
      <trkpt lat="48.89261" lon="2.32718">
        <ele>54.400001525879</ele>
        <time>2016-08-08T20:18:18.000Z</time>
      </trkpt>
      <trkpt lat="48.89282" lon="2.32729">
        <ele>54.200000762939</ele>
        <time>2016-08-08T20:18:24.000Z</time>
      </trkpt>
      <trkpt lat="48.89298" lon="2.32746">
        <ele>54.400001525879</ele>
        <time>2016-08-08T20:18:28.000Z</time>
      </trkpt>
      <trkpt lat="48.89305" lon="2.32768">
        <ele>54.200000762939</ele>
        <time>2016-08-08T20:18:32.000Z</time>
      </trkpt>
      <trkpt lat="48.89312" lon="2.32796">
        <ele>54.599998474121</ele>
        <time>2016-08-08T20:18:37.000Z</time>
      </trkpt>
      <trkpt lat="48.89313" lon="2.32801">
        <ele>54.799999237061</ele>
        <time>2016-08-08T20:18:38.000Z</time>
      </trkpt>
      <trkpt lat="48.89316" lon="2.32829">
        <ele>55.799999237061</ele>
        <time>2016-08-08T20:18:43.000Z</time>
      </trkpt>
      <trkpt lat="48.89316" lon="2.32834">
        <ele>56.200000762939</ele>
        <time>2016-08-08T20:18:44.000Z</time>
      </trkpt>
      <trkpt lat="48.89321" lon="2.32863">
        <ele>57.200000762939</ele>
        <time>2016-08-08T20:18:49.000Z</time>
      </trkpt>
      <trkpt lat="48.89327" lon="2.32892">
        <ele>57.799999237061</ele>
        <time>2016-08-08T20:18:53.000Z</time>
      </trkpt>
      <trkpt lat="48.89337" lon="2.32916">
        <ele>57.400001525879</ele>
        <time>2016-08-08T20:18:56.000Z</time>
      </trkpt>
      <trkpt lat="48.89342" lon="2.3294">
        <ele>57.599998474121</ele>
        <time>2016-08-08T20:18:59.000Z</time>
      </trkpt>
      <trkpt lat="48.89352" lon="2.32967">
        <ele>57.799999237061</ele>
        <time>2016-08-08T20:19:03.000Z</time>
      </trkpt>
      <trkpt lat="48.89354" lon="2.32973">
        <ele>57.799999237061</ele>
        <time>2016-08-08T20:19:04.000Z</time>
      </trkpt>
      <trkpt lat="48.89361" lon="2.33002">
        <ele>57.799999237061</ele>
        <time>2016-08-08T20:19:09.000Z</time>
      </trkpt>
      <trkpt lat="48.89365" lon="2.33033">
        <ele>57</ele>
        <time>2016-08-08T20:19:14.000Z</time>
      </trkpt>
      <trkpt lat="48.89372" lon="2.3306">
        <ele>56.400001525879</ele>
        <time>2016-08-08T20:19:18.000Z</time>
      </trkpt>
      <trkpt lat="48.89373" lon="2.33067">
        <ele>56.200000762939</ele>
        <time>2016-08-08T20:19:19.000Z</time>
      </trkpt>
      <trkpt lat="48.89381" lon="2.33092">
        <ele>56.200000762939</ele>
        <time>2016-08-08T20:19:23.000Z</time>
      </trkpt>
      <trkpt lat="48.89383" lon="2.33104">
        <ele>56.799999237061</ele>
        <time>2016-08-08T20:19:25.000Z</time>
      </trkpt>
      <trkpt lat="48.89385" lon="2.33122">
        <ele>57.599998474121</ele>
        <time>2016-08-08T20:19:28.000Z</time>
      </trkpt>
      <trkpt lat="48.89389" lon="2.33156">
        <ele>58.799999237061</ele>
        <time>2016-08-08T20:19:33.000Z</time>
      </trkpt>
      <trkpt lat="48.89398" lon="2.3318">
        <ele>60</ele>
        <time>2016-08-08T20:19:37.000Z</time>
      </trkpt>
      <trkpt lat="48.89406" lon="2.33211">
        <ele>61.799999237061</ele>
        <time>2016-08-08T20:19:42.000Z</time>
      </trkpt>
      <trkpt lat="48.89406" lon="2.3323">
        <ele>63.400001525879</ele>
        <time>2016-08-08T20:19:45.000Z</time>
      </trkpt>
      <trkpt lat="48.89408" lon="2.33249">
        <ele>64.800003051758</ele>
        <time>2016-08-08T20:19:49.000Z</time>
      </trkpt>
      <trkpt lat="48.89403" lon="2.3327">
        <ele>66.599998474121</ele>
        <time>2016-08-08T20:19:55.000Z</time>
      </trkpt>
      <trkpt lat="48.89404" lon="2.33273">
        <ele>66.800003051758</ele>
        <time>2016-08-08T20:19:56.000Z</time>
      </trkpt>
      <trkpt lat="48.89409" lon="2.33292">
        <ele>68</ele>
        <time>2016-08-08T20:20:22.000Z</time>
      </trkpt>
      <trkpt lat="48.89407" lon="2.33327">
        <ele>69.400001525879</ele>
        <time>2016-08-08T20:20:28.000Z</time>
      </trkpt>
      <trkpt lat="48.89401" lon="2.33354">
        <ele>69.199996948242</ele>
        <time>2016-08-08T20:20:32.000Z</time>
      </trkpt>
      <trkpt lat="48.89393" lon="2.33385">
        <ele>69</ele>
        <time>2016-08-08T20:20:36.000Z</time>
      </trkpt>
      <trkpt lat="48.89385" lon="2.33419">
        <ele>69</ele>
        <time>2016-08-08T20:20:40.000Z</time>
      </trkpt>
      <trkpt lat="48.89382" lon="2.33426">
        <ele>68.800003051758</ele>
        <time>2016-08-08T20:20:41.000Z</time>
      </trkpt>
      <trkpt lat="48.89373" lon="2.33455">
        <ele>69.400001525879</ele>
        <time>2016-08-08T20:20:45.000Z</time>
      </trkpt>
      <trkpt lat="48.89364" lon="2.33482">
        <ele>70.400001525879</ele>
        <time>2016-08-08T20:20:49.000Z</time>
      </trkpt>
      <trkpt lat="48.89354" lon="2.33508">
        <ele>71</ele>
        <time>2016-08-08T20:20:53.000Z</time>
      </trkpt>
      <trkpt lat="48.89354" lon="2.33515">
        <ele>71</ele>
        <time>2016-08-08T20:20:54.000Z</time>
      </trkpt>
      <trkpt lat="48.89347" lon="2.33542">
        <ele>71.199996948242</ele>
        <time>2016-08-08T20:20:58.000Z</time>
      </trkpt>
      <trkpt lat="48.89339" lon="2.33569">
        <ele>71.400001525879</ele>
        <time>2016-08-08T20:21:02.000Z</time>
      </trkpt>
      <trkpt lat="48.89332" lon="2.336">
        <ele>71.199996948242</ele>
        <time>2016-08-08T20:21:07.000Z</time>
      </trkpt>
      <trkpt lat="48.89337" lon="2.33612">
        <ele>70.800003051758</ele>
        <time>2016-08-08T20:21:09.000Z</time>
      </trkpt>
      <trkpt lat="48.89336" lon="2.33638">
        <ele>70.199996948242</ele>
        <time>2016-08-08T20:21:14.000Z</time>
      </trkpt>
      <trkpt lat="48.89339" lon="2.33672">
        <ele>69.400001525879</ele>
        <time>2016-08-08T20:21:19.000Z</time>
      </trkpt>
      <trkpt lat="48.89337" lon="2.33705">
        <ele>68</ele>
        <time>2016-08-08T20:21:23.000Z</time>
      </trkpt>
      <trkpt lat="48.89332" lon="2.3374">
        <ele>66.400001525879</ele>
        <time>2016-08-08T20:21:27.000Z</time>
      </trkpt>
      <trkpt lat="48.8933" lon="2.33757">
        <ele>66</ele>
        <time>2016-08-08T20:21:29.000Z</time>
      </trkpt>
      <trkpt lat="48.89329" lon="2.33793">
        <ele>66</ele>
        <time>2016-08-08T20:21:33.000Z</time>
      </trkpt>
      <trkpt lat="48.89325" lon="2.3382">
        <ele>64.599998474121</ele>
        <time>2016-08-08T20:21:36.000Z</time>
      </trkpt>
      <trkpt lat="48.89322" lon="2.3385">
        <ele>64</ele>
        <time>2016-08-08T20:21:39.000Z</time>
      </trkpt>
      <trkpt lat="48.89319" lon="2.33878">
        <ele>64.199996948242</ele>
        <time>2016-08-08T20:21:42.000Z</time>
      </trkpt>
      <trkpt lat="48.89317" lon="2.33908">
        <ele>64.599998474121</ele>
        <time>2016-08-08T20:21:45.000Z</time>
      </trkpt>
      <trkpt lat="48.89311" lon="2.33937">
        <ele>65</ele>
        <time>2016-08-08T20:21:48.000Z</time>
      </trkpt>
      <trkpt lat="48.89307" lon="2.33967">
        <ele>66.599998474121</ele>
        <time>2016-08-08T20:21:51.000Z</time>
      </trkpt>
      <trkpt lat="48.89304" lon="2.33987">
        <ele>68.400001525879</ele>
        <time>2016-08-08T20:21:53.000Z</time>
      </trkpt>
      <trkpt lat="48.89293" lon="2.34011">
        <ele>69.599998474121</ele>
        <time>2016-08-08T20:21:57.000Z</time>
      </trkpt>
      <trkpt lat="48.89292" lon="2.34014">
        <ele>69.800003051758</ele>
        <time>2016-08-08T20:21:58.000Z</time>
      </trkpt>
      <trkpt lat="48.89288" lon="2.3402">
        <ele>70</ele>
        <time>2016-08-08T20:22:00.000Z</time>
      </trkpt>
      <trkpt lat="48.89304" lon="2.3403">
        <ele>69.599998474121</ele>
        <time>2016-08-08T20:22:11.000Z</time>
      </trkpt>
      <trkpt lat="48.89304" lon="2.3403">
        <ele>69.599998474121</ele>
        <time>2016-08-08T20:22:12.000Z</time>
      </trkpt>
      <trkpt lat="48.89301" lon="2.34053">
        <ele>70</ele>
        <time>2016-08-08T20:22:26.000Z</time>
      </trkpt>
      <trkpt lat="48.89293" lon="2.34083">
        <ele>70.599998474121</ele>
        <time>2016-08-08T20:22:30.000Z</time>
      </trkpt>
      <trkpt lat="48.89284" lon="2.3411">
        <ele>70.599998474121</ele>
        <time>2016-08-08T20:22:33.000Z</time>
      </trkpt>
      <trkpt lat="48.89277" lon="2.34135">
        <ele>70.800003051758</ele>
        <time>2016-08-08T20:22:36.000Z</time>
      </trkpt>
      <trkpt lat="48.89268" lon="2.34165">
        <ele>71.199996948242</ele>
        <time>2016-08-08T20:22:40.000Z</time>
      </trkpt>
      <trkpt lat="48.89265" lon="2.34177">
        <ele>71.400001525879</ele>
        <time>2016-08-08T20:22:42.000Z</time>
      </trkpt>
      <trkpt lat="48.89264" lon="2.34207">
        <ele>71.599998474121</ele>
        <time>2016-08-08T20:22:46.000Z</time>
      </trkpt>
      <trkpt lat="48.8926" lon="2.34222">
        <ele>71.800003051758</ele>
        <time>2016-08-08T20:22:48.000Z</time>
      </trkpt>
      <trkpt lat="48.89256" lon="2.34237">
        <ele>72</ele>
        <time>2016-08-08T20:22:50.000Z</time>
      </trkpt>
      <trkpt lat="48.89248" lon="2.3427">
        <ele>72.599998474121</ele>
        <time>2016-08-08T20:22:54.000Z</time>
      </trkpt>
      <trkpt lat="48.89243" lon="2.34304">
        <ele>72.800003051758</ele>
        <time>2016-08-08T20:22:58.000Z</time>
      </trkpt>
      <trkpt lat="48.89237" lon="2.34335">
        <ele>72.400001525879</ele>
        <time>2016-08-08T20:23:02.000Z</time>
      </trkpt>
      <trkpt lat="48.89234" lon="2.34364">
        <ele>70.800003051758</ele>
        <time>2016-08-08T20:23:06.000Z</time>
      </trkpt>
      <trkpt lat="48.89228" lon="2.34391">
        <ele>69.599998474121</ele>
        <time>2016-08-08T20:23:10.000Z</time>
      </trkpt>
      <trkpt lat="48.89225" lon="2.34402">
        <ele>69</ele>
        <time>2016-08-08T20:23:12.000Z</time>
      </trkpt>
      <trkpt lat="48.89233" lon="2.34424">
        <ele>68</ele>
        <time>2016-08-08T20:23:17.000Z</time>
      </trkpt>
      <trkpt lat="48.89232" lon="2.34432">
        <ele>68</ele>
        <time>2016-08-08T20:23:19.000Z</time>
      </trkpt>
      <trkpt lat="48.8923" lon="2.34443">
        <ele>68</ele>
        <time>2016-08-08T20:23:22.000Z</time>
      </trkpt>
      <trkpt lat="48.8923" lon="2.34462">
        <ele>68</ele>
        <time>2016-08-08T20:23:27.000Z</time>
      </trkpt>
      <trkpt lat="48.8924" lon="2.34473">
        <ele>67.599998474121</ele>
        <time>2016-08-08T20:23:40.000Z</time>
      </trkpt>
      <trkpt lat="48.89245" lon="2.34476">
        <ele>67.400001525879</ele>
        <time>2016-08-08T20:23:48.000Z</time>
      </trkpt>
      <trkpt lat="48.89247" lon="2.34479">
        <ele>67.199996948242</ele>
        <time>2016-08-08T20:24:11.000Z</time>
      </trkpt>
      <trkpt lat="48.89255" lon="2.34473">
        <ele>66.800003051758</ele>
        <time>2016-08-08T20:24:29.000Z</time>
      </trkpt>
      <trkpt lat="48.89265" lon="2.34482">
        <ele>66.400001525879</ele>
        <time>2016-08-08T20:25:59.000Z</time>
      </trkpt>
      <trkpt lat="48.89249" lon="2.34493">
        <ele>67.199996948242</ele>
        <time>2016-08-08T20:26:11.000Z</time>
      </trkpt>
      <trkpt lat="48.89231" lon="2.34484">
        <ele>68</ele>
        <time>2016-08-08T20:26:17.000Z</time>
      </trkpt>
      <trkpt lat="48.89212" lon="2.34477">
        <ele>69</ele>
        <time>2016-08-08T20:26:22.000Z</time>
      </trkpt>
      <trkpt lat="48.89191" lon="2.34477">
        <ele>70</ele>
        <time>2016-08-08T20:26:28.000Z</time>
      </trkpt>
      <trkpt lat="48.89172" lon="2.34484">
        <ele>72.599998474121</ele>
        <time>2016-08-08T20:26:32.000Z</time>
      </trkpt>
      <trkpt lat="48.89152" lon="2.34487">
        <ele>74.599998474121</ele>
        <time>2016-08-08T20:26:37.000Z</time>
      </trkpt>
      <trkpt lat="48.89131" lon="2.34498">
        <ele>76.400001525879</ele>
        <time>2016-08-08T20:26:42.000Z</time>
      </trkpt>
      <trkpt lat="48.89114" lon="2.34511">
        <ele>78</ele>
        <time>2016-08-08T20:26:46.000Z</time>
      </trkpt>
      <trkpt lat="48.89097" lon="2.3453">
        <ele>78.599998474121</ele>
        <time>2016-08-08T20:26:50.000Z</time>
      </trkpt>
      <trkpt lat="48.89078" lon="2.3454">
        <ele>79.400001525879</ele>
        <time>2016-08-08T20:26:54.000Z</time>
      </trkpt>
      <trkpt lat="48.89058" lon="2.34551">
        <ele>79.800003051758</ele>
        <time>2016-08-08T20:26:59.000Z</time>
      </trkpt>
      <trkpt lat="48.89037" lon="2.34561">
        <ele>79.800003051758</ele>
        <time>2016-08-08T20:27:04.000Z</time>
      </trkpt>
      <trkpt lat="48.8903" lon="2.34565">
        <ele>79.800003051758</ele>
        <time>2016-08-08T20:27:06.000Z</time>
      </trkpt>
      <trkpt lat="48.89012" lon="2.34585">
        <ele>80</ele>
        <time>2016-08-08T20:27:11.000Z</time>
      </trkpt>
      <trkpt lat="48.88992" lon="2.346">
        <ele>81.599998474121</ele>
        <time>2016-08-08T20:27:16.000Z</time>
      </trkpt>
      <trkpt lat="48.88972" lon="2.34614">
        <ele>83</ele>
        <time>2016-08-08T20:27:21.000Z</time>
      </trkpt>
      <trkpt lat="48.88968" lon="2.34616">
        <ele>83.199996948242</ele>
        <time>2016-08-08T20:27:22.000Z</time>
      </trkpt>
      <trkpt lat="48.88964" lon="2.3462">
        <ele>83.400001525879</ele>
        <time>2016-08-08T20:27:24.000Z</time>
      </trkpt>
      <trkpt lat="48.88947" lon="2.34633">
        <ele>84.199996948242</ele>
        <time>2016-08-08T20:27:29.000Z</time>
      </trkpt>
      <trkpt lat="48.88931" lon="2.34638">
        <ele>85</ele>
        <time>2016-08-08T20:27:33.000Z</time>
      </trkpt>
      <trkpt lat="48.88913" lon="2.34645">
        <ele>85.800003051758</ele>
        <time>2016-08-08T20:27:39.000Z</time>
      </trkpt>
      <trkpt lat="48.88903" lon="2.3465">
        <ele>86.199996948242</ele>
        <time>2016-08-08T20:27:46.000Z</time>
      </trkpt>
      <trkpt lat="48.88898" lon="2.3465">
        <ele>86.800003051758</ele>
        <time>2016-08-08T20:27:54.000Z</time>
      </trkpt>
      <trkpt lat="48.88885" lon="2.34664">
        <ele>87</ele>
        <time>2016-08-08T20:28:16.000Z</time>
      </trkpt>
      <trkpt lat="48.88864" lon="2.34677">
        <ele>87.800003051758</ele>
        <time>2016-08-08T20:28:22.000Z</time>
      </trkpt>
      <trkpt lat="48.88859" lon="2.34681">
        <ele>87.599998474121</ele>
        <time>2016-08-08T20:28:23.000Z</time>
      </trkpt>
      <trkpt lat="48.88839" lon="2.34696">
        <ele>87</ele>
        <time>2016-08-08T20:28:26.000Z</time>
      </trkpt>
      <trkpt lat="48.8882" lon="2.34707">
        <ele>86.800003051758</ele>
        <time>2016-08-08T20:28:29.000Z</time>
      </trkpt>
      <trkpt lat="48.88802" lon="2.34719">
        <ele>87.599998474121</ele>
        <time>2016-08-08T20:28:32.000Z</time>
      </trkpt>
      <trkpt lat="48.88783" lon="2.34731">
        <ele>88.599998474121</ele>
        <time>2016-08-08T20:28:36.000Z</time>
      </trkpt>
      <trkpt lat="48.88762" lon="2.34737">
        <ele>88.800003051758</ele>
        <time>2016-08-08T20:28:40.000Z</time>
      </trkpt>
      <trkpt lat="48.88744" lon="2.34747">
        <ele>88</ele>
        <time>2016-08-08T20:28:44.000Z</time>
      </trkpt>
      <trkpt lat="48.8873" lon="2.34745">
        <ele>87.400001525879</ele>
        <time>2016-08-08T20:28:48.000Z</time>
      </trkpt>
      <trkpt lat="48.88727" lon="2.34741">
        <ele>87.400001525879</ele>
        <time>2016-08-08T20:28:51.000Z</time>
      </trkpt>
      <trkpt lat="48.88723" lon="2.3474">
        <ele>87.199996948242</ele>
        <time>2016-08-08T20:28:55.000Z</time>
      </trkpt>
      <trkpt lat="48.88703" lon="2.34751">
        <ele>86.199996948242</ele>
        <time>2016-08-08T20:29:11.000Z</time>
      </trkpt>
      <trkpt lat="48.88697" lon="2.34763">
        <ele>85.400001525879</ele>
        <time>2016-08-08T20:29:14.000Z</time>
      </trkpt>
      <trkpt lat="48.88687" lon="2.34756">
        <ele>85.400001525879</ele>
        <time>2016-08-08T20:29:38.000Z</time>
      </trkpt>
      <trkpt lat="48.88683" lon="2.34749">
        <ele>85.599998474121</ele>
        <time>2016-08-08T20:29:48.000Z</time>
      </trkpt>
      <trkpt lat="48.88665" lon="2.34746">
        <ele>85</ele>
        <time>2016-08-08T20:30:04.000Z</time>
      </trkpt>
      <trkpt lat="48.88663" lon="2.34747">
        <ele>85</ele>
        <time>2016-08-08T20:30:06.000Z</time>
      </trkpt>
      <trkpt lat="48.8866" lon="2.34751">
        <ele>84.800003051758</ele>
        <time>2016-08-08T20:30:11.000Z</time>
      </trkpt>
      <trkpt lat="48.88656" lon="2.34753">
        <ele>84.599998474121</ele>
        <time>2016-08-08T20:30:14.000Z</time>
      </trkpt>
      <trkpt lat="48.8865" lon="2.34758">
        <ele>84</ele>
        <time>2016-08-08T20:30:20.000Z</time>
      </trkpt>
      <trkpt lat="48.88638" lon="2.34759">
        <ele>83.599998474121</ele>
        <time>2016-08-08T20:30:32.000Z</time>
      </trkpt>
      <trkpt lat="48.88619" lon="2.34746">
        <ele>83.400001525879</ele>
        <time>2016-08-08T20:30:42.000Z</time>
      </trkpt>
      <trkpt lat="48.886" lon="2.34737">
        <ele>82.800003051758</ele>
        <time>2016-08-08T20:30:47.000Z</time>
      </trkpt>
      <trkpt lat="48.88579" lon="2.34732">
        <ele>81.800003051758</ele>
        <time>2016-08-08T20:30:53.000Z</time>
      </trkpt>
      <trkpt lat="48.88558" lon="2.34734">
        <ele>80.400001525879</ele>
        <time>2016-08-08T20:30:57.000Z</time>
      </trkpt>
      <trkpt lat="48.88539" lon="2.34733">
        <ele>79.199996948242</ele>
        <time>2016-08-08T20:31:01.000Z</time>
      </trkpt>
      <trkpt lat="48.88517" lon="2.34733">
        <ele>78.199996948242</ele>
        <time>2016-08-08T20:31:05.000Z</time>
      </trkpt>
      <trkpt lat="48.88493" lon="2.34728">
        <ele>77.599998474121</ele>
        <time>2016-08-08T20:31:09.000Z</time>
      </trkpt>
      <trkpt lat="48.88471" lon="2.34724">
        <ele>76.599998474121</ele>
        <time>2016-08-08T20:31:13.000Z</time>
      </trkpt>
      <trkpt lat="48.88462" lon="2.34723">
        <ele>76.199996948242</ele>
        <time>2016-08-08T20:31:15.000Z</time>
      </trkpt>
      <trkpt lat="48.88451" lon="2.3472">
        <ele>75.800003051758</ele>
        <time>2016-08-08T20:31:17.000Z</time>
      </trkpt>
      <trkpt lat="48.88431" lon="2.34713">
        <ele>75.199996948242</ele>
        <time>2016-08-08T20:31:21.000Z</time>
      </trkpt>
      <trkpt lat="48.88411" lon="2.34703">
        <ele>74.400001525879</ele>
        <time>2016-08-08T20:31:25.000Z</time>
      </trkpt>
      <trkpt lat="48.88397" lon="2.34698">
        <ele>73.800003051758</ele>
        <time>2016-08-08T20:31:28.000Z</time>
      </trkpt>
      <trkpt lat="48.88378" lon="2.34693">
        <ele>73.199996948242</ele>
        <time>2016-08-08T20:31:34.000Z</time>
      </trkpt>
      <trkpt lat="48.88374" lon="2.34695">
        <ele>73</ele>
        <time>2016-08-08T20:31:37.000Z</time>
      </trkpt>
      <trkpt lat="48.8836" lon="2.34689">
        <ele>72.800003051758</ele>
        <time>2016-08-08T20:32:03.000Z</time>
      </trkpt>
      <trkpt lat="48.8835" lon="2.34676">
        <ele>73</ele>
        <time>2016-08-08T20:32:10.000Z</time>
      </trkpt>
      <trkpt lat="48.88344" lon="2.34676">
        <ele>73.400001525879</ele>
        <time>2016-08-08T20:32:15.000Z</time>
      </trkpt>
      <trkpt lat="48.88328" lon="2.34666">
        <ele>74</ele>
        <time>2016-08-08T20:32:21.000Z</time>
      </trkpt>
      <trkpt lat="48.88317" lon="2.34649">
        <ele>74.599998474121</ele>
        <time>2016-08-08T20:32:25.000Z</time>
      </trkpt>
      <trkpt lat="48.88302" lon="2.34634">
        <ele>75.400001525879</ele>
        <time>2016-08-08T20:32:30.000Z</time>
      </trkpt>
      <trkpt lat="48.88285" lon="2.34614">
        <ele>76.199996948242</ele>
        <time>2016-08-08T20:32:35.000Z</time>
      </trkpt>
      <trkpt lat="48.88269" lon="2.34598">
        <ele>76.599998474121</ele>
        <time>2016-08-08T20:32:39.000Z</time>
      </trkpt>
      <trkpt lat="48.88254" lon="2.34576">
        <ele>76.400001525879</ele>
        <time>2016-08-08T20:32:44.000Z</time>
      </trkpt>
      <trkpt lat="48.88237" lon="2.34556">
        <ele>75.800003051758</ele>
        <time>2016-08-08T20:32:50.000Z</time>
      </trkpt>
      <trkpt lat="48.88219" lon="2.34539">
        <ele>75.199996948242</ele>
        <time>2016-08-08T20:32:55.000Z</time>
      </trkpt>
      <trkpt lat="48.88203" lon="2.34527">
        <ele>74.599998474121</ele>
        <time>2016-08-08T20:32:59.000Z</time>
      </trkpt>
      <trkpt lat="48.88186" lon="2.34509">
        <ele>74</ele>
        <time>2016-08-08T20:33:05.000Z</time>
      </trkpt>
      <trkpt lat="48.88179" lon="2.34502">
        <ele>73.800003051758</ele>
        <time>2016-08-08T20:33:08.000Z</time>
      </trkpt>
      <trkpt lat="48.88171" lon="2.34476">
        <ele>73.599998474121</ele>
        <time>2016-08-08T20:33:17.000Z</time>
      </trkpt>
      <trkpt lat="48.88165" lon="2.34467">
        <ele>73.400001525879</ele>
        <time>2016-08-08T20:33:23.000Z</time>
      </trkpt>
      <trkpt lat="48.88148" lon="2.34472">
        <ele>73.400001525879</ele>
        <time>2016-08-08T20:33:50.000Z</time>
      </trkpt>
      <trkpt lat="48.88147" lon="2.3448">
        <ele>73.199996948242</ele>
        <time>2016-08-08T20:33:57.000Z</time>
      </trkpt>
      <trkpt lat="48.88148" lon="2.34464">
        <ele>73.400001525879</ele>
        <time>2016-08-08T20:34:36.000Z</time>
      </trkpt>
      <trkpt lat="48.88138" lon="2.34442">
        <ele>73.199996948242</ele>
        <time>2016-08-08T20:34:46.000Z</time>
      </trkpt>
      <trkpt lat="48.88117" lon="2.34433">
        <ele>73</ele>
        <time>2016-08-08T20:34:56.000Z</time>
      </trkpt>
      <trkpt lat="48.88099" lon="2.34429">
        <ele>72.400001525879</ele>
        <time>2016-08-08T20:35:01.000Z</time>
      </trkpt>
      <trkpt lat="48.88076" lon="2.34417">
        <ele>71.599998474121</ele>
        <time>2016-08-08T20:35:06.000Z</time>
      </trkpt>
      <trkpt lat="48.8806" lon="2.34405">
        <ele>70.599998474121</ele>
        <time>2016-08-08T20:35:09.000Z</time>
      </trkpt>
      <trkpt lat="48.88041" lon="2.34394">
        <ele>69.599998474121</ele>
        <time>2016-08-08T20:35:15.000Z</time>
      </trkpt>
      <trkpt lat="48.88023" lon="2.3439">
        <ele>68.800003051758</ele>
        <time>2016-08-08T20:35:19.000Z</time>
      </trkpt>
      <trkpt lat="48.88005" lon="2.34384">
        <ele>67.800003051758</ele>
        <time>2016-08-08T20:35:23.000Z</time>
      </trkpt>
      <trkpt lat="48.87984" lon="2.34375">
        <ele>66.599998474121</ele>
        <time>2016-08-08T20:35:27.000Z</time>
      </trkpt>
      <trkpt lat="48.87966" lon="2.34368">
        <ele>65.400001525879</ele>
        <time>2016-08-08T20:35:30.000Z</time>
      </trkpt>
      <trkpt lat="48.87946" lon="2.34356">
        <ele>64.199996948242</ele>
        <time>2016-08-08T20:35:34.000Z</time>
      </trkpt>
      <trkpt lat="48.87929" lon="2.34342">
        <ele>63.400001525879</ele>
        <time>2016-08-08T20:35:39.000Z</time>
      </trkpt>
      <trkpt lat="48.8791" lon="2.34326">
        <ele>62.799999237061</ele>
        <time>2016-08-08T20:35:44.000Z</time>
      </trkpt>
      <trkpt lat="48.87892" lon="2.34314">
        <ele>61.799999237061</ele>
        <time>2016-08-08T20:35:48.000Z</time>
      </trkpt>
      <trkpt lat="48.87874" lon="2.34303">
        <ele>61</ele>
        <time>2016-08-08T20:35:52.000Z</time>
      </trkpt>
      <trkpt lat="48.87854" lon="2.34291">
        <ele>60</ele>
        <time>2016-08-08T20:35:56.000Z</time>
      </trkpt>
      <trkpt lat="48.87846" lon="2.34279">
        <ele>59.200000762939</ele>
        <time>2016-08-08T20:35:59.000Z</time>
      </trkpt>
      <trkpt lat="48.87831" lon="2.34264">
        <ele>58.200000762939</ele>
        <time>2016-08-08T20:36:03.000Z</time>
      </trkpt>
      <trkpt lat="48.8781" lon="2.34254">
        <ele>57</ele>
        <time>2016-08-08T20:36:08.000Z</time>
      </trkpt>
      <trkpt lat="48.87788" lon="2.34248">
        <ele>55.799999237061</ele>
        <time>2016-08-08T20:36:12.000Z</time>
      </trkpt>
      <trkpt lat="48.8777" lon="2.34242">
        <ele>54.799999237061</ele>
        <time>2016-08-08T20:36:16.000Z</time>
      </trkpt>
      <trkpt lat="48.87759" lon="2.34232">
        <ele>54.400001525879</ele>
        <time>2016-08-08T20:36:19.000Z</time>
      </trkpt>
      <trkpt lat="48.87752" lon="2.34223">
        <ele>54.200000762939</ele>
        <time>2016-08-08T20:36:22.000Z</time>
      </trkpt>
      <trkpt lat="48.87736" lon="2.34215">
        <ele>53.599998474121</ele>
        <time>2016-08-08T20:36:28.000Z</time>
      </trkpt>
      <trkpt lat="48.87734" lon="2.34212">
        <ele>53.599998474121</ele>
        <time>2016-08-08T20:36:29.000Z</time>
      </trkpt>
      <trkpt lat="48.87718" lon="2.34209">
        <ele>53</ele>
        <time>2016-08-08T20:36:35.000Z</time>
      </trkpt>
      <trkpt lat="48.87706" lon="2.34219">
        <ele>52.599998474121</ele>
        <time>2016-08-08T20:36:45.000Z</time>
      </trkpt>
      <trkpt lat="48.87698" lon="2.34227">
        <ele>52.200000762939</ele>
        <time>2016-08-08T20:36:54.000Z</time>
      </trkpt>
      <trkpt lat="48.87696" lon="2.34229">
        <ele>52.200000762939</ele>
        <time>2016-08-08T20:37:41.000Z</time>
      </trkpt>
      <trkpt lat="48.87685" lon="2.34203">
        <ele>51.799999237061</ele>
        <time>2016-08-08T20:37:49.000Z</time>
      </trkpt>
      <trkpt lat="48.87674" lon="2.34181">
        <ele>51.400001525879</ele>
        <time>2016-08-08T20:37:54.000Z</time>
      </trkpt>
      <trkpt lat="48.87663" lon="2.34153">
        <ele>51</ele>
        <time>2016-08-08T20:37:59.000Z</time>
      </trkpt>
      <trkpt lat="48.87655" lon="2.34123">
        <ele>50.599998474121</ele>
        <time>2016-08-08T20:38:04.000Z</time>
      </trkpt>
      <trkpt lat="48.87641" lon="2.34098">
        <ele>49.799999237061</ele>
        <time>2016-08-08T20:38:09.000Z</time>
      </trkpt>
      <trkpt lat="48.87623" lon="2.34078">
        <ele>49.200000762939</ele>
        <time>2016-08-08T20:38:14.000Z</time>
      </trkpt>
      <trkpt lat="48.87608" lon="2.34056">
        <ele>48.400001525879</ele>
        <time>2016-08-08T20:38:19.000Z</time>
      </trkpt>
      <trkpt lat="48.87605" lon="2.34041">
        <ele>48</ele>
        <time>2016-08-08T20:38:23.000Z</time>
      </trkpt>
      <trkpt lat="48.87603" lon="2.3402">
        <ele>47.599998474121</ele>
        <time>2016-08-08T20:38:28.000Z</time>
      </trkpt>
      <trkpt lat="48.87591" lon="2.33998">
        <ele>47</ele>
        <time>2016-08-08T20:38:35.000Z</time>
      </trkpt>
      <trkpt lat="48.87588" lon="2.33987">
        <ele>46.799999237061</ele>
        <time>2016-08-08T20:38:39.000Z</time>
      </trkpt>
      <trkpt lat="48.87586" lon="2.33984">
        <ele>46.599998474121</ele>
        <time>2016-08-08T20:38:42.000Z</time>
      </trkpt>
      <trkpt lat="48.8758" lon="2.33985">
        <ele>46.799999237061</ele>
        <time>2016-08-08T20:38:46.000Z</time>
      </trkpt>
      <trkpt lat="48.8756" lon="2.33975">
        <ele>46.400001525879</ele>
        <time>2016-08-08T20:38:55.000Z</time>
      </trkpt>
      <trkpt lat="48.87542" lon="2.33956">
        <ele>46</ele>
        <time>2016-08-08T20:39:02.000Z</time>
      </trkpt>
      <trkpt lat="48.87523" lon="2.33946">
        <ele>45.799999237061</ele>
        <time>2016-08-08T20:39:06.000Z</time>
      </trkpt>
      <trkpt lat="48.87499" lon="2.33937">
        <ele>46.200000762939</ele>
        <time>2016-08-08T20:39:11.000Z</time>
      </trkpt>
      <trkpt lat="48.87487" lon="2.33931">
        <ele>46.200000762939</ele>
        <time>2016-08-08T20:39:14.000Z</time>
      </trkpt>
      <trkpt lat="48.87478" lon="2.33926">
        <ele>46.400001525879</ele>
        <time>2016-08-08T20:39:18.000Z</time>
      </trkpt>
      <trkpt lat="48.87461" lon="2.33922">
        <ele>46.599998474121</ele>
        <time>2016-08-08T20:39:22.000Z</time>
      </trkpt>
      <trkpt lat="48.87443" lon="2.33912">
        <ele>46.799999237061</ele>
        <time>2016-08-08T20:39:27.000Z</time>
      </trkpt>
      <trkpt lat="48.87424" lon="2.33908">
        <ele>47.200000762939</ele>
        <time>2016-08-08T20:39:34.000Z</time>
      </trkpt>
      <trkpt lat="48.87404" lon="2.33905">
        <ele>47.400001525879</ele>
        <time>2016-08-08T20:39:39.000Z</time>
      </trkpt>
      <trkpt lat="48.87386" lon="2.339">
        <ele>47.599998474121</ele>
        <time>2016-08-08T20:39:43.000Z</time>
      </trkpt>
      <trkpt lat="48.87366" lon="2.3389">
        <ele>47.799999237061</ele>
        <time>2016-08-08T20:39:48.000Z</time>
      </trkpt>
      <trkpt lat="48.87348" lon="2.33878">
        <ele>48.400001525879</ele>
        <time>2016-08-08T20:39:53.000Z</time>
      </trkpt>
      <trkpt lat="48.87328" lon="2.33873">
        <ele>49</ele>
        <time>2016-08-08T20:39:58.000Z</time>
      </trkpt>
      <trkpt lat="48.87309" lon="2.33863">
        <ele>49.799999237061</ele>
        <time>2016-08-08T20:40:03.000Z</time>
      </trkpt>
      <trkpt lat="48.87291" lon="2.33854">
        <ele>50.400001525879</ele>
        <time>2016-08-08T20:40:07.000Z</time>
      </trkpt>
      <trkpt lat="48.87273" lon="2.3385">
        <ele>51</ele>
        <time>2016-08-08T20:40:12.000Z</time>
      </trkpt>
      <trkpt lat="48.87253" lon="2.33843">
        <ele>50.799999237061</ele>
        <time>2016-08-08T20:40:18.000Z</time>
      </trkpt>
      <trkpt lat="48.87234" lon="2.33837">
        <ele>50.599998474121</ele>
        <time>2016-08-08T20:40:22.000Z</time>
      </trkpt>
      <trkpt lat="48.87216" lon="2.33831">
        <ele>50.400001525879</ele>
        <time>2016-08-08T20:40:28.000Z</time>
      </trkpt>
      <trkpt lat="48.87197" lon="2.3382">
        <ele>50</ele>
        <time>2016-08-08T20:40:33.000Z</time>
      </trkpt>
      <trkpt lat="48.8719" lon="2.33823">
        <ele>50</ele>
        <time>2016-08-08T20:40:34.000Z</time>
      </trkpt>
      <trkpt lat="48.87171" lon="2.33828">
        <ele>49.799999237061</ele>
        <time>2016-08-08T20:40:38.000Z</time>
      </trkpt>
      <trkpt lat="48.87162" lon="2.33848">
        <ele>49.599998474121</ele>
        <time>2016-08-08T20:40:48.000Z</time>
      </trkpt>
      <trkpt lat="48.87168" lon="2.33875">
        <ele>49.799999237061</ele>
        <time>2016-08-08T20:40:53.000Z</time>
      </trkpt>
      <trkpt lat="48.87169" lon="2.33906">
        <ele>49.400001525879</ele>
        <time>2016-08-08T20:40:58.000Z</time>
      </trkpt>
      <trkpt lat="48.87176" lon="2.33933">
        <ele>49</ele>
        <time>2016-08-08T20:41:03.000Z</time>
      </trkpt>
      <trkpt lat="48.87185" lon="2.33961">
        <ele>48.599998474121</ele>
        <time>2016-08-08T20:41:09.000Z</time>
      </trkpt>
      <trkpt lat="48.87191" lon="2.33988">
        <ele>48.200000762939</ele>
        <time>2016-08-08T20:41:15.000Z</time>
      </trkpt>
      <trkpt lat="48.87191" lon="2.34002">
        <ele>48.200000762939</ele>
        <time>2016-08-08T20:41:19.000Z</time>
      </trkpt>
      <trkpt lat="48.87178" lon="2.34005">
        <ele>48.200000762939</ele>
        <time>2016-08-08T20:41:23.000Z</time>
      </trkpt>
      <trkpt lat="48.87157" lon="2.33992">
        <ele>48</ele>
        <time>2016-08-08T20:41:28.000Z</time>
      </trkpt>
      <trkpt lat="48.87136" lon="2.33979">
        <ele>47.799999237061</ele>
        <time>2016-08-08T20:41:32.000Z</time>
      </trkpt>
      <trkpt lat="48.87116" lon="2.3397">
        <ele>47.599998474121</ele>
        <time>2016-08-08T20:41:35.000Z</time>
      </trkpt>
      <trkpt lat="48.8709" lon="2.33962">
        <ele>48.200000762939</ele>
        <time>2016-08-08T20:41:38.000Z</time>
      </trkpt>
      <trkpt lat="48.87066" lon="2.33955">
        <ele>49</ele>
        <time>2016-08-08T20:41:41.000Z</time>
      </trkpt>
      <trkpt lat="48.87045" lon="2.33945">
        <ele>49.400001525879</ele>
        <time>2016-08-08T20:41:44.000Z</time>
      </trkpt>
      <trkpt lat="48.87024" lon="2.33934">
        <ele>49.799999237061</ele>
        <time>2016-08-08T20:41:47.000Z</time>
      </trkpt>
      <trkpt lat="48.87002" lon="2.33921">
        <ele>49.599998474121</ele>
        <time>2016-08-08T20:41:50.000Z</time>
      </trkpt>
      <trkpt lat="48.8698" lon="2.33914">
        <ele>49.400001525879</ele>
        <time>2016-08-08T20:41:53.000Z</time>
      </trkpt>
      <trkpt lat="48.8696" lon="2.33908">
        <ele>49.400001525879</ele>
        <time>2016-08-08T20:41:56.000Z</time>
      </trkpt>
      <trkpt lat="48.86957" lon="2.33904">
        <ele>49.400001525879</ele>
        <time>2016-08-08T20:41:57.000Z</time>
      </trkpt>
      <trkpt lat="48.86938" lon="2.3389">
        <ele>49.400001525879</ele>
        <time>2016-08-08T20:42:01.000Z</time>
      </trkpt>
      <trkpt lat="48.86925" lon="2.33879">
        <ele>49.599998474121</ele>
        <time>2016-08-08T20:42:06.000Z</time>
      </trkpt>
      <trkpt lat="48.86917" lon="2.33871">
        <ele>49.799999237061</ele>
        <time>2016-08-08T20:42:09.000Z</time>
      </trkpt>
      <trkpt lat="48.86894" lon="2.33864">
        <ele>50.200000762939</ele>
        <time>2016-08-08T20:42:15.000Z</time>
      </trkpt>
      <trkpt lat="48.86874" lon="2.3386">
        <ele>50.200000762939</ele>
        <time>2016-08-08T20:42:19.000Z</time>
      </trkpt>
      <trkpt lat="48.8687" lon="2.33858">
        <ele>50.400001525879</ele>
        <time>2016-08-08T20:42:20.000Z</time>
      </trkpt>
      <trkpt lat="48.8685" lon="2.33848">
        <ele>50.400001525879</ele>
        <time>2016-08-08T20:42:25.000Z</time>
      </trkpt>
      <trkpt lat="48.86829" lon="2.33836">
        <ele>50.200000762939</ele>
        <time>2016-08-08T20:42:29.000Z</time>
      </trkpt>
      <trkpt lat="48.86812" lon="2.33824">
        <ele>50</ele>
        <time>2016-08-08T20:42:33.000Z</time>
      </trkpt>
      <trkpt lat="48.86795" lon="2.33812">
        <ele>50</ele>
        <time>2016-08-08T20:42:37.000Z</time>
      </trkpt>
      <trkpt lat="48.86782" lon="2.33806">
        <ele>49.799999237061</ele>
        <time>2016-08-08T20:42:40.000Z</time>
      </trkpt>
      <trkpt lat="48.86764" lon="2.33799">
        <ele>49.799999237061</ele>
        <time>2016-08-08T20:42:44.000Z</time>
      </trkpt>
      <trkpt lat="48.86748" lon="2.33788">
        <ele>50</ele>
        <time>2016-08-08T20:42:48.000Z</time>
      </trkpt>
      <trkpt lat="48.8673" lon="2.33781">
        <ele>50.200000762939</ele>
        <time>2016-08-08T20:42:52.000Z</time>
      </trkpt>
      <trkpt lat="48.86719" lon="2.33775">
        <ele>50.400001525879</ele>
        <time>2016-08-08T20:42:54.000Z</time>
      </trkpt>
      <trkpt lat="48.86696" lon="2.33767">
        <ele>50.599998474121</ele>
        <time>2016-08-08T20:42:58.000Z</time>
      </trkpt>
      <trkpt lat="48.86675" lon="2.3375">
        <ele>50</ele>
        <time>2016-08-08T20:43:02.000Z</time>
      </trkpt>
      <trkpt lat="48.86657" lon="2.33737">
        <ele>49.599998474121</ele>
        <time>2016-08-08T20:43:06.000Z</time>
      </trkpt>
      <trkpt lat="48.86639" lon="2.33728">
        <ele>48.799999237061</ele>
        <time>2016-08-08T20:43:10.000Z</time>
      </trkpt>
      <trkpt lat="48.8662" lon="2.33716">
        <ele>48.400001525879</ele>
        <time>2016-08-08T20:43:14.000Z</time>
      </trkpt>
      <trkpt lat="48.86602" lon="2.33707">
        <ele>47.799999237061</ele>
        <time>2016-08-08T20:43:17.000Z</time>
      </trkpt>
      <trkpt lat="48.86584" lon="2.33698">
        <ele>47.799999237061</ele>
        <time>2016-08-08T20:43:21.000Z</time>
      </trkpt>
      <trkpt lat="48.86561" lon="2.33688">
        <ele>47.799999237061</ele>
        <time>2016-08-08T20:43:26.000Z</time>
      </trkpt>
      <trkpt lat="48.86543" lon="2.3368">
        <ele>47.799999237061</ele>
        <time>2016-08-08T20:43:30.000Z</time>
      </trkpt>
      <trkpt lat="48.86525" lon="2.33663">
        <ele>48</ele>
        <time>2016-08-08T20:43:36.000Z</time>
      </trkpt>
      <trkpt lat="48.86506" lon="2.33652">
        <ele>47.599998474121</ele>
        <time>2016-08-08T20:43:41.000Z</time>
      </trkpt>
      <trkpt lat="48.86485" lon="2.33646">
        <ele>47</ele>
        <time>2016-08-08T20:43:47.000Z</time>
      </trkpt>
      <trkpt lat="48.86467" lon="2.33636">
        <ele>46.599998474121</ele>
        <time>2016-08-08T20:43:54.000Z</time>
      </trkpt>
      <trkpt lat="48.86466" lon="2.33635">
        <ele>46.599998474121</ele>
        <time>2016-08-08T20:43:55.000Z</time>
      </trkpt>
      <trkpt lat="48.8646" lon="2.3363">
        <ele>46.599998474121</ele>
        <time>2016-08-08T20:44:01.000Z</time>
      </trkpt>
      <trkpt lat="48.8646" lon="2.33636">
        <ele>46.400001525879</ele>
        <time>2016-08-08T20:44:14.000Z</time>
      </trkpt>
      <trkpt lat="48.86444" lon="2.33631">
        <ele>46</ele>
        <time>2016-08-08T20:44:28.000Z</time>
      </trkpt>
      <trkpt lat="48.86425" lon="2.33619">
        <ele>46</ele>
        <time>2016-08-08T20:44:35.000Z</time>
      </trkpt>
      <trkpt lat="48.86407" lon="2.3361">
        <ele>46.400001525879</ele>
        <time>2016-08-08T20:44:40.000Z</time>
      </trkpt>
      <trkpt lat="48.86387" lon="2.33608">
        <ele>46.400001525879</ele>
        <time>2016-08-08T20:44:45.000Z</time>
      </trkpt>
      <trkpt lat="48.8637" lon="2.33598">
        <ele>46.599998474121</ele>
        <time>2016-08-08T20:44:54.000Z</time>
      </trkpt>
      <trkpt lat="48.86363" lon="2.33595">
        <ele>46.599998474121</ele>
        <time>2016-08-08T20:44:58.000Z</time>
      </trkpt>
      <trkpt lat="48.86336" lon="2.3359">
        <ele>47</ele>
        <time>2016-08-08T20:45:05.000Z</time>
      </trkpt>
      <trkpt lat="48.86322" lon="2.33611">
        <ele>46.400001525879</ele>
        <time>2016-08-08T20:45:12.000Z</time>
      </trkpt>
      <trkpt lat="48.8632" lon="2.33623">
        <ele>46</ele>
        <time>2016-08-08T20:45:18.000Z</time>
      </trkpt>
      <trkpt lat="48.86312" lon="2.33649">
        <ele>45.799999237061</ele>
        <time>2016-08-08T20:45:42.000Z</time>
      </trkpt>
      <trkpt lat="48.86299" lon="2.33673">
        <ele>46</ele>
        <time>2016-08-08T20:45:48.000Z</time>
      </trkpt>
      <trkpt lat="48.86288" lon="2.33696">
        <ele>46</ele>
        <time>2016-08-08T20:45:54.000Z</time>
      </trkpt>
      <trkpt lat="48.86274" lon="2.33718">
        <ele>46.400001525879</ele>
        <time>2016-08-08T20:46:00.000Z</time>
      </trkpt>
      <trkpt lat="48.86261" lon="2.33739">
        <ele>46.599998474121</ele>
        <time>2016-08-08T20:46:05.000Z</time>
      </trkpt>
      <trkpt lat="48.86249" lon="2.33764">
        <ele>46</ele>
        <time>2016-08-08T20:46:10.000Z</time>
      </trkpt>
      <trkpt lat="48.86242" lon="2.33795">
        <ele>45.799999237061</ele>
        <time>2016-08-08T20:46:15.000Z</time>
      </trkpt>
      <trkpt lat="48.86231" lon="2.33823">
        <ele>44.400001525879</ele>
        <time>2016-08-08T20:46:19.000Z</time>
      </trkpt>
      <trkpt lat="48.8622" lon="2.3385">
        <ele>44.400001525879</ele>
        <time>2016-08-08T20:46:23.000Z</time>
      </trkpt>
      <trkpt lat="48.86219" lon="2.33864">
        <ele>44.799999237061</ele>
        <time>2016-08-08T20:46:25.000Z</time>
      </trkpt>
      <trkpt lat="48.86214" lon="2.33877">
        <ele>45</ele>
        <time>2016-08-08T20:46:27.000Z</time>
      </trkpt>
      <trkpt lat="48.86207" lon="2.33905">
        <ele>45.400001525879</ele>
        <time>2016-08-08T20:46:31.000Z</time>
      </trkpt>
      <trkpt lat="48.862" lon="2.33918">
        <ele>45.400001525879</ele>
        <time>2016-08-08T20:46:33.000Z</time>
      </trkpt>
      <trkpt lat="48.86195" lon="2.33932">
        <ele>46</ele>
        <time>2016-08-08T20:46:35.000Z</time>
      </trkpt>
      <trkpt lat="48.8619" lon="2.33953">
        <ele>46.799999237061</ele>
        <time>2016-08-08T20:46:38.000Z</time>
      </trkpt>
      <trkpt lat="48.86183" lon="2.33967">
        <ele>48</ele>
        <time>2016-08-08T20:46:40.000Z</time>
      </trkpt>
      <trkpt lat="48.86172" lon="2.33997">
        <ele>48.599998474121</ele>
        <time>2016-08-08T20:46:44.000Z</time>
      </trkpt>
      <trkpt lat="48.86164" lon="2.34024">
        <ele>48.400001525879</ele>
        <time>2016-08-08T20:46:48.000Z</time>
      </trkpt>
      <trkpt lat="48.86164" lon="2.34061">
        <ele>48.400001525879</ele>
        <time>2016-08-08T20:46:53.000Z</time>
      </trkpt>
      <trkpt lat="48.86159" lon="2.34093">
        <ele>48</ele>
        <time>2016-08-08T20:46:58.000Z</time>
      </trkpt>
      <trkpt lat="48.86153" lon="2.3411">
        <ele>48</ele>
        <time>2016-08-08T20:47:03.000Z</time>
      </trkpt>
      <trkpt lat="48.86152" lon="2.34113">
        <ele>48</ele>
        <time>2016-08-08T20:47:04.000Z</time>
      </trkpt>
      <trkpt lat="48.86157" lon="2.34129">
        <ele>48.400001525879</ele>
        <time>2016-08-08T20:47:08.000Z</time>
      </trkpt>
      <trkpt lat="48.86155" lon="2.3414">
        <ele>48.599998474121</ele>
        <time>2016-08-08T20:47:11.000Z</time>
      </trkpt>
      <trkpt lat="48.86156" lon="2.3415">
        <ele>48.799999237061</ele>
        <time>2016-08-08T20:47:13.000Z</time>
      </trkpt>
      <trkpt lat="48.86154" lon="2.34179">
        <ele>49.200000762939</ele>
        <time>2016-08-08T20:47:21.000Z</time>
      </trkpt>
      <trkpt lat="48.8615" lon="2.34206">
        <ele>49</ele>
        <time>2016-08-08T20:47:26.000Z</time>
      </trkpt>
      <trkpt lat="48.86141" lon="2.34232">
        <ele>49.200000762939</ele>
        <time>2016-08-08T20:47:30.000Z</time>
      </trkpt>
      <trkpt lat="48.86136" lon="2.34263">
        <ele>49.200000762939</ele>
        <time>2016-08-08T20:47:34.000Z</time>
      </trkpt>
      <trkpt lat="48.86129" lon="2.34292">
        <ele>49.599998474121</ele>
        <time>2016-08-08T20:47:38.000Z</time>
      </trkpt>
      <trkpt lat="48.86121" lon="2.34322">
        <ele>50.400001525879</ele>
        <time>2016-08-08T20:47:43.000Z</time>
      </trkpt>
      <trkpt lat="48.86111" lon="2.34348">
        <ele>50.400001525879</ele>
        <time>2016-08-08T20:47:47.000Z</time>
      </trkpt>
      <trkpt lat="48.86101" lon="2.34378">
        <ele>50.599998474121</ele>
        <time>2016-08-08T20:47:51.000Z</time>
      </trkpt>
      <trkpt lat="48.86093" lon="2.34407">
        <ele>50.599998474121</ele>
        <time>2016-08-08T20:47:55.000Z</time>
      </trkpt>
      <trkpt lat="48.86085" lon="2.3444">
        <ele>51.400001525879</ele>
        <time>2016-08-08T20:47:59.000Z</time>
      </trkpt>
      <trkpt lat="48.86079" lon="2.34473">
        <ele>52</ele>
        <time>2016-08-08T20:48:03.000Z</time>
      </trkpt>
      <trkpt lat="48.86087" lon="2.34505">
        <ele>51.400001525879</ele>
        <time>2016-08-08T20:48:07.000Z</time>
      </trkpt>
      <trkpt lat="48.86085" lon="2.34526">
        <ele>51.200000762939</ele>
        <time>2016-08-08T20:48:10.000Z</time>
      </trkpt>
      <trkpt lat="48.86078" lon="2.34556">
        <ele>50.799999237061</ele>
        <time>2016-08-08T20:48:14.000Z</time>
      </trkpt>
      <trkpt lat="48.86067" lon="2.34578">
        <ele>49.599998474121</ele>
        <time>2016-08-08T20:48:17.000Z</time>
      </trkpt>
      <trkpt lat="48.86054" lon="2.34603">
        <ele>47.599998474121</ele>
        <time>2016-08-08T20:48:21.000Z</time>
      </trkpt>
      <trkpt lat="48.86039" lon="2.34623">
        <ele>46.799999237061</ele>
        <time>2016-08-08T20:48:25.000Z</time>
      </trkpt>
      <trkpt lat="48.8603" lon="2.3463">
        <ele>47</ele>
        <time>2016-08-08T20:48:27.000Z</time>
      </trkpt>
      <trkpt lat="48.86013" lon="2.34642">
        <ele>47</ele>
        <time>2016-08-08T20:48:31.000Z</time>
      </trkpt>
      <trkpt lat="48.86005" lon="2.34651">
        <ele>46.799999237061</ele>
        <time>2016-08-08T20:48:35.000Z</time>
      </trkpt>
      <trkpt lat="48.85988" lon="2.34667">
        <ele>46.400001525879</ele>
        <time>2016-08-08T20:48:40.000Z</time>
      </trkpt>
      <trkpt lat="48.85971" lon="2.3468">
        <ele>46.400001525879</ele>
        <time>2016-08-08T20:48:45.000Z</time>
      </trkpt>
      <trkpt lat="48.85966" lon="2.34689">
        <ele>46.400001525879</ele>
        <time>2016-08-08T20:48:47.000Z</time>
      </trkpt>
      <trkpt lat="48.85966" lon="2.34705">
        <ele>45.799999237061</ele>
        <time>2016-08-08T20:48:51.000Z</time>
      </trkpt>
      <trkpt lat="48.85965" lon="2.34721">
        <ele>45.200000762939</ele>
        <time>2016-08-08T20:49:00.000Z</time>
      </trkpt>
      <trkpt lat="48.85967" lon="2.34721">
        <ele>45.200000762939</ele>
        <time>2016-08-08T20:49:01.000Z</time>
      </trkpt>
      <trkpt lat="48.85972" lon="2.34722">
        <ele>45.400001525879</ele>
        <time>2016-08-08T20:49:11.000Z</time>
      </trkpt>
    </trkseg>
  </trk>
  <trk>
    <name><![CDATA[Rando Roller du lundi 15 août  menée par bryce]]></name>
    <trkseg>
      <trkpt lat="48.85765" lon="2.34751">
        <ele>40</ele>
        <time>2016-08-15T18:21:37.000Z</time>
      </trkpt>
      <trkpt lat="48.85777" lon="2.34751">
        <ele>40.400001525879</ele>
        <time>2016-08-15T18:21:42.000Z</time>
      </trkpt>
      <trkpt lat="48.85792" lon="2.347">
        <ele>40</ele>
        <time>2016-08-15T18:21:52.000Z</time>
      </trkpt>
      <trkpt lat="48.85811" lon="2.34637">
        <ele>45.200000762939</ele>
        <time>2016-08-15T18:22:03.000Z</time>
      </trkpt>
      <trkpt lat="48.85832" lon="2.34592">
        <ele>49</ele>
        <time>2016-08-15T18:22:21.000Z</time>
      </trkpt>
      <trkpt lat="48.85862" lon="2.34599">
        <ele>50.400001525879</ele>
        <time>2016-08-15T18:22:31.000Z</time>
      </trkpt>
      <trkpt lat="48.85886" lon="2.34538">
        <ele>49.400001525879</ele>
        <time>2016-08-15T18:22:46.000Z</time>
      </trkpt>
      <trkpt lat="48.85896" lon="2.34506">
        <ele>49.400001525879</ele>
        <time>2016-08-15T18:22:51.000Z</time>
      </trkpt>
      <trkpt lat="48.85903" lon="2.34503">
        <ele>49.799999237061</ele>
        <time>2016-08-15T18:22:53.000Z</time>
      </trkpt>
      <trkpt lat="48.85939" lon="2.3451">
        <ele>51</ele>
        <time>2016-08-15T18:23:04.000Z</time>
      </trkpt>
      <trkpt lat="48.85963" lon="2.3445">
        <ele>52.200000762939</ele>
        <time>2016-08-15T18:23:20.000Z</time>
      </trkpt>
      <trkpt lat="48.85978" lon="2.34386">
        <ele>53.200000762939</ele>
        <time>2016-08-15T18:23:32.000Z</time>
      </trkpt>
      <trkpt lat="48.85988" lon="2.34363">
        <ele>53.400001525879</ele>
        <time>2016-08-15T18:23:36.000Z</time>
      </trkpt>
      <trkpt lat="48.85992" lon="2.34349">
        <ele>53.200000762939</ele>
        <time>2016-08-15T18:23:38.000Z</time>
      </trkpt>
      <trkpt lat="48.86012" lon="2.34299">
        <ele>51.799999237061</ele>
        <time>2016-08-15T18:23:46.000Z</time>
      </trkpt>
      <trkpt lat="48.86021" lon="2.34282">
        <ele>50.200000762939</ele>
        <time>2016-08-15T18:23:49.000Z</time>
      </trkpt>
      <trkpt lat="48.86047" lon="2.34219">
        <ele>48.200000762939</ele>
        <time>2016-08-15T18:23:59.000Z</time>
      </trkpt>
      <trkpt lat="48.86069" lon="2.34151">
        <ele>48</ele>
        <time>2016-08-15T18:24:08.000Z</time>
      </trkpt>
      <trkpt lat="48.86091" lon="2.34086">
        <ele>46.599998474121</ele>
        <time>2016-08-15T18:24:17.000Z</time>
      </trkpt>
      <trkpt lat="48.86106" lon="2.34044">
        <ele>46.400001525879</ele>
        <time>2016-08-15T18:24:23.000Z</time>
      </trkpt>
      <trkpt lat="48.86127" lon="2.33981">
        <ele>48.200000762939</ele>
        <time>2016-08-15T18:24:31.000Z</time>
      </trkpt>
      <trkpt lat="48.86145" lon="2.33919">
        <ele>48.400001525879</ele>
        <time>2016-08-15T18:24:41.000Z</time>
      </trkpt>
      <trkpt lat="48.86169" lon="2.33856">
        <ele>46</ele>
        <time>2016-08-15T18:24:54.000Z</time>
      </trkpt>
      <trkpt lat="48.86171" lon="2.33849">
        <ele>45.599998474121</ele>
        <time>2016-08-15T18:24:55.000Z</time>
      </trkpt>
      <trkpt lat="48.8619" lon="2.33785">
        <ele>45.200000762939</ele>
        <time>2016-08-15T18:25:04.000Z</time>
      </trkpt>
      <trkpt lat="48.86199" lon="2.33748">
        <ele>46.799999237061</ele>
        <time>2016-08-15T18:25:09.000Z</time>
      </trkpt>
      <trkpt lat="48.86205" lon="2.33724">
        <ele>48</ele>
        <time>2016-08-15T18:25:12.000Z</time>
      </trkpt>
      <trkpt lat="48.86216" lon="2.33678">
        <ele>49.599998474121</ele>
        <time>2016-08-15T18:25:18.000Z</time>
      </trkpt>
      <trkpt lat="48.86236" lon="2.33615">
        <ele>48.400001525879</ele>
        <time>2016-08-15T18:25:28.000Z</time>
      </trkpt>
      <trkpt lat="48.86255" lon="2.3355">
        <ele>46.400001525879</ele>
        <time>2016-08-15T18:25:37.000Z</time>
      </trkpt>
      <trkpt lat="48.86278" lon="2.33489">
        <ele>44.200000762939</ele>
        <time>2016-08-15T18:25:46.000Z</time>
      </trkpt>
      <trkpt lat="48.86288" lon="2.33462">
        <ele>44.400001525879</ele>
        <time>2016-08-15T18:25:50.000Z</time>
      </trkpt>
      <trkpt lat="48.86297" lon="2.33433">
        <ele>44.599998474121</ele>
        <time>2016-08-15T18:25:54.000Z</time>
      </trkpt>
      <trkpt lat="48.86302" lon="2.33418">
        <ele>45.599998474121</ele>
        <time>2016-08-15T18:25:56.000Z</time>
      </trkpt>
      <trkpt lat="48.86316" lon="2.33382">
        <ele>48</ele>
        <time>2016-08-15T18:26:01.000Z</time>
      </trkpt>
      <trkpt lat="48.86326" lon="2.33375">
        <ele>48.599998474121</ele>
        <time>2016-08-15T18:26:03.000Z</time>
      </trkpt>
      <trkpt lat="48.86338" lon="2.33375">
        <ele>49</ele>
        <time>2016-08-15T18:26:05.000Z</time>
      </trkpt>
      <trkpt lat="48.86347" lon="2.33379">
        <ele>49.400001525879</ele>
        <time>2016-08-15T18:26:07.000Z</time>
      </trkpt>
      <trkpt lat="48.86376" lon="2.33408">
        <ele>50.599998474121</ele>
        <time>2016-08-15T18:26:17.000Z</time>
      </trkpt>
      <trkpt lat="48.86357" lon="2.33472">
        <ele>49</ele>
        <time>2016-08-15T18:26:30.000Z</time>
      </trkpt>
      <trkpt lat="48.86334" lon="2.33533">
        <ele>46.599998474121</ele>
        <time>2016-08-15T18:26:44.000Z</time>
      </trkpt>
      <trkpt lat="48.86309" lon="2.33594">
        <ele>47</ele>
        <time>2016-08-15T18:26:56.000Z</time>
      </trkpt>
      <trkpt lat="48.86297" lon="2.33649">
        <ele>46.400001525879</ele>
        <time>2016-08-15T18:27:06.000Z</time>
      </trkpt>
      <trkpt lat="48.86292" lon="2.33662">
        <ele>46.400001525879</ele>
        <time>2016-08-15T18:27:08.000Z</time>
      </trkpt>
      <trkpt lat="48.8627" lon="2.33728">
        <ele>46.400001525879</ele>
        <time>2016-08-15T18:27:18.000Z</time>
      </trkpt>
      <trkpt lat="48.86264" lon="2.33755">
        <ele>46</ele>
        <time>2016-08-15T18:27:22.000Z</time>
      </trkpt>
      <trkpt lat="48.8625" lon="2.33813">
        <ele>45.200000762939</ele>
        <time>2016-08-15T18:27:31.000Z</time>
      </trkpt>
      <trkpt lat="48.86248" lon="2.33825">
        <ele>44.599998474121</ele>
        <time>2016-08-15T18:27:33.000Z</time>
      </trkpt>
      <trkpt lat="48.86236" lon="2.33893">
        <ele>46.200000762939</ele>
        <time>2016-08-15T18:27:47.000Z</time>
      </trkpt>
      <trkpt lat="48.86214" lon="2.33954">
        <ele>47.200000762939</ele>
        <time>2016-08-15T18:28:05.000Z</time>
      </trkpt>
      <trkpt lat="48.862" lon="2.34019">
        <ele>49.400001525879</ele>
        <time>2016-08-15T18:28:19.000Z</time>
      </trkpt>
      <trkpt lat="48.86192" lon="2.34059">
        <ele>49</ele>
        <time>2016-08-15T18:28:27.000Z</time>
      </trkpt>
      <trkpt lat="48.86178" lon="2.34125">
        <ele>49.200000762939</ele>
        <time>2016-08-15T18:28:40.000Z</time>
      </trkpt>
      <trkpt lat="48.86161" lon="2.3419">
        <ele>49.400001525879</ele>
        <time>2016-08-15T18:28:55.000Z</time>
      </trkpt>
      <trkpt lat="48.86155" lon="2.34262">
        <ele>49.400001525879</ele>
        <time>2016-08-15T18:29:08.000Z</time>
      </trkpt>
      <trkpt lat="48.8614" lon="2.34331">
        <ele>50.200000762939</ele>
        <time>2016-08-15T18:29:21.000Z</time>
      </trkpt>
      <trkpt lat="48.8613" lon="2.34403">
        <ele>48.599998474121</ele>
        <time>2016-08-15T18:29:32.000Z</time>
      </trkpt>
      <trkpt lat="48.86126" lon="2.34445">
        <ele>47</ele>
        <time>2016-08-15T18:29:38.000Z</time>
      </trkpt>
      <trkpt lat="48.86111" lon="2.34502">
        <ele>50.400001525879</ele>
        <time>2016-08-15T18:29:47.000Z</time>
      </trkpt>
      <trkpt lat="48.86098" lon="2.34537">
        <ele>50.799999237061</ele>
        <time>2016-08-15T18:29:53.000Z</time>
      </trkpt>
      <trkpt lat="48.86079" lon="2.34584">
        <ele>49.400001525879</ele>
        <time>2016-08-15T18:30:02.000Z</time>
      </trkpt>
      <trkpt lat="48.86037" lon="2.34615">
        <ele>47.200000762939</ele>
        <time>2016-08-15T18:30:12.000Z</time>
      </trkpt>
      <trkpt lat="48.85995" lon="2.34653">
        <ele>46.799999237061</ele>
        <time>2016-08-15T18:30:24.000Z</time>
      </trkpt>
      <trkpt lat="48.85954" lon="2.34684">
        <ele>46.400001525879</ele>
        <time>2016-08-15T18:30:36.000Z</time>
      </trkpt>
      <trkpt lat="48.85918" lon="2.34647">
        <ele>48</ele>
        <time>2016-08-15T18:30:53.000Z</time>
      </trkpt>
      <trkpt lat="48.85915" lon="2.3464">
        <ele>48.200000762939</ele>
        <time>2016-08-15T18:31:25.000Z</time>
      </trkpt>
      <trkpt lat="48.85873" lon="2.34604">
        <ele>50</ele>
        <time>2016-08-15T18:31:39.000Z</time>
      </trkpt>
      <trkpt lat="48.85829" lon="2.34575">
        <ele>48.799999237061</ele>
        <time>2016-08-15T18:31:49.000Z</time>
      </trkpt>
      <trkpt lat="48.85821" lon="2.34583">
        <ele>48.400001525879</ele>
        <time>2016-08-15T18:31:52.000Z</time>
      </trkpt>
      <trkpt lat="48.85808" lon="2.34647">
        <ele>43.799999237061</ele>
        <time>2016-08-15T18:32:01.000Z</time>
      </trkpt>
      <trkpt lat="48.85796" lon="2.34694">
        <ele>40</ele>
        <time>2016-08-15T18:32:08.000Z</time>
      </trkpt>
      <trkpt lat="48.85752" lon="2.34692">
        <ele>39</ele>
        <time>2016-08-15T18:32:20.000Z</time>
      </trkpt>
      <trkpt lat="48.85736" lon="2.34692">
        <ele>39.799999237061</ele>
        <time>2016-08-15T18:32:40.000Z</time>
      </trkpt>
      <trkpt lat="48.85693" lon="2.34674">
        <ele>41</ele>
        <time>2016-08-15T18:32:56.000Z</time>
      </trkpt>
      <trkpt lat="48.85649" lon="2.3465">
        <ele>44.400001525879</ele>
        <time>2016-08-15T18:33:15.000Z</time>
      </trkpt>
      <trkpt lat="48.85641" lon="2.34645">
        <ele>45</ele>
        <time>2016-08-15T18:33:17.000Z</time>
      </trkpt>
      <trkpt lat="48.85632" lon="2.3464">
        <ele>45.799999237061</ele>
        <time>2016-08-15T18:33:19.000Z</time>
      </trkpt>
      <trkpt lat="48.85618" lon="2.34637">
        <ele>47</ele>
        <time>2016-08-15T18:33:22.000Z</time>
      </trkpt>
      <trkpt lat="48.85574" lon="2.34606">
        <ele>47.599998474121</ele>
        <time>2016-08-15T18:33:30.000Z</time>
      </trkpt>
      <trkpt lat="48.8553" lon="2.34575">
        <ele>46.799999237061</ele>
        <time>2016-08-15T18:33:38.000Z</time>
      </trkpt>
      <trkpt lat="48.8552" lon="2.34566">
        <ele>46.400001525879</ele>
        <time>2016-08-15T18:33:40.000Z</time>
      </trkpt>
      <trkpt lat="48.85493" lon="2.34539">
        <ele>44.400001525879</ele>
        <time>2016-08-15T18:33:46.000Z</time>
      </trkpt>
      <trkpt lat="48.85453" lon="2.34503">
        <ele>41.799999237061</ele>
        <time>2016-08-15T18:33:55.000Z</time>
      </trkpt>
      <trkpt lat="48.8544" lon="2.34504">
        <ele>41</ele>
        <time>2016-08-15T18:33:58.000Z</time>
      </trkpt>
      <trkpt lat="48.85433" lon="2.34513">
        <ele>41.200000762939</ele>
        <time>2016-08-15T18:34:00.000Z</time>
      </trkpt>
      <trkpt lat="48.85427" lon="2.34526">
        <ele>41.400001525879</ele>
        <time>2016-08-15T18:34:02.000Z</time>
      </trkpt>
      <trkpt lat="48.85417" lon="2.34553">
        <ele>41.799999237061</ele>
        <time>2016-08-15T18:34:06.000Z</time>
      </trkpt>
      <trkpt lat="48.85391" lon="2.34617">
        <ele>41.599998474121</ele>
        <time>2016-08-15T18:34:16.000Z</time>
      </trkpt>
      <trkpt lat="48.85369" lon="2.34676">
        <ele>40.599998474121</ele>
        <time>2016-08-15T18:34:26.000Z</time>
      </trkpt>
      <trkpt lat="48.85356" lon="2.34704">
        <ele>38.599998474121</ele>
        <time>2016-08-15T18:34:39.000Z</time>
      </trkpt>
      <trkpt lat="48.8531" lon="2.34686">
        <ele>42.400001525879</ele>
        <time>2016-08-15T18:34:54.000Z</time>
      </trkpt>
      <trkpt lat="48.85277" lon="2.34665">
        <ele>45.599998474121</ele>
        <time>2016-08-15T18:35:01.000Z</time>
      </trkpt>
      <trkpt lat="48.85232" lon="2.3464">
        <ele>45</ele>
        <time>2016-08-15T18:35:10.000Z</time>
      </trkpt>
      <trkpt lat="48.85188" lon="2.34617">
        <ele>44</ele>
        <time>2016-08-15T18:35:23.000Z</time>
      </trkpt>
      <trkpt lat="48.85164" lon="2.34604">
        <ele>44.400001525879</ele>
        <time>2016-08-15T18:35:29.000Z</time>
      </trkpt>
      <trkpt lat="48.85121" lon="2.3458">
        <ele>45.400001525879</ele>
        <time>2016-08-15T18:35:40.000Z</time>
      </trkpt>
      <trkpt lat="48.85079" lon="2.34551">
        <ele>49</ele>
        <time>2016-08-15T18:35:59.000Z</time>
      </trkpt>
      <trkpt lat="48.85073" lon="2.34555">
        <ele>49.400001525879</ele>
        <time>2016-08-15T18:36:08.000Z</time>
      </trkpt>
      <trkpt lat="48.85062" lon="2.34602">
        <ele>50</ele>
        <time>2016-08-15T18:36:19.000Z</time>
      </trkpt>
      <trkpt lat="48.85053" lon="2.34656">
        <ele>47</ele>
        <time>2016-08-15T18:36:27.000Z</time>
      </trkpt>
      <trkpt lat="48.8504" lon="2.34724">
        <ele>44.799999237061</ele>
        <time>2016-08-15T18:36:36.000Z</time>
      </trkpt>
      <trkpt lat="48.85024" lon="2.34797">
        <ele>42.799999237061</ele>
        <time>2016-08-15T18:36:45.000Z</time>
      </trkpt>
      <trkpt lat="48.85006" lon="2.34867">
        <ele>44</ele>
        <time>2016-08-15T18:36:54.000Z</time>
      </trkpt>
      <trkpt lat="48.84998" lon="2.34888">
        <ele>45</ele>
        <time>2016-08-15T18:36:57.000Z</time>
      </trkpt>
      <trkpt lat="48.8499" lon="2.34898">
        <ele>46.200000762939</ele>
        <time>2016-08-15T18:36:59.000Z</time>
      </trkpt>
      <trkpt lat="48.84951" lon="2.34935">
        <ele>50.200000762939</ele>
        <time>2016-08-15T18:37:09.000Z</time>
      </trkpt>
      <trkpt lat="48.84947" lon="2.34939">
        <ele>50</ele>
        <time>2016-08-15T18:37:10.000Z</time>
      </trkpt>
      <trkpt lat="48.84906" lon="2.34973">
        <ele>48.400001525879</ele>
        <time>2016-08-15T18:37:21.000Z</time>
      </trkpt>
      <trkpt lat="48.84902" lon="2.34976">
        <ele>48.599998474121</ele>
        <time>2016-08-15T18:37:22.000Z</time>
      </trkpt>
      <trkpt lat="48.8486" lon="2.35012">
        <ele>49.200000762939</ele>
        <time>2016-08-15T18:37:31.000Z</time>
      </trkpt>
      <trkpt lat="48.84823" lon="2.35043">
        <ele>49</ele>
        <time>2016-08-15T18:37:39.000Z</time>
      </trkpt>
      <trkpt lat="48.84797" lon="2.35065">
        <ele>48.799999237061</ele>
        <time>2016-08-15T18:37:45.000Z</time>
      </trkpt>
      <trkpt lat="48.84752" lon="2.35096">
        <ele>48.599998474121</ele>
        <time>2016-08-15T18:37:55.000Z</time>
      </trkpt>
      <trkpt lat="48.8474" lon="2.35106">
        <ele>48.400001525879</ele>
        <time>2016-08-15T18:37:58.000Z</time>
      </trkpt>
      <trkpt lat="48.84721" lon="2.35125">
        <ele>47.799999237061</ele>
        <time>2016-08-15T18:38:03.000Z</time>
      </trkpt>
      <trkpt lat="48.84712" lon="2.3513">
        <ele>48</ele>
        <time>2016-08-15T18:38:05.000Z</time>
      </trkpt>
      <trkpt lat="48.84704" lon="2.35135">
        <ele>48</ele>
        <time>2016-08-15T18:38:07.000Z</time>
      </trkpt>
      <trkpt lat="48.84662" lon="2.35158">
        <ele>50</ele>
        <time>2016-08-15T18:38:18.000Z</time>
      </trkpt>
      <trkpt lat="48.84616" lon="2.35175">
        <ele>55</ele>
        <time>2016-08-15T18:38:30.000Z</time>
      </trkpt>
      <trkpt lat="48.84611" lon="2.35176">
        <ele>55.400001525879</ele>
        <time>2016-08-15T18:38:31.000Z</time>
      </trkpt>
      <trkpt lat="48.84598" lon="2.35182">
        <ele>56.400001525879</ele>
        <time>2016-08-15T18:38:34.000Z</time>
      </trkpt>
      <trkpt lat="48.84562" lon="2.35197">
        <ele>58.200000762939</ele>
        <time>2016-08-15T18:38:42.000Z</time>
      </trkpt>
      <trkpt lat="48.84514" lon="2.35214">
        <ele>57.200000762939</ele>
        <time>2016-08-15T18:38:52.000Z</time>
      </trkpt>
      <trkpt lat="48.84467" lon="2.35231">
        <ele>57.400001525879</ele>
        <time>2016-08-15T18:39:03.000Z</time>
      </trkpt>
      <trkpt lat="48.84422" lon="2.35237">
        <ele>57.200000762939</ele>
        <time>2016-08-15T18:39:17.000Z</time>
      </trkpt>
      <trkpt lat="48.84375" lon="2.35227">
        <ele>58.200000762939</ele>
        <time>2016-08-15T18:39:29.000Z</time>
      </trkpt>
      <trkpt lat="48.84327" lon="2.35215">
        <ele>58.200000762939</ele>
        <time>2016-08-15T18:39:40.000Z</time>
      </trkpt>
      <trkpt lat="48.84277" lon="2.35207">
        <ele>56.599998474121</ele>
        <time>2016-08-15T18:39:51.000Z</time>
      </trkpt>
      <trkpt lat="48.84232" lon="2.35197">
        <ele>54.599998474121</ele>
        <time>2016-08-15T18:39:58.000Z</time>
      </trkpt>
      <trkpt lat="48.84185" lon="2.35196">
        <ele>51</ele>
        <time>2016-08-15T18:40:04.000Z</time>
      </trkpt>
      <trkpt lat="48.84134" lon="2.352">
        <ele>47</ele>
        <time>2016-08-15T18:40:10.000Z</time>
      </trkpt>
      <trkpt lat="48.84081" lon="2.35195">
        <ele>45.200000762939</ele>
        <time>2016-08-15T18:40:16.000Z</time>
      </trkpt>
      <trkpt lat="48.84039" lon="2.35173">
        <ele>43.599998474121</ele>
        <time>2016-08-15T18:40:21.000Z</time>
      </trkpt>
      <trkpt lat="48.8399" lon="2.35151">
        <ele>42.799999237061</ele>
        <time>2016-08-15T18:40:27.000Z</time>
      </trkpt>
      <trkpt lat="48.83944" lon="2.35125">
        <ele>42.599998474121</ele>
        <time>2016-08-15T18:40:33.000Z</time>
      </trkpt>
      <trkpt lat="48.83903" lon="2.35095">
        <ele>44.400001525879</ele>
        <time>2016-08-15T18:40:40.000Z</time>
      </trkpt>
      <trkpt lat="48.83864" lon="2.35058">
        <ele>45.200000762939</ele>
        <time>2016-08-15T18:40:52.000Z</time>
      </trkpt>
      <trkpt lat="48.83859" lon="2.35054">
        <ele>45.200000762939</ele>
        <time>2016-08-15T18:40:56.000Z</time>
      </trkpt>
      <trkpt lat="48.83819" lon="2.35088">
        <ele>47.200000762939</ele>
        <time>2016-08-15T18:41:11.000Z</time>
      </trkpt>
      <trkpt lat="48.83778" lon="2.35118">
        <ele>48.200000762939</ele>
        <time>2016-08-15T18:41:22.000Z</time>
      </trkpt>
      <trkpt lat="48.83774" lon="2.35121">
        <ele>48.400001525879</ele>
        <time>2016-08-15T18:41:23.000Z</time>
      </trkpt>
      <trkpt lat="48.83731" lon="2.35152">
        <ele>47.799999237061</ele>
        <time>2016-08-15T18:41:34.000Z</time>
      </trkpt>
      <trkpt lat="48.83686" lon="2.35176">
        <ele>48.400001525879</ele>
        <time>2016-08-15T18:41:49.000Z</time>
      </trkpt>
      <trkpt lat="48.83645" lon="2.35206">
        <ele>49.599998474121</ele>
        <time>2016-08-15T18:42:00.000Z</time>
      </trkpt>
      <trkpt lat="48.83602" lon="2.35237">
        <ele>51.400001525879</ele>
        <time>2016-08-15T18:42:12.000Z</time>
      </trkpt>
      <trkpt lat="48.83561" lon="2.35267">
        <ele>51.599998474121</ele>
        <time>2016-08-15T18:42:23.000Z</time>
      </trkpt>
      <trkpt lat="48.8355" lon="2.35276">
        <ele>51.799999237061</ele>
        <time>2016-08-15T18:42:26.000Z</time>
      </trkpt>
      <trkpt lat="48.83506" lon="2.3531">
        <ele>53.200000762939</ele>
        <time>2016-08-15T18:42:38.000Z</time>
      </trkpt>
      <trkpt lat="48.83463" lon="2.35335">
        <ele>55.799999237061</ele>
        <time>2016-08-15T18:42:49.000Z</time>
      </trkpt>
      <trkpt lat="48.83422" lon="2.35364">
        <ele>58.400001525879</ele>
        <time>2016-08-15T18:43:02.000Z</time>
      </trkpt>
      <trkpt lat="48.83379" lon="2.35395">
        <ele>60</ele>
        <time>2016-08-15T18:43:16.000Z</time>
      </trkpt>
      <trkpt lat="48.83336" lon="2.35421">
        <ele>60.599998474121</ele>
        <time>2016-08-15T18:43:29.000Z</time>
      </trkpt>
      <trkpt lat="48.83292" lon="2.35452">
        <ele>62</ele>
        <time>2016-08-15T18:43:44.000Z</time>
      </trkpt>
      <trkpt lat="48.83251" lon="2.35487">
        <ele>62.799999237061</ele>
        <time>2016-08-15T18:43:59.000Z</time>
      </trkpt>
      <trkpt lat="48.8323" lon="2.35494">
        <ele>62.200000762939</ele>
        <time>2016-08-15T18:44:06.000Z</time>
      </trkpt>
      <trkpt lat="48.83219" lon="2.35491">
        <ele>62</ele>
        <time>2016-08-15T18:45:51.000Z</time>
      </trkpt>
      <trkpt lat="48.83196" lon="2.35503">
        <ele>61.200000762939</ele>
        <time>2016-08-15T18:46:03.000Z</time>
      </trkpt>
      <trkpt lat="48.83156" lon="2.35469">
        <ele>62.599998474121</ele>
        <time>2016-08-15T18:46:19.000Z</time>
      </trkpt>
      <trkpt lat="48.83121" lon="2.35436">
        <ele>64.199996948242</ele>
        <time>2016-08-15T18:46:40.000Z</time>
      </trkpt>
      <trkpt lat="48.83098" lon="2.35438">
        <ele>65.199996948242</ele>
        <time>2016-08-15T18:47:01.000Z</time>
      </trkpt>
      <trkpt lat="48.83078" lon="2.35496">
        <ele>66.599998474121</ele>
        <time>2016-08-15T18:47:22.000Z</time>
      </trkpt>
      <trkpt lat="48.83074" lon="2.35543">
        <ele>65.800003051758</ele>
        <time>2016-08-15T18:47:40.000Z</time>
      </trkpt>
      <trkpt lat="48.83077" lon="2.35563">
        <ele>65.800003051758</ele>
        <time>2016-08-15T18:47:48.000Z</time>
      </trkpt>
      <trkpt lat="48.83036" lon="2.35586">
        <ele>72.199996948242</ele>
        <time>2016-08-15T18:48:10.000Z</time>
      </trkpt>
      <trkpt lat="48.82989" lon="2.35608">
        <ele>70.800003051758</ele>
        <time>2016-08-15T18:48:24.000Z</time>
      </trkpt>
      <trkpt lat="48.82972" lon="2.35614">
        <ele>69.400001525879</ele>
        <time>2016-08-15T18:48:28.000Z</time>
      </trkpt>
      <trkpt lat="48.82955" lon="2.35617">
        <ele>69.400001525879</ele>
        <time>2016-08-15T18:48:32.000Z</time>
      </trkpt>
      <trkpt lat="48.8291" lon="2.35631">
        <ele>68.199996948242</ele>
        <time>2016-08-15T18:48:42.000Z</time>
      </trkpt>
      <trkpt lat="48.82864" lon="2.35648">
        <ele>68.400001525879</ele>
        <time>2016-08-15T18:48:52.000Z</time>
      </trkpt>
      <trkpt lat="48.82819" lon="2.35663">
        <ele>68.599998474121</ele>
        <time>2016-08-15T18:49:01.000Z</time>
      </trkpt>
      <trkpt lat="48.82806" lon="2.35668">
        <ele>68.400001525879</ele>
        <time>2016-08-15T18:49:04.000Z</time>
      </trkpt>
      <trkpt lat="48.82761" lon="2.35681">
        <ele>67.400001525879</ele>
        <time>2016-08-15T18:49:14.000Z</time>
      </trkpt>
      <trkpt lat="48.82715" lon="2.35695">
        <ele>67</ele>
        <time>2016-08-15T18:49:25.000Z</time>
      </trkpt>
      <trkpt lat="48.8267" lon="2.35711">
        <ele>66.800003051758</ele>
        <time>2016-08-15T18:49:36.000Z</time>
      </trkpt>
      <trkpt lat="48.82625" lon="2.3572">
        <ele>66.800003051758</ele>
        <time>2016-08-15T18:49:51.000Z</time>
      </trkpt>
      <trkpt lat="48.82577" lon="2.35732">
        <ele>66.400001525879</ele>
        <time>2016-08-15T18:50:03.000Z</time>
      </trkpt>
      <trkpt lat="48.82538" lon="2.35741">
        <ele>64</ele>
        <time>2016-08-15T18:50:12.000Z</time>
      </trkpt>
      <trkpt lat="48.82517" lon="2.35747">
        <ele>62.799999237061</ele>
        <time>2016-08-15T18:50:16.000Z</time>
      </trkpt>
      <trkpt lat="48.82509" lon="2.35742">
        <ele>62.599998474121</ele>
        <time>2016-08-15T18:50:18.000Z</time>
      </trkpt>
      <trkpt lat="48.82506" lon="2.35729">
        <ele>62.799999237061</ele>
        <time>2016-08-15T18:50:20.000Z</time>
      </trkpt>
      <trkpt lat="48.8249" lon="2.3566">
        <ele>63.200000762939</ele>
        <time>2016-08-15T18:50:30.000Z</time>
      </trkpt>
      <trkpt lat="48.82487" lon="2.35643">
        <ele>62.599998474121</ele>
        <time>2016-08-15T18:50:32.000Z</time>
      </trkpt>
      <trkpt lat="48.82476" lon="2.35576">
        <ele>59.400001525879</ele>
        <time>2016-08-15T18:50:40.000Z</time>
      </trkpt>
      <trkpt lat="48.82475" lon="2.35567">
        <ele>59</ele>
        <time>2016-08-15T18:50:41.000Z</time>
      </trkpt>
      <trkpt lat="48.82476" lon="2.3555">
        <ele>58.400001525879</ele>
        <time>2016-08-15T18:50:43.000Z</time>
      </trkpt>
      <trkpt lat="48.82481" lon="2.35531">
        <ele>57.799999237061</ele>
        <time>2016-08-15T18:50:46.000Z</time>
      </trkpt>
      <trkpt lat="48.8248" lon="2.35523">
        <ele>57.400001525879</ele>
        <time>2016-08-15T18:50:48.000Z</time>
      </trkpt>
      <trkpt lat="48.82452" lon="2.35468">
        <ele>55.400001525879</ele>
        <time>2016-08-15T18:51:01.000Z</time>
      </trkpt>
      <trkpt lat="48.82418" lon="2.35412">
        <ele>52.200000762939</ele>
        <time>2016-08-15T18:51:10.000Z</time>
      </trkpt>
      <trkpt lat="48.82397" lon="2.35363">
        <ele>51.799999237061</ele>
        <time>2016-08-15T18:51:17.000Z</time>
      </trkpt>
      <trkpt lat="48.82396" lon="2.35346">
        <ele>51.400001525879</ele>
        <time>2016-08-15T18:51:19.000Z</time>
      </trkpt>
      <trkpt lat="48.82406" lon="2.35334">
        <ele>51</ele>
        <time>2016-08-15T18:51:23.000Z</time>
      </trkpt>
      <trkpt lat="48.8245" lon="2.35354">
        <ele>52</ele>
        <time>2016-08-15T18:51:38.000Z</time>
      </trkpt>
      <trkpt lat="48.82495" lon="2.35371">
        <ele>54.599998474121</ele>
        <time>2016-08-15T18:51:59.000Z</time>
      </trkpt>
      <trkpt lat="48.8254" lon="2.35385">
        <ele>57.200000762939</ele>
        <time>2016-08-15T18:52:11.000Z</time>
      </trkpt>
      <trkpt lat="48.82556" lon="2.35375">
        <ele>58.200000762939</ele>
        <time>2016-08-15T18:52:25.000Z</time>
      </trkpt>
      <trkpt lat="48.82552" lon="2.35372">
        <ele>58</ele>
        <time>2016-08-15T18:52:30.000Z</time>
      </trkpt>
      <trkpt lat="48.8255" lon="2.35369">
        <ele>57.799999237061</ele>
        <time>2016-08-15T18:52:33.000Z</time>
      </trkpt>
      <trkpt lat="48.82544" lon="2.35332">
        <ele>57.599998474121</ele>
        <time>2016-08-15T18:52:47.000Z</time>
      </trkpt>
      <trkpt lat="48.82542" lon="2.35329">
        <ele>57.400001525879</ele>
        <time>2016-08-15T18:52:50.000Z</time>
      </trkpt>
      <trkpt lat="48.82535" lon="2.35336">
        <ele>57.400001525879</ele>
        <time>2016-08-15T18:52:59.000Z</time>
      </trkpt>
      <trkpt lat="48.82532" lon="2.3534">
        <ele>57.400001525879</ele>
        <time>2016-08-15T18:53:03.000Z</time>
      </trkpt>
      <trkpt lat="48.82527" lon="2.35344">
        <ele>57</ele>
        <time>2016-08-15T18:53:08.000Z</time>
      </trkpt>
      <trkpt lat="48.82523" lon="2.35344">
        <ele>56.799999237061</ele>
        <time>2016-08-15T18:53:12.000Z</time>
      </trkpt>
      <trkpt lat="48.82526" lon="2.35345">
        <ele>57</ele>
        <time>2016-08-15T18:53:34.000Z</time>
      </trkpt>
      <trkpt lat="48.82532" lon="2.35343">
        <ele>57.400001525879</ele>
        <time>2016-08-15T18:53:41.000Z</time>
      </trkpt>
      <trkpt lat="48.82537" lon="2.35344">
        <ele>57.599998474121</ele>
        <time>2016-08-15T18:53:50.000Z</time>
      </trkpt>
      <trkpt lat="48.82557" lon="2.3537">
        <ele>58.200000762939</ele>
        <time>2016-08-15T18:54:21.000Z</time>
      </trkpt>
      <trkpt lat="48.82602" lon="2.35361">
        <ele>59.200000762939</ele>
        <time>2016-08-15T18:54:37.000Z</time>
      </trkpt>
      <trkpt lat="48.82634" lon="2.35345">
        <ele>60.200000762939</ele>
        <time>2016-08-15T18:54:44.000Z</time>
      </trkpt>
      <trkpt lat="48.82648" lon="2.35342">
        <ele>60.400001525879</ele>
        <time>2016-08-15T18:54:47.000Z</time>
      </trkpt>
      <trkpt lat="48.82675" lon="2.35338">
        <ele>61</ele>
        <time>2016-08-15T18:54:54.000Z</time>
      </trkpt>
      <trkpt lat="48.82691" lon="2.3536">
        <ele>62</ele>
        <time>2016-08-15T18:55:13.000Z</time>
      </trkpt>
      <trkpt lat="48.82695" lon="2.35361">
        <ele>62.200000762939</ele>
        <time>2016-08-15T18:55:15.000Z</time>
      </trkpt>
      <trkpt lat="48.82722" lon="2.35354">
        <ele>62.400001525879</ele>
        <time>2016-08-15T18:55:34.000Z</time>
      </trkpt>
      <trkpt lat="48.82741" lon="2.35384">
        <ele>63.599998474121</ele>
        <time>2016-08-15T18:57:19.000Z</time>
      </trkpt>
      <trkpt lat="48.82736" lon="2.3537">
        <ele>63.200000762939</ele>
        <time>2016-08-15T18:59:07.000Z</time>
      </trkpt>
      <trkpt lat="48.82773" lon="2.35326">
        <ele>64</ele>
        <time>2016-08-15T18:59:23.000Z</time>
      </trkpt>
      <trkpt lat="48.82801" lon="2.35273">
        <ele>66</ele>
        <time>2016-08-15T18:59:36.000Z</time>
      </trkpt>
      <trkpt lat="48.82801" lon="2.35266">
        <ele>65.599998474121</ele>
        <time>2016-08-15T18:59:38.000Z</time>
      </trkpt>
      <trkpt lat="48.82776" lon="2.35268">
        <ele>63.599998474121</ele>
        <time>2016-08-15T18:59:54.000Z</time>
      </trkpt>
      <trkpt lat="48.82768" lon="2.3527">
        <ele>63</ele>
        <time>2016-08-15T18:59:58.000Z</time>
      </trkpt>
      <trkpt lat="48.82767" lon="2.35259">
        <ele>62.799999237061</ele>
        <time>2016-08-15T19:01:15.000Z</time>
      </trkpt>
      <trkpt lat="48.82767" lon="2.35254">
        <ele>62.599998474121</ele>
        <time>2016-08-15T19:01:17.000Z</time>
      </trkpt>
      <trkpt lat="48.82767" lon="2.35246">
        <ele>62.599998474121</ele>
        <time>2016-08-15T19:01:20.000Z</time>
      </trkpt>
      <trkpt lat="48.82736" lon="2.35194">
        <ele>61.400001525879</ele>
        <time>2016-08-15T19:01:36.000Z</time>
      </trkpt>
      <trkpt lat="48.82733" lon="2.3519">
        <ele>61.400001525879</ele>
        <time>2016-08-15T19:01:37.000Z</time>
      </trkpt>
      <trkpt lat="48.82698" lon="2.35155">
        <ele>60.200000762939</ele>
        <time>2016-08-15T19:01:45.000Z</time>
      </trkpt>
      <trkpt lat="48.82678" lon="2.35131">
        <ele>60.799999237061</ele>
        <time>2016-08-15T19:01:50.000Z</time>
      </trkpt>
      <trkpt lat="48.82674" lon="2.35121">
        <ele>61.200000762939</ele>
        <time>2016-08-15T19:01:52.000Z</time>
      </trkpt>
      <trkpt lat="48.82673" lon="2.35099">
        <ele>62.599998474121</ele>
        <time>2016-08-15T19:01:57.000Z</time>
      </trkpt>
      <trkpt lat="48.82649" lon="2.35033">
        <ele>62.400001525879</ele>
        <time>2016-08-15T19:02:07.000Z</time>
      </trkpt>
      <trkpt lat="48.82629" lon="2.34968">
        <ele>60.200000762939</ele>
        <time>2016-08-15T19:02:15.000Z</time>
      </trkpt>
      <trkpt lat="48.82608" lon="2.34902">
        <ele>56.599998474121</ele>
        <time>2016-08-15T19:02:23.000Z</time>
      </trkpt>
      <trkpt lat="48.82587" lon="2.34841">
        <ele>53.599998474121</ele>
        <time>2016-08-15T19:02:31.000Z</time>
      </trkpt>
      <trkpt lat="48.82585" lon="2.34836">
        <ele>53.200000762939</ele>
        <time>2016-08-15T19:02:32.000Z</time>
      </trkpt>
      <trkpt lat="48.82569" lon="2.34773">
        <ele>54.599998474121</ele>
        <time>2016-08-15T19:02:46.000Z</time>
      </trkpt>
      <trkpt lat="48.82565" lon="2.34737">
        <ele>55.200000762939</ele>
        <time>2016-08-15T19:02:52.000Z</time>
      </trkpt>
      <trkpt lat="48.82579" lon="2.34664">
        <ele>55.799999237061</ele>
        <time>2016-08-15T19:03:01.000Z</time>
      </trkpt>
      <trkpt lat="48.82586" lon="2.34593">
        <ele>55.599998474121</ele>
        <time>2016-08-15T19:03:09.000Z</time>
      </trkpt>
      <trkpt lat="48.82596" lon="2.34536">
        <ele>55</ele>
        <time>2016-08-15T19:03:16.000Z</time>
      </trkpt>
      <trkpt lat="48.82605" lon="2.34523">
        <ele>54.799999237061</ele>
        <time>2016-08-15T19:03:19.000Z</time>
      </trkpt>
      <trkpt lat="48.82613" lon="2.34523">
        <ele>54.799999237061</ele>
        <time>2016-08-15T19:03:21.000Z</time>
      </trkpt>
      <trkpt lat="48.82634" lon="2.34526">
        <ele>54.400001525879</ele>
        <time>2016-08-15T19:03:25.000Z</time>
      </trkpt>
      <trkpt lat="48.82644" lon="2.34529">
        <ele>54.200000762939</ele>
        <time>2016-08-15T19:03:27.000Z</time>
      </trkpt>
      <trkpt lat="48.82662" lon="2.34533">
        <ele>54</ele>
        <time>2016-08-15T19:03:30.000Z</time>
      </trkpt>
      <trkpt lat="48.82674" lon="2.34535">
        <ele>53.799999237061</ele>
        <time>2016-08-15T19:03:32.000Z</time>
      </trkpt>
      <trkpt lat="48.8271" lon="2.34543">
        <ele>52.400001525879</ele>
        <time>2016-08-15T19:03:38.000Z</time>
      </trkpt>
      <trkpt lat="48.82756" lon="2.34552">
        <ele>50.200000762939</ele>
        <time>2016-08-15T19:03:46.000Z</time>
      </trkpt>
      <trkpt lat="48.82774" lon="2.34557">
        <ele>49.400001525879</ele>
        <time>2016-08-15T19:03:49.000Z</time>
      </trkpt>
      <trkpt lat="48.8278" lon="2.34559">
        <ele>49.200000762939</ele>
        <time>2016-08-15T19:03:50.000Z</time>
      </trkpt>
      <trkpt lat="48.82788" lon="2.34571">
        <ele>49</ele>
        <time>2016-08-15T19:03:52.000Z</time>
      </trkpt>
      <trkpt lat="48.82789" lon="2.34587">
        <ele>49.799999237061</ele>
        <time>2016-08-15T19:03:54.000Z</time>
      </trkpt>
      <trkpt lat="48.8277" lon="2.34648">
        <ele>55.799999237061</ele>
        <time>2016-08-15T19:04:19.000Z</time>
      </trkpt>
      <trkpt lat="48.8277" lon="2.34655">
        <ele>56.400001525879</ele>
        <time>2016-08-15T19:04:22.000Z</time>
      </trkpt>
      <trkpt lat="48.8276" lon="2.34698">
        <ele>58.200000762939</ele>
        <time>2016-08-15T19:04:36.000Z</time>
      </trkpt>
      <trkpt lat="48.82753" lon="2.34702">
        <ele>58.400001525879</ele>
        <time>2016-08-15T19:05:20.000Z</time>
      </trkpt>
      <trkpt lat="48.82708" lon="2.34679">
        <ele>57.599998474121</ele>
        <time>2016-08-15T19:05:34.000Z</time>
      </trkpt>
      <trkpt lat="48.82664" lon="2.34663">
        <ele>57</ele>
        <time>2016-08-15T19:05:43.000Z</time>
      </trkpt>
      <trkpt lat="48.82619" lon="2.34652">
        <ele>57</ele>
        <time>2016-08-15T19:05:51.000Z</time>
      </trkpt>
      <trkpt lat="48.82613" lon="2.34652">
        <ele>57</ele>
        <time>2016-08-15T19:05:52.000Z</time>
      </trkpt>
      <trkpt lat="48.82591" lon="2.34654">
        <ele>56</ele>
        <time>2016-08-15T19:05:56.000Z</time>
      </trkpt>
      <trkpt lat="48.82582" lon="2.34659">
        <ele>55.799999237061</ele>
        <time>2016-08-15T19:05:58.000Z</time>
      </trkpt>
      <trkpt lat="48.82564" lon="2.34719">
        <ele>54.799999237061</ele>
        <time>2016-08-15T19:06:11.000Z</time>
      </trkpt>
      <trkpt lat="48.82564" lon="2.34793">
        <ele>54</ele>
        <time>2016-08-15T19:06:24.000Z</time>
      </trkpt>
      <trkpt lat="48.82569" lon="2.34823">
        <ele>53.200000762939</ele>
        <time>2016-08-15T19:06:29.000Z</time>
      </trkpt>
      <trkpt lat="48.82577" lon="2.34884">
        <ele>55.599998474121</ele>
        <time>2016-08-15T19:06:39.000Z</time>
      </trkpt>
      <trkpt lat="48.82584" lon="2.34957">
        <ele>58.400001525879</ele>
        <time>2016-08-15T19:06:50.000Z</time>
      </trkpt>
      <trkpt lat="48.82585" lon="2.34964">
        <ele>58.599998474121</ele>
        <time>2016-08-15T19:06:51.000Z</time>
      </trkpt>
      <trkpt lat="48.82588" lon="2.35033">
        <ele>60.599998474121</ele>
        <time>2016-08-15T19:07:01.000Z</time>
      </trkpt>
      <trkpt lat="48.82595" lon="2.35104">
        <ele>59.799999237061</ele>
        <time>2016-08-15T19:07:12.000Z</time>
      </trkpt>
      <trkpt lat="48.82595" lon="2.35111">
        <ele>59.400001525879</ele>
        <time>2016-08-15T19:07:13.000Z</time>
      </trkpt>
      <trkpt lat="48.82601" lon="2.35185">
        <ele>56.599998474121</ele>
        <time>2016-08-15T19:07:24.000Z</time>
      </trkpt>
      <trkpt lat="48.82602" lon="2.35192">
        <ele>56.400001525879</ele>
        <time>2016-08-15T19:07:25.000Z</time>
      </trkpt>
      <trkpt lat="48.82602" lon="2.35205">
        <ele>56.400001525879</ele>
        <time>2016-08-15T19:07:27.000Z</time>
      </trkpt>
      <trkpt lat="48.82603" lon="2.3524">
        <ele>56</ele>
        <time>2016-08-15T19:07:32.000Z</time>
      </trkpt>
      <trkpt lat="48.82603" lon="2.35267">
        <ele>56.599998474121</ele>
        <time>2016-08-15T19:07:36.000Z</time>
      </trkpt>
      <trkpt lat="48.82605" lon="2.353">
        <ele>57.799999237061</ele>
        <time>2016-08-15T19:07:41.000Z</time>
      </trkpt>
      <trkpt lat="48.82609" lon="2.35364">
        <ele>59.599998474121</ele>
        <time>2016-08-15T19:07:51.000Z</time>
      </trkpt>
      <trkpt lat="48.82606" lon="2.35436">
        <ele>60</ele>
        <time>2016-08-15T19:08:02.000Z</time>
      </trkpt>
      <trkpt lat="48.82607" lon="2.35478">
        <ele>60</ele>
        <time>2016-08-15T19:08:09.000Z</time>
      </trkpt>
      <trkpt lat="48.82612" lon="2.35544">
        <ele>61.400001525879</ele>
        <time>2016-08-15T19:08:19.000Z</time>
      </trkpt>
      <trkpt lat="48.82611" lon="2.35552">
        <ele>61.599998474121</ele>
        <time>2016-08-15T19:08:20.000Z</time>
      </trkpt>
      <trkpt lat="48.82614" lon="2.35599">
        <ele>63</ele>
        <time>2016-08-15T19:08:27.000Z</time>
      </trkpt>
      <trkpt lat="48.82618" lon="2.35671">
        <ele>65.400001525879</ele>
        <time>2016-08-15T19:08:38.000Z</time>
      </trkpt>
      <trkpt lat="48.82619" lon="2.35708">
        <ele>66.400001525879</ele>
        <time>2016-08-15T19:09:15.000Z</time>
      </trkpt>
      <trkpt lat="48.82614" lon="2.35723">
        <ele>67</ele>
        <time>2016-08-15T19:09:21.000Z</time>
      </trkpt>
      <trkpt lat="48.82566" lon="2.35734">
        <ele>65.800003051758</ele>
        <time>2016-08-15T19:09:34.000Z</time>
      </trkpt>
      <trkpt lat="48.82517" lon="2.35748">
        <ele>62.799999237061</ele>
        <time>2016-08-15T19:09:44.000Z</time>
      </trkpt>
      <trkpt lat="48.82468" lon="2.35765">
        <ele>60.200000762939</ele>
        <time>2016-08-15T19:09:53.000Z</time>
      </trkpt>
      <trkpt lat="48.82424" lon="2.35782">
        <ele>59.599998474121</ele>
        <time>2016-08-15T19:10:01.000Z</time>
      </trkpt>
      <trkpt lat="48.82378" lon="2.35795">
        <ele>61.200000762939</ele>
        <time>2016-08-15T19:10:09.000Z</time>
      </trkpt>
      <trkpt lat="48.82331" lon="2.3581">
        <ele>62.799999237061</ele>
        <time>2016-08-15T19:10:18.000Z</time>
      </trkpt>
      <trkpt lat="48.82286" lon="2.35824">
        <ele>64.400001525879</ele>
        <time>2016-08-15T19:10:28.000Z</time>
      </trkpt>
      <trkpt lat="48.82241" lon="2.35846">
        <ele>62.599998474121</ele>
        <time>2016-08-15T19:10:41.000Z</time>
      </trkpt>
      <trkpt lat="48.82214" lon="2.35855">
        <ele>60.599998474121</ele>
        <time>2016-08-15T19:10:48.000Z</time>
      </trkpt>
      <trkpt lat="48.82168" lon="2.35861">
        <ele>60</ele>
        <time>2016-08-15T19:10:58.000Z</time>
      </trkpt>
      <trkpt lat="48.82163" lon="2.35863">
        <ele>60.200000762939</ele>
        <time>2016-08-15T19:10:59.000Z</time>
      </trkpt>
      <trkpt lat="48.82118" lon="2.35882">
        <ele>60</ele>
        <time>2016-08-15T19:11:07.000Z</time>
      </trkpt>
      <trkpt lat="48.82066" lon="2.35897">
        <ele>59.200000762939</ele>
        <time>2016-08-15T19:11:14.000Z</time>
      </trkpt>
      <trkpt lat="48.82034" lon="2.35908">
        <ele>59</ele>
        <time>2016-08-15T19:11:18.000Z</time>
      </trkpt>
      <trkpt lat="48.81983" lon="2.35933">
        <ele>61.599998474121</ele>
        <time>2016-08-15T19:11:24.000Z</time>
      </trkpt>
      <trkpt lat="48.81937" lon="2.35952">
        <ele>63</ele>
        <time>2016-08-15T19:11:31.000Z</time>
      </trkpt>
      <trkpt lat="48.81911" lon="2.35946">
        <ele>63.200000762939</ele>
        <time>2016-08-15T19:12:24.000Z</time>
      </trkpt>
      <trkpt lat="48.81864" lon="2.35963">
        <ele>61.599998474121</ele>
        <time>2016-08-15T19:12:39.000Z</time>
      </trkpt>
      <trkpt lat="48.81817" lon="2.35974">
        <ele>61.599998474121</ele>
        <time>2016-08-15T19:12:51.000Z</time>
      </trkpt>
      <trkpt lat="48.81801" lon="2.35979">
        <ele>61.599998474121</ele>
        <time>2016-08-15T19:12:55.000Z</time>
      </trkpt>
      <trkpt lat="48.8177" lon="2.35989">
        <ele>61.400001525879</ele>
        <time>2016-08-15T19:13:02.000Z</time>
      </trkpt>
      <trkpt lat="48.81752" lon="2.35997">
        <ele>61</ele>
        <time>2016-08-15T19:13:06.000Z</time>
      </trkpt>
      <trkpt lat="48.81723" lon="2.36009">
        <ele>61.200000762939</ele>
        <time>2016-08-15T19:13:12.000Z</time>
      </trkpt>
      <trkpt lat="48.81678" lon="2.36026">
        <ele>61.400001525879</ele>
        <time>2016-08-15T19:13:21.000Z</time>
      </trkpt>
      <trkpt lat="48.81669" lon="2.36027">
        <ele>61.799999237061</ele>
        <time>2016-08-15T19:13:23.000Z</time>
      </trkpt>
      <trkpt lat="48.81621" lon="2.36023">
        <ele>63.400001525879</ele>
        <time>2016-08-15T19:13:33.000Z</time>
      </trkpt>
      <trkpt lat="48.81603" lon="2.36027">
        <ele>63.799999237061</ele>
        <time>2016-08-15T19:13:37.000Z</time>
      </trkpt>
      <trkpt lat="48.81564" lon="2.36055">
        <ele>64.599998474121</ele>
        <time>2016-08-15T19:13:46.000Z</time>
      </trkpt>
      <trkpt lat="48.81528" lon="2.36068">
        <ele>65.800003051758</ele>
        <time>2016-08-15T19:13:53.000Z</time>
      </trkpt>
      <trkpt lat="48.81519" lon="2.36063">
        <ele>66</ele>
        <time>2016-08-15T19:13:55.000Z</time>
      </trkpt>
      <trkpt lat="48.81481" lon="2.3602">
        <ele>65.599998474121</ele>
        <time>2016-08-15T19:14:07.000Z</time>
      </trkpt>
      <trkpt lat="48.81472" lon="2.36014">
        <ele>65.400001525879</ele>
        <time>2016-08-15T19:14:09.000Z</time>
      </trkpt>
      <trkpt lat="48.81433" lon="2.35977">
        <ele>65.599998474121</ele>
        <time>2016-08-15T19:14:20.000Z</time>
      </trkpt>
      <trkpt lat="48.81392" lon="2.35941">
        <ele>67</ele>
        <time>2016-08-15T19:14:32.000Z</time>
      </trkpt>
      <trkpt lat="48.81374" lon="2.35927">
        <ele>67.400001525879</ele>
        <time>2016-08-15T19:14:36.000Z</time>
      </trkpt>
      <trkpt lat="48.81329" lon="2.35896">
        <ele>68.199996948242</ele>
        <time>2016-08-15T19:14:46.000Z</time>
      </trkpt>
      <trkpt lat="48.81315" lon="2.35885">
        <ele>68.199996948242</ele>
        <time>2016-08-15T19:14:49.000Z</time>
      </trkpt>
      <trkpt lat="48.81306" lon="2.35879">
        <ele>68.400001525879</ele>
        <time>2016-08-15T19:14:51.000Z</time>
      </trkpt>
      <trkpt lat="48.81266" lon="2.35846">
        <ele>68.599998474121</ele>
        <time>2016-08-15T19:15:01.000Z</time>
      </trkpt>
      <trkpt lat="48.81226" lon="2.35811">
        <ele>70.199996948242</ele>
        <time>2016-08-15T19:15:16.000Z</time>
      </trkpt>
      <trkpt lat="48.81179" lon="2.35809">
        <ele>72.400001525879</ele>
        <time>2016-08-15T19:15:35.000Z</time>
      </trkpt>
      <trkpt lat="48.81133" lon="2.35818">
        <ele>74</ele>
        <time>2016-08-15T19:15:47.000Z</time>
      </trkpt>
      <trkpt lat="48.81087" lon="2.35825">
        <ele>75.400001525879</ele>
        <time>2016-08-15T19:16:00.000Z</time>
      </trkpt>
      <trkpt lat="48.81041" lon="2.35815">
        <ele>76.400001525879</ele>
        <time>2016-08-15T19:16:15.000Z</time>
      </trkpt>
      <trkpt lat="48.81023" lon="2.35814">
        <ele>76.800003051758</ele>
        <time>2016-08-15T19:16:21.000Z</time>
      </trkpt>
      <trkpt lat="48.80977" lon="2.3581">
        <ele>78.599998474121</ele>
        <time>2016-08-15T19:16:36.000Z</time>
      </trkpt>
      <trkpt lat="48.80954" lon="2.3582">
        <ele>79.400001525879</ele>
        <time>2016-08-15T19:17:01.000Z</time>
      </trkpt>
      <trkpt lat="48.80911" lon="2.35805">
        <ele>81.599998474121</ele>
        <time>2016-08-15T19:17:21.000Z</time>
      </trkpt>
      <trkpt lat="48.80872" lon="2.3577">
        <ele>84</ele>
        <time>2016-08-15T19:17:39.000Z</time>
      </trkpt>
      <trkpt lat="48.80836" lon="2.35729">
        <ele>87</ele>
        <time>2016-08-15T19:17:57.000Z</time>
      </trkpt>
      <trkpt lat="48.80801" lon="2.35685">
        <ele>90.800003051758</ele>
        <time>2016-08-15T19:18:19.000Z</time>
      </trkpt>
      <trkpt lat="48.80771" lon="2.35631">
        <ele>95.400001525879</ele>
        <time>2016-08-15T19:18:39.000Z</time>
      </trkpt>
      <trkpt lat="48.8075" lon="2.35568">
        <ele>99</ele>
        <time>2016-08-15T19:18:57.000Z</time>
      </trkpt>
      <trkpt lat="48.80732" lon="2.35531">
        <ele>100.80000305176</ele>
        <time>2016-08-15T19:19:55.000Z</time>
      </trkpt>
      <trkpt lat="48.80697" lon="2.35496">
        <ele>104</ele>
        <time>2016-08-15T19:20:15.000Z</time>
      </trkpt>
      <trkpt lat="48.80702" lon="2.35498">
        <ele>103.59999847412</ele>
        <time>2016-08-15T19:21:16.000Z</time>
      </trkpt>
      <trkpt lat="48.80703" lon="2.35506">
        <ele>103.59999847412</ele>
        <time>2016-08-15T19:21:23.000Z</time>
      </trkpt>
      <trkpt lat="48.80701" lon="2.35436">
        <ele>102.19999694824</ele>
        <time>2016-08-15T19:21:41.000Z</time>
      </trkpt>
      <trkpt lat="48.80698" lon="2.35366">
        <ele>102.59999847412</ele>
        <time>2016-08-15T19:21:57.000Z</time>
      </trkpt>
      <trkpt lat="48.80697" lon="2.35351">
        <ele>103</ele>
        <time>2016-08-15T19:22:06.000Z</time>
      </trkpt>
      <trkpt lat="48.80706" lon="2.35341">
        <ele>102.40000152588</ele>
        <time>2016-08-15T19:23:43.000Z</time>
      </trkpt>
      <trkpt lat="48.80697" lon="2.35349">
        <ele>103</ele>
        <time>2016-08-15T19:23:50.000Z</time>
      </trkpt>
      <trkpt lat="48.80696" lon="2.35356">
        <ele>103</ele>
        <time>2016-08-15T19:23:52.000Z</time>
      </trkpt>
      <trkpt lat="48.80701" lon="2.35426">
        <ele>101.80000305176</ele>
        <time>2016-08-15T19:24:06.000Z</time>
      </trkpt>
      <trkpt lat="48.80709" lon="2.35495">
        <ele>102.80000305176</ele>
        <time>2016-08-15T19:24:21.000Z</time>
      </trkpt>
      <trkpt lat="48.80738" lon="2.35523">
        <ele>100</ele>
        <time>2016-08-15T19:24:44.000Z</time>
      </trkpt>
      <trkpt lat="48.80741" lon="2.35519">
        <ele>99.599998474121</ele>
        <time>2016-08-15T19:24:49.000Z</time>
      </trkpt>
      <trkpt lat="48.80739" lon="2.3545">
        <ele>98.599998474121</ele>
        <time>2016-08-15T19:25:02.000Z</time>
      </trkpt>
      <trkpt lat="48.80729" lon="2.35381">
        <ele>99.599998474121</ele>
        <time>2016-08-15T19:25:11.000Z</time>
      </trkpt>
      <trkpt lat="48.80718" lon="2.35311">
        <ele>101.19999694824</ele>
        <time>2016-08-15T19:25:21.000Z</time>
      </trkpt>
      <trkpt lat="48.80713" lon="2.35276">
        <ele>100.19999694824</ele>
        <time>2016-08-15T19:25:26.000Z</time>
      </trkpt>
      <trkpt lat="48.80696" lon="2.35205">
        <ele>98.199996948242</ele>
        <time>2016-08-15T19:25:36.000Z</time>
      </trkpt>
      <trkpt lat="48.80672" lon="2.35141">
        <ele>96.400001525879</ele>
        <time>2016-08-15T19:25:45.000Z</time>
      </trkpt>
      <trkpt lat="48.80651" lon="2.35078">
        <ele>96.199996948242</ele>
        <time>2016-08-15T19:25:53.000Z</time>
      </trkpt>
      <trkpt lat="48.80644" lon="2.3506">
        <ele>95.599998474121</ele>
        <time>2016-08-15T19:25:55.000Z</time>
      </trkpt>
      <trkpt lat="48.80618" lon="2.34991">
        <ele>94.599998474121</ele>
        <time>2016-08-15T19:26:02.000Z</time>
      </trkpt>
      <trkpt lat="48.80594" lon="2.34925">
        <ele>93</ele>
        <time>2016-08-15T19:26:09.000Z</time>
      </trkpt>
      <trkpt lat="48.80571" lon="2.34858">
        <ele>92.199996948242</ele>
        <time>2016-08-15T19:26:16.000Z</time>
      </trkpt>
      <trkpt lat="48.80552" lon="2.34789">
        <ele>91.599998474121</ele>
        <time>2016-08-15T19:26:23.000Z</time>
      </trkpt>
      <trkpt lat="48.80536" lon="2.34717">
        <ele>89.599998474121</ele>
        <time>2016-08-15T19:26:30.000Z</time>
      </trkpt>
      <trkpt lat="48.8052" lon="2.34648">
        <ele>88.199996948242</ele>
        <time>2016-08-15T19:26:37.000Z</time>
      </trkpt>
      <trkpt lat="48.80502" lon="2.34578">
        <ele>85.800003051758</ele>
        <time>2016-08-15T19:26:43.000Z</time>
      </trkpt>
      <trkpt lat="48.8049" lon="2.34527">
        <ele>84.400001525879</ele>
        <time>2016-08-15T19:26:49.000Z</time>
      </trkpt>
      <trkpt lat="48.80499" lon="2.34474">
        <ele>83</ele>
        <time>2016-08-15T19:28:07.000Z</time>
      </trkpt>
      <trkpt lat="48.80495" lon="2.34424">
        <ele>83</ele>
        <time>2016-08-15T19:28:17.000Z</time>
      </trkpt>
      <trkpt lat="48.8047" lon="2.34379">
        <ele>82.199996948242</ele>
        <time>2016-08-15T19:28:24.000Z</time>
      </trkpt>
      <trkpt lat="48.80437" lon="2.34318">
        <ele>80.199996948242</ele>
        <time>2016-08-15T19:28:31.000Z</time>
      </trkpt>
      <trkpt lat="48.80409" lon="2.34263">
        <ele>78</ele>
        <time>2016-08-15T19:28:37.000Z</time>
      </trkpt>
      <trkpt lat="48.80375" lon="2.34205">
        <ele>75.800003051758</ele>
        <time>2016-08-15T19:28:44.000Z</time>
      </trkpt>
      <trkpt lat="48.80345" lon="2.34152">
        <ele>73.800003051758</ele>
        <time>2016-08-15T19:28:51.000Z</time>
      </trkpt>
      <trkpt lat="48.80316" lon="2.34108">
        <ele>72.199996948242</ele>
        <time>2016-08-15T19:29:01.000Z</time>
      </trkpt>
      <trkpt lat="48.80281" lon="2.34056">
        <ele>70.400001525879</ele>
        <time>2016-08-15T19:29:11.000Z</time>
      </trkpt>
      <trkpt lat="48.80245" lon="2.34007">
        <ele>67.800003051758</ele>
        <time>2016-08-15T19:29:19.000Z</time>
      </trkpt>
      <trkpt lat="48.80219" lon="2.33967">
        <ele>66.400001525879</ele>
        <time>2016-08-15T19:29:25.000Z</time>
      </trkpt>
      <trkpt lat="48.8021" lon="2.33946">
        <ele>65.800003051758</ele>
        <time>2016-08-15T19:29:28.000Z</time>
      </trkpt>
      <trkpt lat="48.80206" lon="2.33923">
        <ele>65</ele>
        <time>2016-08-15T19:29:31.000Z</time>
      </trkpt>
      <trkpt lat="48.80219" lon="2.33867">
        <ele>66</ele>
        <time>2016-08-15T19:29:47.000Z</time>
      </trkpt>
      <trkpt lat="48.80222" lon="2.33865">
        <ele>66</ele>
        <time>2016-08-15T19:30:12.000Z</time>
      </trkpt>
      <trkpt lat="48.80267" lon="2.33833">
        <ele>60.599998474121</ele>
        <time>2016-08-15T19:30:24.000Z</time>
      </trkpt>
      <trkpt lat="48.80315" lon="2.33823">
        <ele>57.200000762939</ele>
        <time>2016-08-15T19:30:31.000Z</time>
      </trkpt>
      <trkpt lat="48.80361" lon="2.33815">
        <ele>53.599998474121</ele>
        <time>2016-08-15T19:30:37.000Z</time>
      </trkpt>
      <trkpt lat="48.80408" lon="2.33811">
        <ele>49.400001525879</ele>
        <time>2016-08-15T19:30:43.000Z</time>
      </trkpt>
      <trkpt lat="48.80457" lon="2.33807">
        <ele>46</ele>
        <time>2016-08-15T19:30:49.000Z</time>
      </trkpt>
      <trkpt lat="48.80502" lon="2.33794">
        <ele>43.799999237061</ele>
        <time>2016-08-15T19:30:55.000Z</time>
      </trkpt>
      <trkpt lat="48.80547" lon="2.33784">
        <ele>42.599998474121</ele>
        <time>2016-08-15T19:31:01.000Z</time>
      </trkpt>
      <trkpt lat="48.80591" lon="2.33771">
        <ele>43.599998474121</ele>
        <time>2016-08-15T19:31:08.000Z</time>
      </trkpt>
      <trkpt lat="48.80631" lon="2.33735">
        <ele>47</ele>
        <time>2016-08-15T19:31:21.000Z</time>
      </trkpt>
      <trkpt lat="48.80663" lon="2.33683">
        <ele>50</ele>
        <time>2016-08-15T19:31:36.000Z</time>
      </trkpt>
      <trkpt lat="48.80688" lon="2.33626">
        <ele>54.799999237061</ele>
        <time>2016-08-15T19:31:48.000Z</time>
      </trkpt>
      <trkpt lat="48.80711" lon="2.33565">
        <ele>59</ele>
        <time>2016-08-15T19:32:02.000Z</time>
      </trkpt>
      <trkpt lat="48.8073" lon="2.33502">
        <ele>61.799999237061</ele>
        <time>2016-08-15T19:32:17.000Z</time>
      </trkpt>
      <trkpt lat="48.80751" lon="2.3344">
        <ele>63.200000762939</ele>
        <time>2016-08-15T19:32:34.000Z</time>
      </trkpt>
      <trkpt lat="48.80762" lon="2.33408">
        <ele>63.400001525879</ele>
        <time>2016-08-15T19:32:43.000Z</time>
      </trkpt>
      <trkpt lat="48.80786" lon="2.33349">
        <ele>66</ele>
        <time>2016-08-15T19:33:02.000Z</time>
      </trkpt>
      <trkpt lat="48.80787" lon="2.33329">
        <ele>66.400001525879</ele>
        <time>2016-08-15T19:33:43.000Z</time>
      </trkpt>
      <trkpt lat="48.80812" lon="2.33268">
        <ele>69</ele>
        <time>2016-08-15T19:34:04.000Z</time>
      </trkpt>
      <trkpt lat="48.80833" lon="2.332">
        <ele>69</ele>
        <time>2016-08-15T19:34:20.000Z</time>
      </trkpt>
      <trkpt lat="48.80851" lon="2.33153">
        <ele>69.199996948242</ele>
        <time>2016-08-15T19:35:44.000Z</time>
      </trkpt>
      <trkpt lat="48.8087" lon="2.33091">
        <ele>71.199996948242</ele>
        <time>2016-08-15T19:36:00.000Z</time>
      </trkpt>
      <trkpt lat="48.80878" lon="2.33072">
        <ele>71.400001525879</ele>
        <time>2016-08-15T19:36:04.000Z</time>
      </trkpt>
      <trkpt lat="48.80901" lon="2.33008">
        <ele>72.400001525879</ele>
        <time>2016-08-15T19:36:15.000Z</time>
      </trkpt>
      <trkpt lat="48.80903" lon="2.33002">
        <ele>72.599998474121</ele>
        <time>2016-08-15T19:36:16.000Z</time>
      </trkpt>
      <trkpt lat="48.80924" lon="2.32938">
        <ele>74.800003051758</ele>
        <time>2016-08-15T19:36:27.000Z</time>
      </trkpt>
      <trkpt lat="48.80933" lon="2.32912">
        <ele>75.199996948242</ele>
        <time>2016-08-15T19:36:32.000Z</time>
      </trkpt>
      <trkpt lat="48.80954" lon="2.32847">
        <ele>75.199996948242</ele>
        <time>2016-08-15T19:36:45.000Z</time>
      </trkpt>
      <trkpt lat="48.80977" lon="2.32787">
        <ele>78</ele>
        <time>2016-08-15T19:36:57.000Z</time>
      </trkpt>
      <trkpt lat="48.81" lon="2.32727">
        <ele>78.800003051758</ele>
        <time>2016-08-15T19:37:12.000Z</time>
      </trkpt>
      <trkpt lat="48.81016" lon="2.32708">
        <ele>79.400001525879</ele>
        <time>2016-08-15T19:38:16.000Z</time>
      </trkpt>
      <trkpt lat="48.81021" lon="2.3267">
        <ele>80</ele>
        <time>2016-08-15T19:38:44.000Z</time>
      </trkpt>
      <trkpt lat="48.80986" lon="2.32626">
        <ele>80</ele>
        <time>2016-08-15T19:38:59.000Z</time>
      </trkpt>
      <trkpt lat="48.80961" lon="2.32578">
        <ele>80</ele>
        <time>2016-08-15T19:39:14.000Z</time>
      </trkpt>
      <trkpt lat="48.8097" lon="2.3251">
        <ele>80.800003051758</ele>
        <time>2016-08-15T19:39:28.000Z</time>
      </trkpt>
      <trkpt lat="48.80974" lon="2.32441">
        <ele>81.599998474121</ele>
        <time>2016-08-15T19:39:40.000Z</time>
      </trkpt>
      <trkpt lat="48.80977" lon="2.32369">
        <ele>81.400001525879</ele>
        <time>2016-08-15T19:39:51.000Z</time>
      </trkpt>
      <trkpt lat="48.80978" lon="2.32294">
        <ele>82</ele>
        <time>2016-08-15T19:40:00.000Z</time>
      </trkpt>
      <trkpt lat="48.80978" lon="2.32251">
        <ele>81.199996948242</ele>
        <time>2016-08-15T19:40:05.000Z</time>
      </trkpt>
      <trkpt lat="48.80977" lon="2.32214">
        <ele>82.199996948242</ele>
        <time>2016-08-15T19:40:09.000Z</time>
      </trkpt>
      <trkpt lat="48.80977" lon="2.32195">
        <ele>82.800003051758</ele>
        <time>2016-08-15T19:40:11.000Z</time>
      </trkpt>
      <trkpt lat="48.80982" lon="2.32126">
        <ele>84</ele>
        <time>2016-08-15T19:40:18.000Z</time>
      </trkpt>
      <trkpt lat="48.80989" lon="2.32055">
        <ele>85</ele>
        <time>2016-08-15T19:40:27.000Z</time>
      </trkpt>
      <trkpt lat="48.8099" lon="2.32041">
        <ele>85</ele>
        <time>2016-08-15T19:40:29.000Z</time>
      </trkpt>
      <trkpt lat="48.80992" lon="2.3202">
        <ele>84.599998474121</ele>
        <time>2016-08-15T19:40:32.000Z</time>
      </trkpt>
      <trkpt lat="48.81" lon="2.31953">
        <ele>84.599998474121</ele>
        <time>2016-08-15T19:40:42.000Z</time>
      </trkpt>
      <trkpt lat="48.81004" lon="2.31913">
        <ele>84.400001525879</ele>
        <time>2016-08-15T19:40:48.000Z</time>
      </trkpt>
      <trkpt lat="48.81001" lon="2.31844">
        <ele>84.199996948242</ele>
        <time>2016-08-15T19:40:59.000Z</time>
      </trkpt>
      <trkpt lat="48.80985" lon="2.31778">
        <ele>85.199996948242</ele>
        <time>2016-08-15T19:41:13.000Z</time>
      </trkpt>
      <trkpt lat="48.80994" lon="2.31739">
        <ele>85.599998474121</ele>
        <time>2016-08-15T19:43:41.000Z</time>
      </trkpt>
      <trkpt lat="48.8103" lon="2.31692">
        <ele>85.800003051758</ele>
        <time>2016-08-15T19:43:55.000Z</time>
      </trkpt>
      <trkpt lat="48.81067" lon="2.31642">
        <ele>83</ele>
        <time>2016-08-15T19:44:05.000Z</time>
      </trkpt>
      <trkpt lat="48.81103" lon="2.31609">
        <ele>82.400001525879</ele>
        <time>2016-08-15T19:44:13.000Z</time>
      </trkpt>
      <trkpt lat="48.81147" lon="2.31585">
        <ele>80.400001525879</ele>
        <time>2016-08-15T19:44:22.000Z</time>
      </trkpt>
      <trkpt lat="48.81193" lon="2.31576">
        <ele>78.800003051758</ele>
        <time>2016-08-15T19:44:31.000Z</time>
      </trkpt>
      <trkpt lat="48.8122" lon="2.3158">
        <ele>77.800003051758</ele>
        <time>2016-08-15T19:44:36.000Z</time>
      </trkpt>
      <trkpt lat="48.81267" lon="2.316">
        <ele>76.800003051758</ele>
        <time>2016-08-15T19:44:45.000Z</time>
      </trkpt>
      <trkpt lat="48.81277" lon="2.31604">
        <ele>76.800003051758</ele>
        <time>2016-08-15T19:44:53.000Z</time>
      </trkpt>
      <trkpt lat="48.8132" lon="2.31626">
        <ele>77</ele>
        <time>2016-08-15T19:45:06.000Z</time>
      </trkpt>
      <trkpt lat="48.8134" lon="2.31639">
        <ele>77.400001525879</ele>
        <time>2016-08-15T19:45:11.000Z</time>
      </trkpt>
      <trkpt lat="48.81382" lon="2.31665">
        <ele>77.400001525879</ele>
        <time>2016-08-15T19:45:25.000Z</time>
      </trkpt>
      <trkpt lat="48.81385" lon="2.31666">
        <ele>77.400001525879</ele>
        <time>2016-08-15T19:45:27.000Z</time>
      </trkpt>
      <trkpt lat="48.81431" lon="2.31693">
        <ele>76.599998474121</ele>
        <time>2016-08-15T19:45:41.000Z</time>
      </trkpt>
      <trkpt lat="48.8145" lon="2.31698">
        <ele>76.400001525879</ele>
        <time>2016-08-15T19:45:45.000Z</time>
      </trkpt>
      <trkpt lat="48.81459" lon="2.31702">
        <ele>76.400001525879</ele>
        <time>2016-08-15T19:45:47.000Z</time>
      </trkpt>
      <trkpt lat="48.81468" lon="2.31709">
        <ele>76.599998474121</ele>
        <time>2016-08-15T19:45:49.000Z</time>
      </trkpt>
      <trkpt lat="48.81513" lon="2.31738">
        <ele>76.800003051758</ele>
        <time>2016-08-15T19:45:59.000Z</time>
      </trkpt>
      <trkpt lat="48.81551" lon="2.3177">
        <ele>77.199996948242</ele>
        <time>2016-08-15T19:46:10.000Z</time>
      </trkpt>
      <trkpt lat="48.81563" lon="2.31777">
        <ele>77</ele>
        <time>2016-08-15T19:46:13.000Z</time>
      </trkpt>
      <trkpt lat="48.81579" lon="2.3178">
        <ele>76.800003051758</ele>
        <time>2016-08-15T19:46:16.000Z</time>
      </trkpt>
      <trkpt lat="48.81625" lon="2.31804">
        <ele>77</ele>
        <time>2016-08-15T19:46:23.000Z</time>
      </trkpt>
      <trkpt lat="48.8167" lon="2.31832">
        <ele>78</ele>
        <time>2016-08-15T19:46:29.000Z</time>
      </trkpt>
      <trkpt lat="48.81692" lon="2.31846">
        <ele>78</ele>
        <time>2016-08-15T19:46:32.000Z</time>
      </trkpt>
      <trkpt lat="48.81702" lon="2.31857">
        <ele>77.800003051758</ele>
        <time>2016-08-15T19:46:34.000Z</time>
      </trkpt>
      <trkpt lat="48.81717" lon="2.31877">
        <ele>77.599998474121</ele>
        <time>2016-08-15T19:46:37.000Z</time>
      </trkpt>
      <trkpt lat="48.8173" lon="2.31884">
        <ele>77.599998474121</ele>
        <time>2016-08-15T19:46:39.000Z</time>
      </trkpt>
      <trkpt lat="48.81776" lon="2.31909">
        <ele>77</ele>
        <time>2016-08-15T19:46:47.000Z</time>
      </trkpt>
      <trkpt lat="48.81819" lon="2.3193">
        <ele>77.199996948242</ele>
        <time>2016-08-15T19:47:02.000Z</time>
      </trkpt>
      <trkpt lat="48.8183" lon="2.31942">
        <ele>77.400001525879</ele>
        <time>2016-08-15T19:47:22.000Z</time>
      </trkpt>
      <trkpt lat="48.81839" lon="2.3195">
        <ele>77.400001525879</ele>
        <time>2016-08-15T19:47:33.000Z</time>
      </trkpt>
      <trkpt lat="48.8184" lon="2.31952">
        <ele>77.400001525879</ele>
        <time>2016-08-15T19:47:35.000Z</time>
      </trkpt>
      <trkpt lat="48.81885" lon="2.31982">
        <ele>78.599998474121</ele>
        <time>2016-08-15T19:47:48.000Z</time>
      </trkpt>
      <trkpt lat="48.81923" lon="2.32006">
        <ele>79.599998474121</ele>
        <time>2016-08-15T19:47:57.000Z</time>
      </trkpt>
      <trkpt lat="48.8197" lon="2.32025">
        <ele>80.199996948242</ele>
        <time>2016-08-15T19:48:06.000Z</time>
      </trkpt>
      <trkpt lat="48.8201" lon="2.32043">
        <ele>80</ele>
        <time>2016-08-15T19:48:13.000Z</time>
      </trkpt>
      <trkpt lat="48.82017" lon="2.3205">
        <ele>80</ele>
        <time>2016-08-15T19:48:15.000Z</time>
      </trkpt>
      <trkpt lat="48.82037" lon="2.32063">
        <ele>78.800003051758</ele>
        <time>2016-08-15T19:48:19.000Z</time>
      </trkpt>
      <trkpt lat="48.82081" lon="2.32093">
        <ele>74.599998474121</ele>
        <time>2016-08-15T19:48:30.000Z</time>
      </trkpt>
      <trkpt lat="48.82118" lon="2.32136">
        <ele>71.400001525879</ele>
        <time>2016-08-15T19:48:39.000Z</time>
      </trkpt>
      <trkpt lat="48.82122" lon="2.32141">
        <ele>71.199996948242</ele>
        <time>2016-08-15T19:48:40.000Z</time>
      </trkpt>
      <trkpt lat="48.82156" lon="2.32173">
        <ele>69.599998474121</ele>
        <time>2016-08-15T19:48:47.000Z</time>
      </trkpt>
      <trkpt lat="48.82198" lon="2.32214">
        <ele>69.199996948242</ele>
        <time>2016-08-15T19:48:56.000Z</time>
      </trkpt>
      <trkpt lat="48.82225" lon="2.32233">
        <ele>71.400001525879</ele>
        <time>2016-08-15T19:49:01.000Z</time>
      </trkpt>
      <trkpt lat="48.82267" lon="2.32259">
        <ele>75</ele>
        <time>2016-08-15T19:49:08.000Z</time>
      </trkpt>
      <trkpt lat="48.82287" lon="2.32271">
        <ele>75.599998474121</ele>
        <time>2016-08-15T19:49:11.000Z</time>
      </trkpt>
      <trkpt lat="48.82325" lon="2.32294">
        <ele>76</ele>
        <time>2016-08-15T19:49:17.000Z</time>
      </trkpt>
      <trkpt lat="48.82352" lon="2.32322">
        <ele>76.800003051758</ele>
        <time>2016-08-15T19:49:38.000Z</time>
      </trkpt>
      <trkpt lat="48.82358" lon="2.32327">
        <ele>76.800003051758</ele>
        <time>2016-08-15T19:50:01.000Z</time>
      </trkpt>
      <trkpt lat="48.82404" lon="2.32333">
        <ele>75.199996948242</ele>
        <time>2016-08-15T19:50:20.000Z</time>
      </trkpt>
      <trkpt lat="48.82447" lon="2.32347">
        <ele>74.199996948242</ele>
        <time>2016-08-15T19:50:29.000Z</time>
      </trkpt>
      <trkpt lat="48.8249" lon="2.32377">
        <ele>74.199996948242</ele>
        <time>2016-08-15T19:50:38.000Z</time>
      </trkpt>
      <trkpt lat="48.82533" lon="2.324">
        <ele>74.400001525879</ele>
        <time>2016-08-15T19:50:46.000Z</time>
      </trkpt>
      <trkpt lat="48.82577" lon="2.3242">
        <ele>73.400001525879</ele>
        <time>2016-08-15T19:50:54.000Z</time>
      </trkpt>
      <trkpt lat="48.82587" lon="2.32424">
        <ele>73.400001525879</ele>
        <time>2016-08-15T19:50:56.000Z</time>
      </trkpt>
      <trkpt lat="48.82612" lon="2.32431">
        <ele>73.400001525879</ele>
        <time>2016-08-15T19:51:01.000Z</time>
      </trkpt>
      <trkpt lat="48.82655" lon="2.32454">
        <ele>74.599998474121</ele>
        <time>2016-08-15T19:51:10.000Z</time>
      </trkpt>
      <trkpt lat="48.82697" lon="2.3248">
        <ele>75.400001525879</ele>
        <time>2016-08-15T19:51:22.000Z</time>
      </trkpt>
      <trkpt lat="48.82726" lon="2.32537">
        <ele>73.800003051758</ele>
        <time>2016-08-15T19:51:30.000Z</time>
      </trkpt>
      <trkpt lat="48.82748" lon="2.32603">
        <ele>72.199996948242</ele>
        <time>2016-08-15T19:51:41.000Z</time>
      </trkpt>
      <trkpt lat="48.82758" lon="2.32653">
        <ele>72.400001525879</ele>
        <time>2016-08-15T19:52:12.000Z</time>
      </trkpt>
      <trkpt lat="48.82758" lon="2.32665">
        <ele>72.599998474121</ele>
        <time>2016-08-15T19:52:18.000Z</time>
      </trkpt>
      <trkpt lat="48.82779" lon="2.3272">
        <ele>73.199996948242</ele>
        <time>2016-08-15T19:52:33.000Z</time>
      </trkpt>
      <trkpt lat="48.82773" lon="2.32791">
        <ele>75.599998474121</ele>
        <time>2016-08-15T19:52:43.000Z</time>
      </trkpt>
      <trkpt lat="48.82768" lon="2.32859">
        <ele>77.199996948242</ele>
        <time>2016-08-15T19:52:52.000Z</time>
      </trkpt>
      <trkpt lat="48.82768" lon="2.32907">
        <ele>77.199996948242</ele>
        <time>2016-08-15T19:52:58.000Z</time>
      </trkpt>
      <trkpt lat="48.82769" lon="2.32932">
        <ele>76.800003051758</ele>
        <time>2016-08-15T19:53:01.000Z</time>
      </trkpt>
      <trkpt lat="48.82772" lon="2.33005">
        <ele>76</ele>
        <time>2016-08-15T19:53:10.000Z</time>
      </trkpt>
      <trkpt lat="48.82772" lon="2.33074">
        <ele>75</ele>
        <time>2016-08-15T19:53:18.000Z</time>
      </trkpt>
      <trkpt lat="48.82766" lon="2.33148">
        <ele>74.199996948242</ele>
        <time>2016-08-15T19:53:27.000Z</time>
      </trkpt>
      <trkpt lat="48.82765" lon="2.33211">
        <ele>73.599998474121</ele>
        <time>2016-08-15T19:53:35.000Z</time>
      </trkpt>
      <trkpt lat="48.82773" lon="2.33252">
        <ele>72.800003051758</ele>
        <time>2016-08-15T19:53:40.000Z</time>
      </trkpt>
      <trkpt lat="48.82774" lon="2.33275">
        <ele>71.400001525879</ele>
        <time>2016-08-15T19:53:43.000Z</time>
      </trkpt>
      <trkpt lat="48.82759" lon="2.33346">
        <ele>68.599998474121</ele>
        <time>2016-08-15T19:53:51.000Z</time>
      </trkpt>
      <trkpt lat="48.82743" lon="2.33413">
        <ele>69.400001525879</ele>
        <time>2016-08-15T19:53:57.000Z</time>
      </trkpt>
      <trkpt lat="48.82728" lon="2.33488">
        <ele>67.599998474121</ele>
        <time>2016-08-15T19:54:03.000Z</time>
      </trkpt>
      <trkpt lat="48.82725" lon="2.33565">
        <ele>63.799999237061</ele>
        <time>2016-08-15T19:54:09.000Z</time>
      </trkpt>
      <trkpt lat="48.82713" lon="2.33645">
        <ele>60.599998474121</ele>
        <time>2016-08-15T19:54:15.000Z</time>
      </trkpt>
      <trkpt lat="48.82701" lon="2.33722">
        <ele>59.400001525879</ele>
        <time>2016-08-15T19:54:21.000Z</time>
      </trkpt>
      <trkpt lat="48.8269" lon="2.33798">
        <ele>59.400001525879</ele>
        <time>2016-08-15T19:54:27.000Z</time>
      </trkpt>
      <trkpt lat="48.82678" lon="2.33876">
        <ele>55.400001525879</ele>
        <time>2016-08-15T19:54:33.000Z</time>
      </trkpt>
      <trkpt lat="48.8267" lon="2.33953">
        <ele>51.400001525879</ele>
        <time>2016-08-15T19:54:39.000Z</time>
      </trkpt>
      <trkpt lat="48.82661" lon="2.34021">
        <ele>51.599998474121</ele>
        <time>2016-08-15T19:54:45.000Z</time>
      </trkpt>
      <trkpt lat="48.82654" lon="2.34095">
        <ele>52.599998474121</ele>
        <time>2016-08-15T19:54:52.000Z</time>
      </trkpt>
      <trkpt lat="48.82642" lon="2.34164">
        <ele>49.799999237061</ele>
        <time>2016-08-15T19:54:59.000Z</time>
      </trkpt>
      <trkpt lat="48.82631" lon="2.34234">
        <ele>48.799999237061</ele>
        <time>2016-08-15T19:55:07.000Z</time>
      </trkpt>
      <trkpt lat="48.82624" lon="2.34305">
        <ele>49.799999237061</ele>
        <time>2016-08-15T19:55:19.000Z</time>
      </trkpt>
      <trkpt lat="48.82604" lon="2.34369">
        <ele>51</ele>
        <time>2016-08-15T19:55:32.000Z</time>
      </trkpt>
      <trkpt lat="48.82595" lon="2.34441">
        <ele>52.799999237061</ele>
        <time>2016-08-15T19:55:51.000Z</time>
      </trkpt>
      <trkpt lat="48.82592" lon="2.34509">
        <ele>54</ele>
        <time>2016-08-15T19:56:45.000Z</time>
      </trkpt>
      <trkpt lat="48.82585" lon="2.3454">
        <ele>54.799999237061</ele>
        <time>2016-08-15T19:56:52.000Z</time>
      </trkpt>
      <trkpt lat="48.82567" lon="2.34604">
        <ele>54.200000762939</ele>
        <time>2016-08-15T19:57:02.000Z</time>
      </trkpt>
      <trkpt lat="48.82562" lon="2.34633">
        <ele>54.200000762939</ele>
        <time>2016-08-15T19:57:06.000Z</time>
      </trkpt>
      <trkpt lat="48.8255" lon="2.347">
        <ele>54.200000762939</ele>
        <time>2016-08-15T19:57:15.000Z</time>
      </trkpt>
      <trkpt lat="48.82548" lon="2.34717">
        <ele>54.599998474121</ele>
        <time>2016-08-15T19:57:17.000Z</time>
      </trkpt>
      <trkpt lat="48.82547" lon="2.34741">
        <ele>55.200000762939</ele>
        <time>2016-08-15T19:57:20.000Z</time>
      </trkpt>
      <trkpt lat="48.82549" lon="2.34792">
        <ele>54</ele>
        <time>2016-08-15T19:57:26.000Z</time>
      </trkpt>
      <trkpt lat="48.82546" lon="2.34821">
        <ele>53.200000762939</ele>
        <time>2016-08-15T19:57:29.000Z</time>
      </trkpt>
      <trkpt lat="48.82551" lon="2.34894">
        <ele>54.799999237061</ele>
        <time>2016-08-15T19:57:37.000Z</time>
      </trkpt>
      <trkpt lat="48.82556" lon="2.34954">
        <ele>57</ele>
        <time>2016-08-15T19:57:44.000Z</time>
      </trkpt>
      <trkpt lat="48.82562" lon="2.35026">
        <ele>59.200000762939</ele>
        <time>2016-08-15T19:57:52.000Z</time>
      </trkpt>
      <trkpt lat="48.82573" lon="2.35076">
        <ele>59.599998474121</ele>
        <time>2016-08-15T19:57:58.000Z</time>
      </trkpt>
      <trkpt lat="48.82578" lon="2.3515">
        <ele>56.200000762939</ele>
        <time>2016-08-15T19:58:07.000Z</time>
      </trkpt>
      <trkpt lat="48.82582" lon="2.35216">
        <ele>55.200000762939</ele>
        <time>2016-08-15T19:58:15.000Z</time>
      </trkpt>
      <trkpt lat="48.82576" lon="2.35282">
        <ele>56.599998474121</ele>
        <time>2016-08-15T19:58:22.000Z</time>
      </trkpt>
      <trkpt lat="48.82585" lon="2.35354">
        <ele>58.799999237061</ele>
        <time>2016-08-15T19:58:30.000Z</time>
      </trkpt>
      <trkpt lat="48.82591" lon="2.35424">
        <ele>59.400001525879</ele>
        <time>2016-08-15T19:58:39.000Z</time>
      </trkpt>
      <trkpt lat="48.8259" lon="2.35437">
        <ele>59.200000762939</ele>
        <time>2016-08-15T19:58:41.000Z</time>
      </trkpt>
      <trkpt lat="48.82587" lon="2.35476">
        <ele>59.200000762939</ele>
        <time>2016-08-15T19:58:46.000Z</time>
      </trkpt>
      <trkpt lat="48.8259" lon="2.35521">
        <ele>59.799999237061</ele>
        <time>2016-08-15T19:58:51.000Z</time>
      </trkpt>
      <trkpt lat="48.82593" lon="2.35545">
        <ele>60.599998474121</ele>
        <time>2016-08-15T19:58:54.000Z</time>
      </trkpt>
      <trkpt lat="48.82599" lon="2.35622">
        <ele>63.200000762939</ele>
        <time>2016-08-15T19:59:02.000Z</time>
      </trkpt>
      <trkpt lat="48.8261" lon="2.35694">
        <ele>66</ele>
        <time>2016-08-15T19:59:12.000Z</time>
      </trkpt>
      <trkpt lat="48.82612" lon="2.35708">
        <ele>66.400001525879</ele>
        <time>2016-08-15T20:02:30.000Z</time>
      </trkpt>
      <trkpt lat="48.82612" lon="2.35712">
        <ele>66.599998474121</ele>
        <time>2016-08-15T20:02:32.000Z</time>
      </trkpt>
      <trkpt lat="48.82609" lon="2.35784">
        <ele>68.199996948242</ele>
        <time>2016-08-15T20:02:47.000Z</time>
      </trkpt>
      <trkpt lat="48.82606" lon="2.35806">
        <ele>68.599998474121</ele>
        <time>2016-08-15T20:02:50.000Z</time>
      </trkpt>
      <trkpt lat="48.82606" lon="2.35821">
        <ele>68.800003051758</ele>
        <time>2016-08-15T20:02:52.000Z</time>
      </trkpt>
      <trkpt lat="48.82603" lon="2.35885">
        <ele>66.199996948242</ele>
        <time>2016-08-15T20:03:00.000Z</time>
      </trkpt>
      <trkpt lat="48.82606" lon="2.35959">
        <ele>63.400001525879</ele>
        <time>2016-08-15T20:03:09.000Z</time>
      </trkpt>
      <trkpt lat="48.82611" lon="2.36033">
        <ele>60.799999237061</ele>
        <time>2016-08-15T20:03:18.000Z</time>
      </trkpt>
      <trkpt lat="48.82622" lon="2.36106">
        <ele>58.599998474121</ele>
        <time>2016-08-15T20:03:27.000Z</time>
      </trkpt>
      <trkpt lat="48.82626" lon="2.36147">
        <ele>56.799999237061</ele>
        <time>2016-08-15T20:03:33.000Z</time>
      </trkpt>
      <trkpt lat="48.82628" lon="2.36165">
        <ele>56.200000762939</ele>
        <time>2016-08-15T20:03:36.000Z</time>
      </trkpt>
      <trkpt lat="48.82633" lon="2.36209">
        <ele>54.599998474121</ele>
        <time>2016-08-15T20:03:43.000Z</time>
      </trkpt>
      <trkpt lat="48.82635" lon="2.36222">
        <ele>53.599998474121</ele>
        <time>2016-08-15T20:03:45.000Z</time>
      </trkpt>
      <trkpt lat="48.82642" lon="2.36293">
        <ele>52</ele>
        <time>2016-08-15T20:03:56.000Z</time>
      </trkpt>
      <trkpt lat="48.82656" lon="2.36362">
        <ele>51.799999237061</ele>
        <time>2016-08-15T20:04:08.000Z</time>
      </trkpt>
      <trkpt lat="48.82663" lon="2.3643">
        <ele>54.200000762939</ele>
        <time>2016-08-15T20:04:25.000Z</time>
      </trkpt>
      <trkpt lat="48.82668" lon="2.36466">
        <ele>57.400001525879</ele>
        <time>2016-08-15T20:04:35.000Z</time>
      </trkpt>
      <trkpt lat="48.8267" lon="2.36487">
        <ele>59.200000762939</ele>
        <time>2016-08-15T20:04:38.000Z</time>
      </trkpt>
      <trkpt lat="48.82673" lon="2.36502">
        <ele>60.400001525879</ele>
        <time>2016-08-15T20:04:40.000Z</time>
      </trkpt>
      <trkpt lat="48.82675" lon="2.36517">
        <ele>60.599998474121</ele>
        <time>2016-08-15T20:04:42.000Z</time>
      </trkpt>
      <trkpt lat="48.82677" lon="2.36549">
        <ele>60.799999237061</ele>
        <time>2016-08-15T20:04:46.000Z</time>
      </trkpt>
      <trkpt lat="48.82679" lon="2.36575">
        <ele>61.200000762939</ele>
        <time>2016-08-15T20:04:49.000Z</time>
      </trkpt>
      <trkpt lat="48.82686" lon="2.36644">
        <ele>58</ele>
        <time>2016-08-15T20:04:58.000Z</time>
      </trkpt>
      <trkpt lat="48.82688" lon="2.36652">
        <ele>57.599998474121</ele>
        <time>2016-08-15T20:04:59.000Z</time>
      </trkpt>
      <trkpt lat="48.82693" lon="2.36687">
        <ele>57.599998474121</ele>
        <time>2016-08-15T20:05:04.000Z</time>
      </trkpt>
      <trkpt lat="48.827" lon="2.36755">
        <ele>60</ele>
        <time>2016-08-15T20:05:13.000Z</time>
      </trkpt>
      <trkpt lat="48.82704" lon="2.36781">
        <ele>60</ele>
        <time>2016-08-15T20:05:16.000Z</time>
      </trkpt>
      <trkpt lat="48.82707" lon="2.36796">
        <ele>59.799999237061</ele>
        <time>2016-08-15T20:05:18.000Z</time>
      </trkpt>
      <trkpt lat="48.82712" lon="2.36833">
        <ele>59.400001525879</ele>
        <time>2016-08-15T20:05:23.000Z</time>
      </trkpt>
      <trkpt lat="48.82725" lon="2.36904">
        <ele>59.599998474121</ele>
        <time>2016-08-15T20:05:34.000Z</time>
      </trkpt>
      <trkpt lat="48.82735" lon="2.36972">
        <ele>59.400001525879</ele>
        <time>2016-08-15T20:05:46.000Z</time>
      </trkpt>
      <trkpt lat="48.82747" lon="2.37045">
        <ele>58.599998474121</ele>
        <time>2016-08-15T20:05:56.000Z</time>
      </trkpt>
      <trkpt lat="48.82755" lon="2.37114">
        <ele>57.599998474121</ele>
        <time>2016-08-15T20:06:05.000Z</time>
      </trkpt>
      <trkpt lat="48.8278" lon="2.37174">
        <ele>56.799999237061</ele>
        <time>2016-08-15T20:06:19.000Z</time>
      </trkpt>
      <trkpt lat="48.82801" lon="2.37195">
        <ele>56</ele>
        <time>2016-08-15T20:06:24.000Z</time>
      </trkpt>
      <trkpt lat="48.82815" lon="2.37215">
        <ele>55.400001525879</ele>
        <time>2016-08-15T20:06:28.000Z</time>
      </trkpt>
      <trkpt lat="48.8285" lon="2.37267">
        <ele>54.400001525879</ele>
        <time>2016-08-15T20:06:37.000Z</time>
      </trkpt>
      <trkpt lat="48.82858" lon="2.3729">
        <ele>54.400001525879</ele>
        <time>2016-08-15T20:06:40.000Z</time>
      </trkpt>
      <trkpt lat="48.8289" lon="2.37345">
        <ele>54.799999237061</ele>
        <time>2016-08-15T20:06:48.000Z</time>
      </trkpt>
      <trkpt lat="48.82921" lon="2.37399">
        <ele>54.799999237061</ele>
        <time>2016-08-15T20:06:55.000Z</time>
      </trkpt>
      <trkpt lat="48.82931" lon="2.37412">
        <ele>54.799999237061</ele>
        <time>2016-08-15T20:06:57.000Z</time>
      </trkpt>
      <trkpt lat="48.82963" lon="2.37467">
        <ele>48.400001525879</ele>
        <time>2016-08-15T20:07:04.000Z</time>
      </trkpt>
      <trkpt lat="48.82989" lon="2.37532">
        <ele>42.400001525879</ele>
        <time>2016-08-15T20:07:11.000Z</time>
      </trkpt>
      <trkpt lat="48.82993" lon="2.3754">
        <ele>41.799999237061</ele>
        <time>2016-08-15T20:07:12.000Z</time>
      </trkpt>
      <trkpt lat="48.82999" lon="2.37559">
        <ele>40.400001525879</ele>
        <time>2016-08-15T20:07:14.000Z</time>
      </trkpt>
      <trkpt lat="48.83026" lon="2.37618">
        <ele>38.400001525879</ele>
        <time>2016-08-15T20:07:22.000Z</time>
      </trkpt>
      <trkpt lat="48.83044" lon="2.37655">
        <ele>39.200000762939</ele>
        <time>2016-08-15T20:07:59.000Z</time>
      </trkpt>
      <trkpt lat="48.83074" lon="2.3771">
        <ele>38.599998474121</ele>
        <time>2016-08-15T20:08:14.000Z</time>
      </trkpt>
      <trkpt lat="48.83105" lon="2.3776">
        <ele>38.200000762939</ele>
        <time>2016-08-15T20:08:24.000Z</time>
      </trkpt>
      <trkpt lat="48.83122" lon="2.37813">
        <ele>40.400001525879</ele>
        <time>2016-08-15T20:08:38.000Z</time>
      </trkpt>
      <trkpt lat="48.83119" lon="2.3781">
        <ele>40.200000762939</ele>
        <time>2016-08-15T20:08:39.000Z</time>
      </trkpt>
      <trkpt lat="48.83091" lon="2.37758">
        <ele>38</ele>
        <time>2016-08-15T20:12:15.000Z</time>
      </trkpt>
      <trkpt lat="48.83066" lon="2.37703">
        <ele>38.599998474121</ele>
        <time>2016-08-15T20:12:31.000Z</time>
      </trkpt>
      <trkpt lat="48.83068" lon="2.37697">
        <ele>38.799999237061</ele>
        <time>2016-08-15T20:12:32.000Z</time>
      </trkpt>
      <trkpt lat="48.83103" lon="2.37648">
        <ele>39.400001525879</ele>
        <time>2016-08-15T20:12:44.000Z</time>
      </trkpt>
      <trkpt lat="48.83142" lon="2.376">
        <ele>39.400001525879</ele>
        <time>2016-08-15T20:12:55.000Z</time>
      </trkpt>
      <trkpt lat="48.8318" lon="2.37556">
        <ele>39.200000762939</ele>
        <time>2016-08-15T20:13:06.000Z</time>
      </trkpt>
      <trkpt lat="48.8322" lon="2.37515">
        <ele>36.400001525879</ele>
        <time>2016-08-15T20:13:15.000Z</time>
      </trkpt>
      <trkpt lat="48.83261" lon="2.37472">
        <ele>35.799999237061</ele>
        <time>2016-08-15T20:13:24.000Z</time>
      </trkpt>
      <trkpt lat="48.83269" lon="2.37464">
        <ele>35.400001525879</ele>
        <time>2016-08-15T20:13:26.000Z</time>
      </trkpt>
      <trkpt lat="48.83278" lon="2.37453">
        <ele>35.200000762939</ele>
        <time>2016-08-15T20:13:28.000Z</time>
      </trkpt>
      <trkpt lat="48.83283" lon="2.37447">
        <ele>35</ele>
        <time>2016-08-15T20:13:29.000Z</time>
      </trkpt>
      <trkpt lat="48.83319" lon="2.37403">
        <ele>35.799999237061</ele>
        <time>2016-08-15T20:13:36.000Z</time>
      </trkpt>
      <trkpt lat="48.83364" lon="2.37363">
        <ele>36</ele>
        <time>2016-08-15T20:13:43.000Z</time>
      </trkpt>
      <trkpt lat="48.83404" lon="2.37329">
        <ele>37.200000762939</ele>
        <time>2016-08-15T20:13:49.000Z</time>
      </trkpt>
      <trkpt lat="48.83411" lon="2.37324">
        <ele>37.400001525879</ele>
        <time>2016-08-15T20:13:50.000Z</time>
      </trkpt>
      <trkpt lat="48.83455" lon="2.37285">
        <ele>40.400001525879</ele>
        <time>2016-08-15T20:13:57.000Z</time>
      </trkpt>
      <trkpt lat="48.83497" lon="2.37246">
        <ele>39.400001525879</ele>
        <time>2016-08-15T20:14:04.000Z</time>
      </trkpt>
      <trkpt lat="48.8354" lon="2.3721">
        <ele>38.400001525879</ele>
        <time>2016-08-15T20:14:11.000Z</time>
      </trkpt>
      <trkpt lat="48.83581" lon="2.37177">
        <ele>38.400001525879</ele>
        <time>2016-08-15T20:14:18.000Z</time>
      </trkpt>
      <trkpt lat="48.83617" lon="2.37154">
        <ele>38</ele>
        <time>2016-08-15T20:15:14.000Z</time>
      </trkpt>
      <trkpt lat="48.83624" lon="2.37148">
        <ele>37.200000762939</ele>
        <time>2016-08-15T20:15:17.000Z</time>
      </trkpt>
      <trkpt lat="48.83625" lon="2.37138">
        <ele>37</ele>
        <time>2016-08-15T20:15:19.000Z</time>
      </trkpt>
      <trkpt lat="48.83605" lon="2.37072">
        <ele>38</ele>
        <time>2016-08-15T20:15:31.000Z</time>
      </trkpt>
      <trkpt lat="48.83603" lon="2.37067">
        <ele>38</ele>
        <time>2016-08-15T20:15:32.000Z</time>
      </trkpt>
      <trkpt lat="48.83578" lon="2.37007">
        <ele>38.200000762939</ele>
        <time>2016-08-15T20:15:41.000Z</time>
      </trkpt>
      <trkpt lat="48.83555" lon="2.36946">
        <ele>38.799999237061</ele>
        <time>2016-08-15T20:15:49.000Z</time>
      </trkpt>
      <trkpt lat="48.83536" lon="2.36884">
        <ele>39.799999237061</ele>
        <time>2016-08-15T20:15:57.000Z</time>
      </trkpt>
      <trkpt lat="48.83522" lon="2.36839">
        <ele>41</ele>
        <time>2016-08-15T20:16:03.000Z</time>
      </trkpt>
      <trkpt lat="48.83515" lon="2.3682">
        <ele>41.200000762939</ele>
        <time>2016-08-15T20:16:06.000Z</time>
      </trkpt>
      <trkpt lat="48.83502" lon="2.36776">
        <ele>41.799999237061</ele>
        <time>2016-08-15T20:16:12.000Z</time>
      </trkpt>
      <trkpt lat="48.83492" lon="2.3675">
        <ele>42</ele>
        <time>2016-08-15T20:16:16.000Z</time>
      </trkpt>
      <trkpt lat="48.83486" lon="2.36738">
        <ele>42</ele>
        <time>2016-08-15T20:16:18.000Z</time>
      </trkpt>
      <trkpt lat="48.83478" lon="2.3672">
        <ele>41.599998474121</ele>
        <time>2016-08-15T20:16:21.000Z</time>
      </trkpt>
      <trkpt lat="48.83468" lon="2.36693">
        <ele>41</ele>
        <time>2016-08-15T20:16:25.000Z</time>
      </trkpt>
      <trkpt lat="48.83446" lon="2.36628">
        <ele>42.400001525879</ele>
        <time>2016-08-15T20:16:35.000Z</time>
      </trkpt>
      <trkpt lat="48.83425" lon="2.3656">
        <ele>45.599998474121</ele>
        <time>2016-08-15T20:16:44.000Z</time>
      </trkpt>
      <trkpt lat="48.83406" lon="2.36494">
        <ele>46</ele>
        <time>2016-08-15T20:16:52.000Z</time>
      </trkpt>
      <trkpt lat="48.834" lon="2.36471">
        <ele>46.400001525879</ele>
        <time>2016-08-15T20:16:55.000Z</time>
      </trkpt>
      <trkpt lat="48.83397" lon="2.36463">
        <ele>46.599998474121</ele>
        <time>2016-08-15T20:16:56.000Z</time>
      </trkpt>
      <trkpt lat="48.83377" lon="2.364">
        <ele>47.599998474121</ele>
        <time>2016-08-15T20:17:07.000Z</time>
      </trkpt>
      <trkpt lat="48.83371" lon="2.36384">
        <ele>48.200000762939</ele>
        <time>2016-08-15T20:17:10.000Z</time>
      </trkpt>
      <trkpt lat="48.83367" lon="2.36321">
        <ele>49.799999237061</ele>
        <time>2016-08-15T20:17:45.000Z</time>
      </trkpt>
      <trkpt lat="48.8337" lon="2.36322">
        <ele>49.799999237061</ele>
        <time>2016-08-15T20:18:42.000Z</time>
      </trkpt>
      <trkpt lat="48.83406" lon="2.36277">
        <ele>50.200000762939</ele>
        <time>2016-08-15T20:18:56.000Z</time>
      </trkpt>
      <trkpt lat="48.8341" lon="2.36271">
        <ele>50.599998474121</ele>
        <time>2016-08-15T20:18:57.000Z</time>
      </trkpt>
      <trkpt lat="48.83435" lon="2.36238">
        <ele>52.400001525879</ele>
        <time>2016-08-15T20:19:05.000Z</time>
      </trkpt>
      <trkpt lat="48.83467" lon="2.36187">
        <ele>52.799999237061</ele>
        <time>2016-08-15T20:19:16.000Z</time>
      </trkpt>
      <trkpt lat="48.83504" lon="2.36146">
        <ele>55.200000762939</ele>
        <time>2016-08-15T20:19:26.000Z</time>
      </trkpt>
      <trkpt lat="48.8352" lon="2.36126">
        <ele>57.200000762939</ele>
        <time>2016-08-15T20:19:31.000Z</time>
      </trkpt>
      <trkpt lat="48.83556" lon="2.36083">
        <ele>57.400001525879</ele>
        <time>2016-08-15T20:19:42.000Z</time>
      </trkpt>
      <trkpt lat="48.83572" lon="2.36049">
        <ele>56.400001525879</ele>
        <time>2016-08-15T20:19:48.000Z</time>
      </trkpt>
      <trkpt lat="48.83598" lon="2.3602">
        <ele>57.200000762939</ele>
        <time>2016-08-15T20:19:56.000Z</time>
      </trkpt>
      <trkpt lat="48.83609" lon="2.36021">
        <ele>57</ele>
        <time>2016-08-15T20:19:59.000Z</time>
      </trkpt>
      <trkpt lat="48.8364" lon="2.35966">
        <ele>57.599998474121</ele>
        <time>2016-08-15T20:20:12.000Z</time>
      </trkpt>
      <trkpt lat="48.83649" lon="2.35937">
        <ele>58.400001525879</ele>
        <time>2016-08-15T20:21:14.000Z</time>
      </trkpt>
      <trkpt lat="48.83652" lon="2.35935">
        <ele>58.400001525879</ele>
        <time>2016-08-15T20:21:17.000Z</time>
      </trkpt>
      <trkpt lat="48.83689" lon="2.35895">
        <ele>59.200000762939</ele>
        <time>2016-08-15T20:21:30.000Z</time>
      </trkpt>
      <trkpt lat="48.8372" lon="2.35863">
        <ele>60</ele>
        <time>2016-08-15T20:21:37.000Z</time>
      </trkpt>
      <trkpt lat="48.83752" lon="2.35814">
        <ele>61.400001525879</ele>
        <time>2016-08-15T20:21:43.000Z</time>
      </trkpt>
      <trkpt lat="48.83794" lon="2.35768">
        <ele>56.799999237061</ele>
        <time>2016-08-15T20:21:50.000Z</time>
      </trkpt>
      <trkpt lat="48.83834" lon="2.35726">
        <ele>51.400001525879</ele>
        <time>2016-08-15T20:21:59.000Z</time>
      </trkpt>
      <trkpt lat="48.83851" lon="2.35705">
        <ele>48.799999237061</ele>
        <time>2016-08-15T20:22:36.000Z</time>
      </trkpt>
      <trkpt lat="48.83895" lon="2.3569">
        <ele>46.799999237061</ele>
        <time>2016-08-15T20:22:53.000Z</time>
      </trkpt>
      <trkpt lat="48.83939" lon="2.35669">
        <ele>46</ele>
        <time>2016-08-15T20:23:07.000Z</time>
      </trkpt>
      <trkpt lat="48.83973" lon="2.35647">
        <ele>44.400001525879</ele>
        <time>2016-08-15T20:23:21.000Z</time>
      </trkpt>
      <trkpt lat="48.84019" lon="2.35621">
        <ele>44</ele>
        <time>2016-08-15T20:23:33.000Z</time>
      </trkpt>
      <trkpt lat="48.84064" lon="2.35603">
        <ele>42.799999237061</ele>
        <time>2016-08-15T20:23:42.000Z</time>
      </trkpt>
      <trkpt lat="48.84106" lon="2.35599">
        <ele>40.799999237061</ele>
        <time>2016-08-15T20:23:55.000Z</time>
      </trkpt>
      <trkpt lat="48.8414" lon="2.35587">
        <ele>40.799999237061</ele>
        <time>2016-08-15T20:24:04.000Z</time>
      </trkpt>
      <trkpt lat="48.84173" lon="2.35569">
        <ele>41.400001525879</ele>
        <time>2016-08-15T20:24:12.000Z</time>
      </trkpt>
      <trkpt lat="48.84214" lon="2.35557">
        <ele>43.400001525879</ele>
        <time>2016-08-15T20:24:20.000Z</time>
      </trkpt>
      <trkpt lat="48.84233" lon="2.35551">
        <ele>45</ele>
        <time>2016-08-15T20:24:24.000Z</time>
      </trkpt>
      <trkpt lat="48.84279" lon="2.35536">
        <ele>47.599998474121</ele>
        <time>2016-08-15T20:24:33.000Z</time>
      </trkpt>
      <trkpt lat="48.84323" lon="2.35514">
        <ele>49.799999237061</ele>
        <time>2016-08-15T20:24:42.000Z</time>
      </trkpt>
      <trkpt lat="48.84367" lon="2.35496">
        <ele>51.599998474121</ele>
        <time>2016-08-15T20:24:54.000Z</time>
      </trkpt>
      <trkpt lat="48.84402" lon="2.35483">
        <ele>50.200000762939</ele>
        <time>2016-08-15T20:25:03.000Z</time>
      </trkpt>
      <trkpt lat="48.84446" lon="2.35475">
        <ele>49.799999237061</ele>
        <time>2016-08-15T20:25:13.000Z</time>
      </trkpt>
      <trkpt lat="48.84494" lon="2.35471">
        <ele>50.599998474121</ele>
        <time>2016-08-15T20:25:25.000Z</time>
      </trkpt>
      <trkpt lat="48.84533" lon="2.35461">
        <ele>49.799999237061</ele>
        <time>2016-08-15T20:25:36.000Z</time>
      </trkpt>
      <trkpt lat="48.84581" lon="2.35451">
        <ele>49.200000762939</ele>
        <time>2016-08-15T20:25:47.000Z</time>
      </trkpt>
      <trkpt lat="48.84622" lon="2.35439">
        <ele>47.799999237061</ele>
        <time>2016-08-15T20:25:55.000Z</time>
      </trkpt>
      <trkpt lat="48.84662" lon="2.35405">
        <ele>44.599998474121</ele>
        <time>2016-08-15T20:26:05.000Z</time>
      </trkpt>
      <trkpt lat="48.84704" lon="2.35371">
        <ele>41.599998474121</ele>
        <time>2016-08-15T20:26:15.000Z</time>
      </trkpt>
      <trkpt lat="48.84733" lon="2.35329">
        <ele>40.400001525879</ele>
        <time>2016-08-15T20:27:09.000Z</time>
      </trkpt>
      <trkpt lat="48.8475" lon="2.35264">
        <ele>42</ele>
        <time>2016-08-15T20:27:21.000Z</time>
      </trkpt>
      <trkpt lat="48.84776" lon="2.35204">
        <ele>42</ele>
        <time>2016-08-15T20:27:31.000Z</time>
      </trkpt>
      <trkpt lat="48.84777" lon="2.35199">
        <ele>42</ele>
        <time>2016-08-15T20:27:32.000Z</time>
      </trkpt>
      <trkpt lat="48.84796" lon="2.35134">
        <ele>44.599998474121</ele>
        <time>2016-08-15T20:27:43.000Z</time>
      </trkpt>
      <trkpt lat="48.84802" lon="2.35101">
        <ele>46.799999237061</ele>
        <time>2016-08-15T20:27:48.000Z</time>
      </trkpt>
      <trkpt lat="48.84803" lon="2.35087">
        <ele>47.599998474121</ele>
        <time>2016-08-15T20:27:50.000Z</time>
      </trkpt>
      <trkpt lat="48.84819" lon="2.35021">
        <ele>50.200000762939</ele>
        <time>2016-08-15T20:28:03.000Z</time>
      </trkpt>
      <trkpt lat="48.84843" lon="2.34958">
        <ele>52.599998474121</ele>
        <time>2016-08-15T20:28:15.000Z</time>
      </trkpt>
      <trkpt lat="48.84865" lon="2.34895">
        <ele>55.799999237061</ele>
        <time>2016-08-15T20:28:26.000Z</time>
      </trkpt>
      <trkpt lat="48.84886" lon="2.3483">
        <ele>56.400001525879</ele>
        <time>2016-08-15T20:28:39.000Z</time>
      </trkpt>
      <trkpt lat="48.84905" lon="2.34763">
        <ele>54.599998474121</ele>
        <time>2016-08-15T20:28:51.000Z</time>
      </trkpt>
      <trkpt lat="48.84916" lon="2.34694">
        <ele>54.400001525879</ele>
        <time>2016-08-15T20:29:01.000Z</time>
      </trkpt>
      <trkpt lat="48.84932" lon="2.34622">
        <ele>52.799999237061</ele>
        <time>2016-08-15T20:29:09.000Z</time>
      </trkpt>
      <trkpt lat="48.84946" lon="2.34555">
        <ele>52.400001525879</ele>
        <time>2016-08-15T20:29:17.000Z</time>
      </trkpt>
      <trkpt lat="48.84955" lon="2.34529">
        <ele>53.799999237061</ele>
        <time>2016-08-15T20:29:21.000Z</time>
      </trkpt>
      <trkpt lat="48.8498" lon="2.34472">
        <ele>56.200000762939</ele>
        <time>2016-08-15T20:29:33.000Z</time>
      </trkpt>
      <trkpt lat="48.84995" lon="2.34404">
        <ele>55.599998474121</ele>
        <time>2016-08-15T20:29:47.000Z</time>
      </trkpt>
      <trkpt lat="48.84999" lon="2.34393">
        <ele>55.400001525879</ele>
        <time>2016-08-15T20:29:50.000Z</time>
      </trkpt>
      <trkpt lat="48.85015" lon="2.34387">
        <ele>54.400001525879</ele>
        <time>2016-08-15T20:29:54.000Z</time>
      </trkpt>
      <trkpt lat="48.85029" lon="2.34389">
        <ele>53.400001525879</ele>
        <time>2016-08-15T20:30:01.000Z</time>
      </trkpt>
      <trkpt lat="48.85027" lon="2.34383">
        <ele>53.599998474121</ele>
        <time>2016-08-15T20:30:03.000Z</time>
      </trkpt>
      <trkpt lat="48.85053" lon="2.34328">
        <ele>51.400001525879</ele>
        <time>2016-08-15T20:30:16.000Z</time>
      </trkpt>
      <trkpt lat="48.85057" lon="2.34301">
        <ele>50.799999237061</ele>
        <time>2016-08-15T20:30:23.000Z</time>
      </trkpt>
      <trkpt lat="48.85063" lon="2.34295">
        <ele>50.200000762939</ele>
        <time>2016-08-15T20:30:26.000Z</time>
      </trkpt>
      <trkpt lat="48.85066" lon="2.34295">
        <ele>50</ele>
        <time>2016-08-15T20:30:28.000Z</time>
      </trkpt>
      <trkpt lat="48.85111" lon="2.34305">
        <ele>47.799999237061</ele>
        <time>2016-08-15T20:30:42.000Z</time>
      </trkpt>
      <trkpt lat="48.85137" lon="2.34316">
        <ele>48.200000762939</ele>
        <time>2016-08-15T20:31:10.000Z</time>
      </trkpt>
      <trkpt lat="48.8515" lon="2.34322">
        <ele>48.200000762939</ele>
        <time>2016-08-15T20:31:13.000Z</time>
      </trkpt>
      <trkpt lat="48.85164" lon="2.34328">
        <ele>48.400001525879</ele>
        <time>2016-08-15T20:31:16.000Z</time>
      </trkpt>
      <trkpt lat="48.85177" lon="2.34338">
        <ele>48.799999237061</ele>
        <time>2016-08-15T20:31:19.000Z</time>
      </trkpt>
      <trkpt lat="48.85199" lon="2.34349">
        <ele>49.200000762939</ele>
        <time>2016-08-15T20:31:23.000Z</time>
      </trkpt>
      <trkpt lat="48.8525" lon="2.34371">
        <ele>50</ele>
        <time>2016-08-15T20:31:30.000Z</time>
      </trkpt>
      <trkpt lat="48.85287" lon="2.34386">
        <ele>49.200000762939</ele>
        <time>2016-08-15T20:31:35.000Z</time>
      </trkpt>
      <trkpt lat="48.85334" lon="2.344">
        <ele>45.400001525879</ele>
        <time>2016-08-15T20:31:42.000Z</time>
      </trkpt>
      <trkpt lat="48.85374" lon="2.34434">
        <ele>43.400001525879</ele>
        <time>2016-08-15T20:31:50.000Z</time>
      </trkpt>
      <trkpt lat="48.85412" lon="2.34468">
        <ele>42</ele>
        <time>2016-08-15T20:31:58.000Z</time>
      </trkpt>
      <trkpt lat="48.85422" lon="2.34477">
        <ele>41.400001525879</ele>
        <time>2016-08-15T20:32:00.000Z</time>
      </trkpt>
      <trkpt lat="48.85466" lon="2.34513">
        <ele>42.599998474121</ele>
        <time>2016-08-15T20:32:08.000Z</time>
      </trkpt>
      <trkpt lat="48.85508" lon="2.34546">
        <ele>45.200000762939</ele>
        <time>2016-08-15T20:32:16.000Z</time>
      </trkpt>
      <trkpt lat="48.85528" lon="2.34564">
        <ele>46.400001525879</ele>
        <time>2016-08-15T20:32:19.000Z</time>
      </trkpt>
      <trkpt lat="48.85572" lon="2.34596">
        <ele>47.599998474121</ele>
        <time>2016-08-15T20:32:25.000Z</time>
      </trkpt>
      <trkpt lat="48.85609" lon="2.34625">
        <ele>47.799999237061</ele>
        <time>2016-08-15T20:32:31.000Z</time>
      </trkpt>
      <trkpt lat="48.85623" lon="2.34654">
        <ele>46.599998474121</ele>
        <time>2016-08-15T20:32:34.000Z</time>
      </trkpt>
      <trkpt lat="48.85663" lon="2.34689">
        <ele>43.200000762939</ele>
        <time>2016-08-15T20:32:43.000Z</time>
      </trkpt>
      <trkpt lat="48.85706" lon="2.34715">
        <ele>40.799999237061</ele>
        <time>2016-08-15T20:32:57.000Z</time>
      </trkpt>
      <trkpt lat="48.85712" lon="2.34725">
        <ele>40.799999237061</ele>
        <time>2016-08-15T20:33:58.000Z</time>
      </trkpt>
      <trkpt lat="48.85727" lon="2.34754">
        <ele>40.400001525879</ele>
        <time>2016-08-15T20:34:06.000Z</time>
      </trkpt>
      <trkpt lat="48.8577" lon="2.34778">
        <ele>39.200000762939</ele>
        <time>2016-08-15T20:34:18.000Z</time>
      </trkpt>
      <trkpt lat="48.85778" lon="2.34782">
        <ele>39.799999237061</ele>
        <time>2016-08-15T20:34:20.000Z</time>
      </trkpt>
      <trkpt lat="48.85822" lon="2.34801">
        <ele>44.599998474121</ele>
        <time>2016-08-15T20:34:29.000Z</time>
      </trkpt>
      <trkpt lat="48.85845" lon="2.3481">
        <ele>46.799999237061</ele>
        <time>2016-08-15T20:34:33.000Z</time>
      </trkpt>
      <trkpt lat="48.85855" lon="2.34807">
        <ele>47.599998474121</ele>
        <time>2016-08-15T20:34:35.000Z</time>
      </trkpt>
      <trkpt lat="48.85862" lon="2.34798">
        <ele>47.599998474121</ele>
        <time>2016-08-15T20:34:37.000Z</time>
      </trkpt>
      <trkpt lat="48.85896" lon="2.34751">
        <ele>45.799999237061</ele>
        <time>2016-08-15T20:34:49.000Z</time>
      </trkpt>
      <trkpt lat="48.85935" lon="2.34709">
        <ele>45.599998474121</ele>
        <time>2016-08-15T20:35:03.000Z</time>
      </trkpt>
      <trkpt lat="48.8594" lon="2.34704">
        <ele>45.599998474121</ele>
        <time>2016-08-15T20:35:05.000Z</time>
      </trkpt>
      <trkpt lat="48.85953" lon="2.34709">
        <ele>45.599998474121</ele>
        <time>2016-08-15T20:36:01.000Z</time>
      </trkpt>
    </trkseg>
  </trk>
  <trk>
    <name><![CDATA[lundi 2016 08 22]]></name>
    <trkseg>
      <trkpt lat="48.85738" lon="2.3473">
        <ele>40.400001525879</ele>
        <time>2016-08-22T18:20:21.000Z</time>
      </trkpt>
      <trkpt lat="48.85738" lon="2.34708">
        <ele>40.200000762939</ele>
        <time>2016-08-22T18:20:35.000Z</time>
      </trkpt>
      <trkpt lat="48.85732" lon="2.34704">
        <ele>40.400001525879</ele>
        <time>2016-08-22T18:20:41.000Z</time>
      </trkpt>
      <trkpt lat="48.85714" lon="2.34694">
        <ele>40.799999237061</ele>
        <time>2016-08-22T18:20:49.000Z</time>
      </trkpt>
      <trkpt lat="48.85696" lon="2.3468">
        <ele>41</ele>
        <time>2016-08-22T18:20:55.000Z</time>
      </trkpt>
      <trkpt lat="48.85677" lon="2.34668">
        <ele>42</ele>
        <time>2016-08-22T18:21:02.000Z</time>
      </trkpt>
      <trkpt lat="48.85661" lon="2.34657">
        <ele>43.400001525879</ele>
        <time>2016-08-22T18:21:08.000Z</time>
      </trkpt>
      <trkpt lat="48.85643" lon="2.34646">
        <ele>44.799999237061</ele>
        <time>2016-08-22T18:21:14.000Z</time>
      </trkpt>
      <trkpt lat="48.85626" lon="2.34635">
        <ele>46.400001525879</ele>
        <time>2016-08-22T18:21:21.000Z</time>
      </trkpt>
      <trkpt lat="48.85608" lon="2.34622">
        <ele>47.799999237061</ele>
        <time>2016-08-22T18:21:28.000Z</time>
      </trkpt>
      <trkpt lat="48.8559" lon="2.34613">
        <ele>47.799999237061</ele>
        <time>2016-08-22T18:21:33.000Z</time>
      </trkpt>
      <trkpt lat="48.85573" lon="2.34602">
        <ele>47.599998474121</ele>
        <time>2016-08-22T18:21:39.000Z</time>
      </trkpt>
      <trkpt lat="48.85553" lon="2.34591">
        <ele>47.400001525879</ele>
        <time>2016-08-22T18:21:43.000Z</time>
      </trkpt>
      <trkpt lat="48.85536" lon="2.34579">
        <ele>47.200000762939</ele>
        <time>2016-08-22T18:21:46.000Z</time>
      </trkpt>
      <trkpt lat="48.8552" lon="2.34564">
        <ele>46.400001525879</ele>
        <time>2016-08-22T18:21:49.000Z</time>
      </trkpt>
      <trkpt lat="48.85505" lon="2.3455">
        <ele>45.200000762939</ele>
        <time>2016-08-22T18:21:52.000Z</time>
      </trkpt>
      <trkpt lat="48.85487" lon="2.34533">
        <ele>44</ele>
        <time>2016-08-22T18:21:56.000Z</time>
      </trkpt>
      <trkpt lat="48.8547" lon="2.34517">
        <ele>42.799999237061</ele>
        <time>2016-08-22T18:21:59.000Z</time>
      </trkpt>
      <trkpt lat="48.85453" lon="2.34503">
        <ele>41.599998474121</ele>
        <time>2016-08-22T18:22:02.000Z</time>
      </trkpt>
      <trkpt lat="48.85436" lon="2.34489">
        <ele>41</ele>
        <time>2016-08-22T18:22:06.000Z</time>
      </trkpt>
      <trkpt lat="48.85427" lon="2.34473">
        <ele>41</ele>
        <time>2016-08-22T18:22:09.000Z</time>
      </trkpt>
      <trkpt lat="48.85417" lon="2.34463">
        <ele>41.400001525879</ele>
        <time>2016-08-22T18:22:12.000Z</time>
      </trkpt>
      <trkpt lat="48.85405" lon="2.34451">
        <ele>41.799999237061</ele>
        <time>2016-08-22T18:22:17.000Z</time>
      </trkpt>
      <trkpt lat="48.85393" lon="2.34443">
        <ele>42.400001525879</ele>
        <time>2016-08-22T18:22:22.000Z</time>
      </trkpt>
      <trkpt lat="48.85386" lon="2.34426">
        <ele>42.200000762939</ele>
        <time>2016-08-22T18:23:10.000Z</time>
      </trkpt>
      <trkpt lat="48.85372" lon="2.34408">
        <ele>43</ele>
        <time>2016-08-22T18:23:16.000Z</time>
      </trkpt>
      <trkpt lat="48.85357" lon="2.34386">
        <ele>45</ele>
        <time>2016-08-22T18:23:21.000Z</time>
      </trkpt>
      <trkpt lat="48.85342" lon="2.34362">
        <ele>46.200000762939</ele>
        <time>2016-08-22T18:23:26.000Z</time>
      </trkpt>
      <trkpt lat="48.85328" lon="2.34337">
        <ele>47.400001525879</ele>
        <time>2016-08-22T18:23:31.000Z</time>
      </trkpt>
      <trkpt lat="48.85316" lon="2.34317">
        <ele>48.200000762939</ele>
        <time>2016-08-22T18:23:36.000Z</time>
      </trkpt>
      <trkpt lat="48.85304" lon="2.34293">
        <ele>48.799999237061</ele>
        <time>2016-08-22T18:23:43.000Z</time>
      </trkpt>
      <trkpt lat="48.85292" lon="2.34268">
        <ele>49.200000762939</ele>
        <time>2016-08-22T18:23:50.000Z</time>
      </trkpt>
      <trkpt lat="48.85279" lon="2.34241">
        <ele>49.400001525879</ele>
        <time>2016-08-22T18:23:56.000Z</time>
      </trkpt>
      <trkpt lat="48.85265" lon="2.34221">
        <ele>48.400001525879</ele>
        <time>2016-08-22T18:24:01.000Z</time>
      </trkpt>
      <trkpt lat="48.85252" lon="2.34194">
        <ele>47</ele>
        <time>2016-08-22T18:24:06.000Z</time>
      </trkpt>
      <trkpt lat="48.85244" lon="2.34166">
        <ele>45.400001525879</ele>
        <time>2016-08-22T18:24:11.000Z</time>
      </trkpt>
      <trkpt lat="48.85241" lon="2.34134">
        <ele>45</ele>
        <time>2016-08-22T18:24:16.000Z</time>
      </trkpt>
      <trkpt lat="48.85236" lon="2.34102">
        <ele>44.599998474121</ele>
        <time>2016-08-22T18:24:21.000Z</time>
      </trkpt>
      <trkpt lat="48.85226" lon="2.34076">
        <ele>44.599998474121</ele>
        <time>2016-08-22T18:24:27.000Z</time>
      </trkpt>
      <trkpt lat="48.85224" lon="2.34074">
        <ele>44.799999237061</ele>
        <time>2016-08-22T18:24:28.000Z</time>
      </trkpt>
      <trkpt lat="48.85219" lon="2.34051">
        <ele>45.400001525879</ele>
        <time>2016-08-22T18:24:40.000Z</time>
      </trkpt>
      <trkpt lat="48.85219" lon="2.3405">
        <ele>45.400001525879</ele>
        <time>2016-08-22T18:24:42.000Z</time>
      </trkpt>
      <trkpt lat="48.85217" lon="2.34044">
        <ele>45.599998474121</ele>
        <time>2016-08-22T18:24:52.000Z</time>
      </trkpt>
      <trkpt lat="48.85215" lon="2.3403">
        <ele>46</ele>
        <time>2016-08-22T18:24:56.000Z</time>
      </trkpt>
      <trkpt lat="48.85203" lon="2.34005">
        <ele>46.599998474121</ele>
        <time>2016-08-22T18:25:03.000Z</time>
      </trkpt>
      <trkpt lat="48.85187" lon="2.33994">
        <ele>47.200000762939</ele>
        <time>2016-08-22T18:25:08.000Z</time>
      </trkpt>
      <trkpt lat="48.85166" lon="2.34">
        <ele>47.200000762939</ele>
        <time>2016-08-22T18:25:13.000Z</time>
      </trkpt>
      <trkpt lat="48.85148" lon="2.34013">
        <ele>47.200000762939</ele>
        <time>2016-08-22T18:25:19.000Z</time>
      </trkpt>
      <trkpt lat="48.85142" lon="2.3401">
        <ele>47.200000762939</ele>
        <time>2016-08-22T18:25:22.000Z</time>
      </trkpt>
      <trkpt lat="48.85126" lon="2.33994">
        <ele>48</ele>
        <time>2016-08-22T18:25:29.000Z</time>
      </trkpt>
      <trkpt lat="48.85116" lon="2.33969">
        <ele>50</ele>
        <time>2016-08-22T18:25:38.000Z</time>
      </trkpt>
      <trkpt lat="48.85116" lon="2.33965">
        <ele>50.200000762939</ele>
        <time>2016-08-22T18:25:40.000Z</time>
      </trkpt>
      <trkpt lat="48.85116" lon="2.33963">
        <ele>50.400001525879</ele>
        <time>2016-08-22T18:25:42.000Z</time>
      </trkpt>
      <trkpt lat="48.85098" lon="2.33954">
        <ele>51.400001525879</ele>
        <time>2016-08-22T18:25:55.000Z</time>
      </trkpt>
      <trkpt lat="48.85076" lon="2.33956">
        <ele>52</ele>
        <time>2016-08-22T18:26:02.000Z</time>
      </trkpt>
      <trkpt lat="48.85059" lon="2.33964">
        <ele>52.400001525879</ele>
        <time>2016-08-22T18:26:06.000Z</time>
      </trkpt>
      <trkpt lat="48.85041" lon="2.3397">
        <ele>53.200000762939</ele>
        <time>2016-08-22T18:26:10.000Z</time>
      </trkpt>
      <trkpt lat="48.85022" lon="2.33977">
        <ele>54</ele>
        <time>2016-08-22T18:26:15.000Z</time>
      </trkpt>
      <trkpt lat="48.85001" lon="2.33986">
        <ele>54.400001525879</ele>
        <time>2016-08-22T18:26:21.000Z</time>
      </trkpt>
      <trkpt lat="48.84981" lon="2.33994">
        <ele>56.799999237061</ele>
        <time>2016-08-22T18:26:26.000Z</time>
      </trkpt>
      <trkpt lat="48.84961" lon="2.34">
        <ele>58.799999237061</ele>
        <time>2016-08-22T18:26:31.000Z</time>
      </trkpt>
      <trkpt lat="48.84948" lon="2.34001">
        <ele>60</ele>
        <time>2016-08-22T18:26:34.000Z</time>
      </trkpt>
      <trkpt lat="48.84935" lon="2.34003">
        <ele>60.799999237061</ele>
        <time>2016-08-22T18:26:38.000Z</time>
      </trkpt>
      <trkpt lat="48.84918" lon="2.34011">
        <ele>60.599998474121</ele>
        <time>2016-08-22T18:26:44.000Z</time>
      </trkpt>
      <trkpt lat="48.84901" lon="2.34024">
        <ele>60.400001525879</ele>
        <time>2016-08-22T18:26:52.000Z</time>
      </trkpt>
      <trkpt lat="48.84881" lon="2.34033">
        <ele>60.599998474121</ele>
        <time>2016-08-22T18:26:59.000Z</time>
      </trkpt>
      <trkpt lat="48.84862" lon="2.34043">
        <ele>61</ele>
        <time>2016-08-22T18:27:05.000Z</time>
      </trkpt>
      <trkpt lat="48.84841" lon="2.34048">
        <ele>59.799999237061</ele>
        <time>2016-08-22T18:27:11.000Z</time>
      </trkpt>
      <trkpt lat="48.84822" lon="2.34061">
        <ele>58.400001525879</ele>
        <time>2016-08-22T18:27:18.000Z</time>
      </trkpt>
      <trkpt lat="48.84806" lon="2.34073">
        <ele>58.599998474121</ele>
        <time>2016-08-22T18:27:24.000Z</time>
      </trkpt>
      <trkpt lat="48.84785" lon="2.34083">
        <ele>58.400001525879</ele>
        <time>2016-08-22T18:27:33.000Z</time>
      </trkpt>
      <trkpt lat="48.84766" lon="2.3408">
        <ele>58.200000762939</ele>
        <time>2016-08-22T18:27:41.000Z</time>
      </trkpt>
      <trkpt lat="48.84759" lon="2.34077">
        <ele>58.200000762939</ele>
        <time>2016-08-22T18:27:47.000Z</time>
      </trkpt>
      <trkpt lat="48.84761" lon="2.34069">
        <ele>57.200000762939</ele>
        <time>2016-08-22T18:28:17.000Z</time>
      </trkpt>
      <trkpt lat="48.8476" lon="2.3405">
        <ele>56.400001525879</ele>
        <time>2016-08-22T18:28:38.000Z</time>
      </trkpt>
      <trkpt lat="48.8476" lon="2.34047">
        <ele>56.400001525879</ele>
        <time>2016-08-22T18:28:40.000Z</time>
      </trkpt>
      <trkpt lat="48.84759" lon="2.34041">
        <ele>56</ele>
        <time>2016-08-22T18:28:44.000Z</time>
      </trkpt>
      <trkpt lat="48.84759" lon="2.34041">
        <ele>56.200000762939</ele>
        <time>2016-08-22T18:28:45.000Z</time>
      </trkpt>
      <trkpt lat="48.84741" lon="2.34039">
        <ele>55.400001525879</ele>
        <time>2016-08-22T18:29:14.000Z</time>
      </trkpt>
      <trkpt lat="48.84721" lon="2.34041">
        <ele>55.599998474121</ele>
        <time>2016-08-22T18:29:19.000Z</time>
      </trkpt>
      <trkpt lat="48.84701" lon="2.34042">
        <ele>56.400001525879</ele>
        <time>2016-08-22T18:29:25.000Z</time>
      </trkpt>
      <trkpt lat="48.84682" lon="2.34042">
        <ele>57.599998474121</ele>
        <time>2016-08-22T18:29:31.000Z</time>
      </trkpt>
      <trkpt lat="48.84663" lon="2.34031">
        <ele>58.799999237061</ele>
        <time>2016-08-22T18:29:36.000Z</time>
      </trkpt>
      <trkpt lat="48.84644" lon="2.34022">
        <ele>60</ele>
        <time>2016-08-22T18:29:40.000Z</time>
      </trkpt>
      <trkpt lat="48.84626" lon="2.34016">
        <ele>61.599998474121</ele>
        <time>2016-08-22T18:29:44.000Z</time>
      </trkpt>
      <trkpt lat="48.84608" lon="2.34008">
        <ele>62.200000762939</ele>
        <time>2016-08-22T18:29:48.000Z</time>
      </trkpt>
      <trkpt lat="48.84588" lon="2.33997">
        <ele>62.799999237061</ele>
        <time>2016-08-22T18:29:52.000Z</time>
      </trkpt>
      <trkpt lat="48.84566" lon="2.33989">
        <ele>63.200000762939</ele>
        <time>2016-08-22T18:29:56.000Z</time>
      </trkpt>
      <trkpt lat="48.84548" lon="2.33982">
        <ele>63.599998474121</ele>
        <time>2016-08-22T18:29:59.000Z</time>
      </trkpt>
      <trkpt lat="48.84525" lon="2.33971">
        <ele>63.599998474121</ele>
        <time>2016-08-22T18:30:03.000Z</time>
      </trkpt>
      <trkpt lat="48.84519" lon="2.33968">
        <ele>63.599998474121</ele>
        <time>2016-08-22T18:30:04.000Z</time>
      </trkpt>
      <trkpt lat="48.84497" lon="2.33956">
        <ele>63.400001525879</ele>
        <time>2016-08-22T18:30:08.000Z</time>
      </trkpt>
      <trkpt lat="48.84479" lon="2.33947">
        <ele>63.400001525879</ele>
        <time>2016-08-22T18:30:11.000Z</time>
      </trkpt>
      <trkpt lat="48.84462" lon="2.33936">
        <ele>63</ele>
        <time>2016-08-22T18:30:14.000Z</time>
      </trkpt>
      <trkpt lat="48.84444" lon="2.33925">
        <ele>62.400001525879</ele>
        <time>2016-08-22T18:30:17.000Z</time>
      </trkpt>
      <trkpt lat="48.84422" lon="2.33918">
        <ele>61.400001525879</ele>
        <time>2016-08-22T18:30:21.000Z</time>
      </trkpt>
      <trkpt lat="48.84417" lon="2.33918">
        <ele>61</ele>
        <time>2016-08-22T18:30:22.000Z</time>
      </trkpt>
      <trkpt lat="48.84397" lon="2.33913">
        <ele>60</ele>
        <time>2016-08-22T18:30:27.000Z</time>
      </trkpt>
      <trkpt lat="48.84378" lon="2.33907">
        <ele>59.599998474121</ele>
        <time>2016-08-22T18:30:34.000Z</time>
      </trkpt>
      <trkpt lat="48.84359" lon="2.33899">
        <ele>59.200000762939</ele>
        <time>2016-08-22T18:30:41.000Z</time>
      </trkpt>
      <trkpt lat="48.84355" lon="2.33897">
        <ele>59.200000762939</ele>
        <time>2016-08-22T18:30:43.000Z</time>
      </trkpt>
      <trkpt lat="48.84362" lon="2.33903">
        <ele>59.200000762939</ele>
        <time>2016-08-22T18:30:48.000Z</time>
      </trkpt>
      <trkpt lat="48.84385" lon="2.33894">
        <ele>60.799999237061</ele>
        <time>2016-08-22T18:30:53.000Z</time>
      </trkpt>
      <trkpt lat="48.84399" lon="2.33875">
        <ele>63</ele>
        <time>2016-08-22T18:30:57.000Z</time>
      </trkpt>
      <trkpt lat="48.84409" lon="2.33846">
        <ele>62.200000762939</ele>
        <time>2016-08-22T18:31:02.000Z</time>
      </trkpt>
      <trkpt lat="48.84416" lon="2.33814">
        <ele>61.400001525879</ele>
        <time>2016-08-22T18:31:07.000Z</time>
      </trkpt>
      <trkpt lat="48.8442" lon="2.33784">
        <ele>61</ele>
        <time>2016-08-22T18:31:11.000Z</time>
      </trkpt>
      <trkpt lat="48.84416" lon="2.33755">
        <ele>60.599998474121</ele>
        <time>2016-08-22T18:31:15.000Z</time>
      </trkpt>
      <trkpt lat="48.84417" lon="2.33741">
        <ele>60</ele>
        <time>2016-08-22T18:31:17.000Z</time>
      </trkpt>
      <trkpt lat="48.8442" lon="2.33713">
        <ele>57</ele>
        <time>2016-08-22T18:31:21.000Z</time>
      </trkpt>
      <trkpt lat="48.8442" lon="2.33707">
        <ele>56.200000762939</ele>
        <time>2016-08-22T18:31:22.000Z</time>
      </trkpt>
      <trkpt lat="48.8442" lon="2.33694">
        <ele>54.799999237061</ele>
        <time>2016-08-22T18:31:24.000Z</time>
      </trkpt>
      <trkpt lat="48.84425" lon="2.33667">
        <ele>51.200000762939</ele>
        <time>2016-08-22T18:31:28.000Z</time>
      </trkpt>
      <trkpt lat="48.84427" lon="2.33656">
        <ele>50.599998474121</ele>
        <time>2016-08-22T18:31:30.000Z</time>
      </trkpt>
      <trkpt lat="48.8443" lon="2.33643">
        <ele>50.599998474121</ele>
        <time>2016-08-22T18:31:32.000Z</time>
      </trkpt>
      <trkpt lat="48.84433" lon="2.33615">
        <ele>50.799999237061</ele>
        <time>2016-08-22T18:31:36.000Z</time>
      </trkpt>
      <trkpt lat="48.84435" lon="2.33584">
        <ele>51.200000762939</ele>
        <time>2016-08-22T18:31:40.000Z</time>
      </trkpt>
      <trkpt lat="48.84435" lon="2.33552">
        <ele>53</ele>
        <time>2016-08-22T18:31:44.000Z</time>
      </trkpt>
      <trkpt lat="48.84437" lon="2.33519">
        <ele>55.400001525879</ele>
        <time>2016-08-22T18:31:48.000Z</time>
      </trkpt>
      <trkpt lat="48.84436" lon="2.335">
        <ele>56.799999237061</ele>
        <time>2016-08-22T18:31:50.000Z</time>
      </trkpt>
      <trkpt lat="48.84434" lon="2.33469">
        <ele>55.799999237061</ele>
        <time>2016-08-22T18:31:53.000Z</time>
      </trkpt>
      <trkpt lat="48.84434" lon="2.3344">
        <ele>54.400001525879</ele>
        <time>2016-08-22T18:31:56.000Z</time>
      </trkpt>
      <trkpt lat="48.84434" lon="2.33411">
        <ele>53</ele>
        <time>2016-08-22T18:31:59.000Z</time>
      </trkpt>
      <trkpt lat="48.84436" lon="2.3338">
        <ele>53</ele>
        <time>2016-08-22T18:32:02.000Z</time>
      </trkpt>
      <trkpt lat="48.84437" lon="2.33351">
        <ele>53</ele>
        <time>2016-08-22T18:32:05.000Z</time>
      </trkpt>
      <trkpt lat="48.84439" lon="2.33324">
        <ele>53.200000762939</ele>
        <time>2016-08-22T18:32:08.000Z</time>
      </trkpt>
      <trkpt lat="48.84439" lon="2.33317">
        <ele>53.400001525879</ele>
        <time>2016-08-22T18:32:09.000Z</time>
      </trkpt>
      <trkpt lat="48.84427" lon="2.333">
        <ele>53.799999237061</ele>
        <time>2016-08-22T18:32:14.000Z</time>
      </trkpt>
      <trkpt lat="48.84416" lon="2.33307">
        <ele>53.599998474121</ele>
        <time>2016-08-22T18:32:16.000Z</time>
      </trkpt>
      <trkpt lat="48.84411" lon="2.33312">
        <ele>53.599998474121</ele>
        <time>2016-08-22T18:32:17.000Z</time>
      </trkpt>
      <trkpt lat="48.844" lon="2.33322">
        <ele>53.599998474121</ele>
        <time>2016-08-22T18:32:19.000Z</time>
      </trkpt>
      <trkpt lat="48.84383" lon="2.33336">
        <ele>53.599998474121</ele>
        <time>2016-08-22T18:32:22.000Z</time>
      </trkpt>
      <trkpt lat="48.8437" lon="2.33342">
        <ele>53.799999237061</ele>
        <time>2016-08-22T18:32:24.000Z</time>
      </trkpt>
      <trkpt lat="48.84352" lon="2.33355">
        <ele>54.400001525879</ele>
        <time>2016-08-22T18:32:27.000Z</time>
      </trkpt>
      <trkpt lat="48.84334" lon="2.33372">
        <ele>55.799999237061</ele>
        <time>2016-08-22T18:32:30.000Z</time>
      </trkpt>
      <trkpt lat="48.84318" lon="2.33388">
        <ele>57</ele>
        <time>2016-08-22T18:32:33.000Z</time>
      </trkpt>
      <trkpt lat="48.84304" lon="2.33405">
        <ele>57.799999237061</ele>
        <time>2016-08-22T18:32:36.000Z</time>
      </trkpt>
      <trkpt lat="48.84289" lon="2.33422">
        <ele>59</ele>
        <time>2016-08-22T18:32:39.000Z</time>
      </trkpt>
      <trkpt lat="48.84271" lon="2.33441">
        <ele>60</ele>
        <time>2016-08-22T18:32:43.000Z</time>
      </trkpt>
      <trkpt lat="48.84258" lon="2.3345">
        <ele>59.799999237061</ele>
        <time>2016-08-22T18:32:47.000Z</time>
      </trkpt>
      <trkpt lat="48.8425" lon="2.33458">
        <ele>59.799999237061</ele>
        <time>2016-08-22T18:32:50.000Z</time>
      </trkpt>
      <trkpt lat="48.84235" lon="2.3347">
        <ele>60.200000762939</ele>
        <time>2016-08-22T18:32:56.000Z</time>
      </trkpt>
      <trkpt lat="48.84222" lon="2.33485">
        <ele>61.799999237061</ele>
        <time>2016-08-22T18:33:01.000Z</time>
      </trkpt>
      <trkpt lat="48.84219" lon="2.33489">
        <ele>62</ele>
        <time>2016-08-22T18:33:02.000Z</time>
      </trkpt>
      <trkpt lat="48.8421" lon="2.335">
        <ele>63</ele>
        <time>2016-08-22T18:33:05.000Z</time>
      </trkpt>
      <trkpt lat="48.84194" lon="2.33517">
        <ele>63.799999237061</ele>
        <time>2016-08-22T18:33:10.000Z</time>
      </trkpt>
      <trkpt lat="48.8419" lon="2.33521">
        <ele>64</ele>
        <time>2016-08-22T18:33:11.000Z</time>
      </trkpt>
      <trkpt lat="48.84174" lon="2.33535">
        <ele>64.599998474121</ele>
        <time>2016-08-22T18:33:15.000Z</time>
      </trkpt>
      <trkpt lat="48.84169" lon="2.3354">
        <ele>64.800003051758</ele>
        <time>2016-08-22T18:33:16.000Z</time>
      </trkpt>
      <trkpt lat="48.84164" lon="2.33545">
        <ele>64.800003051758</ele>
        <time>2016-08-22T18:33:17.000Z</time>
      </trkpt>
      <trkpt lat="48.84146" lon="2.33559">
        <ele>66</ele>
        <time>2016-08-22T18:33:20.000Z</time>
      </trkpt>
      <trkpt lat="48.84133" lon="2.33569">
        <ele>67</ele>
        <time>2016-08-22T18:33:22.000Z</time>
      </trkpt>
      <trkpt lat="48.84113" lon="2.33587">
        <ele>68.199996948242</ele>
        <time>2016-08-22T18:33:25.000Z</time>
      </trkpt>
      <trkpt lat="48.84094" lon="2.33601">
        <ele>66.400001525879</ele>
        <time>2016-08-22T18:33:28.000Z</time>
      </trkpt>
      <trkpt lat="48.84077" lon="2.33616">
        <ele>64</ele>
        <time>2016-08-22T18:33:31.000Z</time>
      </trkpt>
      <trkpt lat="48.84058" lon="2.33633">
        <ele>62.400001525879</ele>
        <time>2016-08-22T18:33:35.000Z</time>
      </trkpt>
      <trkpt lat="48.84049" lon="2.33643">
        <ele>62.200000762939</ele>
        <time>2016-08-22T18:33:37.000Z</time>
      </trkpt>
      <trkpt lat="48.84029" lon="2.33652">
        <ele>62.200000762939</ele>
        <time>2016-08-22T18:33:42.000Z</time>
      </trkpt>
      <trkpt lat="48.8402" lon="2.33654">
        <ele>62.200000762939</ele>
        <time>2016-08-22T18:33:45.000Z</time>
      </trkpt>
      <trkpt lat="48.84012" lon="2.33655">
        <ele>61.599998474121</ele>
        <time>2016-08-22T18:33:49.000Z</time>
      </trkpt>
      <trkpt lat="48.84004" lon="2.33659">
        <ele>61.599998474121</ele>
        <time>2016-08-22T18:33:53.000Z</time>
      </trkpt>
      <trkpt lat="48.83987" lon="2.33657">
        <ele>61.400001525879</ele>
        <time>2016-08-22T18:34:46.000Z</time>
      </trkpt>
      <trkpt lat="48.83983" lon="2.33648">
        <ele>61.200000762939</ele>
        <time>2016-08-22T18:35:12.000Z</time>
      </trkpt>
      <trkpt lat="48.8398" lon="2.33621">
        <ele>60.400001525879</ele>
        <time>2016-08-22T18:35:17.000Z</time>
      </trkpt>
      <trkpt lat="48.83983" lon="2.33608">
        <ele>61</ele>
        <time>2016-08-22T18:35:19.000Z</time>
      </trkpt>
      <trkpt lat="48.83993" lon="2.33584">
        <ele>62.200000762939</ele>
        <time>2016-08-22T18:35:23.000Z</time>
      </trkpt>
      <trkpt lat="48.84001" lon="2.33555">
        <ele>63.400001525879</ele>
        <time>2016-08-22T18:35:27.000Z</time>
      </trkpt>
      <trkpt lat="48.8401" lon="2.33522">
        <ele>64.599998474121</ele>
        <time>2016-08-22T18:35:31.000Z</time>
      </trkpt>
      <trkpt lat="48.84015" lon="2.33496">
        <ele>65.599998474121</ele>
        <time>2016-08-22T18:35:34.000Z</time>
      </trkpt>
      <trkpt lat="48.84021" lon="2.33469">
        <ele>65.599998474121</ele>
        <time>2016-08-22T18:35:37.000Z</time>
      </trkpt>
      <trkpt lat="48.8403" lon="2.33442">
        <ele>65.400001525879</ele>
        <time>2016-08-22T18:35:40.000Z</time>
      </trkpt>
      <trkpt lat="48.84041" lon="2.33416">
        <ele>64</ele>
        <time>2016-08-22T18:35:43.000Z</time>
      </trkpt>
      <trkpt lat="48.84051" lon="2.33389">
        <ele>63.599998474121</ele>
        <time>2016-08-22T18:35:46.000Z</time>
      </trkpt>
      <trkpt lat="48.8406" lon="2.33365">
        <ele>63.400001525879</ele>
        <time>2016-08-22T18:35:49.000Z</time>
      </trkpt>
      <trkpt lat="48.84068" lon="2.3334">
        <ele>64</ele>
        <time>2016-08-22T18:35:52.000Z</time>
      </trkpt>
      <trkpt lat="48.84077" lon="2.33313">
        <ele>63.799999237061</ele>
        <time>2016-08-22T18:35:55.000Z</time>
      </trkpt>
      <trkpt lat="48.84087" lon="2.33289">
        <ele>64</ele>
        <time>2016-08-22T18:35:58.000Z</time>
      </trkpt>
      <trkpt lat="48.84096" lon="2.3326">
        <ele>64.599998474121</ele>
        <time>2016-08-22T18:36:01.000Z</time>
      </trkpt>
      <trkpt lat="48.84105" lon="2.33228">
        <ele>65.199996948242</ele>
        <time>2016-08-22T18:36:04.000Z</time>
      </trkpt>
      <trkpt lat="48.84115" lon="2.33198">
        <ele>65.199996948242</ele>
        <time>2016-08-22T18:36:07.000Z</time>
      </trkpt>
      <trkpt lat="48.84125" lon="2.3317">
        <ele>65.199996948242</ele>
        <time>2016-08-22T18:36:10.000Z</time>
      </trkpt>
      <trkpt lat="48.84134" lon="2.33143">
        <ele>65.400001525879</ele>
        <time>2016-08-22T18:36:13.000Z</time>
      </trkpt>
      <trkpt lat="48.84145" lon="2.33116">
        <ele>65.599998474121</ele>
        <time>2016-08-22T18:36:16.000Z</time>
      </trkpt>
      <trkpt lat="48.84156" lon="2.33088">
        <ele>64.599998474121</ele>
        <time>2016-08-22T18:36:19.000Z</time>
      </trkpt>
      <trkpt lat="48.84164" lon="2.3306">
        <ele>62.799999237061</ele>
        <time>2016-08-22T18:36:22.000Z</time>
      </trkpt>
      <trkpt lat="48.84172" lon="2.33035">
        <ele>62</ele>
        <time>2016-08-22T18:36:25.000Z</time>
      </trkpt>
      <trkpt lat="48.8418" lon="2.33007">
        <ele>61.400001525879</ele>
        <time>2016-08-22T18:36:29.000Z</time>
      </trkpt>
      <trkpt lat="48.84186" lon="2.32988">
        <ele>61</ele>
        <time>2016-08-22T18:36:34.000Z</time>
      </trkpt>
      <trkpt lat="48.84188" lon="2.32986">
        <ele>61</ele>
        <time>2016-08-22T18:36:36.000Z</time>
      </trkpt>
      <trkpt lat="48.84182" lon="2.32965">
        <ele>61</ele>
        <time>2016-08-22T18:36:55.000Z</time>
      </trkpt>
      <trkpt lat="48.84178" lon="2.32962">
        <ele>61</ele>
        <time>2016-08-22T18:36:57.000Z</time>
      </trkpt>
      <trkpt lat="48.84159" lon="2.32972">
        <ele>61.200000762939</ele>
        <time>2016-08-22T18:37:02.000Z</time>
      </trkpt>
      <trkpt lat="48.8415" lon="2.32975">
        <ele>61.599998474121</ele>
        <time>2016-08-22T18:37:04.000Z</time>
      </trkpt>
      <trkpt lat="48.84129" lon="2.32972">
        <ele>62.200000762939</ele>
        <time>2016-08-22T18:37:09.000Z</time>
      </trkpt>
      <trkpt lat="48.84116" lon="2.32952">
        <ele>62</ele>
        <time>2016-08-22T18:37:14.000Z</time>
      </trkpt>
      <trkpt lat="48.84101" lon="2.3293">
        <ele>61.599998474121</ele>
        <time>2016-08-22T18:37:19.000Z</time>
      </trkpt>
      <trkpt lat="48.84087" lon="2.329">
        <ele>60.599998474121</ele>
        <time>2016-08-22T18:37:24.000Z</time>
      </trkpt>
      <trkpt lat="48.84079" lon="2.32868">
        <ele>60.200000762939</ele>
        <time>2016-08-22T18:37:28.000Z</time>
      </trkpt>
      <trkpt lat="48.84067" lon="2.32845">
        <ele>59.799999237061</ele>
        <time>2016-08-22T18:37:32.000Z</time>
      </trkpt>
      <trkpt lat="48.84065" lon="2.32839">
        <ele>59.599998474121</ele>
        <time>2016-08-22T18:37:33.000Z</time>
      </trkpt>
      <trkpt lat="48.84052" lon="2.32819">
        <ele>59.400001525879</ele>
        <time>2016-08-22T18:37:37.000Z</time>
      </trkpt>
      <trkpt lat="48.84038" lon="2.32799">
        <ele>59.599998474121</ele>
        <time>2016-08-22T18:37:42.000Z</time>
      </trkpt>
      <trkpt lat="48.84034" lon="2.32791">
        <ele>59.599998474121</ele>
        <time>2016-08-22T18:37:44.000Z</time>
      </trkpt>
      <trkpt lat="48.84038" lon="2.32764">
        <ele>60</ele>
        <time>2016-08-22T18:37:50.000Z</time>
      </trkpt>
      <trkpt lat="48.84039" lon="2.32759">
        <ele>60.200000762939</ele>
        <time>2016-08-22T18:37:51.000Z</time>
      </trkpt>
      <trkpt lat="48.84048" lon="2.32732">
        <ele>61.200000762939</ele>
        <time>2016-08-22T18:37:56.000Z</time>
      </trkpt>
      <trkpt lat="48.84054" lon="2.32706">
        <ele>61.599998474121</ele>
        <time>2016-08-22T18:38:00.000Z</time>
      </trkpt>
      <trkpt lat="48.84063" lon="2.32673">
        <ele>61.200000762939</ele>
        <time>2016-08-22T18:38:04.000Z</time>
      </trkpt>
      <trkpt lat="48.84071" lon="2.32647">
        <ele>60.799999237061</ele>
        <time>2016-08-22T18:38:07.000Z</time>
      </trkpt>
      <trkpt lat="48.84074" lon="2.32639">
        <ele>60.599998474121</ele>
        <time>2016-08-22T18:38:08.000Z</time>
      </trkpt>
      <trkpt lat="48.84085" lon="2.32607">
        <ele>60.200000762939</ele>
        <time>2016-08-22T18:38:12.000Z</time>
      </trkpt>
      <trkpt lat="48.84094" lon="2.32575">
        <ele>59.599998474121</ele>
        <time>2016-08-22T18:38:16.000Z</time>
      </trkpt>
      <trkpt lat="48.84103" lon="2.32546">
        <ele>60.599998474121</ele>
        <time>2016-08-22T18:38:20.000Z</time>
      </trkpt>
      <trkpt lat="48.8411" lon="2.3252">
        <ele>61.599998474121</ele>
        <time>2016-08-22T18:38:24.000Z</time>
      </trkpt>
      <trkpt lat="48.84112" lon="2.32514">
        <ele>62</ele>
        <time>2016-08-22T18:38:25.000Z</time>
      </trkpt>
      <trkpt lat="48.84121" lon="2.32492">
        <ele>62</ele>
        <time>2016-08-22T18:38:30.000Z</time>
      </trkpt>
      <trkpt lat="48.84127" lon="2.32474">
        <ele>61.799999237061</ele>
        <time>2016-08-22T18:38:36.000Z</time>
      </trkpt>
      <trkpt lat="48.84111" lon="2.3247">
        <ele>61.400001525879</ele>
        <time>2016-08-22T18:38:46.000Z</time>
      </trkpt>
      <trkpt lat="48.84104" lon="2.32467">
        <ele>61.400001525879</ele>
        <time>2016-08-22T18:38:49.000Z</time>
      </trkpt>
      <trkpt lat="48.84085" lon="2.32456">
        <ele>61.200000762939</ele>
        <time>2016-08-22T18:38:55.000Z</time>
      </trkpt>
      <trkpt lat="48.84068" lon="2.32446">
        <ele>61.200000762939</ele>
        <time>2016-08-22T18:38:59.000Z</time>
      </trkpt>
      <trkpt lat="48.8405" lon="2.32441">
        <ele>61.400001525879</ele>
        <time>2016-08-22T18:39:03.000Z</time>
      </trkpt>
      <trkpt lat="48.84031" lon="2.3243">
        <ele>60.799999237061</ele>
        <time>2016-08-22T18:39:07.000Z</time>
      </trkpt>
      <trkpt lat="48.84013" lon="2.32415">
        <ele>61.400001525879</ele>
        <time>2016-08-22T18:39:11.000Z</time>
      </trkpt>
      <trkpt lat="48.83997" lon="2.32402">
        <ele>62.599998474121</ele>
        <time>2016-08-22T18:39:15.000Z</time>
      </trkpt>
      <trkpt lat="48.83979" lon="2.32388">
        <ele>64</ele>
        <time>2016-08-22T18:39:19.000Z</time>
      </trkpt>
      <trkpt lat="48.83963" lon="2.32374">
        <ele>65.199996948242</ele>
        <time>2016-08-22T18:39:23.000Z</time>
      </trkpt>
      <trkpt lat="48.83946" lon="2.32355">
        <ele>66.800003051758</ele>
        <time>2016-08-22T18:39:27.000Z</time>
      </trkpt>
      <trkpt lat="48.83929" lon="2.32341">
        <ele>67.800003051758</ele>
        <time>2016-08-22T18:39:31.000Z</time>
      </trkpt>
      <trkpt lat="48.83912" lon="2.32328">
        <ele>68.199996948242</ele>
        <time>2016-08-22T18:39:35.000Z</time>
      </trkpt>
      <trkpt lat="48.83907" lon="2.32326">
        <ele>68.199996948242</ele>
        <time>2016-08-22T18:39:36.000Z</time>
      </trkpt>
      <trkpt lat="48.83891" lon="2.32315">
        <ele>68.199996948242</ele>
        <time>2016-08-22T18:39:40.000Z</time>
      </trkpt>
      <trkpt lat="48.83875" lon="2.32302">
        <ele>68</ele>
        <time>2016-08-22T18:39:44.000Z</time>
      </trkpt>
      <trkpt lat="48.83859" lon="2.32285">
        <ele>67.800003051758</ele>
        <time>2016-08-22T18:39:49.000Z</time>
      </trkpt>
      <trkpt lat="48.83852" lon="2.32272">
        <ele>67.599998474121</ele>
        <time>2016-08-22T18:39:55.000Z</time>
      </trkpt>
      <trkpt lat="48.83853" lon="2.3227">
        <ele>67.599998474121</ele>
        <time>2016-08-22T18:39:56.000Z</time>
      </trkpt>
      <trkpt lat="48.83842" lon="2.32254">
        <ele>67.400001525879</ele>
        <time>2016-08-22T18:40:35.000Z</time>
      </trkpt>
      <trkpt lat="48.83822" lon="2.32251">
        <ele>68</ele>
        <time>2016-08-22T18:40:40.000Z</time>
      </trkpt>
      <trkpt lat="48.83802" lon="2.32262">
        <ele>68.599998474121</ele>
        <time>2016-08-22T18:40:46.000Z</time>
      </trkpt>
      <trkpt lat="48.83784" lon="2.32273">
        <ele>69.199996948242</ele>
        <time>2016-08-22T18:40:53.000Z</time>
      </trkpt>
      <trkpt lat="48.83775" lon="2.32273">
        <ele>69.199996948242</ele>
        <time>2016-08-22T18:40:58.000Z</time>
      </trkpt>
      <trkpt lat="48.83765" lon="2.32271">
        <ele>69.599998474121</ele>
        <time>2016-08-22T18:41:16.000Z</time>
      </trkpt>
      <trkpt lat="48.83752" lon="2.32245">
        <ele>70</ele>
        <time>2016-08-22T18:41:25.000Z</time>
      </trkpt>
      <trkpt lat="48.83752" lon="2.32215">
        <ele>71</ele>
        <time>2016-08-22T18:41:29.000Z</time>
      </trkpt>
      <trkpt lat="48.83751" lon="2.32182">
        <ele>73</ele>
        <time>2016-08-22T18:41:33.000Z</time>
      </trkpt>
      <trkpt lat="48.83749" lon="2.32146">
        <ele>74.199996948242</ele>
        <time>2016-08-22T18:41:37.000Z</time>
      </trkpt>
      <trkpt lat="48.83749" lon="2.32114">
        <ele>76.400001525879</ele>
        <time>2016-08-22T18:41:41.000Z</time>
      </trkpt>
      <trkpt lat="48.83747" lon="2.32081">
        <ele>79.199996948242</ele>
        <time>2016-08-22T18:41:45.000Z</time>
      </trkpt>
      <trkpt lat="48.83748" lon="2.3205">
        <ele>78.800003051758</ele>
        <time>2016-08-22T18:41:49.000Z</time>
      </trkpt>
      <trkpt lat="48.83752" lon="2.32043">
        <ele>78.400001525879</ele>
        <time>2016-08-22T18:41:50.000Z</time>
      </trkpt>
      <trkpt lat="48.83751" lon="2.32017">
        <ele>76.400001525879</ele>
        <time>2016-08-22T18:41:54.000Z</time>
      </trkpt>
      <trkpt lat="48.83746" lon="2.31996">
        <ele>75</ele>
        <time>2016-08-22T18:41:57.000Z</time>
      </trkpt>
      <trkpt lat="48.83743" lon="2.31987">
        <ele>74.800003051758</ele>
        <time>2016-08-22T18:41:59.000Z</time>
      </trkpt>
      <trkpt lat="48.83738" lon="2.31967">
        <ele>74.199996948242</ele>
        <time>2016-08-22T18:42:02.000Z</time>
      </trkpt>
      <trkpt lat="48.83734" lon="2.31937">
        <ele>74.599998474121</ele>
        <time>2016-08-22T18:42:07.000Z</time>
      </trkpt>
      <trkpt lat="48.83733" lon="2.31931">
        <ele>74.599998474121</ele>
        <time>2016-08-22T18:42:08.000Z</time>
      </trkpt>
      <trkpt lat="48.83728" lon="2.31897">
        <ele>73.599998474121</ele>
        <time>2016-08-22T18:42:13.000Z</time>
      </trkpt>
      <trkpt lat="48.83728" lon="2.3189">
        <ele>73</ele>
        <time>2016-08-22T18:42:14.000Z</time>
      </trkpt>
      <trkpt lat="48.83736" lon="2.31863">
        <ele>71.599998474121</ele>
        <time>2016-08-22T18:42:18.000Z</time>
      </trkpt>
      <trkpt lat="48.83738" lon="2.31857">
        <ele>71.400001525879</ele>
        <time>2016-08-22T18:42:19.000Z</time>
      </trkpt>
      <trkpt lat="48.83745" lon="2.31831">
        <ele>70.800003051758</ele>
        <time>2016-08-22T18:42:23.000Z</time>
      </trkpt>
      <trkpt lat="48.83742" lon="2.31804">
        <ele>70.199996948242</ele>
        <time>2016-08-22T18:42:27.000Z</time>
      </trkpt>
      <trkpt lat="48.83726" lon="2.31786">
        <ele>68.599998474121</ele>
        <time>2016-08-22T18:42:32.000Z</time>
      </trkpt>
      <trkpt lat="48.83709" lon="2.31794">
        <ele>67.199996948242</ele>
        <time>2016-08-22T18:42:36.000Z</time>
      </trkpt>
      <trkpt lat="48.83697" lon="2.31825">
        <ele>66.599998474121</ele>
        <time>2016-08-22T18:42:40.000Z</time>
      </trkpt>
      <trkpt lat="48.83701" lon="2.31855">
        <ele>68.599998474121</ele>
        <time>2016-08-22T18:42:44.000Z</time>
      </trkpt>
      <trkpt lat="48.83717" lon="2.31872">
        <ele>70.800003051758</ele>
        <time>2016-08-22T18:42:48.000Z</time>
      </trkpt>
      <trkpt lat="48.83736" lon="2.3187">
        <ele>71.800003051758</ele>
        <time>2016-08-22T18:42:52.000Z</time>
      </trkpt>
      <trkpt lat="48.83749" lon="2.31847">
        <ele>71.800003051758</ele>
        <time>2016-08-22T18:42:56.000Z</time>
      </trkpt>
      <trkpt lat="48.83752" lon="2.31834">
        <ele>71.400001525879</ele>
        <time>2016-08-22T18:42:58.000Z</time>
      </trkpt>
      <trkpt lat="48.83757" lon="2.31821">
        <ele>71.599998474121</ele>
        <time>2016-08-22T18:43:00.000Z</time>
      </trkpt>
      <trkpt lat="48.83771" lon="2.31798">
        <ele>72.199996948242</ele>
        <time>2016-08-22T18:43:05.000Z</time>
      </trkpt>
      <trkpt lat="48.83786" lon="2.31776">
        <ele>72.599998474121</ele>
        <time>2016-08-22T18:43:10.000Z</time>
      </trkpt>
      <trkpt lat="48.83806" lon="2.31767">
        <ele>73</ele>
        <time>2016-08-22T18:43:14.000Z</time>
      </trkpt>
      <trkpt lat="48.83822" lon="2.31752">
        <ele>72</ele>
        <time>2016-08-22T18:43:18.000Z</time>
      </trkpt>
      <trkpt lat="48.83829" lon="2.31745">
        <ele>71.599998474121</ele>
        <time>2016-08-22T18:43:20.000Z</time>
      </trkpt>
      <trkpt lat="48.8384" lon="2.31729">
        <ele>70.800003051758</ele>
        <time>2016-08-22T18:43:24.000Z</time>
      </trkpt>
      <trkpt lat="48.83858" lon="2.31714">
        <ele>71.199996948242</ele>
        <time>2016-08-22T18:43:29.000Z</time>
      </trkpt>
      <trkpt lat="48.83866" lon="2.31703">
        <ele>71.199996948242</ele>
        <time>2016-08-22T18:43:32.000Z</time>
      </trkpt>
      <trkpt lat="48.83878" lon="2.3168">
        <ele>71.199996948242</ele>
        <time>2016-08-22T18:43:37.000Z</time>
      </trkpt>
      <trkpt lat="48.83882" lon="2.31672">
        <ele>71.599998474121</ele>
        <time>2016-08-22T18:43:39.000Z</time>
      </trkpt>
      <trkpt lat="48.83892" lon="2.31664">
        <ele>72.599998474121</ele>
        <time>2016-08-22T18:43:44.000Z</time>
      </trkpt>
      <trkpt lat="48.83892" lon="2.31656">
        <ele>72.599998474121</ele>
        <time>2016-08-22T18:43:48.000Z</time>
      </trkpt>
      <trkpt lat="48.83893" lon="2.31654">
        <ele>72.599998474121</ele>
        <time>2016-08-22T18:43:50.000Z</time>
      </trkpt>
      <trkpt lat="48.83881" lon="2.3164">
        <ele>71.800003051758</ele>
        <time>2016-08-22T18:44:06.000Z</time>
      </trkpt>
      <trkpt lat="48.83871" lon="2.31614">
        <ele>71</ele>
        <time>2016-08-22T18:44:14.000Z</time>
      </trkpt>
      <trkpt lat="48.83873" lon="2.31582">
        <ele>71.599998474121</ele>
        <time>2016-08-22T18:44:19.000Z</time>
      </trkpt>
      <trkpt lat="48.83874" lon="2.31562">
        <ele>70.800003051758</ele>
        <time>2016-08-22T18:44:22.000Z</time>
      </trkpt>
      <trkpt lat="48.83875" lon="2.3155">
        <ele>70.400001525879</ele>
        <time>2016-08-22T18:44:24.000Z</time>
      </trkpt>
      <trkpt lat="48.83878" lon="2.31508">
        <ele>68</ele>
        <time>2016-08-22T18:44:28.000Z</time>
      </trkpt>
      <trkpt lat="48.8387" lon="2.31481">
        <ele>66</ele>
        <time>2016-08-22T18:44:32.000Z</time>
      </trkpt>
      <trkpt lat="48.83872" lon="2.31448">
        <ele>64.800003051758</ele>
        <time>2016-08-22T18:44:36.000Z</time>
      </trkpt>
      <trkpt lat="48.8387" lon="2.31442">
        <ele>64.599998474121</ele>
        <time>2016-08-22T18:44:37.000Z</time>
      </trkpt>
      <trkpt lat="48.83865" lon="2.31411">
        <ele>63.200000762939</ele>
        <time>2016-08-22T18:44:41.000Z</time>
      </trkpt>
      <trkpt lat="48.83861" lon="2.31379">
        <ele>63.200000762939</ele>
        <time>2016-08-22T18:44:45.000Z</time>
      </trkpt>
      <trkpt lat="48.83861" lon="2.3135">
        <ele>63.200000762939</ele>
        <time>2016-08-22T18:44:48.000Z</time>
      </trkpt>
      <trkpt lat="48.83859" lon="2.3132">
        <ele>63.200000762939</ele>
        <time>2016-08-22T18:44:51.000Z</time>
      </trkpt>
      <trkpt lat="48.83859" lon="2.3129">
        <ele>63.599998474121</ele>
        <time>2016-08-22T18:44:54.000Z</time>
      </trkpt>
      <trkpt lat="48.83858" lon="2.3126">
        <ele>63.799999237061</ele>
        <time>2016-08-22T18:44:57.000Z</time>
      </trkpt>
      <trkpt lat="48.83857" lon="2.3123">
        <ele>64.199996948242</ele>
        <time>2016-08-22T18:45:00.000Z</time>
      </trkpt>
      <trkpt lat="48.83853" lon="2.312">
        <ele>64.400001525879</ele>
        <time>2016-08-22T18:45:03.000Z</time>
      </trkpt>
      <trkpt lat="48.83849" lon="2.31169">
        <ele>64.599998474121</ele>
        <time>2016-08-22T18:45:07.000Z</time>
      </trkpt>
      <trkpt lat="48.83851" lon="2.31158">
        <ele>64.599998474121</ele>
        <time>2016-08-22T18:45:09.000Z</time>
      </trkpt>
      <trkpt lat="48.83857" lon="2.31142">
        <ele>64.199996948242</ele>
        <time>2016-08-22T18:45:13.000Z</time>
      </trkpt>
      <trkpt lat="48.83869" lon="2.31119">
        <ele>62.799999237061</ele>
        <time>2016-08-22T18:45:17.000Z</time>
      </trkpt>
      <trkpt lat="48.83882" lon="2.31091">
        <ele>60.599998474121</ele>
        <time>2016-08-22T18:45:21.000Z</time>
      </trkpt>
      <trkpt lat="48.83894" lon="2.31059">
        <ele>58.799999237061</ele>
        <time>2016-08-22T18:45:25.000Z</time>
      </trkpt>
      <trkpt lat="48.83904" lon="2.31036">
        <ele>57.799999237061</ele>
        <time>2016-08-22T18:45:28.000Z</time>
      </trkpt>
      <trkpt lat="48.83917" lon="2.31007">
        <ele>56.200000762939</ele>
        <time>2016-08-22T18:45:32.000Z</time>
      </trkpt>
      <trkpt lat="48.83929" lon="2.30979">
        <ele>55.400001525879</ele>
        <time>2016-08-22T18:45:36.000Z</time>
      </trkpt>
      <trkpt lat="48.83943" lon="2.30953">
        <ele>57</ele>
        <time>2016-08-22T18:45:41.000Z</time>
      </trkpt>
      <trkpt lat="48.83947" lon="2.3095">
        <ele>57.200000762939</ele>
        <time>2016-08-22T18:45:42.000Z</time>
      </trkpt>
      <trkpt lat="48.83965" lon="2.30936">
        <ele>57.200000762939</ele>
        <time>2016-08-22T18:45:46.000Z</time>
      </trkpt>
      <trkpt lat="48.83981" lon="2.30916">
        <ele>55.400001525879</ele>
        <time>2016-08-22T18:45:50.000Z</time>
      </trkpt>
      <trkpt lat="48.84" lon="2.30899">
        <ele>53.400001525879</ele>
        <time>2016-08-22T18:45:54.000Z</time>
      </trkpt>
      <trkpt lat="48.8402" lon="2.30881">
        <ele>52</ele>
        <time>2016-08-22T18:45:58.000Z</time>
      </trkpt>
      <trkpt lat="48.84041" lon="2.30865">
        <ele>51.200000762939</ele>
        <time>2016-08-22T18:46:02.000Z</time>
      </trkpt>
      <trkpt lat="48.8406" lon="2.30859">
        <ele>50.599998474121</ele>
        <time>2016-08-22T18:46:05.000Z</time>
      </trkpt>
      <trkpt lat="48.84066" lon="2.30856">
        <ele>50.599998474121</ele>
        <time>2016-08-22T18:46:06.000Z</time>
      </trkpt>
      <trkpt lat="48.84084" lon="2.30838">
        <ele>50.400001525879</ele>
        <time>2016-08-22T18:46:10.000Z</time>
      </trkpt>
      <trkpt lat="48.84103" lon="2.30819">
        <ele>50.200000762939</ele>
        <time>2016-08-22T18:46:14.000Z</time>
      </trkpt>
      <trkpt lat="48.84118" lon="2.308">
        <ele>50</ele>
        <time>2016-08-22T18:46:18.000Z</time>
      </trkpt>
      <trkpt lat="48.8413" lon="2.30789">
        <ele>50</ele>
        <time>2016-08-22T18:46:23.000Z</time>
      </trkpt>
      <trkpt lat="48.84132" lon="2.30785">
        <ele>50</ele>
        <time>2016-08-22T18:46:27.000Z</time>
      </trkpt>
      <trkpt lat="48.84151" lon="2.3078">
        <ele>49.599998474121</ele>
        <time>2016-08-22T18:46:40.000Z</time>
      </trkpt>
      <trkpt lat="48.84171" lon="2.30768">
        <ele>49.799999237061</ele>
        <time>2016-08-22T18:46:46.000Z</time>
      </trkpt>
      <trkpt lat="48.84191" lon="2.30757">
        <ele>49.799999237061</ele>
        <time>2016-08-22T18:46:50.000Z</time>
      </trkpt>
      <trkpt lat="48.84208" lon="2.30747">
        <ele>49.400001525879</ele>
        <time>2016-08-22T18:46:54.000Z</time>
      </trkpt>
      <trkpt lat="48.84226" lon="2.30737">
        <ele>48.200000762939</ele>
        <time>2016-08-22T18:46:58.000Z</time>
      </trkpt>
      <trkpt lat="48.84245" lon="2.30723">
        <ele>46.799999237061</ele>
        <time>2016-08-22T18:47:02.000Z</time>
      </trkpt>
      <trkpt lat="48.84264" lon="2.30714">
        <ele>46.599998474121</ele>
        <time>2016-08-22T18:47:06.000Z</time>
      </trkpt>
      <trkpt lat="48.84281" lon="2.307">
        <ele>46.400001525879</ele>
        <time>2016-08-22T18:47:10.000Z</time>
      </trkpt>
      <trkpt lat="48.84299" lon="2.30685">
        <ele>46.200000762939</ele>
        <time>2016-08-22T18:47:15.000Z</time>
      </trkpt>
      <trkpt lat="48.84303" lon="2.30683">
        <ele>46.200000762939</ele>
        <time>2016-08-22T18:47:16.000Z</time>
      </trkpt>
      <trkpt lat="48.84323" lon="2.30669">
        <ele>45.599998474121</ele>
        <time>2016-08-22T18:47:22.000Z</time>
      </trkpt>
      <trkpt lat="48.84343" lon="2.30656">
        <ele>45.200000762939</ele>
        <time>2016-08-22T18:47:27.000Z</time>
      </trkpt>
      <trkpt lat="48.84358" lon="2.30651">
        <ele>44.799999237061</ele>
        <time>2016-08-22T18:47:32.000Z</time>
      </trkpt>
      <trkpt lat="48.84362" lon="2.3065">
        <ele>44.799999237061</ele>
        <time>2016-08-22T18:47:35.000Z</time>
      </trkpt>
      <trkpt lat="48.84366" lon="2.30647">
        <ele>44.799999237061</ele>
        <time>2016-08-22T18:47:40.000Z</time>
      </trkpt>
      <trkpt lat="48.84378" lon="2.30652">
        <ele>44.799999237061</ele>
        <time>2016-08-22T18:47:56.000Z</time>
      </trkpt>
      <trkpt lat="48.84392" lon="2.30652">
        <ele>44.799999237061</ele>
        <time>2016-08-22T18:48:01.000Z</time>
      </trkpt>
      <trkpt lat="48.84413" lon="2.30639">
        <ele>44.799999237061</ele>
        <time>2016-08-22T18:48:06.000Z</time>
      </trkpt>
      <trkpt lat="48.84436" lon="2.30623">
        <ele>45</ele>
        <time>2016-08-22T18:48:11.000Z</time>
      </trkpt>
      <trkpt lat="48.84453" lon="2.30606">
        <ele>43.599998474121</ele>
        <time>2016-08-22T18:48:14.000Z</time>
      </trkpt>
      <trkpt lat="48.84471" lon="2.30589">
        <ele>43.599998474121</ele>
        <time>2016-08-22T18:48:18.000Z</time>
      </trkpt>
      <trkpt lat="48.84487" lon="2.30577">
        <ele>44</ele>
        <time>2016-08-22T18:48:22.000Z</time>
      </trkpt>
      <trkpt lat="48.84504" lon="2.30566">
        <ele>43.799999237061</ele>
        <time>2016-08-22T18:48:26.000Z</time>
      </trkpt>
      <trkpt lat="48.84522" lon="2.30551">
        <ele>42</ele>
        <time>2016-08-22T18:48:30.000Z</time>
      </trkpt>
      <trkpt lat="48.8454" lon="2.30535">
        <ele>40.799999237061</ele>
        <time>2016-08-22T18:48:34.000Z</time>
      </trkpt>
      <trkpt lat="48.84558" lon="2.3052">
        <ele>40.599998474121</ele>
        <time>2016-08-22T18:48:38.000Z</time>
      </trkpt>
      <trkpt lat="48.84578" lon="2.30505">
        <ele>42.200000762939</ele>
        <time>2016-08-22T18:48:42.000Z</time>
      </trkpt>
      <trkpt lat="48.84594" lon="2.30493">
        <ele>43.599998474121</ele>
        <time>2016-08-22T18:48:46.000Z</time>
      </trkpt>
      <trkpt lat="48.84602" lon="2.30492">
        <ele>44</ele>
        <time>2016-08-22T18:48:49.000Z</time>
      </trkpt>
      <trkpt lat="48.84605" lon="2.30493">
        <ele>44</ele>
        <time>2016-08-22T18:48:51.000Z</time>
      </trkpt>
      <trkpt lat="48.84612" lon="2.30482">
        <ele>44.400001525879</ele>
        <time>2016-08-22T18:49:09.000Z</time>
      </trkpt>
      <trkpt lat="48.84631" lon="2.30473">
        <ele>44.599998474121</ele>
        <time>2016-08-22T18:49:18.000Z</time>
      </trkpt>
      <trkpt lat="48.8465" lon="2.30467">
        <ele>44.799999237061</ele>
        <time>2016-08-22T18:49:24.000Z</time>
      </trkpt>
      <trkpt lat="48.84666" lon="2.3045">
        <ele>44</ele>
        <time>2016-08-22T18:49:30.000Z</time>
      </trkpt>
      <trkpt lat="48.84684" lon="2.30436">
        <ele>42.799999237061</ele>
        <time>2016-08-22T18:49:36.000Z</time>
      </trkpt>
      <trkpt lat="48.84686" lon="2.30432">
        <ele>42.599998474121</ele>
        <time>2016-08-22T18:49:37.000Z</time>
      </trkpt>
      <trkpt lat="48.84702" lon="2.30434">
        <ele>42.799999237061</ele>
        <time>2016-08-22T18:49:58.000Z</time>
      </trkpt>
      <trkpt lat="48.84715" lon="2.30433">
        <ele>43.200000762939</ele>
        <time>2016-08-22T18:50:18.000Z</time>
      </trkpt>
      <trkpt lat="48.84723" lon="2.30409">
        <ele>43.200000762939</ele>
        <time>2016-08-22T18:50:26.000Z</time>
      </trkpt>
      <trkpt lat="48.84732" lon="2.30381">
        <ele>43.599998474121</ele>
        <time>2016-08-22T18:50:30.000Z</time>
      </trkpt>
      <trkpt lat="48.84742" lon="2.30352">
        <ele>42.799999237061</ele>
        <time>2016-08-22T18:50:34.000Z</time>
      </trkpt>
      <trkpt lat="48.84753" lon="2.30324">
        <ele>42</ele>
        <time>2016-08-22T18:50:38.000Z</time>
      </trkpt>
      <trkpt lat="48.84754" lon="2.30317">
        <ele>41.799999237061</ele>
        <time>2016-08-22T18:50:39.000Z</time>
      </trkpt>
      <trkpt lat="48.84764" lon="2.30291">
        <ele>41.599998474121</ele>
        <time>2016-08-22T18:50:43.000Z</time>
      </trkpt>
      <trkpt lat="48.84773" lon="2.30265">
        <ele>41.200000762939</ele>
        <time>2016-08-22T18:50:47.000Z</time>
      </trkpt>
      <trkpt lat="48.84781" lon="2.3024">
        <ele>41</ele>
        <time>2016-08-22T18:50:51.000Z</time>
      </trkpt>
      <trkpt lat="48.84789" lon="2.3021">
        <ele>40.799999237061</ele>
        <time>2016-08-22T18:50:55.000Z</time>
      </trkpt>
      <trkpt lat="48.84796" lon="2.30187">
        <ele>40.599998474121</ele>
        <time>2016-08-22T18:50:58.000Z</time>
      </trkpt>
      <trkpt lat="48.84805" lon="2.3016">
        <ele>40.799999237061</ele>
        <time>2016-08-22T18:51:02.000Z</time>
      </trkpt>
      <trkpt lat="48.84813" lon="2.30134">
        <ele>41.599998474121</ele>
        <time>2016-08-22T18:51:06.000Z</time>
      </trkpt>
      <trkpt lat="48.84817" lon="2.30122">
        <ele>42</ele>
        <time>2016-08-22T18:51:08.000Z</time>
      </trkpt>
      <trkpt lat="48.84824" lon="2.30092">
        <ele>43</ele>
        <time>2016-08-22T18:51:13.000Z</time>
      </trkpt>
      <trkpt lat="48.8483" lon="2.30075">
        <ele>43.400001525879</ele>
        <time>2016-08-22T18:51:16.000Z</time>
      </trkpt>
      <trkpt lat="48.84836" lon="2.30054">
        <ele>43.200000762939</ele>
        <time>2016-08-22T18:51:20.000Z</time>
      </trkpt>
      <trkpt lat="48.84845" lon="2.30025">
        <ele>42.599998474121</ele>
        <time>2016-08-22T18:51:25.000Z</time>
      </trkpt>
      <trkpt lat="48.84847" lon="2.30019">
        <ele>42.400001525879</ele>
        <time>2016-08-22T18:51:26.000Z</time>
      </trkpt>
      <trkpt lat="48.84851" lon="2.30007">
        <ele>42.200000762939</ele>
        <time>2016-08-22T18:51:28.000Z</time>
      </trkpt>
      <trkpt lat="48.8486" lon="2.29982">
        <ele>42.400001525879</ele>
        <time>2016-08-22T18:51:32.000Z</time>
      </trkpt>
      <trkpt lat="48.8487" lon="2.29952">
        <ele>43</ele>
        <time>2016-08-22T18:51:36.000Z</time>
      </trkpt>
      <trkpt lat="48.84879" lon="2.29925">
        <ele>43.400001525879</ele>
        <time>2016-08-22T18:51:40.000Z</time>
      </trkpt>
      <trkpt lat="48.84888" lon="2.29894">
        <ele>43.599998474121</ele>
        <time>2016-08-22T18:51:45.000Z</time>
      </trkpt>
      <trkpt lat="48.84889" lon="2.29886">
        <ele>43.799999237061</ele>
        <time>2016-08-22T18:51:46.000Z</time>
      </trkpt>
      <trkpt lat="48.84898" lon="2.29863">
        <ele>43.799999237061</ele>
        <time>2016-08-22T18:51:50.000Z</time>
      </trkpt>
      <trkpt lat="48.84902" lon="2.2985">
        <ele>43.599998474121</ele>
        <time>2016-08-22T18:51:52.000Z</time>
      </trkpt>
      <trkpt lat="48.84912" lon="2.29823">
        <ele>43.200000762939</ele>
        <time>2016-08-22T18:51:57.000Z</time>
      </trkpt>
      <trkpt lat="48.84915" lon="2.29811">
        <ele>43</ele>
        <time>2016-08-22T18:52:00.000Z</time>
      </trkpt>
      <trkpt lat="48.84912" lon="2.298">
        <ele>43</ele>
        <time>2016-08-22T18:52:04.000Z</time>
      </trkpt>
      <trkpt lat="48.84916" lon="2.29775">
        <ele>43.799999237061</ele>
        <time>2016-08-22T18:52:17.000Z</time>
      </trkpt>
      <trkpt lat="48.84923" lon="2.29747">
        <ele>44.599998474121</ele>
        <time>2016-08-22T18:52:21.000Z</time>
      </trkpt>
      <trkpt lat="48.84931" lon="2.29719">
        <ele>44.799999237061</ele>
        <time>2016-08-22T18:52:25.000Z</time>
      </trkpt>
      <trkpt lat="48.84939" lon="2.29693">
        <ele>45</ele>
        <time>2016-08-22T18:52:28.000Z</time>
      </trkpt>
      <trkpt lat="48.8495" lon="2.29666">
        <ele>44.599998474121</ele>
        <time>2016-08-22T18:52:31.000Z</time>
      </trkpt>
      <trkpt lat="48.8496" lon="2.29636">
        <ele>43.200000762939</ele>
        <time>2016-08-22T18:52:34.000Z</time>
      </trkpt>
      <trkpt lat="48.84971" lon="2.29605">
        <ele>42</ele>
        <time>2016-08-22T18:52:37.000Z</time>
      </trkpt>
      <trkpt lat="48.84982" lon="2.29573">
        <ele>41.400001525879</ele>
        <time>2016-08-22T18:52:40.000Z</time>
      </trkpt>
      <trkpt lat="48.84993" lon="2.29544">
        <ele>41</ele>
        <time>2016-08-22T18:52:43.000Z</time>
      </trkpt>
      <trkpt lat="48.85001" lon="2.29518">
        <ele>41</ele>
        <time>2016-08-22T18:52:46.000Z</time>
      </trkpt>
      <trkpt lat="48.85005" lon="2.29501">
        <ele>41</ele>
        <time>2016-08-22T18:52:48.000Z</time>
      </trkpt>
      <trkpt lat="48.85016" lon="2.29474">
        <ele>41</ele>
        <time>2016-08-22T18:52:52.000Z</time>
      </trkpt>
      <trkpt lat="48.85023" lon="2.29453">
        <ele>41</ele>
        <time>2016-08-22T18:52:55.000Z</time>
      </trkpt>
      <trkpt lat="48.85031" lon="2.29426">
        <ele>41</ele>
        <time>2016-08-22T18:52:59.000Z</time>
      </trkpt>
      <trkpt lat="48.85038" lon="2.29402">
        <ele>41.200000762939</ele>
        <time>2016-08-22T18:53:02.000Z</time>
      </trkpt>
      <trkpt lat="48.85047" lon="2.29375">
        <ele>41.200000762939</ele>
        <time>2016-08-22T18:53:06.000Z</time>
      </trkpt>
      <trkpt lat="48.85055" lon="2.29349">
        <ele>41</ele>
        <time>2016-08-22T18:53:10.000Z</time>
      </trkpt>
      <trkpt lat="48.85063" lon="2.29323">
        <ele>40.799999237061</ele>
        <time>2016-08-22T18:53:14.000Z</time>
      </trkpt>
      <trkpt lat="48.85072" lon="2.29297">
        <ele>40.799999237061</ele>
        <time>2016-08-22T18:53:18.000Z</time>
      </trkpt>
      <trkpt lat="48.8508" lon="2.2928">
        <ele>40.200000762939</ele>
        <time>2016-08-22T18:53:21.000Z</time>
      </trkpt>
      <trkpt lat="48.85093" lon="2.29255">
        <ele>39.400001525879</ele>
        <time>2016-08-22T18:53:26.000Z</time>
      </trkpt>
      <trkpt lat="48.85102" lon="2.29242">
        <ele>39</ele>
        <time>2016-08-22T18:53:29.000Z</time>
      </trkpt>
      <trkpt lat="48.85112" lon="2.29231">
        <ele>39.400001525879</ele>
        <time>2016-08-22T18:53:33.000Z</time>
      </trkpt>
      <trkpt lat="48.85128" lon="2.29216">
        <ele>40</ele>
        <time>2016-08-22T18:53:37.000Z</time>
      </trkpt>
      <trkpt lat="48.85132" lon="2.29211">
        <ele>40.200000762939</ele>
        <time>2016-08-22T18:53:38.000Z</time>
      </trkpt>
      <trkpt lat="48.8514" lon="2.29201">
        <ele>40.599998474121</ele>
        <time>2016-08-22T18:53:40.000Z</time>
      </trkpt>
      <trkpt lat="48.8516" lon="2.29183">
        <ele>40.799999237061</ele>
        <time>2016-08-22T18:53:44.000Z</time>
      </trkpt>
      <trkpt lat="48.85179" lon="2.29164">
        <ele>40.799999237061</ele>
        <time>2016-08-22T18:53:48.000Z</time>
      </trkpt>
      <trkpt lat="48.85187" lon="2.29153">
        <ele>40.599998474121</ele>
        <time>2016-08-22T18:53:50.000Z</time>
      </trkpt>
      <trkpt lat="48.85206" lon="2.29132">
        <ele>40.799999237061</ele>
        <time>2016-08-22T18:53:54.000Z</time>
      </trkpt>
      <trkpt lat="48.85221" lon="2.29117">
        <ele>40.799999237061</ele>
        <time>2016-08-22T18:53:57.000Z</time>
      </trkpt>
      <trkpt lat="48.8524" lon="2.29097">
        <ele>41</ele>
        <time>2016-08-22T18:54:01.000Z</time>
      </trkpt>
      <trkpt lat="48.85249" lon="2.29087">
        <ele>41.200000762939</ele>
        <time>2016-08-22T18:54:03.000Z</time>
      </trkpt>
      <trkpt lat="48.85263" lon="2.2907">
        <ele>41.400001525879</ele>
        <time>2016-08-22T18:54:07.000Z</time>
      </trkpt>
      <trkpt lat="48.85276" lon="2.29057">
        <ele>41.200000762939</ele>
        <time>2016-08-22T18:54:13.000Z</time>
      </trkpt>
      <trkpt lat="48.85279" lon="2.29054">
        <ele>41.200000762939</ele>
        <time>2016-08-22T18:54:15.000Z</time>
      </trkpt>
      <trkpt lat="48.85293" lon="2.29037">
        <ele>41</ele>
        <time>2016-08-22T18:54:21.000Z</time>
      </trkpt>
      <trkpt lat="48.85307" lon="2.2902">
        <ele>40.599998474121</ele>
        <time>2016-08-22T18:54:25.000Z</time>
      </trkpt>
      <trkpt lat="48.85325" lon="2.29001">
        <ele>40.400001525879</ele>
        <time>2016-08-22T18:54:29.000Z</time>
      </trkpt>
      <trkpt lat="48.8534" lon="2.28985">
        <ele>40.799999237061</ele>
        <time>2016-08-22T18:54:32.000Z</time>
      </trkpt>
      <trkpt lat="48.85356" lon="2.28968">
        <ele>41.599998474121</ele>
        <time>2016-08-22T18:54:35.000Z</time>
      </trkpt>
      <trkpt lat="48.85371" lon="2.28952">
        <ele>42.200000762939</ele>
        <time>2016-08-22T18:54:38.000Z</time>
      </trkpt>
      <trkpt lat="48.85388" lon="2.28935">
        <ele>42.799999237061</ele>
        <time>2016-08-22T18:54:41.000Z</time>
      </trkpt>
      <trkpt lat="48.85403" lon="2.28919">
        <ele>43.400001525879</ele>
        <time>2016-08-22T18:54:44.000Z</time>
      </trkpt>
      <trkpt lat="48.8542" lon="2.28902">
        <ele>43.599998474121</ele>
        <time>2016-08-22T18:54:47.000Z</time>
      </trkpt>
      <trkpt lat="48.85439" lon="2.28888">
        <ele>43</ele>
        <time>2016-08-22T18:54:51.000Z</time>
      </trkpt>
      <trkpt lat="48.85445" lon="2.28884">
        <ele>42.599998474121</ele>
        <time>2016-08-22T18:54:55.000Z</time>
      </trkpt>
      <trkpt lat="48.85446" lon="2.28884">
        <ele>42.599998474121</ele>
        <time>2016-08-22T18:54:57.000Z</time>
      </trkpt>
      <trkpt lat="48.85456" lon="2.28887">
        <ele>42</ele>
        <time>2016-08-22T18:55:46.000Z</time>
      </trkpt>
      <trkpt lat="48.85472" lon="2.28866">
        <ele>40.400001525879</ele>
        <time>2016-08-22T18:55:52.000Z</time>
      </trkpt>
      <trkpt lat="48.85487" lon="2.2885">
        <ele>38.799999237061</ele>
        <time>2016-08-22T18:55:56.000Z</time>
      </trkpt>
      <trkpt lat="48.85505" lon="2.28833">
        <ele>37.200000762939</ele>
        <time>2016-08-22T18:56:00.000Z</time>
      </trkpt>
      <trkpt lat="48.85526" lon="2.28815">
        <ele>35.400001525879</ele>
        <time>2016-08-22T18:56:04.000Z</time>
      </trkpt>
      <trkpt lat="48.85546" lon="2.28797">
        <ele>34</ele>
        <time>2016-08-22T18:56:08.000Z</time>
      </trkpt>
      <trkpt lat="48.85563" lon="2.28783">
        <ele>33</ele>
        <time>2016-08-22T18:56:11.000Z</time>
      </trkpt>
      <trkpt lat="48.8558" lon="2.28768">
        <ele>33</ele>
        <time>2016-08-22T18:56:14.000Z</time>
      </trkpt>
      <trkpt lat="48.85595" lon="2.28754">
        <ele>33</ele>
        <time>2016-08-22T18:56:17.000Z</time>
      </trkpt>
      <trkpt lat="48.85611" lon="2.28738">
        <ele>32.799999237061</ele>
        <time>2016-08-22T18:56:20.000Z</time>
      </trkpt>
      <trkpt lat="48.85626" lon="2.28721">
        <ele>32.200000762939</ele>
        <time>2016-08-22T18:56:23.000Z</time>
      </trkpt>
      <trkpt lat="48.85645" lon="2.28699">
        <ele>32</ele>
        <time>2016-08-22T18:56:27.000Z</time>
      </trkpt>
      <trkpt lat="48.85661" lon="2.28682">
        <ele>36.200000762939</ele>
        <time>2016-08-22T18:56:31.000Z</time>
      </trkpt>
      <trkpt lat="48.8567" lon="2.2867">
        <ele>38.599998474121</ele>
        <time>2016-08-22T18:56:35.000Z</time>
      </trkpt>
      <trkpt lat="48.8567" lon="2.28662">
        <ele>39.799999237061</ele>
        <time>2016-08-22T18:56:39.000Z</time>
      </trkpt>
      <trkpt lat="48.85685" lon="2.28652">
        <ele>42.400001525879</ele>
        <time>2016-08-22T18:57:07.000Z</time>
      </trkpt>
      <trkpt lat="48.85702" lon="2.28637">
        <ele>45.799999237061</ele>
        <time>2016-08-22T18:57:24.000Z</time>
      </trkpt>
      <trkpt lat="48.85709" lon="2.28612">
        <ele>48.599998474121</ele>
        <time>2016-08-22T18:57:31.000Z</time>
      </trkpt>
      <trkpt lat="48.85714" lon="2.28604">
        <ele>50</ele>
        <time>2016-08-22T18:57:35.000Z</time>
      </trkpt>
      <trkpt lat="48.85721" lon="2.28602">
        <ele>50.400001525879</ele>
        <time>2016-08-22T18:57:39.000Z</time>
      </trkpt>
      <trkpt lat="48.85729" lon="2.28605">
        <ele>51</ele>
        <time>2016-08-22T18:57:43.000Z</time>
      </trkpt>
      <trkpt lat="48.8573" lon="2.28602">
        <ele>51</ele>
        <time>2016-08-22T18:57:47.000Z</time>
      </trkpt>
      <trkpt lat="48.85745" lon="2.2862">
        <ele>52.200000762939</ele>
        <time>2016-08-22T18:58:15.000Z</time>
      </trkpt>
      <trkpt lat="48.85761" lon="2.28638">
        <ele>53.599998474121</ele>
        <time>2016-08-22T18:58:24.000Z</time>
      </trkpt>
      <trkpt lat="48.85778" lon="2.28647">
        <ele>55</ele>
        <time>2016-08-22T18:58:31.000Z</time>
      </trkpt>
      <trkpt lat="48.85796" lon="2.28655">
        <ele>56.200000762939</ele>
        <time>2016-08-22T18:58:41.000Z</time>
      </trkpt>
      <trkpt lat="48.85808" lon="2.28652">
        <ele>56.799999237061</ele>
        <time>2016-08-22T18:58:45.000Z</time>
      </trkpt>
      <trkpt lat="48.85816" lon="2.28636">
        <ele>57</ele>
        <time>2016-08-22T18:58:49.000Z</time>
      </trkpt>
      <trkpt lat="48.85821" lon="2.28638">
        <ele>57.400001525879</ele>
        <time>2016-08-22T18:58:52.000Z</time>
      </trkpt>
      <trkpt lat="48.85817" lon="2.28628">
        <ele>56.799999237061</ele>
        <time>2016-08-22T18:59:00.000Z</time>
      </trkpt>
      <trkpt lat="48.85802" lon="2.28609">
        <ele>55.599998474121</ele>
        <time>2016-08-22T18:59:06.000Z</time>
      </trkpt>
      <trkpt lat="48.85788" lon="2.28589">
        <ele>54.599998474121</ele>
        <time>2016-08-22T18:59:12.000Z</time>
      </trkpt>
      <trkpt lat="48.85781" lon="2.2857">
        <ele>54.400001525879</ele>
        <time>2016-08-22T18:59:18.000Z</time>
      </trkpt>
      <trkpt lat="48.85782" lon="2.28563">
        <ele>54.599998474121</ele>
        <time>2016-08-22T18:59:21.000Z</time>
      </trkpt>
      <trkpt lat="48.85782" lon="2.28561">
        <ele>54.599998474121</ele>
        <time>2016-08-22T19:00:51.000Z</time>
      </trkpt>
      <trkpt lat="48.85788" lon="2.28554">
        <ele>55.400001525879</ele>
        <time>2016-08-22T19:02:00.000Z</time>
      </trkpt>
      <trkpt lat="48.85807" lon="2.2854">
        <ele>58.400001525879</ele>
        <time>2016-08-22T19:02:07.000Z</time>
      </trkpt>
      <trkpt lat="48.8581" lon="2.28536">
        <ele>59</ele>
        <time>2016-08-22T19:02:08.000Z</time>
      </trkpt>
      <trkpt lat="48.85827" lon="2.28515">
        <ele>60.599998474121</ele>
        <time>2016-08-22T19:02:13.000Z</time>
      </trkpt>
      <trkpt lat="48.85843" lon="2.28501">
        <ele>62.400001525879</ele>
        <time>2016-08-22T19:02:18.000Z</time>
      </trkpt>
      <trkpt lat="48.85848" lon="2.28484">
        <ele>64</ele>
        <time>2016-08-22T19:02:24.000Z</time>
      </trkpt>
      <trkpt lat="48.85843" lon="2.28456">
        <ele>64.800003051758</ele>
        <time>2016-08-22T19:02:50.000Z</time>
      </trkpt>
      <trkpt lat="48.85843" lon="2.28453">
        <ele>65</ele>
        <time>2016-08-22T19:02:52.000Z</time>
      </trkpt>
      <trkpt lat="48.85829" lon="2.28444">
        <ele>64.599998474121</ele>
        <time>2016-08-22T19:03:25.000Z</time>
      </trkpt>
      <trkpt lat="48.85811" lon="2.28431">
        <ele>64.199996948242</ele>
        <time>2016-08-22T19:03:30.000Z</time>
      </trkpt>
      <trkpt lat="48.8579" lon="2.28416">
        <ele>63.799999237061</ele>
        <time>2016-08-22T19:03:35.000Z</time>
      </trkpt>
      <trkpt lat="48.85775" lon="2.28401">
        <ele>64.599998474121</ele>
        <time>2016-08-22T19:03:39.000Z</time>
      </trkpt>
      <trkpt lat="48.85761" lon="2.28384">
        <ele>64.599998474121</ele>
        <time>2016-08-22T19:03:43.000Z</time>
      </trkpt>
      <trkpt lat="48.85743" lon="2.28363">
        <ele>64</ele>
        <time>2016-08-22T19:03:47.000Z</time>
      </trkpt>
      <trkpt lat="48.85726" lon="2.28345">
        <ele>63</ele>
        <time>2016-08-22T19:03:51.000Z</time>
      </trkpt>
      <trkpt lat="48.85711" lon="2.28325">
        <ele>62.799999237061</ele>
        <time>2016-08-22T19:03:55.000Z</time>
      </trkpt>
      <trkpt lat="48.85695" lon="2.28305">
        <ele>61.799999237061</ele>
        <time>2016-08-22T19:03:59.000Z</time>
      </trkpt>
      <trkpt lat="48.85688" lon="2.28295">
        <ele>61.599998474121</ele>
        <time>2016-08-22T19:04:01.000Z</time>
      </trkpt>
      <trkpt lat="48.85674" lon="2.28275">
        <ele>60</ele>
        <time>2016-08-22T19:04:05.000Z</time>
      </trkpt>
      <trkpt lat="48.8566" lon="2.28256">
        <ele>58.599998474121</ele>
        <time>2016-08-22T19:04:09.000Z</time>
      </trkpt>
      <trkpt lat="48.85647" lon="2.28243">
        <ele>57</ele>
        <time>2016-08-22T19:04:12.000Z</time>
      </trkpt>
      <trkpt lat="48.85644" lon="2.28237">
        <ele>57</ele>
        <time>2016-08-22T19:04:13.000Z</time>
      </trkpt>
      <trkpt lat="48.85628" lon="2.28218">
        <ele>56.400001525879</ele>
        <time>2016-08-22T19:04:17.000Z</time>
      </trkpt>
      <trkpt lat="48.85615" lon="2.28206">
        <ele>55</ele>
        <time>2016-08-22T19:04:20.000Z</time>
      </trkpt>
      <trkpt lat="48.85611" lon="2.28202">
        <ele>54.799999237061</ele>
        <time>2016-08-22T19:04:21.000Z</time>
      </trkpt>
      <trkpt lat="48.85595" lon="2.28179">
        <ele>55.400001525879</ele>
        <time>2016-08-22T19:04:26.000Z</time>
      </trkpt>
      <trkpt lat="48.8558" lon="2.28164">
        <ele>54.799999237061</ele>
        <time>2016-08-22T19:04:30.000Z</time>
      </trkpt>
      <trkpt lat="48.85566" lon="2.28147">
        <ele>54.400001525879</ele>
        <time>2016-08-22T19:04:34.000Z</time>
      </trkpt>
      <trkpt lat="48.85554" lon="2.28124">
        <ele>55.200000762939</ele>
        <time>2016-08-22T19:04:39.000Z</time>
      </trkpt>
      <trkpt lat="48.85553" lon="2.28118">
        <ele>55.799999237061</ele>
        <time>2016-08-22T19:04:40.000Z</time>
      </trkpt>
      <trkpt lat="48.85547" lon="2.28101">
        <ele>56.599998474121</ele>
        <time>2016-08-22T19:04:44.000Z</time>
      </trkpt>
      <trkpt lat="48.85531" lon="2.28081">
        <ele>55.799999237061</ele>
        <time>2016-08-22T19:04:50.000Z</time>
      </trkpt>
      <trkpt lat="48.85519" lon="2.28061">
        <ele>55.799999237061</ele>
        <time>2016-08-22T19:04:55.000Z</time>
      </trkpt>
      <trkpt lat="48.85507" lon="2.28039">
        <ele>55.799999237061</ele>
        <time>2016-08-22T19:05:00.000Z</time>
      </trkpt>
      <trkpt lat="48.85496" lon="2.28016">
        <ele>56</ele>
        <time>2016-08-22T19:05:05.000Z</time>
      </trkpt>
      <trkpt lat="48.85482" lon="2.27995">
        <ele>55.599998474121</ele>
        <time>2016-08-22T19:05:11.000Z</time>
      </trkpt>
      <trkpt lat="48.85481" lon="2.27989">
        <ele>55.599998474121</ele>
        <time>2016-08-22T19:05:12.000Z</time>
      </trkpt>
      <trkpt lat="48.85486" lon="2.27972">
        <ele>56</ele>
        <time>2016-08-22T19:05:16.000Z</time>
      </trkpt>
      <trkpt lat="48.85495" lon="2.27961">
        <ele>57.400001525879</ele>
        <time>2016-08-22T19:05:20.000Z</time>
      </trkpt>
      <trkpt lat="48.85492" lon="2.27954">
        <ele>57.200000762939</ele>
        <time>2016-08-22T19:05:29.000Z</time>
      </trkpt>
      <trkpt lat="48.85488" lon="2.2795">
        <ele>56.799999237061</ele>
        <time>2016-08-22T19:05:36.000Z</time>
      </trkpt>
      <trkpt lat="48.85486" lon="2.27947">
        <ele>56.599998474121</ele>
        <time>2016-08-22T19:05:40.000Z</time>
      </trkpt>
      <trkpt lat="48.85474" lon="2.27934">
        <ele>55.400001525879</ele>
        <time>2016-08-22T19:06:00.000Z</time>
      </trkpt>
      <trkpt lat="48.85463" lon="2.27913">
        <ele>54.799999237061</ele>
        <time>2016-08-22T19:06:06.000Z</time>
      </trkpt>
      <trkpt lat="48.85456" lon="2.27886">
        <ele>55</ele>
        <time>2016-08-22T19:06:13.000Z</time>
      </trkpt>
      <trkpt lat="48.85444" lon="2.27864">
        <ele>54.200000762939</ele>
        <time>2016-08-22T19:06:20.000Z</time>
      </trkpt>
      <trkpt lat="48.85432" lon="2.27842">
        <ele>53.400001525879</ele>
        <time>2016-08-22T19:06:29.000Z</time>
      </trkpt>
      <trkpt lat="48.85418" lon="2.2782">
        <ele>52.599998474121</ele>
        <time>2016-08-22T19:06:35.000Z</time>
      </trkpt>
      <trkpt lat="48.85405" lon="2.27801">
        <ele>51.200000762939</ele>
        <time>2016-08-22T19:06:41.000Z</time>
      </trkpt>
      <trkpt lat="48.85405" lon="2.27797">
        <ele>51.200000762939</ele>
        <time>2016-08-22T19:06:42.000Z</time>
      </trkpt>
      <trkpt lat="48.85416" lon="2.27778">
        <ele>53.200000762939</ele>
        <time>2016-08-22T19:06:47.000Z</time>
      </trkpt>
      <trkpt lat="48.85432" lon="2.27755">
        <ele>55.799999237061</ele>
        <time>2016-08-22T19:06:52.000Z</time>
      </trkpt>
      <trkpt lat="48.85446" lon="2.27731">
        <ele>56.599998474121</ele>
        <time>2016-08-22T19:06:57.000Z</time>
      </trkpt>
      <trkpt lat="48.85461" lon="2.27711">
        <ele>56.200000762939</ele>
        <time>2016-08-22T19:07:03.000Z</time>
      </trkpt>
      <trkpt lat="48.85469" lon="2.27683">
        <ele>55.799999237061</ele>
        <time>2016-08-22T19:07:07.000Z</time>
      </trkpt>
      <trkpt lat="48.8548" lon="2.27656">
        <ele>56</ele>
        <time>2016-08-22T19:07:13.000Z</time>
      </trkpt>
      <trkpt lat="48.8549" lon="2.27628">
        <ele>54.799999237061</ele>
        <time>2016-08-22T19:07:19.000Z</time>
      </trkpt>
      <trkpt lat="48.855" lon="2.27602">
        <ele>54.400001525879</ele>
        <time>2016-08-22T19:07:24.000Z</time>
      </trkpt>
      <trkpt lat="48.85512" lon="2.27577">
        <ele>54.400001525879</ele>
        <time>2016-08-22T19:07:30.000Z</time>
      </trkpt>
      <trkpt lat="48.85528" lon="2.27558">
        <ele>55.400001525879</ele>
        <time>2016-08-22T19:07:37.000Z</time>
      </trkpt>
      <trkpt lat="48.85533" lon="2.27547">
        <ele>55.799999237061</ele>
        <time>2016-08-22T19:07:42.000Z</time>
      </trkpt>
      <trkpt lat="48.85522" lon="2.27517">
        <ele>55</ele>
        <time>2016-08-22T19:07:59.000Z</time>
      </trkpt>
      <trkpt lat="48.85523" lon="2.27517">
        <ele>55</ele>
        <time>2016-08-22T19:08:00.000Z</time>
      </trkpt>
      <trkpt lat="48.85525" lon="2.27514">
        <ele>55.200000762939</ele>
        <time>2016-08-22T19:08:20.000Z</time>
      </trkpt>
      <trkpt lat="48.85541" lon="2.27506">
        <ele>56</ele>
        <time>2016-08-22T19:08:38.000Z</time>
      </trkpt>
      <trkpt lat="48.8556" lon="2.27501">
        <ele>57</ele>
        <time>2016-08-22T19:08:45.000Z</time>
      </trkpt>
      <trkpt lat="48.85574" lon="2.27482">
        <ele>57.200000762939</ele>
        <time>2016-08-22T19:08:50.000Z</time>
      </trkpt>
      <trkpt lat="48.85583" lon="2.27458">
        <ele>57</ele>
        <time>2016-08-22T19:08:55.000Z</time>
      </trkpt>
      <trkpt lat="48.85592" lon="2.27432">
        <ele>56.799999237061</ele>
        <time>2016-08-22T19:09:01.000Z</time>
      </trkpt>
      <trkpt lat="48.85603" lon="2.27406">
        <ele>56.799999237061</ele>
        <time>2016-08-22T19:09:07.000Z</time>
      </trkpt>
      <trkpt lat="48.85612" lon="2.2738">
        <ele>56.799999237061</ele>
        <time>2016-08-22T19:09:12.000Z</time>
      </trkpt>
      <trkpt lat="48.8562" lon="2.27353">
        <ele>56.799999237061</ele>
        <time>2016-08-22T19:09:18.000Z</time>
      </trkpt>
      <trkpt lat="48.8563" lon="2.27324">
        <ele>57.200000762939</ele>
        <time>2016-08-22T19:09:25.000Z</time>
      </trkpt>
      <trkpt lat="48.85647" lon="2.27306">
        <ele>59.200000762939</ele>
        <time>2016-08-22T19:09:31.000Z</time>
      </trkpt>
      <trkpt lat="48.8566" lon="2.27276">
        <ele>60.599998474121</ele>
        <time>2016-08-22T19:09:37.000Z</time>
      </trkpt>
      <trkpt lat="48.85662" lon="2.27248">
        <ele>60.599998474121</ele>
        <time>2016-08-22T19:09:41.000Z</time>
      </trkpt>
      <trkpt lat="48.85668" lon="2.27222">
        <ele>62</ele>
        <time>2016-08-22T19:09:49.000Z</time>
      </trkpt>
      <trkpt lat="48.85668" lon="2.2722">
        <ele>61.799999237061</ele>
        <time>2016-08-22T19:09:52.000Z</time>
      </trkpt>
      <trkpt lat="48.85686" lon="2.2722">
        <ele>61.400001525879</ele>
        <time>2016-08-22T19:10:13.000Z</time>
      </trkpt>
      <trkpt lat="48.85702" lon="2.27241">
        <ele>61.799999237061</ele>
        <time>2016-08-22T19:10:19.000Z</time>
      </trkpt>
      <trkpt lat="48.8572" lon="2.27263">
        <ele>63</ele>
        <time>2016-08-22T19:10:25.000Z</time>
      </trkpt>
      <trkpt lat="48.85736" lon="2.27283">
        <ele>64.199996948242</ele>
        <time>2016-08-22T19:10:30.000Z</time>
      </trkpt>
      <trkpt lat="48.85751" lon="2.27293">
        <ele>64.800003051758</ele>
        <time>2016-08-22T19:10:38.000Z</time>
      </trkpt>
      <trkpt lat="48.85769" lon="2.27279">
        <ele>64</ele>
        <time>2016-08-22T19:10:44.000Z</time>
      </trkpt>
      <trkpt lat="48.85786" lon="2.27261">
        <ele>62.799999237061</ele>
        <time>2016-08-22T19:10:50.000Z</time>
      </trkpt>
      <trkpt lat="48.8579" lon="2.27257">
        <ele>63</ele>
        <time>2016-08-22T19:10:52.000Z</time>
      </trkpt>
      <trkpt lat="48.85796" lon="2.27244">
        <ele>62.799999237061</ele>
        <time>2016-08-22T19:11:01.000Z</time>
      </trkpt>
      <trkpt lat="48.85788" lon="2.2722">
        <ele>60.599998474121</ele>
        <time>2016-08-22T19:11:05.000Z</time>
      </trkpt>
      <trkpt lat="48.8578" lon="2.27188">
        <ele>58</ele>
        <time>2016-08-22T19:11:09.000Z</time>
      </trkpt>
      <trkpt lat="48.85775" lon="2.27161">
        <ele>56.200000762939</ele>
        <time>2016-08-22T19:11:12.000Z</time>
      </trkpt>
      <trkpt lat="48.85769" lon="2.27131">
        <ele>57.200000762939</ele>
        <time>2016-08-22T19:11:15.000Z</time>
      </trkpt>
      <trkpt lat="48.85763" lon="2.27102">
        <ele>58.400001525879</ele>
        <time>2016-08-22T19:11:18.000Z</time>
      </trkpt>
      <trkpt lat="48.85758" lon="2.27071">
        <ele>59.400001525879</ele>
        <time>2016-08-22T19:11:21.000Z</time>
      </trkpt>
      <trkpt lat="48.85751" lon="2.27042">
        <ele>60</ele>
        <time>2016-08-22T19:11:24.000Z</time>
      </trkpt>
      <trkpt lat="48.85744" lon="2.27014">
        <ele>60.400001525879</ele>
        <time>2016-08-22T19:11:27.000Z</time>
      </trkpt>
      <trkpt lat="48.85738" lon="2.26984">
        <ele>60.400001525879</ele>
        <time>2016-08-22T19:11:30.000Z</time>
      </trkpt>
      <trkpt lat="48.85733" lon="2.26956">
        <ele>60.400001525879</ele>
        <time>2016-08-22T19:11:33.000Z</time>
      </trkpt>
      <trkpt lat="48.85724" lon="2.26927">
        <ele>60.599998474121</ele>
        <time>2016-08-22T19:11:36.000Z</time>
      </trkpt>
      <trkpt lat="48.85716" lon="2.26896">
        <ele>60.200000762939</ele>
        <time>2016-08-22T19:11:39.000Z</time>
      </trkpt>
      <trkpt lat="48.85708" lon="2.26862">
        <ele>59.200000762939</ele>
        <time>2016-08-22T19:11:42.000Z</time>
      </trkpt>
      <trkpt lat="48.85701" lon="2.26827">
        <ele>58.799999237061</ele>
        <time>2016-08-22T19:11:45.000Z</time>
      </trkpt>
      <trkpt lat="48.85696" lon="2.26792">
        <ele>61.599998474121</ele>
        <time>2016-08-22T19:11:48.000Z</time>
      </trkpt>
      <trkpt lat="48.8569" lon="2.26755">
        <ele>64.400001525879</ele>
        <time>2016-08-22T19:11:51.000Z</time>
      </trkpt>
      <trkpt lat="48.85682" lon="2.26721">
        <ele>63.799999237061</ele>
        <time>2016-08-22T19:11:54.000Z</time>
      </trkpt>
      <trkpt lat="48.85675" lon="2.2669">
        <ele>62.200000762939</ele>
        <time>2016-08-22T19:11:57.000Z</time>
      </trkpt>
      <trkpt lat="48.85667" lon="2.26664">
        <ele>61</ele>
        <time>2016-08-22T19:12:00.000Z</time>
      </trkpt>
      <trkpt lat="48.85657" lon="2.26635">
        <ele>61.799999237061</ele>
        <time>2016-08-22T19:12:04.000Z</time>
      </trkpt>
      <trkpt lat="48.8565" lon="2.26619">
        <ele>62</ele>
        <time>2016-08-22T19:12:08.000Z</time>
      </trkpt>
      <trkpt lat="48.85638" lon="2.26595">
        <ele>61.799999237061</ele>
        <time>2016-08-22T19:12:16.000Z</time>
      </trkpt>
      <trkpt lat="48.85637" lon="2.26594">
        <ele>61.799999237061</ele>
        <time>2016-08-22T19:12:17.000Z</time>
      </trkpt>
      <trkpt lat="48.85632" lon="2.26586">
        <ele>61.799999237061</ele>
        <time>2016-08-22T19:12:22.000Z</time>
      </trkpt>
      <trkpt lat="48.85631" lon="2.26585">
        <ele>61.799999237061</ele>
        <time>2016-08-22T19:12:23.000Z</time>
      </trkpt>
      <trkpt lat="48.85619" lon="2.26562">
        <ele>62.400001525879</ele>
        <time>2016-08-22T19:12:38.000Z</time>
      </trkpt>
      <trkpt lat="48.85603" lon="2.26543">
        <ele>63</ele>
        <time>2016-08-22T19:12:42.000Z</time>
      </trkpt>
      <trkpt lat="48.8559" lon="2.26523">
        <ele>62.599998474121</ele>
        <time>2016-08-22T19:12:45.000Z</time>
      </trkpt>
      <trkpt lat="48.85575" lon="2.26498">
        <ele>62</ele>
        <time>2016-08-22T19:12:48.000Z</time>
      </trkpt>
      <trkpt lat="48.85569" lon="2.2649">
        <ele>61.400001525879</ele>
        <time>2016-08-22T19:12:49.000Z</time>
      </trkpt>
      <trkpt lat="48.85551" lon="2.26469">
        <ele>59</ele>
        <time>2016-08-22T19:12:52.000Z</time>
      </trkpt>
      <trkpt lat="48.85544" lon="2.26464">
        <ele>58.200000762939</ele>
        <time>2016-08-22T19:12:53.000Z</time>
      </trkpt>
      <trkpt lat="48.85523" lon="2.26444">
        <ele>55.799999237061</ele>
        <time>2016-08-22T19:12:56.000Z</time>
      </trkpt>
      <trkpt lat="48.85504" lon="2.2642">
        <ele>56.799999237061</ele>
        <time>2016-08-22T19:12:59.000Z</time>
      </trkpt>
      <trkpt lat="48.85484" lon="2.26398">
        <ele>58</ele>
        <time>2016-08-22T19:13:02.000Z</time>
      </trkpt>
      <trkpt lat="48.85464" lon="2.26375">
        <ele>59</ele>
        <time>2016-08-22T19:13:05.000Z</time>
      </trkpt>
      <trkpt lat="48.8544" lon="2.26359">
        <ele>60.599998474121</ele>
        <time>2016-08-22T19:13:08.000Z</time>
      </trkpt>
      <trkpt lat="48.85417" lon="2.26343">
        <ele>61.400001525879</ele>
        <time>2016-08-22T19:13:11.000Z</time>
      </trkpt>
      <trkpt lat="48.85396" lon="2.26325">
        <ele>61.799999237061</ele>
        <time>2016-08-22T19:13:14.000Z</time>
      </trkpt>
      <trkpt lat="48.85389" lon="2.26322">
        <ele>62</ele>
        <time>2016-08-22T19:13:15.000Z</time>
      </trkpt>
      <trkpt lat="48.85366" lon="2.26305">
        <ele>62</ele>
        <time>2016-08-22T19:13:18.000Z</time>
      </trkpt>
      <trkpt lat="48.85344" lon="2.26293">
        <ele>62.799999237061</ele>
        <time>2016-08-22T19:13:21.000Z</time>
      </trkpt>
      <trkpt lat="48.85325" lon="2.26282">
        <ele>63.400001525879</ele>
        <time>2016-08-22T19:13:24.000Z</time>
      </trkpt>
      <trkpt lat="48.85303" lon="2.26271">
        <ele>64.400001525879</ele>
        <time>2016-08-22T19:13:28.000Z</time>
      </trkpt>
      <trkpt lat="48.85291" lon="2.26269">
        <ele>64.599998474121</ele>
        <time>2016-08-22T19:13:31.000Z</time>
      </trkpt>
      <trkpt lat="48.85274" lon="2.26265">
        <ele>64.599998474121</ele>
        <time>2016-08-22T19:13:36.000Z</time>
      </trkpt>
      <trkpt lat="48.85279" lon="2.26249">
        <ele>64.800003051758</ele>
        <time>2016-08-22T19:14:04.000Z</time>
      </trkpt>
      <trkpt lat="48.85275" lon="2.26246">
        <ele>64.800003051758</ele>
        <time>2016-08-22T19:14:26.000Z</time>
      </trkpt>
      <trkpt lat="48.85257" lon="2.26249">
        <ele>63.799999237061</ele>
        <time>2016-08-22T19:14:33.000Z</time>
      </trkpt>
      <trkpt lat="48.85237" lon="2.26243">
        <ele>62.599998474121</ele>
        <time>2016-08-22T19:14:38.000Z</time>
      </trkpt>
      <trkpt lat="48.85216" lon="2.2624">
        <ele>61.200000762939</ele>
        <time>2016-08-22T19:14:43.000Z</time>
      </trkpt>
      <trkpt lat="48.85196" lon="2.26238">
        <ele>59.799999237061</ele>
        <time>2016-08-22T19:14:47.000Z</time>
      </trkpt>
      <trkpt lat="48.85176" lon="2.26236">
        <ele>59.599998474121</ele>
        <time>2016-08-22T19:14:51.000Z</time>
      </trkpt>
      <trkpt lat="48.85156" lon="2.26232">
        <ele>60</ele>
        <time>2016-08-22T19:14:55.000Z</time>
      </trkpt>
      <trkpt lat="48.85135" lon="2.26228">
        <ele>60.400001525879</ele>
        <time>2016-08-22T19:14:59.000Z</time>
      </trkpt>
      <trkpt lat="48.85114" lon="2.26222">
        <ele>60.799999237061</ele>
        <time>2016-08-22T19:15:03.000Z</time>
      </trkpt>
      <trkpt lat="48.85093" lon="2.26212">
        <ele>60.599998474121</ele>
        <time>2016-08-22T19:15:07.000Z</time>
      </trkpt>
      <trkpt lat="48.85072" lon="2.26202">
        <ele>60</ele>
        <time>2016-08-22T19:15:11.000Z</time>
      </trkpt>
      <trkpt lat="48.85056" lon="2.26193">
        <ele>59.599998474121</ele>
        <time>2016-08-22T19:15:14.000Z</time>
      </trkpt>
      <trkpt lat="48.85037" lon="2.26176">
        <ele>59.200000762939</ele>
        <time>2016-08-22T19:15:18.000Z</time>
      </trkpt>
      <trkpt lat="48.8502" lon="2.26158">
        <ele>58.799999237061</ele>
        <time>2016-08-22T19:15:22.000Z</time>
      </trkpt>
      <trkpt lat="48.85003" lon="2.26142">
        <ele>57.599998474121</ele>
        <time>2016-08-22T19:15:26.000Z</time>
      </trkpt>
      <trkpt lat="48.84983" lon="2.26123">
        <ele>56.200000762939</ele>
        <time>2016-08-22T19:15:30.000Z</time>
      </trkpt>
      <trkpt lat="48.84964" lon="2.26106">
        <ele>54.799999237061</ele>
        <time>2016-08-22T19:15:34.000Z</time>
      </trkpt>
      <trkpt lat="48.84948" lon="2.26092">
        <ele>53.599998474121</ele>
        <time>2016-08-22T19:15:38.000Z</time>
      </trkpt>
      <trkpt lat="48.84929" lon="2.26079">
        <ele>52.799999237061</ele>
        <time>2016-08-22T19:15:42.000Z</time>
      </trkpt>
      <trkpt lat="48.8491" lon="2.26068">
        <ele>52.200000762939</ele>
        <time>2016-08-22T19:15:46.000Z</time>
      </trkpt>
      <trkpt lat="48.84902" lon="2.26058">
        <ele>51.799999237061</ele>
        <time>2016-08-22T19:15:48.000Z</time>
      </trkpt>
      <trkpt lat="48.84887" lon="2.26045">
        <ele>51.200000762939</ele>
        <time>2016-08-22T19:15:52.000Z</time>
      </trkpt>
      <trkpt lat="48.84872" lon="2.26039">
        <ele>50.799999237061</ele>
        <time>2016-08-22T19:15:55.000Z</time>
      </trkpt>
      <trkpt lat="48.84853" lon="2.26036">
        <ele>50.599998474121</ele>
        <time>2016-08-22T19:15:59.000Z</time>
      </trkpt>
      <trkpt lat="48.84847" lon="2.26031">
        <ele>50.599998474121</ele>
        <time>2016-08-22T19:16:01.000Z</time>
      </trkpt>
      <trkpt lat="48.84834" lon="2.26008">
        <ele>50.200000762939</ele>
        <time>2016-08-22T19:16:08.000Z</time>
      </trkpt>
      <trkpt lat="48.84831" lon="2.26005">
        <ele>50.200000762939</ele>
        <time>2016-08-22T19:16:09.000Z</time>
      </trkpt>
      <trkpt lat="48.84824" lon="2.25989">
        <ele>50</ele>
        <time>2016-08-22T19:16:13.000Z</time>
      </trkpt>
      <trkpt lat="48.84822" lon="2.25981">
        <ele>49.799999237061</ele>
        <time>2016-08-22T19:16:15.000Z</time>
      </trkpt>
      <trkpt lat="48.84818" lon="2.25954">
        <ele>49.400001525879</ele>
        <time>2016-08-22T19:16:25.000Z</time>
      </trkpt>
      <trkpt lat="48.84818" lon="2.25954">
        <ele>49.400001525879</ele>
        <time>2016-08-22T19:16:26.000Z</time>
      </trkpt>
      <trkpt lat="48.84827" lon="2.25955">
        <ele>49.400001525879</ele>
        <time>2016-08-22T19:17:26.000Z</time>
      </trkpt>
      <trkpt lat="48.8484" lon="2.25935">
        <ele>49.200000762939</ele>
        <time>2016-08-22T19:17:44.000Z</time>
      </trkpt>
      <trkpt lat="48.84847" lon="2.25902">
        <ele>48.200000762939</ele>
        <time>2016-08-22T19:17:56.000Z</time>
      </trkpt>
      <trkpt lat="48.84841" lon="2.25886">
        <ele>47.599998474121</ele>
        <time>2016-08-22T19:17:58.000Z</time>
      </trkpt>
      <trkpt lat="48.84835" lon="2.25862">
        <ele>46.799999237061</ele>
        <time>2016-08-22T19:18:03.000Z</time>
      </trkpt>
      <trkpt lat="48.84832" lon="2.25833">
        <ele>46.400001525879</ele>
        <time>2016-08-22T19:18:09.000Z</time>
      </trkpt>
      <trkpt lat="48.84831" lon="2.2583">
        <ele>46.200000762939</ele>
        <time>2016-08-22T19:18:10.000Z</time>
      </trkpt>
      <trkpt lat="48.84833" lon="2.25803">
        <ele>45.799999237061</ele>
        <time>2016-08-22T19:18:18.000Z</time>
      </trkpt>
      <trkpt lat="48.84849" lon="2.2579">
        <ele>47</ele>
        <time>2016-08-22T19:18:25.000Z</time>
      </trkpt>
      <trkpt lat="48.84858" lon="2.25766">
        <ele>47.400001525879</ele>
        <time>2016-08-22T19:18:34.000Z</time>
      </trkpt>
      <trkpt lat="48.84851" lon="2.25741">
        <ele>46.799999237061</ele>
        <time>2016-08-22T19:18:45.000Z</time>
      </trkpt>
      <trkpt lat="48.84835" lon="2.25731">
        <ele>45.599998474121</ele>
        <time>2016-08-22T19:18:56.000Z</time>
      </trkpt>
      <trkpt lat="48.84818" lon="2.25727">
        <ele>44.200000762939</ele>
        <time>2016-08-22T19:19:05.000Z</time>
      </trkpt>
      <trkpt lat="48.84804" lon="2.25722">
        <ele>43.200000762939</ele>
        <time>2016-08-22T19:19:13.000Z</time>
      </trkpt>
      <trkpt lat="48.84801" lon="2.25707">
        <ele>43.400001525879</ele>
        <time>2016-08-22T19:19:17.000Z</time>
      </trkpt>
      <trkpt lat="48.848" lon="2.2568">
        <ele>44.200000762939</ele>
        <time>2016-08-22T19:19:23.000Z</time>
      </trkpt>
      <trkpt lat="48.84799" lon="2.25646">
        <ele>45.599998474121</ele>
        <time>2016-08-22T19:19:29.000Z</time>
      </trkpt>
      <trkpt lat="48.84799" lon="2.25618">
        <ele>46.200000762939</ele>
        <time>2016-08-22T19:19:33.000Z</time>
      </trkpt>
      <trkpt lat="48.848" lon="2.2558">
        <ele>44.599998474121</ele>
        <time>2016-08-22T19:19:37.000Z</time>
      </trkpt>
      <trkpt lat="48.84802" lon="2.25557">
        <ele>44.200000762939</ele>
        <time>2016-08-22T19:19:39.000Z</time>
      </trkpt>
      <trkpt lat="48.84803" lon="2.25524">
        <ele>43.599998474121</ele>
        <time>2016-08-22T19:19:42.000Z</time>
      </trkpt>
      <trkpt lat="48.84802" lon="2.25487">
        <ele>44.200000762939</ele>
        <time>2016-08-22T19:19:45.000Z</time>
      </trkpt>
      <trkpt lat="48.848" lon="2.25452">
        <ele>44</ele>
        <time>2016-08-22T19:19:48.000Z</time>
      </trkpt>
      <trkpt lat="48.84801" lon="2.25431">
        <ele>43.599998474121</ele>
        <time>2016-08-22T19:19:50.000Z</time>
      </trkpt>
      <trkpt lat="48.84805" lon="2.25403">
        <ele>43.200000762939</ele>
        <time>2016-08-22T19:19:53.000Z</time>
      </trkpt>
      <trkpt lat="48.8481" lon="2.25371">
        <ele>43.799999237061</ele>
        <time>2016-08-22T19:19:57.000Z</time>
      </trkpt>
      <trkpt lat="48.84812" lon="2.25347">
        <ele>42.599998474121</ele>
        <time>2016-08-22T19:20:00.000Z</time>
      </trkpt>
      <trkpt lat="48.84812" lon="2.25321">
        <ele>41.400001525879</ele>
        <time>2016-08-22T19:20:04.000Z</time>
      </trkpt>
      <trkpt lat="48.84812" lon="2.25315">
        <ele>41.200000762939</ele>
        <time>2016-08-22T19:20:05.000Z</time>
      </trkpt>
      <trkpt lat="48.8481" lon="2.25304">
        <ele>41</ele>
        <time>2016-08-22T19:20:07.000Z</time>
      </trkpt>
      <trkpt lat="48.8481" lon="2.25295">
        <ele>40.799999237061</ele>
        <time>2016-08-22T19:20:09.000Z</time>
      </trkpt>
      <trkpt lat="48.84808" lon="2.25283">
        <ele>40.599998474121</ele>
        <time>2016-08-22T19:20:45.000Z</time>
      </trkpt>
      <trkpt lat="48.84802" lon="2.25255">
        <ele>41.599998474121</ele>
        <time>2016-08-22T19:20:51.000Z</time>
      </trkpt>
      <trkpt lat="48.848" lon="2.25222">
        <ele>42</ele>
        <time>2016-08-22T19:20:56.000Z</time>
      </trkpt>
      <trkpt lat="48.84801" lon="2.25191">
        <ele>42</ele>
        <time>2016-08-22T19:21:00.000Z</time>
      </trkpt>
      <trkpt lat="48.84804" lon="2.25157">
        <ele>42</ele>
        <time>2016-08-22T19:21:04.000Z</time>
      </trkpt>
      <trkpt lat="48.84803" lon="2.25123">
        <ele>41.599998474121</ele>
        <time>2016-08-22T19:21:08.000Z</time>
      </trkpt>
      <trkpt lat="48.84803" lon="2.25087">
        <ele>40.599998474121</ele>
        <time>2016-08-22T19:21:12.000Z</time>
      </trkpt>
      <trkpt lat="48.84803" lon="2.2506">
        <ele>39.799999237061</ele>
        <time>2016-08-22T19:21:15.000Z</time>
      </trkpt>
      <trkpt lat="48.84803" lon="2.2503">
        <ele>39.200000762939</ele>
        <time>2016-08-22T19:21:18.000Z</time>
      </trkpt>
      <trkpt lat="48.84804" lon="2.25">
        <ele>39.400001525879</ele>
        <time>2016-08-22T19:21:21.000Z</time>
      </trkpt>
      <trkpt lat="48.84805" lon="2.2497">
        <ele>39.599998474121</ele>
        <time>2016-08-22T19:21:24.000Z</time>
      </trkpt>
      <trkpt lat="48.84805" lon="2.24941">
        <ele>39.599998474121</ele>
        <time>2016-08-22T19:21:27.000Z</time>
      </trkpt>
      <trkpt lat="48.84805" lon="2.24911">
        <ele>39.200000762939</ele>
        <time>2016-08-22T19:21:30.000Z</time>
      </trkpt>
      <trkpt lat="48.84806" lon="2.24882">
        <ele>39.599998474121</ele>
        <time>2016-08-22T19:21:33.000Z</time>
      </trkpt>
      <trkpt lat="48.84808" lon="2.24852">
        <ele>39.799999237061</ele>
        <time>2016-08-22T19:21:36.000Z</time>
      </trkpt>
      <trkpt lat="48.84808" lon="2.24822">
        <ele>39.599998474121</ele>
        <time>2016-08-22T19:21:39.000Z</time>
      </trkpt>
      <trkpt lat="48.84809" lon="2.24793">
        <ele>38.599998474121</ele>
        <time>2016-08-22T19:21:42.000Z</time>
      </trkpt>
      <trkpt lat="48.8481" lon="2.24763">
        <ele>38</ele>
        <time>2016-08-22T19:21:45.000Z</time>
      </trkpt>
      <trkpt lat="48.84812" lon="2.24734">
        <ele>37.799999237061</ele>
        <time>2016-08-22T19:21:48.000Z</time>
      </trkpt>
      <trkpt lat="48.84812" lon="2.24724">
        <ele>37.799999237061</ele>
        <time>2016-08-22T19:21:49.000Z</time>
      </trkpt>
      <trkpt lat="48.84812" lon="2.24694">
        <ele>37.599998474121</ele>
        <time>2016-08-22T19:21:52.000Z</time>
      </trkpt>
      <trkpt lat="48.84813" lon="2.24659">
        <ele>37</ele>
        <time>2016-08-22T19:21:56.000Z</time>
      </trkpt>
      <trkpt lat="48.84813" lon="2.24638">
        <ele>37.200000762939</ele>
        <time>2016-08-22T19:21:59.000Z</time>
      </trkpt>
      <trkpt lat="48.84823" lon="2.2461">
        <ele>37.200000762939</ele>
        <time>2016-08-22T19:22:04.000Z</time>
      </trkpt>
      <trkpt lat="48.8484" lon="2.24593">
        <ele>36.599998474121</ele>
        <time>2016-08-22T19:22:08.000Z</time>
      </trkpt>
      <trkpt lat="48.84852" lon="2.24582">
        <ele>36.200000762939</ele>
        <time>2016-08-22T19:22:11.000Z</time>
      </trkpt>
      <trkpt lat="48.84868" lon="2.24567">
        <ele>37.400001525879</ele>
        <time>2016-08-22T19:22:15.000Z</time>
      </trkpt>
      <trkpt lat="48.84879" lon="2.24554">
        <ele>38.599998474121</ele>
        <time>2016-08-22T19:22:19.000Z</time>
      </trkpt>
      <trkpt lat="48.84885" lon="2.24542">
        <ele>39.200000762939</ele>
        <time>2016-08-22T19:22:22.000Z</time>
      </trkpt>
      <trkpt lat="48.84885" lon="2.24517">
        <ele>39</ele>
        <time>2016-08-22T19:22:27.000Z</time>
      </trkpt>
      <trkpt lat="48.84881" lon="2.24483">
        <ele>38.200000762939</ele>
        <time>2016-08-22T19:22:32.000Z</time>
      </trkpt>
      <trkpt lat="48.84875" lon="2.2445">
        <ele>38.200000762939</ele>
        <time>2016-08-22T19:22:36.000Z</time>
      </trkpt>
      <trkpt lat="48.84872" lon="2.24414">
        <ele>38.200000762939</ele>
        <time>2016-08-22T19:22:40.000Z</time>
      </trkpt>
      <trkpt lat="48.84869" lon="2.24387">
        <ele>38.599998474121</ele>
        <time>2016-08-22T19:22:43.000Z</time>
      </trkpt>
      <trkpt lat="48.84866" lon="2.24353">
        <ele>39.200000762939</ele>
        <time>2016-08-22T19:22:47.000Z</time>
      </trkpt>
      <trkpt lat="48.84865" lon="2.24344">
        <ele>39.200000762939</ele>
        <time>2016-08-22T19:22:48.000Z</time>
      </trkpt>
      <trkpt lat="48.84858" lon="2.24315">
        <ele>38.799999237061</ele>
        <time>2016-08-22T19:22:52.000Z</time>
      </trkpt>
      <trkpt lat="48.84852" lon="2.24286">
        <ele>38.599998474121</ele>
        <time>2016-08-22T19:22:56.000Z</time>
      </trkpt>
      <trkpt lat="48.84848" lon="2.24269">
        <ele>38.400001525879</ele>
        <time>2016-08-22T19:22:59.000Z</time>
      </trkpt>
      <trkpt lat="48.84848" lon="2.24252">
        <ele>38.200000762939</ele>
        <time>2016-08-22T19:23:04.000Z</time>
      </trkpt>
      <trkpt lat="48.8485" lon="2.24242">
        <ele>38</ele>
        <time>2016-08-22T19:23:07.000Z</time>
      </trkpt>
      <trkpt lat="48.84851" lon="2.24231">
        <ele>37.799999237061</ele>
        <time>2016-08-22T19:23:12.000Z</time>
      </trkpt>
      <trkpt lat="48.84854" lon="2.24223">
        <ele>37.400001525879</ele>
        <time>2016-08-22T19:23:17.000Z</time>
      </trkpt>
      <trkpt lat="48.84853" lon="2.24221">
        <ele>37.400001525879</ele>
        <time>2016-08-22T19:24:53.000Z</time>
      </trkpt>
      <trkpt lat="48.84842" lon="2.24196">
        <ele>37.200000762939</ele>
        <time>2016-08-22T19:25:03.000Z</time>
      </trkpt>
      <trkpt lat="48.8484" lon="2.24168">
        <ele>36.599998474121</ele>
        <time>2016-08-22T19:25:10.000Z</time>
      </trkpt>
      <trkpt lat="48.84856" lon="2.24146">
        <ele>36.200000762939</ele>
        <time>2016-08-22T19:25:16.000Z</time>
      </trkpt>
      <trkpt lat="48.84859" lon="2.24141">
        <ele>36.400001525879</ele>
        <time>2016-08-22T19:25:17.000Z</time>
      </trkpt>
      <trkpt lat="48.84875" lon="2.2412">
        <ele>37.400001525879</ele>
        <time>2016-08-22T19:25:22.000Z</time>
      </trkpt>
      <trkpt lat="48.8489" lon="2.24101">
        <ele>37.799999237061</ele>
        <time>2016-08-22T19:25:27.000Z</time>
      </trkpt>
      <trkpt lat="48.84907" lon="2.24082">
        <ele>37.200000762939</ele>
        <time>2016-08-22T19:25:32.000Z</time>
      </trkpt>
      <trkpt lat="48.84925" lon="2.24062">
        <ele>36.799999237061</ele>
        <time>2016-08-22T19:25:37.000Z</time>
      </trkpt>
      <trkpt lat="48.8494" lon="2.24045">
        <ele>36.599998474121</ele>
        <time>2016-08-22T19:25:41.000Z</time>
      </trkpt>
      <trkpt lat="48.84954" lon="2.24028">
        <ele>37.200000762939</ele>
        <time>2016-08-22T19:25:45.000Z</time>
      </trkpt>
      <trkpt lat="48.84968" lon="2.24008">
        <ele>37.400001525879</ele>
        <time>2016-08-22T19:25:49.000Z</time>
      </trkpt>
      <trkpt lat="48.84981" lon="2.23988">
        <ele>37.599998474121</ele>
        <time>2016-08-22T19:25:53.000Z</time>
      </trkpt>
      <trkpt lat="48.84992" lon="2.23967">
        <ele>38.200000762939</ele>
        <time>2016-08-22T19:25:57.000Z</time>
      </trkpt>
      <trkpt lat="48.85002" lon="2.2394">
        <ele>37.599998474121</ele>
        <time>2016-08-22T19:26:01.000Z</time>
      </trkpt>
      <trkpt lat="48.85004" lon="2.23932">
        <ele>37.400001525879</ele>
        <time>2016-08-22T19:26:02.000Z</time>
      </trkpt>
      <trkpt lat="48.8501" lon="2.23905">
        <ele>37</ele>
        <time>2016-08-22T19:26:05.000Z</time>
      </trkpt>
      <trkpt lat="48.85018" lon="2.23872">
        <ele>37</ele>
        <time>2016-08-22T19:26:09.000Z</time>
      </trkpt>
      <trkpt lat="48.85025" lon="2.23846">
        <ele>37</ele>
        <time>2016-08-22T19:26:12.000Z</time>
      </trkpt>
      <trkpt lat="48.85034" lon="2.23813">
        <ele>36.799999237061</ele>
        <time>2016-08-22T19:26:16.000Z</time>
      </trkpt>
      <trkpt lat="48.85038" lon="2.23798">
        <ele>36.799999237061</ele>
        <time>2016-08-22T19:26:18.000Z</time>
      </trkpt>
      <trkpt lat="48.85054" lon="2.23784">
        <ele>36.599998474121</ele>
        <time>2016-08-22T19:26:22.000Z</time>
      </trkpt>
      <trkpt lat="48.85077" lon="2.23781">
        <ele>35.799999237061</ele>
        <time>2016-08-22T19:26:27.000Z</time>
      </trkpt>
      <trkpt lat="48.85093" lon="2.23766">
        <ele>35</ele>
        <time>2016-08-22T19:26:31.000Z</time>
      </trkpt>
      <trkpt lat="48.85105" lon="2.23743">
        <ele>34</ele>
        <time>2016-08-22T19:26:35.000Z</time>
      </trkpt>
      <trkpt lat="48.85108" lon="2.23739">
        <ele>34</ele>
        <time>2016-08-22T19:26:36.000Z</time>
      </trkpt>
      <trkpt lat="48.85112" lon="2.23735">
        <ele>34.200000762939</ele>
        <time>2016-08-22T19:26:37.000Z</time>
      </trkpt>
      <trkpt lat="48.85129" lon="2.23721">
        <ele>34.200000762939</ele>
        <time>2016-08-22T19:26:42.000Z</time>
      </trkpt>
      <trkpt lat="48.85141" lon="2.2371">
        <ele>34.400001525879</ele>
        <time>2016-08-22T19:26:47.000Z</time>
      </trkpt>
      <trkpt lat="48.85148" lon="2.23683">
        <ele>34.400001525879</ele>
        <time>2016-08-22T19:26:55.000Z</time>
      </trkpt>
      <trkpt lat="48.85149" lon="2.2368">
        <ele>34.400001525879</ele>
        <time>2016-08-22T19:26:56.000Z</time>
      </trkpt>
      <trkpt lat="48.85146" lon="2.23651">
        <ele>34.599998474121</ele>
        <time>2016-08-22T19:27:02.000Z</time>
      </trkpt>
      <trkpt lat="48.85145" lon="2.23624">
        <ele>35</ele>
        <time>2016-08-22T19:27:06.000Z</time>
      </trkpt>
      <trkpt lat="48.85145" lon="2.23596">
        <ele>35</ele>
        <time>2016-08-22T19:27:10.000Z</time>
      </trkpt>
      <trkpt lat="48.85143" lon="2.23567">
        <ele>35</ele>
        <time>2016-08-22T19:27:14.000Z</time>
      </trkpt>
      <trkpt lat="48.85145" lon="2.23535">
        <ele>34.599998474121</ele>
        <time>2016-08-22T19:27:18.000Z</time>
      </trkpt>
      <trkpt lat="48.85148" lon="2.23499">
        <ele>34.400001525879</ele>
        <time>2016-08-22T19:27:22.000Z</time>
      </trkpt>
      <trkpt lat="48.85151" lon="2.23466">
        <ele>33.799999237061</ele>
        <time>2016-08-22T19:27:26.000Z</time>
      </trkpt>
      <trkpt lat="48.85154" lon="2.23439">
        <ele>33</ele>
        <time>2016-08-22T19:27:29.000Z</time>
      </trkpt>
      <trkpt lat="48.85159" lon="2.23403">
        <ele>32.599998474121</ele>
        <time>2016-08-22T19:27:33.000Z</time>
      </trkpt>
      <trkpt lat="48.85164" lon="2.23376">
        <ele>33</ele>
        <time>2016-08-22T19:27:36.000Z</time>
      </trkpt>
      <trkpt lat="48.85169" lon="2.23341">
        <ele>33.400001525879</ele>
        <time>2016-08-22T19:27:40.000Z</time>
      </trkpt>
      <trkpt lat="48.85176" lon="2.23315">
        <ele>32.599998474121</ele>
        <time>2016-08-22T19:27:43.000Z</time>
      </trkpt>
      <trkpt lat="48.85182" lon="2.2329">
        <ele>32.400001525879</ele>
        <time>2016-08-22T19:27:46.000Z</time>
      </trkpt>
      <trkpt lat="48.85189" lon="2.23264">
        <ele>32.200000762939</ele>
        <time>2016-08-22T19:27:49.000Z</time>
      </trkpt>
      <trkpt lat="48.85196" lon="2.23236">
        <ele>31.799999237061</ele>
        <time>2016-08-22T19:27:52.000Z</time>
      </trkpt>
      <trkpt lat="48.85203" lon="2.2321">
        <ele>32.200000762939</ele>
        <time>2016-08-22T19:27:55.000Z</time>
      </trkpt>
      <trkpt lat="48.8521" lon="2.23183">
        <ele>32.400001525879</ele>
        <time>2016-08-22T19:27:58.000Z</time>
      </trkpt>
      <trkpt lat="48.85218" lon="2.23156">
        <ele>32.400001525879</ele>
        <time>2016-08-22T19:28:01.000Z</time>
      </trkpt>
      <trkpt lat="48.85227" lon="2.23128">
        <ele>32.599998474121</ele>
        <time>2016-08-22T19:28:04.000Z</time>
      </trkpt>
      <trkpt lat="48.85237" lon="2.231">
        <ele>33</ele>
        <time>2016-08-22T19:28:07.000Z</time>
      </trkpt>
      <trkpt lat="48.85249" lon="2.23075">
        <ele>33.200000762939</ele>
        <time>2016-08-22T19:28:10.000Z</time>
      </trkpt>
      <trkpt lat="48.85264" lon="2.23052">
        <ele>32.799999237061</ele>
        <time>2016-08-22T19:28:13.000Z</time>
      </trkpt>
      <trkpt lat="48.85281" lon="2.23029">
        <ele>32.599998474121</ele>
        <time>2016-08-22T19:28:16.000Z</time>
      </trkpt>
      <trkpt lat="48.853" lon="2.2301">
        <ele>32.799999237061</ele>
        <time>2016-08-22T19:28:19.000Z</time>
      </trkpt>
      <trkpt lat="48.8532" lon="2.22994">
        <ele>33</ele>
        <time>2016-08-22T19:28:22.000Z</time>
      </trkpt>
      <trkpt lat="48.85339" lon="2.22977">
        <ele>33.799999237061</ele>
        <time>2016-08-22T19:28:25.000Z</time>
      </trkpt>
      <trkpt lat="48.85357" lon="2.2296">
        <ele>32.599998474121</ele>
        <time>2016-08-22T19:28:28.000Z</time>
      </trkpt>
      <trkpt lat="48.85377" lon="2.22943">
        <ele>32.599998474121</ele>
        <time>2016-08-22T19:28:31.000Z</time>
      </trkpt>
      <trkpt lat="48.85395" lon="2.22928">
        <ele>32.200000762939</ele>
        <time>2016-08-22T19:28:34.000Z</time>
      </trkpt>
      <trkpt lat="48.85416" lon="2.22915">
        <ele>31.39999961853</ele>
        <time>2016-08-22T19:28:37.000Z</time>
      </trkpt>
      <trkpt lat="48.85439" lon="2.22904">
        <ele>30.799999237061</ele>
        <time>2016-08-22T19:28:40.000Z</time>
      </trkpt>
      <trkpt lat="48.85461" lon="2.22891">
        <ele>31.200000762939</ele>
        <time>2016-08-22T19:28:43.000Z</time>
      </trkpt>
      <trkpt lat="48.85483" lon="2.22881">
        <ele>32</ele>
        <time>2016-08-22T19:28:46.000Z</time>
      </trkpt>
      <trkpt lat="48.85507" lon="2.22872">
        <ele>32.200000762939</ele>
        <time>2016-08-22T19:28:49.000Z</time>
      </trkpt>
      <trkpt lat="48.8553" lon="2.22865">
        <ele>32.400001525879</ele>
        <time>2016-08-22T19:28:52.000Z</time>
      </trkpt>
      <trkpt lat="48.85554" lon="2.22858">
        <ele>33.200000762939</ele>
        <time>2016-08-22T19:28:55.000Z</time>
      </trkpt>
      <trkpt lat="48.85575" lon="2.22854">
        <ele>33.400001525879</ele>
        <time>2016-08-22T19:28:58.000Z</time>
      </trkpt>
      <trkpt lat="48.85597" lon="2.22852">
        <ele>33.799999237061</ele>
        <time>2016-08-22T19:29:01.000Z</time>
      </trkpt>
      <trkpt lat="48.85619" lon="2.2285">
        <ele>32.599998474121</ele>
        <time>2016-08-22T19:29:04.000Z</time>
      </trkpt>
      <trkpt lat="48.85639" lon="2.22851">
        <ele>32</ele>
        <time>2016-08-22T19:29:07.000Z</time>
      </trkpt>
      <trkpt lat="48.85658" lon="2.22853">
        <ele>32</ele>
        <time>2016-08-22T19:29:10.000Z</time>
      </trkpt>
      <trkpt lat="48.85676" lon="2.22859">
        <ele>32</ele>
        <time>2016-08-22T19:29:13.000Z</time>
      </trkpt>
      <trkpt lat="48.85694" lon="2.22864">
        <ele>32</ele>
        <time>2016-08-22T19:29:15.000Z</time>
      </trkpt>
      <trkpt lat="48.85715" lon="2.22867">
        <ele>32</ele>
        <time>2016-08-22T19:29:18.000Z</time>
      </trkpt>
      <trkpt lat="48.85736" lon="2.22868">
        <ele>32.400001525879</ele>
        <time>2016-08-22T19:29:21.000Z</time>
      </trkpt>
      <trkpt lat="48.85756" lon="2.2287">
        <ele>33.200000762939</ele>
        <time>2016-08-22T19:29:24.000Z</time>
      </trkpt>
      <trkpt lat="48.85774" lon="2.22876">
        <ele>33.799999237061</ele>
        <time>2016-08-22T19:29:27.000Z</time>
      </trkpt>
      <trkpt lat="48.85793" lon="2.22882">
        <ele>33.200000762939</ele>
        <time>2016-08-22T19:29:30.000Z</time>
      </trkpt>
      <trkpt lat="48.85811" lon="2.22887">
        <ele>32.799999237061</ele>
        <time>2016-08-22T19:29:33.000Z</time>
      </trkpt>
      <trkpt lat="48.85834" lon="2.22894">
        <ele>32.200000762939</ele>
        <time>2016-08-22T19:29:37.000Z</time>
      </trkpt>
      <trkpt lat="48.85851" lon="2.229">
        <ele>31.60000038147</ele>
        <time>2016-08-22T19:29:40.000Z</time>
      </trkpt>
      <trkpt lat="48.85863" lon="2.22902">
        <ele>31.200000762939</ele>
        <time>2016-08-22T19:29:42.000Z</time>
      </trkpt>
      <trkpt lat="48.8588" lon="2.2291">
        <ele>30.799999237061</ele>
        <time>2016-08-22T19:29:45.000Z</time>
      </trkpt>
      <trkpt lat="48.85898" lon="2.22919">
        <ele>30.60000038147</ele>
        <time>2016-08-22T19:29:48.000Z</time>
      </trkpt>
      <trkpt lat="48.85915" lon="2.22927">
        <ele>30.60000038147</ele>
        <time>2016-08-22T19:29:51.000Z</time>
      </trkpt>
      <trkpt lat="48.85932" lon="2.22937">
        <ele>30.60000038147</ele>
        <time>2016-08-22T19:29:54.000Z</time>
      </trkpt>
      <trkpt lat="48.85938" lon="2.2294">
        <ele>30.60000038147</ele>
        <time>2016-08-22T19:29:55.000Z</time>
      </trkpt>
      <trkpt lat="48.85957" lon="2.22947">
        <ele>30.799999237061</ele>
        <time>2016-08-22T19:29:58.000Z</time>
      </trkpt>
      <trkpt lat="48.85976" lon="2.22955">
        <ele>31</ele>
        <time>2016-08-22T19:30:01.000Z</time>
      </trkpt>
      <trkpt lat="48.85994" lon="2.22964">
        <ele>31.200000762939</ele>
        <time>2016-08-22T19:30:04.000Z</time>
      </trkpt>
      <trkpt lat="48.86012" lon="2.22973">
        <ele>31.39999961853</ele>
        <time>2016-08-22T19:30:07.000Z</time>
      </trkpt>
      <trkpt lat="48.86031" lon="2.22981">
        <ele>31.60000038147</ele>
        <time>2016-08-22T19:30:10.000Z</time>
      </trkpt>
      <trkpt lat="48.8605" lon="2.22988">
        <ele>31.799999237061</ele>
        <time>2016-08-22T19:30:13.000Z</time>
      </trkpt>
      <trkpt lat="48.86072" lon="2.22998">
        <ele>32</ele>
        <time>2016-08-22T19:30:17.000Z</time>
      </trkpt>
      <trkpt lat="48.86091" lon="2.23004">
        <ele>32.200000762939</ele>
        <time>2016-08-22T19:30:20.000Z</time>
      </trkpt>
      <trkpt lat="48.86113" lon="2.23014">
        <ele>32</ele>
        <time>2016-08-22T19:30:24.000Z</time>
      </trkpt>
      <trkpt lat="48.86135" lon="2.23022">
        <ele>31</ele>
        <time>2016-08-22T19:30:28.000Z</time>
      </trkpt>
      <trkpt lat="48.86153" lon="2.23031">
        <ele>30.39999961853</ele>
        <time>2016-08-22T19:30:32.000Z</time>
      </trkpt>
      <trkpt lat="48.86169" lon="2.23039">
        <ele>30</ele>
        <time>2016-08-22T19:30:36.000Z</time>
      </trkpt>
      <trkpt lat="48.86187" lon="2.23047">
        <ele>29.39999961853</ele>
        <time>2016-08-22T19:30:41.000Z</time>
      </trkpt>
      <trkpt lat="48.86198" lon="2.23054">
        <ele>29.60000038147</ele>
        <time>2016-08-22T19:30:44.000Z</time>
      </trkpt>
      <trkpt lat="48.86216" lon="2.23066">
        <ele>30.200000762939</ele>
        <time>2016-08-22T19:30:50.000Z</time>
      </trkpt>
      <trkpt lat="48.86233" lon="2.23076">
        <ele>30.60000038147</ele>
        <time>2016-08-22T19:30:56.000Z</time>
      </trkpt>
      <trkpt lat="48.86245" lon="2.23083">
        <ele>31.200000762939</ele>
        <time>2016-08-22T19:31:01.000Z</time>
      </trkpt>
      <trkpt lat="48.86262" lon="2.23093">
        <ele>32</ele>
        <time>2016-08-22T19:31:09.000Z</time>
      </trkpt>
      <trkpt lat="48.86274" lon="2.23112">
        <ele>32.799999237061</ele>
        <time>2016-08-22T19:31:23.000Z</time>
      </trkpt>
      <trkpt lat="48.86274" lon="2.23113">
        <ele>32.799999237061</ele>
        <time>2016-08-22T19:31:24.000Z</time>
      </trkpt>
      <trkpt lat="48.86277" lon="2.23109">
        <ele>32.599998474121</ele>
        <time>2016-08-22T19:31:32.000Z</time>
      </trkpt>
      <trkpt lat="48.86291" lon="2.23126">
        <ele>32.400001525879</ele>
        <time>2016-08-22T19:31:45.000Z</time>
      </trkpt>
      <trkpt lat="48.86295" lon="2.23131">
        <ele>32.400001525879</ele>
        <time>2016-08-22T19:31:48.000Z</time>
      </trkpt>
      <trkpt lat="48.86289" lon="2.23126">
        <ele>32.599998474121</ele>
        <time>2016-08-22T19:32:43.000Z</time>
      </trkpt>
      <trkpt lat="48.86274" lon="2.23107">
        <ele>32.599998474121</ele>
        <time>2016-08-22T19:32:51.000Z</time>
      </trkpt>
      <trkpt lat="48.86271" lon="2.23105">
        <ele>32.599998474121</ele>
        <time>2016-08-22T19:32:55.000Z</time>
      </trkpt>
      <trkpt lat="48.86275" lon="2.2311">
        <ele>32.599998474121</ele>
        <time>2016-08-22T19:32:59.000Z</time>
      </trkpt>
      <trkpt lat="48.86286" lon="2.23131">
        <ele>32.799999237061</ele>
        <time>2016-08-22T19:33:05.000Z</time>
      </trkpt>
      <trkpt lat="48.863" lon="2.2315">
        <ele>32.799999237061</ele>
        <time>2016-08-22T19:33:10.000Z</time>
      </trkpt>
      <trkpt lat="48.86313" lon="2.23169">
        <ele>32.599998474121</ele>
        <time>2016-08-22T19:33:14.000Z</time>
      </trkpt>
      <trkpt lat="48.86327" lon="2.23189">
        <ele>32.599998474121</ele>
        <time>2016-08-22T19:33:18.000Z</time>
      </trkpt>
      <trkpt lat="48.86342" lon="2.23213">
        <ele>32.799999237061</ele>
        <time>2016-08-22T19:33:22.000Z</time>
      </trkpt>
      <trkpt lat="48.86354" lon="2.23239">
        <ele>33</ele>
        <time>2016-08-22T19:33:26.000Z</time>
      </trkpt>
      <trkpt lat="48.86366" lon="2.23265">
        <ele>33.200000762939</ele>
        <time>2016-08-22T19:33:30.000Z</time>
      </trkpt>
      <trkpt lat="48.86373" lon="2.23284">
        <ele>33.200000762939</ele>
        <time>2016-08-22T19:33:33.000Z</time>
      </trkpt>
      <trkpt lat="48.86381" lon="2.23314">
        <ele>33.599998474121</ele>
        <time>2016-08-22T19:33:38.000Z</time>
      </trkpt>
      <trkpt lat="48.86388" lon="2.2334">
        <ele>33.400001525879</ele>
        <time>2016-08-22T19:33:43.000Z</time>
      </trkpt>
      <trkpt lat="48.86396" lon="2.2336">
        <ele>32.799999237061</ele>
        <time>2016-08-22T19:33:48.000Z</time>
      </trkpt>
      <trkpt lat="48.86398" lon="2.23375">
        <ele>32.400001525879</ele>
        <time>2016-08-22T19:33:51.000Z</time>
      </trkpt>
      <trkpt lat="48.86401" lon="2.23399">
        <ele>31.200000762939</ele>
        <time>2016-08-22T19:33:55.000Z</time>
      </trkpt>
      <trkpt lat="48.86403" lon="2.23428">
        <ele>30.60000038147</ele>
        <time>2016-08-22T19:34:00.000Z</time>
      </trkpt>
      <trkpt lat="48.86405" lon="2.2344">
        <ele>30.60000038147</ele>
        <time>2016-08-22T19:34:06.000Z</time>
      </trkpt>
      <trkpt lat="48.86403" lon="2.23418">
        <ele>30.60000038147</ele>
        <time>2016-08-22T19:34:16.000Z</time>
      </trkpt>
      <trkpt lat="48.864" lon="2.23391">
        <ele>31.60000038147</ele>
        <time>2016-08-22T19:34:24.000Z</time>
      </trkpt>
      <trkpt lat="48.86396" lon="2.23364">
        <ele>32.599998474121</ele>
        <time>2016-08-22T19:34:35.000Z</time>
      </trkpt>
      <trkpt lat="48.86396" lon="2.23362">
        <ele>32.799999237061</ele>
        <time>2016-08-22T19:34:36.000Z</time>
      </trkpt>
      <trkpt lat="48.86397" lon="2.23353">
        <ele>33</ele>
        <time>2016-08-22T19:34:42.000Z</time>
      </trkpt>
      <trkpt lat="48.86383" lon="2.23351">
        <ele>33.200000762939</ele>
        <time>2016-08-22T19:35:55.000Z</time>
      </trkpt>
      <trkpt lat="48.86399" lon="2.23352">
        <ele>33</ele>
        <time>2016-08-22T19:36:47.000Z</time>
      </trkpt>
      <trkpt lat="48.86404" lon="2.23364">
        <ele>32.599998474121</ele>
        <time>2016-08-22T19:37:24.000Z</time>
      </trkpt>
      <trkpt lat="48.86402" lon="2.23392">
        <ele>31.60000038147</ele>
        <time>2016-08-22T19:37:37.000Z</time>
      </trkpt>
      <trkpt lat="48.86403" lon="2.23401">
        <ele>31.200000762939</ele>
        <time>2016-08-22T19:37:39.000Z</time>
      </trkpt>
      <trkpt lat="48.86403" lon="2.23432">
        <ele>30.60000038147</ele>
        <time>2016-08-22T19:37:45.000Z</time>
      </trkpt>
      <trkpt lat="48.86404" lon="2.23455">
        <ele>30.60000038147</ele>
        <time>2016-08-22T19:37:49.000Z</time>
      </trkpt>
      <trkpt lat="48.86405" lon="2.2348">
        <ele>31</ele>
        <time>2016-08-22T19:37:53.000Z</time>
      </trkpt>
      <trkpt lat="48.86406" lon="2.23508">
        <ele>31.60000038147</ele>
        <time>2016-08-22T19:37:57.000Z</time>
      </trkpt>
      <trkpt lat="48.86406" lon="2.23537">
        <ele>31.799999237061</ele>
        <time>2016-08-22T19:38:01.000Z</time>
      </trkpt>
      <trkpt lat="48.86406" lon="2.23564">
        <ele>31.200000762939</ele>
        <time>2016-08-22T19:38:05.000Z</time>
      </trkpt>
      <trkpt lat="48.86401" lon="2.23597">
        <ele>30.200000762939</ele>
        <time>2016-08-22T19:38:10.000Z</time>
      </trkpt>
      <trkpt lat="48.86392" lon="2.23628">
        <ele>29.39999961853</ele>
        <time>2016-08-22T19:38:15.000Z</time>
      </trkpt>
      <trkpt lat="48.86384" lon="2.23653">
        <ele>28.200000762939</ele>
        <time>2016-08-22T19:38:19.000Z</time>
      </trkpt>
      <trkpt lat="48.86376" lon="2.23679">
        <ele>28</ele>
        <time>2016-08-22T19:38:23.000Z</time>
      </trkpt>
      <trkpt lat="48.86374" lon="2.23685">
        <ele>28.200000762939</ele>
        <time>2016-08-22T19:38:24.000Z</time>
      </trkpt>
      <trkpt lat="48.86369" lon="2.23696">
        <ele>28.39999961853</ele>
        <time>2016-08-22T19:38:26.000Z</time>
      </trkpt>
      <trkpt lat="48.86354" lon="2.2372">
        <ele>28.799999237061</ele>
        <time>2016-08-22T19:38:31.000Z</time>
      </trkpt>
      <trkpt lat="48.86335" lon="2.2374">
        <ele>29.799999237061</ele>
        <time>2016-08-22T19:38:36.000Z</time>
      </trkpt>
      <trkpt lat="48.86327" lon="2.23748">
        <ele>29.60000038147</ele>
        <time>2016-08-22T19:38:38.000Z</time>
      </trkpt>
      <trkpt lat="48.86309" lon="2.23763">
        <ele>29.200000762939</ele>
        <time>2016-08-22T19:38:42.000Z</time>
      </trkpt>
      <trkpt lat="48.86291" lon="2.23777">
        <ele>29</ele>
        <time>2016-08-22T19:38:46.000Z</time>
      </trkpt>
      <trkpt lat="48.86274" lon="2.23788">
        <ele>29</ele>
        <time>2016-08-22T19:38:50.000Z</time>
      </trkpt>
      <trkpt lat="48.86256" lon="2.23801">
        <ele>29.200000762939</ele>
        <time>2016-08-22T19:38:55.000Z</time>
      </trkpt>
      <trkpt lat="48.86242" lon="2.23805">
        <ele>29.799999237061</ele>
        <time>2016-08-22T19:38:59.000Z</time>
      </trkpt>
      <trkpt lat="48.86228" lon="2.23799">
        <ele>30.60000038147</ele>
        <time>2016-08-22T19:39:06.000Z</time>
      </trkpt>
      <trkpt lat="48.86213" lon="2.23792">
        <ele>31.39999961853</ele>
        <time>2016-08-22T19:39:56.000Z</time>
      </trkpt>
      <trkpt lat="48.86193" lon="2.23794">
        <ele>33.200000762939</ele>
        <time>2016-08-22T19:40:02.000Z</time>
      </trkpt>
      <trkpt lat="48.86174" lon="2.23787">
        <ele>33.799999237061</ele>
        <time>2016-08-22T19:40:07.000Z</time>
      </trkpt>
      <trkpt lat="48.86155" lon="2.23777">
        <ele>34.400001525879</ele>
        <time>2016-08-22T19:40:12.000Z</time>
      </trkpt>
      <trkpt lat="48.86137" lon="2.23768">
        <ele>34.799999237061</ele>
        <time>2016-08-22T19:40:16.000Z</time>
      </trkpt>
      <trkpt lat="48.8612" lon="2.23758">
        <ele>35</ele>
        <time>2016-08-22T19:40:20.000Z</time>
      </trkpt>
      <trkpt lat="48.86104" lon="2.23745">
        <ele>35</ele>
        <time>2016-08-22T19:40:24.000Z</time>
      </trkpt>
      <trkpt lat="48.86084" lon="2.23734">
        <ele>34.799999237061</ele>
        <time>2016-08-22T19:40:29.000Z</time>
      </trkpt>
      <trkpt lat="48.86064" lon="2.23728">
        <ele>35</ele>
        <time>2016-08-22T19:40:34.000Z</time>
      </trkpt>
      <trkpt lat="48.86044" lon="2.23719">
        <ele>35</ele>
        <time>2016-08-22T19:40:40.000Z</time>
      </trkpt>
      <trkpt lat="48.86023" lon="2.23711">
        <ele>35</ele>
        <time>2016-08-22T19:40:46.000Z</time>
      </trkpt>
      <trkpt lat="48.86004" lon="2.23704">
        <ele>34.599998474121</ele>
        <time>2016-08-22T19:40:51.000Z</time>
      </trkpt>
      <trkpt lat="48.85985" lon="2.23699">
        <ele>34</ele>
        <time>2016-08-22T19:40:56.000Z</time>
      </trkpt>
      <trkpt lat="48.85963" lon="2.23697">
        <ele>34</ele>
        <time>2016-08-22T19:41:01.000Z</time>
      </trkpt>
      <trkpt lat="48.85942" lon="2.23695">
        <ele>33.799999237061</ele>
        <time>2016-08-22T19:41:06.000Z</time>
      </trkpt>
      <trkpt lat="48.85923" lon="2.23694">
        <ele>33.599998474121</ele>
        <time>2016-08-22T19:41:10.000Z</time>
      </trkpt>
      <trkpt lat="48.85905" lon="2.23696">
        <ele>33.799999237061</ele>
        <time>2016-08-22T19:41:15.000Z</time>
      </trkpt>
      <trkpt lat="48.85901" lon="2.23697">
        <ele>34</ele>
        <time>2016-08-22T19:41:16.000Z</time>
      </trkpt>
      <trkpt lat="48.85883" lon="2.237">
        <ele>34</ele>
        <time>2016-08-22T19:41:21.000Z</time>
      </trkpt>
      <trkpt lat="48.85865" lon="2.23703">
        <ele>34</ele>
        <time>2016-08-22T19:41:26.000Z</time>
      </trkpt>
      <trkpt lat="48.85844" lon="2.23707">
        <ele>34.599998474121</ele>
        <time>2016-08-22T19:41:32.000Z</time>
      </trkpt>
      <trkpt lat="48.85823" lon="2.2371">
        <ele>35.200000762939</ele>
        <time>2016-08-22T19:41:38.000Z</time>
      </trkpt>
      <trkpt lat="48.85803" lon="2.23715">
        <ele>35.599998474121</ele>
        <time>2016-08-22T19:41:43.000Z</time>
      </trkpt>
      <trkpt lat="48.85782" lon="2.23719">
        <ele>35.799999237061</ele>
        <time>2016-08-22T19:41:48.000Z</time>
      </trkpt>
      <trkpt lat="48.85761" lon="2.23724">
        <ele>36.200000762939</ele>
        <time>2016-08-22T19:41:53.000Z</time>
      </trkpt>
      <trkpt lat="48.8574" lon="2.23729">
        <ele>37</ele>
        <time>2016-08-22T19:41:58.000Z</time>
      </trkpt>
      <trkpt lat="48.85722" lon="2.23736">
        <ele>37.799999237061</ele>
        <time>2016-08-22T19:42:02.000Z</time>
      </trkpt>
      <trkpt lat="48.85701" lon="2.23739">
        <ele>38.400001525879</ele>
        <time>2016-08-22T19:42:06.000Z</time>
      </trkpt>
      <trkpt lat="48.85679" lon="2.23743">
        <ele>38.799999237061</ele>
        <time>2016-08-22T19:42:10.000Z</time>
      </trkpt>
      <trkpt lat="48.85667" lon="2.23743">
        <ele>38.799999237061</ele>
        <time>2016-08-22T19:42:12.000Z</time>
      </trkpt>
      <trkpt lat="48.85648" lon="2.23745">
        <ele>39</ele>
        <time>2016-08-22T19:42:15.000Z</time>
      </trkpt>
      <trkpt lat="48.85628" lon="2.23747">
        <ele>39</ele>
        <time>2016-08-22T19:42:18.000Z</time>
      </trkpt>
      <trkpt lat="48.85608" lon="2.23748">
        <ele>39</ele>
        <time>2016-08-22T19:42:21.000Z</time>
      </trkpt>
      <trkpt lat="48.85587" lon="2.23748">
        <ele>39</ele>
        <time>2016-08-22T19:42:24.000Z</time>
      </trkpt>
      <trkpt lat="48.85565" lon="2.23748">
        <ele>39</ele>
        <time>2016-08-22T19:42:27.000Z</time>
      </trkpt>
      <trkpt lat="48.85542" lon="2.23748">
        <ele>39</ele>
        <time>2016-08-22T19:42:30.000Z</time>
      </trkpt>
      <trkpt lat="48.85522" lon="2.23748">
        <ele>39.200000762939</ele>
        <time>2016-08-22T19:42:33.000Z</time>
      </trkpt>
      <trkpt lat="48.855" lon="2.23746">
        <ele>39.599998474121</ele>
        <time>2016-08-22T19:42:37.000Z</time>
      </trkpt>
      <trkpt lat="48.85478" lon="2.23744">
        <ele>40</ele>
        <time>2016-08-22T19:42:42.000Z</time>
      </trkpt>
      <trkpt lat="48.85459" lon="2.23742">
        <ele>40.400001525879</ele>
        <time>2016-08-22T19:42:46.000Z</time>
      </trkpt>
      <trkpt lat="48.85438" lon="2.23739">
        <ele>40.799999237061</ele>
        <time>2016-08-22T19:42:50.000Z</time>
      </trkpt>
      <trkpt lat="48.85419" lon="2.23735">
        <ele>41</ele>
        <time>2016-08-22T19:42:54.000Z</time>
      </trkpt>
      <trkpt lat="48.85401" lon="2.23728">
        <ele>41.400001525879</ele>
        <time>2016-08-22T19:42:58.000Z</time>
      </trkpt>
      <trkpt lat="48.8538" lon="2.23719">
        <ele>41.599998474121</ele>
        <time>2016-08-22T19:43:03.000Z</time>
      </trkpt>
      <trkpt lat="48.85361" lon="2.23713">
        <ele>41.799999237061</ele>
        <time>2016-08-22T19:43:07.000Z</time>
      </trkpt>
      <trkpt lat="48.85343" lon="2.2371">
        <ele>41.400001525879</ele>
        <time>2016-08-22T19:43:10.000Z</time>
      </trkpt>
      <trkpt lat="48.8532" lon="2.23701">
        <ele>40</ele>
        <time>2016-08-22T19:43:14.000Z</time>
      </trkpt>
      <trkpt lat="48.85303" lon="2.23692">
        <ele>38.799999237061</ele>
        <time>2016-08-22T19:43:17.000Z</time>
      </trkpt>
      <trkpt lat="48.85284" lon="2.23685">
        <ele>37.400001525879</ele>
        <time>2016-08-22T19:43:20.000Z</time>
      </trkpt>
      <trkpt lat="48.85262" lon="2.23678">
        <ele>36.200000762939</ele>
        <time>2016-08-22T19:43:24.000Z</time>
      </trkpt>
      <trkpt lat="48.8524" lon="2.23674">
        <ele>35.400001525879</ele>
        <time>2016-08-22T19:43:28.000Z</time>
      </trkpt>
      <trkpt lat="48.85217" lon="2.23675">
        <ele>35</ele>
        <time>2016-08-22T19:43:32.000Z</time>
      </trkpt>
      <trkpt lat="48.85196" lon="2.2368">
        <ele>34.400001525879</ele>
        <time>2016-08-22T19:43:36.000Z</time>
      </trkpt>
      <trkpt lat="48.85177" lon="2.23689">
        <ele>34.200000762939</ele>
        <time>2016-08-22T19:43:40.000Z</time>
      </trkpt>
      <trkpt lat="48.85156" lon="2.23698">
        <ele>34.400001525879</ele>
        <time>2016-08-22T19:43:45.000Z</time>
      </trkpt>
      <trkpt lat="48.85153" lon="2.23699">
        <ele>34.400001525879</ele>
        <time>2016-08-22T19:43:46.000Z</time>
      </trkpt>
      <trkpt lat="48.85149" lon="2.23702">
        <ele>34.400001525879</ele>
        <time>2016-08-22T19:43:49.000Z</time>
      </trkpt>
      <trkpt lat="48.85148" lon="2.237">
        <ele>34.400001525879</ele>
        <time>2016-08-22T19:45:02.000Z</time>
      </trkpt>
      <trkpt lat="48.85139" lon="2.2371">
        <ele>34.400001525879</ele>
        <time>2016-08-22T19:45:08.000Z</time>
      </trkpt>
      <trkpt lat="48.85123" lon="2.23726">
        <ele>34.200000762939</ele>
        <time>2016-08-22T19:45:13.000Z</time>
      </trkpt>
      <trkpt lat="48.85106" lon="2.23741">
        <ele>34</ele>
        <time>2016-08-22T19:45:18.000Z</time>
      </trkpt>
      <trkpt lat="48.85102" lon="2.23744">
        <ele>34.200000762939</ele>
        <time>2016-08-22T19:45:19.000Z</time>
      </trkpt>
      <trkpt lat="48.85087" lon="2.23767">
        <ele>35.200000762939</ele>
        <time>2016-08-22T19:45:24.000Z</time>
      </trkpt>
      <trkpt lat="48.85079" lon="2.23778">
        <ele>35.799999237061</ele>
        <time>2016-08-22T19:45:27.000Z</time>
      </trkpt>
      <trkpt lat="48.8506" lon="2.23782">
        <ele>36.599998474121</ele>
        <time>2016-08-22T19:45:33.000Z</time>
      </trkpt>
      <trkpt lat="48.85044" lon="2.23773">
        <ele>36.799999237061</ele>
        <time>2016-08-22T19:45:42.000Z</time>
      </trkpt>
      <trkpt lat="48.85047" lon="2.23754">
        <ele>36.400001525879</ele>
        <time>2016-08-22T19:45:47.000Z</time>
      </trkpt>
      <trkpt lat="48.85052" lon="2.23725">
        <ele>36.400001525879</ele>
        <time>2016-08-22T19:45:53.000Z</time>
      </trkpt>
      <trkpt lat="48.85056" lon="2.23694">
        <ele>37</ele>
        <time>2016-08-22T19:45:59.000Z</time>
      </trkpt>
      <trkpt lat="48.85064" lon="2.23665">
        <ele>37</ele>
        <time>2016-08-22T19:46:05.000Z</time>
      </trkpt>
      <trkpt lat="48.85071" lon="2.23632">
        <ele>36.400001525879</ele>
        <time>2016-08-22T19:46:10.000Z</time>
      </trkpt>
      <trkpt lat="48.85078" lon="2.23604">
        <ele>36.400001525879</ele>
        <time>2016-08-22T19:46:14.000Z</time>
      </trkpt>
      <trkpt lat="48.85085" lon="2.23577">
        <ele>36.400001525879</ele>
        <time>2016-08-22T19:46:18.000Z</time>
      </trkpt>
      <trkpt lat="48.85092" lon="2.23549">
        <ele>35.799999237061</ele>
        <time>2016-08-22T19:46:22.000Z</time>
      </trkpt>
      <trkpt lat="48.851" lon="2.23514">
        <ele>35.200000762939</ele>
        <time>2016-08-22T19:46:26.000Z</time>
      </trkpt>
      <trkpt lat="48.85107" lon="2.2348">
        <ele>34.599998474121</ele>
        <time>2016-08-22T19:46:30.000Z</time>
      </trkpt>
      <trkpt lat="48.85114" lon="2.23445">
        <ele>33.599998474121</ele>
        <time>2016-08-22T19:46:34.000Z</time>
      </trkpt>
      <trkpt lat="48.8512" lon="2.23419">
        <ele>33</ele>
        <time>2016-08-22T19:46:37.000Z</time>
      </trkpt>
      <trkpt lat="48.85126" lon="2.23393">
        <ele>33.200000762939</ele>
        <time>2016-08-22T19:46:40.000Z</time>
      </trkpt>
      <trkpt lat="48.85133" lon="2.23359">
        <ele>34</ele>
        <time>2016-08-22T19:46:44.000Z</time>
      </trkpt>
      <trkpt lat="48.85139" lon="2.23333">
        <ele>34.200000762939</ele>
        <time>2016-08-22T19:46:47.000Z</time>
      </trkpt>
      <trkpt lat="48.85145" lon="2.23305">
        <ele>32.799999237061</ele>
        <time>2016-08-22T19:46:50.000Z</time>
      </trkpt>
      <trkpt lat="48.85151" lon="2.23278">
        <ele>32</ele>
        <time>2016-08-22T19:46:53.000Z</time>
      </trkpt>
      <trkpt lat="48.85157" lon="2.2325">
        <ele>31.60000038147</ele>
        <time>2016-08-22T19:46:56.000Z</time>
      </trkpt>
      <trkpt lat="48.85164" lon="2.23215">
        <ele>31.39999961853</ele>
        <time>2016-08-22T19:47:00.000Z</time>
      </trkpt>
      <trkpt lat="48.85171" lon="2.23189">
        <ele>32.400001525879</ele>
        <time>2016-08-22T19:47:03.000Z</time>
      </trkpt>
      <trkpt lat="48.85178" lon="2.23161">
        <ele>33.400001525879</ele>
        <time>2016-08-22T19:47:06.000Z</time>
      </trkpt>
      <trkpt lat="48.85185" lon="2.23133">
        <ele>34.400001525879</ele>
        <time>2016-08-22T19:47:09.000Z</time>
      </trkpt>
      <trkpt lat="48.85189" lon="2.23105">
        <ele>35.400001525879</ele>
        <time>2016-08-22T19:47:12.000Z</time>
      </trkpt>
      <trkpt lat="48.85195" lon="2.23075">
        <ele>35.799999237061</ele>
        <time>2016-08-22T19:47:15.000Z</time>
      </trkpt>
      <trkpt lat="48.85199" lon="2.23045">
        <ele>36</ele>
        <time>2016-08-22T19:47:18.000Z</time>
      </trkpt>
      <trkpt lat="48.85206" lon="2.23013">
        <ele>36</ele>
        <time>2016-08-22T19:47:21.000Z</time>
      </trkpt>
      <trkpt lat="48.85212" lon="2.2298">
        <ele>35.200000762939</ele>
        <time>2016-08-22T19:47:24.000Z</time>
      </trkpt>
      <trkpt lat="48.85219" lon="2.22944">
        <ele>33</ele>
        <time>2016-08-22T19:47:27.000Z</time>
      </trkpt>
      <trkpt lat="48.85225" lon="2.22908">
        <ele>34.799999237061</ele>
        <time>2016-08-22T19:47:30.000Z</time>
      </trkpt>
      <trkpt lat="48.85232" lon="2.22873">
        <ele>35.400001525879</ele>
        <time>2016-08-22T19:47:33.000Z</time>
      </trkpt>
      <trkpt lat="48.85237" lon="2.2284">
        <ele>34.400001525879</ele>
        <time>2016-08-22T19:47:36.000Z</time>
      </trkpt>
      <trkpt lat="48.85242" lon="2.22808">
        <ele>34.599998474121</ele>
        <time>2016-08-22T19:47:39.000Z</time>
      </trkpt>
      <trkpt lat="48.85246" lon="2.22779">
        <ele>34.599998474121</ele>
        <time>2016-08-22T19:47:42.000Z</time>
      </trkpt>
      <trkpt lat="48.85254" lon="2.22751">
        <ele>34.400001525879</ele>
        <time>2016-08-22T19:47:45.000Z</time>
      </trkpt>
      <trkpt lat="48.85261" lon="2.22719">
        <ele>33.400001525879</ele>
        <time>2016-08-22T19:47:48.000Z</time>
      </trkpt>
      <trkpt lat="48.85269" lon="2.22691">
        <ele>32.200000762939</ele>
        <time>2016-08-22T19:47:51.000Z</time>
      </trkpt>
      <trkpt lat="48.8528" lon="2.22666">
        <ele>31</ele>
        <time>2016-08-22T19:47:55.000Z</time>
      </trkpt>
      <trkpt lat="48.85283" lon="2.22657">
        <ele>30.799999237061</ele>
        <time>2016-08-22T19:47:57.000Z</time>
      </trkpt>
      <trkpt lat="48.85289" lon="2.22646">
        <ele>30.39999961853</ele>
        <time>2016-08-22T19:48:03.000Z</time>
      </trkpt>
      <trkpt lat="48.85302" lon="2.22639">
        <ele>30.200000762939</ele>
        <time>2016-08-22T19:48:53.000Z</time>
      </trkpt>
      <trkpt lat="48.85322" lon="2.22638">
        <ele>30.39999961853</ele>
        <time>2016-08-22T19:49:00.000Z</time>
      </trkpt>
      <trkpt lat="48.85324" lon="2.22635">
        <ele>30.39999961853</ele>
        <time>2016-08-22T19:49:02.000Z</time>
      </trkpt>
      <trkpt lat="48.85324" lon="2.22625">
        <ele>30</ele>
        <time>2016-08-22T19:49:06.000Z</time>
      </trkpt>
      <trkpt lat="48.85323" lon="2.22615">
        <ele>29.799999237061</ele>
        <time>2016-08-22T19:49:12.000Z</time>
      </trkpt>
      <trkpt lat="48.85324" lon="2.22596">
        <ele>29.60000038147</ele>
        <time>2016-08-22T19:49:21.000Z</time>
      </trkpt>
      <trkpt lat="48.85316" lon="2.22571">
        <ele>29.39999961853</ele>
        <time>2016-08-22T19:49:36.000Z</time>
      </trkpt>
      <trkpt lat="48.85315" lon="2.22569">
        <ele>29.39999961853</ele>
        <time>2016-08-22T19:49:38.000Z</time>
      </trkpt>
      <trkpt lat="48.8531" lon="2.22568">
        <ele>29.200000762939</ele>
        <time>2016-08-22T19:49:42.000Z</time>
      </trkpt>
      <trkpt lat="48.853" lon="2.22549">
        <ele>29.39999961853</ele>
        <time>2016-08-22T19:49:56.000Z</time>
      </trkpt>
      <trkpt lat="48.85299" lon="2.2254">
        <ele>29.60000038147</ele>
        <time>2016-08-22T19:50:00.000Z</time>
      </trkpt>
      <trkpt lat="48.85299" lon="2.22512">
        <ele>30</ele>
        <time>2016-08-22T19:50:09.000Z</time>
      </trkpt>
      <trkpt lat="48.853" lon="2.22482">
        <ele>28.799999237061</ele>
        <time>2016-08-22T19:50:17.000Z</time>
      </trkpt>
      <trkpt lat="48.85298" lon="2.22454">
        <ele>27.39999961853</ele>
        <time>2016-08-22T19:50:26.000Z</time>
      </trkpt>
      <trkpt lat="48.85296" lon="2.22427">
        <ele>26.200000762939</ele>
        <time>2016-08-22T19:50:44.000Z</time>
      </trkpt>
      <trkpt lat="48.85294" lon="2.22399">
        <ele>25.799999237061</ele>
        <time>2016-08-22T19:50:51.000Z</time>
      </trkpt>
      <trkpt lat="48.85292" lon="2.22369">
        <ele>26.200000762939</ele>
        <time>2016-08-22T19:50:58.000Z</time>
      </trkpt>
      <trkpt lat="48.8529" lon="2.22338">
        <ele>26.60000038147</ele>
        <time>2016-08-22T19:51:05.000Z</time>
      </trkpt>
      <trkpt lat="48.85289" lon="2.2231">
        <ele>28</ele>
        <time>2016-08-22T19:51:11.000Z</time>
      </trkpt>
      <trkpt lat="48.85292" lon="2.22282">
        <ele>30</ele>
        <time>2016-08-22T19:51:18.000Z</time>
      </trkpt>
      <trkpt lat="48.85296" lon="2.22254">
        <ele>31.200000762939</ele>
        <time>2016-08-22T19:51:24.000Z</time>
      </trkpt>
      <trkpt lat="48.85291" lon="2.22225">
        <ele>32.200000762939</ele>
        <time>2016-08-22T19:51:33.000Z</time>
      </trkpt>
      <trkpt lat="48.85284" lon="2.22197">
        <ele>33</ele>
        <time>2016-08-22T19:51:41.000Z</time>
      </trkpt>
      <trkpt lat="48.85279" lon="2.22169">
        <ele>33.599998474121</ele>
        <time>2016-08-22T19:51:49.000Z</time>
      </trkpt>
      <trkpt lat="48.85276" lon="2.22141">
        <ele>35</ele>
        <time>2016-08-22T19:51:55.000Z</time>
      </trkpt>
      <trkpt lat="48.85275" lon="2.22109">
        <ele>36.400001525879</ele>
        <time>2016-08-22T19:52:02.000Z</time>
      </trkpt>
      <trkpt lat="48.85273" lon="2.22078">
        <ele>38</ele>
        <time>2016-08-22T19:52:09.000Z</time>
      </trkpt>
      <trkpt lat="48.85271" lon="2.2205">
        <ele>41.799999237061</ele>
        <time>2016-08-22T19:52:15.000Z</time>
      </trkpt>
      <trkpt lat="48.85269" lon="2.22023">
        <ele>45.599998474121</ele>
        <time>2016-08-22T19:52:21.000Z</time>
      </trkpt>
      <trkpt lat="48.85266" lon="2.21995">
        <ele>49.400001525879</ele>
        <time>2016-08-22T19:52:30.000Z</time>
      </trkpt>
      <trkpt lat="48.85265" lon="2.21992">
        <ele>50</ele>
        <time>2016-08-22T19:52:33.000Z</time>
      </trkpt>
      <trkpt lat="48.85263" lon="2.21991">
        <ele>50.200000762939</ele>
        <time>2016-08-22T19:52:36.000Z</time>
      </trkpt>
      <trkpt lat="48.8527" lon="2.21976">
        <ele>51.599998474121</ele>
        <time>2016-08-22T19:53:36.000Z</time>
      </trkpt>
      <trkpt lat="48.85275" lon="2.21992">
        <ele>49.200000762939</ele>
        <time>2016-08-22T19:54:40.000Z</time>
      </trkpt>
      <trkpt lat="48.85275" lon="2.22025">
        <ele>45</ele>
        <time>2016-08-22T19:54:46.000Z</time>
      </trkpt>
      <trkpt lat="48.85276" lon="2.22057">
        <ele>40.799999237061</ele>
        <time>2016-08-22T19:54:51.000Z</time>
      </trkpt>
      <trkpt lat="48.85276" lon="2.22084">
        <ele>37.599998474121</ele>
        <time>2016-08-22T19:54:55.000Z</time>
      </trkpt>
      <trkpt lat="48.85278" lon="2.22114">
        <ele>36.200000762939</ele>
        <time>2016-08-22T19:55:00.000Z</time>
      </trkpt>
      <trkpt lat="48.85279" lon="2.22143">
        <ele>34.799999237061</ele>
        <time>2016-08-22T19:55:05.000Z</time>
      </trkpt>
      <trkpt lat="48.85281" lon="2.22172">
        <ele>33.400001525879</ele>
        <time>2016-08-22T19:55:11.000Z</time>
      </trkpt>
      <trkpt lat="48.85283" lon="2.222">
        <ele>33</ele>
        <time>2016-08-22T19:55:19.000Z</time>
      </trkpt>
      <trkpt lat="48.85284" lon="2.22229">
        <ele>32.599998474121</ele>
        <time>2016-08-22T19:55:26.000Z</time>
      </trkpt>
      <trkpt lat="48.85285" lon="2.22257">
        <ele>31.799999237061</ele>
        <time>2016-08-22T19:55:32.000Z</time>
      </trkpt>
      <trkpt lat="48.85285" lon="2.22284">
        <ele>30</ele>
        <time>2016-08-22T19:55:38.000Z</time>
      </trkpt>
      <trkpt lat="48.85288" lon="2.22312">
        <ele>27.799999237061</ele>
        <time>2016-08-22T19:55:47.000Z</time>
      </trkpt>
      <trkpt lat="48.85289" lon="2.22342">
        <ele>26.60000038147</ele>
        <time>2016-08-22T19:55:55.000Z</time>
      </trkpt>
      <trkpt lat="48.85291" lon="2.22369">
        <ele>26.200000762939</ele>
        <time>2016-08-22T19:56:02.000Z</time>
      </trkpt>
      <trkpt lat="48.85292" lon="2.22399">
        <ele>26</ele>
        <time>2016-08-22T19:56:09.000Z</time>
      </trkpt>
      <trkpt lat="48.85293" lon="2.22427">
        <ele>26.200000762939</ele>
        <time>2016-08-22T19:56:16.000Z</time>
      </trkpt>
      <trkpt lat="48.85295" lon="2.22455">
        <ele>27.60000038147</ele>
        <time>2016-08-22T19:56:23.000Z</time>
      </trkpt>
      <trkpt lat="48.85297" lon="2.22485">
        <ele>28.799999237061</ele>
        <time>2016-08-22T19:56:31.000Z</time>
      </trkpt>
      <trkpt lat="48.853" lon="2.22514">
        <ele>30</ele>
        <time>2016-08-22T19:56:39.000Z</time>
      </trkpt>
      <trkpt lat="48.853" lon="2.22545">
        <ele>29.60000038147</ele>
        <time>2016-08-22T19:56:48.000Z</time>
      </trkpt>
      <trkpt lat="48.85301" lon="2.22565">
        <ele>28.799999237061</ele>
        <time>2016-08-22T19:56:56.000Z</time>
      </trkpt>
      <trkpt lat="48.85304" lon="2.22591">
        <ele>28.60000038147</ele>
        <time>2016-08-22T19:57:40.000Z</time>
      </trkpt>
      <trkpt lat="48.85299" lon="2.22617">
        <ele>29.200000762939</ele>
        <time>2016-08-22T19:58:01.000Z</time>
      </trkpt>
      <trkpt lat="48.85297" lon="2.22623">
        <ele>29.39999961853</ele>
        <time>2016-08-22T19:58:08.000Z</time>
      </trkpt>
      <trkpt lat="48.85295" lon="2.22626">
        <ele>29.60000038147</ele>
        <time>2016-08-22T19:58:12.000Z</time>
      </trkpt>
      <trkpt lat="48.85283" lon="2.22644">
        <ele>30.200000762939</ele>
        <time>2016-08-22T19:58:22.000Z</time>
      </trkpt>
      <trkpt lat="48.85277" lon="2.22671">
        <ele>31.200000762939</ele>
        <time>2016-08-22T19:58:29.000Z</time>
      </trkpt>
      <trkpt lat="48.85269" lon="2.22698">
        <ele>32.400001525879</ele>
        <time>2016-08-22T19:58:36.000Z</time>
      </trkpt>
      <trkpt lat="48.85265" lon="2.22731">
        <ele>33.799999237061</ele>
        <time>2016-08-22T19:58:42.000Z</time>
      </trkpt>
      <trkpt lat="48.85263" lon="2.2276">
        <ele>34.200000762939</ele>
        <time>2016-08-22T19:58:47.000Z</time>
      </trkpt>
      <trkpt lat="48.85254" lon="2.22792">
        <ele>34.400001525879</ele>
        <time>2016-08-22T19:58:53.000Z</time>
      </trkpt>
      <trkpt lat="48.85243" lon="2.2282">
        <ele>34.200000762939</ele>
        <time>2016-08-22T19:58:57.000Z</time>
      </trkpt>
      <trkpt lat="48.85238" lon="2.22848">
        <ele>34.599998474121</ele>
        <time>2016-08-22T19:59:01.000Z</time>
      </trkpt>
      <trkpt lat="48.85232" lon="2.2288">
        <ele>35.400001525879</ele>
        <time>2016-08-22T19:59:05.000Z</time>
      </trkpt>
      <trkpt lat="48.85224" lon="2.22909">
        <ele>34.799999237061</ele>
        <time>2016-08-22T19:59:09.000Z</time>
      </trkpt>
      <trkpt lat="48.85216" lon="2.2294">
        <ele>33</ele>
        <time>2016-08-22T19:59:13.000Z</time>
      </trkpt>
      <trkpt lat="48.85209" lon="2.22973">
        <ele>35</ele>
        <time>2016-08-22T19:59:17.000Z</time>
      </trkpt>
      <trkpt lat="48.85202" lon="2.23008">
        <ele>36.200000762939</ele>
        <time>2016-08-22T19:59:21.000Z</time>
      </trkpt>
      <trkpt lat="48.85194" lon="2.23039">
        <ele>36.200000762939</ele>
        <time>2016-08-22T19:59:25.000Z</time>
      </trkpt>
      <trkpt lat="48.85188" lon="2.23063">
        <ele>36.200000762939</ele>
        <time>2016-08-22T19:59:28.000Z</time>
      </trkpt>
      <trkpt lat="48.8518" lon="2.23094">
        <ele>35</ele>
        <time>2016-08-22T19:59:32.000Z</time>
      </trkpt>
      <trkpt lat="48.85174" lon="2.2312">
        <ele>34</ele>
        <time>2016-08-22T19:59:35.000Z</time>
      </trkpt>
      <trkpt lat="48.85168" lon="2.23156">
        <ele>33</ele>
        <time>2016-08-22T19:59:39.000Z</time>
      </trkpt>
      <trkpt lat="48.85163" lon="2.23182">
        <ele>32.200000762939</ele>
        <time>2016-08-22T19:59:42.000Z</time>
      </trkpt>
      <trkpt lat="48.85157" lon="2.23216">
        <ele>31.200000762939</ele>
        <time>2016-08-22T19:59:46.000Z</time>
      </trkpt>
      <trkpt lat="48.85148" lon="2.23239">
        <ele>31.39999961853</ele>
        <time>2016-08-22T19:59:49.000Z</time>
      </trkpt>
      <trkpt lat="48.85143" lon="2.23267">
        <ele>31.799999237061</ele>
        <time>2016-08-22T19:59:52.000Z</time>
      </trkpt>
      <trkpt lat="48.85139" lon="2.23293">
        <ele>32.599998474121</ele>
        <time>2016-08-22T19:59:55.000Z</time>
      </trkpt>
      <trkpt lat="48.85131" lon="2.23327">
        <ele>34.400001525879</ele>
        <time>2016-08-22T19:59:59.000Z</time>
      </trkpt>
      <trkpt lat="48.85125" lon="2.2336">
        <ele>34</ele>
        <time>2016-08-22T20:00:03.000Z</time>
      </trkpt>
      <trkpt lat="48.85119" lon="2.23392">
        <ele>33.400001525879</ele>
        <time>2016-08-22T20:00:07.000Z</time>
      </trkpt>
      <trkpt lat="48.85112" lon="2.23422">
        <ele>33.200000762939</ele>
        <time>2016-08-22T20:00:11.000Z</time>
      </trkpt>
      <trkpt lat="48.85111" lon="2.2343">
        <ele>33.400001525879</ele>
        <time>2016-08-22T20:00:12.000Z</time>
      </trkpt>
      <trkpt lat="48.85104" lon="2.23464">
        <ele>34.200000762939</ele>
        <time>2016-08-22T20:00:16.000Z</time>
      </trkpt>
      <trkpt lat="48.85095" lon="2.23496">
        <ele>35.200000762939</ele>
        <time>2016-08-22T20:00:20.000Z</time>
      </trkpt>
      <trkpt lat="48.85089" lon="2.23528">
        <ele>35.599998474121</ele>
        <time>2016-08-22T20:00:24.000Z</time>
      </trkpt>
      <trkpt lat="48.85087" lon="2.23553">
        <ele>36</ele>
        <time>2016-08-22T20:00:27.000Z</time>
      </trkpt>
      <trkpt lat="48.85083" lon="2.23585">
        <ele>36.400001525879</ele>
        <time>2016-08-22T20:00:31.000Z</time>
      </trkpt>
      <trkpt lat="48.85078" lon="2.23616">
        <ele>36.200000762939</ele>
        <time>2016-08-22T20:00:35.000Z</time>
      </trkpt>
      <trkpt lat="48.85071" lon="2.2365">
        <ele>36.599998474121</ele>
        <time>2016-08-22T20:00:39.000Z</time>
      </trkpt>
      <trkpt lat="48.85063" lon="2.23684">
        <ele>36.799999237061</ele>
        <time>2016-08-22T20:00:43.000Z</time>
      </trkpt>
      <trkpt lat="48.85053" lon="2.23718">
        <ele>36.599998474121</ele>
        <time>2016-08-22T20:00:47.000Z</time>
      </trkpt>
      <trkpt lat="48.85044" lon="2.23746">
        <ele>36.200000762939</ele>
        <time>2016-08-22T20:00:51.000Z</time>
      </trkpt>
      <trkpt lat="48.85039" lon="2.23761">
        <ele>36.799999237061</ele>
        <time>2016-08-22T20:00:54.000Z</time>
      </trkpt>
      <trkpt lat="48.85037" lon="2.23769">
        <ele>36.799999237061</ele>
        <time>2016-08-22T20:00:58.000Z</time>
      </trkpt>
      <trkpt lat="48.85032" lon="2.23779">
        <ele>36.799999237061</ele>
        <time>2016-08-22T20:02:32.000Z</time>
      </trkpt>
      <trkpt lat="48.85025" lon="2.23807">
        <ele>37</ele>
        <time>2016-08-22T20:02:38.000Z</time>
      </trkpt>
      <trkpt lat="48.85019" lon="2.23833">
        <ele>37</ele>
        <time>2016-08-22T20:02:43.000Z</time>
      </trkpt>
      <trkpt lat="48.85014" lon="2.23862">
        <ele>37</ele>
        <time>2016-08-22T20:02:48.000Z</time>
      </trkpt>
      <trkpt lat="48.85009" lon="2.23889">
        <ele>37</ele>
        <time>2016-08-22T20:02:52.000Z</time>
      </trkpt>
      <trkpt lat="48.85008" lon="2.23896">
        <ele>37</ele>
        <time>2016-08-22T20:02:53.000Z</time>
      </trkpt>
      <trkpt lat="48.85004" lon="2.23923">
        <ele>37.200000762939</ele>
        <time>2016-08-22T20:02:57.000Z</time>
      </trkpt>
      <trkpt lat="48.84998" lon="2.23948">
        <ele>37.799999237061</ele>
        <time>2016-08-22T20:03:01.000Z</time>
      </trkpt>
      <trkpt lat="48.84986" lon="2.23973">
        <ele>38</ele>
        <time>2016-08-22T20:03:05.000Z</time>
      </trkpt>
      <trkpt lat="48.84973" lon="2.23998">
        <ele>37.200000762939</ele>
        <time>2016-08-22T20:03:09.000Z</time>
      </trkpt>
      <trkpt lat="48.84959" lon="2.2402">
        <ele>37.200000762939</ele>
        <time>2016-08-22T20:03:13.000Z</time>
      </trkpt>
      <trkpt lat="48.84949" lon="2.24037">
        <ele>37</ele>
        <time>2016-08-22T20:03:16.000Z</time>
      </trkpt>
      <trkpt lat="48.84933" lon="2.24056">
        <ele>36.799999237061</ele>
        <time>2016-08-22T20:03:20.000Z</time>
      </trkpt>
      <trkpt lat="48.84916" lon="2.24071">
        <ele>37</ele>
        <time>2016-08-22T20:03:24.000Z</time>
      </trkpt>
      <trkpt lat="48.84898" lon="2.24092">
        <ele>37.400001525879</ele>
        <time>2016-08-22T20:03:28.000Z</time>
      </trkpt>
      <trkpt lat="48.84882" lon="2.24114">
        <ele>37.799999237061</ele>
        <time>2016-08-22T20:03:32.000Z</time>
      </trkpt>
      <trkpt lat="48.84862" lon="2.2413">
        <ele>36.599998474121</ele>
        <time>2016-08-22T20:03:36.000Z</time>
      </trkpt>
      <trkpt lat="48.84846" lon="2.24144">
        <ele>36.400001525879</ele>
        <time>2016-08-22T20:03:40.000Z</time>
      </trkpt>
      <trkpt lat="48.84832" lon="2.24158">
        <ele>36.599998474121</ele>
        <time>2016-08-22T20:03:45.000Z</time>
      </trkpt>
      <trkpt lat="48.8482" lon="2.24167">
        <ele>37</ele>
        <time>2016-08-22T20:03:50.000Z</time>
      </trkpt>
      <trkpt lat="48.84818" lon="2.24168">
        <ele>37</ele>
        <time>2016-08-22T20:03:51.000Z</time>
      </trkpt>
      <trkpt lat="48.84804" lon="2.2417">
        <ele>37.400001525879</ele>
        <time>2016-08-22T20:03:56.000Z</time>
      </trkpt>
      <trkpt lat="48.84792" lon="2.24176">
        <ele>37.799999237061</ele>
        <time>2016-08-22T20:04:03.000Z</time>
      </trkpt>
      <trkpt lat="48.8478" lon="2.24195">
        <ele>38.200000762939</ele>
        <time>2016-08-22T20:04:34.000Z</time>
      </trkpt>
      <trkpt lat="48.84773" lon="2.24224">
        <ele>38.799999237061</ele>
        <time>2016-08-22T20:04:40.000Z</time>
      </trkpt>
      <trkpt lat="48.84764" lon="2.24248">
        <ele>39.200000762939</ele>
        <time>2016-08-22T20:04:45.000Z</time>
      </trkpt>
      <trkpt lat="48.84756" lon="2.24275">
        <ele>39</ele>
        <time>2016-08-22T20:04:50.000Z</time>
      </trkpt>
      <trkpt lat="48.84748" lon="2.24302">
        <ele>39</ele>
        <time>2016-08-22T20:04:54.000Z</time>
      </trkpt>
      <trkpt lat="48.84741" lon="2.24331">
        <ele>38.799999237061</ele>
        <time>2016-08-22T20:04:58.000Z</time>
      </trkpt>
      <trkpt lat="48.84735" lon="2.24363">
        <ele>38</ele>
        <time>2016-08-22T20:05:02.000Z</time>
      </trkpt>
      <trkpt lat="48.84728" lon="2.24397">
        <ele>37.400001525879</ele>
        <time>2016-08-22T20:05:06.000Z</time>
      </trkpt>
      <trkpt lat="48.84719" lon="2.24428">
        <ele>37.400001525879</ele>
        <time>2016-08-22T20:05:10.000Z</time>
      </trkpt>
      <trkpt lat="48.84708" lon="2.24461">
        <ele>38.200000762939</ele>
        <time>2016-08-22T20:05:14.000Z</time>
      </trkpt>
      <trkpt lat="48.84699" lon="2.24494">
        <ele>38.799999237061</ele>
        <time>2016-08-22T20:05:18.000Z</time>
      </trkpt>
      <trkpt lat="48.84692" lon="2.24519">
        <ele>38.599998474121</ele>
        <time>2016-08-22T20:05:21.000Z</time>
      </trkpt>
      <trkpt lat="48.84681" lon="2.24547">
        <ele>38.599998474121</ele>
        <time>2016-08-22T20:05:24.000Z</time>
      </trkpt>
      <trkpt lat="48.84671" lon="2.24576">
        <ele>38.799999237061</ele>
        <time>2016-08-22T20:05:27.000Z</time>
      </trkpt>
      <trkpt lat="48.8466" lon="2.24604">
        <ele>39</ele>
        <time>2016-08-22T20:05:30.000Z</time>
      </trkpt>
      <trkpt lat="48.84651" lon="2.24632">
        <ele>39.400001525879</ele>
        <time>2016-08-22T20:05:33.000Z</time>
      </trkpt>
      <trkpt lat="48.84643" lon="2.2466">
        <ele>40.400001525879</ele>
        <time>2016-08-22T20:05:36.000Z</time>
      </trkpt>
      <trkpt lat="48.84637" lon="2.24689">
        <ele>40.400001525879</ele>
        <time>2016-08-22T20:05:39.000Z</time>
      </trkpt>
      <trkpt lat="48.8463" lon="2.24719">
        <ele>41</ele>
        <time>2016-08-22T20:05:42.000Z</time>
      </trkpt>
      <trkpt lat="48.84623" lon="2.24749">
        <ele>41.599998474121</ele>
        <time>2016-08-22T20:05:45.000Z</time>
      </trkpt>
      <trkpt lat="48.84617" lon="2.24781">
        <ele>42</ele>
        <time>2016-08-22T20:05:48.000Z</time>
      </trkpt>
      <trkpt lat="48.84608" lon="2.2481">
        <ele>42</ele>
        <time>2016-08-22T20:05:51.000Z</time>
      </trkpt>
      <trkpt lat="48.84602" lon="2.2484">
        <ele>41.599998474121</ele>
        <time>2016-08-22T20:05:54.000Z</time>
      </trkpt>
      <trkpt lat="48.84596" lon="2.24867">
        <ele>40.400001525879</ele>
        <time>2016-08-22T20:05:57.000Z</time>
      </trkpt>
      <trkpt lat="48.8459" lon="2.24901">
        <ele>39.200000762939</ele>
        <time>2016-08-22T20:06:01.000Z</time>
      </trkpt>
      <trkpt lat="48.84584" lon="2.24928">
        <ele>39</ele>
        <time>2016-08-22T20:06:04.000Z</time>
      </trkpt>
      <trkpt lat="48.84582" lon="2.24956">
        <ele>38.799999237061</ele>
        <time>2016-08-22T20:06:07.000Z</time>
      </trkpt>
      <trkpt lat="48.84576" lon="2.24989">
        <ele>38.400001525879</ele>
        <time>2016-08-22T20:06:11.000Z</time>
      </trkpt>
      <trkpt lat="48.84568" lon="2.25019">
        <ele>38.200000762939</ele>
        <time>2016-08-22T20:06:15.000Z</time>
      </trkpt>
      <trkpt lat="48.8456" lon="2.25046">
        <ele>38</ele>
        <time>2016-08-22T20:06:20.000Z</time>
      </trkpt>
      <trkpt lat="48.84558" lon="2.2505">
        <ele>38</ele>
        <time>2016-08-22T20:06:21.000Z</time>
      </trkpt>
      <trkpt lat="48.84554" lon="2.25076">
        <ele>37.599998474121</ele>
        <time>2016-08-22T20:06:41.000Z</time>
      </trkpt>
      <trkpt lat="48.84552" lon="2.25103">
        <ele>38</ele>
        <time>2016-08-22T20:06:48.000Z</time>
      </trkpt>
      <trkpt lat="48.84548" lon="2.25123">
        <ele>38.200000762939</ele>
        <time>2016-08-22T20:06:53.000Z</time>
      </trkpt>
      <trkpt lat="48.84545" lon="2.25155">
        <ele>38.599998474121</ele>
        <time>2016-08-22T20:06:59.000Z</time>
      </trkpt>
      <trkpt lat="48.84546" lon="2.25186">
        <ele>38.799999237061</ele>
        <time>2016-08-22T20:07:04.000Z</time>
      </trkpt>
      <trkpt lat="48.84545" lon="2.25218">
        <ele>38.799999237061</ele>
        <time>2016-08-22T20:07:09.000Z</time>
      </trkpt>
      <trkpt lat="48.84544" lon="2.25248">
        <ele>38.599998474121</ele>
        <time>2016-08-22T20:07:14.000Z</time>
      </trkpt>
      <trkpt lat="48.84541" lon="2.2528">
        <ele>37.400001525879</ele>
        <time>2016-08-22T20:07:19.000Z</time>
      </trkpt>
      <trkpt lat="48.84539" lon="2.25312">
        <ele>35.799999237061</ele>
        <time>2016-08-22T20:07:24.000Z</time>
      </trkpt>
      <trkpt lat="48.84543" lon="2.25345">
        <ele>34.599998474121</ele>
        <time>2016-08-22T20:07:29.000Z</time>
      </trkpt>
      <trkpt lat="48.84545" lon="2.25371">
        <ele>34.400001525879</ele>
        <time>2016-08-22T20:07:33.000Z</time>
      </trkpt>
      <trkpt lat="48.84544" lon="2.25403">
        <ele>34.400001525879</ele>
        <time>2016-08-22T20:07:38.000Z</time>
      </trkpt>
      <trkpt lat="48.84544" lon="2.25427">
        <ele>34.599998474121</ele>
        <time>2016-08-22T20:07:42.000Z</time>
      </trkpt>
      <trkpt lat="48.84544" lon="2.25446">
        <ele>34.799999237061</ele>
        <time>2016-08-22T20:07:45.000Z</time>
      </trkpt>
      <trkpt lat="48.84544" lon="2.25458">
        <ele>34.799999237061</ele>
        <time>2016-08-22T20:07:47.000Z</time>
      </trkpt>
      <trkpt lat="48.84541" lon="2.25467">
        <ele>34.799999237061</ele>
        <time>2016-08-22T20:07:49.000Z</time>
      </trkpt>
      <trkpt lat="48.84535" lon="2.25478">
        <ele>34.799999237061</ele>
        <time>2016-08-22T20:07:52.000Z</time>
      </trkpt>
      <trkpt lat="48.84523" lon="2.25499">
        <ele>35</ele>
        <time>2016-08-22T20:07:58.000Z</time>
      </trkpt>
      <trkpt lat="48.84519" lon="2.25528">
        <ele>36</ele>
        <time>2016-08-22T20:08:04.000Z</time>
      </trkpt>
      <trkpt lat="48.84519" lon="2.25556">
        <ele>36.599998474121</ele>
        <time>2016-08-22T20:08:10.000Z</time>
      </trkpt>
      <trkpt lat="48.84521" lon="2.25575">
        <ele>37</ele>
        <time>2016-08-22T20:08:16.000Z</time>
      </trkpt>
      <trkpt lat="48.84533" lon="2.25595">
        <ele>37.400001525879</ele>
        <time>2016-08-22T20:08:22.000Z</time>
      </trkpt>
      <trkpt lat="48.84539" lon="2.25625">
        <ele>38.400001525879</ele>
        <time>2016-08-22T20:08:28.000Z</time>
      </trkpt>
      <trkpt lat="48.84537" lon="2.25658">
        <ele>39.599998474121</ele>
        <time>2016-08-22T20:08:34.000Z</time>
      </trkpt>
      <trkpt lat="48.84533" lon="2.25688">
        <ele>40.599998474121</ele>
        <time>2016-08-22T20:08:40.000Z</time>
      </trkpt>
      <trkpt lat="48.84528" lon="2.25716">
        <ele>41.799999237061</ele>
        <time>2016-08-22T20:08:46.000Z</time>
      </trkpt>
      <trkpt lat="48.84533" lon="2.25748">
        <ele>42.799999237061</ele>
        <time>2016-08-22T20:09:00.000Z</time>
      </trkpt>
      <trkpt lat="48.84537" lon="2.25754">
        <ele>43</ele>
        <time>2016-08-22T20:09:10.000Z</time>
      </trkpt>
      <trkpt lat="48.84543" lon="2.25757">
        <ele>43</ele>
        <time>2016-08-22T20:09:19.000Z</time>
      </trkpt>
      <trkpt lat="48.84542" lon="2.25785">
        <ele>45</ele>
        <time>2016-08-22T20:09:38.000Z</time>
      </trkpt>
      <trkpt lat="48.84541" lon="2.25813">
        <ele>46.599998474121</ele>
        <time>2016-08-22T20:09:44.000Z</time>
      </trkpt>
      <trkpt lat="48.84537" lon="2.25843">
        <ele>48.200000762939</ele>
        <time>2016-08-22T20:09:52.000Z</time>
      </trkpt>
      <trkpt lat="48.84536" lon="2.25855">
        <ele>48.200000762939</ele>
        <time>2016-08-22T20:09:57.000Z</time>
      </trkpt>
      <trkpt lat="48.84537" lon="2.2587">
        <ele>48</ele>
        <time>2016-08-22T20:10:04.000Z</time>
      </trkpt>
      <trkpt lat="48.8453" lon="2.25901">
        <ele>47.400001525879</ele>
        <time>2016-08-22T20:10:10.000Z</time>
      </trkpt>
      <trkpt lat="48.84529" lon="2.25931">
        <ele>47.400001525879</ele>
        <time>2016-08-22T20:10:15.000Z</time>
      </trkpt>
      <trkpt lat="48.84532" lon="2.25964">
        <ele>48</ele>
        <time>2016-08-22T20:10:20.000Z</time>
      </trkpt>
      <trkpt lat="48.84532" lon="2.25991">
        <ele>48.200000762939</ele>
        <time>2016-08-22T20:10:24.000Z</time>
      </trkpt>
      <trkpt lat="48.84533" lon="2.2602">
        <ele>48.599998474121</ele>
        <time>2016-08-22T20:10:28.000Z</time>
      </trkpt>
      <trkpt lat="48.84533" lon="2.26051">
        <ele>49</ele>
        <time>2016-08-22T20:10:33.000Z</time>
      </trkpt>
      <trkpt lat="48.84536" lon="2.26078">
        <ele>49.400001525879</ele>
        <time>2016-08-22T20:10:37.000Z</time>
      </trkpt>
      <trkpt lat="48.84536" lon="2.26112">
        <ele>49.400001525879</ele>
        <time>2016-08-22T20:10:42.000Z</time>
      </trkpt>
      <trkpt lat="48.84535" lon="2.26125">
        <ele>49.599998474121</ele>
        <time>2016-08-22T20:10:44.000Z</time>
      </trkpt>
      <trkpt lat="48.84536" lon="2.26153">
        <ele>49.799999237061</ele>
        <time>2016-08-22T20:10:48.000Z</time>
      </trkpt>
      <trkpt lat="48.8453" lon="2.26178">
        <ele>49.400001525879</ele>
        <time>2016-08-22T20:10:52.000Z</time>
      </trkpt>
      <trkpt lat="48.84524" lon="2.26203">
        <ele>47.599998474121</ele>
        <time>2016-08-22T20:10:56.000Z</time>
      </trkpt>
      <trkpt lat="48.84519" lon="2.26217">
        <ele>46.599998474121</ele>
        <time>2016-08-22T20:10:58.000Z</time>
      </trkpt>
      <trkpt lat="48.84516" lon="2.26248">
        <ele>44.799999237061</ele>
        <time>2016-08-22T20:11:02.000Z</time>
      </trkpt>
      <trkpt lat="48.84516" lon="2.26282">
        <ele>44.799999237061</ele>
        <time>2016-08-22T20:11:06.000Z</time>
      </trkpt>
      <trkpt lat="48.84516" lon="2.26317">
        <ele>44.799999237061</ele>
        <time>2016-08-22T20:11:09.000Z</time>
      </trkpt>
      <trkpt lat="48.84517" lon="2.26354">
        <ele>45.799999237061</ele>
        <time>2016-08-22T20:11:12.000Z</time>
      </trkpt>
      <trkpt lat="48.84517" lon="2.26389">
        <ele>47</ele>
        <time>2016-08-22T20:11:15.000Z</time>
      </trkpt>
      <trkpt lat="48.84516" lon="2.26417">
        <ele>47.400001525879</ele>
        <time>2016-08-22T20:11:18.000Z</time>
      </trkpt>
      <trkpt lat="48.84514" lon="2.26452">
        <ele>47</ele>
        <time>2016-08-22T20:11:22.000Z</time>
      </trkpt>
      <trkpt lat="48.84511" lon="2.26485">
        <ele>46.400001525879</ele>
        <time>2016-08-22T20:11:26.000Z</time>
      </trkpt>
      <trkpt lat="48.84508" lon="2.26516">
        <ele>46.200000762939</ele>
        <time>2016-08-22T20:11:30.000Z</time>
      </trkpt>
      <trkpt lat="48.8451" lon="2.26544">
        <ele>46</ele>
        <time>2016-08-22T20:11:33.000Z</time>
      </trkpt>
      <trkpt lat="48.84504" lon="2.26572">
        <ele>45.599998474121</ele>
        <time>2016-08-22T20:11:36.000Z</time>
      </trkpt>
      <trkpt lat="48.84503" lon="2.26606">
        <ele>44.599998474121</ele>
        <time>2016-08-22T20:11:40.000Z</time>
      </trkpt>
      <trkpt lat="48.84504" lon="2.26637">
        <ele>43.400001525879</ele>
        <time>2016-08-22T20:11:44.000Z</time>
      </trkpt>
      <trkpt lat="48.84502" lon="2.26646">
        <ele>43.200000762939</ele>
        <time>2016-08-22T20:11:46.000Z</time>
      </trkpt>
      <trkpt lat="48.84508" lon="2.26672">
        <ele>42.799999237061</ele>
        <time>2016-08-22T20:12:36.000Z</time>
      </trkpt>
      <trkpt lat="48.84522" lon="2.26692">
        <ele>42.200000762939</ele>
        <time>2016-08-22T20:12:42.000Z</time>
      </trkpt>
      <trkpt lat="48.84535" lon="2.26718">
        <ele>41.599998474121</ele>
        <time>2016-08-22T20:12:46.000Z</time>
      </trkpt>
      <trkpt lat="48.84546" lon="2.26747">
        <ele>41</ele>
        <time>2016-08-22T20:12:50.000Z</time>
      </trkpt>
      <trkpt lat="48.84558" lon="2.26775">
        <ele>41</ele>
        <time>2016-08-22T20:12:54.000Z</time>
      </trkpt>
      <trkpt lat="48.84568" lon="2.268">
        <ele>40.599998474121</ele>
        <time>2016-08-22T20:12:57.000Z</time>
      </trkpt>
      <trkpt lat="48.84578" lon="2.26825">
        <ele>39.599998474121</ele>
        <time>2016-08-22T20:13:00.000Z</time>
      </trkpt>
      <trkpt lat="48.84586" lon="2.26858">
        <ele>38.400001525879</ele>
        <time>2016-08-22T20:13:04.000Z</time>
      </trkpt>
      <trkpt lat="48.84596" lon="2.26884">
        <ele>37.799999237061</ele>
        <time>2016-08-22T20:13:07.000Z</time>
      </trkpt>
      <trkpt lat="48.84604" lon="2.26912">
        <ele>37</ele>
        <time>2016-08-22T20:13:10.000Z</time>
      </trkpt>
      <trkpt lat="48.84614" lon="2.26945">
        <ele>37.799999237061</ele>
        <time>2016-08-22T20:13:14.000Z</time>
      </trkpt>
      <trkpt lat="48.84621" lon="2.2697">
        <ele>38.599998474121</ele>
        <time>2016-08-22T20:13:17.000Z</time>
      </trkpt>
      <trkpt lat="48.84628" lon="2.27">
        <ele>39.599998474121</ele>
        <time>2016-08-22T20:13:21.000Z</time>
      </trkpt>
      <trkpt lat="48.84638" lon="2.27029">
        <ele>41.200000762939</ele>
        <time>2016-08-22T20:13:25.000Z</time>
      </trkpt>
      <trkpt lat="48.84639" lon="2.27041">
        <ele>42</ele>
        <time>2016-08-22T20:13:27.000Z</time>
      </trkpt>
      <trkpt lat="48.8464" lon="2.2705">
        <ele>42.400001525879</ele>
        <time>2016-08-22T20:13:29.000Z</time>
      </trkpt>
      <trkpt lat="48.84643" lon="2.27062">
        <ele>43.400001525879</ele>
        <time>2016-08-22T20:13:33.000Z</time>
      </trkpt>
      <trkpt lat="48.84653" lon="2.27088">
        <ele>44.799999237061</ele>
        <time>2016-08-22T20:13:39.000Z</time>
      </trkpt>
      <trkpt lat="48.84655" lon="2.27096">
        <ele>45</ele>
        <time>2016-08-22T20:13:41.000Z</time>
      </trkpt>
      <trkpt lat="48.84662" lon="2.27115">
        <ele>45.200000762939</ele>
        <time>2016-08-22T20:13:45.000Z</time>
      </trkpt>
      <trkpt lat="48.8467" lon="2.27134">
        <ele>45.799999237061</ele>
        <time>2016-08-22T20:13:48.000Z</time>
      </trkpt>
      <trkpt lat="48.84681" lon="2.27157">
        <ele>46.400001525879</ele>
        <time>2016-08-22T20:13:52.000Z</time>
      </trkpt>
      <trkpt lat="48.84695" lon="2.27181">
        <ele>46.599998474121</ele>
        <time>2016-08-22T20:13:56.000Z</time>
      </trkpt>
      <trkpt lat="48.84703" lon="2.27202">
        <ele>46.200000762939</ele>
        <time>2016-08-22T20:13:59.000Z</time>
      </trkpt>
      <trkpt lat="48.84707" lon="2.27219">
        <ele>45.799999237061</ele>
        <time>2016-08-22T20:14:01.000Z</time>
      </trkpt>
      <trkpt lat="48.84712" lon="2.27247">
        <ele>45.200000762939</ele>
        <time>2016-08-22T20:14:05.000Z</time>
      </trkpt>
      <trkpt lat="48.84719" lon="2.27281">
        <ele>44.599998474121</ele>
        <time>2016-08-22T20:14:10.000Z</time>
      </trkpt>
      <trkpt lat="48.84724" lon="2.27308">
        <ele>43.400001525879</ele>
        <time>2016-08-22T20:14:14.000Z</time>
      </trkpt>
      <trkpt lat="48.84727" lon="2.27313">
        <ele>43.200000762939</ele>
        <time>2016-08-22T20:14:15.000Z</time>
      </trkpt>
      <trkpt lat="48.84736" lon="2.27336">
        <ele>42.599998474121</ele>
        <time>2016-08-22T20:14:20.000Z</time>
      </trkpt>
      <trkpt lat="48.84728" lon="2.27367">
        <ele>41</ele>
        <time>2016-08-22T20:14:26.000Z</time>
      </trkpt>
      <trkpt lat="48.84728" lon="2.27372">
        <ele>40.799999237061</ele>
        <time>2016-08-22T20:14:28.000Z</time>
      </trkpt>
      <trkpt lat="48.84728" lon="2.27375">
        <ele>40.799999237061</ele>
        <time>2016-08-22T20:14:29.000Z</time>
      </trkpt>
      <trkpt lat="48.84732" lon="2.27385">
        <ele>40.799999237061</ele>
        <time>2016-08-22T20:14:32.000Z</time>
      </trkpt>
      <trkpt lat="48.84748" lon="2.274">
        <ele>41.200000762939</ele>
        <time>2016-08-22T20:14:37.000Z</time>
      </trkpt>
      <trkpt lat="48.84766" lon="2.27414">
        <ele>41.799999237061</ele>
        <time>2016-08-22T20:14:42.000Z</time>
      </trkpt>
      <trkpt lat="48.84783" lon="2.27432">
        <ele>42.799999237061</ele>
        <time>2016-08-22T20:14:47.000Z</time>
      </trkpt>
      <trkpt lat="48.84797" lon="2.2745">
        <ele>43.400001525879</ele>
        <time>2016-08-22T20:14:52.000Z</time>
      </trkpt>
      <trkpt lat="48.84812" lon="2.27468">
        <ele>44.200000762939</ele>
        <time>2016-08-22T20:14:57.000Z</time>
      </trkpt>
      <trkpt lat="48.8483" lon="2.27484">
        <ele>45</ele>
        <time>2016-08-22T20:15:01.000Z</time>
      </trkpt>
      <trkpt lat="48.84851" lon="2.27495">
        <ele>45.799999237061</ele>
        <time>2016-08-22T20:15:04.000Z</time>
      </trkpt>
      <trkpt lat="48.84871" lon="2.27508">
        <ele>46.200000762939</ele>
        <time>2016-08-22T20:15:08.000Z</time>
      </trkpt>
      <trkpt lat="48.84888" lon="2.27525">
        <ele>46.599998474121</ele>
        <time>2016-08-22T20:15:13.000Z</time>
      </trkpt>
      <trkpt lat="48.84907" lon="2.27535">
        <ele>47</ele>
        <time>2016-08-22T20:15:17.000Z</time>
      </trkpt>
      <trkpt lat="48.84924" lon="2.27547">
        <ele>47.200000762939</ele>
        <time>2016-08-22T20:15:21.000Z</time>
      </trkpt>
      <trkpt lat="48.8494" lon="2.27563">
        <ele>47.599998474121</ele>
        <time>2016-08-22T20:15:25.000Z</time>
      </trkpt>
      <trkpt lat="48.84962" lon="2.27577">
        <ele>46.599998474121</ele>
        <time>2016-08-22T20:15:29.000Z</time>
      </trkpt>
      <trkpt lat="48.84982" lon="2.27592">
        <ele>45.599998474121</ele>
        <time>2016-08-22T20:15:33.000Z</time>
      </trkpt>
      <trkpt lat="48.84997" lon="2.27604">
        <ele>44.799999237061</ele>
        <time>2016-08-22T20:15:36.000Z</time>
      </trkpt>
      <trkpt lat="48.85012" lon="2.27628">
        <ele>44.200000762939</ele>
        <time>2016-08-22T20:15:40.000Z</time>
      </trkpt>
      <trkpt lat="48.85026" lon="2.27652">
        <ele>43.599998474121</ele>
        <time>2016-08-22T20:15:44.000Z</time>
      </trkpt>
      <trkpt lat="48.85039" lon="2.27677">
        <ele>42.599998474121</ele>
        <time>2016-08-22T20:15:48.000Z</time>
      </trkpt>
      <trkpt lat="48.85051" lon="2.27702">
        <ele>40.799999237061</ele>
        <time>2016-08-22T20:15:52.000Z</time>
      </trkpt>
      <trkpt lat="48.85063" lon="2.27724">
        <ele>39</ele>
        <time>2016-08-22T20:15:56.000Z</time>
      </trkpt>
      <trkpt lat="48.85069" lon="2.27734">
        <ele>38</ele>
        <time>2016-08-22T20:15:58.000Z</time>
      </trkpt>
      <trkpt lat="48.85076" lon="2.27744">
        <ele>37.200000762939</ele>
        <time>2016-08-22T20:16:00.000Z</time>
      </trkpt>
      <trkpt lat="48.85086" lon="2.27772">
        <ele>37</ele>
        <time>2016-08-22T20:16:05.000Z</time>
      </trkpt>
      <trkpt lat="48.85099" lon="2.27793">
        <ele>37</ele>
        <time>2016-08-22T20:16:10.000Z</time>
      </trkpt>
      <trkpt lat="48.85101" lon="2.27813">
        <ele>37</ele>
        <time>2016-08-22T20:16:17.000Z</time>
      </trkpt>
      <trkpt lat="48.85106" lon="2.27821">
        <ele>37</ele>
        <time>2016-08-22T20:16:21.000Z</time>
      </trkpt>
      <trkpt lat="48.85112" lon="2.27828">
        <ele>37</ele>
        <time>2016-08-22T20:16:24.000Z</time>
      </trkpt>
      <trkpt lat="48.85124" lon="2.27847">
        <ele>36.799999237061</ele>
        <time>2016-08-22T20:16:36.000Z</time>
      </trkpt>
      <trkpt lat="48.85139" lon="2.27867">
        <ele>36.400001525879</ele>
        <time>2016-08-22T20:16:42.000Z</time>
      </trkpt>
      <trkpt lat="48.85153" lon="2.27891">
        <ele>35.599998474121</ele>
        <time>2016-08-22T20:16:47.000Z</time>
      </trkpt>
      <trkpt lat="48.85166" lon="2.27914">
        <ele>34.799999237061</ele>
        <time>2016-08-22T20:16:51.000Z</time>
      </trkpt>
      <trkpt lat="48.8518" lon="2.27939">
        <ele>34.200000762939</ele>
        <time>2016-08-22T20:16:55.000Z</time>
      </trkpt>
      <trkpt lat="48.85193" lon="2.27962">
        <ele>34</ele>
        <time>2016-08-22T20:16:59.000Z</time>
      </trkpt>
      <trkpt lat="48.8521" lon="2.27984">
        <ele>33.799999237061</ele>
        <time>2016-08-22T20:17:03.000Z</time>
      </trkpt>
      <trkpt lat="48.85224" lon="2.28">
        <ele>33.799999237061</ele>
        <time>2016-08-22T20:17:06.000Z</time>
      </trkpt>
      <trkpt lat="48.85242" lon="2.28024">
        <ele>33.599998474121</ele>
        <time>2016-08-22T20:17:10.000Z</time>
      </trkpt>
      <trkpt lat="48.85255" lon="2.28043">
        <ele>33.200000762939</ele>
        <time>2016-08-22T20:17:13.000Z</time>
      </trkpt>
      <trkpt lat="48.85271" lon="2.28066">
        <ele>32.599998474121</ele>
        <time>2016-08-22T20:17:17.000Z</time>
      </trkpt>
      <trkpt lat="48.85283" lon="2.28086">
        <ele>33.599998474121</ele>
        <time>2016-08-22T20:17:20.000Z</time>
      </trkpt>
      <trkpt lat="48.85296" lon="2.28112">
        <ele>34.200000762939</ele>
        <time>2016-08-22T20:17:24.000Z</time>
      </trkpt>
      <trkpt lat="48.85301" lon="2.28123">
        <ele>34.599998474121</ele>
        <time>2016-08-22T20:17:26.000Z</time>
      </trkpt>
      <trkpt lat="48.85313" lon="2.28147">
        <ele>35.599998474121</ele>
        <time>2016-08-22T20:17:30.000Z</time>
      </trkpt>
      <trkpt lat="48.85325" lon="2.28171">
        <ele>35.799999237061</ele>
        <time>2016-08-22T20:17:34.000Z</time>
      </trkpt>
      <trkpt lat="48.8534" lon="2.28194">
        <ele>35</ele>
        <time>2016-08-22T20:17:38.000Z</time>
      </trkpt>
      <trkpt lat="48.85354" lon="2.28216">
        <ele>34</ele>
        <time>2016-08-22T20:17:42.000Z</time>
      </trkpt>
      <trkpt lat="48.85366" lon="2.28238">
        <ele>32.599998474121</ele>
        <time>2016-08-22T20:17:46.000Z</time>
      </trkpt>
      <trkpt lat="48.85378" lon="2.28262">
        <ele>32.799999237061</ele>
        <time>2016-08-22T20:17:50.000Z</time>
      </trkpt>
      <trkpt lat="48.85392" lon="2.28282">
        <ele>34</ele>
        <time>2016-08-22T20:17:53.000Z</time>
      </trkpt>
      <trkpt lat="48.85406" lon="2.28302">
        <ele>34.799999237061</ele>
        <time>2016-08-22T20:17:57.000Z</time>
      </trkpt>
      <trkpt lat="48.85419" lon="2.28323">
        <ele>35.400001525879</ele>
        <time>2016-08-22T20:18:01.000Z</time>
      </trkpt>
      <trkpt lat="48.85437" lon="2.28342">
        <ele>37.200000762939</ele>
        <time>2016-08-22T20:18:05.000Z</time>
      </trkpt>
      <trkpt lat="48.85455" lon="2.28362">
        <ele>39</ele>
        <time>2016-08-22T20:18:09.000Z</time>
      </trkpt>
      <trkpt lat="48.85472" lon="2.28382">
        <ele>40.400001525879</ele>
        <time>2016-08-22T20:18:13.000Z</time>
      </trkpt>
      <trkpt lat="48.8549" lon="2.28402">
        <ele>42</ele>
        <time>2016-08-22T20:18:17.000Z</time>
      </trkpt>
      <trkpt lat="48.85507" lon="2.28423">
        <ele>43.200000762939</ele>
        <time>2016-08-22T20:18:21.000Z</time>
      </trkpt>
      <trkpt lat="48.85525" lon="2.28445">
        <ele>43.799999237061</ele>
        <time>2016-08-22T20:18:25.000Z</time>
      </trkpt>
      <trkpt lat="48.85538" lon="2.28462">
        <ele>42.599998474121</ele>
        <time>2016-08-22T20:18:28.000Z</time>
      </trkpt>
      <trkpt lat="48.85552" lon="2.28484">
        <ele>41.200000762939</ele>
        <time>2016-08-22T20:18:32.000Z</time>
      </trkpt>
      <trkpt lat="48.85567" lon="2.28506">
        <ele>40.400001525879</ele>
        <time>2016-08-22T20:18:36.000Z</time>
      </trkpt>
      <trkpt lat="48.85583" lon="2.28526">
        <ele>40</ele>
        <time>2016-08-22T20:18:40.000Z</time>
      </trkpt>
      <trkpt lat="48.85598" lon="2.28546">
        <ele>39.799999237061</ele>
        <time>2016-08-22T20:18:44.000Z</time>
      </trkpt>
      <trkpt lat="48.85612" lon="2.28566">
        <ele>40</ele>
        <time>2016-08-22T20:18:48.000Z</time>
      </trkpt>
      <trkpt lat="48.85621" lon="2.28573">
        <ele>40.799999237061</ele>
        <time>2016-08-22T20:18:50.000Z</time>
      </trkpt>
      <trkpt lat="48.85639" lon="2.28592">
        <ele>41.599998474121</ele>
        <time>2016-08-22T20:18:54.000Z</time>
      </trkpt>
      <trkpt lat="48.85654" lon="2.28611">
        <ele>42</ele>
        <time>2016-08-22T20:18:58.000Z</time>
      </trkpt>
      <trkpt lat="48.85668" lon="2.28629">
        <ele>42.200000762939</ele>
        <time>2016-08-22T20:19:02.000Z</time>
      </trkpt>
      <trkpt lat="48.85672" lon="2.28634">
        <ele>42.200000762939</ele>
        <time>2016-08-22T20:19:03.000Z</time>
      </trkpt>
      <trkpt lat="48.85682" lon="2.28644">
        <ele>42.599998474121</ele>
        <time>2016-08-22T20:19:06.000Z</time>
      </trkpt>
      <trkpt lat="48.85698" lon="2.28661">
        <ele>43.599998474121</ele>
        <time>2016-08-22T20:19:10.000Z</time>
      </trkpt>
      <trkpt lat="48.85705" lon="2.2867">
        <ele>43.799999237061</ele>
        <time>2016-08-22T20:19:12.000Z</time>
      </trkpt>
      <trkpt lat="48.85713" lon="2.28681">
        <ele>43.799999237061</ele>
        <time>2016-08-22T20:19:14.000Z</time>
      </trkpt>
      <trkpt lat="48.85728" lon="2.28702">
        <ele>43.799999237061</ele>
        <time>2016-08-22T20:19:18.000Z</time>
      </trkpt>
      <trkpt lat="48.85743" lon="2.28724">
        <ele>43.799999237061</ele>
        <time>2016-08-22T20:19:23.000Z</time>
      </trkpt>
      <trkpt lat="48.85756" lon="2.28738">
        <ele>44.200000762939</ele>
        <time>2016-08-22T20:19:26.000Z</time>
      </trkpt>
      <trkpt lat="48.85772" lon="2.28754">
        <ele>44.599998474121</ele>
        <time>2016-08-22T20:19:31.000Z</time>
      </trkpt>
      <trkpt lat="48.85773" lon="2.28761">
        <ele>43.599998474121</ele>
        <time>2016-08-22T20:19:33.000Z</time>
      </trkpt>
      <trkpt lat="48.85802" lon="2.28807">
        <ele>39.400001525879</ele>
        <time>2016-08-22T20:19:47.000Z</time>
      </trkpt>
      <trkpt lat="48.85802" lon="2.28811">
        <ele>38.599998474121</ele>
        <time>2016-08-22T20:19:48.000Z</time>
      </trkpt>
      <trkpt lat="48.85797" lon="2.28826">
        <ele>35</ele>
        <time>2016-08-22T20:19:51.000Z</time>
      </trkpt>
      <trkpt lat="48.85801" lon="2.2883">
        <ele>35.200000762939</ele>
        <time>2016-08-22T20:19:53.000Z</time>
      </trkpt>
      <trkpt lat="48.85819" lon="2.28846">
        <ele>35.599998474121</ele>
        <time>2016-08-22T20:20:00.000Z</time>
      </trkpt>
      <trkpt lat="48.85831" lon="2.2887">
        <ele>34.400001525879</ele>
        <time>2016-08-22T20:20:07.000Z</time>
      </trkpt>
      <trkpt lat="48.85845" lon="2.28889">
        <ele>34.200000762939</ele>
        <time>2016-08-22T20:20:13.000Z</time>
      </trkpt>
      <trkpt lat="48.85862" lon="2.28909">
        <ele>34</ele>
        <time>2016-08-22T20:20:20.000Z</time>
      </trkpt>
      <trkpt lat="48.85881" lon="2.28924">
        <ele>34.200000762939</ele>
        <time>2016-08-22T20:20:25.000Z</time>
      </trkpt>
      <trkpt lat="48.85897" lon="2.28943">
        <ele>34</ele>
        <time>2016-08-22T20:20:31.000Z</time>
      </trkpt>
      <trkpt lat="48.85911" lon="2.28963">
        <ele>33.599998474121</ele>
        <time>2016-08-22T20:20:36.000Z</time>
      </trkpt>
      <trkpt lat="48.85925" lon="2.28984">
        <ele>32.799999237061</ele>
        <time>2016-08-22T20:20:41.000Z</time>
      </trkpt>
      <trkpt lat="48.85941" lon="2.29001">
        <ele>32.799999237061</ele>
        <time>2016-08-22T20:20:46.000Z</time>
      </trkpt>
      <trkpt lat="48.85956" lon="2.2902">
        <ele>32.799999237061</ele>
        <time>2016-08-22T20:20:51.000Z</time>
      </trkpt>
      <trkpt lat="48.85971" lon="2.29038">
        <ele>32.599998474121</ele>
        <time>2016-08-22T20:20:57.000Z</time>
      </trkpt>
      <trkpt lat="48.85987" lon="2.29058">
        <ele>32.400001525879</ele>
        <time>2016-08-22T20:21:03.000Z</time>
      </trkpt>
      <trkpt lat="48.85998" lon="2.29079">
        <ele>32.200000762939</ele>
        <time>2016-08-22T20:21:12.000Z</time>
      </trkpt>
      <trkpt lat="48.86013" lon="2.29096">
        <ele>31.60000038147</ele>
        <time>2016-08-22T20:21:23.000Z</time>
      </trkpt>
      <trkpt lat="48.86024" lon="2.29115">
        <ele>31</ele>
        <time>2016-08-22T20:21:30.000Z</time>
      </trkpt>
      <trkpt lat="48.86014" lon="2.29121">
        <ele>30.200000762939</ele>
        <time>2016-08-22T20:23:02.000Z</time>
      </trkpt>
      <trkpt lat="48.86022" lon="2.29127">
        <ele>30.200000762939</ele>
        <time>2016-08-22T20:23:09.000Z</time>
      </trkpt>
      <trkpt lat="48.86031" lon="2.29131">
        <ele>30.39999961853</ele>
        <time>2016-08-22T20:23:14.000Z</time>
      </trkpt>
      <trkpt lat="48.86051" lon="2.29143">
        <ele>30.60000038147</ele>
        <time>2016-08-22T20:23:21.000Z</time>
      </trkpt>
      <trkpt lat="48.86065" lon="2.2916">
        <ele>30.200000762939</ele>
        <time>2016-08-22T20:23:26.000Z</time>
      </trkpt>
      <trkpt lat="48.86081" lon="2.29175">
        <ele>30.60000038147</ele>
        <time>2016-08-22T20:23:32.000Z</time>
      </trkpt>
      <trkpt lat="48.86091" lon="2.29198">
        <ele>30.799999237061</ele>
        <time>2016-08-22T20:23:43.000Z</time>
      </trkpt>
      <trkpt lat="48.86104" lon="2.29217">
        <ele>31.200000762939</ele>
        <time>2016-08-22T20:23:51.000Z</time>
      </trkpt>
      <trkpt lat="48.86119" lon="2.2924">
        <ele>31.799999237061</ele>
        <time>2016-08-22T20:23:57.000Z</time>
      </trkpt>
      <trkpt lat="48.86133" lon="2.29258">
        <ele>31.799999237061</ele>
        <time>2016-08-22T20:24:03.000Z</time>
      </trkpt>
      <trkpt lat="48.8615" lon="2.29276">
        <ele>31.60000038147</ele>
        <time>2016-08-22T20:24:10.000Z</time>
      </trkpt>
      <trkpt lat="48.86165" lon="2.29296">
        <ele>31</ele>
        <time>2016-08-22T20:24:15.000Z</time>
      </trkpt>
      <trkpt lat="48.86178" lon="2.29315">
        <ele>30.39999961853</ele>
        <time>2016-08-22T20:24:19.000Z</time>
      </trkpt>
      <trkpt lat="48.86194" lon="2.29334">
        <ele>30.39999961853</ele>
        <time>2016-08-22T20:24:23.000Z</time>
      </trkpt>
      <trkpt lat="48.86207" lon="2.29354">
        <ele>31.39999961853</ele>
        <time>2016-08-22T20:24:27.000Z</time>
      </trkpt>
      <trkpt lat="48.86223" lon="2.29374">
        <ele>32.799999237061</ele>
        <time>2016-08-22T20:24:31.000Z</time>
      </trkpt>
      <trkpt lat="48.86235" lon="2.29399">
        <ele>33.799999237061</ele>
        <time>2016-08-22T20:24:36.000Z</time>
      </trkpt>
      <trkpt lat="48.86243" lon="2.29412">
        <ele>34.599998474121</ele>
        <time>2016-08-22T20:24:39.000Z</time>
      </trkpt>
      <trkpt lat="48.86252" lon="2.29431">
        <ele>34.400001525879</ele>
        <time>2016-08-22T20:24:43.000Z</time>
      </trkpt>
      <trkpt lat="48.86259" lon="2.29444">
        <ele>34.400001525879</ele>
        <time>2016-08-22T20:24:46.000Z</time>
      </trkpt>
      <trkpt lat="48.86269" lon="2.29473">
        <ele>33.799999237061</ele>
        <time>2016-08-22T20:24:51.000Z</time>
      </trkpt>
      <trkpt lat="48.86277" lon="2.29498">
        <ele>33.200000762939</ele>
        <time>2016-08-22T20:24:55.000Z</time>
      </trkpt>
      <trkpt lat="48.86286" lon="2.29525">
        <ele>33</ele>
        <time>2016-08-22T20:25:00.000Z</time>
      </trkpt>
      <trkpt lat="48.86288" lon="2.29535">
        <ele>32.799999237061</ele>
        <time>2016-08-22T20:25:02.000Z</time>
      </trkpt>
      <trkpt lat="48.86298" lon="2.29562">
        <ele>32.599998474121</ele>
        <time>2016-08-22T20:25:07.000Z</time>
      </trkpt>
      <trkpt lat="48.8631" lon="2.29588">
        <ele>32.599998474121</ele>
        <time>2016-08-22T20:25:12.000Z</time>
      </trkpt>
      <trkpt lat="48.86318" lon="2.29612">
        <ele>32.799999237061</ele>
        <time>2016-08-22T20:25:17.000Z</time>
      </trkpt>
      <trkpt lat="48.86323" lon="2.29634">
        <ele>32.599998474121</ele>
        <time>2016-08-22T20:25:24.000Z</time>
      </trkpt>
      <trkpt lat="48.86332" lon="2.29659">
        <ele>32.200000762939</ele>
        <time>2016-08-22T20:25:30.000Z</time>
      </trkpt>
      <trkpt lat="48.86337" lon="2.29671">
        <ele>32.400001525879</ele>
        <time>2016-08-22T20:25:34.000Z</time>
      </trkpt>
      <trkpt lat="48.86339" lon="2.29687">
        <ele>32.599998474121</ele>
        <time>2016-08-22T20:25:38.000Z</time>
      </trkpt>
      <trkpt lat="48.86344" lon="2.29719">
        <ele>33</ele>
        <time>2016-08-22T20:25:44.000Z</time>
      </trkpt>
      <trkpt lat="48.86351" lon="2.2975">
        <ele>33.400001525879</ele>
        <time>2016-08-22T20:25:50.000Z</time>
      </trkpt>
      <trkpt lat="48.86355" lon="2.2978">
        <ele>33.599998474121</ele>
        <time>2016-08-22T20:25:56.000Z</time>
      </trkpt>
      <trkpt lat="48.8636" lon="2.29811">
        <ele>33.599998474121</ele>
        <time>2016-08-22T20:26:01.000Z</time>
      </trkpt>
      <trkpt lat="48.86368" lon="2.29839">
        <ele>34.400001525879</ele>
        <time>2016-08-22T20:26:05.000Z</time>
      </trkpt>
      <trkpt lat="48.86373" lon="2.29866">
        <ele>34.799999237061</ele>
        <time>2016-08-22T20:26:09.000Z</time>
      </trkpt>
      <trkpt lat="48.86379" lon="2.29897">
        <ele>35</ele>
        <time>2016-08-22T20:26:13.000Z</time>
      </trkpt>
      <trkpt lat="48.86382" lon="2.29911">
        <ele>35</ele>
        <time>2016-08-22T20:26:15.000Z</time>
      </trkpt>
      <trkpt lat="48.86383" lon="2.29924">
        <ele>36</ele>
        <time>2016-08-22T20:26:17.000Z</time>
      </trkpt>
      <trkpt lat="48.86388" lon="2.29952">
        <ele>38.599998474121</ele>
        <time>2016-08-22T20:26:21.000Z</time>
      </trkpt>
      <trkpt lat="48.86393" lon="2.29981">
        <ele>41.599998474121</ele>
        <time>2016-08-22T20:26:25.000Z</time>
      </trkpt>
      <trkpt lat="48.86397" lon="2.3001">
        <ele>41.200000762939</ele>
        <time>2016-08-22T20:26:29.000Z</time>
      </trkpt>
      <trkpt lat="48.86401" lon="2.30032">
        <ele>38</ele>
        <time>2016-08-22T20:26:33.000Z</time>
      </trkpt>
      <trkpt lat="48.86404" lon="2.30051">
        <ele>35.799999237061</ele>
        <time>2016-08-22T20:26:37.000Z</time>
      </trkpt>
      <trkpt lat="48.86404" lon="2.30056">
        <ele>35.400001525879</ele>
        <time>2016-08-22T20:26:38.000Z</time>
      </trkpt>
      <trkpt lat="48.86405" lon="2.30065">
        <ele>34.599998474121</ele>
        <time>2016-08-22T20:26:40.000Z</time>
      </trkpt>
      <trkpt lat="48.86407" lon="2.30076">
        <ele>33.599998474121</ele>
        <time>2016-08-22T20:26:43.000Z</time>
      </trkpt>
      <trkpt lat="48.86409" lon="2.30087">
        <ele>32.400001525879</ele>
        <time>2016-08-22T20:26:46.000Z</time>
      </trkpt>
      <trkpt lat="48.86412" lon="2.3011">
        <ele>29.200000762939</ele>
        <time>2016-08-22T20:26:52.000Z</time>
      </trkpt>
      <trkpt lat="48.86411" lon="2.30138">
        <ele>25.60000038147</ele>
        <time>2016-08-22T20:27:00.000Z</time>
      </trkpt>
      <trkpt lat="48.86411" lon="2.30139">
        <ele>25.60000038147</ele>
        <time>2016-08-22T20:27:01.000Z</time>
      </trkpt>
      <trkpt lat="48.86413" lon="2.30164">
        <ele>25</ele>
        <time>2016-08-22T20:28:05.000Z</time>
      </trkpt>
      <trkpt lat="48.86414" lon="2.30166">
        <ele>25</ele>
        <time>2016-08-22T20:28:06.000Z</time>
      </trkpt>
      <trkpt lat="48.86418" lon="2.30178">
        <ele>25.60000038147</ele>
        <time>2016-08-22T20:28:10.000Z</time>
      </trkpt>
      <trkpt lat="48.86422" lon="2.302">
        <ele>26.799999237061</ele>
        <time>2016-08-22T20:28:18.000Z</time>
      </trkpt>
      <trkpt lat="48.86427" lon="2.30214">
        <ele>27.39999961853</ele>
        <time>2016-08-22T20:29:07.000Z</time>
      </trkpt>
      <trkpt lat="48.86426" lon="2.30242">
        <ele>28.799999237061</ele>
        <time>2016-08-22T20:29:12.000Z</time>
      </trkpt>
      <trkpt lat="48.86426" lon="2.3027">
        <ele>29.799999237061</ele>
        <time>2016-08-22T20:29:16.000Z</time>
      </trkpt>
      <trkpt lat="48.86426" lon="2.30301">
        <ele>31</ele>
        <time>2016-08-22T20:29:20.000Z</time>
      </trkpt>
      <trkpt lat="48.86427" lon="2.30335">
        <ele>31.39999961853</ele>
        <time>2016-08-22T20:29:24.000Z</time>
      </trkpt>
      <trkpt lat="48.86428" lon="2.30368">
        <ele>31.799999237061</ele>
        <time>2016-08-22T20:29:28.000Z</time>
      </trkpt>
      <trkpt lat="48.86432" lon="2.30399">
        <ele>32.400001525879</ele>
        <time>2016-08-22T20:29:32.000Z</time>
      </trkpt>
      <trkpt lat="48.86437" lon="2.30431">
        <ele>32.400001525879</ele>
        <time>2016-08-22T20:29:36.000Z</time>
      </trkpt>
      <trkpt lat="48.86441" lon="2.30464">
        <ele>32</ele>
        <time>2016-08-22T20:29:40.000Z</time>
      </trkpt>
      <trkpt lat="48.86441" lon="2.30491">
        <ele>31.39999961853</ele>
        <time>2016-08-22T20:29:43.000Z</time>
      </trkpt>
      <trkpt lat="48.86439" lon="2.30524">
        <ele>31.200000762939</ele>
        <time>2016-08-22T20:29:47.000Z</time>
      </trkpt>
      <trkpt lat="48.86439" lon="2.30553">
        <ele>31.60000038147</ele>
        <time>2016-08-22T20:29:51.000Z</time>
      </trkpt>
      <trkpt lat="48.86439" lon="2.30584">
        <ele>32</ele>
        <time>2016-08-22T20:29:55.000Z</time>
      </trkpt>
      <trkpt lat="48.86439" lon="2.30613">
        <ele>32.799999237061</ele>
        <time>2016-08-22T20:29:59.000Z</time>
      </trkpt>
      <trkpt lat="48.86438" lon="2.30643">
        <ele>33.400001525879</ele>
        <time>2016-08-22T20:30:03.000Z</time>
      </trkpt>
      <trkpt lat="48.86438" lon="2.30676">
        <ele>33.599998474121</ele>
        <time>2016-08-22T20:30:07.000Z</time>
      </trkpt>
      <trkpt lat="48.86439" lon="2.30705">
        <ele>33</ele>
        <time>2016-08-22T20:30:11.000Z</time>
      </trkpt>
      <trkpt lat="48.86439" lon="2.3074">
        <ele>32.200000762939</ele>
        <time>2016-08-22T20:30:15.000Z</time>
      </trkpt>
      <trkpt lat="48.86439" lon="2.30768">
        <ele>32</ele>
        <time>2016-08-22T20:30:18.000Z</time>
      </trkpt>
      <trkpt lat="48.8644" lon="2.308">
        <ele>32</ele>
        <time>2016-08-22T20:30:21.000Z</time>
      </trkpt>
      <trkpt lat="48.86442" lon="2.30835">
        <ele>32.200000762939</ele>
        <time>2016-08-22T20:30:24.000Z</time>
      </trkpt>
      <trkpt lat="48.86442" lon="2.30862">
        <ele>31.60000038147</ele>
        <time>2016-08-22T20:30:27.000Z</time>
      </trkpt>
      <trkpt lat="48.86443" lon="2.3089">
        <ele>31</ele>
        <time>2016-08-22T20:30:30.000Z</time>
      </trkpt>
      <trkpt lat="48.86445" lon="2.30918">
        <ele>30.60000038147</ele>
        <time>2016-08-22T20:30:33.000Z</time>
      </trkpt>
      <trkpt lat="48.86446" lon="2.30952">
        <ele>30.799999237061</ele>
        <time>2016-08-22T20:30:37.000Z</time>
      </trkpt>
      <trkpt lat="48.86448" lon="2.30983">
        <ele>31.200000762939</ele>
        <time>2016-08-22T20:30:41.000Z</time>
      </trkpt>
      <trkpt lat="48.86448" lon="2.30997">
        <ele>31</ele>
        <time>2016-08-22T20:30:43.000Z</time>
      </trkpt>
      <trkpt lat="48.86444" lon="2.31026">
        <ele>29.39999961853</ele>
        <time>2016-08-22T20:30:50.000Z</time>
      </trkpt>
      <trkpt lat="48.8645" lon="2.31055">
        <ele>29</ele>
        <time>2016-08-22T20:30:58.000Z</time>
      </trkpt>
      <trkpt lat="48.8645" lon="2.31059">
        <ele>29</ele>
        <time>2016-08-22T20:30:59.000Z</time>
      </trkpt>
      <trkpt lat="48.8645" lon="2.3108">
        <ele>28.200000762939</ele>
        <time>2016-08-22T20:31:03.000Z</time>
      </trkpt>
      <trkpt lat="48.8645" lon="2.31114">
        <ele>28.200000762939</ele>
        <time>2016-08-22T20:31:08.000Z</time>
      </trkpt>
      <trkpt lat="48.86449" lon="2.31142">
        <ele>28.200000762939</ele>
        <time>2016-08-22T20:31:12.000Z</time>
      </trkpt>
      <trkpt lat="48.86448" lon="2.31174">
        <ele>28.799999237061</ele>
        <time>2016-08-22T20:31:16.000Z</time>
      </trkpt>
      <trkpt lat="48.86449" lon="2.31204">
        <ele>31.60000038147</ele>
        <time>2016-08-22T20:31:20.000Z</time>
      </trkpt>
      <trkpt lat="48.8645" lon="2.31235">
        <ele>34.799999237061</ele>
        <time>2016-08-22T20:31:24.000Z</time>
      </trkpt>
      <trkpt lat="48.86451" lon="2.31265">
        <ele>36</ele>
        <time>2016-08-22T20:31:28.000Z</time>
      </trkpt>
      <trkpt lat="48.86451" lon="2.31293">
        <ele>35</ele>
        <time>2016-08-22T20:31:32.000Z</time>
      </trkpt>
      <trkpt lat="48.86451" lon="2.31301">
        <ele>34.599998474121</ele>
        <time>2016-08-22T20:31:33.000Z</time>
      </trkpt>
      <trkpt lat="48.86449" lon="2.31332">
        <ele>33</ele>
        <time>2016-08-22T20:31:38.000Z</time>
      </trkpt>
      <trkpt lat="48.86448" lon="2.31338">
        <ele>32.599998474121</ele>
        <time>2016-08-22T20:31:39.000Z</time>
      </trkpt>
      <trkpt lat="48.86444" lon="2.31364">
        <ele>31.60000038147</ele>
        <time>2016-08-22T20:31:53.000Z</time>
      </trkpt>
      <trkpt lat="48.86451" lon="2.31389">
        <ele>31.60000038147</ele>
        <time>2016-08-22T20:32:00.000Z</time>
      </trkpt>
      <trkpt lat="48.86462" lon="2.31414">
        <ele>31.799999237061</ele>
        <time>2016-08-22T20:32:05.000Z</time>
      </trkpt>
      <trkpt lat="48.86463" lon="2.3142">
        <ele>32.400001525879</ele>
        <time>2016-08-22T20:32:06.000Z</time>
      </trkpt>
      <trkpt lat="48.86464" lon="2.31448">
        <ele>34</ele>
        <time>2016-08-22T20:32:10.000Z</time>
      </trkpt>
      <trkpt lat="48.86464" lon="2.3148">
        <ele>33.599998474121</ele>
        <time>2016-08-22T20:32:14.000Z</time>
      </trkpt>
      <trkpt lat="48.86464" lon="2.31513">
        <ele>31.60000038147</ele>
        <time>2016-08-22T20:32:18.000Z</time>
      </trkpt>
      <trkpt lat="48.86464" lon="2.31544">
        <ele>30</ele>
        <time>2016-08-22T20:32:22.000Z</time>
      </trkpt>
      <trkpt lat="48.86463" lon="2.31578">
        <ele>28.60000038147</ele>
        <time>2016-08-22T20:32:26.000Z</time>
      </trkpt>
      <trkpt lat="48.86464" lon="2.31606">
        <ele>27</ele>
        <time>2016-08-22T20:32:29.000Z</time>
      </trkpt>
      <trkpt lat="48.86465" lon="2.31641">
        <ele>27</ele>
        <time>2016-08-22T20:32:33.000Z</time>
      </trkpt>
      <trkpt lat="48.86465" lon="2.31668">
        <ele>27.200000762939</ele>
        <time>2016-08-22T20:32:36.000Z</time>
      </trkpt>
      <trkpt lat="48.86465" lon="2.31702">
        <ele>30.799999237061</ele>
        <time>2016-08-22T20:32:40.000Z</time>
      </trkpt>
      <trkpt lat="48.86467" lon="2.31735">
        <ele>36.599998474121</ele>
        <time>2016-08-22T20:32:44.000Z</time>
      </trkpt>
      <trkpt lat="48.86468" lon="2.31768">
        <ele>38.599998474121</ele>
        <time>2016-08-22T20:32:48.000Z</time>
      </trkpt>
      <trkpt lat="48.86467" lon="2.31788">
        <ele>37.400001525879</ele>
        <time>2016-08-22T20:32:51.000Z</time>
      </trkpt>
      <trkpt lat="48.86468" lon="2.31818">
        <ele>34.599998474121</ele>
        <time>2016-08-22T20:32:55.000Z</time>
      </trkpt>
      <trkpt lat="48.86468" lon="2.31825">
        <ele>33.799999237061</ele>
        <time>2016-08-22T20:32:56.000Z</time>
      </trkpt>
      <trkpt lat="48.86457" lon="2.31849">
        <ele>32.400001525879</ele>
        <time>2016-08-22T20:33:00.000Z</time>
      </trkpt>
      <trkpt lat="48.86451" lon="2.31859">
        <ele>31.60000038147</ele>
        <time>2016-08-22T20:33:02.000Z</time>
      </trkpt>
      <trkpt lat="48.86449" lon="2.31863">
        <ele>31.200000762939</ele>
        <time>2016-08-22T20:33:03.000Z</time>
      </trkpt>
      <trkpt lat="48.86442" lon="2.31883">
        <ele>29.39999961853</ele>
        <time>2016-08-22T20:33:07.000Z</time>
      </trkpt>
      <trkpt lat="48.8644" lon="2.31888">
        <ele>28.799999237061</ele>
        <time>2016-08-22T20:33:08.000Z</time>
      </trkpt>
      <trkpt lat="48.86434" lon="2.31913">
        <ele>27.200000762939</ele>
        <time>2016-08-22T20:33:13.000Z</time>
      </trkpt>
      <trkpt lat="48.86429" lon="2.31938">
        <ele>27.799999237061</ele>
        <time>2016-08-22T20:33:18.000Z</time>
      </trkpt>
      <trkpt lat="48.86421" lon="2.31963">
        <ele>28.60000038147</ele>
        <time>2016-08-22T20:33:23.000Z</time>
      </trkpt>
      <trkpt lat="48.86411" lon="2.31987">
        <ele>29</ele>
        <time>2016-08-22T20:33:30.000Z</time>
      </trkpt>
      <trkpt lat="48.8641" lon="2.31989">
        <ele>29</ele>
        <time>2016-08-22T20:33:32.000Z</time>
      </trkpt>
      <trkpt lat="48.86404" lon="2.32009">
        <ele>29.60000038147</ele>
        <time>2016-08-22T20:34:23.000Z</time>
      </trkpt>
      <trkpt lat="48.86399" lon="2.3203">
        <ele>30.200000762939</ele>
        <time>2016-08-22T20:34:32.000Z</time>
      </trkpt>
      <trkpt lat="48.8639" lon="2.32054">
        <ele>30</ele>
        <time>2016-08-22T20:34:42.000Z</time>
      </trkpt>
      <trkpt lat="48.8638" lon="2.32079">
        <ele>29.39999961853</ele>
        <time>2016-08-22T20:34:52.000Z</time>
      </trkpt>
      <trkpt lat="48.86375" lon="2.32105">
        <ele>29.799999237061</ele>
        <time>2016-08-22T20:34:59.000Z</time>
      </trkpt>
      <trkpt lat="48.86372" lon="2.32119">
        <ele>29.799999237061</ele>
        <time>2016-08-22T20:35:05.000Z</time>
      </trkpt>
      <trkpt lat="48.86365" lon="2.32155">
        <ele>29.60000038147</ele>
        <time>2016-08-22T20:35:35.000Z</time>
      </trkpt>
      <trkpt lat="48.86362" lon="2.32164">
        <ele>29.39999961853</ele>
        <time>2016-08-22T20:35:36.000Z</time>
      </trkpt>
      <trkpt lat="48.86352" lon="2.32196">
        <ele>30.39999961853</ele>
        <time>2016-08-22T20:35:39.000Z</time>
      </trkpt>
      <trkpt lat="48.8634" lon="2.32231">
        <ele>31.799999237061</ele>
        <time>2016-08-22T20:35:42.000Z</time>
      </trkpt>
      <trkpt lat="48.86332" lon="2.32256">
        <ele>31.799999237061</ele>
        <time>2016-08-22T20:35:44.000Z</time>
      </trkpt>
      <trkpt lat="48.86323" lon="2.3228">
        <ele>31</ele>
        <time>2016-08-22T20:35:46.000Z</time>
      </trkpt>
      <trkpt lat="48.86316" lon="2.32306">
        <ele>30.60000038147</ele>
        <time>2016-08-22T20:35:48.000Z</time>
      </trkpt>
      <trkpt lat="48.86312" lon="2.32318">
        <ele>30.39999961853</ele>
        <time>2016-08-22T20:35:49.000Z</time>
      </trkpt>
      <trkpt lat="48.86303" lon="2.32343">
        <ele>30</ele>
        <time>2016-08-22T20:35:51.000Z</time>
      </trkpt>
      <trkpt lat="48.86295" lon="2.3237">
        <ele>29.39999961853</ele>
        <time>2016-08-22T20:35:53.000Z</time>
      </trkpt>
      <trkpt lat="48.86286" lon="2.32394">
        <ele>28.200000762939</ele>
        <time>2016-08-22T20:35:55.000Z</time>
      </trkpt>
      <trkpt lat="48.86275" lon="2.32429">
        <ele>27.39999961853</ele>
        <time>2016-08-22T20:35:58.000Z</time>
      </trkpt>
      <trkpt lat="48.86267" lon="2.32459">
        <ele>28</ele>
        <time>2016-08-22T20:36:01.000Z</time>
      </trkpt>
      <trkpt lat="48.86258" lon="2.32492">
        <ele>28.799999237061</ele>
        <time>2016-08-22T20:36:05.000Z</time>
      </trkpt>
      <trkpt lat="48.86251" lon="2.32507">
        <ele>29.200000762939</ele>
        <time>2016-08-22T20:36:07.000Z</time>
      </trkpt>
      <trkpt lat="48.86242" lon="2.32535">
        <ele>30</ele>
        <time>2016-08-22T20:36:11.000Z</time>
      </trkpt>
      <trkpt lat="48.86235" lon="2.32558">
        <ele>30.200000762939</ele>
        <time>2016-08-22T20:36:14.000Z</time>
      </trkpt>
      <trkpt lat="48.86228" lon="2.32584">
        <ele>30.60000038147</ele>
        <time>2016-08-22T20:36:17.000Z</time>
      </trkpt>
      <trkpt lat="48.8622" lon="2.32612">
        <ele>31</ele>
        <time>2016-08-22T20:36:20.000Z</time>
      </trkpt>
      <trkpt lat="48.86211" lon="2.3264">
        <ele>30.200000762939</ele>
        <time>2016-08-22T20:36:23.000Z</time>
      </trkpt>
      <trkpt lat="48.86203" lon="2.3267">
        <ele>29.60000038147</ele>
        <time>2016-08-22T20:36:26.000Z</time>
      </trkpt>
      <trkpt lat="48.86193" lon="2.32702">
        <ele>30.39999961853</ele>
        <time>2016-08-22T20:36:29.000Z</time>
      </trkpt>
      <trkpt lat="48.86182" lon="2.32735">
        <ele>31.60000038147</ele>
        <time>2016-08-22T20:36:32.000Z</time>
      </trkpt>
      <trkpt lat="48.86171" lon="2.32768">
        <ele>31.799999237061</ele>
        <time>2016-08-22T20:36:35.000Z</time>
      </trkpt>
      <trkpt lat="48.8616" lon="2.328">
        <ele>32.799999237061</ele>
        <time>2016-08-22T20:36:38.000Z</time>
      </trkpt>
      <trkpt lat="48.86148" lon="2.32832">
        <ele>31</ele>
        <time>2016-08-22T20:36:41.000Z</time>
      </trkpt>
      <trkpt lat="48.86136" lon="2.32862">
        <ele>30</ele>
        <time>2016-08-22T20:36:44.000Z</time>
      </trkpt>
      <trkpt lat="48.86125" lon="2.3289">
        <ele>31.799999237061</ele>
        <time>2016-08-22T20:36:47.000Z</time>
      </trkpt>
      <trkpt lat="48.86116" lon="2.32916">
        <ele>33.400001525879</ele>
        <time>2016-08-22T20:36:50.000Z</time>
      </trkpt>
      <trkpt lat="48.86111" lon="2.32947">
        <ele>37</ele>
        <time>2016-08-22T20:36:54.000Z</time>
      </trkpt>
      <trkpt lat="48.86103" lon="2.32977">
        <ele>41.599998474121</ele>
        <time>2016-08-22T20:36:58.000Z</time>
      </trkpt>
      <trkpt lat="48.86099" lon="2.32993">
        <ele>43.599998474121</ele>
        <time>2016-08-22T20:37:01.000Z</time>
      </trkpt>
      <trkpt lat="48.86103" lon="2.33008">
        <ele>43.200000762939</ele>
        <time>2016-08-22T20:37:38.000Z</time>
      </trkpt>
      <trkpt lat="48.86111" lon="2.33012">
        <ele>43</ele>
        <time>2016-08-22T20:38:51.000Z</time>
      </trkpt>
      <trkpt lat="48.86131" lon="2.33025">
        <ele>41.400001525879</ele>
        <time>2016-08-22T20:38:57.000Z</time>
      </trkpt>
      <trkpt lat="48.86152" lon="2.33043">
        <ele>39.599998474121</ele>
        <time>2016-08-22T20:39:01.000Z</time>
      </trkpt>
      <trkpt lat="48.8617" lon="2.33059">
        <ele>37.799999237061</ele>
        <time>2016-08-22T20:39:04.000Z</time>
      </trkpt>
      <trkpt lat="48.8619" lon="2.33075">
        <ele>36</ele>
        <time>2016-08-22T20:39:07.000Z</time>
      </trkpt>
      <trkpt lat="48.8621" lon="2.3309">
        <ele>35.799999237061</ele>
        <time>2016-08-22T20:39:10.000Z</time>
      </trkpt>
      <trkpt lat="48.86317" lon="2.33179">
        <ele>39</ele>
        <time>2016-08-22T20:39:24.000Z</time>
      </trkpt>
      <trkpt lat="48.8634" lon="2.33176">
        <ele>39.400001525879</ele>
        <time>2016-08-22T20:39:27.000Z</time>
      </trkpt>
      <trkpt lat="48.86351" lon="2.33199">
        <ele>41</ele>
        <time>2016-08-22T20:39:33.000Z</time>
      </trkpt>
      <trkpt lat="48.86367" lon="2.33215">
        <ele>42.400001525879</ele>
        <time>2016-08-22T20:39:40.000Z</time>
      </trkpt>
      <trkpt lat="48.86381" lon="2.33235">
        <ele>44.200000762939</ele>
        <time>2016-08-22T20:39:50.000Z</time>
      </trkpt>
      <trkpt lat="48.86399" lon="2.33236">
        <ele>44.799999237061</ele>
        <time>2016-08-22T20:40:01.000Z</time>
      </trkpt>
      <trkpt lat="48.86414" lon="2.3324">
        <ele>45.599998474121</ele>
        <time>2016-08-22T20:40:08.000Z</time>
      </trkpt>
      <trkpt lat="48.86429" lon="2.33256">
        <ele>46.799999237061</ele>
        <time>2016-08-22T20:40:14.000Z</time>
      </trkpt>
      <trkpt lat="48.86448" lon="2.3327">
        <ele>47.200000762939</ele>
        <time>2016-08-22T20:40:20.000Z</time>
      </trkpt>
      <trkpt lat="48.86449" lon="2.33279">
        <ele>47.400001525879</ele>
        <time>2016-08-22T20:40:22.000Z</time>
      </trkpt>
      <trkpt lat="48.86437" lon="2.33303">
        <ele>47.599998474121</ele>
        <time>2016-08-22T20:40:27.000Z</time>
      </trkpt>
      <trkpt lat="48.86434" lon="2.33308">
        <ele>47.599998474121</ele>
        <time>2016-08-22T20:40:28.000Z</time>
      </trkpt>
      <trkpt lat="48.86422" lon="2.33334">
        <ele>48</ele>
        <time>2016-08-22T20:40:32.000Z</time>
      </trkpt>
      <trkpt lat="48.8641" lon="2.33361">
        <ele>48.799999237061</ele>
        <time>2016-08-22T20:40:36.000Z</time>
      </trkpt>
      <trkpt lat="48.86397" lon="2.33384">
        <ele>49.400001525879</ele>
        <time>2016-08-22T20:40:40.000Z</time>
      </trkpt>
      <trkpt lat="48.86385" lon="2.33409">
        <ele>50.400001525879</ele>
        <time>2016-08-22T20:40:44.000Z</time>
      </trkpt>
      <trkpt lat="48.86375" lon="2.33433">
        <ele>50.799999237061</ele>
        <time>2016-08-22T20:40:48.000Z</time>
      </trkpt>
      <trkpt lat="48.86367" lon="2.33463">
        <ele>49.599998474121</ele>
        <time>2016-08-22T20:40:52.000Z</time>
      </trkpt>
      <trkpt lat="48.86364" lon="2.33478">
        <ele>48.799999237061</ele>
        <time>2016-08-22T20:40:54.000Z</time>
      </trkpt>
      <trkpt lat="48.86354" lon="2.33509">
        <ele>47.799999237061</ele>
        <time>2016-08-22T20:40:58.000Z</time>
      </trkpt>
      <trkpt lat="48.86344" lon="2.33532">
        <ele>47</ele>
        <time>2016-08-22T20:41:02.000Z</time>
      </trkpt>
      <trkpt lat="48.86341" lon="2.33537">
        <ele>46.799999237061</ele>
        <time>2016-08-22T20:41:03.000Z</time>
      </trkpt>
      <trkpt lat="48.86333" lon="2.33547">
        <ele>46.400001525879</ele>
        <time>2016-08-22T20:41:05.000Z</time>
      </trkpt>
      <trkpt lat="48.86328" lon="2.33556">
        <ele>46.200000762939</ele>
        <time>2016-08-22T20:41:07.000Z</time>
      </trkpt>
      <trkpt lat="48.86319" lon="2.33568">
        <ele>46.799999237061</ele>
        <time>2016-08-22T20:41:10.000Z</time>
      </trkpt>
      <trkpt lat="48.8631" lon="2.33594">
        <ele>47</ele>
        <time>2016-08-22T20:41:14.000Z</time>
      </trkpt>
      <trkpt lat="48.86303" lon="2.3362">
        <ele>46.400001525879</ele>
        <time>2016-08-22T20:41:18.000Z</time>
      </trkpt>
      <trkpt lat="48.86301" lon="2.33632">
        <ele>46.400001525879</ele>
        <time>2016-08-22T20:41:20.000Z</time>
      </trkpt>
      <trkpt lat="48.86289" lon="2.33657">
        <ele>46.400001525879</ele>
        <time>2016-08-22T20:41:25.000Z</time>
      </trkpt>
      <trkpt lat="48.86284" lon="2.33665">
        <ele>46.599998474121</ele>
        <time>2016-08-22T20:41:27.000Z</time>
      </trkpt>
      <trkpt lat="48.86278" lon="2.33674">
        <ele>46.799999237061</ele>
        <time>2016-08-22T20:41:30.000Z</time>
      </trkpt>
      <trkpt lat="48.86267" lon="2.33677">
        <ele>47.200000762939</ele>
        <time>2016-08-22T20:41:35.000Z</time>
      </trkpt>
      <trkpt lat="48.86264" lon="2.33679">
        <ele>47.200000762939</ele>
        <time>2016-08-22T20:41:39.000Z</time>
      </trkpt>
      <trkpt lat="48.86263" lon="2.33679">
        <ele>47.200000762939</ele>
        <time>2016-08-22T20:41:40.000Z</time>
      </trkpt>
      <trkpt lat="48.86261" lon="2.33702">
        <ele>47.200000762939</ele>
        <time>2016-08-22T20:42:35.000Z</time>
      </trkpt>
      <trkpt lat="48.86264" lon="2.3373">
        <ele>46.599998474121</ele>
        <time>2016-08-22T20:42:44.000Z</time>
      </trkpt>
      <trkpt lat="48.86262" lon="2.33764">
        <ele>46</ele>
        <time>2016-08-22T20:42:50.000Z</time>
      </trkpt>
      <trkpt lat="48.86256" lon="2.33791">
        <ele>45.599998474121</ele>
        <time>2016-08-22T20:42:54.000Z</time>
      </trkpt>
      <trkpt lat="48.8625" lon="2.33818">
        <ele>45</ele>
        <time>2016-08-22T20:42:58.000Z</time>
      </trkpt>
      <trkpt lat="48.86249" lon="2.33833">
        <ele>44.400001525879</ele>
        <time>2016-08-22T20:43:00.000Z</time>
      </trkpt>
      <trkpt lat="48.86243" lon="2.33861">
        <ele>45.400001525879</ele>
        <time>2016-08-22T20:43:04.000Z</time>
      </trkpt>
      <trkpt lat="48.86237" lon="2.33889">
        <ele>46.200000762939</ele>
        <time>2016-08-22T20:43:08.000Z</time>
      </trkpt>
      <trkpt lat="48.8623" lon="2.33916">
        <ele>46.599998474121</ele>
        <time>2016-08-22T20:43:12.000Z</time>
      </trkpt>
      <trkpt lat="48.86224" lon="2.33942">
        <ele>47</ele>
        <time>2016-08-22T20:43:16.000Z</time>
      </trkpt>
      <trkpt lat="48.86216" lon="2.33972">
        <ele>48.200000762939</ele>
        <time>2016-08-22T20:43:20.000Z</time>
      </trkpt>
      <trkpt lat="48.86208" lon="2.33998">
        <ele>49.200000762939</ele>
        <time>2016-08-22T20:43:23.000Z</time>
      </trkpt>
      <trkpt lat="48.86199" lon="2.34024">
        <ele>49.400001525879</ele>
        <time>2016-08-22T20:43:26.000Z</time>
      </trkpt>
      <trkpt lat="48.86192" lon="2.34051">
        <ele>49</ele>
        <time>2016-08-22T20:43:29.000Z</time>
      </trkpt>
      <trkpt lat="48.86186" lon="2.34083">
        <ele>48.799999237061</ele>
        <time>2016-08-22T20:43:33.000Z</time>
      </trkpt>
      <trkpt lat="48.86181" lon="2.34108">
        <ele>49</ele>
        <time>2016-08-22T20:43:37.000Z</time>
      </trkpt>
      <trkpt lat="48.86179" lon="2.34119">
        <ele>49</ele>
        <time>2016-08-22T20:43:40.000Z</time>
      </trkpt>
      <trkpt lat="48.86178" lon="2.34131">
        <ele>49.200000762939</ele>
        <time>2016-08-22T20:43:44.000Z</time>
      </trkpt>
      <trkpt lat="48.86177" lon="2.34145">
        <ele>49.400001525879</ele>
        <time>2016-08-22T20:43:49.000Z</time>
      </trkpt>
      <trkpt lat="48.86176" lon="2.3415">
        <ele>49.400001525879</ele>
        <time>2016-08-22T20:43:51.000Z</time>
      </trkpt>
      <trkpt lat="48.86165" lon="2.34173">
        <ele>49.400001525879</ele>
        <time>2016-08-22T20:43:58.000Z</time>
      </trkpt>
      <trkpt lat="48.86163" lon="2.34203">
        <ele>49.400001525879</ele>
        <time>2016-08-22T20:44:05.000Z</time>
      </trkpt>
      <trkpt lat="48.86155" lon="2.34227">
        <ele>49.400001525879</ele>
        <time>2016-08-22T20:44:13.000Z</time>
      </trkpt>
      <trkpt lat="48.86154" lon="2.34255">
        <ele>49.400001525879</ele>
        <time>2016-08-22T20:44:20.000Z</time>
      </trkpt>
      <trkpt lat="48.8615" lon="2.34285">
        <ele>49</ele>
        <time>2016-08-22T20:44:25.000Z</time>
      </trkpt>
      <trkpt lat="48.86144" lon="2.34312">
        <ele>49.599998474121</ele>
        <time>2016-08-22T20:44:29.000Z</time>
      </trkpt>
      <trkpt lat="48.86146" lon="2.34348">
        <ele>49.200000762939</ele>
        <time>2016-08-22T20:44:34.000Z</time>
      </trkpt>
      <trkpt lat="48.86143" lon="2.34375">
        <ele>48.200000762939</ele>
        <time>2016-08-22T20:44:38.000Z</time>
      </trkpt>
      <trkpt lat="48.86134" lon="2.34406">
        <ele>48.400001525879</ele>
        <time>2016-08-22T20:44:44.000Z</time>
      </trkpt>
      <trkpt lat="48.86125" lon="2.3443">
        <ele>47.400001525879</ele>
        <time>2016-08-22T20:44:47.000Z</time>
      </trkpt>
      <trkpt lat="48.86121" lon="2.34461">
        <ele>48</ele>
        <time>2016-08-22T20:44:52.000Z</time>
      </trkpt>
      <trkpt lat="48.86118" lon="2.34491">
        <ele>49</ele>
        <time>2016-08-22T20:44:57.000Z</time>
      </trkpt>
      <trkpt lat="48.86109" lon="2.34519">
        <ele>50.400001525879</ele>
        <time>2016-08-22T20:45:01.000Z</time>
      </trkpt>
      <trkpt lat="48.861" lon="2.34546">
        <ele>50.599998474121</ele>
        <time>2016-08-22T20:45:05.000Z</time>
      </trkpt>
      <trkpt lat="48.86094" lon="2.34565">
        <ele>50.400001525879</ele>
        <time>2016-08-22T20:45:08.000Z</time>
      </trkpt>
      <trkpt lat="48.8609" lon="2.34578">
        <ele>50</ele>
        <time>2016-08-22T20:45:10.000Z</time>
      </trkpt>
      <trkpt lat="48.86085" lon="2.34596">
        <ele>48.400001525879</ele>
        <time>2016-08-22T20:45:13.000Z</time>
      </trkpt>
      <trkpt lat="48.86078" lon="2.34623">
        <ele>46.200000762939</ele>
        <time>2016-08-22T20:45:19.000Z</time>
      </trkpt>
      <trkpt lat="48.86061" lon="2.34633">
        <ele>45.799999237061</ele>
        <time>2016-08-22T20:45:23.000Z</time>
      </trkpt>
      <trkpt lat="48.86044" lon="2.34654">
        <ele>45.599998474121</ele>
        <time>2016-08-22T20:45:28.000Z</time>
      </trkpt>
      <trkpt lat="48.86031" lon="2.34665">
        <ele>45.599998474121</ele>
        <time>2016-08-22T20:45:30.000Z</time>
      </trkpt>
      <trkpt lat="48.86011" lon="2.34679">
        <ele>46</ele>
        <time>2016-08-22T20:45:34.000Z</time>
      </trkpt>
      <trkpt lat="48.85994" lon="2.34688">
        <ele>46</ele>
        <time>2016-08-22T20:45:38.000Z</time>
      </trkpt>
      <trkpt lat="48.85988" lon="2.34695">
        <ele>46</ele>
        <time>2016-08-22T20:45:40.000Z</time>
      </trkpt>
      <trkpt lat="48.85982" lon="2.34713">
        <ele>45.799999237061</ele>
        <time>2016-08-22T20:45:46.000Z</time>
      </trkpt>
      <trkpt lat="48.85982" lon="2.3473">
        <ele>45.200000762939</ele>
        <time>2016-08-22T20:46:03.000Z</time>
      </trkpt>
    </trkseg>
  </trk>
  <trk>
    <name><![CDATA[lundi 2016 08 29]]></name>
    <trkseg>
      <trkpt lat="48.85741" lon="2.34715">
        <ele>40.400001525879</ele>
        <time>2016-08-29T18:20:53.000Z</time>
      </trkpt>
      <trkpt lat="48.85766" lon="2.34715">
        <ele>39.200000762939</ele>
        <time>2016-08-29T18:20:59.000Z</time>
      </trkpt>
      <trkpt lat="48.8577" lon="2.34711">
        <ele>38.799999237061</ele>
        <time>2016-08-29T18:21:01.000Z</time>
      </trkpt>
      <trkpt lat="48.85788" lon="2.34697">
        <ele>39.400001525879</ele>
        <time>2016-08-29T18:21:07.000Z</time>
      </trkpt>
      <trkpt lat="48.8579" lon="2.34687">
        <ele>39.200000762939</ele>
        <time>2016-08-29T18:21:09.000Z</time>
      </trkpt>
      <trkpt lat="48.85799" lon="2.3466">
        <ele>41.200000762939</ele>
        <time>2016-08-29T18:21:14.000Z</time>
      </trkpt>
      <trkpt lat="48.85807" lon="2.34637">
        <ele>44.599998474121</ele>
        <time>2016-08-29T18:21:18.000Z</time>
      </trkpt>
      <trkpt lat="48.85813" lon="2.34619">
        <ele>47</ele>
        <time>2016-08-29T18:21:22.000Z</time>
      </trkpt>
      <trkpt lat="48.85815" lon="2.34609">
        <ele>47.400001525879</ele>
        <time>2016-08-29T18:21:25.000Z</time>
      </trkpt>
      <trkpt lat="48.85817" lon="2.34603">
        <ele>47.599998474121</ele>
        <time>2016-08-29T18:21:27.000Z</time>
      </trkpt>
      <trkpt lat="48.85818" lon="2.34597">
        <ele>47.799999237061</ele>
        <time>2016-08-29T18:21:29.000Z</time>
      </trkpt>
      <trkpt lat="48.85818" lon="2.34581">
        <ele>48.200000762939</ele>
        <time>2016-08-29T18:21:35.000Z</time>
      </trkpt>
      <trkpt lat="48.85807" lon="2.34568">
        <ele>46.599998474121</ele>
        <time>2016-08-29T18:21:43.000Z</time>
      </trkpt>
      <trkpt lat="48.85821" lon="2.3455">
        <ele>46.599998474121</ele>
        <time>2016-08-29T18:21:53.000Z</time>
      </trkpt>
      <trkpt lat="48.85825" lon="2.34523">
        <ele>46</ele>
        <time>2016-08-29T18:22:02.000Z</time>
      </trkpt>
      <trkpt lat="48.85825" lon="2.34501">
        <ele>45.200000762939</ele>
        <time>2016-08-29T18:22:08.000Z</time>
      </trkpt>
      <trkpt lat="48.85831" lon="2.34483">
        <ele>45.799999237061</ele>
        <time>2016-08-29T18:22:12.000Z</time>
      </trkpt>
      <trkpt lat="48.8584" lon="2.34456">
        <ele>46.400001525879</ele>
        <time>2016-08-29T18:22:19.000Z</time>
      </trkpt>
      <trkpt lat="48.85846" lon="2.34426">
        <ele>46.400001525879</ele>
        <time>2016-08-29T18:22:26.000Z</time>
      </trkpt>
      <trkpt lat="48.85852" lon="2.344">
        <ele>47.599998474121</ele>
        <time>2016-08-29T18:22:34.000Z</time>
      </trkpt>
      <trkpt lat="48.85871" lon="2.34401">
        <ele>49</ele>
        <time>2016-08-29T18:22:41.000Z</time>
      </trkpt>
      <trkpt lat="48.85892" lon="2.34406">
        <ele>49.799999237061</ele>
        <time>2016-08-29T18:22:48.000Z</time>
      </trkpt>
      <trkpt lat="48.85912" lon="2.34411">
        <ele>50.599998474121</ele>
        <time>2016-08-29T18:22:54.000Z</time>
      </trkpt>
      <trkpt lat="48.85929" lon="2.34429">
        <ele>51.200000762939</ele>
        <time>2016-08-29T18:23:00.000Z</time>
      </trkpt>
      <trkpt lat="48.85943" lon="2.34448">
        <ele>51.599998474121</ele>
        <time>2016-08-29T18:23:06.000Z</time>
      </trkpt>
      <trkpt lat="48.85956" lon="2.34466">
        <ele>51.799999237061</ele>
        <time>2016-08-29T18:23:27.000Z</time>
      </trkpt>
      <trkpt lat="48.85963" lon="2.34467">
        <ele>52</ele>
        <time>2016-08-29T18:23:35.000Z</time>
      </trkpt>
      <trkpt lat="48.85977" lon="2.34456">
        <ele>52.400001525879</ele>
        <time>2016-08-29T18:24:09.000Z</time>
      </trkpt>
      <trkpt lat="48.85988" lon="2.3443">
        <ele>53</ele>
        <time>2016-08-29T18:24:15.000Z</time>
      </trkpt>
      <trkpt lat="48.85996" lon="2.34413">
        <ele>53.400001525879</ele>
        <time>2016-08-29T18:24:20.000Z</time>
      </trkpt>
      <trkpt lat="48.86002" lon="2.34409">
        <ele>53.599998474121</ele>
        <time>2016-08-29T18:24:23.000Z</time>
      </trkpt>
      <trkpt lat="48.86013" lon="2.34418">
        <ele>53.799999237061</ele>
        <time>2016-08-29T18:24:28.000Z</time>
      </trkpt>
      <trkpt lat="48.86033" lon="2.34425">
        <ele>53.599998474121</ele>
        <time>2016-08-29T18:24:33.000Z</time>
      </trkpt>
      <trkpt lat="48.86053" lon="2.34431">
        <ele>52.799999237061</ele>
        <time>2016-08-29T18:24:38.000Z</time>
      </trkpt>
      <trkpt lat="48.86072" lon="2.34437">
        <ele>51.799999237061</ele>
        <time>2016-08-29T18:24:42.000Z</time>
      </trkpt>
      <trkpt lat="48.86091" lon="2.34443">
        <ele>51</ele>
        <time>2016-08-29T18:24:46.000Z</time>
      </trkpt>
      <trkpt lat="48.86109" lon="2.34455">
        <ele>50</ele>
        <time>2016-08-29T18:24:51.000Z</time>
      </trkpt>
      <trkpt lat="48.86127" lon="2.34469">
        <ele>47.200000762939</ele>
        <time>2016-08-29T18:24:57.000Z</time>
      </trkpt>
      <trkpt lat="48.86146" lon="2.34481">
        <ele>44.200000762939</ele>
        <time>2016-08-29T18:25:02.000Z</time>
      </trkpt>
      <trkpt lat="48.86163" lon="2.34477">
        <ele>41.200000762939</ele>
        <time>2016-08-29T18:25:08.000Z</time>
      </trkpt>
      <trkpt lat="48.86174" lon="2.34451">
        <ele>42.400001525879</ele>
        <time>2016-08-29T18:25:12.000Z</time>
      </trkpt>
      <trkpt lat="48.86183" lon="2.34423">
        <ele>44.599998474121</ele>
        <time>2016-08-29T18:25:16.000Z</time>
      </trkpt>
      <trkpt lat="48.8619" lon="2.34402">
        <ele>45.599998474121</ele>
        <time>2016-08-29T18:25:19.000Z</time>
      </trkpt>
      <trkpt lat="48.86197" lon="2.34372">
        <ele>46.599998474121</ele>
        <time>2016-08-29T18:25:23.000Z</time>
      </trkpt>
      <trkpt lat="48.86204" lon="2.34347">
        <ele>47.599998474121</ele>
        <time>2016-08-29T18:25:27.000Z</time>
      </trkpt>
      <trkpt lat="48.86211" lon="2.34321">
        <ele>47</ele>
        <time>2016-08-29T18:25:31.000Z</time>
      </trkpt>
      <trkpt lat="48.86218" lon="2.34291">
        <ele>46.799999237061</ele>
        <time>2016-08-29T18:25:36.000Z</time>
      </trkpt>
      <trkpt lat="48.86223" lon="2.34263">
        <ele>48</ele>
        <time>2016-08-29T18:25:41.000Z</time>
      </trkpt>
      <trkpt lat="48.86224" lon="2.34259">
        <ele>48.599998474121</ele>
        <time>2016-08-29T18:25:42.000Z</time>
      </trkpt>
      <trkpt lat="48.8623" lon="2.34228">
        <ele>49.599998474121</ele>
        <time>2016-08-29T18:25:49.000Z</time>
      </trkpt>
      <trkpt lat="48.86237" lon="2.34199">
        <ele>49.599998474121</ele>
        <time>2016-08-29T18:25:56.000Z</time>
      </trkpt>
      <trkpt lat="48.86234" lon="2.34181">
        <ele>49.799999237061</ele>
        <time>2016-08-29T18:26:03.000Z</time>
      </trkpt>
      <trkpt lat="48.86234" lon="2.34178">
        <ele>49.799999237061</ele>
        <time>2016-08-29T18:26:05.000Z</time>
      </trkpt>
      <trkpt lat="48.86233" lon="2.34175">
        <ele>49.799999237061</ele>
        <time>2016-08-29T18:26:07.000Z</time>
      </trkpt>
      <trkpt lat="48.86254" lon="2.34177">
        <ele>49.799999237061</ele>
        <time>2016-08-29T18:26:17.000Z</time>
      </trkpt>
      <trkpt lat="48.86274" lon="2.34181">
        <ele>49.799999237061</ele>
        <time>2016-08-29T18:26:22.000Z</time>
      </trkpt>
      <trkpt lat="48.86293" lon="2.34188">
        <ele>50</ele>
        <time>2016-08-29T18:26:26.000Z</time>
      </trkpt>
      <trkpt lat="48.86311" lon="2.34196">
        <ele>50</ele>
        <time>2016-08-29T18:26:30.000Z</time>
      </trkpt>
      <trkpt lat="48.86332" lon="2.34207">
        <ele>49.799999237061</ele>
        <time>2016-08-29T18:26:35.000Z</time>
      </trkpt>
      <trkpt lat="48.86352" lon="2.34217">
        <ele>49.599998474121</ele>
        <time>2016-08-29T18:26:40.000Z</time>
      </trkpt>
      <trkpt lat="48.86357" lon="2.34218">
        <ele>49.599998474121</ele>
        <time>2016-08-29T18:26:41.000Z</time>
      </trkpt>
      <trkpt lat="48.86373" lon="2.34224">
        <ele>49.400001525879</ele>
        <time>2016-08-29T18:26:46.000Z</time>
      </trkpt>
      <trkpt lat="48.86388" lon="2.34229">
        <ele>49</ele>
        <time>2016-08-29T18:26:50.000Z</time>
      </trkpt>
      <trkpt lat="48.86394" lon="2.34229">
        <ele>48.799999237061</ele>
        <time>2016-08-29T18:26:52.000Z</time>
      </trkpt>
      <trkpt lat="48.86404" lon="2.34233">
        <ele>48.599998474121</ele>
        <time>2016-08-29T18:26:55.000Z</time>
      </trkpt>
      <trkpt lat="48.86422" lon="2.34235">
        <ele>48.200000762939</ele>
        <time>2016-08-29T18:27:00.000Z</time>
      </trkpt>
      <trkpt lat="48.86441" lon="2.34244">
        <ele>48</ele>
        <time>2016-08-29T18:27:05.000Z</time>
      </trkpt>
      <trkpt lat="48.8646" lon="2.34253">
        <ele>47.599998474121</ele>
        <time>2016-08-29T18:27:10.000Z</time>
      </trkpt>
      <trkpt lat="48.86481" lon="2.34259">
        <ele>47.400001525879</ele>
        <time>2016-08-29T18:27:14.000Z</time>
      </trkpt>
      <trkpt lat="48.86499" lon="2.34265">
        <ele>47</ele>
        <time>2016-08-29T18:27:17.000Z</time>
      </trkpt>
      <trkpt lat="48.86508" lon="2.3427">
        <ele>47</ele>
        <time>2016-08-29T18:27:19.000Z</time>
      </trkpt>
      <trkpt lat="48.86518" lon="2.34273">
        <ele>46.799999237061</ele>
        <time>2016-08-29T18:27:21.000Z</time>
      </trkpt>
      <trkpt lat="48.86527" lon="2.34281">
        <ele>46.599998474121</ele>
        <time>2016-08-29T18:27:24.000Z</time>
      </trkpt>
      <trkpt lat="48.86532" lon="2.34291">
        <ele>46.599998474121</ele>
        <time>2016-08-29T18:27:28.000Z</time>
      </trkpt>
      <trkpt lat="48.8655" lon="2.34306">
        <ele>46.599998474121</ele>
        <time>2016-08-29T18:27:42.000Z</time>
      </trkpt>
      <trkpt lat="48.86572" lon="2.3431">
        <ele>46.799999237061</ele>
        <time>2016-08-29T18:27:46.000Z</time>
      </trkpt>
      <trkpt lat="48.8659" lon="2.34316">
        <ele>47</ele>
        <time>2016-08-29T18:27:49.000Z</time>
      </trkpt>
      <trkpt lat="48.86596" lon="2.34318">
        <ele>47</ele>
        <time>2016-08-29T18:27:50.000Z</time>
      </trkpt>
      <trkpt lat="48.86614" lon="2.34334">
        <ele>47.400001525879</ele>
        <time>2016-08-29T18:27:54.000Z</time>
      </trkpt>
      <trkpt lat="48.8663" lon="2.34343">
        <ele>48.200000762939</ele>
        <time>2016-08-29T18:27:57.000Z</time>
      </trkpt>
      <trkpt lat="48.86648" lon="2.34352">
        <ele>49.200000762939</ele>
        <time>2016-08-29T18:28:02.000Z</time>
      </trkpt>
      <trkpt lat="48.86658" lon="2.34359">
        <ele>49.799999237061</ele>
        <time>2016-08-29T18:28:05.000Z</time>
      </trkpt>
      <trkpt lat="48.86662" lon="2.34362">
        <ele>50</ele>
        <time>2016-08-29T18:28:07.000Z</time>
      </trkpt>
      <trkpt lat="48.86672" lon="2.34369">
        <ele>50.599998474121</ele>
        <time>2016-08-29T18:28:11.000Z</time>
      </trkpt>
      <trkpt lat="48.86691" lon="2.34377">
        <ele>51.400001525879</ele>
        <time>2016-08-29T18:28:16.000Z</time>
      </trkpt>
      <trkpt lat="48.86706" lon="2.34383">
        <ele>51</ele>
        <time>2016-08-29T18:28:20.000Z</time>
      </trkpt>
      <trkpt lat="48.86726" lon="2.34387">
        <ele>50.400001525879</ele>
        <time>2016-08-29T18:28:25.000Z</time>
      </trkpt>
      <trkpt lat="48.86734" lon="2.34385">
        <ele>50.200000762939</ele>
        <time>2016-08-29T18:28:27.000Z</time>
      </trkpt>
      <trkpt lat="48.86752" lon="2.34379">
        <ele>50</ele>
        <time>2016-08-29T18:28:31.000Z</time>
      </trkpt>
      <trkpt lat="48.86767" lon="2.34369">
        <ele>49.599998474121</ele>
        <time>2016-08-29T18:28:35.000Z</time>
      </trkpt>
      <trkpt lat="48.86786" lon="2.34361">
        <ele>49</ele>
        <time>2016-08-29T18:28:41.000Z</time>
      </trkpt>
      <trkpt lat="48.86788" lon="2.3436">
        <ele>49</ele>
        <time>2016-08-29T18:28:42.000Z</time>
      </trkpt>
      <trkpt lat="48.86795" lon="2.34365">
        <ele>48.599998474121</ele>
        <time>2016-08-29T18:28:54.000Z</time>
      </trkpt>
      <trkpt lat="48.86814" lon="2.34354">
        <ele>48.400001525879</ele>
        <time>2016-08-29T18:29:06.000Z</time>
      </trkpt>
      <trkpt lat="48.86832" lon="2.34347">
        <ele>48.599998474121</ele>
        <time>2016-08-29T18:29:11.000Z</time>
      </trkpt>
      <trkpt lat="48.8685" lon="2.34335">
        <ele>48.799999237061</ele>
        <time>2016-08-29T18:29:16.000Z</time>
      </trkpt>
      <trkpt lat="48.86869" lon="2.34325">
        <ele>48.799999237061</ele>
        <time>2016-08-29T18:29:21.000Z</time>
      </trkpt>
      <trkpt lat="48.86886" lon="2.34313">
        <ele>48.599998474121</ele>
        <time>2016-08-29T18:29:25.000Z</time>
      </trkpt>
      <trkpt lat="48.86906" lon="2.34303">
        <ele>48.400001525879</ele>
        <time>2016-08-29T18:29:31.000Z</time>
      </trkpt>
      <trkpt lat="48.86924" lon="2.34291">
        <ele>48</ele>
        <time>2016-08-29T18:29:36.000Z</time>
      </trkpt>
      <trkpt lat="48.86944" lon="2.3428">
        <ele>47.400001525879</ele>
        <time>2016-08-29T18:29:41.000Z</time>
      </trkpt>
      <trkpt lat="48.86964" lon="2.34271">
        <ele>47.200000762939</ele>
        <time>2016-08-29T18:29:46.000Z</time>
      </trkpt>
      <trkpt lat="48.86985" lon="2.3426">
        <ele>47.200000762939</ele>
        <time>2016-08-29T18:29:49.000Z</time>
      </trkpt>
      <trkpt lat="48.87005" lon="2.34256">
        <ele>47.200000762939</ele>
        <time>2016-08-29T18:29:53.000Z</time>
      </trkpt>
      <trkpt lat="48.8701" lon="2.34256">
        <ele>47</ele>
        <time>2016-08-29T18:29:54.000Z</time>
      </trkpt>
      <trkpt lat="48.87028" lon="2.3426">
        <ele>47.200000762939</ele>
        <time>2016-08-29T18:29:58.000Z</time>
      </trkpt>
      <trkpt lat="48.87037" lon="2.34264">
        <ele>47.200000762939</ele>
        <time>2016-08-29T18:30:00.000Z</time>
      </trkpt>
      <trkpt lat="48.87055" lon="2.34269">
        <ele>47.400001525879</ele>
        <time>2016-08-29T18:30:04.000Z</time>
      </trkpt>
      <trkpt lat="48.87075" lon="2.34276">
        <ele>47.599998474121</ele>
        <time>2016-08-29T18:30:09.000Z</time>
      </trkpt>
      <trkpt lat="48.87082" lon="2.34277">
        <ele>47.799999237061</ele>
        <time>2016-08-29T18:30:11.000Z</time>
      </trkpt>
      <trkpt lat="48.87092" lon="2.34279">
        <ele>47.799999237061</ele>
        <time>2016-08-29T18:30:14.000Z</time>
      </trkpt>
      <trkpt lat="48.8711" lon="2.34286">
        <ele>48</ele>
        <time>2016-08-29T18:30:20.000Z</time>
      </trkpt>
      <trkpt lat="48.8712" lon="2.34289">
        <ele>47.799999237061</ele>
        <time>2016-08-29T18:30:24.000Z</time>
      </trkpt>
      <trkpt lat="48.87133" lon="2.34289">
        <ele>47.599998474121</ele>
        <time>2016-08-29T18:30:35.000Z</time>
      </trkpt>
      <trkpt lat="48.87153" lon="2.34294">
        <ele>47.400001525879</ele>
        <time>2016-08-29T18:31:13.000Z</time>
      </trkpt>
      <trkpt lat="48.87174" lon="2.34301">
        <ele>47.599998474121</ele>
        <time>2016-08-29T18:31:18.000Z</time>
      </trkpt>
      <trkpt lat="48.87193" lon="2.34305">
        <ele>47.599998474121</ele>
        <time>2016-08-29T18:31:22.000Z</time>
      </trkpt>
      <trkpt lat="48.87214" lon="2.34308">
        <ele>47.200000762939</ele>
        <time>2016-08-29T18:31:27.000Z</time>
      </trkpt>
      <trkpt lat="48.87236" lon="2.34308">
        <ele>47</ele>
        <time>2016-08-29T18:31:32.000Z</time>
      </trkpt>
      <trkpt lat="48.87257" lon="2.34309">
        <ele>46.799999237061</ele>
        <time>2016-08-29T18:31:38.000Z</time>
      </trkpt>
      <trkpt lat="48.87276" lon="2.34302">
        <ele>46.599998474121</ele>
        <time>2016-08-29T18:31:43.000Z</time>
      </trkpt>
      <trkpt lat="48.87295" lon="2.34299">
        <ele>46.799999237061</ele>
        <time>2016-08-29T18:31:48.000Z</time>
      </trkpt>
      <trkpt lat="48.87314" lon="2.34296">
        <ele>46.799999237061</ele>
        <time>2016-08-29T18:31:53.000Z</time>
      </trkpt>
      <trkpt lat="48.87332" lon="2.34287">
        <ele>46.799999237061</ele>
        <time>2016-08-29T18:31:57.000Z</time>
      </trkpt>
      <trkpt lat="48.87352" lon="2.34269">
        <ele>46.799999237061</ele>
        <time>2016-08-29T18:32:01.000Z</time>
      </trkpt>
      <trkpt lat="48.87373" lon="2.34252">
        <ele>46.599998474121</ele>
        <time>2016-08-29T18:32:05.000Z</time>
      </trkpt>
      <trkpt lat="48.87392" lon="2.34235">
        <ele>46.200000762939</ele>
        <time>2016-08-29T18:32:09.000Z</time>
      </trkpt>
      <trkpt lat="48.8741" lon="2.34216">
        <ele>45.799999237061</ele>
        <time>2016-08-29T18:32:13.000Z</time>
      </trkpt>
      <trkpt lat="48.87425" lon="2.34199">
        <ele>46.200000762939</ele>
        <time>2016-08-29T18:32:16.000Z</time>
      </trkpt>
      <trkpt lat="48.87442" lon="2.34177">
        <ele>46.599998474121</ele>
        <time>2016-08-29T18:32:20.000Z</time>
      </trkpt>
      <trkpt lat="48.87459" lon="2.34157">
        <ele>46.599998474121</ele>
        <time>2016-08-29T18:32:24.000Z</time>
      </trkpt>
      <trkpt lat="48.87474" lon="2.34137">
        <ele>46.200000762939</ele>
        <time>2016-08-29T18:32:28.000Z</time>
      </trkpt>
      <trkpt lat="48.8749" lon="2.34116">
        <ele>46.400001525879</ele>
        <time>2016-08-29T18:32:32.000Z</time>
      </trkpt>
      <trkpt lat="48.87505" lon="2.34094">
        <ele>47.400001525879</ele>
        <time>2016-08-29T18:32:37.000Z</time>
      </trkpt>
      <trkpt lat="48.87507" lon="2.34092">
        <ele>47.400001525879</ele>
        <time>2016-08-29T18:32:38.000Z</time>
      </trkpt>
      <trkpt lat="48.87525" lon="2.34078">
        <ele>48</ele>
        <time>2016-08-29T18:32:44.000Z</time>
      </trkpt>
      <trkpt lat="48.87544" lon="2.34069">
        <ele>48.200000762939</ele>
        <time>2016-08-29T18:32:50.000Z</time>
      </trkpt>
      <trkpt lat="48.87561" lon="2.34054">
        <ele>48.200000762939</ele>
        <time>2016-08-29T18:32:56.000Z</time>
      </trkpt>
      <trkpt lat="48.87579" lon="2.3404">
        <ele>48</ele>
        <time>2016-08-29T18:33:01.000Z</time>
      </trkpt>
      <trkpt lat="48.87593" lon="2.3402">
        <ele>47.599998474121</ele>
        <time>2016-08-29T18:33:06.000Z</time>
      </trkpt>
      <trkpt lat="48.87594" lon="2.34019">
        <ele>47.599998474121</ele>
        <time>2016-08-29T18:33:08.000Z</time>
      </trkpt>
      <trkpt lat="48.87606" lon="2.33999">
        <ele>47</ele>
        <time>2016-08-29T18:33:38.000Z</time>
      </trkpt>
      <trkpt lat="48.87623" lon="2.33985">
        <ele>46.799999237061</ele>
        <time>2016-08-29T18:33:43.000Z</time>
      </trkpt>
      <trkpt lat="48.87643" lon="2.33969">
        <ele>46.599998474121</ele>
        <time>2016-08-29T18:33:49.000Z</time>
      </trkpt>
      <trkpt lat="48.87657" lon="2.33951">
        <ele>46.599998474121</ele>
        <time>2016-08-29T18:33:54.000Z</time>
      </trkpt>
      <trkpt lat="48.87667" lon="2.33927">
        <ele>46.799999237061</ele>
        <time>2016-08-29T18:34:03.000Z</time>
      </trkpt>
      <trkpt lat="48.87682" lon="2.33903">
        <ele>46.799999237061</ele>
        <time>2016-08-29T18:34:10.000Z</time>
      </trkpt>
      <trkpt lat="48.877" lon="2.33891">
        <ele>47.799999237061</ele>
        <time>2016-08-29T18:34:15.000Z</time>
      </trkpt>
      <trkpt lat="48.87718" lon="2.33878">
        <ele>48.799999237061</ele>
        <time>2016-08-29T18:34:20.000Z</time>
      </trkpt>
      <trkpt lat="48.87734" lon="2.33865">
        <ele>49.599998474121</ele>
        <time>2016-08-29T18:34:24.000Z</time>
      </trkpt>
      <trkpt lat="48.8775" lon="2.3385">
        <ele>50.200000762939</ele>
        <time>2016-08-29T18:34:28.000Z</time>
      </trkpt>
      <trkpt lat="48.87766" lon="2.33833">
        <ele>50.799999237061</ele>
        <time>2016-08-29T18:34:32.000Z</time>
      </trkpt>
      <trkpt lat="48.87781" lon="2.33816">
        <ele>50.599998474121</ele>
        <time>2016-08-29T18:34:36.000Z</time>
      </trkpt>
      <trkpt lat="48.87796" lon="2.33801">
        <ele>50.400001525879</ele>
        <time>2016-08-29T18:34:40.000Z</time>
      </trkpt>
      <trkpt lat="48.87813" lon="2.33785">
        <ele>50.400001525879</ele>
        <time>2016-08-29T18:34:44.000Z</time>
      </trkpt>
      <trkpt lat="48.87824" lon="2.3377">
        <ele>51</ele>
        <time>2016-08-29T18:34:47.000Z</time>
      </trkpt>
      <trkpt lat="48.87841" lon="2.33757">
        <ele>52</ele>
        <time>2016-08-29T18:34:51.000Z</time>
      </trkpt>
      <trkpt lat="48.8785" lon="2.33741">
        <ele>52.599998474121</ele>
        <time>2016-08-29T18:34:54.000Z</time>
      </trkpt>
      <trkpt lat="48.87865" lon="2.33722">
        <ele>53.200000762939</ele>
        <time>2016-08-29T18:34:58.000Z</time>
      </trkpt>
      <trkpt lat="48.87879" lon="2.33704">
        <ele>53.799999237061</ele>
        <time>2016-08-29T18:35:02.000Z</time>
      </trkpt>
      <trkpt lat="48.87895" lon="2.33681">
        <ele>54.799999237061</ele>
        <time>2016-08-29T18:35:07.000Z</time>
      </trkpt>
      <trkpt lat="48.87899" lon="2.33678">
        <ele>55</ele>
        <time>2016-08-29T18:35:08.000Z</time>
      </trkpt>
      <trkpt lat="48.87907" lon="2.33671">
        <ele>55.599998474121</ele>
        <time>2016-08-29T18:35:10.000Z</time>
      </trkpt>
      <trkpt lat="48.87923" lon="2.33656">
        <ele>57</ele>
        <time>2016-08-29T18:35:14.000Z</time>
      </trkpt>
      <trkpt lat="48.87941" lon="2.33643">
        <ele>58.400001525879</ele>
        <time>2016-08-29T18:35:18.000Z</time>
      </trkpt>
      <trkpt lat="48.87956" lon="2.33627">
        <ele>59.400001525879</ele>
        <time>2016-08-29T18:35:22.000Z</time>
      </trkpt>
      <trkpt lat="48.87971" lon="2.3361">
        <ele>60.599998474121</ele>
        <time>2016-08-29T18:35:26.000Z</time>
      </trkpt>
      <trkpt lat="48.87986" lon="2.33593">
        <ele>61.200000762939</ele>
        <time>2016-08-29T18:35:30.000Z</time>
      </trkpt>
      <trkpt lat="48.88002" lon="2.33575">
        <ele>62</ele>
        <time>2016-08-29T18:35:34.000Z</time>
      </trkpt>
      <trkpt lat="48.8801" lon="2.33568">
        <ele>62.599998474121</ele>
        <time>2016-08-29T18:35:36.000Z</time>
      </trkpt>
      <trkpt lat="48.88023" lon="2.33545">
        <ele>62.200000762939</ele>
        <time>2016-08-29T18:35:41.000Z</time>
      </trkpt>
      <trkpt lat="48.88026" lon="2.33539">
        <ele>62</ele>
        <time>2016-08-29T18:35:44.000Z</time>
      </trkpt>
      <trkpt lat="48.88025" lon="2.33537">
        <ele>62</ele>
        <time>2016-08-29T18:35:46.000Z</time>
      </trkpt>
      <trkpt lat="48.88034" lon="2.33522">
        <ele>61.799999237061</ele>
        <time>2016-08-29T18:36:23.000Z</time>
      </trkpt>
      <trkpt lat="48.88049" lon="2.33509">
        <ele>62</ele>
        <time>2016-08-29T18:36:32.000Z</time>
      </trkpt>
      <trkpt lat="48.88064" lon="2.33495">
        <ele>62.400001525879</ele>
        <time>2016-08-29T18:36:48.000Z</time>
      </trkpt>
      <trkpt lat="48.88081" lon="2.33485">
        <ele>63</ele>
        <time>2016-08-29T18:36:57.000Z</time>
      </trkpt>
      <trkpt lat="48.88097" lon="2.33467">
        <ele>63.599998474121</ele>
        <time>2016-08-29T18:37:06.000Z</time>
      </trkpt>
      <trkpt lat="48.88114" lon="2.33457">
        <ele>64.400001525879</ele>
        <time>2016-08-29T18:37:11.000Z</time>
      </trkpt>
      <trkpt lat="48.88132" lon="2.33447">
        <ele>65.199996948242</ele>
        <time>2016-08-29T18:37:15.000Z</time>
      </trkpt>
      <trkpt lat="48.8814" lon="2.3344">
        <ele>65.400001525879</ele>
        <time>2016-08-29T18:37:17.000Z</time>
      </trkpt>
      <trkpt lat="48.88158" lon="2.33423">
        <ele>65.400001525879</ele>
        <time>2016-08-29T18:37:21.000Z</time>
      </trkpt>
      <trkpt lat="48.88175" lon="2.33403">
        <ele>65.199996948242</ele>
        <time>2016-08-29T18:37:25.000Z</time>
      </trkpt>
      <trkpt lat="48.88186" lon="2.33384">
        <ele>65.800003051758</ele>
        <time>2016-08-29T18:37:27.000Z</time>
      </trkpt>
      <trkpt lat="48.88204" lon="2.33368">
        <ele>66.800003051758</ele>
        <time>2016-08-29T18:37:30.000Z</time>
      </trkpt>
      <trkpt lat="48.8821" lon="2.33364">
        <ele>67.199996948242</ele>
        <time>2016-08-29T18:37:31.000Z</time>
      </trkpt>
      <trkpt lat="48.88233" lon="2.33348">
        <ele>68.199996948242</ele>
        <time>2016-08-29T18:37:35.000Z</time>
      </trkpt>
      <trkpt lat="48.88253" lon="2.33335">
        <ele>69.199996948242</ele>
        <time>2016-08-29T18:37:38.000Z</time>
      </trkpt>
      <trkpt lat="48.8827" lon="2.33323">
        <ele>69.800003051758</ele>
        <time>2016-08-29T18:37:41.000Z</time>
      </trkpt>
      <trkpt lat="48.88287" lon="2.33309">
        <ele>70.400001525879</ele>
        <time>2016-08-29T18:37:44.000Z</time>
      </trkpt>
      <trkpt lat="48.88305" lon="2.33291">
        <ele>70.800003051758</ele>
        <time>2016-08-29T18:37:47.000Z</time>
      </trkpt>
      <trkpt lat="48.88325" lon="2.33277">
        <ele>71.199996948242</ele>
        <time>2016-08-29T18:37:52.000Z</time>
      </trkpt>
      <trkpt lat="48.88336" lon="2.33272">
        <ele>71.400001525879</ele>
        <time>2016-08-29T18:37:55.000Z</time>
      </trkpt>
      <trkpt lat="48.88346" lon="2.33269">
        <ele>71.599998474121</ele>
        <time>2016-08-29T18:37:57.000Z</time>
      </trkpt>
      <trkpt lat="48.88351" lon="2.3327">
        <ele>71.599998474121</ele>
        <time>2016-08-29T18:38:01.000Z</time>
      </trkpt>
      <trkpt lat="48.88365" lon="2.33268">
        <ele>72</ele>
        <time>2016-08-29T18:38:57.000Z</time>
      </trkpt>
      <trkpt lat="48.88377" lon="2.33269">
        <ele>72.199996948242</ele>
        <time>2016-08-29T18:39:03.000Z</time>
      </trkpt>
      <trkpt lat="48.88384" lon="2.33258">
        <ele>72</ele>
        <time>2016-08-29T18:39:08.000Z</time>
      </trkpt>
      <trkpt lat="48.88394" lon="2.3323">
        <ele>71.400001525879</ele>
        <time>2016-08-29T18:39:14.000Z</time>
      </trkpt>
      <trkpt lat="48.88399" lon="2.33217">
        <ele>71.199996948242</ele>
        <time>2016-08-29T18:39:16.000Z</time>
      </trkpt>
      <trkpt lat="48.88405" lon="2.33197">
        <ele>71</ele>
        <time>2016-08-29T18:39:19.000Z</time>
      </trkpt>
      <trkpt lat="48.88415" lon="2.33166">
        <ele>71</ele>
        <time>2016-08-29T18:39:23.000Z</time>
      </trkpt>
      <trkpt lat="48.88422" lon="2.3314">
        <ele>71.400001525879</ele>
        <time>2016-08-29T18:39:26.000Z</time>
      </trkpt>
      <trkpt lat="48.88427" lon="2.33113">
        <ele>72</ele>
        <time>2016-08-29T18:39:29.000Z</time>
      </trkpt>
      <trkpt lat="48.88433" lon="2.33086">
        <ele>72.800003051758</ele>
        <time>2016-08-29T18:39:32.000Z</time>
      </trkpt>
      <trkpt lat="48.8844" lon="2.3306">
        <ele>73</ele>
        <time>2016-08-29T18:39:35.000Z</time>
      </trkpt>
      <trkpt lat="48.88442" lon="2.33052">
        <ele>73</ele>
        <time>2016-08-29T18:39:36.000Z</time>
      </trkpt>
      <trkpt lat="48.88447" lon="2.33026">
        <ele>73</ele>
        <time>2016-08-29T18:39:39.000Z</time>
      </trkpt>
      <trkpt lat="48.88451" lon="2.3301">
        <ele>73.199996948242</ele>
        <time>2016-08-29T18:39:42.000Z</time>
      </trkpt>
      <trkpt lat="48.88453" lon="2.33003">
        <ele>73</ele>
        <time>2016-08-29T18:39:44.000Z</time>
      </trkpt>
      <trkpt lat="48.88455" lon="2.32997">
        <ele>72.800003051758</ele>
        <time>2016-08-29T18:39:46.000Z</time>
      </trkpt>
      <trkpt lat="48.88461" lon="2.32972">
        <ele>72.199996948242</ele>
        <time>2016-08-29T18:39:55.000Z</time>
      </trkpt>
      <trkpt lat="48.88461" lon="2.3297">
        <ele>72</ele>
        <time>2016-08-29T18:39:57.000Z</time>
      </trkpt>
      <trkpt lat="48.88464" lon="2.32958">
        <ele>71.800003051758</ele>
        <time>2016-08-29T18:40:17.000Z</time>
      </trkpt>
      <trkpt lat="48.88484" lon="2.32949">
        <ele>71.800003051758</ele>
        <time>2016-08-29T18:40:24.000Z</time>
      </trkpt>
      <trkpt lat="48.88503" lon="2.32944">
        <ele>72.599998474121</ele>
        <time>2016-08-29T18:40:31.000Z</time>
      </trkpt>
      <trkpt lat="48.88523" lon="2.3294">
        <ele>73.400001525879</ele>
        <time>2016-08-29T18:40:40.000Z</time>
      </trkpt>
      <trkpt lat="48.8854" lon="2.32928">
        <ele>73.800003051758</ele>
        <time>2016-08-29T18:40:47.000Z</time>
      </trkpt>
      <trkpt lat="48.88556" lon="2.3291">
        <ele>74.800003051758</ele>
        <time>2016-08-29T18:40:55.000Z</time>
      </trkpt>
      <trkpt lat="48.88572" lon="2.3289">
        <ele>74.599998474121</ele>
        <time>2016-08-29T18:41:00.000Z</time>
      </trkpt>
      <trkpt lat="48.88588" lon="2.32871">
        <ele>75.400001525879</ele>
        <time>2016-08-29T18:41:05.000Z</time>
      </trkpt>
      <trkpt lat="48.88603" lon="2.32853">
        <ele>76.599998474121</ele>
        <time>2016-08-29T18:41:10.000Z</time>
      </trkpt>
      <trkpt lat="48.88622" lon="2.32836">
        <ele>77</ele>
        <time>2016-08-29T18:41:15.000Z</time>
      </trkpt>
      <trkpt lat="48.8864" lon="2.32819">
        <ele>77.199996948242</ele>
        <time>2016-08-29T18:41:20.000Z</time>
      </trkpt>
      <trkpt lat="48.88653" lon="2.32795">
        <ele>76.800003051758</ele>
        <time>2016-08-29T18:41:26.000Z</time>
      </trkpt>
      <trkpt lat="48.88661" lon="2.32786">
        <ele>77</ele>
        <time>2016-08-29T18:41:30.000Z</time>
      </trkpt>
      <trkpt lat="48.8868" lon="2.32792">
        <ele>77.599998474121</ele>
        <time>2016-08-29T18:41:37.000Z</time>
      </trkpt>
      <trkpt lat="48.88697" lon="2.32809">
        <ele>77.599998474121</ele>
        <time>2016-08-29T18:41:43.000Z</time>
      </trkpt>
      <trkpt lat="48.88714" lon="2.32823">
        <ele>76.800003051758</ele>
        <time>2016-08-29T18:41:49.000Z</time>
      </trkpt>
      <trkpt lat="48.88731" lon="2.32841">
        <ele>75.400001525879</ele>
        <time>2016-08-29T18:41:55.000Z</time>
      </trkpt>
      <trkpt lat="48.88745" lon="2.32845">
        <ele>74.400001525879</ele>
        <time>2016-08-29T18:42:01.000Z</time>
      </trkpt>
      <trkpt lat="48.88761" lon="2.3283">
        <ele>74.599998474121</ele>
        <time>2016-08-29T18:42:07.000Z</time>
      </trkpt>
      <trkpt lat="48.88777" lon="2.32815">
        <ele>73.800003051758</ele>
        <time>2016-08-29T18:42:13.000Z</time>
      </trkpt>
      <trkpt lat="48.88794" lon="2.32798">
        <ele>72.199996948242</ele>
        <time>2016-08-29T18:42:20.000Z</time>
      </trkpt>
      <trkpt lat="48.88807" lon="2.32778">
        <ele>71</ele>
        <time>2016-08-29T18:42:26.000Z</time>
      </trkpt>
      <trkpt lat="48.8882" lon="2.32761">
        <ele>70.599998474121</ele>
        <time>2016-08-29T18:42:34.000Z</time>
      </trkpt>
      <trkpt lat="48.88834" lon="2.32765">
        <ele>69.199996948242</ele>
        <time>2016-08-29T18:42:39.000Z</time>
      </trkpt>
      <trkpt lat="48.88838" lon="2.32765">
        <ele>69</ele>
        <time>2016-08-29T18:42:40.000Z</time>
      </trkpt>
      <trkpt lat="48.88854" lon="2.32777">
        <ele>67.199996948242</ele>
        <time>2016-08-29T18:42:45.000Z</time>
      </trkpt>
      <trkpt lat="48.88857" lon="2.32779">
        <ele>66.800003051758</ele>
        <time>2016-08-29T18:42:46.000Z</time>
      </trkpt>
      <trkpt lat="48.88877" lon="2.32787">
        <ele>66</ele>
        <time>2016-08-29T18:42:52.000Z</time>
      </trkpt>
      <trkpt lat="48.88892" lon="2.32792">
        <ele>65.599998474121</ele>
        <time>2016-08-29T18:42:59.000Z</time>
      </trkpt>
      <trkpt lat="48.8891" lon="2.32798">
        <ele>64.800003051758</ele>
        <time>2016-08-29T18:43:35.000Z</time>
      </trkpt>
      <trkpt lat="48.88926" lon="2.32809">
        <ele>64</ele>
        <time>2016-08-29T18:43:43.000Z</time>
      </trkpt>
      <trkpt lat="48.88941" lon="2.32825">
        <ele>63</ele>
        <time>2016-08-29T18:43:49.000Z</time>
      </trkpt>
      <trkpt lat="48.88958" lon="2.32834">
        <ele>63</ele>
        <time>2016-08-29T18:43:56.000Z</time>
      </trkpt>
      <trkpt lat="48.88973" lon="2.32814">
        <ele>63.200000762939</ele>
        <time>2016-08-29T18:44:04.000Z</time>
      </trkpt>
      <trkpt lat="48.88983" lon="2.32791">
        <ele>63.400001525879</ele>
        <time>2016-08-29T18:44:09.000Z</time>
      </trkpt>
      <trkpt lat="48.88995" lon="2.32764">
        <ele>62.799999237061</ele>
        <time>2016-08-29T18:44:14.000Z</time>
      </trkpt>
      <trkpt lat="48.89008" lon="2.3274">
        <ele>62.200000762939</ele>
        <time>2016-08-29T18:44:19.000Z</time>
      </trkpt>
      <trkpt lat="48.89021" lon="2.32717">
        <ele>62</ele>
        <time>2016-08-29T18:44:27.000Z</time>
      </trkpt>
      <trkpt lat="48.89033" lon="2.32694">
        <ele>61.799999237061</ele>
        <time>2016-08-29T18:44:34.000Z</time>
      </trkpt>
      <trkpt lat="48.89045" lon="2.32672">
        <ele>61.200000762939</ele>
        <time>2016-08-29T18:44:42.000Z</time>
      </trkpt>
      <trkpt lat="48.89048" lon="2.32671">
        <ele>61</ele>
        <time>2016-08-29T18:44:47.000Z</time>
      </trkpt>
      <trkpt lat="48.89046" lon="2.32665">
        <ele>61</ele>
        <time>2016-08-29T18:44:57.000Z</time>
      </trkpt>
      <trkpt lat="48.89059" lon="2.3266">
        <ele>60.200000762939</ele>
        <time>2016-08-29T18:45:12.000Z</time>
      </trkpt>
      <trkpt lat="48.89078" lon="2.32661">
        <ele>59.200000762939</ele>
        <time>2016-08-29T18:45:17.000Z</time>
      </trkpt>
      <trkpt lat="48.89097" lon="2.32665">
        <ele>58.400001525879</ele>
        <time>2016-08-29T18:45:23.000Z</time>
      </trkpt>
      <trkpt lat="48.89116" lon="2.32669">
        <ele>57.799999237061</ele>
        <time>2016-08-29T18:45:30.000Z</time>
      </trkpt>
      <trkpt lat="48.89136" lon="2.3267">
        <ele>57</ele>
        <time>2016-08-29T18:45:36.000Z</time>
      </trkpt>
      <trkpt lat="48.89155" lon="2.32678">
        <ele>56.400001525879</ele>
        <time>2016-08-29T18:45:44.000Z</time>
      </trkpt>
      <trkpt lat="48.89176" lon="2.32682">
        <ele>55.799999237061</ele>
        <time>2016-08-29T18:45:49.000Z</time>
      </trkpt>
      <trkpt lat="48.89194" lon="2.32689">
        <ele>55.200000762939</ele>
        <time>2016-08-29T18:45:53.000Z</time>
      </trkpt>
      <trkpt lat="48.89212" lon="2.32697">
        <ele>55.200000762939</ele>
        <time>2016-08-29T18:45:58.000Z</time>
      </trkpt>
      <trkpt lat="48.89234" lon="2.32702">
        <ele>54.799999237061</ele>
        <time>2016-08-29T18:46:03.000Z</time>
      </trkpt>
      <trkpt lat="48.89255" lon="2.32708">
        <ele>54.200000762939</ele>
        <time>2016-08-29T18:46:09.000Z</time>
      </trkpt>
      <trkpt lat="48.89273" lon="2.32712">
        <ele>53.799999237061</ele>
        <time>2016-08-29T18:46:14.000Z</time>
      </trkpt>
      <trkpt lat="48.89294" lon="2.32726">
        <ele>53.799999237061</ele>
        <time>2016-08-29T18:46:19.000Z</time>
      </trkpt>
      <trkpt lat="48.89312" lon="2.32737">
        <ele>53.599998474121</ele>
        <time>2016-08-29T18:46:24.000Z</time>
      </trkpt>
      <trkpt lat="48.8933" lon="2.32745">
        <ele>53.599998474121</ele>
        <time>2016-08-29T18:46:29.000Z</time>
      </trkpt>
      <trkpt lat="48.89352" lon="2.3275">
        <ele>53.200000762939</ele>
        <time>2016-08-29T18:46:34.000Z</time>
      </trkpt>
      <trkpt lat="48.89373" lon="2.32756">
        <ele>53.599998474121</ele>
        <time>2016-08-29T18:46:39.000Z</time>
      </trkpt>
      <trkpt lat="48.89395" lon="2.32759">
        <ele>54.599998474121</ele>
        <time>2016-08-29T18:46:44.000Z</time>
      </trkpt>
      <trkpt lat="48.89404" lon="2.32759">
        <ele>55</ele>
        <time>2016-08-29T18:46:46.000Z</time>
      </trkpt>
      <trkpt lat="48.89423" lon="2.32763">
        <ele>55.799999237061</ele>
        <time>2016-08-29T18:46:50.000Z</time>
      </trkpt>
      <trkpt lat="48.89442" lon="2.32767">
        <ele>56.400001525879</ele>
        <time>2016-08-29T18:46:54.000Z</time>
      </trkpt>
      <trkpt lat="48.89459" lon="2.32772">
        <ele>56</ele>
        <time>2016-08-29T18:46:58.000Z</time>
      </trkpt>
      <trkpt lat="48.89469" lon="2.32778">
        <ele>55.599998474121</ele>
        <time>2016-08-29T18:47:01.000Z</time>
      </trkpt>
      <trkpt lat="48.89488" lon="2.32782">
        <ele>54.799999237061</ele>
        <time>2016-08-29T18:47:05.000Z</time>
      </trkpt>
      <trkpt lat="48.89505" lon="2.32786">
        <ele>53.799999237061</ele>
        <time>2016-08-29T18:47:09.000Z</time>
      </trkpt>
      <trkpt lat="48.89517" lon="2.32792">
        <ele>53.200000762939</ele>
        <time>2016-08-29T18:47:12.000Z</time>
      </trkpt>
      <trkpt lat="48.89538" lon="2.32798">
        <ele>53</ele>
        <time>2016-08-29T18:47:18.000Z</time>
      </trkpt>
      <trkpt lat="48.89539" lon="2.328">
        <ele>53</ele>
        <time>2016-08-29T18:47:19.000Z</time>
      </trkpt>
      <trkpt lat="48.89547" lon="2.32805">
        <ele>53</ele>
        <time>2016-08-29T18:47:22.000Z</time>
      </trkpt>
      <trkpt lat="48.89565" lon="2.32812">
        <ele>53</ele>
        <time>2016-08-29T18:47:27.000Z</time>
      </trkpt>
      <trkpt lat="48.89584" lon="2.32821">
        <ele>53</ele>
        <time>2016-08-29T18:47:32.000Z</time>
      </trkpt>
      <trkpt lat="48.89606" lon="2.32828">
        <ele>53</ele>
        <time>2016-08-29T18:47:37.000Z</time>
      </trkpt>
      <trkpt lat="48.89625" lon="2.32835">
        <ele>53.799999237061</ele>
        <time>2016-08-29T18:47:42.000Z</time>
      </trkpt>
      <trkpt lat="48.89647" lon="2.3284">
        <ele>54.599998474121</ele>
        <time>2016-08-29T18:47:47.000Z</time>
      </trkpt>
      <trkpt lat="48.89665" lon="2.32844">
        <ele>55.599998474121</ele>
        <time>2016-08-29T18:47:51.000Z</time>
      </trkpt>
      <trkpt lat="48.89686" lon="2.32845">
        <ele>56.400001525879</ele>
        <time>2016-08-29T18:47:55.000Z</time>
      </trkpt>
      <trkpt lat="48.89695" lon="2.32847">
        <ele>56.400001525879</ele>
        <time>2016-08-29T18:47:57.000Z</time>
      </trkpt>
      <trkpt lat="48.89716" lon="2.32857">
        <ele>55.400001525879</ele>
        <time>2016-08-29T18:48:02.000Z</time>
      </trkpt>
      <trkpt lat="48.89735" lon="2.32865">
        <ele>54.599998474121</ele>
        <time>2016-08-29T18:48:08.000Z</time>
      </trkpt>
      <trkpt lat="48.89737" lon="2.32867">
        <ele>54.400001525879</ele>
        <time>2016-08-29T18:48:09.000Z</time>
      </trkpt>
      <trkpt lat="48.89743" lon="2.32873">
        <ele>54</ele>
        <time>2016-08-29T18:48:12.000Z</time>
      </trkpt>
      <trkpt lat="48.89752" lon="2.32881">
        <ele>53.599998474121</ele>
        <time>2016-08-29T18:48:15.000Z</time>
      </trkpt>
      <trkpt lat="48.89758" lon="2.32888">
        <ele>53.200000762939</ele>
        <time>2016-08-29T18:48:18.000Z</time>
      </trkpt>
      <trkpt lat="48.89767" lon="2.329">
        <ele>52.599998474121</ele>
        <time>2016-08-29T18:49:05.000Z</time>
      </trkpt>
      <trkpt lat="48.89788" lon="2.32911">
        <ele>51.799999237061</ele>
        <time>2016-08-29T18:49:17.000Z</time>
      </trkpt>
      <trkpt lat="48.89806" lon="2.32917">
        <ele>51.200000762939</ele>
        <time>2016-08-29T18:49:22.000Z</time>
      </trkpt>
      <trkpt lat="48.89827" lon="2.32927">
        <ele>50.799999237061</ele>
        <time>2016-08-29T18:49:27.000Z</time>
      </trkpt>
      <trkpt lat="48.89846" lon="2.32934">
        <ele>50.400001525879</ele>
        <time>2016-08-29T18:49:31.000Z</time>
      </trkpt>
      <trkpt lat="48.89866" lon="2.32941">
        <ele>50.599998474121</ele>
        <time>2016-08-29T18:49:35.000Z</time>
      </trkpt>
      <trkpt lat="48.89885" lon="2.32949">
        <ele>51</ele>
        <time>2016-08-29T18:49:39.000Z</time>
      </trkpt>
      <trkpt lat="48.89902" lon="2.32962">
        <ele>51.599998474121</ele>
        <time>2016-08-29T18:49:43.000Z</time>
      </trkpt>
      <trkpt lat="48.8992" lon="2.32972">
        <ele>52</ele>
        <time>2016-08-29T18:49:47.000Z</time>
      </trkpt>
      <trkpt lat="48.89941" lon="2.32981">
        <ele>52</ele>
        <time>2016-08-29T18:49:52.000Z</time>
      </trkpt>
      <trkpt lat="48.89963" lon="2.32988">
        <ele>50.200000762939</ele>
        <time>2016-08-29T18:49:57.000Z</time>
      </trkpt>
      <trkpt lat="48.89983" lon="2.32992">
        <ele>48.599998474121</ele>
        <time>2016-08-29T18:50:01.000Z</time>
      </trkpt>
      <trkpt lat="48.90001" lon="2.32997">
        <ele>47.200000762939</ele>
        <time>2016-08-29T18:50:05.000Z</time>
      </trkpt>
      <trkpt lat="48.9002" lon="2.33009">
        <ele>45.400001525879</ele>
        <time>2016-08-29T18:50:11.000Z</time>
      </trkpt>
      <trkpt lat="48.90023" lon="2.3301">
        <ele>45</ele>
        <time>2016-08-29T18:50:12.000Z</time>
      </trkpt>
      <trkpt lat="48.90035" lon="2.33015">
        <ele>44.799999237061</ele>
        <time>2016-08-29T18:50:16.000Z</time>
      </trkpt>
      <trkpt lat="48.90038" lon="2.33016">
        <ele>44.599998474121</ele>
        <time>2016-08-29T18:50:17.000Z</time>
      </trkpt>
      <trkpt lat="48.90044" lon="2.3302">
        <ele>44.599998474121</ele>
        <time>2016-08-29T18:50:21.000Z</time>
      </trkpt>
      <trkpt lat="48.90064" lon="2.33028">
        <ele>44.200000762939</ele>
        <time>2016-08-29T18:50:32.000Z</time>
      </trkpt>
      <trkpt lat="48.90083" lon="2.33033">
        <ele>43.799999237061</ele>
        <time>2016-08-29T18:50:38.000Z</time>
      </trkpt>
      <trkpt lat="48.90102" lon="2.33024">
        <ele>43.799999237061</ele>
        <time>2016-08-29T18:50:44.000Z</time>
      </trkpt>
      <trkpt lat="48.90122" lon="2.3303">
        <ele>43</ele>
        <time>2016-08-29T18:50:50.000Z</time>
      </trkpt>
      <trkpt lat="48.90141" lon="2.33032">
        <ele>42.400001525879</ele>
        <time>2016-08-29T18:50:55.000Z</time>
      </trkpt>
      <trkpt lat="48.90162" lon="2.33035">
        <ele>42</ele>
        <time>2016-08-29T18:51:00.000Z</time>
      </trkpt>
      <trkpt lat="48.90183" lon="2.33042">
        <ele>41.400001525879</ele>
        <time>2016-08-29T18:51:05.000Z</time>
      </trkpt>
      <trkpt lat="48.90201" lon="2.33049">
        <ele>41.599998474121</ele>
        <time>2016-08-29T18:51:10.000Z</time>
      </trkpt>
      <trkpt lat="48.90222" lon="2.33051">
        <ele>42.200000762939</ele>
        <time>2016-08-29T18:51:16.000Z</time>
      </trkpt>
      <trkpt lat="48.90245" lon="2.33057">
        <ele>42.799999237061</ele>
        <time>2016-08-29T18:51:21.000Z</time>
      </trkpt>
      <trkpt lat="48.90265" lon="2.33063">
        <ele>43</ele>
        <time>2016-08-29T18:51:25.000Z</time>
      </trkpt>
      <trkpt lat="48.90286" lon="2.33069">
        <ele>42.400001525879</ele>
        <time>2016-08-29T18:51:29.000Z</time>
      </trkpt>
      <trkpt lat="48.90306" lon="2.33074">
        <ele>41.400001525879</ele>
        <time>2016-08-29T18:51:33.000Z</time>
      </trkpt>
      <trkpt lat="48.90326" lon="2.3308">
        <ele>40.400001525879</ele>
        <time>2016-08-29T18:51:37.000Z</time>
      </trkpt>
      <trkpt lat="48.90346" lon="2.33087">
        <ele>39.599998474121</ele>
        <time>2016-08-29T18:51:41.000Z</time>
      </trkpt>
      <trkpt lat="48.90364" lon="2.33092">
        <ele>39.200000762939</ele>
        <time>2016-08-29T18:51:45.000Z</time>
      </trkpt>
      <trkpt lat="48.90383" lon="2.33098">
        <ele>39.200000762939</ele>
        <time>2016-08-29T18:51:49.000Z</time>
      </trkpt>
      <trkpt lat="48.90401" lon="2.33104">
        <ele>39</ele>
        <time>2016-08-29T18:51:52.000Z</time>
      </trkpt>
      <trkpt lat="48.90419" lon="2.33108">
        <ele>39</ele>
        <time>2016-08-29T18:51:55.000Z</time>
      </trkpt>
      <trkpt lat="48.90429" lon="2.3311">
        <ele>38.799999237061</ele>
        <time>2016-08-29T18:51:57.000Z</time>
      </trkpt>
      <trkpt lat="48.90451" lon="2.33117">
        <ele>38.400001525879</ele>
        <time>2016-08-29T18:52:01.000Z</time>
      </trkpt>
      <trkpt lat="48.90471" lon="2.33123">
        <ele>37.799999237061</ele>
        <time>2016-08-29T18:52:05.000Z</time>
      </trkpt>
      <trkpt lat="48.90492" lon="2.33128">
        <ele>37.400001525879</ele>
        <time>2016-08-29T18:52:09.000Z</time>
      </trkpt>
      <trkpt lat="48.90512" lon="2.33134">
        <ele>37.400001525879</ele>
        <time>2016-08-29T18:52:13.000Z</time>
      </trkpt>
      <trkpt lat="48.90532" lon="2.33142">
        <ele>37.400001525879</ele>
        <time>2016-08-29T18:52:17.000Z</time>
      </trkpt>
      <trkpt lat="48.90551" lon="2.33148">
        <ele>37.599998474121</ele>
        <time>2016-08-29T18:52:21.000Z</time>
      </trkpt>
      <trkpt lat="48.90571" lon="2.33155">
        <ele>37.599998474121</ele>
        <time>2016-08-29T18:52:25.000Z</time>
      </trkpt>
      <trkpt lat="48.90592" lon="2.33163">
        <ele>37.799999237061</ele>
        <time>2016-08-29T18:52:29.000Z</time>
      </trkpt>
      <trkpt lat="48.90611" lon="2.33172">
        <ele>38</ele>
        <time>2016-08-29T18:52:33.000Z</time>
      </trkpt>
      <trkpt lat="48.90632" lon="2.33182">
        <ele>37.400001525879</ele>
        <time>2016-08-29T18:52:38.000Z</time>
      </trkpt>
      <trkpt lat="48.90643" lon="2.33185">
        <ele>37.400001525879</ele>
        <time>2016-08-29T18:52:40.000Z</time>
      </trkpt>
      <trkpt lat="48.90662" lon="2.33189">
        <ele>37</ele>
        <time>2016-08-29T18:52:44.000Z</time>
      </trkpt>
      <trkpt lat="48.90681" lon="2.33196">
        <ele>36.799999237061</ele>
        <time>2016-08-29T18:52:48.000Z</time>
      </trkpt>
      <trkpt lat="48.90685" lon="2.33198">
        <ele>36.599998474121</ele>
        <time>2016-08-29T18:52:49.000Z</time>
      </trkpt>
      <trkpt lat="48.90707" lon="2.33205">
        <ele>36.400001525879</ele>
        <time>2016-08-29T18:52:54.000Z</time>
      </trkpt>
      <trkpt lat="48.90725" lon="2.3321">
        <ele>36</ele>
        <time>2016-08-29T18:52:58.000Z</time>
      </trkpt>
      <trkpt lat="48.90745" lon="2.33215">
        <ele>35.599998474121</ele>
        <time>2016-08-29T18:53:02.000Z</time>
      </trkpt>
      <trkpt lat="48.90766" lon="2.33221">
        <ele>35.200000762939</ele>
        <time>2016-08-29T18:53:06.000Z</time>
      </trkpt>
      <trkpt lat="48.90777" lon="2.33224">
        <ele>35</ele>
        <time>2016-08-29T18:53:08.000Z</time>
      </trkpt>
      <trkpt lat="48.90787" lon="2.33227">
        <ele>35</ele>
        <time>2016-08-29T18:53:10.000Z</time>
      </trkpt>
      <trkpt lat="48.90808" lon="2.33237">
        <ele>35</ele>
        <time>2016-08-29T18:53:14.000Z</time>
      </trkpt>
      <trkpt lat="48.90827" lon="2.33247">
        <ele>35</ele>
        <time>2016-08-29T18:53:18.000Z</time>
      </trkpt>
      <trkpt lat="48.90853" lon="2.3325">
        <ele>35</ele>
        <time>2016-08-29T18:53:22.000Z</time>
      </trkpt>
      <trkpt lat="48.90873" lon="2.33255">
        <ele>35</ele>
        <time>2016-08-29T18:53:26.000Z</time>
      </trkpt>
      <trkpt lat="48.90893" lon="2.33261">
        <ele>34.799999237061</ele>
        <time>2016-08-29T18:53:30.000Z</time>
      </trkpt>
      <trkpt lat="48.9091" lon="2.33264">
        <ele>34.799999237061</ele>
        <time>2016-08-29T18:53:34.000Z</time>
      </trkpt>
      <trkpt lat="48.90932" lon="2.33272">
        <ele>34.599998474121</ele>
        <time>2016-08-29T18:53:39.000Z</time>
      </trkpt>
      <trkpt lat="48.9095" lon="2.33277">
        <ele>34.799999237061</ele>
        <time>2016-08-29T18:53:43.000Z</time>
      </trkpt>
      <trkpt lat="48.90972" lon="2.33284">
        <ele>34.799999237061</ele>
        <time>2016-08-29T18:53:48.000Z</time>
      </trkpt>
      <trkpt lat="48.90986" lon="2.3329">
        <ele>35</ele>
        <time>2016-08-29T18:53:51.000Z</time>
      </trkpt>
      <trkpt lat="48.91006" lon="2.33298">
        <ele>35</ele>
        <time>2016-08-29T18:53:55.000Z</time>
      </trkpt>
      <trkpt lat="48.91025" lon="2.33302">
        <ele>35</ele>
        <time>2016-08-29T18:53:59.000Z</time>
      </trkpt>
      <trkpt lat="48.91045" lon="2.33308">
        <ele>35.200000762939</ele>
        <time>2016-08-29T18:54:03.000Z</time>
      </trkpt>
      <trkpt lat="48.91063" lon="2.33314">
        <ele>35.400001525879</ele>
        <time>2016-08-29T18:54:07.000Z</time>
      </trkpt>
      <trkpt lat="48.91083" lon="2.33322">
        <ele>35.799999237061</ele>
        <time>2016-08-29T18:54:11.000Z</time>
      </trkpt>
      <trkpt lat="48.91092" lon="2.33327">
        <ele>35.799999237061</ele>
        <time>2016-08-29T18:54:13.000Z</time>
      </trkpt>
      <trkpt lat="48.9111" lon="2.33333">
        <ele>36</ele>
        <time>2016-08-29T18:54:17.000Z</time>
      </trkpt>
      <trkpt lat="48.91128" lon="2.33341">
        <ele>36.200000762939</ele>
        <time>2016-08-29T18:54:21.000Z</time>
      </trkpt>
      <trkpt lat="48.91147" lon="2.33353">
        <ele>36.599998474121</ele>
        <time>2016-08-29T18:54:25.000Z</time>
      </trkpt>
      <trkpt lat="48.91155" lon="2.3336">
        <ele>36.799999237061</ele>
        <time>2016-08-29T18:54:28.000Z</time>
      </trkpt>
      <trkpt lat="48.91169" lon="2.3337">
        <ele>37</ele>
        <time>2016-08-29T18:54:32.000Z</time>
      </trkpt>
      <trkpt lat="48.91184" lon="2.33378">
        <ele>37.200000762939</ele>
        <time>2016-08-29T18:54:36.000Z</time>
      </trkpt>
      <trkpt lat="48.91195" lon="2.33389">
        <ele>37.599998474121</ele>
        <time>2016-08-29T18:54:40.000Z</time>
      </trkpt>
      <trkpt lat="48.91202" lon="2.33395">
        <ele>38</ele>
        <time>2016-08-29T18:54:43.000Z</time>
      </trkpt>
      <trkpt lat="48.91204" lon="2.3341">
        <ele>38.400001525879</ele>
        <time>2016-08-29T18:55:57.000Z</time>
      </trkpt>
      <trkpt lat="48.91217" lon="2.33418">
        <ele>39</ele>
        <time>2016-08-29T18:56:33.000Z</time>
      </trkpt>
      <trkpt lat="48.91233" lon="2.33432">
        <ele>39.400001525879</ele>
        <time>2016-08-29T18:56:39.000Z</time>
      </trkpt>
      <trkpt lat="48.91248" lon="2.33448">
        <ele>39.599998474121</ele>
        <time>2016-08-29T18:56:45.000Z</time>
      </trkpt>
      <trkpt lat="48.91258" lon="2.33469">
        <ele>39.799999237061</ele>
        <time>2016-08-29T18:56:51.000Z</time>
      </trkpt>
      <trkpt lat="48.91252" lon="2.33482">
        <ele>39.599998474121</ele>
        <time>2016-08-29T18:56:55.000Z</time>
      </trkpt>
      <trkpt lat="48.91237" lon="2.33504">
        <ele>40</ele>
        <time>2016-08-29T18:57:02.000Z</time>
      </trkpt>
      <trkpt lat="48.9122" lon="2.33524">
        <ele>40.400001525879</ele>
        <time>2016-08-29T18:57:08.000Z</time>
      </trkpt>
      <trkpt lat="48.91202" lon="2.33539">
        <ele>40.799999237061</ele>
        <time>2016-08-29T18:57:15.000Z</time>
      </trkpt>
      <trkpt lat="48.91186" lon="2.33561">
        <ele>41.400001525879</ele>
        <time>2016-08-29T18:57:19.000Z</time>
      </trkpt>
      <trkpt lat="48.91182" lon="2.33596">
        <ele>41.599998474121</ele>
        <time>2016-08-29T18:57:23.000Z</time>
      </trkpt>
      <trkpt lat="48.91168" lon="2.33623">
        <ele>41.200000762939</ele>
        <time>2016-08-29T18:57:28.000Z</time>
      </trkpt>
      <trkpt lat="48.91152" lon="2.33648">
        <ele>40.599998474121</ele>
        <time>2016-08-29T18:57:33.000Z</time>
      </trkpt>
      <trkpt lat="48.91139" lon="2.3367">
        <ele>40</ele>
        <time>2016-08-29T18:57:37.000Z</time>
      </trkpt>
      <trkpt lat="48.91132" lon="2.33681">
        <ele>39.400001525879</ele>
        <time>2016-08-29T18:57:39.000Z</time>
      </trkpt>
      <trkpt lat="48.91113" lon="2.33698">
        <ele>38.799999237061</ele>
        <time>2016-08-29T18:57:44.000Z</time>
      </trkpt>
      <trkpt lat="48.91097" lon="2.33714">
        <ele>38.799999237061</ele>
        <time>2016-08-29T18:57:48.000Z</time>
      </trkpt>
      <trkpt lat="48.91094" lon="2.33718">
        <ele>38.799999237061</ele>
        <time>2016-08-29T18:57:49.000Z</time>
      </trkpt>
      <trkpt lat="48.91086" lon="2.33726">
        <ele>39</ele>
        <time>2016-08-29T18:57:51.000Z</time>
      </trkpt>
      <trkpt lat="48.9107" lon="2.33743">
        <ele>39</ele>
        <time>2016-08-29T18:57:55.000Z</time>
      </trkpt>
      <trkpt lat="48.91066" lon="2.33747">
        <ele>39</ele>
        <time>2016-08-29T18:57:56.000Z</time>
      </trkpt>
      <trkpt lat="48.91052" lon="2.33762">
        <ele>39.200000762939</ele>
        <time>2016-08-29T18:58:00.000Z</time>
      </trkpt>
      <trkpt lat="48.91037" lon="2.33779">
        <ele>39</ele>
        <time>2016-08-29T18:58:05.000Z</time>
      </trkpt>
      <trkpt lat="48.91031" lon="2.33787">
        <ele>38.599998474121</ele>
        <time>2016-08-29T18:58:07.000Z</time>
      </trkpt>
      <trkpt lat="48.91023" lon="2.33794">
        <ele>38.400001525879</ele>
        <time>2016-08-29T18:58:09.000Z</time>
      </trkpt>
      <trkpt lat="48.91008" lon="2.3381">
        <ele>38</ele>
        <time>2016-08-29T18:58:13.000Z</time>
      </trkpt>
      <trkpt lat="48.90996" lon="2.33822">
        <ele>38.200000762939</ele>
        <time>2016-08-29T18:58:16.000Z</time>
      </trkpt>
      <trkpt lat="48.90981" lon="2.33838">
        <ele>38.599998474121</ele>
        <time>2016-08-29T18:58:20.000Z</time>
      </trkpt>
      <trkpt lat="48.90974" lon="2.33848">
        <ele>38.599998474121</ele>
        <time>2016-08-29T18:58:22.000Z</time>
      </trkpt>
      <trkpt lat="48.90959" lon="2.33869">
        <ele>38.599998474121</ele>
        <time>2016-08-29T18:58:27.000Z</time>
      </trkpt>
      <trkpt lat="48.90951" lon="2.3388">
        <ele>38.400001525879</ele>
        <time>2016-08-29T18:58:29.000Z</time>
      </trkpt>
      <trkpt lat="48.90933" lon="2.33896">
        <ele>38.200000762939</ele>
        <time>2016-08-29T18:58:33.000Z</time>
      </trkpt>
      <trkpt lat="48.90929" lon="2.33901">
        <ele>38.200000762939</ele>
        <time>2016-08-29T18:58:34.000Z</time>
      </trkpt>
      <trkpt lat="48.90911" lon="2.33915">
        <ele>38.400001525879</ele>
        <time>2016-08-29T18:58:38.000Z</time>
      </trkpt>
      <trkpt lat="48.90897" lon="2.33932">
        <ele>38.799999237061</ele>
        <time>2016-08-29T18:58:42.000Z</time>
      </trkpt>
      <trkpt lat="48.90886" lon="2.33945">
        <ele>39</ele>
        <time>2016-08-29T18:58:45.000Z</time>
      </trkpt>
      <trkpt lat="48.9087" lon="2.33965">
        <ele>38.599998474121</ele>
        <time>2016-08-29T18:58:50.000Z</time>
      </trkpt>
      <trkpt lat="48.90867" lon="2.33968">
        <ele>38.400001525879</ele>
        <time>2016-08-29T18:58:51.000Z</time>
      </trkpt>
      <trkpt lat="48.90863" lon="2.33975">
        <ele>38.400001525879</ele>
        <time>2016-08-29T18:58:53.000Z</time>
      </trkpt>
      <trkpt lat="48.90852" lon="2.3399">
        <ele>38.400001525879</ele>
        <time>2016-08-29T18:58:57.000Z</time>
      </trkpt>
      <trkpt lat="48.90842" lon="2.34003">
        <ele>38.400001525879</ele>
        <time>2016-08-29T18:59:00.000Z</time>
      </trkpt>
      <trkpt lat="48.90832" lon="2.34018">
        <ele>38.599998474121</ele>
        <time>2016-08-29T18:59:04.000Z</time>
      </trkpt>
      <trkpt lat="48.90825" lon="2.34031">
        <ele>38.799999237061</ele>
        <time>2016-08-29T18:59:07.000Z</time>
      </trkpt>
      <trkpt lat="48.90808" lon="2.34053">
        <ele>38.599998474121</ele>
        <time>2016-08-29T18:59:12.000Z</time>
      </trkpt>
      <trkpt lat="48.90804" lon="2.34058">
        <ele>38.599998474121</ele>
        <time>2016-08-29T18:59:13.000Z</time>
      </trkpt>
      <trkpt lat="48.9079" lon="2.34074">
        <ele>38.200000762939</ele>
        <time>2016-08-29T18:59:17.000Z</time>
      </trkpt>
      <trkpt lat="48.90778" lon="2.34089">
        <ele>38.200000762939</ele>
        <time>2016-08-29T18:59:21.000Z</time>
      </trkpt>
      <trkpt lat="48.90763" lon="2.34105">
        <ele>39.200000762939</ele>
        <time>2016-08-29T18:59:27.000Z</time>
      </trkpt>
      <trkpt lat="48.90753" lon="2.34118">
        <ele>40</ele>
        <time>2016-08-29T18:59:30.000Z</time>
      </trkpt>
      <trkpt lat="48.90738" lon="2.34138">
        <ele>40.799999237061</ele>
        <time>2016-08-29T18:59:34.000Z</time>
      </trkpt>
      <trkpt lat="48.90723" lon="2.34158">
        <ele>40</ele>
        <time>2016-08-29T18:59:38.000Z</time>
      </trkpt>
      <trkpt lat="48.90713" lon="2.34173">
        <ele>39.599998474121</ele>
        <time>2016-08-29T18:59:41.000Z</time>
      </trkpt>
      <trkpt lat="48.90698" lon="2.34194">
        <ele>39</ele>
        <time>2016-08-29T18:59:45.000Z</time>
      </trkpt>
      <trkpt lat="48.90687" lon="2.34211">
        <ele>38.400001525879</ele>
        <time>2016-08-29T18:59:48.000Z</time>
      </trkpt>
      <trkpt lat="48.90676" lon="2.34228">
        <ele>37.799999237061</ele>
        <time>2016-08-29T18:59:51.000Z</time>
      </trkpt>
      <trkpt lat="48.90659" lon="2.3425">
        <ele>37.599998474121</ele>
        <time>2016-08-29T18:59:55.000Z</time>
      </trkpt>
      <trkpt lat="48.90643" lon="2.3427">
        <ele>37.400001525879</ele>
        <time>2016-08-29T18:59:59.000Z</time>
      </trkpt>
      <trkpt lat="48.90627" lon="2.34293">
        <ele>37.200000762939</ele>
        <time>2016-08-29T19:00:04.000Z</time>
      </trkpt>
      <trkpt lat="48.90616" lon="2.34305">
        <ele>37.200000762939</ele>
        <time>2016-08-29T19:00:07.000Z</time>
      </trkpt>
      <trkpt lat="48.906" lon="2.34324">
        <ele>37</ele>
        <time>2016-08-29T19:00:11.000Z</time>
      </trkpt>
      <trkpt lat="48.90585" lon="2.34346">
        <ele>38</ele>
        <time>2016-08-29T19:00:15.000Z</time>
      </trkpt>
      <trkpt lat="48.90568" lon="2.34367">
        <ele>38.799999237061</ele>
        <time>2016-08-29T19:00:19.000Z</time>
      </trkpt>
      <trkpt lat="48.90553" lon="2.3439">
        <ele>39</ele>
        <time>2016-08-29T19:00:24.000Z</time>
      </trkpt>
      <trkpt lat="48.90553" lon="2.34395">
        <ele>39</ele>
        <time>2016-08-29T19:00:25.000Z</time>
      </trkpt>
      <trkpt lat="48.90548" lon="2.34402">
        <ele>39</ele>
        <time>2016-08-29T19:00:28.000Z</time>
      </trkpt>
      <trkpt lat="48.90548" lon="2.34421">
        <ele>39</ele>
        <time>2016-08-29T19:01:05.000Z</time>
      </trkpt>
      <trkpt lat="48.90561" lon="2.34423">
        <ele>38.799999237061</ele>
        <time>2016-08-29T19:01:09.000Z</time>
      </trkpt>
      <trkpt lat="48.90579" lon="2.3442">
        <ele>39</ele>
        <time>2016-08-29T19:01:13.000Z</time>
      </trkpt>
      <trkpt lat="48.90589" lon="2.34418">
        <ele>39</ele>
        <time>2016-08-29T19:01:15.000Z</time>
      </trkpt>
      <trkpt lat="48.90608" lon="2.34416">
        <ele>39</ele>
        <time>2016-08-29T19:01:19.000Z</time>
      </trkpt>
      <trkpt lat="48.90628" lon="2.34413">
        <ele>39</ele>
        <time>2016-08-29T19:01:24.000Z</time>
      </trkpt>
      <trkpt lat="48.90649" lon="2.34413">
        <ele>39</ele>
        <time>2016-08-29T19:01:30.000Z</time>
      </trkpt>
      <trkpt lat="48.90668" lon="2.34413">
        <ele>39</ele>
        <time>2016-08-29T19:01:34.000Z</time>
      </trkpt>
      <trkpt lat="48.90689" lon="2.34415">
        <ele>39</ele>
        <time>2016-08-29T19:01:38.000Z</time>
      </trkpt>
      <trkpt lat="48.90708" lon="2.34414">
        <ele>39</ele>
        <time>2016-08-29T19:01:41.000Z</time>
      </trkpt>
      <trkpt lat="48.9073" lon="2.34414">
        <ele>39</ele>
        <time>2016-08-29T19:01:45.000Z</time>
      </trkpt>
      <trkpt lat="48.90752" lon="2.34414">
        <ele>39</ele>
        <time>2016-08-29T19:01:49.000Z</time>
      </trkpt>
      <trkpt lat="48.90773" lon="2.34414">
        <ele>39</ele>
        <time>2016-08-29T19:01:53.000Z</time>
      </trkpt>
      <trkpt lat="48.90795" lon="2.34417">
        <ele>38.599998474121</ele>
        <time>2016-08-29T19:01:57.000Z</time>
      </trkpt>
      <trkpt lat="48.90817" lon="2.34419">
        <ele>38</ele>
        <time>2016-08-29T19:02:01.000Z</time>
      </trkpt>
      <trkpt lat="48.90837" lon="2.3442">
        <ele>37.599998474121</ele>
        <time>2016-08-29T19:02:05.000Z</time>
      </trkpt>
      <trkpt lat="48.90847" lon="2.34421">
        <ele>37.400001525879</ele>
        <time>2016-08-29T19:02:07.000Z</time>
      </trkpt>
      <trkpt lat="48.90867" lon="2.34419">
        <ele>36.799999237061</ele>
        <time>2016-08-29T19:02:10.000Z</time>
      </trkpt>
      <trkpt lat="48.90888" lon="2.34418">
        <ele>36.599998474121</ele>
        <time>2016-08-29T19:02:14.000Z</time>
      </trkpt>
      <trkpt lat="48.90893" lon="2.34417">
        <ele>36.599998474121</ele>
        <time>2016-08-29T19:02:15.000Z</time>
      </trkpt>
      <trkpt lat="48.90911" lon="2.34418">
        <ele>36.400001525879</ele>
        <time>2016-08-29T19:02:18.000Z</time>
      </trkpt>
      <trkpt lat="48.90917" lon="2.34417">
        <ele>36.200000762939</ele>
        <time>2016-08-29T19:02:19.000Z</time>
      </trkpt>
      <trkpt lat="48.90937" lon="2.34416">
        <ele>36</ele>
        <time>2016-08-29T19:02:22.000Z</time>
      </trkpt>
      <trkpt lat="48.90958" lon="2.34416">
        <ele>36.200000762939</ele>
        <time>2016-08-29T19:02:25.000Z</time>
      </trkpt>
      <trkpt lat="48.90979" lon="2.34416">
        <ele>36.400001525879</ele>
        <time>2016-08-29T19:02:28.000Z</time>
      </trkpt>
      <trkpt lat="48.91002" lon="2.34414">
        <ele>36.799999237061</ele>
        <time>2016-08-29T19:02:31.000Z</time>
      </trkpt>
      <trkpt lat="48.91022" lon="2.34417">
        <ele>37</ele>
        <time>2016-08-29T19:02:34.000Z</time>
      </trkpt>
      <trkpt lat="48.9104" lon="2.34419">
        <ele>37.200000762939</ele>
        <time>2016-08-29T19:02:37.000Z</time>
      </trkpt>
      <trkpt lat="48.91062" lon="2.34421">
        <ele>37.799999237061</ele>
        <time>2016-08-29T19:02:41.000Z</time>
      </trkpt>
      <trkpt lat="48.91085" lon="2.34424">
        <ele>38.200000762939</ele>
        <time>2016-08-29T19:02:45.000Z</time>
      </trkpt>
      <trkpt lat="48.91109" lon="2.34427">
        <ele>38.799999237061</ele>
        <time>2016-08-29T19:02:49.000Z</time>
      </trkpt>
      <trkpt lat="48.91128" lon="2.34429">
        <ele>38.599998474121</ele>
        <time>2016-08-29T19:02:52.000Z</time>
      </trkpt>
      <trkpt lat="48.91147" lon="2.34427">
        <ele>38.200000762939</ele>
        <time>2016-08-29T19:02:55.000Z</time>
      </trkpt>
      <trkpt lat="48.91165" lon="2.34425">
        <ele>37.799999237061</ele>
        <time>2016-08-29T19:02:58.000Z</time>
      </trkpt>
      <trkpt lat="48.91184" lon="2.34423">
        <ele>37.200000762939</ele>
        <time>2016-08-29T19:03:01.000Z</time>
      </trkpt>
      <trkpt lat="48.91207" lon="2.34421">
        <ele>37.200000762939</ele>
        <time>2016-08-29T19:03:05.000Z</time>
      </trkpt>
      <trkpt lat="48.91226" lon="2.3442">
        <ele>37.200000762939</ele>
        <time>2016-08-29T19:03:08.000Z</time>
      </trkpt>
      <trkpt lat="48.91244" lon="2.3442">
        <ele>37.200000762939</ele>
        <time>2016-08-29T19:03:11.000Z</time>
      </trkpt>
      <trkpt lat="48.91249" lon="2.34419">
        <ele>37.200000762939</ele>
        <time>2016-08-29T19:03:12.000Z</time>
      </trkpt>
      <trkpt lat="48.91269" lon="2.34417">
        <ele>37</ele>
        <time>2016-08-29T19:03:16.000Z</time>
      </trkpt>
      <trkpt lat="48.91293" lon="2.34416">
        <ele>37.799999237061</ele>
        <time>2016-08-29T19:03:20.000Z</time>
      </trkpt>
      <trkpt lat="48.91312" lon="2.34417">
        <ele>38.599998474121</ele>
        <time>2016-08-29T19:03:23.000Z</time>
      </trkpt>
      <trkpt lat="48.91318" lon="2.34419">
        <ele>38.799999237061</ele>
        <time>2016-08-29T19:03:24.000Z</time>
      </trkpt>
      <trkpt lat="48.91341" lon="2.3442">
        <ele>39.799999237061</ele>
        <time>2016-08-29T19:03:28.000Z</time>
      </trkpt>
      <trkpt lat="48.91361" lon="2.34417">
        <ele>40.799999237061</ele>
        <time>2016-08-29T19:03:32.000Z</time>
      </trkpt>
      <trkpt lat="48.9137" lon="2.34417">
        <ele>40.400001525879</ele>
        <time>2016-08-29T19:03:34.000Z</time>
      </trkpt>
      <trkpt lat="48.9139" lon="2.34417">
        <ele>39.799999237061</ele>
        <time>2016-08-29T19:03:39.000Z</time>
      </trkpt>
      <trkpt lat="48.91393" lon="2.34416">
        <ele>39.599998474121</ele>
        <time>2016-08-29T19:03:40.000Z</time>
      </trkpt>
      <trkpt lat="48.91397" lon="2.34418">
        <ele>39.400001525879</ele>
        <time>2016-08-29T19:03:43.000Z</time>
      </trkpt>
      <trkpt lat="48.91403" lon="2.34442">
        <ele>38.599998474121</ele>
        <time>2016-08-29T19:05:09.000Z</time>
      </trkpt>
      <trkpt lat="48.91403" lon="2.34448">
        <ele>38.599998474121</ele>
        <time>2016-08-29T19:05:11.000Z</time>
      </trkpt>
      <trkpt lat="48.91398" lon="2.34475">
        <ele>37.400001525879</ele>
        <time>2016-08-29T19:05:16.000Z</time>
      </trkpt>
      <trkpt lat="48.91395" lon="2.34504">
        <ele>36</ele>
        <time>2016-08-29T19:05:20.000Z</time>
      </trkpt>
      <trkpt lat="48.91396" lon="2.34533">
        <ele>35.599998474121</ele>
        <time>2016-08-29T19:05:24.000Z</time>
      </trkpt>
      <trkpt lat="48.91398" lon="2.34562">
        <ele>35.599998474121</ele>
        <time>2016-08-29T19:05:28.000Z</time>
      </trkpt>
      <trkpt lat="48.91407" lon="2.34591">
        <ele>35.200000762939</ele>
        <time>2016-08-29T19:05:32.000Z</time>
      </trkpt>
      <trkpt lat="48.91415" lon="2.34624">
        <ele>34.799999237061</ele>
        <time>2016-08-29T19:05:36.000Z</time>
      </trkpt>
      <trkpt lat="48.91423" lon="2.34657">
        <ele>34.599998474121</ele>
        <time>2016-08-29T19:05:40.000Z</time>
      </trkpt>
      <trkpt lat="48.91429" lon="2.34684">
        <ele>34.599998474121</ele>
        <time>2016-08-29T19:05:44.000Z</time>
      </trkpt>
      <trkpt lat="48.91433" lon="2.34693">
        <ele>34.599998474121</ele>
        <time>2016-08-29T19:05:46.000Z</time>
      </trkpt>
      <trkpt lat="48.91434" lon="2.34699">
        <ele>34.599998474121</ele>
        <time>2016-08-29T19:05:48.000Z</time>
      </trkpt>
      <trkpt lat="48.9144" lon="2.34725">
        <ele>34.799999237061</ele>
        <time>2016-08-29T19:05:55.000Z</time>
      </trkpt>
      <trkpt lat="48.91448" lon="2.34752">
        <ele>35</ele>
        <time>2016-08-29T19:06:00.000Z</time>
      </trkpt>
      <trkpt lat="48.91457" lon="2.34777">
        <ele>35.799999237061</ele>
        <time>2016-08-29T19:06:04.000Z</time>
      </trkpt>
      <trkpt lat="48.91464" lon="2.34807">
        <ele>37</ele>
        <time>2016-08-29T19:06:09.000Z</time>
      </trkpt>
      <trkpt lat="48.91471" lon="2.34836">
        <ele>38</ele>
        <time>2016-08-29T19:06:13.000Z</time>
      </trkpt>
      <trkpt lat="48.91474" lon="2.34848">
        <ele>38</ele>
        <time>2016-08-29T19:06:15.000Z</time>
      </trkpt>
      <trkpt lat="48.91476" lon="2.34866">
        <ele>38.200000762939</ele>
        <time>2016-08-29T19:06:18.000Z</time>
      </trkpt>
      <trkpt lat="48.91479" lon="2.34896">
        <ele>38.799999237061</ele>
        <time>2016-08-29T19:06:24.000Z</time>
      </trkpt>
      <trkpt lat="48.9148" lon="2.34902">
        <ele>38.799999237061</ele>
        <time>2016-08-29T19:06:25.000Z</time>
      </trkpt>
      <trkpt lat="48.91486" lon="2.34926">
        <ele>39</ele>
        <time>2016-08-29T19:06:29.000Z</time>
      </trkpt>
      <trkpt lat="48.91493" lon="2.34954">
        <ele>39</ele>
        <time>2016-08-29T19:06:33.000Z</time>
      </trkpt>
      <trkpt lat="48.91495" lon="2.34962">
        <ele>39</ele>
        <time>2016-08-29T19:06:34.000Z</time>
      </trkpt>
      <trkpt lat="48.91501" lon="2.3499">
        <ele>38.599998474121</ele>
        <time>2016-08-29T19:06:38.000Z</time>
      </trkpt>
      <trkpt lat="48.91501" lon="2.34998">
        <ele>38.599998474121</ele>
        <time>2016-08-29T19:06:39.000Z</time>
      </trkpt>
      <trkpt lat="48.91504" lon="2.35027">
        <ele>38.799999237061</ele>
        <time>2016-08-29T19:06:43.000Z</time>
      </trkpt>
      <trkpt lat="48.91511" lon="2.35059">
        <ele>39</ele>
        <time>2016-08-29T19:06:48.000Z</time>
      </trkpt>
      <trkpt lat="48.91515" lon="2.35104">
        <ele>39</ele>
        <time>2016-08-29T19:06:52.000Z</time>
      </trkpt>
      <trkpt lat="48.91521" lon="2.35133">
        <ele>39</ele>
        <time>2016-08-29T19:06:55.000Z</time>
      </trkpt>
      <trkpt lat="48.91523" lon="2.35141">
        <ele>39</ele>
        <time>2016-08-29T19:06:56.000Z</time>
      </trkpt>
      <trkpt lat="48.91526" lon="2.35166">
        <ele>39</ele>
        <time>2016-08-29T19:06:59.000Z</time>
      </trkpt>
      <trkpt lat="48.91526" lon="2.352">
        <ele>39</ele>
        <time>2016-08-29T19:07:03.000Z</time>
      </trkpt>
      <trkpt lat="48.91527" lon="2.35207">
        <ele>39.200000762939</ele>
        <time>2016-08-29T19:07:04.000Z</time>
      </trkpt>
      <trkpt lat="48.91527" lon="2.35213">
        <ele>39.200000762939</ele>
        <time>2016-08-29T19:07:05.000Z</time>
      </trkpt>
      <trkpt lat="48.91525" lon="2.35237">
        <ele>39</ele>
        <time>2016-08-29T19:07:09.000Z</time>
      </trkpt>
      <trkpt lat="48.91524" lon="2.35251">
        <ele>39</ele>
        <time>2016-08-29T19:07:12.000Z</time>
      </trkpt>
      <trkpt lat="48.91521" lon="2.35278">
        <ele>38.200000762939</ele>
        <time>2016-08-29T19:07:19.000Z</time>
      </trkpt>
      <trkpt lat="48.91521" lon="2.35282">
        <ele>38.200000762939</ele>
        <time>2016-08-29T19:07:21.000Z</time>
      </trkpt>
      <trkpt lat="48.91525" lon="2.35287">
        <ele>38.200000762939</ele>
        <time>2016-08-29T19:07:26.000Z</time>
      </trkpt>
      <trkpt lat="48.91525" lon="2.35303">
        <ele>37.799999237061</ele>
        <time>2016-08-29T19:07:33.000Z</time>
      </trkpt>
      <trkpt lat="48.9153" lon="2.35322">
        <ele>37.400001525879</ele>
        <time>2016-08-29T19:08:13.000Z</time>
      </trkpt>
      <trkpt lat="48.91527" lon="2.35352">
        <ele>37</ele>
        <time>2016-08-29T19:08:20.000Z</time>
      </trkpt>
      <trkpt lat="48.91528" lon="2.35385">
        <ele>37</ele>
        <time>2016-08-29T19:08:26.000Z</time>
      </trkpt>
      <trkpt lat="48.91531" lon="2.35415">
        <ele>37</ele>
        <time>2016-08-29T19:08:31.000Z</time>
      </trkpt>
      <trkpt lat="48.91532" lon="2.35447">
        <ele>37.400001525879</ele>
        <time>2016-08-29T19:08:36.000Z</time>
      </trkpt>
      <trkpt lat="48.91531" lon="2.35478">
        <ele>37.799999237061</ele>
        <time>2016-08-29T19:08:42.000Z</time>
      </trkpt>
      <trkpt lat="48.91531" lon="2.35511">
        <ele>38.200000762939</ele>
        <time>2016-08-29T19:08:47.000Z</time>
      </trkpt>
      <trkpt lat="48.91531" lon="2.35541">
        <ele>38.599998474121</ele>
        <time>2016-08-29T19:08:51.000Z</time>
      </trkpt>
      <trkpt lat="48.91531" lon="2.3557">
        <ele>39</ele>
        <time>2016-08-29T19:08:55.000Z</time>
      </trkpt>
      <trkpt lat="48.9153" lon="2.35602">
        <ele>39.400001525879</ele>
        <time>2016-08-29T19:09:00.000Z</time>
      </trkpt>
      <trkpt lat="48.91531" lon="2.35608">
        <ele>39.599998474121</ele>
        <time>2016-08-29T19:09:01.000Z</time>
      </trkpt>
      <trkpt lat="48.9153" lon="2.35641">
        <ele>40.400001525879</ele>
        <time>2016-08-29T19:09:06.000Z</time>
      </trkpt>
      <trkpt lat="48.91531" lon="2.35672">
        <ele>41</ele>
        <time>2016-08-29T19:09:11.000Z</time>
      </trkpt>
      <trkpt lat="48.91537" lon="2.35703">
        <ele>40.799999237061</ele>
        <time>2016-08-29T19:09:16.000Z</time>
      </trkpt>
      <trkpt lat="48.91538" lon="2.3572">
        <ele>40.799999237061</ele>
        <time>2016-08-29T19:09:19.000Z</time>
      </trkpt>
      <trkpt lat="48.9154" lon="2.35736">
        <ele>40.799999237061</ele>
        <time>2016-08-29T19:09:22.000Z</time>
      </trkpt>
      <trkpt lat="48.91539" lon="2.35761">
        <ele>41</ele>
        <time>2016-08-29T19:09:58.000Z</time>
      </trkpt>
      <trkpt lat="48.91549" lon="2.35772">
        <ele>41</ele>
        <time>2016-08-29T19:10:06.000Z</time>
      </trkpt>
      <trkpt lat="48.91568" lon="2.35779">
        <ele>40.799999237061</ele>
        <time>2016-08-29T19:10:10.000Z</time>
      </trkpt>
      <trkpt lat="48.91587" lon="2.35789">
        <ele>40.799999237061</ele>
        <time>2016-08-29T19:10:15.000Z</time>
      </trkpt>
      <trkpt lat="48.91607" lon="2.35796">
        <ele>40.599998474121</ele>
        <time>2016-08-29T19:10:21.000Z</time>
      </trkpt>
      <trkpt lat="48.91628" lon="2.35795">
        <ele>40</ele>
        <time>2016-08-29T19:10:26.000Z</time>
      </trkpt>
      <trkpt lat="48.91647" lon="2.35795">
        <ele>39.599998474121</ele>
        <time>2016-08-29T19:10:30.000Z</time>
      </trkpt>
      <trkpt lat="48.91668" lon="2.35793">
        <ele>39.400001525879</ele>
        <time>2016-08-29T19:10:35.000Z</time>
      </trkpt>
      <trkpt lat="48.91689" lon="2.3579">
        <ele>39.400001525879</ele>
        <time>2016-08-29T19:10:40.000Z</time>
      </trkpt>
      <trkpt lat="48.9171" lon="2.35785">
        <ele>39.599998474121</ele>
        <time>2016-08-29T19:10:45.000Z</time>
      </trkpt>
      <trkpt lat="48.91728" lon="2.35782">
        <ele>39.599998474121</ele>
        <time>2016-08-29T19:10:49.000Z</time>
      </trkpt>
      <trkpt lat="48.91745" lon="2.35781">
        <ele>39</ele>
        <time>2016-08-29T19:10:53.000Z</time>
      </trkpt>
      <trkpt lat="48.91765" lon="2.35768">
        <ele>38.400001525879</ele>
        <time>2016-08-29T19:10:58.000Z</time>
      </trkpt>
      <trkpt lat="48.91769" lon="2.35765">
        <ele>38.400001525879</ele>
        <time>2016-08-29T19:10:59.000Z</time>
      </trkpt>
      <trkpt lat="48.91786" lon="2.35754">
        <ele>38</ele>
        <time>2016-08-29T19:11:04.000Z</time>
      </trkpt>
      <trkpt lat="48.91794" lon="2.35752">
        <ele>38</ele>
        <time>2016-08-29T19:11:06.000Z</time>
      </trkpt>
      <trkpt lat="48.91812" lon="2.35756">
        <ele>38</ele>
        <time>2016-08-29T19:11:10.000Z</time>
      </trkpt>
      <trkpt lat="48.91827" lon="2.35761">
        <ele>38</ele>
        <time>2016-08-29T19:11:14.000Z</time>
      </trkpt>
      <trkpt lat="48.91833" lon="2.35763">
        <ele>38</ele>
        <time>2016-08-29T19:11:17.000Z</time>
      </trkpt>
      <trkpt lat="48.9183" lon="2.35797">
        <ele>38</ele>
        <time>2016-08-29T19:11:35.000Z</time>
      </trkpt>
      <trkpt lat="48.91828" lon="2.35821">
        <ele>38.200000762939</ele>
        <time>2016-08-29T19:12:19.000Z</time>
      </trkpt>
      <trkpt lat="48.91834" lon="2.35848">
        <ele>38.200000762939</ele>
        <time>2016-08-29T19:12:27.000Z</time>
      </trkpt>
      <trkpt lat="48.91845" lon="2.35875">
        <ele>38.200000762939</ele>
        <time>2016-08-29T19:12:34.000Z</time>
      </trkpt>
      <trkpt lat="48.91856" lon="2.35897">
        <ele>38</ele>
        <time>2016-08-29T19:12:40.000Z</time>
      </trkpt>
      <trkpt lat="48.9186" lon="2.35925">
        <ele>38</ele>
        <time>2016-08-29T19:12:45.000Z</time>
      </trkpt>
      <trkpt lat="48.91865" lon="2.35952">
        <ele>37.799999237061</ele>
        <time>2016-08-29T19:12:50.000Z</time>
      </trkpt>
      <trkpt lat="48.91873" lon="2.35981">
        <ele>37.599998474121</ele>
        <time>2016-08-29T19:12:55.000Z</time>
      </trkpt>
      <trkpt lat="48.91888" lon="2.36003">
        <ele>37.599998474121</ele>
        <time>2016-08-29T19:13:00.000Z</time>
      </trkpt>
      <trkpt lat="48.919" lon="2.36023">
        <ele>37.400001525879</ele>
        <time>2016-08-29T19:13:04.000Z</time>
      </trkpt>
      <trkpt lat="48.91911" lon="2.36052">
        <ele>37</ele>
        <time>2016-08-29T19:13:08.000Z</time>
      </trkpt>
      <trkpt lat="48.91925" lon="2.36082">
        <ele>36.599998474121</ele>
        <time>2016-08-29T19:13:12.000Z</time>
      </trkpt>
      <trkpt lat="48.91941" lon="2.36103">
        <ele>36.799999237061</ele>
        <time>2016-08-29T19:13:15.000Z</time>
      </trkpt>
      <trkpt lat="48.91947" lon="2.36109">
        <ele>36.799999237061</ele>
        <time>2016-08-29T19:13:16.000Z</time>
      </trkpt>
      <trkpt lat="48.91959" lon="2.36135">
        <ele>36.599998474121</ele>
        <time>2016-08-29T19:13:20.000Z</time>
      </trkpt>
      <trkpt lat="48.91964" lon="2.36147">
        <ele>36.400001525879</ele>
        <time>2016-08-29T19:13:22.000Z</time>
      </trkpt>
      <trkpt lat="48.91972" lon="2.3617">
        <ele>36.400001525879</ele>
        <time>2016-08-29T19:13:27.000Z</time>
      </trkpt>
      <trkpt lat="48.9198" lon="2.36173">
        <ele>36.599998474121</ele>
        <time>2016-08-29T19:13:32.000Z</time>
      </trkpt>
      <trkpt lat="48.91981" lon="2.36173">
        <ele>36.599998474121</ele>
        <time>2016-08-29T19:13:33.000Z</time>
      </trkpt>
      <trkpt lat="48.91985" lon="2.36173">
        <ele>36.599998474121</ele>
        <time>2016-08-29T19:13:35.000Z</time>
      </trkpt>
      <trkpt lat="48.91989" lon="2.36171">
        <ele>36.599998474121</ele>
        <time>2016-08-29T19:13:37.000Z</time>
      </trkpt>
      <trkpt lat="48.92011" lon="2.36163">
        <ele>36.799999237061</ele>
        <time>2016-08-29T19:13:46.000Z</time>
      </trkpt>
      <trkpt lat="48.9203" lon="2.36149">
        <ele>36.799999237061</ele>
        <time>2016-08-29T19:13:51.000Z</time>
      </trkpt>
      <trkpt lat="48.92047" lon="2.36143">
        <ele>36.799999237061</ele>
        <time>2016-08-29T19:13:55.000Z</time>
      </trkpt>
      <trkpt lat="48.92069" lon="2.36136">
        <ele>36.599998474121</ele>
        <time>2016-08-29T19:14:00.000Z</time>
      </trkpt>
      <trkpt lat="48.92089" lon="2.36135">
        <ele>37</ele>
        <time>2016-08-29T19:14:05.000Z</time>
      </trkpt>
      <trkpt lat="48.92109" lon="2.3614">
        <ele>37.400001525879</ele>
        <time>2016-08-29T19:14:10.000Z</time>
      </trkpt>
      <trkpt lat="48.92129" lon="2.36138">
        <ele>38.200000762939</ele>
        <time>2016-08-29T19:14:14.000Z</time>
      </trkpt>
      <trkpt lat="48.92149" lon="2.36135">
        <ele>38.799999237061</ele>
        <time>2016-08-29T19:14:18.000Z</time>
      </trkpt>
      <trkpt lat="48.92167" lon="2.36132">
        <ele>39.400001525879</ele>
        <time>2016-08-29T19:14:22.000Z</time>
      </trkpt>
      <trkpt lat="48.92188" lon="2.36133">
        <ele>40</ele>
        <time>2016-08-29T19:14:27.000Z</time>
      </trkpt>
      <trkpt lat="48.92195" lon="2.36135">
        <ele>40</ele>
        <time>2016-08-29T19:14:29.000Z</time>
      </trkpt>
      <trkpt lat="48.92215" lon="2.36136">
        <ele>40.200000762939</ele>
        <time>2016-08-29T19:14:33.000Z</time>
      </trkpt>
      <trkpt lat="48.92233" lon="2.36134">
        <ele>40.599998474121</ele>
        <time>2016-08-29T19:14:38.000Z</time>
      </trkpt>
      <trkpt lat="48.92251" lon="2.36141">
        <ele>40.799999237061</ele>
        <time>2016-08-29T19:14:41.000Z</time>
      </trkpt>
      <trkpt lat="48.92261" lon="2.36164">
        <ele>40.799999237061</ele>
        <time>2016-08-29T19:14:46.000Z</time>
      </trkpt>
      <trkpt lat="48.92265" lon="2.36198">
        <ele>41.200000762939</ele>
        <time>2016-08-29T19:14:51.000Z</time>
      </trkpt>
      <trkpt lat="48.92267" lon="2.3623">
        <ele>41.799999237061</ele>
        <time>2016-08-29T19:14:56.000Z</time>
      </trkpt>
      <trkpt lat="48.9227" lon="2.36259">
        <ele>41.799999237061</ele>
        <time>2016-08-29T19:15:01.000Z</time>
      </trkpt>
      <trkpt lat="48.92279" lon="2.36285">
        <ele>41.799999237061</ele>
        <time>2016-08-29T19:15:09.000Z</time>
      </trkpt>
      <trkpt lat="48.92281" lon="2.36293">
        <ele>41.599998474121</ele>
        <time>2016-08-29T19:15:13.000Z</time>
      </trkpt>
      <trkpt lat="48.92283" lon="2.36264">
        <ele>41.599998474121</ele>
        <time>2016-08-29T19:15:31.000Z</time>
      </trkpt>
      <trkpt lat="48.92279" lon="2.36236">
        <ele>41.799999237061</ele>
        <time>2016-08-29T19:15:39.000Z</time>
      </trkpt>
      <trkpt lat="48.92273" lon="2.36209">
        <ele>41.599998474121</ele>
        <time>2016-08-29T19:15:47.000Z</time>
      </trkpt>
      <trkpt lat="48.92269" lon="2.36189">
        <ele>41.200000762939</ele>
        <time>2016-08-29T19:15:56.000Z</time>
      </trkpt>
      <trkpt lat="48.92268" lon="2.36188">
        <ele>41.200000762939</ele>
        <time>2016-08-29T19:17:11.000Z</time>
      </trkpt>
      <trkpt lat="48.92279" lon="2.36193">
        <ele>41.400001525879</ele>
        <time>2016-08-29T19:18:26.000Z</time>
      </trkpt>
      <trkpt lat="48.92291" lon="2.36218">
        <ele>41.599998474121</ele>
        <time>2016-08-29T19:18:34.000Z</time>
      </trkpt>
      <trkpt lat="48.92306" lon="2.36236">
        <ele>41.799999237061</ele>
        <time>2016-08-29T19:18:40.000Z</time>
      </trkpt>
      <trkpt lat="48.92322" lon="2.36248">
        <ele>42</ele>
        <time>2016-08-29T19:18:46.000Z</time>
      </trkpt>
      <trkpt lat="48.92328" lon="2.36248">
        <ele>42</ele>
        <time>2016-08-29T19:18:48.000Z</time>
      </trkpt>
      <trkpt lat="48.92348" lon="2.36248">
        <ele>42</ele>
        <time>2016-08-29T19:18:54.000Z</time>
      </trkpt>
      <trkpt lat="48.92369" lon="2.36246">
        <ele>42.400001525879</ele>
        <time>2016-08-29T19:19:00.000Z</time>
      </trkpt>
      <trkpt lat="48.92391" lon="2.36244">
        <ele>43.200000762939</ele>
        <time>2016-08-29T19:19:06.000Z</time>
      </trkpt>
      <trkpt lat="48.92411" lon="2.36242">
        <ele>43.799999237061</ele>
        <time>2016-08-29T19:19:11.000Z</time>
      </trkpt>
      <trkpt lat="48.92432" lon="2.36239">
        <ele>44.799999237061</ele>
        <time>2016-08-29T19:19:16.000Z</time>
      </trkpt>
      <trkpt lat="48.92453" lon="2.36238">
        <ele>45</ele>
        <time>2016-08-29T19:19:21.000Z</time>
      </trkpt>
      <trkpt lat="48.92475" lon="2.36235">
        <ele>45.200000762939</ele>
        <time>2016-08-29T19:19:26.000Z</time>
      </trkpt>
      <trkpt lat="48.92494" lon="2.36234">
        <ele>45.200000762939</ele>
        <time>2016-08-29T19:19:30.000Z</time>
      </trkpt>
      <trkpt lat="48.92508" lon="2.36233">
        <ele>45.200000762939</ele>
        <time>2016-08-29T19:19:33.000Z</time>
      </trkpt>
      <trkpt lat="48.92526" lon="2.3623">
        <ele>44</ele>
        <time>2016-08-29T19:19:37.000Z</time>
      </trkpt>
      <trkpt lat="48.92544" lon="2.36227">
        <ele>44.200000762939</ele>
        <time>2016-08-29T19:19:41.000Z</time>
      </trkpt>
      <trkpt lat="48.92563" lon="2.36228">
        <ele>44.200000762939</ele>
        <time>2016-08-29T19:19:45.000Z</time>
      </trkpt>
      <trkpt lat="48.92576" lon="2.36225">
        <ele>44.400001525879</ele>
        <time>2016-08-29T19:19:48.000Z</time>
      </trkpt>
      <trkpt lat="48.92588" lon="2.36218">
        <ele>43.799999237061</ele>
        <time>2016-08-29T19:19:51.000Z</time>
      </trkpt>
      <trkpt lat="48.926" lon="2.36202">
        <ele>42</ele>
        <time>2016-08-29T19:19:55.000Z</time>
      </trkpt>
      <trkpt lat="48.92608" lon="2.36191">
        <ele>40.799999237061</ele>
        <time>2016-08-29T19:19:58.000Z</time>
      </trkpt>
      <trkpt lat="48.92612" lon="2.3617">
        <ele>39.799999237061</ele>
        <time>2016-08-29T19:20:03.000Z</time>
      </trkpt>
      <trkpt lat="48.92611" lon="2.3614">
        <ele>40.799999237061</ele>
        <time>2016-08-29T19:20:09.000Z</time>
      </trkpt>
      <trkpt lat="48.92617" lon="2.3611">
        <ele>41.799999237061</ele>
        <time>2016-08-29T19:20:15.000Z</time>
      </trkpt>
      <trkpt lat="48.92614" lon="2.36078">
        <ele>42.599998474121</ele>
        <time>2016-08-29T19:20:21.000Z</time>
      </trkpt>
      <trkpt lat="48.92611" lon="2.3605">
        <ele>44.200000762939</ele>
        <time>2016-08-29T19:20:26.000Z</time>
      </trkpt>
      <trkpt lat="48.92607" lon="2.36018">
        <ele>46.200000762939</ele>
        <time>2016-08-29T19:20:31.000Z</time>
      </trkpt>
      <trkpt lat="48.92605" lon="2.35985">
        <ele>46.599998474121</ele>
        <time>2016-08-29T19:20:36.000Z</time>
      </trkpt>
      <trkpt lat="48.92602" lon="2.35955">
        <ele>44.799999237061</ele>
        <time>2016-08-29T19:20:41.000Z</time>
      </trkpt>
      <trkpt lat="48.926" lon="2.35923">
        <ele>43</ele>
        <time>2016-08-29T19:20:46.000Z</time>
      </trkpt>
      <trkpt lat="48.92598" lon="2.3589">
        <ele>41.599998474121</ele>
        <time>2016-08-29T19:20:51.000Z</time>
      </trkpt>
      <trkpt lat="48.92597" lon="2.35859">
        <ele>41.200000762939</ele>
        <time>2016-08-29T19:20:56.000Z</time>
      </trkpt>
      <trkpt lat="48.92592" lon="2.35832">
        <ele>41.400001525879</ele>
        <time>2016-08-29T19:21:02.000Z</time>
      </trkpt>
      <trkpt lat="48.9259" lon="2.35829">
        <ele>41.599998474121</ele>
        <time>2016-08-29T19:21:05.000Z</time>
      </trkpt>
      <trkpt lat="48.92596" lon="2.35828">
        <ele>40.799999237061</ele>
        <time>2016-08-29T19:21:16.000Z</time>
      </trkpt>
      <trkpt lat="48.92584" lon="2.35824">
        <ele>41.799999237061</ele>
        <time>2016-08-29T19:22:03.000Z</time>
      </trkpt>
      <trkpt lat="48.92581" lon="2.35818">
        <ele>41.599998474121</ele>
        <time>2016-08-29T19:22:05.000Z</time>
      </trkpt>
      <trkpt lat="48.92578" lon="2.35791">
        <ele>40.400001525879</ele>
        <time>2016-08-29T19:22:12.000Z</time>
      </trkpt>
      <trkpt lat="48.92571" lon="2.35765">
        <ele>40.200000762939</ele>
        <time>2016-08-29T19:22:19.000Z</time>
      </trkpt>
      <trkpt lat="48.9256" lon="2.35751">
        <ele>40.400001525879</ele>
        <time>2016-08-29T19:22:26.000Z</time>
      </trkpt>
      <trkpt lat="48.9255" lon="2.35754">
        <ele>41</ele>
        <time>2016-08-29T19:22:31.000Z</time>
      </trkpt>
      <trkpt lat="48.92533" lon="2.35753">
        <ele>41.599998474121</ele>
        <time>2016-08-29T19:22:41.000Z</time>
      </trkpt>
      <trkpt lat="48.92532" lon="2.35754">
        <ele>41.799999237061</ele>
        <time>2016-08-29T19:22:42.000Z</time>
      </trkpt>
      <trkpt lat="48.92518" lon="2.35763">
        <ele>43</ele>
        <time>2016-08-29T19:22:59.000Z</time>
      </trkpt>
      <trkpt lat="48.92521" lon="2.35761">
        <ele>43</ele>
        <time>2016-08-29T19:23:55.000Z</time>
      </trkpt>
      <trkpt lat="48.92503" lon="2.35759">
        <ele>42.599998474121</ele>
        <time>2016-08-29T19:24:06.000Z</time>
      </trkpt>
      <trkpt lat="48.92488" lon="2.3576">
        <ele>42.400001525879</ele>
        <time>2016-08-29T19:24:16.000Z</time>
      </trkpt>
      <trkpt lat="48.92476" lon="2.35773">
        <ele>43.200000762939</ele>
        <time>2016-08-29T19:24:44.000Z</time>
      </trkpt>
      <trkpt lat="48.92457" lon="2.35782">
        <ele>43.599998474121</ele>
        <time>2016-08-29T19:24:51.000Z</time>
      </trkpt>
      <trkpt lat="48.92438" lon="2.35789">
        <ele>44</ele>
        <time>2016-08-29T19:24:58.000Z</time>
      </trkpt>
      <trkpt lat="48.92419" lon="2.35796">
        <ele>44.200000762939</ele>
        <time>2016-08-29T19:25:04.000Z</time>
      </trkpt>
      <trkpt lat="48.92399" lon="2.35796">
        <ele>43.799999237061</ele>
        <time>2016-08-29T19:25:08.000Z</time>
      </trkpt>
      <trkpt lat="48.92378" lon="2.358">
        <ele>43.200000762939</ele>
        <time>2016-08-29T19:25:13.000Z</time>
      </trkpt>
      <trkpt lat="48.92358" lon="2.35803">
        <ele>42.599998474121</ele>
        <time>2016-08-29T19:25:18.000Z</time>
      </trkpt>
      <trkpt lat="48.92337" lon="2.35808">
        <ele>43</ele>
        <time>2016-08-29T19:25:24.000Z</time>
      </trkpt>
      <trkpt lat="48.92324" lon="2.35829">
        <ele>42.799999237061</ele>
        <time>2016-08-29T19:25:30.000Z</time>
      </trkpt>
      <trkpt lat="48.92309" lon="2.35846">
        <ele>43.799999237061</ele>
        <time>2016-08-29T19:25:36.000Z</time>
      </trkpt>
      <trkpt lat="48.92301" lon="2.3587">
        <ele>45.200000762939</ele>
        <time>2016-08-29T19:25:43.000Z</time>
      </trkpt>
      <trkpt lat="48.92296" lon="2.35898">
        <ele>45.400001525879</ele>
        <time>2016-08-29T19:25:49.000Z</time>
      </trkpt>
      <trkpt lat="48.92286" lon="2.35928">
        <ele>44.799999237061</ele>
        <time>2016-08-29T19:25:54.000Z</time>
      </trkpt>
      <trkpt lat="48.92287" lon="2.35961">
        <ele>46</ele>
        <time>2016-08-29T19:25:59.000Z</time>
      </trkpt>
      <trkpt lat="48.92288" lon="2.35988">
        <ele>47.200000762939</ele>
        <time>2016-08-29T19:26:03.000Z</time>
      </trkpt>
      <trkpt lat="48.9229" lon="2.36017">
        <ele>47.599998474121</ele>
        <time>2016-08-29T19:26:07.000Z</time>
      </trkpt>
      <trkpt lat="48.92291" lon="2.36049">
        <ele>46.599998474121</ele>
        <time>2016-08-29T19:26:12.000Z</time>
      </trkpt>
      <trkpt lat="48.92292" lon="2.36082">
        <ele>45.599998474121</ele>
        <time>2016-08-29T19:26:17.000Z</time>
      </trkpt>
      <trkpt lat="48.92292" lon="2.36089">
        <ele>45.200000762939</ele>
        <time>2016-08-29T19:26:18.000Z</time>
      </trkpt>
      <trkpt lat="48.92297" lon="2.3612">
        <ele>44.799999237061</ele>
        <time>2016-08-29T19:26:23.000Z</time>
      </trkpt>
      <trkpt lat="48.92297" lon="2.36134">
        <ele>44.400001525879</ele>
        <time>2016-08-29T19:26:25.000Z</time>
      </trkpt>
      <trkpt lat="48.92295" lon="2.36165">
        <ele>43.599998474121</ele>
        <time>2016-08-29T19:26:30.000Z</time>
      </trkpt>
      <trkpt lat="48.92294" lon="2.36193">
        <ele>41.400001525879</ele>
        <time>2016-08-29T19:26:37.000Z</time>
      </trkpt>
      <trkpt lat="48.92284" lon="2.36217">
        <ele>41.599998474121</ele>
        <time>2016-08-29T19:26:45.000Z</time>
      </trkpt>
      <trkpt lat="48.92283" lon="2.36246">
        <ele>42</ele>
        <time>2016-08-29T19:26:54.000Z</time>
      </trkpt>
      <trkpt lat="48.92283" lon="2.36248">
        <ele>42</ele>
        <time>2016-08-29T19:26:55.000Z</time>
      </trkpt>
      <trkpt lat="48.9229" lon="2.36271">
        <ele>41.200000762939</ele>
        <time>2016-08-29T19:27:12.000Z</time>
      </trkpt>
      <trkpt lat="48.92309" lon="2.36272">
        <ele>40.799999237061</ele>
        <time>2016-08-29T19:27:19.000Z</time>
      </trkpt>
      <trkpt lat="48.92328" lon="2.3627">
        <ele>41</ele>
        <time>2016-08-29T19:27:24.000Z</time>
      </trkpt>
      <trkpt lat="48.92347" lon="2.36267">
        <ele>41</ele>
        <time>2016-08-29T19:27:29.000Z</time>
      </trkpt>
      <trkpt lat="48.92368" lon="2.36265">
        <ele>41.400001525879</ele>
        <time>2016-08-29T19:27:34.000Z</time>
      </trkpt>
      <trkpt lat="48.92389" lon="2.36261">
        <ele>42</ele>
        <time>2016-08-29T19:27:39.000Z</time>
      </trkpt>
      <trkpt lat="48.92411" lon="2.36254">
        <ele>42.799999237061</ele>
        <time>2016-08-29T19:27:44.000Z</time>
      </trkpt>
      <trkpt lat="48.9243" lon="2.36252">
        <ele>43.400001525879</ele>
        <time>2016-08-29T19:27:48.000Z</time>
      </trkpt>
      <trkpt lat="48.92452" lon="2.3624">
        <ele>44.799999237061</ele>
        <time>2016-08-29T19:27:53.000Z</time>
      </trkpt>
      <trkpt lat="48.92471" lon="2.36234">
        <ele>45.400001525879</ele>
        <time>2016-08-29T19:27:57.000Z</time>
      </trkpt>
      <trkpt lat="48.92495" lon="2.36232">
        <ele>45.400001525879</ele>
        <time>2016-08-29T19:28:01.000Z</time>
      </trkpt>
      <trkpt lat="48.92499" lon="2.36231">
        <ele>45.599998474121</ele>
        <time>2016-08-29T19:28:02.000Z</time>
      </trkpt>
      <trkpt lat="48.92519" lon="2.36227">
        <ele>44.599998474121</ele>
        <time>2016-08-29T19:28:06.000Z</time>
      </trkpt>
      <trkpt lat="48.92534" lon="2.36226">
        <ele>44.200000762939</ele>
        <time>2016-08-29T19:28:09.000Z</time>
      </trkpt>
      <trkpt lat="48.92555" lon="2.36231">
        <ele>44</ele>
        <time>2016-08-29T19:28:13.000Z</time>
      </trkpt>
      <trkpt lat="48.92565" lon="2.36231">
        <ele>44</ele>
        <time>2016-08-29T19:28:15.000Z</time>
      </trkpt>
      <trkpt lat="48.92574" lon="2.3623">
        <ele>44</ele>
        <time>2016-08-29T19:28:17.000Z</time>
      </trkpt>
      <trkpt lat="48.92595" lon="2.36228">
        <ele>43.400001525879</ele>
        <time>2016-08-29T19:28:22.000Z</time>
      </trkpt>
      <trkpt lat="48.92602" lon="2.36226">
        <ele>42.599998474121</ele>
        <time>2016-08-29T19:28:24.000Z</time>
      </trkpt>
      <trkpt lat="48.92613" lon="2.36246">
        <ele>42.599998474121</ele>
        <time>2016-08-29T19:28:29.000Z</time>
      </trkpt>
      <trkpt lat="48.92614" lon="2.36277">
        <ele>43.400001525879</ele>
        <time>2016-08-29T19:28:33.000Z</time>
      </trkpt>
      <trkpt lat="48.92614" lon="2.36285">
        <ele>43.599998474121</ele>
        <time>2016-08-29T19:28:34.000Z</time>
      </trkpt>
      <trkpt lat="48.92614" lon="2.36301">
        <ele>44.200000762939</ele>
        <time>2016-08-29T19:28:36.000Z</time>
      </trkpt>
      <trkpt lat="48.92607" lon="2.36326">
        <ele>45.799999237061</ele>
        <time>2016-08-29T19:28:40.000Z</time>
      </trkpt>
      <trkpt lat="48.92604" lon="2.36332">
        <ele>45.599998474121</ele>
        <time>2016-08-29T19:28:41.000Z</time>
      </trkpt>
      <trkpt lat="48.92593" lon="2.36358">
        <ele>42.599998474121</ele>
        <time>2016-08-29T19:28:45.000Z</time>
      </trkpt>
      <trkpt lat="48.92578" lon="2.36382">
        <ele>39.599998474121</ele>
        <time>2016-08-29T19:28:49.000Z</time>
      </trkpt>
      <trkpt lat="48.92568" lon="2.364">
        <ele>39.200000762939</ele>
        <time>2016-08-29T19:28:53.000Z</time>
      </trkpt>
      <trkpt lat="48.92559" lon="2.36405">
        <ele>39.200000762939</ele>
        <time>2016-08-29T19:28:57.000Z</time>
      </trkpt>
      <trkpt lat="48.92556" lon="2.36405">
        <ele>39.200000762939</ele>
        <time>2016-08-29T19:28:59.000Z</time>
      </trkpt>
      <trkpt lat="48.9255" lon="2.36403">
        <ele>39.200000762939</ele>
        <time>2016-08-29T19:29:03.000Z</time>
      </trkpt>
      <trkpt lat="48.92548" lon="2.3642">
        <ele>38.799999237061</ele>
        <time>2016-08-29T19:29:08.000Z</time>
      </trkpt>
      <trkpt lat="48.92547" lon="2.36424">
        <ele>38.599998474121</ele>
        <time>2016-08-29T19:29:09.000Z</time>
      </trkpt>
      <trkpt lat="48.92545" lon="2.36433">
        <ele>38.200000762939</ele>
        <time>2016-08-29T19:29:12.000Z</time>
      </trkpt>
      <trkpt lat="48.92553" lon="2.36438">
        <ele>37.799999237061</ele>
        <time>2016-08-29T19:29:16.000Z</time>
      </trkpt>
      <trkpt lat="48.92564" lon="2.36443">
        <ele>37.599998474121</ele>
        <time>2016-08-29T19:29:21.000Z</time>
      </trkpt>
      <trkpt lat="48.92565" lon="2.3647">
        <ele>37.200000762939</ele>
        <time>2016-08-29T19:29:31.000Z</time>
      </trkpt>
      <trkpt lat="48.92575" lon="2.3649">
        <ele>36.799999237061</ele>
        <time>2016-08-29T19:29:42.000Z</time>
      </trkpt>
      <trkpt lat="48.92583" lon="2.36502">
        <ele>36.400001525879</ele>
        <time>2016-08-29T19:29:47.000Z</time>
      </trkpt>
      <trkpt lat="48.92596" lon="2.36522">
        <ele>35.599998474121</ele>
        <time>2016-08-29T19:29:53.000Z</time>
      </trkpt>
      <trkpt lat="48.9261" lon="2.36542">
        <ele>35</ele>
        <time>2016-08-29T19:29:58.000Z</time>
      </trkpt>
      <trkpt lat="48.92623" lon="2.36563">
        <ele>34.799999237061</ele>
        <time>2016-08-29T19:30:02.000Z</time>
      </trkpt>
      <trkpt lat="48.92638" lon="2.36586">
        <ele>34.599998474121</ele>
        <time>2016-08-29T19:30:06.000Z</time>
      </trkpt>
      <trkpt lat="48.92651" lon="2.36607">
        <ele>34.200000762939</ele>
        <time>2016-08-29T19:30:10.000Z</time>
      </trkpt>
      <trkpt lat="48.92652" lon="2.36617">
        <ele>34</ele>
        <time>2016-08-29T19:30:12.000Z</time>
      </trkpt>
      <trkpt lat="48.92639" lon="2.36638">
        <ele>34.200000762939</ele>
        <time>2016-08-29T19:30:18.000Z</time>
      </trkpt>
      <trkpt lat="48.92637" lon="2.36642">
        <ele>34.200000762939</ele>
        <time>2016-08-29T19:30:19.000Z</time>
      </trkpt>
      <trkpt lat="48.92621" lon="2.36664">
        <ele>34.599998474121</ele>
        <time>2016-08-29T19:30:26.000Z</time>
      </trkpt>
      <trkpt lat="48.92604" lon="2.3668">
        <ele>34.799999237061</ele>
        <time>2016-08-29T19:30:31.000Z</time>
      </trkpt>
      <trkpt lat="48.9259" lon="2.36697">
        <ele>34.799999237061</ele>
        <time>2016-08-29T19:30:36.000Z</time>
      </trkpt>
      <trkpt lat="48.92575" lon="2.36716">
        <ele>34.799999237061</ele>
        <time>2016-08-29T19:30:41.000Z</time>
      </trkpt>
      <trkpt lat="48.9256" lon="2.3673">
        <ele>34.400001525879</ele>
        <time>2016-08-29T19:30:45.000Z</time>
      </trkpt>
      <trkpt lat="48.92542" lon="2.36746">
        <ele>34</ele>
        <time>2016-08-29T19:30:49.000Z</time>
      </trkpt>
      <trkpt lat="48.92522" lon="2.36761">
        <ele>34</ele>
        <time>2016-08-29T19:30:54.000Z</time>
      </trkpt>
      <trkpt lat="48.92506" lon="2.36779">
        <ele>34.400001525879</ele>
        <time>2016-08-29T19:30:59.000Z</time>
      </trkpt>
      <trkpt lat="48.92488" lon="2.368">
        <ele>34.799999237061</ele>
        <time>2016-08-29T19:31:03.000Z</time>
      </trkpt>
      <trkpt lat="48.92469" lon="2.36816">
        <ele>35.400001525879</ele>
        <time>2016-08-29T19:31:06.000Z</time>
      </trkpt>
      <trkpt lat="48.9245" lon="2.36836">
        <ele>35.799999237061</ele>
        <time>2016-08-29T19:31:10.000Z</time>
      </trkpt>
      <trkpt lat="48.92432" lon="2.36856">
        <ele>35.599998474121</ele>
        <time>2016-08-29T19:31:13.000Z</time>
      </trkpt>
      <trkpt lat="48.92417" lon="2.36877">
        <ele>35.200000762939</ele>
        <time>2016-08-29T19:31:16.000Z</time>
      </trkpt>
      <trkpt lat="48.92404" lon="2.36899">
        <ele>35</ele>
        <time>2016-08-29T19:31:19.000Z</time>
      </trkpt>
      <trkpt lat="48.92388" lon="2.36924">
        <ele>34.799999237061</ele>
        <time>2016-08-29T19:31:23.000Z</time>
      </trkpt>
      <trkpt lat="48.9237" lon="2.36947">
        <ele>34.799999237061</ele>
        <time>2016-08-29T19:31:27.000Z</time>
      </trkpt>
      <trkpt lat="48.92367" lon="2.36953">
        <ele>34.799999237061</ele>
        <time>2016-08-29T19:31:28.000Z</time>
      </trkpt>
      <trkpt lat="48.92359" lon="2.36968">
        <ele>35</ele>
        <time>2016-08-29T19:31:31.000Z</time>
      </trkpt>
      <trkpt lat="48.92344" lon="2.36985">
        <ele>35</ele>
        <time>2016-08-29T19:31:35.000Z</time>
      </trkpt>
      <trkpt lat="48.92335" lon="2.36994">
        <ele>35</ele>
        <time>2016-08-29T19:31:38.000Z</time>
      </trkpt>
      <trkpt lat="48.92326" lon="2.36996">
        <ele>35</ele>
        <time>2016-08-29T19:31:44.000Z</time>
      </trkpt>
      <trkpt lat="48.92326" lon="2.36996">
        <ele>35</ele>
        <time>2016-08-29T19:31:45.000Z</time>
      </trkpt>
      <trkpt lat="48.92313" lon="2.37009">
        <ele>34.799999237061</ele>
        <time>2016-08-29T19:32:19.000Z</time>
      </trkpt>
      <trkpt lat="48.92305" lon="2.37039">
        <ele>34.599998474121</ele>
        <time>2016-08-29T19:32:25.000Z</time>
      </trkpt>
      <trkpt lat="48.92303" lon="2.37045">
        <ele>34.400001525879</ele>
        <time>2016-08-29T19:32:26.000Z</time>
      </trkpt>
      <trkpt lat="48.92292" lon="2.37074">
        <ele>34</ele>
        <time>2016-08-29T19:32:31.000Z</time>
      </trkpt>
      <trkpt lat="48.92288" lon="2.37088">
        <ele>34</ele>
        <time>2016-08-29T19:32:33.000Z</time>
      </trkpt>
      <trkpt lat="48.9228" lon="2.37115">
        <ele>34.400001525879</ele>
        <time>2016-08-29T19:32:37.000Z</time>
      </trkpt>
      <trkpt lat="48.92272" lon="2.37147">
        <ele>34.799999237061</ele>
        <time>2016-08-29T19:32:41.000Z</time>
      </trkpt>
      <trkpt lat="48.92265" lon="2.37175">
        <ele>35</ele>
        <time>2016-08-29T19:32:44.000Z</time>
      </trkpt>
      <trkpt lat="48.92256" lon="2.37205">
        <ele>35</ele>
        <time>2016-08-29T19:32:47.000Z</time>
      </trkpt>
      <trkpt lat="48.92239" lon="2.37234">
        <ele>34.799999237061</ele>
        <time>2016-08-29T19:32:50.000Z</time>
      </trkpt>
      <trkpt lat="48.92225" lon="2.37265">
        <ele>34.599998474121</ele>
        <time>2016-08-29T19:32:53.000Z</time>
      </trkpt>
      <trkpt lat="48.92213" lon="2.37296">
        <ele>35.400001525879</ele>
        <time>2016-08-29T19:32:56.000Z</time>
      </trkpt>
      <trkpt lat="48.9221" lon="2.37305">
        <ele>35.799999237061</ele>
        <time>2016-08-29T19:32:57.000Z</time>
      </trkpt>
      <trkpt lat="48.92203" lon="2.37334">
        <ele>36.799999237061</ele>
        <time>2016-08-29T19:33:00.000Z</time>
      </trkpt>
      <trkpt lat="48.92201" lon="2.37353">
        <ele>36.799999237061</ele>
        <time>2016-08-29T19:33:02.000Z</time>
      </trkpt>
      <trkpt lat="48.92198" lon="2.37381">
        <ele>36.799999237061</ele>
        <time>2016-08-29T19:33:05.000Z</time>
      </trkpt>
      <trkpt lat="48.92196" lon="2.37411">
        <ele>36.799999237061</ele>
        <time>2016-08-29T19:33:08.000Z</time>
      </trkpt>
      <trkpt lat="48.92195" lon="2.37429">
        <ele>37</ele>
        <time>2016-08-29T19:33:10.000Z</time>
      </trkpt>
      <trkpt lat="48.92189" lon="2.37463">
        <ele>37.599998474121</ele>
        <time>2016-08-29T19:33:14.000Z</time>
      </trkpt>
      <trkpt lat="48.92185" lon="2.37471">
        <ele>37.799999237061</ele>
        <time>2016-08-29T19:33:15.000Z</time>
      </trkpt>
      <trkpt lat="48.92172" lon="2.375">
        <ele>38</ele>
        <time>2016-08-29T19:33:19.000Z</time>
      </trkpt>
      <trkpt lat="48.92159" lon="2.37523">
        <ele>38.200000762939</ele>
        <time>2016-08-29T19:33:23.000Z</time>
      </trkpt>
      <trkpt lat="48.92142" lon="2.37539">
        <ele>38.400001525879</ele>
        <time>2016-08-29T19:33:28.000Z</time>
      </trkpt>
      <trkpt lat="48.92124" lon="2.37544">
        <ele>37.799999237061</ele>
        <time>2016-08-29T19:33:34.000Z</time>
      </trkpt>
      <trkpt lat="48.9211" lon="2.37545">
        <ele>37.400001525879</ele>
        <time>2016-08-29T19:33:48.000Z</time>
      </trkpt>
      <trkpt lat="48.92107" lon="2.37547">
        <ele>37.400001525879</ele>
        <time>2016-08-29T19:33:53.000Z</time>
      </trkpt>
      <trkpt lat="48.92114" lon="2.37576">
        <ele>37.200000762939</ele>
        <time>2016-08-29T19:34:03.000Z</time>
      </trkpt>
      <trkpt lat="48.92119" lon="2.37603">
        <ele>37</ele>
        <time>2016-08-29T19:34:13.000Z</time>
      </trkpt>
      <trkpt lat="48.92116" lon="2.37635">
        <ele>36</ele>
        <time>2016-08-29T19:34:23.000Z</time>
      </trkpt>
      <trkpt lat="48.92112" lon="2.37666">
        <ele>35.200000762939</ele>
        <time>2016-08-29T19:34:28.000Z</time>
      </trkpt>
      <trkpt lat="48.92103" lon="2.37689">
        <ele>34.799999237061</ele>
        <time>2016-08-29T19:34:32.000Z</time>
      </trkpt>
      <trkpt lat="48.92091" lon="2.3771">
        <ele>34.599998474121</ele>
        <time>2016-08-29T19:34:36.000Z</time>
      </trkpt>
      <trkpt lat="48.92076" lon="2.37727">
        <ele>34.599998474121</ele>
        <time>2016-08-29T19:34:40.000Z</time>
      </trkpt>
      <trkpt lat="48.92057" lon="2.37741">
        <ele>34.599998474121</ele>
        <time>2016-08-29T19:34:44.000Z</time>
      </trkpt>
      <trkpt lat="48.92037" lon="2.37754">
        <ele>34.799999237061</ele>
        <time>2016-08-29T19:34:47.000Z</time>
      </trkpt>
      <trkpt lat="48.92016" lon="2.37768">
        <ele>35</ele>
        <time>2016-08-29T19:34:50.000Z</time>
      </trkpt>
      <trkpt lat="48.92009" lon="2.37772">
        <ele>34.799999237061</ele>
        <time>2016-08-29T19:34:51.000Z</time>
      </trkpt>
      <trkpt lat="48.91988" lon="2.37784">
        <ele>34.599998474121</ele>
        <time>2016-08-29T19:34:54.000Z</time>
      </trkpt>
      <trkpt lat="48.91968" lon="2.37798">
        <ele>35.200000762939</ele>
        <time>2016-08-29T19:34:57.000Z</time>
      </trkpt>
      <trkpt lat="48.9195" lon="2.37811">
        <ele>36</ele>
        <time>2016-08-29T19:35:00.000Z</time>
      </trkpt>
      <trkpt lat="48.91932" lon="2.37823">
        <ele>36.799999237061</ele>
        <time>2016-08-29T19:35:03.000Z</time>
      </trkpt>
      <trkpt lat="48.91912" lon="2.37838">
        <ele>36.599998474121</ele>
        <time>2016-08-29T19:35:07.000Z</time>
      </trkpt>
      <trkpt lat="48.91894" lon="2.37851">
        <ele>36.200000762939</ele>
        <time>2016-08-29T19:35:11.000Z</time>
      </trkpt>
      <trkpt lat="48.91876" lon="2.37863">
        <ele>36</ele>
        <time>2016-08-29T19:35:16.000Z</time>
      </trkpt>
      <trkpt lat="48.91858" lon="2.37875">
        <ele>36</ele>
        <time>2016-08-29T19:35:22.000Z</time>
      </trkpt>
      <trkpt lat="48.91844" lon="2.37885">
        <ele>36</ele>
        <time>2016-08-29T19:35:27.000Z</time>
      </trkpt>
      <trkpt lat="48.91833" lon="2.37894">
        <ele>36</ele>
        <time>2016-08-29T19:35:31.000Z</time>
      </trkpt>
      <trkpt lat="48.91815" lon="2.37906">
        <ele>36</ele>
        <time>2016-08-29T19:35:36.000Z</time>
      </trkpt>
      <trkpt lat="48.91807" lon="2.3791">
        <ele>36</ele>
        <time>2016-08-29T19:35:38.000Z</time>
      </trkpt>
      <trkpt lat="48.91786" lon="2.3792">
        <ele>36</ele>
        <time>2016-08-29T19:35:42.000Z</time>
      </trkpt>
      <trkpt lat="48.91768" lon="2.37932">
        <ele>35.799999237061</ele>
        <time>2016-08-29T19:35:46.000Z</time>
      </trkpt>
      <trkpt lat="48.91752" lon="2.37946">
        <ele>35.400001525879</ele>
        <time>2016-08-29T19:35:50.000Z</time>
      </trkpt>
      <trkpt lat="48.9174" lon="2.37954">
        <ele>35.200000762939</ele>
        <time>2016-08-29T19:35:53.000Z</time>
      </trkpt>
      <trkpt lat="48.91727" lon="2.37963">
        <ele>35</ele>
        <time>2016-08-29T19:35:56.000Z</time>
      </trkpt>
      <trkpt lat="48.91708" lon="2.37973">
        <ele>35</ele>
        <time>2016-08-29T19:36:00.000Z</time>
      </trkpt>
      <trkpt lat="48.91688" lon="2.37982">
        <ele>34.799999237061</ele>
        <time>2016-08-29T19:36:04.000Z</time>
      </trkpt>
      <trkpt lat="48.91685" lon="2.37985">
        <ele>34.799999237061</ele>
        <time>2016-08-29T19:36:05.000Z</time>
      </trkpt>
      <trkpt lat="48.91666" lon="2.38">
        <ele>35.400001525879</ele>
        <time>2016-08-29T19:36:10.000Z</time>
      </trkpt>
      <trkpt lat="48.91662" lon="2.38002">
        <ele>35.400001525879</ele>
        <time>2016-08-29T19:36:11.000Z</time>
      </trkpt>
      <trkpt lat="48.91656" lon="2.38006">
        <ele>35.599998474121</ele>
        <time>2016-08-29T19:36:13.000Z</time>
      </trkpt>
      <trkpt lat="48.91638" lon="2.38019">
        <ele>35.799999237061</ele>
        <time>2016-08-29T19:36:20.000Z</time>
      </trkpt>
      <trkpt lat="48.91635" lon="2.38021">
        <ele>36</ele>
        <time>2016-08-29T19:36:21.000Z</time>
      </trkpt>
      <trkpt lat="48.91628" lon="2.38027">
        <ele>36</ele>
        <time>2016-08-29T19:36:24.000Z</time>
      </trkpt>
      <trkpt lat="48.91613" lon="2.38041">
        <ele>36</ele>
        <time>2016-08-29T19:36:31.000Z</time>
      </trkpt>
      <trkpt lat="48.91609" lon="2.38044">
        <ele>36</ele>
        <time>2016-08-29T19:36:33.000Z</time>
      </trkpt>
      <trkpt lat="48.91601" lon="2.38061">
        <ele>36</ele>
        <time>2016-08-29T19:36:40.000Z</time>
      </trkpt>
      <trkpt lat="48.91585" lon="2.38075">
        <ele>36.200000762939</ele>
        <time>2016-08-29T19:36:45.000Z</time>
      </trkpt>
      <trkpt lat="48.91566" lon="2.38083">
        <ele>36.599998474121</ele>
        <time>2016-08-29T19:36:51.000Z</time>
      </trkpt>
      <trkpt lat="48.91546" lon="2.38099">
        <ele>37</ele>
        <time>2016-08-29T19:36:56.000Z</time>
      </trkpt>
      <trkpt lat="48.91532" lon="2.38109">
        <ele>37.599998474121</ele>
        <time>2016-08-29T19:37:01.000Z</time>
      </trkpt>
      <trkpt lat="48.9152" lon="2.38114">
        <ele>38.200000762939</ele>
        <time>2016-08-29T19:37:08.000Z</time>
      </trkpt>
      <trkpt lat="48.91501" lon="2.3813">
        <ele>39.200000762939</ele>
        <time>2016-08-29T19:37:41.000Z</time>
      </trkpt>
      <trkpt lat="48.91484" lon="2.38144">
        <ele>39.599998474121</ele>
        <time>2016-08-29T19:37:48.000Z</time>
      </trkpt>
      <trkpt lat="48.91468" lon="2.38161">
        <ele>39.400001525879</ele>
        <time>2016-08-29T19:37:53.000Z</time>
      </trkpt>
      <trkpt lat="48.91452" lon="2.3818">
        <ele>39</ele>
        <time>2016-08-29T19:37:58.000Z</time>
      </trkpt>
      <trkpt lat="48.91435" lon="2.38201">
        <ele>40</ele>
        <time>2016-08-29T19:38:04.000Z</time>
      </trkpt>
      <trkpt lat="48.9142" lon="2.38217">
        <ele>41</ele>
        <time>2016-08-29T19:38:09.000Z</time>
      </trkpt>
      <trkpt lat="48.91402" lon="2.38234">
        <ele>41.400001525879</ele>
        <time>2016-08-29T19:38:14.000Z</time>
      </trkpt>
      <trkpt lat="48.91385" lon="2.38249">
        <ele>41.599998474121</ele>
        <time>2016-08-29T19:38:19.000Z</time>
      </trkpt>
      <trkpt lat="48.9137" lon="2.38265">
        <ele>41.799999237061</ele>
        <time>2016-08-29T19:38:23.000Z</time>
      </trkpt>
      <trkpt lat="48.91354" lon="2.38281">
        <ele>42</ele>
        <time>2016-08-29T19:38:27.000Z</time>
      </trkpt>
      <trkpt lat="48.9134" lon="2.383">
        <ele>42.400001525879</ele>
        <time>2016-08-29T19:38:31.000Z</time>
      </trkpt>
      <trkpt lat="48.91323" lon="2.38312">
        <ele>42.400001525879</ele>
        <time>2016-08-29T19:38:34.000Z</time>
      </trkpt>
      <trkpt lat="48.91303" lon="2.38323">
        <ele>42.200000762939</ele>
        <time>2016-08-29T19:38:37.000Z</time>
      </trkpt>
      <trkpt lat="48.91284" lon="2.38343">
        <ele>41.799999237061</ele>
        <time>2016-08-29T19:38:41.000Z</time>
      </trkpt>
      <trkpt lat="48.91267" lon="2.38363">
        <ele>41.599998474121</ele>
        <time>2016-08-29T19:38:45.000Z</time>
      </trkpt>
      <trkpt lat="48.91252" lon="2.38381">
        <ele>41.400001525879</ele>
        <time>2016-08-29T19:38:49.000Z</time>
      </trkpt>
      <trkpt lat="48.91241" lon="2.38393">
        <ele>41.200000762939</ele>
        <time>2016-08-29T19:38:52.000Z</time>
      </trkpt>
      <trkpt lat="48.91226" lon="2.38408">
        <ele>41</ele>
        <time>2016-08-29T19:38:56.000Z</time>
      </trkpt>
      <trkpt lat="48.91221" lon="2.38411">
        <ele>41</ele>
        <time>2016-08-29T19:38:57.000Z</time>
      </trkpt>
      <trkpt lat="48.912" lon="2.38428">
        <ele>40.799999237061</ele>
        <time>2016-08-29T19:39:01.000Z</time>
      </trkpt>
      <trkpt lat="48.91182" lon="2.38446">
        <ele>41</ele>
        <time>2016-08-29T19:39:05.000Z</time>
      </trkpt>
      <trkpt lat="48.91163" lon="2.38461">
        <ele>41</ele>
        <time>2016-08-29T19:39:09.000Z</time>
      </trkpt>
      <trkpt lat="48.91146" lon="2.38477">
        <ele>41</ele>
        <time>2016-08-29T19:39:13.000Z</time>
      </trkpt>
      <trkpt lat="48.9113" lon="2.38494">
        <ele>41</ele>
        <time>2016-08-29T19:39:17.000Z</time>
      </trkpt>
      <trkpt lat="48.91112" lon="2.38512">
        <ele>41.400001525879</ele>
        <time>2016-08-29T19:39:21.000Z</time>
      </trkpt>
      <trkpt lat="48.91101" lon="2.38519">
        <ele>41.799999237061</ele>
        <time>2016-08-29T19:39:24.000Z</time>
      </trkpt>
      <trkpt lat="48.91083" lon="2.38539">
        <ele>43</ele>
        <time>2016-08-29T19:39:29.000Z</time>
      </trkpt>
      <trkpt lat="48.91065" lon="2.38559">
        <ele>43.200000762939</ele>
        <time>2016-08-29T19:39:33.000Z</time>
      </trkpt>
      <trkpt lat="48.91047" lon="2.38578">
        <ele>42.599998474121</ele>
        <time>2016-08-29T19:39:37.000Z</time>
      </trkpt>
      <trkpt lat="48.91039" lon="2.38586">
        <ele>42.400001525879</ele>
        <time>2016-08-29T19:39:39.000Z</time>
      </trkpt>
      <trkpt lat="48.91022" lon="2.38602">
        <ele>41.799999237061</ele>
        <time>2016-08-29T19:39:43.000Z</time>
      </trkpt>
      <trkpt lat="48.91006" lon="2.38616">
        <ele>41.599998474121</ele>
        <time>2016-08-29T19:39:47.000Z</time>
      </trkpt>
      <trkpt lat="48.90983" lon="2.3863">
        <ele>41.400001525879</ele>
        <time>2016-08-29T19:39:51.000Z</time>
      </trkpt>
      <trkpt lat="48.90962" lon="2.38643">
        <ele>41.799999237061</ele>
        <time>2016-08-29T19:39:55.000Z</time>
      </trkpt>
      <trkpt lat="48.90952" lon="2.38652">
        <ele>41.799999237061</ele>
        <time>2016-08-29T19:39:57.000Z</time>
      </trkpt>
      <trkpt lat="48.90941" lon="2.38666">
        <ele>42</ele>
        <time>2016-08-29T19:40:00.000Z</time>
      </trkpt>
      <trkpt lat="48.90923" lon="2.38685">
        <ele>42.400001525879</ele>
        <time>2016-08-29T19:40:05.000Z</time>
      </trkpt>
      <trkpt lat="48.90906" lon="2.38706">
        <ele>42.799999237061</ele>
        <time>2016-08-29T19:40:10.000Z</time>
      </trkpt>
      <trkpt lat="48.90892" lon="2.38728">
        <ele>42.400001525879</ele>
        <time>2016-08-29T19:40:15.000Z</time>
      </trkpt>
      <trkpt lat="48.90876" lon="2.38745">
        <ele>41.799999237061</ele>
        <time>2016-08-29T19:40:20.000Z</time>
      </trkpt>
      <trkpt lat="48.9086" lon="2.38762">
        <ele>42.200000762939</ele>
        <time>2016-08-29T19:40:24.000Z</time>
      </trkpt>
      <trkpt lat="48.90849" lon="2.3877">
        <ele>42.400001525879</ele>
        <time>2016-08-29T19:40:26.000Z</time>
      </trkpt>
      <trkpt lat="48.90838" lon="2.38776">
        <ele>42.400001525879</ele>
        <time>2016-08-29T19:40:28.000Z</time>
      </trkpt>
      <trkpt lat="48.90828" lon="2.38785">
        <ele>42.599998474121</ele>
        <time>2016-08-29T19:40:31.000Z</time>
      </trkpt>
      <trkpt lat="48.90818" lon="2.38793">
        <ele>42.599998474121</ele>
        <time>2016-08-29T19:40:35.000Z</time>
      </trkpt>
      <trkpt lat="48.9081" lon="2.38799">
        <ele>42.799999237061</ele>
        <time>2016-08-29T19:40:39.000Z</time>
      </trkpt>
      <trkpt lat="48.90807" lon="2.38801">
        <ele>43</ele>
        <time>2016-08-29T19:40:41.000Z</time>
      </trkpt>
      <trkpt lat="48.90802" lon="2.38803">
        <ele>43</ele>
        <time>2016-08-29T19:40:46.000Z</time>
      </trkpt>
      <trkpt lat="48.90801" lon="2.38803">
        <ele>43</ele>
        <time>2016-08-29T19:40:47.000Z</time>
      </trkpt>
      <trkpt lat="48.90783" lon="2.38809">
        <ele>43.200000762939</ele>
        <time>2016-08-29T19:41:43.000Z</time>
      </trkpt>
      <trkpt lat="48.90777" lon="2.38813">
        <ele>43.400001525879</ele>
        <time>2016-08-29T19:41:48.000Z</time>
      </trkpt>
      <trkpt lat="48.9076" lon="2.38826">
        <ele>43.599998474121</ele>
        <time>2016-08-29T19:42:26.000Z</time>
      </trkpt>
      <trkpt lat="48.90756" lon="2.38828">
        <ele>43.599998474121</ele>
        <time>2016-08-29T19:42:36.000Z</time>
      </trkpt>
      <trkpt lat="48.90741" lon="2.38857">
        <ele>43.799999237061</ele>
        <time>2016-08-29T19:43:08.000Z</time>
      </trkpt>
      <trkpt lat="48.90723" lon="2.38874">
        <ele>43.799999237061</ele>
        <time>2016-08-29T19:43:13.000Z</time>
      </trkpt>
      <trkpt lat="48.90702" lon="2.38898">
        <ele>43.799999237061</ele>
        <time>2016-08-29T19:43:17.000Z</time>
      </trkpt>
      <trkpt lat="48.90691" lon="2.38912">
        <ele>44</ele>
        <time>2016-08-29T19:43:20.000Z</time>
      </trkpt>
      <trkpt lat="48.90677" lon="2.38927">
        <ele>44.200000762939</ele>
        <time>2016-08-29T19:43:23.000Z</time>
      </trkpt>
      <trkpt lat="48.90672" lon="2.38936">
        <ele>44.200000762939</ele>
        <time>2016-08-29T19:43:25.000Z</time>
      </trkpt>
      <trkpt lat="48.90655" lon="2.38956">
        <ele>44.400001525879</ele>
        <time>2016-08-29T19:43:29.000Z</time>
      </trkpt>
      <trkpt lat="48.90638" lon="2.3897">
        <ele>44.400001525879</ele>
        <time>2016-08-29T19:43:33.000Z</time>
      </trkpt>
      <trkpt lat="48.90625" lon="2.38985">
        <ele>44.200000762939</ele>
        <time>2016-08-29T19:43:37.000Z</time>
      </trkpt>
      <trkpt lat="48.90611" lon="2.39004">
        <ele>44</ele>
        <time>2016-08-29T19:43:42.000Z</time>
      </trkpt>
      <trkpt lat="48.906" lon="2.39013">
        <ele>44.400001525879</ele>
        <time>2016-08-29T19:43:44.000Z</time>
      </trkpt>
      <trkpt lat="48.90591" lon="2.39019">
        <ele>44.799999237061</ele>
        <time>2016-08-29T19:43:46.000Z</time>
      </trkpt>
      <trkpt lat="48.90574" lon="2.3903">
        <ele>45.599998474121</ele>
        <time>2016-08-29T19:43:50.000Z</time>
      </trkpt>
      <trkpt lat="48.90568" lon="2.39035">
        <ele>45.799999237061</ele>
        <time>2016-08-29T19:43:51.000Z</time>
      </trkpt>
      <trkpt lat="48.90549" lon="2.39056">
        <ele>45.599998474121</ele>
        <time>2016-08-29T19:43:55.000Z</time>
      </trkpt>
      <trkpt lat="48.90543" lon="2.39061">
        <ele>45.400001525879</ele>
        <time>2016-08-29T19:43:56.000Z</time>
      </trkpt>
      <trkpt lat="48.90527" lon="2.39075">
        <ele>45.200000762939</ele>
        <time>2016-08-29T19:43:59.000Z</time>
      </trkpt>
      <trkpt lat="48.90523" lon="2.39081">
        <ele>45</ele>
        <time>2016-08-29T19:44:00.000Z</time>
      </trkpt>
      <trkpt lat="48.90507" lon="2.39101">
        <ele>45.599998474121</ele>
        <time>2016-08-29T19:44:05.000Z</time>
      </trkpt>
      <trkpt lat="48.90499" lon="2.39108">
        <ele>46</ele>
        <time>2016-08-29T19:44:07.000Z</time>
      </trkpt>
      <trkpt lat="48.9048" lon="2.3912">
        <ele>46.599998474121</ele>
        <time>2016-08-29T19:44:11.000Z</time>
      </trkpt>
      <trkpt lat="48.90461" lon="2.39133">
        <ele>46.799999237061</ele>
        <time>2016-08-29T19:44:16.000Z</time>
      </trkpt>
      <trkpt lat="48.90447" lon="2.39151">
        <ele>47</ele>
        <time>2016-08-29T19:44:20.000Z</time>
      </trkpt>
      <trkpt lat="48.90437" lon="2.39162">
        <ele>47</ele>
        <time>2016-08-29T19:44:22.000Z</time>
      </trkpt>
      <trkpt lat="48.90427" lon="2.39173">
        <ele>46.599998474121</ele>
        <time>2016-08-29T19:44:24.000Z</time>
      </trkpt>
      <trkpt lat="48.90409" lon="2.39188">
        <ele>46.200000762939</ele>
        <time>2016-08-29T19:44:28.000Z</time>
      </trkpt>
      <trkpt lat="48.90387" lon="2.39186">
        <ele>45.799999237061</ele>
        <time>2016-08-29T19:44:32.000Z</time>
      </trkpt>
      <trkpt lat="48.9038" lon="2.39195">
        <ele>45.799999237061</ele>
        <time>2016-08-29T19:44:39.000Z</time>
      </trkpt>
      <trkpt lat="48.90379" lon="2.39195">
        <ele>45.799999237061</ele>
        <time>2016-08-29T19:44:40.000Z</time>
      </trkpt>
      <trkpt lat="48.90372" lon="2.39191">
        <ele>45.799999237061</ele>
        <time>2016-08-29T19:44:51.000Z</time>
      </trkpt>
      <trkpt lat="48.90367" lon="2.39191">
        <ele>45.799999237061</ele>
        <time>2016-08-29T19:44:55.000Z</time>
      </trkpt>
      <trkpt lat="48.90367" lon="2.39191">
        <ele>45.799999237061</ele>
        <time>2016-08-29T19:44:56.000Z</time>
      </trkpt>
      <trkpt lat="48.90357" lon="2.39213">
        <ele>46.799999237061</ele>
        <time>2016-08-29T19:45:39.000Z</time>
      </trkpt>
      <trkpt lat="48.90342" lon="2.39232">
        <ele>47.599998474121</ele>
        <time>2016-08-29T19:45:44.000Z</time>
      </trkpt>
      <trkpt lat="48.90327" lon="2.39253">
        <ele>48.400001525879</ele>
        <time>2016-08-29T19:45:51.000Z</time>
      </trkpt>
      <trkpt lat="48.90312" lon="2.39273">
        <ele>48.799999237061</ele>
        <time>2016-08-29T19:45:57.000Z</time>
      </trkpt>
      <trkpt lat="48.90297" lon="2.39292">
        <ele>49.400001525879</ele>
        <time>2016-08-29T19:46:02.000Z</time>
      </trkpt>
      <trkpt lat="48.90282" lon="2.39313">
        <ele>50.400001525879</ele>
        <time>2016-08-29T19:46:09.000Z</time>
      </trkpt>
      <trkpt lat="48.90267" lon="2.3933">
        <ele>51</ele>
        <time>2016-08-29T19:46:14.000Z</time>
      </trkpt>
      <trkpt lat="48.90245" lon="2.39343">
        <ele>50.200000762939</ele>
        <time>2016-08-29T19:46:18.000Z</time>
      </trkpt>
      <trkpt lat="48.90226" lon="2.3936">
        <ele>49.400001525879</ele>
        <time>2016-08-29T19:46:22.000Z</time>
      </trkpt>
      <trkpt lat="48.9021" lon="2.39377">
        <ele>48.599998474121</ele>
        <time>2016-08-29T19:46:26.000Z</time>
      </trkpt>
      <trkpt lat="48.90203" lon="2.39384">
        <ele>48.200000762939</ele>
        <time>2016-08-29T19:46:28.000Z</time>
      </trkpt>
      <trkpt lat="48.90192" lon="2.39394">
        <ele>47.799999237061</ele>
        <time>2016-08-29T19:46:31.000Z</time>
      </trkpt>
      <trkpt lat="48.90176" lon="2.39414">
        <ele>47.599998474121</ele>
        <time>2016-08-29T19:46:36.000Z</time>
      </trkpt>
      <trkpt lat="48.90166" lon="2.39426">
        <ele>47.799999237061</ele>
        <time>2016-08-29T19:46:39.000Z</time>
      </trkpt>
      <trkpt lat="48.9015" lon="2.39442">
        <ele>48.200000762939</ele>
        <time>2016-08-29T19:46:43.000Z</time>
      </trkpt>
      <trkpt lat="48.90132" lon="2.39455">
        <ele>48.599998474121</ele>
        <time>2016-08-29T19:46:47.000Z</time>
      </trkpt>
      <trkpt lat="48.90115" lon="2.39471">
        <ele>49</ele>
        <time>2016-08-29T19:46:51.000Z</time>
      </trkpt>
      <trkpt lat="48.90106" lon="2.39483">
        <ele>49.200000762939</ele>
        <time>2016-08-29T19:46:54.000Z</time>
      </trkpt>
      <trkpt lat="48.90091" lon="2.395">
        <ele>49</ele>
        <time>2016-08-29T19:46:59.000Z</time>
      </trkpt>
      <trkpt lat="48.90077" lon="2.39517">
        <ele>48.799999237061</ele>
        <time>2016-08-29T19:47:03.000Z</time>
      </trkpt>
      <trkpt lat="48.90062" lon="2.39536">
        <ele>48.599998474121</ele>
        <time>2016-08-29T19:47:07.000Z</time>
      </trkpt>
      <trkpt lat="48.90045" lon="2.39556">
        <ele>48.400001525879</ele>
        <time>2016-08-29T19:47:11.000Z</time>
      </trkpt>
      <trkpt lat="48.9003" lon="2.39581">
        <ele>48</ele>
        <time>2016-08-29T19:47:16.000Z</time>
      </trkpt>
      <trkpt lat="48.90017" lon="2.39603">
        <ele>48.400001525879</ele>
        <time>2016-08-29T19:47:20.000Z</time>
      </trkpt>
      <trkpt lat="48.9001" lon="2.39613">
        <ele>48.799999237061</ele>
        <time>2016-08-29T19:47:22.000Z</time>
      </trkpt>
      <trkpt lat="48.89996" lon="2.39631">
        <ele>49.200000762939</ele>
        <time>2016-08-29T19:47:26.000Z</time>
      </trkpt>
      <trkpt lat="48.89977" lon="2.3965">
        <ele>49.200000762939</ele>
        <time>2016-08-29T19:47:30.000Z</time>
      </trkpt>
      <trkpt lat="48.8996" lon="2.39667">
        <ele>49</ele>
        <time>2016-08-29T19:47:33.000Z</time>
      </trkpt>
      <trkpt lat="48.89951" lon="2.39678">
        <ele>49</ele>
        <time>2016-08-29T19:47:35.000Z</time>
      </trkpt>
      <trkpt lat="48.89933" lon="2.39696">
        <ele>48.599998474121</ele>
        <time>2016-08-29T19:47:39.000Z</time>
      </trkpt>
      <trkpt lat="48.89912" lon="2.39715">
        <ele>48.400001525879</ele>
        <time>2016-08-29T19:47:43.000Z</time>
      </trkpt>
      <trkpt lat="48.89901" lon="2.39733">
        <ele>48.200000762939</ele>
        <time>2016-08-29T19:47:46.000Z</time>
      </trkpt>
      <trkpt lat="48.89886" lon="2.39757">
        <ele>48</ele>
        <time>2016-08-29T19:47:50.000Z</time>
      </trkpt>
      <trkpt lat="48.89884" lon="2.39763">
        <ele>48</ele>
        <time>2016-08-29T19:47:51.000Z</time>
      </trkpt>
      <trkpt lat="48.89878" lon="2.39776">
        <ele>48</ele>
        <time>2016-08-29T19:47:53.000Z</time>
      </trkpt>
      <trkpt lat="48.89857" lon="2.39797">
        <ele>48.599998474121</ele>
        <time>2016-08-29T19:47:57.000Z</time>
      </trkpt>
      <trkpt lat="48.89846" lon="2.39807">
        <ele>49.400001525879</ele>
        <time>2016-08-29T19:47:59.000Z</time>
      </trkpt>
      <trkpt lat="48.89827" lon="2.39823">
        <ele>51.599998474121</ele>
        <time>2016-08-29T19:48:03.000Z</time>
      </trkpt>
      <trkpt lat="48.89811" lon="2.39846">
        <ele>54</ele>
        <time>2016-08-29T19:48:08.000Z</time>
      </trkpt>
      <trkpt lat="48.89808" lon="2.39851">
        <ele>54.400001525879</ele>
        <time>2016-08-29T19:48:09.000Z</time>
      </trkpt>
      <trkpt lat="48.89796" lon="2.39872">
        <ele>55.400001525879</ele>
        <time>2016-08-29T19:48:13.000Z</time>
      </trkpt>
      <trkpt lat="48.8979" lon="2.39881">
        <ele>55.599998474121</ele>
        <time>2016-08-29T19:48:15.000Z</time>
      </trkpt>
      <trkpt lat="48.89783" lon="2.39888">
        <ele>55.799999237061</ele>
        <time>2016-08-29T19:48:18.000Z</time>
      </trkpt>
      <trkpt lat="48.89785" lon="2.39909">
        <ele>55.599998474121</ele>
        <time>2016-08-29T19:49:08.000Z</time>
      </trkpt>
      <trkpt lat="48.89775" lon="2.39926">
        <ele>55.599998474121</ele>
        <time>2016-08-29T19:49:11.000Z</time>
      </trkpt>
      <trkpt lat="48.89759" lon="2.3995">
        <ele>55</ele>
        <time>2016-08-29T19:49:15.000Z</time>
      </trkpt>
      <trkpt lat="48.89743" lon="2.39974">
        <ele>54.400001525879</ele>
        <time>2016-08-29T19:49:19.000Z</time>
      </trkpt>
      <trkpt lat="48.89729" lon="2.39993">
        <ele>55</ele>
        <time>2016-08-29T19:49:22.000Z</time>
      </trkpt>
      <trkpt lat="48.89716" lon="2.40012">
        <ele>55.400001525879</ele>
        <time>2016-08-29T19:49:25.000Z</time>
      </trkpt>
      <trkpt lat="48.89712" lon="2.40019">
        <ele>55.400001525879</ele>
        <time>2016-08-29T19:49:26.000Z</time>
      </trkpt>
      <trkpt lat="48.897" lon="2.40043">
        <ele>56.200000762939</ele>
        <time>2016-08-29T19:49:30.000Z</time>
      </trkpt>
      <trkpt lat="48.89694" lon="2.40053">
        <ele>56.599998474121</ele>
        <time>2016-08-29T19:49:32.000Z</time>
      </trkpt>
      <trkpt lat="48.89679" lon="2.40072">
        <ele>57</ele>
        <time>2016-08-29T19:49:37.000Z</time>
      </trkpt>
      <trkpt lat="48.89669" lon="2.40085">
        <ele>56.400001525879</ele>
        <time>2016-08-29T19:49:41.000Z</time>
      </trkpt>
      <trkpt lat="48.8966" lon="2.40102">
        <ele>56</ele>
        <time>2016-08-29T19:49:47.000Z</time>
      </trkpt>
      <trkpt lat="48.89641" lon="2.40104">
        <ele>55.599998474121</ele>
        <time>2016-08-29T19:49:53.000Z</time>
      </trkpt>
      <trkpt lat="48.89621" lon="2.40108">
        <ele>55.400001525879</ele>
        <time>2016-08-29T19:49:59.000Z</time>
      </trkpt>
      <trkpt lat="48.89601" lon="2.40108">
        <ele>55.400001525879</ele>
        <time>2016-08-29T19:50:06.000Z</time>
      </trkpt>
      <trkpt lat="48.89596" lon="2.40108">
        <ele>55.599998474121</ele>
        <time>2016-08-29T19:50:09.000Z</time>
      </trkpt>
      <trkpt lat="48.89588" lon="2.40115">
        <ele>56</ele>
        <time>2016-08-29T19:50:17.000Z</time>
      </trkpt>
      <trkpt lat="48.89602" lon="2.40102">
        <ele>55.400001525879</ele>
        <time>2016-08-29T19:50:51.000Z</time>
      </trkpt>
      <trkpt lat="48.89616" lon="2.40097">
        <ele>55.200000762939</ele>
        <time>2016-08-29T19:50:59.000Z</time>
      </trkpt>
      <trkpt lat="48.89615" lon="2.4007">
        <ele>55.400001525879</ele>
        <time>2016-08-29T19:51:05.000Z</time>
      </trkpt>
      <trkpt lat="48.89614" lon="2.40042">
        <ele>56.200000762939</ele>
        <time>2016-08-29T19:51:10.000Z</time>
      </trkpt>
      <trkpt lat="48.89614" lon="2.40008">
        <ele>57</ele>
        <time>2016-08-29T19:51:15.000Z</time>
      </trkpt>
      <trkpt lat="48.89615" lon="2.39992">
        <ele>56.599998474121</ele>
        <time>2016-08-29T19:51:17.000Z</time>
      </trkpt>
      <trkpt lat="48.89618" lon="2.39961">
        <ele>55.599998474121</ele>
        <time>2016-08-29T19:51:21.000Z</time>
      </trkpt>
      <trkpt lat="48.89621" lon="2.39928">
        <ele>54.400001525879</ele>
        <time>2016-08-29T19:51:25.000Z</time>
      </trkpt>
      <trkpt lat="48.89623" lon="2.39897">
        <ele>54</ele>
        <time>2016-08-29T19:51:29.000Z</time>
      </trkpt>
      <trkpt lat="48.89624" lon="2.39864">
        <ele>53.599998474121</ele>
        <time>2016-08-29T19:51:33.000Z</time>
      </trkpt>
      <trkpt lat="48.89624" lon="2.39832">
        <ele>53.400001525879</ele>
        <time>2016-08-29T19:51:37.000Z</time>
      </trkpt>
      <trkpt lat="48.89624" lon="2.39799">
        <ele>53</ele>
        <time>2016-08-29T19:51:41.000Z</time>
      </trkpt>
      <trkpt lat="48.89624" lon="2.39768">
        <ele>52.599998474121</ele>
        <time>2016-08-29T19:51:45.000Z</time>
      </trkpt>
      <trkpt lat="48.89622" lon="2.39735">
        <ele>52.799999237061</ele>
        <time>2016-08-29T19:51:49.000Z</time>
      </trkpt>
      <trkpt lat="48.8962" lon="2.39703">
        <ele>52.200000762939</ele>
        <time>2016-08-29T19:51:53.000Z</time>
      </trkpt>
      <trkpt lat="48.89619" lon="2.39682">
        <ele>52</ele>
        <time>2016-08-29T19:51:56.000Z</time>
      </trkpt>
      <trkpt lat="48.89621" lon="2.39652">
        <ele>51.400001525879</ele>
        <time>2016-08-29T19:52:01.000Z</time>
      </trkpt>
      <trkpt lat="48.89621" lon="2.39629">
        <ele>51.599998474121</ele>
        <time>2016-08-29T19:52:05.000Z</time>
      </trkpt>
      <trkpt lat="48.8962" lon="2.39617">
        <ele>51.799999237061</ele>
        <time>2016-08-29T19:52:07.000Z</time>
      </trkpt>
      <trkpt lat="48.89617" lon="2.39601">
        <ele>51.799999237061</ele>
        <time>2016-08-29T19:52:10.000Z</time>
      </trkpt>
      <trkpt lat="48.89613" lon="2.39578">
        <ele>52.200000762939</ele>
        <time>2016-08-29T19:52:14.000Z</time>
      </trkpt>
      <trkpt lat="48.89609" lon="2.39548">
        <ele>52.400001525879</ele>
        <time>2016-08-29T19:52:19.000Z</time>
      </trkpt>
      <trkpt lat="48.89607" lon="2.39532">
        <ele>52.599998474121</ele>
        <time>2016-08-29T19:52:22.000Z</time>
      </trkpt>
      <trkpt lat="48.89599" lon="2.39505">
        <ele>53.200000762939</ele>
        <time>2016-08-29T19:52:28.000Z</time>
      </trkpt>
      <trkpt lat="48.8959" lon="2.39476">
        <ele>52.400001525879</ele>
        <time>2016-08-29T19:52:34.000Z</time>
      </trkpt>
      <trkpt lat="48.89581" lon="2.39448">
        <ele>51.799999237061</ele>
        <time>2016-08-29T19:52:41.000Z</time>
      </trkpt>
      <trkpt lat="48.89572" lon="2.3942">
        <ele>51.200000762939</ele>
        <time>2016-08-29T19:52:48.000Z</time>
      </trkpt>
      <trkpt lat="48.89559" lon="2.39403">
        <ele>51</ele>
        <time>2016-08-29T19:52:54.000Z</time>
      </trkpt>
      <trkpt lat="48.89557" lon="2.39379">
        <ele>51</ele>
        <time>2016-08-29T19:52:59.000Z</time>
      </trkpt>
      <trkpt lat="48.89574" lon="2.39363">
        <ele>50.799999237061</ele>
        <time>2016-08-29T19:53:05.000Z</time>
      </trkpt>
      <trkpt lat="48.89568" lon="2.39342">
        <ele>50.599998474121</ele>
        <time>2016-08-29T19:53:12.000Z</time>
      </trkpt>
      <trkpt lat="48.89555" lon="2.39318">
        <ele>50.799999237061</ele>
        <time>2016-08-29T19:53:17.000Z</time>
      </trkpt>
      <trkpt lat="48.89543" lon="2.3929">
        <ele>51.200000762939</ele>
        <time>2016-08-29T19:53:22.000Z</time>
      </trkpt>
      <trkpt lat="48.89532" lon="2.39265">
        <ele>51.599998474121</ele>
        <time>2016-08-29T19:53:27.000Z</time>
      </trkpt>
      <trkpt lat="48.89522" lon="2.39243">
        <ele>52</ele>
        <time>2016-08-29T19:53:32.000Z</time>
      </trkpt>
      <trkpt lat="48.89511" lon="2.3922">
        <ele>52.599998474121</ele>
        <time>2016-08-29T19:53:37.000Z</time>
      </trkpt>
      <trkpt lat="48.89504" lon="2.39208">
        <ele>53</ele>
        <time>2016-08-29T19:53:41.000Z</time>
      </trkpt>
      <trkpt lat="48.89495" lon="2.39212">
        <ele>53.200000762939</ele>
        <time>2016-08-29T19:53:45.000Z</time>
      </trkpt>
      <trkpt lat="48.89487" lon="2.39202">
        <ele>53.400001525879</ele>
        <time>2016-08-29T19:53:49.000Z</time>
      </trkpt>
      <trkpt lat="48.89477" lon="2.3918">
        <ele>54</ele>
        <time>2016-08-29T19:53:56.000Z</time>
      </trkpt>
      <trkpt lat="48.89471" lon="2.39167">
        <ele>54.200000762939</ele>
        <time>2016-08-29T19:54:06.000Z</time>
      </trkpt>
      <trkpt lat="48.89476" lon="2.39167">
        <ele>54.200000762939</ele>
        <time>2016-08-29T19:54:11.000Z</time>
      </trkpt>
      <trkpt lat="48.89481" lon="2.39152">
        <ele>53.799999237061</ele>
        <time>2016-08-29T19:54:50.000Z</time>
      </trkpt>
      <trkpt lat="48.89464" lon="2.39167">
        <ele>54.400001525879</ele>
        <time>2016-08-29T19:55:05.000Z</time>
      </trkpt>
      <trkpt lat="48.89463" lon="2.39168">
        <ele>54.400001525879</ele>
        <time>2016-08-29T19:55:06.000Z</time>
      </trkpt>
      <trkpt lat="48.89456" lon="2.39174">
        <ele>54.400001525879</ele>
        <time>2016-08-29T19:55:10.000Z</time>
      </trkpt>
      <trkpt lat="48.89444" lon="2.39191">
        <ele>54</ele>
        <time>2016-08-29T19:55:21.000Z</time>
      </trkpt>
      <trkpt lat="48.89439" lon="2.39199">
        <ele>53.799999237061</ele>
        <time>2016-08-29T19:55:28.000Z</time>
      </trkpt>
      <trkpt lat="48.89437" lon="2.39204">
        <ele>53.400001525879</ele>
        <time>2016-08-29T19:55:33.000Z</time>
      </trkpt>
      <trkpt lat="48.89442" lon="2.39203">
        <ele>53.599998474121</ele>
        <time>2016-08-29T19:56:21.000Z</time>
      </trkpt>
      <trkpt lat="48.89441" lon="2.39188">
        <ele>54.200000762939</ele>
        <time>2016-08-29T19:56:27.000Z</time>
      </trkpt>
      <trkpt lat="48.89437" lon="2.39183">
        <ele>54.200000762939</ele>
        <time>2016-08-29T19:56:31.000Z</time>
      </trkpt>
      <trkpt lat="48.89437" lon="2.39181">
        <ele>54.200000762939</ele>
        <time>2016-08-29T19:56:32.000Z</time>
      </trkpt>
      <trkpt lat="48.89432" lon="2.39169">
        <ele>54.599998474121</ele>
        <time>2016-08-29T19:56:38.000Z</time>
      </trkpt>
      <trkpt lat="48.8942" lon="2.39145">
        <ele>54.599998474121</ele>
        <time>2016-08-29T19:57:04.000Z</time>
      </trkpt>
      <trkpt lat="48.89406" lon="2.3912">
        <ele>54</ele>
        <time>2016-08-29T19:57:10.000Z</time>
      </trkpt>
      <trkpt lat="48.89394" lon="2.39096">
        <ele>53.599998474121</ele>
        <time>2016-08-29T19:57:15.000Z</time>
      </trkpt>
      <trkpt lat="48.89382" lon="2.39073">
        <ele>53.400001525879</ele>
        <time>2016-08-29T19:57:19.000Z</time>
      </trkpt>
      <trkpt lat="48.89369" lon="2.39045">
        <ele>53.599998474121</ele>
        <time>2016-08-29T19:57:23.000Z</time>
      </trkpt>
      <trkpt lat="48.89356" lon="2.39017">
        <ele>53.799999237061</ele>
        <time>2016-08-29T19:57:27.000Z</time>
      </trkpt>
      <trkpt lat="48.89342" lon="2.38989">
        <ele>53.599998474121</ele>
        <time>2016-08-29T19:57:31.000Z</time>
      </trkpt>
      <trkpt lat="48.89328" lon="2.38959">
        <ele>53.400001525879</ele>
        <time>2016-08-29T19:57:35.000Z</time>
      </trkpt>
      <trkpt lat="48.89315" lon="2.38935">
        <ele>53</ele>
        <time>2016-08-29T19:57:40.000Z</time>
      </trkpt>
      <trkpt lat="48.89304" lon="2.38907">
        <ele>52.799999237061</ele>
        <time>2016-08-29T19:57:45.000Z</time>
      </trkpt>
      <trkpt lat="48.893" lon="2.38901">
        <ele>52.799999237061</ele>
        <time>2016-08-29T19:57:46.000Z</time>
      </trkpt>
      <trkpt lat="48.89289" lon="2.38876">
        <ele>52.799999237061</ele>
        <time>2016-08-29T19:57:50.000Z</time>
      </trkpt>
      <trkpt lat="48.8928" lon="2.38859">
        <ele>52.799999237061</ele>
        <time>2016-08-29T19:57:53.000Z</time>
      </trkpt>
      <trkpt lat="48.89268" lon="2.38836">
        <ele>52.799999237061</ele>
        <time>2016-08-29T19:57:57.000Z</time>
      </trkpt>
      <trkpt lat="48.89262" lon="2.38826">
        <ele>53</ele>
        <time>2016-08-29T19:57:59.000Z</time>
      </trkpt>
      <trkpt lat="48.89249" lon="2.38801">
        <ele>53.400001525879</ele>
        <time>2016-08-29T19:58:04.000Z</time>
      </trkpt>
      <trkpt lat="48.89236" lon="2.38776">
        <ele>53.799999237061</ele>
        <time>2016-08-29T19:58:09.000Z</time>
      </trkpt>
      <trkpt lat="48.89225" lon="2.38752">
        <ele>54.400001525879</ele>
        <time>2016-08-29T19:58:14.000Z</time>
      </trkpt>
      <trkpt lat="48.89219" lon="2.38742">
        <ele>54.400001525879</ele>
        <time>2016-08-29T19:58:16.000Z</time>
      </trkpt>
      <trkpt lat="48.8921" lon="2.38722">
        <ele>54.200000762939</ele>
        <time>2016-08-29T19:58:20.000Z</time>
      </trkpt>
      <trkpt lat="48.89208" lon="2.38717">
        <ele>54.200000762939</ele>
        <time>2016-08-29T19:58:21.000Z</time>
      </trkpt>
      <trkpt lat="48.89204" lon="2.38709">
        <ele>54.200000762939</ele>
        <time>2016-08-29T19:58:23.000Z</time>
      </trkpt>
      <trkpt lat="48.89197" lon="2.38684">
        <ele>54</ele>
        <time>2016-08-29T19:58:35.000Z</time>
      </trkpt>
      <trkpt lat="48.89196" lon="2.38683">
        <ele>54</ele>
        <time>2016-08-29T19:58:37.000Z</time>
      </trkpt>
      <trkpt lat="48.89182" lon="2.38677">
        <ele>54.599998474121</ele>
        <time>2016-08-29T19:59:28.000Z</time>
      </trkpt>
      <trkpt lat="48.89172" lon="2.38671">
        <ele>55.400001525879</ele>
        <time>2016-08-29T19:59:33.000Z</time>
      </trkpt>
      <trkpt lat="48.89167" lon="2.3866">
        <ele>55.599998474121</ele>
        <time>2016-08-29T19:59:37.000Z</time>
      </trkpt>
      <trkpt lat="48.89164" lon="2.38655">
        <ele>55.799999237061</ele>
        <time>2016-08-29T19:59:39.000Z</time>
      </trkpt>
      <trkpt lat="48.89154" lon="2.3863">
        <ele>56.200000762939</ele>
        <time>2016-08-29T19:59:46.000Z</time>
      </trkpt>
      <trkpt lat="48.89142" lon="2.38605">
        <ele>57.200000762939</ele>
        <time>2016-08-29T19:59:53.000Z</time>
      </trkpt>
      <trkpt lat="48.89128" lon="2.38581">
        <ele>58.200000762939</ele>
        <time>2016-08-29T19:59:59.000Z</time>
      </trkpt>
      <trkpt lat="48.89113" lon="2.38558">
        <ele>58</ele>
        <time>2016-08-29T20:00:04.000Z</time>
      </trkpt>
      <trkpt lat="48.89103" lon="2.38529">
        <ele>57.200000762939</ele>
        <time>2016-08-29T20:00:09.000Z</time>
      </trkpt>
      <trkpt lat="48.89088" lon="2.38505">
        <ele>56.599998474121</ele>
        <time>2016-08-29T20:00:14.000Z</time>
      </trkpt>
      <trkpt lat="48.89076" lon="2.3848">
        <ele>56.599998474121</ele>
        <time>2016-08-29T20:00:19.000Z</time>
      </trkpt>
      <trkpt lat="48.89061" lon="2.38459">
        <ele>56.599998474121</ele>
        <time>2016-08-29T20:00:24.000Z</time>
      </trkpt>
      <trkpt lat="48.89049" lon="2.38435">
        <ele>56.599998474121</ele>
        <time>2016-08-29T20:00:29.000Z</time>
      </trkpt>
      <trkpt lat="48.8904" lon="2.38412">
        <ele>56.599998474121</ele>
        <time>2016-08-29T20:00:34.000Z</time>
      </trkpt>
      <trkpt lat="48.89028" lon="2.3839">
        <ele>57.200000762939</ele>
        <time>2016-08-29T20:00:39.000Z</time>
      </trkpt>
      <trkpt lat="48.89015" lon="2.38367">
        <ele>58</ele>
        <time>2016-08-29T20:00:45.000Z</time>
      </trkpt>
      <trkpt lat="48.89006" lon="2.38343">
        <ele>58.799999237061</ele>
        <time>2016-08-29T20:00:50.000Z</time>
      </trkpt>
      <trkpt lat="48.88995" lon="2.38317">
        <ele>59.599998474121</ele>
        <time>2016-08-29T20:00:56.000Z</time>
      </trkpt>
      <trkpt lat="48.88982" lon="2.38292">
        <ele>60</ele>
        <time>2016-08-29T20:01:01.000Z</time>
      </trkpt>
      <trkpt lat="48.88971" lon="2.38266">
        <ele>60.599998474121</ele>
        <time>2016-08-29T20:01:06.000Z</time>
      </trkpt>
      <trkpt lat="48.88959" lon="2.38241">
        <ele>60.799999237061</ele>
        <time>2016-08-29T20:01:11.000Z</time>
      </trkpt>
      <trkpt lat="48.88948" lon="2.38215">
        <ele>60.799999237061</ele>
        <time>2016-08-29T20:01:16.000Z</time>
      </trkpt>
      <trkpt lat="48.88939" lon="2.38191">
        <ele>60.599998474121</ele>
        <time>2016-08-29T20:01:21.000Z</time>
      </trkpt>
      <trkpt lat="48.88926" lon="2.38166">
        <ele>60.200000762939</ele>
        <time>2016-08-29T20:01:26.000Z</time>
      </trkpt>
      <trkpt lat="48.88919" lon="2.38139">
        <ele>59.599998474121</ele>
        <time>2016-08-29T20:01:31.000Z</time>
      </trkpt>
      <trkpt lat="48.88906" lon="2.38116">
        <ele>59</ele>
        <time>2016-08-29T20:01:35.000Z</time>
      </trkpt>
      <trkpt lat="48.88892" lon="2.38093">
        <ele>58.200000762939</ele>
        <time>2016-08-29T20:01:40.000Z</time>
      </trkpt>
      <trkpt lat="48.88877" lon="2.38069">
        <ele>57.599998474121</ele>
        <time>2016-08-29T20:01:45.000Z</time>
      </trkpt>
      <trkpt lat="48.88872" lon="2.38059">
        <ele>57</ele>
        <time>2016-08-29T20:01:47.000Z</time>
      </trkpt>
      <trkpt lat="48.8886" lon="2.38035">
        <ele>56.200000762939</ele>
        <time>2016-08-29T20:01:52.000Z</time>
      </trkpt>
      <trkpt lat="48.88849" lon="2.38012">
        <ele>55.200000762939</ele>
        <time>2016-08-29T20:01:57.000Z</time>
      </trkpt>
      <trkpt lat="48.88846" lon="2.38004">
        <ele>54.799999237061</ele>
        <time>2016-08-29T20:01:59.000Z</time>
      </trkpt>
      <trkpt lat="48.88842" lon="2.37996">
        <ele>54.599998474121</ele>
        <time>2016-08-29T20:02:01.000Z</time>
      </trkpt>
      <trkpt lat="48.88834" lon="2.37976">
        <ele>54.599998474121</ele>
        <time>2016-08-29T20:02:09.000Z</time>
      </trkpt>
      <trkpt lat="48.88829" lon="2.37965">
        <ele>54.599998474121</ele>
        <time>2016-08-29T20:03:14.000Z</time>
      </trkpt>
      <trkpt lat="48.88813" lon="2.37978">
        <ele>55.599998474121</ele>
        <time>2016-08-29T20:03:22.000Z</time>
      </trkpt>
      <trkpt lat="48.88804" lon="2.37986">
        <ele>56.200000762939</ele>
        <time>2016-08-29T20:03:25.000Z</time>
      </trkpt>
      <trkpt lat="48.88799" lon="2.37997">
        <ele>56.799999237061</ele>
        <time>2016-08-29T20:03:28.000Z</time>
      </trkpt>
      <trkpt lat="48.88795" lon="2.38">
        <ele>57</ele>
        <time>2016-08-29T20:03:30.000Z</time>
      </trkpt>
      <trkpt lat="48.8878" lon="2.38015">
        <ele>58</ele>
        <time>2016-08-29T20:03:41.000Z</time>
      </trkpt>
      <trkpt lat="48.88777" lon="2.38023">
        <ele>57.799999237061</ele>
        <time>2016-08-29T20:03:46.000Z</time>
      </trkpt>
      <trkpt lat="48.88776" lon="2.38026">
        <ele>57.799999237061</ele>
        <time>2016-08-29T20:03:48.000Z</time>
      </trkpt>
      <trkpt lat="48.88759" lon="2.38042">
        <ele>57.799999237061</ele>
        <time>2016-08-29T20:03:56.000Z</time>
      </trkpt>
      <trkpt lat="48.88737" lon="2.38062">
        <ele>58.200000762939</ele>
        <time>2016-08-29T20:04:01.000Z</time>
      </trkpt>
      <trkpt lat="48.8872" lon="2.38075">
        <ele>58.400001525879</ele>
        <time>2016-08-29T20:04:05.000Z</time>
      </trkpt>
      <trkpt lat="48.88705" lon="2.38097">
        <ele>58.599998474121</ele>
        <time>2016-08-29T20:04:09.000Z</time>
      </trkpt>
      <trkpt lat="48.88689" lon="2.38127">
        <ele>57.799999237061</ele>
        <time>2016-08-29T20:04:13.000Z</time>
      </trkpt>
      <trkpt lat="48.88672" lon="2.38142">
        <ele>57.400001525879</ele>
        <time>2016-08-29T20:04:16.000Z</time>
      </trkpt>
      <trkpt lat="48.88654" lon="2.38157">
        <ele>58.400001525879</ele>
        <time>2016-08-29T20:04:20.000Z</time>
      </trkpt>
      <trkpt lat="48.88639" lon="2.38174">
        <ele>59.599998474121</ele>
        <time>2016-08-29T20:04:23.000Z</time>
      </trkpt>
      <trkpt lat="48.88623" lon="2.38194">
        <ele>60.200000762939</ele>
        <time>2016-08-29T20:04:27.000Z</time>
      </trkpt>
      <trkpt lat="48.8861" lon="2.38197">
        <ele>60.599998474121</ele>
        <time>2016-08-29T20:04:51.000Z</time>
      </trkpt>
      <trkpt lat="48.88602" lon="2.38185">
        <ele>60.799999237061</ele>
        <time>2016-08-29T20:05:23.000Z</time>
      </trkpt>
      <trkpt lat="48.88591" lon="2.38159">
        <ele>60.799999237061</ele>
        <time>2016-08-29T20:05:27.000Z</time>
      </trkpt>
      <trkpt lat="48.8858" lon="2.38134">
        <ele>60.200000762939</ele>
        <time>2016-08-29T20:05:31.000Z</time>
      </trkpt>
      <trkpt lat="48.88573" lon="2.38107">
        <ele>59.400001525879</ele>
        <time>2016-08-29T20:05:35.000Z</time>
      </trkpt>
      <trkpt lat="48.88564" lon="2.38076">
        <ele>58.599998474121</ele>
        <time>2016-08-29T20:05:39.000Z</time>
      </trkpt>
      <trkpt lat="48.88554" lon="2.38051">
        <ele>59</ele>
        <time>2016-08-29T20:05:42.000Z</time>
      </trkpt>
      <trkpt lat="48.88544" lon="2.38026">
        <ele>59.400001525879</ele>
        <time>2016-08-29T20:05:45.000Z</time>
      </trkpt>
      <trkpt lat="48.88534" lon="2.38001">
        <ele>59.599998474121</ele>
        <time>2016-08-29T20:05:48.000Z</time>
      </trkpt>
      <trkpt lat="48.88525" lon="2.37985">
        <ele>60</ele>
        <time>2016-08-29T20:05:50.000Z</time>
      </trkpt>
      <trkpt lat="48.88518" lon="2.37954">
        <ele>60.400001525879</ele>
        <time>2016-08-29T20:05:54.000Z</time>
      </trkpt>
      <trkpt lat="48.88511" lon="2.37928">
        <ele>60.599998474121</ele>
        <time>2016-08-29T20:05:58.000Z</time>
      </trkpt>
      <trkpt lat="48.88503" lon="2.37898">
        <ele>60.599998474121</ele>
        <time>2016-08-29T20:06:02.000Z</time>
      </trkpt>
      <trkpt lat="48.88495" lon="2.37873">
        <ele>60.400001525879</ele>
        <time>2016-08-29T20:06:05.000Z</time>
      </trkpt>
      <trkpt lat="48.88484" lon="2.37848">
        <ele>60.400001525879</ele>
        <time>2016-08-29T20:06:08.000Z</time>
      </trkpt>
      <trkpt lat="48.88474" lon="2.37821">
        <ele>60.200000762939</ele>
        <time>2016-08-29T20:06:11.000Z</time>
      </trkpt>
      <trkpt lat="48.88466" lon="2.3779">
        <ele>59.400001525879</ele>
        <time>2016-08-29T20:06:14.000Z</time>
      </trkpt>
      <trkpt lat="48.88457" lon="2.37757">
        <ele>58.799999237061</ele>
        <time>2016-08-29T20:06:17.000Z</time>
      </trkpt>
      <trkpt lat="48.88448" lon="2.37724">
        <ele>59.599998474121</ele>
        <time>2016-08-29T20:06:20.000Z</time>
      </trkpt>
      <trkpt lat="48.8844" lon="2.37692">
        <ele>60.599998474121</ele>
        <time>2016-08-29T20:06:23.000Z</time>
      </trkpt>
      <trkpt lat="48.8843" lon="2.37659">
        <ele>61.799999237061</ele>
        <time>2016-08-29T20:06:26.000Z</time>
      </trkpt>
      <trkpt lat="48.88419" lon="2.37622">
        <ele>61.400001525879</ele>
        <time>2016-08-29T20:06:29.000Z</time>
      </trkpt>
      <trkpt lat="48.88406" lon="2.37588">
        <ele>61.200000762939</ele>
        <time>2016-08-29T20:06:32.000Z</time>
      </trkpt>
      <trkpt lat="48.88396" lon="2.37551">
        <ele>60.599998474121</ele>
        <time>2016-08-29T20:06:35.000Z</time>
      </trkpt>
      <trkpt lat="48.88388" lon="2.37516">
        <ele>60</ele>
        <time>2016-08-29T20:06:38.000Z</time>
      </trkpt>
      <trkpt lat="48.88379" lon="2.37485">
        <ele>59.599998474121</ele>
        <time>2016-08-29T20:06:41.000Z</time>
      </trkpt>
      <trkpt lat="48.88368" lon="2.37453">
        <ele>59.200000762939</ele>
        <time>2016-08-29T20:06:44.000Z</time>
      </trkpt>
      <trkpt lat="48.88356" lon="2.37425">
        <ele>59</ele>
        <time>2016-08-29T20:06:47.000Z</time>
      </trkpt>
      <trkpt lat="48.88346" lon="2.37397">
        <ele>59.400001525879</ele>
        <time>2016-08-29T20:06:50.000Z</time>
      </trkpt>
      <trkpt lat="48.88336" lon="2.3737">
        <ele>60</ele>
        <time>2016-08-29T20:06:53.000Z</time>
      </trkpt>
      <trkpt lat="48.8833" lon="2.37343">
        <ele>60.799999237061</ele>
        <time>2016-08-29T20:06:56.000Z</time>
      </trkpt>
      <trkpt lat="48.88328" lon="2.37321">
        <ele>61.200000762939</ele>
        <time>2016-08-29T20:06:58.000Z</time>
      </trkpt>
      <trkpt lat="48.88321" lon="2.3729">
        <ele>61.799999237061</ele>
        <time>2016-08-29T20:07:01.000Z</time>
      </trkpt>
      <trkpt lat="48.88312" lon="2.37259">
        <ele>61.799999237061</ele>
        <time>2016-08-29T20:07:04.000Z</time>
      </trkpt>
      <trkpt lat="48.88302" lon="2.37229">
        <ele>61.799999237061</ele>
        <time>2016-08-29T20:07:07.000Z</time>
      </trkpt>
      <trkpt lat="48.88292" lon="2.37199">
        <ele>61.799999237061</ele>
        <time>2016-08-29T20:07:10.000Z</time>
      </trkpt>
      <trkpt lat="48.88286" lon="2.37172">
        <ele>61.599998474121</ele>
        <time>2016-08-29T20:07:13.000Z</time>
      </trkpt>
      <trkpt lat="48.88281" lon="2.37141">
        <ele>61</ele>
        <time>2016-08-29T20:07:16.000Z</time>
      </trkpt>
      <trkpt lat="48.88276" lon="2.37115">
        <ele>60.599998474121</ele>
        <time>2016-08-29T20:07:19.000Z</time>
      </trkpt>
      <trkpt lat="48.88275" lon="2.37093">
        <ele>60.200000762939</ele>
        <time>2016-08-29T20:07:22.000Z</time>
      </trkpt>
      <trkpt lat="48.88287" lon="2.37073">
        <ele>58.599998474121</ele>
        <time>2016-08-29T20:07:32.000Z</time>
      </trkpt>
      <trkpt lat="48.88288" lon="2.37072">
        <ele>58.400001525879</ele>
        <time>2016-08-29T20:07:33.000Z</time>
      </trkpt>
      <trkpt lat="48.88293" lon="2.37069">
        <ele>58</ele>
        <time>2016-08-29T20:07:38.000Z</time>
      </trkpt>
      <trkpt lat="48.88298" lon="2.37065">
        <ele>57.400001525879</ele>
        <time>2016-08-29T20:07:46.000Z</time>
      </trkpt>
      <trkpt lat="48.88307" lon="2.37045">
        <ele>55.799999237061</ele>
        <time>2016-08-29T20:08:35.000Z</time>
      </trkpt>
      <trkpt lat="48.88309" lon="2.37041">
        <ele>55.400001525879</ele>
        <time>2016-08-29T20:08:51.000Z</time>
      </trkpt>
      <trkpt lat="48.88306" lon="2.37044">
        <ele>55.799999237061</ele>
        <time>2016-08-29T20:08:55.000Z</time>
      </trkpt>
      <trkpt lat="48.88298" lon="2.37054">
        <ele>56.799999237061</ele>
        <time>2016-08-29T20:09:08.000Z</time>
      </trkpt>
      <trkpt lat="48.88282" lon="2.37043">
        <ele>57.599998474121</ele>
        <time>2016-08-29T20:10:09.000Z</time>
      </trkpt>
      <trkpt lat="48.88275" lon="2.37017">
        <ele>56.799999237061</ele>
        <time>2016-08-29T20:10:20.000Z</time>
      </trkpt>
      <trkpt lat="48.88271" lon="2.36991">
        <ele>56</ele>
        <time>2016-08-29T20:10:41.000Z</time>
      </trkpt>
      <trkpt lat="48.88263" lon="2.36966">
        <ele>56.200000762939</ele>
        <time>2016-08-29T20:10:49.000Z</time>
      </trkpt>
      <trkpt lat="48.88256" lon="2.36939">
        <ele>56.400001525879</ele>
        <time>2016-08-29T20:10:56.000Z</time>
      </trkpt>
      <trkpt lat="48.8824" lon="2.36922">
        <ele>56.599998474121</ele>
        <time>2016-08-29T20:11:03.000Z</time>
      </trkpt>
      <trkpt lat="48.88222" lon="2.36916">
        <ele>56.400001525879</ele>
        <time>2016-08-29T20:11:08.000Z</time>
      </trkpt>
      <trkpt lat="48.88205" lon="2.36905">
        <ele>56</ele>
        <time>2016-08-29T20:11:12.000Z</time>
      </trkpt>
      <trkpt lat="48.88186" lon="2.36891">
        <ele>55.599998474121</ele>
        <time>2016-08-29T20:11:16.000Z</time>
      </trkpt>
      <trkpt lat="48.88169" lon="2.36877">
        <ele>54.799999237061</ele>
        <time>2016-08-29T20:11:19.000Z</time>
      </trkpt>
      <trkpt lat="48.88149" lon="2.36859">
        <ele>53.799999237061</ele>
        <time>2016-08-29T20:11:22.000Z</time>
      </trkpt>
      <trkpt lat="48.8813" lon="2.36841">
        <ele>53</ele>
        <time>2016-08-29T20:11:25.000Z</time>
      </trkpt>
      <trkpt lat="48.88111" lon="2.3682">
        <ele>52.599998474121</ele>
        <time>2016-08-29T20:11:28.000Z</time>
      </trkpt>
      <trkpt lat="48.88091" lon="2.36799">
        <ele>53.799999237061</ele>
        <time>2016-08-29T20:11:31.000Z</time>
      </trkpt>
      <trkpt lat="48.8807" lon="2.3678">
        <ele>55.200000762939</ele>
        <time>2016-08-29T20:11:34.000Z</time>
      </trkpt>
      <trkpt lat="48.8805" lon="2.36761">
        <ele>56.599998474121</ele>
        <time>2016-08-29T20:11:37.000Z</time>
      </trkpt>
      <trkpt lat="48.88031" lon="2.36743">
        <ele>57.799999237061</ele>
        <time>2016-08-29T20:11:40.000Z</time>
      </trkpt>
      <trkpt lat="48.88012" lon="2.36727">
        <ele>57.799999237061</ele>
        <time>2016-08-29T20:11:44.000Z</time>
      </trkpt>
      <trkpt lat="48.88004" lon="2.36724">
        <ele>57.799999237061</ele>
        <time>2016-08-29T20:11:46.000Z</time>
      </trkpt>
      <trkpt lat="48.87999" lon="2.36721">
        <ele>57.799999237061</ele>
        <time>2016-08-29T20:11:50.000Z</time>
      </trkpt>
      <trkpt lat="48.8799" lon="2.36712">
        <ele>57.599998474121</ele>
        <time>2016-08-29T20:12:16.000Z</time>
      </trkpt>
      <trkpt lat="48.8797" lon="2.36711">
        <ele>57.599998474121</ele>
        <time>2016-08-29T20:12:20.000Z</time>
      </trkpt>
      <trkpt lat="48.87949" lon="2.36698">
        <ele>57.400001525879</ele>
        <time>2016-08-29T20:12:24.000Z</time>
      </trkpt>
      <trkpt lat="48.87926" lon="2.36686">
        <ele>56.599998474121</ele>
        <time>2016-08-29T20:12:28.000Z</time>
      </trkpt>
      <trkpt lat="48.87908" lon="2.36674">
        <ele>55.599998474121</ele>
        <time>2016-08-29T20:12:31.000Z</time>
      </trkpt>
      <trkpt lat="48.87891" lon="2.36665">
        <ele>54.599998474121</ele>
        <time>2016-08-29T20:12:34.000Z</time>
      </trkpt>
      <trkpt lat="48.87869" lon="2.36652">
        <ele>53.200000762939</ele>
        <time>2016-08-29T20:12:38.000Z</time>
      </trkpt>
      <trkpt lat="48.87852" lon="2.36639">
        <ele>52</ele>
        <time>2016-08-29T20:12:41.000Z</time>
      </trkpt>
      <trkpt lat="48.87837" lon="2.36624">
        <ele>51</ele>
        <time>2016-08-29T20:12:44.000Z</time>
      </trkpt>
      <trkpt lat="48.87819" lon="2.36607">
        <ele>50</ele>
        <time>2016-08-29T20:12:48.000Z</time>
      </trkpt>
      <trkpt lat="48.878" lon="2.36589">
        <ele>49</ele>
        <time>2016-08-29T20:12:52.000Z</time>
      </trkpt>
      <trkpt lat="48.87783" lon="2.36574">
        <ele>48.200000762939</ele>
        <time>2016-08-29T20:12:56.000Z</time>
      </trkpt>
      <trkpt lat="48.87772" lon="2.36561">
        <ele>47.799999237061</ele>
        <time>2016-08-29T20:13:00.000Z</time>
      </trkpt>
      <trkpt lat="48.87768" lon="2.36556">
        <ele>47.599998474121</ele>
        <time>2016-08-29T20:13:04.000Z</time>
      </trkpt>
      <trkpt lat="48.87764" lon="2.36555">
        <ele>47.599998474121</ele>
        <time>2016-08-29T20:13:06.000Z</time>
      </trkpt>
      <trkpt lat="48.87744" lon="2.3655">
        <ele>47.599998474121</ele>
        <time>2016-08-29T20:13:27.000Z</time>
      </trkpt>
      <trkpt lat="48.87727" lon="2.36538">
        <ele>47.599998474121</ele>
        <time>2016-08-29T20:13:32.000Z</time>
      </trkpt>
      <trkpt lat="48.8771" lon="2.36526">
        <ele>47.400001525879</ele>
        <time>2016-08-29T20:13:36.000Z</time>
      </trkpt>
      <trkpt lat="48.87693" lon="2.36511">
        <ele>47.200000762939</ele>
        <time>2016-08-29T20:13:40.000Z</time>
      </trkpt>
      <trkpt lat="48.87688" lon="2.36508">
        <ele>47.200000762939</ele>
        <time>2016-08-29T20:13:41.000Z</time>
      </trkpt>
      <trkpt lat="48.87671" lon="2.36495">
        <ele>46.200000762939</ele>
        <time>2016-08-29T20:13:44.000Z</time>
      </trkpt>
      <trkpt lat="48.87652" lon="2.36482">
        <ele>45.400001525879</ele>
        <time>2016-08-29T20:13:47.000Z</time>
      </trkpt>
      <trkpt lat="48.87634" lon="2.36467">
        <ele>44.599998474121</ele>
        <time>2016-08-29T20:13:50.000Z</time>
      </trkpt>
      <trkpt lat="48.87617" lon="2.36451">
        <ele>43.799999237061</ele>
        <time>2016-08-29T20:13:53.000Z</time>
      </trkpt>
      <trkpt lat="48.87601" lon="2.36434">
        <ele>43.200000762939</ele>
        <time>2016-08-29T20:13:56.000Z</time>
      </trkpt>
      <trkpt lat="48.87586" lon="2.36421">
        <ele>43.400001525879</ele>
        <time>2016-08-29T20:13:59.000Z</time>
      </trkpt>
      <trkpt lat="48.8758" lon="2.36416">
        <ele>43.400001525879</ele>
        <time>2016-08-29T20:14:00.000Z</time>
      </trkpt>
      <trkpt lat="48.87565" lon="2.36402">
        <ele>43.799999237061</ele>
        <time>2016-08-29T20:14:03.000Z</time>
      </trkpt>
      <trkpt lat="48.87548" lon="2.36392">
        <ele>44.200000762939</ele>
        <time>2016-08-29T20:14:06.000Z</time>
      </trkpt>
      <trkpt lat="48.87534" lon="2.36375">
        <ele>44.799999237061</ele>
        <time>2016-08-29T20:14:09.000Z</time>
      </trkpt>
      <trkpt lat="48.87517" lon="2.36357">
        <ele>45.400001525879</ele>
        <time>2016-08-29T20:14:13.000Z</time>
      </trkpt>
      <trkpt lat="48.87503" lon="2.36331">
        <ele>46</ele>
        <time>2016-08-29T20:14:17.000Z</time>
      </trkpt>
      <trkpt lat="48.875" lon="2.36327">
        <ele>46</ele>
        <time>2016-08-29T20:14:18.000Z</time>
      </trkpt>
      <trkpt lat="48.87482" lon="2.36312">
        <ele>45.599998474121</ele>
        <time>2016-08-29T20:14:23.000Z</time>
      </trkpt>
      <trkpt lat="48.87474" lon="2.3631">
        <ele>45.400001525879</ele>
        <time>2016-08-29T20:14:25.000Z</time>
      </trkpt>
      <trkpt lat="48.87459" lon="2.36302">
        <ele>45.200000762939</ele>
        <time>2016-08-29T20:14:29.000Z</time>
      </trkpt>
      <trkpt lat="48.87448" lon="2.36296">
        <ele>45.200000762939</ele>
        <time>2016-08-29T20:14:32.000Z</time>
      </trkpt>
      <trkpt lat="48.87435" lon="2.36285">
        <ele>45</ele>
        <time>2016-08-29T20:14:36.000Z</time>
      </trkpt>
      <trkpt lat="48.87432" lon="2.36283">
        <ele>45.200000762939</ele>
        <time>2016-08-29T20:14:37.000Z</time>
      </trkpt>
      <trkpt lat="48.87431" lon="2.36267">
        <ele>44.799999237061</ele>
        <time>2016-08-29T20:14:43.000Z</time>
      </trkpt>
      <trkpt lat="48.87432" lon="2.36266">
        <ele>44.599998474121</ele>
        <time>2016-08-29T20:14:44.000Z</time>
      </trkpt>
      <trkpt lat="48.87424" lon="2.36246">
        <ele>44.599998474121</ele>
        <time>2016-08-29T20:15:05.000Z</time>
      </trkpt>
      <trkpt lat="48.87402" lon="2.36227">
        <ele>44.799999237061</ele>
        <time>2016-08-29T20:15:11.000Z</time>
      </trkpt>
      <trkpt lat="48.87388" lon="2.36211">
        <ele>45</ele>
        <time>2016-08-29T20:15:14.000Z</time>
      </trkpt>
      <trkpt lat="48.87374" lon="2.36191">
        <ele>45</ele>
        <time>2016-08-29T20:15:18.000Z</time>
      </trkpt>
      <trkpt lat="48.87359" lon="2.36171">
        <ele>45</ele>
        <time>2016-08-29T20:15:22.000Z</time>
      </trkpt>
      <trkpt lat="48.87344" lon="2.36149">
        <ele>45.200000762939</ele>
        <time>2016-08-29T20:15:26.000Z</time>
      </trkpt>
      <trkpt lat="48.87316" lon="2.36139">
        <ele>45</ele>
        <time>2016-08-29T20:15:30.000Z</time>
      </trkpt>
      <trkpt lat="48.87295" lon="2.36131">
        <ele>44.799999237061</ele>
        <time>2016-08-29T20:15:34.000Z</time>
      </trkpt>
      <trkpt lat="48.87274" lon="2.3612">
        <ele>44.599998474121</ele>
        <time>2016-08-29T20:15:39.000Z</time>
      </trkpt>
      <trkpt lat="48.87267" lon="2.36114">
        <ele>44.799999237061</ele>
        <time>2016-08-29T20:15:41.000Z</time>
      </trkpt>
      <trkpt lat="48.87251" lon="2.36095">
        <ele>45.400001525879</ele>
        <time>2016-08-29T20:15:47.000Z</time>
      </trkpt>
      <trkpt lat="48.87232" lon="2.36082">
        <ele>46</ele>
        <time>2016-08-29T20:15:53.000Z</time>
      </trkpt>
      <trkpt lat="48.87212" lon="2.36072">
        <ele>46.200000762939</ele>
        <time>2016-08-29T20:15:58.000Z</time>
      </trkpt>
      <trkpt lat="48.87209" lon="2.36071">
        <ele>46.200000762939</ele>
        <time>2016-08-29T20:15:59.000Z</time>
      </trkpt>
      <trkpt lat="48.87201" lon="2.36066">
        <ele>46.200000762939</ele>
        <time>2016-08-29T20:16:01.000Z</time>
      </trkpt>
      <trkpt lat="48.87175" lon="2.36068">
        <ele>46.599998474121</ele>
        <time>2016-08-29T20:16:03.000Z</time>
      </trkpt>
      <trkpt lat="48.87163" lon="2.36059">
        <ele>47.200000762939</ele>
        <time>2016-08-29T20:16:07.000Z</time>
      </trkpt>
      <trkpt lat="48.87145" lon="2.36049">
        <ele>47.599998474121</ele>
        <time>2016-08-29T20:16:15.000Z</time>
      </trkpt>
      <trkpt lat="48.87128" lon="2.36028">
        <ele>48.599998474121</ele>
        <time>2016-08-29T20:16:29.000Z</time>
      </trkpt>
      <trkpt lat="48.87113" lon="2.36011">
        <ele>49.400001525879</ele>
        <time>2016-08-29T20:16:35.000Z</time>
      </trkpt>
      <trkpt lat="48.87095" lon="2.3599">
        <ele>49.599998474121</ele>
        <time>2016-08-29T20:16:40.000Z</time>
      </trkpt>
      <trkpt lat="48.8708" lon="2.35972">
        <ele>48.799999237061</ele>
        <time>2016-08-29T20:16:45.000Z</time>
      </trkpt>
      <trkpt lat="48.87065" lon="2.35966">
        <ele>48.200000762939</ele>
        <time>2016-08-29T20:16:51.000Z</time>
      </trkpt>
      <trkpt lat="48.87054" lon="2.35986">
        <ele>48</ele>
        <time>2016-08-29T20:16:57.000Z</time>
      </trkpt>
      <trkpt lat="48.87042" lon="2.3601">
        <ele>47.200000762939</ele>
        <time>2016-08-29T20:17:03.000Z</time>
      </trkpt>
      <trkpt lat="48.87026" lon="2.3603">
        <ele>47.400001525879</ele>
        <time>2016-08-29T20:17:08.000Z</time>
      </trkpt>
      <trkpt lat="48.87013" lon="2.3605">
        <ele>47.799999237061</ele>
        <time>2016-08-29T20:17:13.000Z</time>
      </trkpt>
      <trkpt lat="48.87002" lon="2.36072">
        <ele>48.400001525879</ele>
        <time>2016-08-29T20:17:19.000Z</time>
      </trkpt>
      <trkpt lat="48.86988" lon="2.36096">
        <ele>48.799999237061</ele>
        <time>2016-08-29T20:17:24.000Z</time>
      </trkpt>
      <trkpt lat="48.86973" lon="2.36121">
        <ele>49</ele>
        <time>2016-08-29T20:17:29.000Z</time>
      </trkpt>
      <trkpt lat="48.8696" lon="2.3614">
        <ele>48.599998474121</ele>
        <time>2016-08-29T20:17:33.000Z</time>
      </trkpt>
      <trkpt lat="48.86949" lon="2.36165">
        <ele>48</ele>
        <time>2016-08-29T20:17:37.000Z</time>
      </trkpt>
      <trkpt lat="48.86939" lon="2.36193">
        <ele>47.599998474121</ele>
        <time>2016-08-29T20:17:42.000Z</time>
      </trkpt>
      <trkpt lat="48.86937" lon="2.36207">
        <ele>47.400001525879</ele>
        <time>2016-08-29T20:17:44.000Z</time>
      </trkpt>
      <trkpt lat="48.86933" lon="2.36222">
        <ele>47.200000762939</ele>
        <time>2016-08-29T20:17:47.000Z</time>
      </trkpt>
      <trkpt lat="48.8693" lon="2.36231">
        <ele>47</ele>
        <time>2016-08-29T20:17:50.000Z</time>
      </trkpt>
      <trkpt lat="48.86919" lon="2.36252">
        <ele>46.599998474121</ele>
        <time>2016-08-29T20:17:56.000Z</time>
      </trkpt>
      <trkpt lat="48.86914" lon="2.36264">
        <ele>46.400001525879</ele>
        <time>2016-08-29T20:17:59.000Z</time>
      </trkpt>
      <trkpt lat="48.86908" lon="2.36277">
        <ele>46</ele>
        <time>2016-08-29T20:18:06.000Z</time>
      </trkpt>
      <trkpt lat="48.86887" lon="2.36282">
        <ele>45.400001525879</ele>
        <time>2016-08-29T20:18:09.000Z</time>
      </trkpt>
      <trkpt lat="48.86864" lon="2.36288">
        <ele>44</ele>
        <time>2016-08-29T20:18:14.000Z</time>
      </trkpt>
      <trkpt lat="48.86844" lon="2.36281">
        <ele>44.200000762939</ele>
        <time>2016-08-29T20:18:20.000Z</time>
      </trkpt>
      <trkpt lat="48.86837" lon="2.36268">
        <ele>45</ele>
        <time>2016-08-29T20:18:53.000Z</time>
      </trkpt>
      <trkpt lat="48.86821" lon="2.36254">
        <ele>46</ele>
        <time>2016-08-29T20:18:58.000Z</time>
      </trkpt>
      <trkpt lat="48.86802" lon="2.36241">
        <ele>46.799999237061</ele>
        <time>2016-08-29T20:19:03.000Z</time>
      </trkpt>
      <trkpt lat="48.86785" lon="2.36252">
        <ele>46.599998474121</ele>
        <time>2016-08-29T20:19:08.000Z</time>
      </trkpt>
      <trkpt lat="48.86773" lon="2.36273">
        <ele>45.200000762939</ele>
        <time>2016-08-29T20:19:12.000Z</time>
      </trkpt>
      <trkpt lat="48.8676" lon="2.36294">
        <ele>43.599998474121</ele>
        <time>2016-08-29T20:19:16.000Z</time>
      </trkpt>
      <trkpt lat="48.86745" lon="2.36318">
        <ele>43.400001525879</ele>
        <time>2016-08-29T20:19:21.000Z</time>
      </trkpt>
      <trkpt lat="48.8673" lon="2.36305">
        <ele>44.400001525879</ele>
        <time>2016-08-29T20:19:25.000Z</time>
      </trkpt>
      <trkpt lat="48.86728" lon="2.36298">
        <ele>44.400001525879</ele>
        <time>2016-08-29T20:19:26.000Z</time>
      </trkpt>
      <trkpt lat="48.86718" lon="2.36272">
        <ele>45.200000762939</ele>
        <time>2016-08-29T20:19:30.000Z</time>
      </trkpt>
      <trkpt lat="48.86707" lon="2.36242">
        <ele>47</ele>
        <time>2016-08-29T20:19:34.000Z</time>
      </trkpt>
      <trkpt lat="48.86703" lon="2.36236">
        <ele>46.799999237061</ele>
        <time>2016-08-29T20:19:35.000Z</time>
      </trkpt>
      <trkpt lat="48.8669" lon="2.36213">
        <ele>46.599998474121</ele>
        <time>2016-08-29T20:19:39.000Z</time>
      </trkpt>
      <trkpt lat="48.86683" lon="2.36188">
        <ele>46.200000762939</ele>
        <time>2016-08-29T20:19:43.000Z</time>
      </trkpt>
      <trkpt lat="48.86676" lon="2.36172">
        <ele>45.799999237061</ele>
        <time>2016-08-29T20:19:46.000Z</time>
      </trkpt>
      <trkpt lat="48.8667" lon="2.36153">
        <ele>45.400001525879</ele>
        <time>2016-08-29T20:19:49.000Z</time>
      </trkpt>
      <trkpt lat="48.8666" lon="2.36127">
        <ele>45</ele>
        <time>2016-08-29T20:19:53.000Z</time>
      </trkpt>
      <trkpt lat="48.86648" lon="2.36098">
        <ele>44.599998474121</ele>
        <time>2016-08-29T20:19:58.000Z</time>
      </trkpt>
      <trkpt lat="48.86643" lon="2.36065">
        <ele>44.599998474121</ele>
        <time>2016-08-29T20:20:03.000Z</time>
      </trkpt>
      <trkpt lat="48.86642" lon="2.36037">
        <ele>44.799999237061</ele>
        <time>2016-08-29T20:20:06.000Z</time>
      </trkpt>
      <trkpt lat="48.86634" lon="2.36009">
        <ele>44.200000762939</ele>
        <time>2016-08-29T20:20:10.000Z</time>
      </trkpt>
      <trkpt lat="48.86624" lon="2.35981">
        <ele>44.200000762939</ele>
        <time>2016-08-29T20:20:14.000Z</time>
      </trkpt>
      <trkpt lat="48.86616" lon="2.35952">
        <ele>44.599998474121</ele>
        <time>2016-08-29T20:20:18.000Z</time>
      </trkpt>
      <trkpt lat="48.86607" lon="2.35922">
        <ele>45</ele>
        <time>2016-08-29T20:20:22.000Z</time>
      </trkpt>
      <trkpt lat="48.86596" lon="2.35892">
        <ele>45</ele>
        <time>2016-08-29T20:20:26.000Z</time>
      </trkpt>
      <trkpt lat="48.86589" lon="2.3586">
        <ele>44.799999237061</ele>
        <time>2016-08-29T20:20:30.000Z</time>
      </trkpt>
      <trkpt lat="48.86581" lon="2.35839">
        <ele>44.599998474121</ele>
        <time>2016-08-29T20:20:33.000Z</time>
      </trkpt>
      <trkpt lat="48.86582" lon="2.35806">
        <ele>44.400001525879</ele>
        <time>2016-08-29T20:20:37.000Z</time>
      </trkpt>
      <trkpt lat="48.86579" lon="2.35782">
        <ele>44.599998474121</ele>
        <time>2016-08-29T20:20:40.000Z</time>
      </trkpt>
      <trkpt lat="48.86574" lon="2.35768">
        <ele>44.799999237061</ele>
        <time>2016-08-29T20:20:42.000Z</time>
      </trkpt>
      <trkpt lat="48.86565" lon="2.3574">
        <ele>45</ele>
        <time>2016-08-29T20:20:46.000Z</time>
      </trkpt>
      <trkpt lat="48.86557" lon="2.35714">
        <ele>45.400001525879</ele>
        <time>2016-08-29T20:20:50.000Z</time>
      </trkpt>
      <trkpt lat="48.86556" lon="2.35707">
        <ele>45.400001525879</ele>
        <time>2016-08-29T20:20:51.000Z</time>
      </trkpt>
      <trkpt lat="48.86546" lon="2.35677">
        <ele>45.400001525879</ele>
        <time>2016-08-29T20:20:56.000Z</time>
      </trkpt>
      <trkpt lat="48.86544" lon="2.35666">
        <ele>45.400001525879</ele>
        <time>2016-08-29T20:20:58.000Z</time>
      </trkpt>
      <trkpt lat="48.86539" lon="2.35643">
        <ele>45.400001525879</ele>
        <time>2016-08-29T20:21:02.000Z</time>
      </trkpt>
      <trkpt lat="48.86537" lon="2.35618">
        <ele>45.400001525879</ele>
        <time>2016-08-29T20:21:06.000Z</time>
      </trkpt>
      <trkpt lat="48.86538" lon="2.35593">
        <ele>45.400001525879</ele>
        <time>2016-08-29T20:21:11.000Z</time>
      </trkpt>
      <trkpt lat="48.86532" lon="2.35571">
        <ele>45.799999237061</ele>
        <time>2016-08-29T20:21:21.000Z</time>
      </trkpt>
      <trkpt lat="48.86515" lon="2.35558">
        <ele>46.400001525879</ele>
        <time>2016-08-29T20:21:27.000Z</time>
      </trkpt>
      <trkpt lat="48.86508" lon="2.35552">
        <ele>46.400001525879</ele>
        <time>2016-08-29T20:21:29.000Z</time>
      </trkpt>
      <trkpt lat="48.8649" lon="2.35538">
        <ele>46</ele>
        <time>2016-08-29T20:21:34.000Z</time>
      </trkpt>
      <trkpt lat="48.8647" lon="2.35526">
        <ele>45.400001525879</ele>
        <time>2016-08-29T20:21:38.000Z</time>
      </trkpt>
      <trkpt lat="48.86453" lon="2.35515">
        <ele>45.200000762939</ele>
        <time>2016-08-29T20:21:41.000Z</time>
      </trkpt>
      <trkpt lat="48.86434" lon="2.35506">
        <ele>45</ele>
        <time>2016-08-29T20:21:44.000Z</time>
      </trkpt>
      <trkpt lat="48.86415" lon="2.35497">
        <ele>44.799999237061</ele>
        <time>2016-08-29T20:21:47.000Z</time>
      </trkpt>
      <trkpt lat="48.86401" lon="2.35492">
        <ele>44.599998474121</ele>
        <time>2016-08-29T20:21:49.000Z</time>
      </trkpt>
      <trkpt lat="48.86388" lon="2.35486">
        <ele>44.599998474121</ele>
        <time>2016-08-29T20:21:51.000Z</time>
      </trkpt>
      <trkpt lat="48.86366" lon="2.35478">
        <ele>44.400001525879</ele>
        <time>2016-08-29T20:21:54.000Z</time>
      </trkpt>
      <trkpt lat="48.86353" lon="2.35472">
        <ele>44.400001525879</ele>
        <time>2016-08-29T20:21:56.000Z</time>
      </trkpt>
      <trkpt lat="48.86333" lon="2.35462">
        <ele>44.799999237061</ele>
        <time>2016-08-29T20:21:59.000Z</time>
      </trkpt>
      <trkpt lat="48.8631" lon="2.35452">
        <ele>45.200000762939</ele>
        <time>2016-08-29T20:22:03.000Z</time>
      </trkpt>
      <trkpt lat="48.86291" lon="2.35445">
        <ele>45.799999237061</ele>
        <time>2016-08-29T20:22:06.000Z</time>
      </trkpt>
      <trkpt lat="48.8628" lon="2.35442">
        <ele>46</ele>
        <time>2016-08-29T20:22:08.000Z</time>
      </trkpt>
      <trkpt lat="48.8627" lon="2.35439">
        <ele>46.400001525879</ele>
        <time>2016-08-29T20:22:10.000Z</time>
      </trkpt>
      <trkpt lat="48.86253" lon="2.35432">
        <ele>46.400001525879</ele>
        <time>2016-08-29T20:22:13.000Z</time>
      </trkpt>
      <trkpt lat="48.8624" lon="2.35423">
        <ele>46.599998474121</ele>
        <time>2016-08-29T20:22:15.000Z</time>
      </trkpt>
      <trkpt lat="48.86219" lon="2.35412">
        <ele>46.599998474121</ele>
        <time>2016-08-29T20:22:18.000Z</time>
      </trkpt>
      <trkpt lat="48.86198" lon="2.35399">
        <ele>47.200000762939</ele>
        <time>2016-08-29T20:22:21.000Z</time>
      </trkpt>
      <trkpt lat="48.86178" lon="2.35387">
        <ele>48.599998474121</ele>
        <time>2016-08-29T20:22:24.000Z</time>
      </trkpt>
      <trkpt lat="48.8616" lon="2.35377">
        <ele>50.400001525879</ele>
        <time>2016-08-29T20:22:26.000Z</time>
      </trkpt>
      <trkpt lat="48.86137" lon="2.35365">
        <ele>52.400001525879</ele>
        <time>2016-08-29T20:22:29.000Z</time>
      </trkpt>
      <trkpt lat="48.86116" lon="2.35359">
        <ele>53.400001525879</ele>
        <time>2016-08-29T20:22:32.000Z</time>
      </trkpt>
      <trkpt lat="48.86096" lon="2.3535">
        <ele>53.599998474121</ele>
        <time>2016-08-29T20:22:35.000Z</time>
      </trkpt>
      <trkpt lat="48.86075" lon="2.35337">
        <ele>53.200000762939</ele>
        <time>2016-08-29T20:22:38.000Z</time>
      </trkpt>
      <trkpt lat="48.86054" lon="2.35321">
        <ele>52.799999237061</ele>
        <time>2016-08-29T20:22:41.000Z</time>
      </trkpt>
      <trkpt lat="48.86037" lon="2.35306">
        <ele>52.200000762939</ele>
        <time>2016-08-29T20:22:44.000Z</time>
      </trkpt>
      <trkpt lat="48.86022" lon="2.3529">
        <ele>51.799999237061</ele>
        <time>2016-08-29T20:22:47.000Z</time>
      </trkpt>
      <trkpt lat="48.85998" lon="2.35269">
        <ele>51</ele>
        <time>2016-08-29T20:22:51.000Z</time>
      </trkpt>
      <trkpt lat="48.85975" lon="2.35259">
        <ele>49.400001525879</ele>
        <time>2016-08-29T20:22:54.000Z</time>
      </trkpt>
      <trkpt lat="48.85955" lon="2.35247">
        <ele>48.400001525879</ele>
        <time>2016-08-29T20:22:56.000Z</time>
      </trkpt>
      <trkpt lat="48.8593" lon="2.35234">
        <ele>47.400001525879</ele>
        <time>2016-08-29T20:22:59.000Z</time>
      </trkpt>
      <trkpt lat="48.85907" lon="2.35217">
        <ele>47.400001525879</ele>
        <time>2016-08-29T20:23:02.000Z</time>
      </trkpt>
      <trkpt lat="48.85892" lon="2.35209">
        <ele>47.799999237061</ele>
        <time>2016-08-29T20:23:04.000Z</time>
      </trkpt>
      <trkpt lat="48.85873" lon="2.35205">
        <ele>48.400001525879</ele>
        <time>2016-08-29T20:23:06.000Z</time>
      </trkpt>
      <trkpt lat="48.8585" lon="2.35195">
        <ele>48.200000762939</ele>
        <time>2016-08-29T20:23:09.000Z</time>
      </trkpt>
      <trkpt lat="48.85831" lon="2.35186">
        <ele>46.400001525879</ele>
        <time>2016-08-29T20:23:12.000Z</time>
      </trkpt>
      <trkpt lat="48.85813" lon="2.35177">
        <ele>44.599998474121</ele>
        <time>2016-08-29T20:23:15.000Z</time>
      </trkpt>
      <trkpt lat="48.85794" lon="2.3517">
        <ele>43</ele>
        <time>2016-08-29T20:23:18.000Z</time>
      </trkpt>
      <trkpt lat="48.85783" lon="2.35164">
        <ele>41.799999237061</ele>
        <time>2016-08-29T20:23:20.000Z</time>
      </trkpt>
      <trkpt lat="48.85768" lon="2.35158">
        <ele>40.799999237061</ele>
        <time>2016-08-29T20:23:23.000Z</time>
      </trkpt>
      <trkpt lat="48.85762" lon="2.35148">
        <ele>40.799999237061</ele>
        <time>2016-08-29T20:23:25.000Z</time>
      </trkpt>
      <trkpt lat="48.85768" lon="2.35122">
        <ele>42.599998474121</ele>
        <time>2016-08-29T20:23:28.000Z</time>
      </trkpt>
      <trkpt lat="48.85769" lon="2.35113">
        <ele>43.200000762939</ele>
        <time>2016-08-29T20:23:29.000Z</time>
      </trkpt>
      <trkpt lat="48.85776" lon="2.35087">
        <ele>45</ele>
        <time>2016-08-29T20:23:32.000Z</time>
      </trkpt>
      <trkpt lat="48.8578" lon="2.35071">
        <ele>45.799999237061</ele>
        <time>2016-08-29T20:23:34.000Z</time>
      </trkpt>
      <trkpt lat="48.85788" lon="2.35039">
        <ele>47.200000762939</ele>
        <time>2016-08-29T20:23:38.000Z</time>
      </trkpt>
      <trkpt lat="48.85793" lon="2.35022">
        <ele>48</ele>
        <time>2016-08-29T20:23:40.000Z</time>
      </trkpt>
      <trkpt lat="48.85802" lon="2.34997">
        <ele>47.599998474121</ele>
        <time>2016-08-29T20:23:43.000Z</time>
      </trkpt>
      <trkpt lat="48.8581" lon="2.34969">
        <ele>45.200000762939</ele>
        <time>2016-08-29T20:23:46.000Z</time>
      </trkpt>
      <trkpt lat="48.8582" lon="2.34939">
        <ele>44.599998474121</ele>
        <time>2016-08-29T20:23:49.000Z</time>
      </trkpt>
      <trkpt lat="48.85823" lon="2.34931">
        <ele>45</ele>
        <time>2016-08-29T20:23:50.000Z</time>
      </trkpt>
      <trkpt lat="48.85833" lon="2.34906">
        <ele>45.799999237061</ele>
        <time>2016-08-29T20:23:53.000Z</time>
      </trkpt>
      <trkpt lat="48.85842" lon="2.3488">
        <ele>46.200000762939</ele>
        <time>2016-08-29T20:23:56.000Z</time>
      </trkpt>
      <trkpt lat="48.85851" lon="2.34849">
        <ele>47.400001525879</ele>
        <time>2016-08-29T20:24:00.000Z</time>
      </trkpt>
      <trkpt lat="48.85857" lon="2.3483">
        <ele>48</ele>
        <time>2016-08-29T20:24:03.000Z</time>
      </trkpt>
      <trkpt lat="48.8586" lon="2.34817">
        <ele>47.799999237061</ele>
        <time>2016-08-29T20:24:05.000Z</time>
      </trkpt>
      <trkpt lat="48.85867" lon="2.3479">
        <ele>47.599998474121</ele>
        <time>2016-08-29T20:24:09.000Z</time>
      </trkpt>
      <trkpt lat="48.85876" lon="2.34763">
        <ele>47</ele>
        <time>2016-08-29T20:24:13.000Z</time>
      </trkpt>
      <trkpt lat="48.85882" lon="2.34751">
        <ele>46.200000762939</ele>
        <time>2016-08-29T20:24:15.000Z</time>
      </trkpt>
      <trkpt lat="48.859" lon="2.34744">
        <ele>45.599998474121</ele>
        <time>2016-08-29T20:24:19.000Z</time>
      </trkpt>
      <trkpt lat="48.85904" lon="2.34742">
        <ele>45.400001525879</ele>
        <time>2016-08-29T20:24:20.000Z</time>
      </trkpt>
      <trkpt lat="48.85921" lon="2.34728">
        <ele>45.200000762939</ele>
        <time>2016-08-29T20:24:24.000Z</time>
      </trkpt>
      <trkpt lat="48.85938" lon="2.34714">
        <ele>45.200000762939</ele>
        <time>2016-08-29T20:24:28.000Z</time>
      </trkpt>
      <trkpt lat="48.85946" lon="2.3471">
        <ele>45.400001525879</ele>
        <time>2016-08-29T20:24:30.000Z</time>
      </trkpt>
      <trkpt lat="48.85958" lon="2.34716">
        <ele>45.400001525879</ele>
        <time>2016-08-29T20:24:34.000Z</time>
      </trkpt>
      <trkpt lat="48.85963" lon="2.3472">
        <ele>45.200000762939</ele>
        <time>2016-08-29T20:24:36.000Z</time>
      </trkpt>
      <trkpt lat="48.85971" lon="2.34722">
        <ele>45.200000762939</ele>
        <time>2016-08-29T20:24:42.000Z</time>
      </trkpt>
      <trkpt lat="48.85972" lon="2.34722">
        <ele>45.200000762939</ele>
        <time>2016-08-29T20:24:43.000Z</time>
      </trkpt>
      <trkpt lat="48.85977" lon="2.34728">
        <ele>45.200000762939</ele>
        <time>2016-08-29T20:24:57.000Z</time>
      </trkpt>
      <trkpt lat="48.85975" lon="2.34721">
        <ele>45.400001525879</ele>
        <time>2016-08-29T20:25:06.000Z</time>
      </trkpt>
      <trkpt lat="48.85978" lon="2.34721">
        <ele>45.400001525879</ele>
        <time>2016-08-29T20:25:23.000Z</time>
      </trkpt>
      <trkpt lat="48.85972" lon="2.34719">
        <ele>45.400001525879</ele>
        <time>2016-08-29T20:25:31.000Z</time>
      </trkpt>
      <trkpt lat="48.85968" lon="2.34716">
        <ele>45.400001525879</ele>
        <time>2016-08-29T20:25:41.000Z</time>
      </trkpt>
    </trkseg>
  </trk>
</gpx>